<?xml version="1.0" encoding="UTF-8" standalone="no" ?>
<gpx xmlns="http://www.topografix.com/GPX/1/1" xmlns:xsi="http://www.w3.org/2001/XMLSchema-instance" xsi:schemaLocation="http://www.topografix.com/GPX/1/1 http://www.topografix.com/GPX/1/1/gpx.xsd" version="1.1" creator="VisuGPX - https://www.visugpx.com">
  <metadata>
    <name>Marche Nordique</name>
    <desc><![CDATA[entrainement pour l\'ecotrail]]></desc>
  </metadata>
  <trk>
    <name><![CDATA[09/03/2013 7:58]]></name>
    <desc><![CDATA[]]></desc>
    <trkseg>
      <trkpt lat="47.32554" lon="4.95867">
        <ele>404</ele>
        <time>2013-03-09T06:59:32.000Z</time>
      </trkpt>
      <trkpt lat="47.32542" lon="4.95847">
        <ele>404</ele>
        <time>2013-03-09T06:59:38.000Z</time>
      </trkpt>
      <trkpt lat="47.32542" lon="4.95848">
        <ele>404</ele>
        <time>2013-03-09T07:05:39.000Z</time>
      </trkpt>
      <trkpt lat="47.32547" lon="4.95843">
        <ele>404</ele>
        <time>2013-03-09T07:05:46.000Z</time>
      </trkpt>
      <trkpt lat="47.32544" lon="4.95848">
        <ele>404</ele>
        <time>2013-03-09T07:08:39.000Z</time>
      </trkpt>
      <trkpt lat="47.32547" lon="4.95836">
        <ele>404</ele>
        <time>2013-03-09T07:08:46.000Z</time>
      </trkpt>
      <trkpt lat="47.32547" lon="4.95836">
        <ele>404</ele>
        <time>2013-03-09T07:09:39.000Z</time>
      </trkpt>
      <trkpt lat="47.32548" lon="4.95847">
        <ele>404</ele>
        <time>2013-03-09T07:09:46.000Z</time>
      </trkpt>
      <trkpt lat="47.32548" lon="4.95847">
        <ele>404</ele>
        <time>2013-03-09T07:10:39.000Z</time>
      </trkpt>
      <trkpt lat="47.32543" lon="4.95853">
        <ele>404</ele>
        <time>2013-03-09T07:10:46.000Z</time>
      </trkpt>
      <trkpt lat="47.32543" lon="4.95853">
        <ele>404</ele>
        <time>2013-03-09T07:11:39.000Z</time>
      </trkpt>
      <trkpt lat="47.32538" lon="4.9585">
        <ele>404</ele>
        <time>2013-03-09T07:11:46.000Z</time>
      </trkpt>
      <trkpt lat="47.32538" lon="4.95845">
        <ele>404</ele>
        <time>2013-03-09T07:13:02.000Z</time>
      </trkpt>
      <trkpt lat="47.32542" lon="4.95849">
        <ele>404</ele>
        <time>2013-03-09T07:13:03.000Z</time>
      </trkpt>
      <trkpt lat="47.32539" lon="4.95851">
        <ele>404</ele>
        <time>2013-03-09T07:14:33.000Z</time>
      </trkpt>
      <trkpt lat="47.32538" lon="4.95852">
        <ele>404</ele>
        <time>2013-03-09T07:14:34.000Z</time>
      </trkpt>
      <trkpt lat="47.32535" lon="4.95856">
        <ele>404</ele>
        <time>2013-03-09T07:14:38.000Z</time>
      </trkpt>
      <trkpt lat="47.32534" lon="4.95857">
        <ele>404</ele>
        <time>2013-03-09T07:14:39.000Z</time>
      </trkpt>
      <trkpt lat="47.32508" lon="4.95873">
        <ele>404</ele>
        <time>2013-03-09T07:15:00.000Z</time>
      </trkpt>
      <trkpt lat="47.32505" lon="4.95875">
        <ele>404</ele>
        <time>2013-03-09T07:15:02.000Z</time>
      </trkpt>
      <trkpt lat="47.32503" lon="4.95876">
        <ele>404</ele>
        <time>2013-03-09T07:15:03.000Z</time>
      </trkpt>
      <trkpt lat="47.32499" lon="4.95879">
        <ele>405</ele>
        <time>2013-03-09T07:15:06.000Z</time>
      </trkpt>
      <trkpt lat="47.32498" lon="4.9588">
        <ele>405</ele>
        <time>2013-03-09T07:15:07.000Z</time>
      </trkpt>
      <trkpt lat="47.32494" lon="4.95883">
        <ele>405</ele>
        <time>2013-03-09T07:15:10.000Z</time>
      </trkpt>
      <trkpt lat="47.32493" lon="4.95883">
        <ele>405</ele>
        <time>2013-03-09T07:15:11.000Z</time>
      </trkpt>
      <trkpt lat="47.32489" lon="4.95886">
        <ele>405</ele>
        <time>2013-03-09T07:15:14.000Z</time>
      </trkpt>
      <trkpt lat="47.32487" lon="4.95887">
        <ele>405</ele>
        <time>2013-03-09T07:15:15.000Z</time>
      </trkpt>
      <trkpt lat="47.32484" lon="4.95889">
        <ele>405</ele>
        <time>2013-03-09T07:15:18.000Z</time>
      </trkpt>
      <trkpt lat="47.32482" lon="4.9589">
        <ele>405</ele>
        <time>2013-03-09T07:15:19.000Z</time>
      </trkpt>
      <trkpt lat="47.32478" lon="4.95892">
        <ele>405</ele>
        <time>2013-03-09T07:15:22.000Z</time>
      </trkpt>
      <trkpt lat="47.32477" lon="4.95893">
        <ele>405</ele>
        <time>2013-03-09T07:15:23.000Z</time>
      </trkpt>
      <trkpt lat="47.32473" lon="4.95895">
        <ele>405</ele>
        <time>2013-03-09T07:15:26.000Z</time>
      </trkpt>
      <trkpt lat="47.32472" lon="4.95896">
        <ele>405</ele>
        <time>2013-03-09T07:15:27.000Z</time>
      </trkpt>
      <trkpt lat="47.32469" lon="4.95897">
        <ele>405</ele>
        <time>2013-03-09T07:15:29.000Z</time>
      </trkpt>
      <trkpt lat="47.32467" lon="4.95898">
        <ele>405</ele>
        <time>2013-03-09T07:15:30.000Z</time>
      </trkpt>
      <trkpt lat="47.32463" lon="4.959">
        <ele>405</ele>
        <time>2013-03-09T07:15:33.000Z</time>
      </trkpt>
      <trkpt lat="47.32462" lon="4.95901">
        <ele>405</ele>
        <time>2013-03-09T07:15:34.000Z</time>
      </trkpt>
      <trkpt lat="47.32458" lon="4.95903">
        <ele>405</ele>
        <time>2013-03-09T07:15:37.000Z</time>
      </trkpt>
      <trkpt lat="47.32457" lon="4.95904">
        <ele>405</ele>
        <time>2013-03-09T07:15:38.000Z</time>
      </trkpt>
      <trkpt lat="47.32456" lon="4.95904">
        <ele>405</ele>
        <time>2013-03-09T07:15:39.000Z</time>
      </trkpt>
      <trkpt lat="47.32447" lon="4.9591">
        <ele>405</ele>
        <time>2013-03-09T07:15:46.000Z</time>
      </trkpt>
      <trkpt lat="47.32443" lon="4.95912">
        <ele>406</ele>
        <time>2013-03-09T07:15:49.000Z</time>
      </trkpt>
      <trkpt lat="47.32441" lon="4.95912">
        <ele>406</ele>
        <time>2013-03-09T07:15:50.000Z</time>
      </trkpt>
      <trkpt lat="47.32437" lon="4.95914">
        <ele>406</ele>
        <time>2013-03-09T07:15:53.000Z</time>
      </trkpt>
      <trkpt lat="47.32435" lon="4.95914">
        <ele>406</ele>
        <time>2013-03-09T07:15:54.000Z</time>
      </trkpt>
      <trkpt lat="47.32432" lon="4.95915">
        <ele>406</ele>
        <time>2013-03-09T07:15:56.000Z</time>
      </trkpt>
      <trkpt lat="47.32431" lon="4.95916">
        <ele>406</ele>
        <time>2013-03-09T07:15:57.000Z</time>
      </trkpt>
      <trkpt lat="47.32427" lon="4.95917">
        <ele>406</ele>
        <time>2013-03-09T07:16:00.000Z</time>
      </trkpt>
      <trkpt lat="47.32425" lon="4.95918">
        <ele>406</ele>
        <time>2013-03-09T07:16:01.000Z</time>
      </trkpt>
      <trkpt lat="47.32422" lon="4.95918">
        <ele>406</ele>
        <time>2013-03-09T07:16:03.000Z</time>
      </trkpt>
      <trkpt lat="47.32421" lon="4.95919">
        <ele>406</ele>
        <time>2013-03-09T07:16:04.000Z</time>
      </trkpt>
      <trkpt lat="47.32416" lon="4.95921">
        <ele>406</ele>
        <time>2013-03-09T07:16:07.000Z</time>
      </trkpt>
      <trkpt lat="47.32415" lon="4.95921">
        <ele>406</ele>
        <time>2013-03-09T07:16:08.000Z</time>
      </trkpt>
      <trkpt lat="47.32411" lon="4.95923">
        <ele>406</ele>
        <time>2013-03-09T07:16:11.000Z</time>
      </trkpt>
      <trkpt lat="47.32409" lon="4.95923">
        <ele>406</ele>
        <time>2013-03-09T07:16:12.000Z</time>
      </trkpt>
      <trkpt lat="47.32405" lon="4.95924">
        <ele>405</ele>
        <time>2013-03-09T07:16:15.000Z</time>
      </trkpt>
      <trkpt lat="47.32404" lon="4.95925">
        <ele>405</ele>
        <time>2013-03-09T07:16:16.000Z</time>
      </trkpt>
      <trkpt lat="47.324" lon="4.95926">
        <ele>405</ele>
        <time>2013-03-09T07:16:19.000Z</time>
      </trkpt>
      <trkpt lat="47.32398" lon="4.95926">
        <ele>405</ele>
        <time>2013-03-09T07:16:20.000Z</time>
      </trkpt>
      <trkpt lat="47.32394" lon="4.95928">
        <ele>405</ele>
        <time>2013-03-09T07:16:23.000Z</time>
      </trkpt>
      <trkpt lat="47.32392" lon="4.95928">
        <ele>405</ele>
        <time>2013-03-09T07:16:24.000Z</time>
      </trkpt>
      <trkpt lat="47.32388" lon="4.95929">
        <ele>405</ele>
        <time>2013-03-09T07:16:27.000Z</time>
      </trkpt>
      <trkpt lat="47.32386" lon="4.9593">
        <ele>405</ele>
        <time>2013-03-09T07:16:28.000Z</time>
      </trkpt>
      <trkpt lat="47.32382" lon="4.95931">
        <ele>405</ele>
        <time>2013-03-09T07:16:31.000Z</time>
      </trkpt>
      <trkpt lat="47.32381" lon="4.95931">
        <ele>405</ele>
        <time>2013-03-09T07:16:32.000Z</time>
      </trkpt>
      <trkpt lat="47.32376" lon="4.95933">
        <ele>405</ele>
        <time>2013-03-09T07:16:35.000Z</time>
      </trkpt>
      <trkpt lat="47.32375" lon="4.95933">
        <ele>405</ele>
        <time>2013-03-09T07:16:36.000Z</time>
      </trkpt>
      <trkpt lat="47.32371" lon="4.95934">
        <ele>405</ele>
        <time>2013-03-09T07:16:39.000Z</time>
      </trkpt>
      <trkpt lat="47.32361" lon="4.95938">
        <ele>405</ele>
        <time>2013-03-09T07:16:46.000Z</time>
      </trkpt>
      <trkpt lat="47.32357" lon="4.95938">
        <ele>405</ele>
        <time>2013-03-09T07:16:48.000Z</time>
      </trkpt>
      <trkpt lat="47.32356" lon="4.95938">
        <ele>405</ele>
        <time>2013-03-09T07:16:49.000Z</time>
      </trkpt>
      <trkpt lat="47.32353" lon="4.9594">
        <ele>405</ele>
        <time>2013-03-09T07:16:51.000Z</time>
      </trkpt>
      <trkpt lat="47.32351" lon="4.9594">
        <ele>405</ele>
        <time>2013-03-09T07:16:52.000Z</time>
      </trkpt>
      <trkpt lat="47.32347" lon="4.95942">
        <ele>405</ele>
        <time>2013-03-09T07:16:55.000Z</time>
      </trkpt>
      <trkpt lat="47.32345" lon="4.95942">
        <ele>405</ele>
        <time>2013-03-09T07:16:56.000Z</time>
      </trkpt>
      <trkpt lat="47.32342" lon="4.95943">
        <ele>405</ele>
        <time>2013-03-09T07:16:58.000Z</time>
      </trkpt>
      <trkpt lat="47.32341" lon="4.95943">
        <ele>405</ele>
        <time>2013-03-09T07:16:59.000Z</time>
      </trkpt>
      <trkpt lat="47.32336" lon="4.95945">
        <ele>405</ele>
        <time>2013-03-09T07:17:02.000Z</time>
      </trkpt>
      <trkpt lat="47.32335" lon="4.95945">
        <ele>405</ele>
        <time>2013-03-09T07:17:03.000Z</time>
      </trkpt>
      <trkpt lat="47.32331" lon="4.95946">
        <ele>404</ele>
        <time>2013-03-09T07:17:06.000Z</time>
      </trkpt>
      <trkpt lat="47.32329" lon="4.95947">
        <ele>404</ele>
        <time>2013-03-09T07:17:07.000Z</time>
      </trkpt>
      <trkpt lat="47.32325" lon="4.95948">
        <ele>403</ele>
        <time>2013-03-09T07:17:10.000Z</time>
      </trkpt>
      <trkpt lat="47.32324" lon="4.95949">
        <ele>403</ele>
        <time>2013-03-09T07:17:11.000Z</time>
      </trkpt>
      <trkpt lat="47.32319" lon="4.9595">
        <ele>403</ele>
        <time>2013-03-09T07:17:14.000Z</time>
      </trkpt>
      <trkpt lat="47.32318" lon="4.95951">
        <ele>403</ele>
        <time>2013-03-09T07:17:15.000Z</time>
      </trkpt>
      <trkpt lat="47.32314" lon="4.95952">
        <ele>403</ele>
        <time>2013-03-09T07:17:18.000Z</time>
      </trkpt>
      <trkpt lat="47.32312" lon="4.95953">
        <ele>403</ele>
        <time>2013-03-09T07:17:19.000Z</time>
      </trkpt>
      <trkpt lat="47.32309" lon="4.95954">
        <ele>403</ele>
        <time>2013-03-09T07:17:21.000Z</time>
      </trkpt>
      <trkpt lat="47.32308" lon="4.95954">
        <ele>403</ele>
        <time>2013-03-09T07:17:22.000Z</time>
      </trkpt>
      <trkpt lat="47.32305" lon="4.95955">
        <ele>403</ele>
        <time>2013-03-09T07:17:24.000Z</time>
      </trkpt>
      <trkpt lat="47.32303" lon="4.95956">
        <ele>403</ele>
        <time>2013-03-09T07:17:25.000Z</time>
      </trkpt>
      <trkpt lat="47.323" lon="4.95956">
        <ele>403</ele>
        <time>2013-03-09T07:17:27.000Z</time>
      </trkpt>
      <trkpt lat="47.32299" lon="4.95957">
        <ele>403</ele>
        <time>2013-03-09T07:17:28.000Z</time>
      </trkpt>
      <trkpt lat="47.32294" lon="4.95959">
        <ele>403</ele>
        <time>2013-03-09T07:17:31.000Z</time>
      </trkpt>
      <trkpt lat="47.32293" lon="4.95959">
        <ele>403</ele>
        <time>2013-03-09T07:17:32.000Z</time>
      </trkpt>
      <trkpt lat="47.32288" lon="4.95961">
        <ele>403</ele>
        <time>2013-03-09T07:17:35.000Z</time>
      </trkpt>
      <trkpt lat="47.32287" lon="4.95962">
        <ele>403</ele>
        <time>2013-03-09T07:17:36.000Z</time>
      </trkpt>
      <trkpt lat="47.32283" lon="4.95963">
        <ele>403</ele>
        <time>2013-03-09T07:17:39.000Z</time>
      </trkpt>
      <trkpt lat="47.32273" lon="4.95966">
        <ele>402</ele>
        <time>2013-03-09T07:17:46.000Z</time>
      </trkpt>
      <trkpt lat="47.32269" lon="4.95966">
        <ele>402</ele>
        <time>2013-03-09T07:17:48.000Z</time>
      </trkpt>
      <trkpt lat="47.32268" lon="4.95968">
        <ele>402</ele>
        <time>2013-03-09T07:17:49.000Z</time>
      </trkpt>
      <trkpt lat="47.32265" lon="4.95969">
        <ele>402</ele>
        <time>2013-03-09T07:17:51.000Z</time>
      </trkpt>
      <trkpt lat="47.32263" lon="4.95969">
        <ele>402</ele>
        <time>2013-03-09T07:17:52.000Z</time>
      </trkpt>
      <trkpt lat="47.3226" lon="4.9597">
        <ele>402</ele>
        <time>2013-03-09T07:17:54.000Z</time>
      </trkpt>
      <trkpt lat="47.32259" lon="4.95971">
        <ele>402</ele>
        <time>2013-03-09T07:17:55.000Z</time>
      </trkpt>
      <trkpt lat="47.32256" lon="4.95971">
        <ele>402</ele>
        <time>2013-03-09T07:17:57.000Z</time>
      </trkpt>
      <trkpt lat="47.32254" lon="4.95972">
        <ele>402</ele>
        <time>2013-03-09T07:17:58.000Z</time>
      </trkpt>
      <trkpt lat="47.3225" lon="4.95972">
        <ele>398</ele>
        <time>2013-03-09T07:18:01.000Z</time>
      </trkpt>
      <trkpt lat="47.32249" lon="4.95973">
        <ele>398</ele>
        <time>2013-03-09T07:18:02.000Z</time>
      </trkpt>
      <trkpt lat="47.32245" lon="4.95974">
        <ele>398</ele>
        <time>2013-03-09T07:18:05.000Z</time>
      </trkpt>
      <trkpt lat="47.32243" lon="4.95974">
        <ele>398</ele>
        <time>2013-03-09T07:18:06.000Z</time>
      </trkpt>
      <trkpt lat="47.32239" lon="4.95974">
        <ele>398</ele>
        <time>2013-03-09T07:18:09.000Z</time>
      </trkpt>
      <trkpt lat="47.32238" lon="4.95974">
        <ele>398</ele>
        <time>2013-03-09T07:18:10.000Z</time>
      </trkpt>
      <trkpt lat="47.32235" lon="4.9597">
        <ele>398</ele>
        <time>2013-03-09T07:18:16.000Z</time>
      </trkpt>
      <trkpt lat="47.32234" lon="4.95968">
        <ele>397</ele>
        <time>2013-03-09T07:18:17.000Z</time>
      </trkpt>
      <trkpt lat="47.32233" lon="4.95963">
        <ele>397</ele>
        <time>2013-03-09T07:18:20.000Z</time>
      </trkpt>
      <trkpt lat="47.32232" lon="4.95961">
        <ele>397</ele>
        <time>2013-03-09T07:18:21.000Z</time>
      </trkpt>
      <trkpt lat="47.3223" lon="4.95956">
        <ele>397</ele>
        <time>2013-03-09T07:18:24.000Z</time>
      </trkpt>
      <trkpt lat="47.3223" lon="4.95954">
        <ele>397</ele>
        <time>2013-03-09T07:18:25.000Z</time>
      </trkpt>
      <trkpt lat="47.32228" lon="4.95949">
        <ele>397</ele>
        <time>2013-03-09T07:18:28.000Z</time>
      </trkpt>
      <trkpt lat="47.32227" lon="4.95947">
        <ele>397</ele>
        <time>2013-03-09T07:18:29.000Z</time>
      </trkpt>
      <trkpt lat="47.32226" lon="4.95941">
        <ele>397</ele>
        <time>2013-03-09T07:18:32.000Z</time>
      </trkpt>
      <trkpt lat="47.32225" lon="4.95939">
        <ele>397</ele>
        <time>2013-03-09T07:18:33.000Z</time>
      </trkpt>
      <trkpt lat="47.32224" lon="4.95933">
        <ele>397</ele>
        <time>2013-03-09T07:18:36.000Z</time>
      </trkpt>
      <trkpt lat="47.32223" lon="4.95932">
        <ele>397</ele>
        <time>2013-03-09T07:18:37.000Z</time>
      </trkpt>
      <trkpt lat="47.32222" lon="4.95927">
        <ele>397</ele>
        <time>2013-03-09T07:18:39.000Z</time>
      </trkpt>
      <trkpt lat="47.32216" lon="4.95912">
        <ele>398</ele>
        <time>2013-03-09T07:18:46.000Z</time>
      </trkpt>
      <trkpt lat="47.32213" lon="4.95907">
        <ele>398</ele>
        <time>2013-03-09T07:18:49.000Z</time>
      </trkpt>
      <trkpt lat="47.32212" lon="4.95904">
        <ele>398</ele>
        <time>2013-03-09T07:18:50.000Z</time>
      </trkpt>
      <trkpt lat="47.3221" lon="4.959">
        <ele>398</ele>
        <time>2013-03-09T07:18:52.000Z</time>
      </trkpt>
      <trkpt lat="47.32209" lon="4.95898">
        <ele>398</ele>
        <time>2013-03-09T07:18:53.000Z</time>
      </trkpt>
      <trkpt lat="47.32207" lon="4.95892">
        <ele>398</ele>
        <time>2013-03-09T07:18:56.000Z</time>
      </trkpt>
      <trkpt lat="47.32206" lon="4.9589">
        <ele>398</ele>
        <time>2013-03-09T07:18:57.000Z</time>
      </trkpt>
      <trkpt lat="47.32205" lon="4.95886">
        <ele>398</ele>
        <time>2013-03-09T07:18:59.000Z</time>
      </trkpt>
      <trkpt lat="47.32204" lon="4.95883">
        <ele>398</ele>
        <time>2013-03-09T07:19:00.000Z</time>
      </trkpt>
      <trkpt lat="47.32203" lon="4.95878">
        <ele>398</ele>
        <time>2013-03-09T07:19:03.000Z</time>
      </trkpt>
      <trkpt lat="47.32202" lon="4.95875">
        <ele>398</ele>
        <time>2013-03-09T07:19:04.000Z</time>
      </trkpt>
      <trkpt lat="47.322" lon="4.95872">
        <ele>398</ele>
        <time>2013-03-09T07:19:06.000Z</time>
      </trkpt>
      <trkpt lat="47.322" lon="4.95869">
        <ele>398</ele>
        <time>2013-03-09T07:19:07.000Z</time>
      </trkpt>
      <trkpt lat="47.32198" lon="4.95865">
        <ele>398</ele>
        <time>2013-03-09T07:19:09.000Z</time>
      </trkpt>
      <trkpt lat="47.32197" lon="4.95863">
        <ele>398</ele>
        <time>2013-03-09T07:19:10.000Z</time>
      </trkpt>
      <trkpt lat="47.32195" lon="4.95857">
        <ele>398</ele>
        <time>2013-03-09T07:19:13.000Z</time>
      </trkpt>
      <trkpt lat="47.32194" lon="4.95855">
        <ele>398</ele>
        <time>2013-03-09T07:19:14.000Z</time>
      </trkpt>
      <trkpt lat="47.32193" lon="4.95851">
        <ele>398</ele>
        <time>2013-03-09T07:19:16.000Z</time>
      </trkpt>
      <trkpt lat="47.32193" lon="4.95849">
        <ele>398</ele>
        <time>2013-03-09T07:19:17.000Z</time>
      </trkpt>
      <trkpt lat="47.32191" lon="4.95844">
        <ele>398</ele>
        <time>2013-03-09T07:19:19.000Z</time>
      </trkpt>
      <trkpt lat="47.3219" lon="4.95843">
        <ele>398</ele>
        <time>2013-03-09T07:19:20.000Z</time>
      </trkpt>
      <trkpt lat="47.32189" lon="4.95838">
        <ele>398</ele>
        <time>2013-03-09T07:19:22.000Z</time>
      </trkpt>
      <trkpt lat="47.32189" lon="4.95836">
        <ele>398</ele>
        <time>2013-03-09T07:19:23.000Z</time>
      </trkpt>
      <trkpt lat="47.32186" lon="4.95831">
        <ele>399</ele>
        <time>2013-03-09T07:19:26.000Z</time>
      </trkpt>
      <trkpt lat="47.32186" lon="4.95829">
        <ele>399</ele>
        <time>2013-03-09T07:19:27.000Z</time>
      </trkpt>
      <trkpt lat="47.32184" lon="4.95825">
        <ele>399</ele>
        <time>2013-03-09T07:19:29.000Z</time>
      </trkpt>
      <trkpt lat="47.32183" lon="4.95824">
        <ele>399</ele>
        <time>2013-03-09T07:19:30.000Z</time>
      </trkpt>
      <trkpt lat="47.32182" lon="4.95819">
        <ele>399</ele>
        <time>2013-03-09T07:19:32.000Z</time>
      </trkpt>
      <trkpt lat="47.32181" lon="4.95818">
        <ele>399</ele>
        <time>2013-03-09T07:19:33.000Z</time>
      </trkpt>
      <trkpt lat="47.3218" lon="4.95814">
        <ele>399</ele>
        <time>2013-03-09T07:19:35.000Z</time>
      </trkpt>
      <trkpt lat="47.32179" lon="4.95812">
        <ele>400</ele>
        <time>2013-03-09T07:19:36.000Z</time>
      </trkpt>
      <trkpt lat="47.32176" lon="4.95806">
        <ele>400</ele>
        <time>2013-03-09T07:19:39.000Z</time>
      </trkpt>
      <trkpt lat="47.32171" lon="4.9579">
        <ele>400</ele>
        <time>2013-03-09T07:19:46.000Z</time>
      </trkpt>
      <trkpt lat="47.32169" lon="4.95785">
        <ele>400</ele>
        <time>2013-03-09T07:19:49.000Z</time>
      </trkpt>
      <trkpt lat="47.32168" lon="4.95783">
        <ele>400</ele>
        <time>2013-03-09T07:19:50.000Z</time>
      </trkpt>
      <trkpt lat="47.32167" lon="4.95779">
        <ele>396</ele>
        <time>2013-03-09T07:19:52.000Z</time>
      </trkpt>
      <trkpt lat="47.32166" lon="4.95777">
        <ele>396</ele>
        <time>2013-03-09T07:19:53.000Z</time>
      </trkpt>
      <trkpt lat="47.32164" lon="4.95772">
        <ele>396</ele>
        <time>2013-03-09T07:19:56.000Z</time>
      </trkpt>
      <trkpt lat="47.32163" lon="4.9577">
        <ele>396</ele>
        <time>2013-03-09T07:19:57.000Z</time>
      </trkpt>
      <trkpt lat="47.32161" lon="4.95765">
        <ele>397</ele>
        <time>2013-03-09T07:20:00.000Z</time>
      </trkpt>
      <trkpt lat="47.3216" lon="4.95763">
        <ele>397</ele>
        <time>2013-03-09T07:20:01.000Z</time>
      </trkpt>
      <trkpt lat="47.32158" lon="4.95757">
        <ele>398</ele>
        <time>2013-03-09T07:20:04.000Z</time>
      </trkpt>
      <trkpt lat="47.32157" lon="4.95755">
        <ele>398</ele>
        <time>2013-03-09T07:20:05.000Z</time>
      </trkpt>
      <trkpt lat="47.32156" lon="4.95751">
        <ele>398</ele>
        <time>2013-03-09T07:20:07.000Z</time>
      </trkpt>
      <trkpt lat="47.32155" lon="4.95748">
        <ele>399</ele>
        <time>2013-03-09T07:20:08.000Z</time>
      </trkpt>
      <trkpt lat="47.32153" lon="4.95743">
        <ele>398</ele>
        <time>2013-03-09T07:20:11.000Z</time>
      </trkpt>
      <trkpt lat="47.32152" lon="4.95741">
        <ele>398</ele>
        <time>2013-03-09T07:20:12.000Z</time>
      </trkpt>
      <trkpt lat="47.32151" lon="4.95737">
        <ele>398</ele>
        <time>2013-03-09T07:20:14.000Z</time>
      </trkpt>
      <trkpt lat="47.3215" lon="4.95734">
        <ele>398</ele>
        <time>2013-03-09T07:20:15.000Z</time>
      </trkpt>
      <trkpt lat="47.32149" lon="4.9573">
        <ele>398</ele>
        <time>2013-03-09T07:20:17.000Z</time>
      </trkpt>
      <trkpt lat="47.32148" lon="4.95728">
        <ele>398</ele>
        <time>2013-03-09T07:20:18.000Z</time>
      </trkpt>
      <trkpt lat="47.32146" lon="4.95724">
        <ele>398</ele>
        <time>2013-03-09T07:20:20.000Z</time>
      </trkpt>
      <trkpt lat="47.32145" lon="4.95722">
        <ele>398</ele>
        <time>2013-03-09T07:20:21.000Z</time>
      </trkpt>
      <trkpt lat="47.32144" lon="4.95718">
        <ele>398</ele>
        <time>2013-03-09T07:20:23.000Z</time>
      </trkpt>
      <trkpt lat="47.32143" lon="4.95716">
        <ele>398</ele>
        <time>2013-03-09T07:20:24.000Z</time>
      </trkpt>
      <trkpt lat="47.32142" lon="4.95712">
        <ele>398</ele>
        <time>2013-03-09T07:20:26.000Z</time>
      </trkpt>
      <trkpt lat="47.32141" lon="4.9571">
        <ele>398</ele>
        <time>2013-03-09T07:20:27.000Z</time>
      </trkpt>
      <trkpt lat="47.3214" lon="4.95706">
        <ele>398</ele>
        <time>2013-03-09T07:20:29.000Z</time>
      </trkpt>
      <trkpt lat="47.32139" lon="4.95703">
        <ele>398</ele>
        <time>2013-03-09T07:20:30.000Z</time>
      </trkpt>
      <trkpt lat="47.32137" lon="4.95699">
        <ele>398</ele>
        <time>2013-03-09T07:20:32.000Z</time>
      </trkpt>
      <trkpt lat="47.32137" lon="4.95697">
        <ele>398</ele>
        <time>2013-03-09T07:20:33.000Z</time>
      </trkpt>
      <trkpt lat="47.32135" lon="4.95693">
        <ele>398</ele>
        <time>2013-03-09T07:20:35.000Z</time>
      </trkpt>
      <trkpt lat="47.32135" lon="4.95691">
        <ele>398</ele>
        <time>2013-03-09T07:20:36.000Z</time>
      </trkpt>
      <trkpt lat="47.32133" lon="4.95685">
        <ele>398</ele>
        <time>2013-03-09T07:20:39.000Z</time>
      </trkpt>
      <trkpt lat="47.32128" lon="4.95671">
        <ele>398</ele>
        <time>2013-03-09T07:20:46.000Z</time>
      </trkpt>
      <trkpt lat="47.32127" lon="4.95666">
        <ele>400</ele>
        <time>2013-03-09T07:20:48.000Z</time>
      </trkpt>
      <trkpt lat="47.32126" lon="4.95664">
        <ele>400</ele>
        <time>2013-03-09T07:20:49.000Z</time>
      </trkpt>
      <trkpt lat="47.32124" lon="4.95658">
        <ele>400</ele>
        <time>2013-03-09T07:20:52.000Z</time>
      </trkpt>
      <trkpt lat="47.32123" lon="4.95656">
        <ele>400</ele>
        <time>2013-03-09T07:20:53.000Z</time>
      </trkpt>
      <trkpt lat="47.32121" lon="4.95652">
        <ele>400</ele>
        <time>2013-03-09T07:20:55.000Z</time>
      </trkpt>
      <trkpt lat="47.32121" lon="4.9565">
        <ele>400</ele>
        <time>2013-03-09T07:20:56.000Z</time>
      </trkpt>
      <trkpt lat="47.32119" lon="4.95646">
        <ele>400</ele>
        <time>2013-03-09T07:20:58.000Z</time>
      </trkpt>
      <trkpt lat="47.32118" lon="4.95644">
        <ele>400</ele>
        <time>2013-03-09T07:20:59.000Z</time>
      </trkpt>
      <trkpt lat="47.32117" lon="4.9564">
        <ele>400</ele>
        <time>2013-03-09T07:21:01.000Z</time>
      </trkpt>
      <trkpt lat="47.32116" lon="4.95637">
        <ele>400</ele>
        <time>2013-03-09T07:21:02.000Z</time>
      </trkpt>
      <trkpt lat="47.32114" lon="4.95632">
        <ele>400</ele>
        <time>2013-03-09T07:21:05.000Z</time>
      </trkpt>
      <trkpt lat="47.32113" lon="4.9563">
        <ele>400</ele>
        <time>2013-03-09T07:21:06.000Z</time>
      </trkpt>
      <trkpt lat="47.32111" lon="4.95624">
        <ele>400</ele>
        <time>2013-03-09T07:21:09.000Z</time>
      </trkpt>
      <trkpt lat="47.3211" lon="4.95622">
        <ele>400</ele>
        <time>2013-03-09T07:21:10.000Z</time>
      </trkpt>
      <trkpt lat="47.32109" lon="4.95618">
        <ele>400</ele>
        <time>2013-03-09T07:21:12.000Z</time>
      </trkpt>
      <trkpt lat="47.32108" lon="4.95616">
        <ele>400</ele>
        <time>2013-03-09T07:21:13.000Z</time>
      </trkpt>
      <trkpt lat="47.32106" lon="4.9561">
        <ele>400</ele>
        <time>2013-03-09T07:21:16.000Z</time>
      </trkpt>
      <trkpt lat="47.32105" lon="4.95609">
        <ele>400</ele>
        <time>2013-03-09T07:21:17.000Z</time>
      </trkpt>
      <trkpt lat="47.32103" lon="4.95603">
        <ele>400</ele>
        <time>2013-03-09T07:21:20.000Z</time>
      </trkpt>
      <trkpt lat="47.32103" lon="4.95601">
        <ele>400</ele>
        <time>2013-03-09T07:21:21.000Z</time>
      </trkpt>
      <trkpt lat="47.32101" lon="4.95597">
        <ele>400</ele>
        <time>2013-03-09T07:21:23.000Z</time>
      </trkpt>
      <trkpt lat="47.321" lon="4.95595">
        <ele>400</ele>
        <time>2013-03-09T07:21:24.000Z</time>
      </trkpt>
      <trkpt lat="47.32098" lon="4.95589">
        <ele>400</ele>
        <time>2013-03-09T07:21:27.000Z</time>
      </trkpt>
      <trkpt lat="47.32098" lon="4.95588">
        <ele>400</ele>
        <time>2013-03-09T07:21:28.000Z</time>
      </trkpt>
      <trkpt lat="47.32096" lon="4.95584">
        <ele>400</ele>
        <time>2013-03-09T07:21:30.000Z</time>
      </trkpt>
      <trkpt lat="47.32096" lon="4.95581">
        <ele>401</ele>
        <time>2013-03-09T07:21:31.000Z</time>
      </trkpt>
      <trkpt lat="47.32094" lon="4.95577">
        <ele>401</ele>
        <time>2013-03-09T07:21:33.000Z</time>
      </trkpt>
      <trkpt lat="47.32093" lon="4.95575">
        <ele>401</ele>
        <time>2013-03-09T07:21:34.000Z</time>
      </trkpt>
      <trkpt lat="47.32092" lon="4.95571">
        <ele>402</ele>
        <time>2013-03-09T07:21:36.000Z</time>
      </trkpt>
      <trkpt lat="47.32091" lon="4.95569">
        <ele>402</ele>
        <time>2013-03-09T07:21:37.000Z</time>
      </trkpt>
      <trkpt lat="47.32089" lon="4.95565">
        <ele>402</ele>
        <time>2013-03-09T07:21:39.000Z</time>
      </trkpt>
      <trkpt lat="47.32083" lon="4.95552">
        <ele>400</ele>
        <time>2013-03-09T07:21:46.000Z</time>
      </trkpt>
      <trkpt lat="47.32081" lon="4.95548">
        <ele>400</ele>
        <time>2013-03-09T07:21:48.000Z</time>
      </trkpt>
      <trkpt lat="47.32081" lon="4.95546">
        <ele>400</ele>
        <time>2013-03-09T07:21:49.000Z</time>
      </trkpt>
      <trkpt lat="47.32079" lon="4.95542">
        <ele>400</ele>
        <time>2013-03-09T07:21:51.000Z</time>
      </trkpt>
      <trkpt lat="47.32078" lon="4.9554">
        <ele>400</ele>
        <time>2013-03-09T07:21:52.000Z</time>
      </trkpt>
      <trkpt lat="47.32077" lon="4.95536">
        <ele>400</ele>
        <time>2013-03-09T07:21:54.000Z</time>
      </trkpt>
      <trkpt lat="47.32076" lon="4.95534">
        <ele>400</ele>
        <time>2013-03-09T07:21:55.000Z</time>
      </trkpt>
      <trkpt lat="47.32074" lon="4.95529">
        <ele>401</ele>
        <time>2013-03-09T07:21:58.000Z</time>
      </trkpt>
      <trkpt lat="47.32073" lon="4.95527">
        <ele>401</ele>
        <time>2013-03-09T07:21:59.000Z</time>
      </trkpt>
      <trkpt lat="47.32071" lon="4.95523">
        <ele>401</ele>
        <time>2013-03-09T07:22:01.000Z</time>
      </trkpt>
      <trkpt lat="47.3207" lon="4.95521">
        <ele>401</ele>
        <time>2013-03-09T07:22:02.000Z</time>
      </trkpt>
      <trkpt lat="47.32068" lon="4.95516">
        <ele>401</ele>
        <time>2013-03-09T07:22:05.000Z</time>
      </trkpt>
      <trkpt lat="47.32067" lon="4.95514">
        <ele>401</ele>
        <time>2013-03-09T07:22:06.000Z</time>
      </trkpt>
      <trkpt lat="47.32065" lon="4.95508">
        <ele>401</ele>
        <time>2013-03-09T07:22:09.000Z</time>
      </trkpt>
      <trkpt lat="47.32064" lon="4.95506">
        <ele>401</ele>
        <time>2013-03-09T07:22:10.000Z</time>
      </trkpt>
      <trkpt lat="47.32062" lon="4.95502">
        <ele>401</ele>
        <time>2013-03-09T07:22:12.000Z</time>
      </trkpt>
      <trkpt lat="47.32061" lon="4.955">
        <ele>401</ele>
        <time>2013-03-09T07:22:13.000Z</time>
      </trkpt>
      <trkpt lat="47.3206" lon="4.95497">
        <ele>403</ele>
        <time>2013-03-09T07:22:15.000Z</time>
      </trkpt>
      <trkpt lat="47.32059" lon="4.95495">
        <ele>403</ele>
        <time>2013-03-09T07:22:16.000Z</time>
      </trkpt>
      <trkpt lat="47.32057" lon="4.95491">
        <ele>403</ele>
        <time>2013-03-09T07:22:18.000Z</time>
      </trkpt>
      <trkpt lat="47.32056" lon="4.95489">
        <ele>403</ele>
        <time>2013-03-09T07:22:19.000Z</time>
      </trkpt>
      <trkpt lat="47.32054" lon="4.95484">
        <ele>403</ele>
        <time>2013-03-09T07:22:22.000Z</time>
      </trkpt>
      <trkpt lat="47.32053" lon="4.95482">
        <ele>403</ele>
        <time>2013-03-09T07:22:23.000Z</time>
      </trkpt>
      <trkpt lat="47.3205" lon="4.95476">
        <ele>403</ele>
        <time>2013-03-09T07:22:26.000Z</time>
      </trkpt>
      <trkpt lat="47.32049" lon="4.95475">
        <ele>403</ele>
        <time>2013-03-09T07:22:27.000Z</time>
      </trkpt>
      <trkpt lat="47.32047" lon="4.9547">
        <ele>403</ele>
        <time>2013-03-09T07:22:30.000Z</time>
      </trkpt>
      <trkpt lat="47.32046" lon="4.95468">
        <ele>403</ele>
        <time>2013-03-09T07:22:31.000Z</time>
      </trkpt>
      <trkpt lat="47.32044" lon="4.95463">
        <ele>403</ele>
        <time>2013-03-09T07:22:34.000Z</time>
      </trkpt>
      <trkpt lat="47.32043" lon="4.95461">
        <ele>403</ele>
        <time>2013-03-09T07:22:35.000Z</time>
      </trkpt>
      <trkpt lat="47.3204" lon="4.95455">
        <ele>403</ele>
        <time>2013-03-09T07:22:38.000Z</time>
      </trkpt>
      <trkpt lat="47.32039" lon="4.95453">
        <ele>403</ele>
        <time>2013-03-09T07:22:39.000Z</time>
      </trkpt>
      <trkpt lat="47.32031" lon="4.95444">
        <ele>403</ele>
        <time>2013-03-09T07:22:46.000Z</time>
      </trkpt>
      <trkpt lat="47.32029" lon="4.95439">
        <ele>403</ele>
        <time>2013-03-09T07:22:48.000Z</time>
      </trkpt>
      <trkpt lat="47.32029" lon="4.95436">
        <ele>403</ele>
        <time>2013-03-09T07:22:49.000Z</time>
      </trkpt>
      <trkpt lat="47.32027" lon="4.95431">
        <ele>403</ele>
        <time>2013-03-09T07:22:52.000Z</time>
      </trkpt>
      <trkpt lat="47.32026" lon="4.95429">
        <ele>403</ele>
        <time>2013-03-09T07:22:53.000Z</time>
      </trkpt>
      <trkpt lat="47.32024" lon="4.95424">
        <ele>403</ele>
        <time>2013-03-09T07:22:56.000Z</time>
      </trkpt>
      <trkpt lat="47.32023" lon="4.95422">
        <ele>403</ele>
        <time>2013-03-09T07:22:57.000Z</time>
      </trkpt>
      <trkpt lat="47.32021" lon="4.95416">
        <ele>405</ele>
        <time>2013-03-09T07:23:00.000Z</time>
      </trkpt>
      <trkpt lat="47.3202" lon="4.95415">
        <ele>405</ele>
        <time>2013-03-09T07:23:01.000Z</time>
      </trkpt>
      <trkpt lat="47.32017" lon="4.95409">
        <ele>405</ele>
        <time>2013-03-09T07:23:04.000Z</time>
      </trkpt>
      <trkpt lat="47.32016" lon="4.95407">
        <ele>405</ele>
        <time>2013-03-09T07:23:05.000Z</time>
      </trkpt>
      <trkpt lat="47.32014" lon="4.95402">
        <ele>405</ele>
        <time>2013-03-09T07:23:08.000Z</time>
      </trkpt>
      <trkpt lat="47.32013" lon="4.954">
        <ele>405</ele>
        <time>2013-03-09T07:23:09.000Z</time>
      </trkpt>
      <trkpt lat="47.3201" lon="4.95395">
        <ele>405</ele>
        <time>2013-03-09T07:23:12.000Z</time>
      </trkpt>
      <trkpt lat="47.32009" lon="4.95393">
        <ele>405</ele>
        <time>2013-03-09T07:23:13.000Z</time>
      </trkpt>
      <trkpt lat="47.32007" lon="4.95388">
        <ele>405</ele>
        <time>2013-03-09T07:23:16.000Z</time>
      </trkpt>
      <trkpt lat="47.32006" lon="4.95386">
        <ele>406</ele>
        <time>2013-03-09T07:23:17.000Z</time>
      </trkpt>
      <trkpt lat="47.32004" lon="4.9538">
        <ele>406</ele>
        <time>2013-03-09T07:23:20.000Z</time>
      </trkpt>
      <trkpt lat="47.32003" lon="4.95378">
        <ele>406</ele>
        <time>2013-03-09T07:23:21.000Z</time>
      </trkpt>
      <trkpt lat="47.32" lon="4.95373">
        <ele>406</ele>
        <time>2013-03-09T07:23:24.000Z</time>
      </trkpt>
      <trkpt lat="47.31999" lon="4.95371">
        <ele>405</ele>
        <time>2013-03-09T07:23:25.000Z</time>
      </trkpt>
      <trkpt lat="47.31997" lon="4.95367">
        <ele>405</ele>
        <time>2013-03-09T07:23:27.000Z</time>
      </trkpt>
      <trkpt lat="47.31997" lon="4.95366">
        <ele>405</ele>
        <time>2013-03-09T07:23:28.000Z</time>
      </trkpt>
      <trkpt lat="47.31994" lon="4.9536">
        <ele>405</ele>
        <time>2013-03-09T07:23:31.000Z</time>
      </trkpt>
      <trkpt lat="47.31993" lon="4.95358">
        <ele>406</ele>
        <time>2013-03-09T07:23:32.000Z</time>
      </trkpt>
      <trkpt lat="47.31991" lon="4.95353">
        <ele>406</ele>
        <time>2013-03-09T07:23:35.000Z</time>
      </trkpt>
      <trkpt lat="47.3199" lon="4.95351">
        <ele>406</ele>
        <time>2013-03-09T07:23:36.000Z</time>
      </trkpt>
      <trkpt lat="47.31988" lon="4.95346">
        <ele>406</ele>
        <time>2013-03-09T07:23:39.000Z</time>
      </trkpt>
      <trkpt lat="47.31981" lon="4.95337">
        <ele>406</ele>
        <time>2013-03-09T07:23:46.000Z</time>
      </trkpt>
      <trkpt lat="47.3198" lon="4.95332">
        <ele>407</ele>
        <time>2013-03-09T07:23:48.000Z</time>
      </trkpt>
      <trkpt lat="47.31979" lon="4.9533">
        <ele>407</ele>
        <time>2013-03-09T07:23:49.000Z</time>
      </trkpt>
      <trkpt lat="47.31977" lon="4.95325">
        <ele>407</ele>
        <time>2013-03-09T07:23:52.000Z</time>
      </trkpt>
      <trkpt lat="47.31975" lon="4.95323">
        <ele>407</ele>
        <time>2013-03-09T07:23:53.000Z</time>
      </trkpt>
      <trkpt lat="47.31973" lon="4.95318">
        <ele>407</ele>
        <time>2013-03-09T07:23:56.000Z</time>
      </trkpt>
      <trkpt lat="47.31972" lon="4.95316">
        <ele>407</ele>
        <time>2013-03-09T07:23:57.000Z</time>
      </trkpt>
      <trkpt lat="47.31969" lon="4.95311">
        <ele>407</ele>
        <time>2013-03-09T07:24:00.000Z</time>
      </trkpt>
      <trkpt lat="47.31968" lon="4.95309">
        <ele>407</ele>
        <time>2013-03-09T07:24:01.000Z</time>
      </trkpt>
      <trkpt lat="47.31966" lon="4.95305">
        <ele>407</ele>
        <time>2013-03-09T07:24:03.000Z</time>
      </trkpt>
      <trkpt lat="47.31965" lon="4.95304">
        <ele>407</ele>
        <time>2013-03-09T07:24:04.000Z</time>
      </trkpt>
      <trkpt lat="47.31963" lon="4.953">
        <ele>407</ele>
        <time>2013-03-09T07:24:06.000Z</time>
      </trkpt>
      <trkpt lat="47.31962" lon="4.95298">
        <ele>407</ele>
        <time>2013-03-09T07:24:07.000Z</time>
      </trkpt>
      <trkpt lat="47.3196" lon="4.95293">
        <ele>407</ele>
        <time>2013-03-09T07:24:10.000Z</time>
      </trkpt>
      <trkpt lat="47.31959" lon="4.95292">
        <ele>407</ele>
        <time>2013-03-09T07:24:11.000Z</time>
      </trkpt>
      <trkpt lat="47.31956" lon="4.95287">
        <ele>407</ele>
        <time>2013-03-09T07:24:14.000Z</time>
      </trkpt>
      <trkpt lat="47.31955" lon="4.95285">
        <ele>407</ele>
        <time>2013-03-09T07:24:15.000Z</time>
      </trkpt>
      <trkpt lat="47.31953" lon="4.95282">
        <ele>407</ele>
        <time>2013-03-09T07:24:17.000Z</time>
      </trkpt>
      <trkpt lat="47.31952" lon="4.9528">
        <ele>407</ele>
        <time>2013-03-09T07:24:18.000Z</time>
      </trkpt>
      <trkpt lat="47.31949" lon="4.95275">
        <ele>407</ele>
        <time>2013-03-09T07:24:21.000Z</time>
      </trkpt>
      <trkpt lat="47.31947" lon="4.95274">
        <ele>407</ele>
        <time>2013-03-09T07:24:22.000Z</time>
      </trkpt>
      <trkpt lat="47.31944" lon="4.95269">
        <ele>407</ele>
        <time>2013-03-09T07:24:25.000Z</time>
      </trkpt>
      <trkpt lat="47.31943" lon="4.95267">
        <ele>407</ele>
        <time>2013-03-09T07:24:26.000Z</time>
      </trkpt>
      <trkpt lat="47.3194" lon="4.95262">
        <ele>407</ele>
        <time>2013-03-09T07:24:29.000Z</time>
      </trkpt>
      <trkpt lat="47.31939" lon="4.9526">
        <ele>407</ele>
        <time>2013-03-09T07:24:30.000Z</time>
      </trkpt>
      <trkpt lat="47.31936" lon="4.95256">
        <ele>407</ele>
        <time>2013-03-09T07:24:33.000Z</time>
      </trkpt>
      <trkpt lat="47.31935" lon="4.95255">
        <ele>407</ele>
        <time>2013-03-09T07:24:34.000Z</time>
      </trkpt>
      <trkpt lat="47.31932" lon="4.9525">
        <ele>407</ele>
        <time>2013-03-09T07:24:37.000Z</time>
      </trkpt>
      <trkpt lat="47.31931" lon="4.95249">
        <ele>408</ele>
        <time>2013-03-09T07:24:38.000Z</time>
      </trkpt>
      <trkpt lat="47.3193" lon="4.95247">
        <ele>408</ele>
        <time>2013-03-09T07:24:39.000Z</time>
      </trkpt>
      <trkpt lat="47.31924" lon="4.95233">
        <ele>408</ele>
        <time>2013-03-09T07:24:46.000Z</time>
      </trkpt>
      <trkpt lat="47.31921" lon="4.95229">
        <ele>408</ele>
        <time>2013-03-09T07:24:49.000Z</time>
      </trkpt>
      <trkpt lat="47.31919" lon="4.95228">
        <ele>408</ele>
        <time>2013-03-09T07:24:50.000Z</time>
      </trkpt>
      <trkpt lat="47.31916" lon="4.95224">
        <ele>409</ele>
        <time>2013-03-09T07:24:53.000Z</time>
      </trkpt>
      <trkpt lat="47.31915" lon="4.95222">
        <ele>409</ele>
        <time>2013-03-09T07:24:54.000Z</time>
      </trkpt>
      <trkpt lat="47.31913" lon="4.95219">
        <ele>409</ele>
        <time>2013-03-09T07:24:56.000Z</time>
      </trkpt>
      <trkpt lat="47.31912" lon="4.95217">
        <ele>409</ele>
        <time>2013-03-09T07:24:57.000Z</time>
      </trkpt>
      <trkpt lat="47.3191" lon="4.95214">
        <ele>409</ele>
        <time>2013-03-09T07:24:59.000Z</time>
      </trkpt>
      <trkpt lat="47.31909" lon="4.95212">
        <ele>409</ele>
        <time>2013-03-09T07:25:00.000Z</time>
      </trkpt>
      <trkpt lat="47.31906" lon="4.95209">
        <ele>409</ele>
        <time>2013-03-09T07:25:02.000Z</time>
      </trkpt>
      <trkpt lat="47.31905" lon="4.95208">
        <ele>409</ele>
        <time>2013-03-09T07:25:03.000Z</time>
      </trkpt>
      <trkpt lat="47.31902" lon="4.95203">
        <ele>409</ele>
        <time>2013-03-09T07:25:06.000Z</time>
      </trkpt>
      <trkpt lat="47.31901" lon="4.95202">
        <ele>409</ele>
        <time>2013-03-09T07:25:07.000Z</time>
      </trkpt>
      <trkpt lat="47.31898" lon="4.95197">
        <ele>409</ele>
        <time>2013-03-09T07:25:10.000Z</time>
      </trkpt>
      <trkpt lat="47.31897" lon="4.95196">
        <ele>409</ele>
        <time>2013-03-09T07:25:11.000Z</time>
      </trkpt>
      <trkpt lat="47.31895" lon="4.95191">
        <ele>410</ele>
        <time>2013-03-09T07:25:14.000Z</time>
      </trkpt>
      <trkpt lat="47.31894" lon="4.9519">
        <ele>410</ele>
        <time>2013-03-09T07:25:15.000Z</time>
      </trkpt>
      <trkpt lat="47.3189" lon="4.95185">
        <ele>410</ele>
        <time>2013-03-09T07:25:18.000Z</time>
      </trkpt>
      <trkpt lat="47.31889" lon="4.95183">
        <ele>410</ele>
        <time>2013-03-09T07:25:19.000Z</time>
      </trkpt>
      <trkpt lat="47.31887" lon="4.95179">
        <ele>410</ele>
        <time>2013-03-09T07:25:22.000Z</time>
      </trkpt>
      <trkpt lat="47.31886" lon="4.95177">
        <ele>410</ele>
        <time>2013-03-09T07:25:23.000Z</time>
      </trkpt>
      <trkpt lat="47.31882" lon="4.95175">
        <ele>410</ele>
        <time>2013-03-09T07:25:26.000Z</time>
      </trkpt>
      <trkpt lat="47.31881" lon="4.95175">
        <ele>410</ele>
        <time>2013-03-09T07:25:27.000Z</time>
      </trkpt>
      <trkpt lat="47.31876" lon="4.95176">
        <ele>410</ele>
        <time>2013-03-09T07:25:30.000Z</time>
      </trkpt>
      <trkpt lat="47.31875" lon="4.95177">
        <ele>410</ele>
        <time>2013-03-09T07:25:31.000Z</time>
      </trkpt>
      <trkpt lat="47.31872" lon="4.95181">
        <ele>410</ele>
        <time>2013-03-09T07:25:34.000Z</time>
      </trkpt>
      <trkpt lat="47.31871" lon="4.95182">
        <ele>410</ele>
        <time>2013-03-09T07:25:35.000Z</time>
      </trkpt>
      <trkpt lat="47.31868" lon="4.95187">
        <ele>410</ele>
        <time>2013-03-09T07:25:38.000Z</time>
      </trkpt>
      <trkpt lat="47.31867" lon="4.95189">
        <ele>410</ele>
        <time>2013-03-09T07:25:39.000Z</time>
      </trkpt>
      <trkpt lat="47.31864" lon="4.95205">
        <ele>410</ele>
        <time>2013-03-09T07:25:46.000Z</time>
      </trkpt>
      <trkpt lat="47.31862" lon="4.9521">
        <ele>410</ele>
        <time>2013-03-09T07:25:49.000Z</time>
      </trkpt>
      <trkpt lat="47.31862" lon="4.95212">
        <ele>410</ele>
        <time>2013-03-09T07:25:50.000Z</time>
      </trkpt>
      <trkpt lat="47.3186" lon="4.95218">
        <ele>410</ele>
        <time>2013-03-09T07:25:53.000Z</time>
      </trkpt>
      <trkpt lat="47.31859" lon="4.9522">
        <ele>410</ele>
        <time>2013-03-09T07:25:54.000Z</time>
      </trkpt>
      <trkpt lat="47.31859" lon="4.95224">
        <ele>410</ele>
        <time>2013-03-09T07:25:56.000Z</time>
      </trkpt>
      <trkpt lat="47.31858" lon="4.95226">
        <ele>410</ele>
        <time>2013-03-09T07:25:57.000Z</time>
      </trkpt>
      <trkpt lat="47.31857" lon="4.95231">
        <ele>410</ele>
        <time>2013-03-09T07:25:59.000Z</time>
      </trkpt>
      <trkpt lat="47.31857" lon="4.95233">
        <ele>410</ele>
        <time>2013-03-09T07:26:00.000Z</time>
      </trkpt>
      <trkpt lat="47.31856" lon="4.95237">
        <ele>410</ele>
        <time>2013-03-09T07:26:02.000Z</time>
      </trkpt>
      <trkpt lat="47.31855" lon="4.9524">
        <ele>410</ele>
        <time>2013-03-09T07:26:03.000Z</time>
      </trkpt>
      <trkpt lat="47.31854" lon="4.95244">
        <ele>410</ele>
        <time>2013-03-09T07:26:05.000Z</time>
      </trkpt>
      <trkpt lat="47.31854" lon="4.95246">
        <ele>410</ele>
        <time>2013-03-09T07:26:06.000Z</time>
      </trkpt>
      <trkpt lat="47.31853" lon="4.95251">
        <ele>410</ele>
        <time>2013-03-09T07:26:08.000Z</time>
      </trkpt>
      <trkpt lat="47.31852" lon="4.95253">
        <ele>410</ele>
        <time>2013-03-09T07:26:09.000Z</time>
      </trkpt>
      <trkpt lat="47.31852" lon="4.95258">
        <ele>409</ele>
        <time>2013-03-09T07:26:11.000Z</time>
      </trkpt>
      <trkpt lat="47.31851" lon="4.9526">
        <ele>409</ele>
        <time>2013-03-09T07:26:12.000Z</time>
      </trkpt>
      <trkpt lat="47.31851" lon="4.95264">
        <ele>409</ele>
        <time>2013-03-09T07:26:14.000Z</time>
      </trkpt>
      <trkpt lat="47.3185" lon="4.95267">
        <ele>409</ele>
        <time>2013-03-09T07:26:15.000Z</time>
      </trkpt>
      <trkpt lat="47.3185" lon="4.95271">
        <ele>409</ele>
        <time>2013-03-09T07:26:17.000Z</time>
      </trkpt>
      <trkpt lat="47.3185" lon="4.95273">
        <ele>409</ele>
        <time>2013-03-09T07:26:18.000Z</time>
      </trkpt>
      <trkpt lat="47.31849" lon="4.95278">
        <ele>409</ele>
        <time>2013-03-09T07:26:20.000Z</time>
      </trkpt>
      <trkpt lat="47.31849" lon="4.9528">
        <ele>409</ele>
        <time>2013-03-09T07:26:21.000Z</time>
      </trkpt>
      <trkpt lat="47.31847" lon="4.95286">
        <ele>409</ele>
        <time>2013-03-09T07:26:24.000Z</time>
      </trkpt>
      <trkpt lat="47.31847" lon="4.95287">
        <ele>409</ele>
        <time>2013-03-09T07:26:25.000Z</time>
      </trkpt>
      <trkpt lat="47.31846" lon="4.95293">
        <ele>409</ele>
        <time>2013-03-09T07:26:28.000Z</time>
      </trkpt>
      <trkpt lat="47.31846" lon="4.95296">
        <ele>409</ele>
        <time>2013-03-09T07:26:29.000Z</time>
      </trkpt>
      <trkpt lat="47.31845" lon="4.95302">
        <ele>409</ele>
        <time>2013-03-09T07:26:32.000Z</time>
      </trkpt>
      <trkpt lat="47.31845" lon="4.95304">
        <ele>409</ele>
        <time>2013-03-09T07:26:33.000Z</time>
      </trkpt>
      <trkpt lat="47.31843" lon="4.95309">
        <ele>409</ele>
        <time>2013-03-09T07:26:36.000Z</time>
      </trkpt>
      <trkpt lat="47.31843" lon="4.95311">
        <ele>409</ele>
        <time>2013-03-09T07:26:37.000Z</time>
      </trkpt>
      <trkpt lat="47.31843" lon="4.95315">
        <ele>409</ele>
        <time>2013-03-09T07:26:39.000Z</time>
      </trkpt>
      <trkpt lat="47.31844" lon="4.95334">
        <ele>409</ele>
        <time>2013-03-09T07:26:46.000Z</time>
      </trkpt>
      <trkpt lat="47.31842" lon="4.95339">
        <ele>409</ele>
        <time>2013-03-09T07:26:49.000Z</time>
      </trkpt>
      <trkpt lat="47.31841" lon="4.95341">
        <ele>409</ele>
        <time>2013-03-09T07:26:50.000Z</time>
      </trkpt>
      <trkpt lat="47.3184" lon="4.95346">
        <ele>408</ele>
        <time>2013-03-09T07:26:52.000Z</time>
      </trkpt>
      <trkpt lat="47.31839" lon="4.95348">
        <ele>408</ele>
        <time>2013-03-09T07:26:53.000Z</time>
      </trkpt>
      <trkpt lat="47.31839" lon="4.95353">
        <ele>408</ele>
        <time>2013-03-09T07:26:55.000Z</time>
      </trkpt>
      <trkpt lat="47.31839" lon="4.95355">
        <ele>408</ele>
        <time>2013-03-09T07:26:56.000Z</time>
      </trkpt>
      <trkpt lat="47.31839" lon="4.9536">
        <ele>408</ele>
        <time>2013-03-09T07:26:59.000Z</time>
      </trkpt>
      <trkpt lat="47.31838" lon="4.95363">
        <ele>407</ele>
        <time>2013-03-09T07:27:00.000Z</time>
      </trkpt>
      <trkpt lat="47.31838" lon="4.95368">
        <ele>407</ele>
        <time>2013-03-09T07:27:02.000Z</time>
      </trkpt>
      <trkpt lat="47.31838" lon="4.9537">
        <ele>407</ele>
        <time>2013-03-09T07:27:03.000Z</time>
      </trkpt>
      <trkpt lat="47.31838" lon="4.95377">
        <ele>407</ele>
        <time>2013-03-09T07:27:06.000Z</time>
      </trkpt>
      <trkpt lat="47.31838" lon="4.95379">
        <ele>407</ele>
        <time>2013-03-09T07:27:07.000Z</time>
      </trkpt>
      <trkpt lat="47.31837" lon="4.95383">
        <ele>407</ele>
        <time>2013-03-09T07:27:09.000Z</time>
      </trkpt>
      <trkpt lat="47.31838" lon="4.95385">
        <ele>407</ele>
        <time>2013-03-09T07:27:10.000Z</time>
      </trkpt>
      <trkpt lat="47.31838" lon="4.9539">
        <ele>407</ele>
        <time>2013-03-09T07:27:12.000Z</time>
      </trkpt>
      <trkpt lat="47.31838" lon="4.95393">
        <ele>407</ele>
        <time>2013-03-09T07:27:13.000Z</time>
      </trkpt>
      <trkpt lat="47.31838" lon="4.95397">
        <ele>407</ele>
        <time>2013-03-09T07:27:15.000Z</time>
      </trkpt>
      <trkpt lat="47.31838" lon="4.95399">
        <ele>407</ele>
        <time>2013-03-09T07:27:16.000Z</time>
      </trkpt>
      <trkpt lat="47.31837" lon="4.95406">
        <ele>407</ele>
        <time>2013-03-09T07:27:19.000Z</time>
      </trkpt>
      <trkpt lat="47.31837" lon="4.95407">
        <ele>407</ele>
        <time>2013-03-09T07:27:20.000Z</time>
      </trkpt>
      <trkpt lat="47.31836" lon="4.95412">
        <ele>408</ele>
        <time>2013-03-09T07:27:22.000Z</time>
      </trkpt>
      <trkpt lat="47.31836" lon="4.95414">
        <ele>408</ele>
        <time>2013-03-09T07:27:23.000Z</time>
      </trkpt>
      <trkpt lat="47.31836" lon="4.9542">
        <ele>407</ele>
        <time>2013-03-09T07:27:26.000Z</time>
      </trkpt>
      <trkpt lat="47.31836" lon="4.95423">
        <ele>407</ele>
        <time>2013-03-09T07:27:27.000Z</time>
      </trkpt>
      <trkpt lat="47.31837" lon="4.95428">
        <ele>407</ele>
        <time>2013-03-09T07:27:29.000Z</time>
      </trkpt>
      <trkpt lat="47.31837" lon="4.95431">
        <ele>406</ele>
        <time>2013-03-09T07:27:30.000Z</time>
      </trkpt>
      <trkpt lat="47.31837" lon="4.95436">
        <ele>406</ele>
        <time>2013-03-09T07:27:32.000Z</time>
      </trkpt>
      <trkpt lat="47.31837" lon="4.95438">
        <ele>406</ele>
        <time>2013-03-09T07:27:33.000Z</time>
      </trkpt>
      <trkpt lat="47.31838" lon="4.95443">
        <ele>406</ele>
        <time>2013-03-09T07:27:35.000Z</time>
      </trkpt>
      <trkpt lat="47.31838" lon="4.95446">
        <ele>406</ele>
        <time>2013-03-09T07:27:36.000Z</time>
      </trkpt>
      <trkpt lat="47.31839" lon="4.9545">
        <ele>406</ele>
        <time>2013-03-09T07:27:38.000Z</time>
      </trkpt>
      <trkpt lat="47.31839" lon="4.95453">
        <ele>405</ele>
        <time>2013-03-09T07:27:39.000Z</time>
      </trkpt>
      <trkpt lat="47.3184" lon="4.95469">
        <ele>405</ele>
        <time>2013-03-09T07:27:46.000Z</time>
      </trkpt>
      <trkpt lat="47.3184" lon="4.95475">
        <ele>406</ele>
        <time>2013-03-09T07:27:49.000Z</time>
      </trkpt>
      <trkpt lat="47.3184" lon="4.95477">
        <ele>406</ele>
        <time>2013-03-09T07:27:50.000Z</time>
      </trkpt>
      <trkpt lat="47.3184" lon="4.95482">
        <ele>406</ele>
        <time>2013-03-09T07:27:52.000Z</time>
      </trkpt>
      <trkpt lat="47.3184" lon="4.95485">
        <ele>406</ele>
        <time>2013-03-09T07:27:53.000Z</time>
      </trkpt>
      <trkpt lat="47.3184" lon="4.95491">
        <ele>407</ele>
        <time>2013-03-09T07:27:56.000Z</time>
      </trkpt>
      <trkpt lat="47.3184" lon="4.95493">
        <ele>407</ele>
        <time>2013-03-09T07:27:57.000Z</time>
      </trkpt>
      <trkpt lat="47.31841" lon="4.95498">
        <ele>407</ele>
        <time>2013-03-09T07:27:59.000Z</time>
      </trkpt>
      <trkpt lat="47.31841" lon="4.955">
        <ele>407</ele>
        <time>2013-03-09T07:28:00.000Z</time>
      </trkpt>
      <trkpt lat="47.31841" lon="4.95506">
        <ele>406</ele>
        <time>2013-03-09T07:28:02.000Z</time>
      </trkpt>
      <trkpt lat="47.31841" lon="4.95508">
        <ele>406</ele>
        <time>2013-03-09T07:28:03.000Z</time>
      </trkpt>
      <trkpt lat="47.31841" lon="4.95513">
        <ele>406</ele>
        <time>2013-03-09T07:28:05.000Z</time>
      </trkpt>
      <trkpt lat="47.31842" lon="4.95515">
        <ele>406</ele>
        <time>2013-03-09T07:28:06.000Z</time>
      </trkpt>
      <trkpt lat="47.31842" lon="4.9552">
        <ele>405</ele>
        <time>2013-03-09T07:28:08.000Z</time>
      </trkpt>
      <trkpt lat="47.31842" lon="4.95522">
        <ele>405</ele>
        <time>2013-03-09T07:28:09.000Z</time>
      </trkpt>
      <trkpt lat="47.31842" lon="4.95527">
        <ele>405</ele>
        <time>2013-03-09T07:28:11.000Z</time>
      </trkpt>
      <trkpt lat="47.31841" lon="4.95529">
        <ele>405</ele>
        <time>2013-03-09T07:28:12.000Z</time>
      </trkpt>
      <trkpt lat="47.31841" lon="4.95534">
        <ele>405</ele>
        <time>2013-03-09T07:28:14.000Z</time>
      </trkpt>
      <trkpt lat="47.31841" lon="4.95536">
        <ele>405</ele>
        <time>2013-03-09T07:28:15.000Z</time>
      </trkpt>
      <trkpt lat="47.31841" lon="4.95541">
        <ele>405</ele>
        <time>2013-03-09T07:28:17.000Z</time>
      </trkpt>
      <trkpt lat="47.31841" lon="4.95543">
        <ele>405</ele>
        <time>2013-03-09T07:28:18.000Z</time>
      </trkpt>
      <trkpt lat="47.31842" lon="4.95548">
        <ele>405</ele>
        <time>2013-03-09T07:28:20.000Z</time>
      </trkpt>
      <trkpt lat="47.31842" lon="4.95551">
        <ele>405</ele>
        <time>2013-03-09T07:28:21.000Z</time>
      </trkpt>
      <trkpt lat="47.31842" lon="4.95555">
        <ele>405</ele>
        <time>2013-03-09T07:28:23.000Z</time>
      </trkpt>
      <trkpt lat="47.31842" lon="4.95558">
        <ele>405</ele>
        <time>2013-03-09T07:28:24.000Z</time>
      </trkpt>
      <trkpt lat="47.31842" lon="4.95562">
        <ele>405</ele>
        <time>2013-03-09T07:28:26.000Z</time>
      </trkpt>
      <trkpt lat="47.31842" lon="4.95565">
        <ele>405</ele>
        <time>2013-03-09T07:28:27.000Z</time>
      </trkpt>
      <trkpt lat="47.31842" lon="4.95569">
        <ele>405</ele>
        <time>2013-03-09T07:28:29.000Z</time>
      </trkpt>
      <trkpt lat="47.31842" lon="4.95571">
        <ele>405</ele>
        <time>2013-03-09T07:28:30.000Z</time>
      </trkpt>
      <trkpt lat="47.31842" lon="4.95576">
        <ele>406</ele>
        <time>2013-03-09T07:28:32.000Z</time>
      </trkpt>
      <trkpt lat="47.31842" lon="4.95579">
        <ele>406</ele>
        <time>2013-03-09T07:28:33.000Z</time>
      </trkpt>
      <trkpt lat="47.31841" lon="4.95583">
        <ele>406</ele>
        <time>2013-03-09T07:28:35.000Z</time>
      </trkpt>
      <trkpt lat="47.31841" lon="4.95585">
        <ele>406</ele>
        <time>2013-03-09T07:28:36.000Z</time>
      </trkpt>
      <trkpt lat="47.31841" lon="4.9559">
        <ele>405</ele>
        <time>2013-03-09T07:28:38.000Z</time>
      </trkpt>
      <trkpt lat="47.31841" lon="4.95592">
        <ele>405</ele>
        <time>2013-03-09T07:28:39.000Z</time>
      </trkpt>
      <trkpt lat="47.31841" lon="4.95594">
        <ele>405</ele>
        <time>2013-03-09T07:28:40.000Z</time>
      </trkpt>
      <trkpt lat="47.3184" lon="4.95608">
        <ele>404</ele>
        <time>2013-03-09T07:28:47.000Z</time>
      </trkpt>
      <trkpt lat="47.3184" lon="4.95613">
        <ele>404</ele>
        <time>2013-03-09T07:28:49.000Z</time>
      </trkpt>
      <trkpt lat="47.31841" lon="4.95616">
        <ele>404</ele>
        <time>2013-03-09T07:28:50.000Z</time>
      </trkpt>
      <trkpt lat="47.3184" lon="4.95621">
        <ele>404</ele>
        <time>2013-03-09T07:28:52.000Z</time>
      </trkpt>
      <trkpt lat="47.3184" lon="4.95624">
        <ele>404</ele>
        <time>2013-03-09T07:28:53.000Z</time>
      </trkpt>
      <trkpt lat="47.3184" lon="4.95629">
        <ele>404</ele>
        <time>2013-03-09T07:28:55.000Z</time>
      </trkpt>
      <trkpt lat="47.3184" lon="4.95631">
        <ele>404</ele>
        <time>2013-03-09T07:28:56.000Z</time>
      </trkpt>
      <trkpt lat="47.3184" lon="4.95636">
        <ele>404</ele>
        <time>2013-03-09T07:28:58.000Z</time>
      </trkpt>
      <trkpt lat="47.3184" lon="4.95638">
        <ele>404</ele>
        <time>2013-03-09T07:28:59.000Z</time>
      </trkpt>
      <trkpt lat="47.31839" lon="4.95643">
        <ele>404</ele>
        <time>2013-03-09T07:29:01.000Z</time>
      </trkpt>
      <trkpt lat="47.31839" lon="4.95645">
        <ele>404</ele>
        <time>2013-03-09T07:29:02.000Z</time>
      </trkpt>
      <trkpt lat="47.31838" lon="4.95649">
        <ele>404</ele>
        <time>2013-03-09T07:29:04.000Z</time>
      </trkpt>
      <trkpt lat="47.31837" lon="4.95651">
        <ele>405</ele>
        <time>2013-03-09T07:29:05.000Z</time>
      </trkpt>
      <trkpt lat="47.31836" lon="4.95656">
        <ele>405</ele>
        <time>2013-03-09T07:29:07.000Z</time>
      </trkpt>
      <trkpt lat="47.31835" lon="4.95658">
        <ele>405</ele>
        <time>2013-03-09T07:29:08.000Z</time>
      </trkpt>
      <trkpt lat="47.31834" lon="4.95662">
        <ele>405</ele>
        <time>2013-03-09T07:29:10.000Z</time>
      </trkpt>
      <trkpt lat="47.31833" lon="4.95664">
        <ele>406</ele>
        <time>2013-03-09T07:29:11.000Z</time>
      </trkpt>
      <trkpt lat="47.31831" lon="4.9567">
        <ele>406</ele>
        <time>2013-03-09T07:29:14.000Z</time>
      </trkpt>
      <trkpt lat="47.31831" lon="4.95672">
        <ele>406</ele>
        <time>2013-03-09T07:29:15.000Z</time>
      </trkpt>
      <trkpt lat="47.31828" lon="4.95677">
        <ele>406</ele>
        <time>2013-03-09T07:29:18.000Z</time>
      </trkpt>
      <trkpt lat="47.31827" lon="4.95678">
        <ele>406</ele>
        <time>2013-03-09T07:29:19.000Z</time>
      </trkpt>
      <trkpt lat="47.31825" lon="4.95682">
        <ele>406</ele>
        <time>2013-03-09T07:29:21.000Z</time>
      </trkpt>
      <trkpt lat="47.31824" lon="4.95683">
        <ele>406</ele>
        <time>2013-03-09T07:29:22.000Z</time>
      </trkpt>
      <trkpt lat="47.31822" lon="4.95686">
        <ele>407</ele>
        <time>2013-03-09T07:29:24.000Z</time>
      </trkpt>
      <trkpt lat="47.3182" lon="4.95687">
        <ele>407</ele>
        <time>2013-03-09T07:29:25.000Z</time>
      </trkpt>
      <trkpt lat="47.31817" lon="4.95691">
        <ele>407</ele>
        <time>2013-03-09T07:29:28.000Z</time>
      </trkpt>
      <trkpt lat="47.31816" lon="4.95692">
        <ele>407</ele>
        <time>2013-03-09T07:29:29.000Z</time>
      </trkpt>
      <trkpt lat="47.31813" lon="4.95695">
        <ele>407</ele>
        <time>2013-03-09T07:29:31.000Z</time>
      </trkpt>
      <trkpt lat="47.31812" lon="4.95696">
        <ele>407</ele>
        <time>2013-03-09T07:29:32.000Z</time>
      </trkpt>
      <trkpt lat="47.31809" lon="4.95698">
        <ele>407</ele>
        <time>2013-03-09T07:29:34.000Z</time>
      </trkpt>
      <trkpt lat="47.31807" lon="4.95699">
        <ele>407</ele>
        <time>2013-03-09T07:29:35.000Z</time>
      </trkpt>
      <trkpt lat="47.31804" lon="4.95701">
        <ele>407</ele>
        <time>2013-03-09T07:29:37.000Z</time>
      </trkpt>
      <trkpt lat="47.31802" lon="4.95702">
        <ele>407</ele>
        <time>2013-03-09T07:29:38.000Z</time>
      </trkpt>
      <trkpt lat="47.31799" lon="4.95704">
        <ele>407</ele>
        <time>2013-03-09T07:29:40.000Z</time>
      </trkpt>
      <trkpt lat="47.31788" lon="4.95709">
        <ele>407</ele>
        <time>2013-03-09T07:29:47.000Z</time>
      </trkpt>
      <trkpt lat="47.31784" lon="4.9571">
        <ele>408</ele>
        <time>2013-03-09T07:29:49.000Z</time>
      </trkpt>
      <trkpt lat="47.31783" lon="4.9571">
        <ele>408</ele>
        <time>2013-03-09T07:29:50.000Z</time>
      </trkpt>
      <trkpt lat="47.31779" lon="4.95711">
        <ele>408</ele>
        <time>2013-03-09T07:29:53.000Z</time>
      </trkpt>
      <trkpt lat="47.31777" lon="4.95711">
        <ele>408</ele>
        <time>2013-03-09T07:29:54.000Z</time>
      </trkpt>
      <trkpt lat="47.31773" lon="4.95712">
        <ele>408</ele>
        <time>2013-03-09T07:29:57.000Z</time>
      </trkpt>
      <trkpt lat="47.31772" lon="4.95712">
        <ele>408</ele>
        <time>2013-03-09T07:29:58.000Z</time>
      </trkpt>
      <trkpt lat="47.31767" lon="4.95712">
        <ele>408</ele>
        <time>2013-03-09T07:30:01.000Z</time>
      </trkpt>
      <trkpt lat="47.31766" lon="4.95712">
        <ele>408</ele>
        <time>2013-03-09T07:30:02.000Z</time>
      </trkpt>
      <trkpt lat="47.31762" lon="4.95712">
        <ele>408</ele>
        <time>2013-03-09T07:30:05.000Z</time>
      </trkpt>
      <trkpt lat="47.3176" lon="4.95712">
        <ele>409</ele>
        <time>2013-03-09T07:30:06.000Z</time>
      </trkpt>
      <trkpt lat="47.31756" lon="4.95713">
        <ele>409</ele>
        <time>2013-03-09T07:30:09.000Z</time>
      </trkpt>
      <trkpt lat="47.31754" lon="4.95713">
        <ele>409</ele>
        <time>2013-03-09T07:30:10.000Z</time>
      </trkpt>
      <trkpt lat="47.3175" lon="4.95712">
        <ele>414</ele>
        <time>2013-03-09T07:30:13.000Z</time>
      </trkpt>
      <trkpt lat="47.31748" lon="4.95712">
        <ele>414</ele>
        <time>2013-03-09T07:30:14.000Z</time>
      </trkpt>
      <trkpt lat="47.31744" lon="4.95712">
        <ele>414</ele>
        <time>2013-03-09T07:30:17.000Z</time>
      </trkpt>
      <trkpt lat="47.31743" lon="4.95712">
        <ele>414</ele>
        <time>2013-03-09T07:30:18.000Z</time>
      </trkpt>
      <trkpt lat="47.31738" lon="4.95712">
        <ele>414</ele>
        <time>2013-03-09T07:30:21.000Z</time>
      </trkpt>
      <trkpt lat="47.31737" lon="4.95712">
        <ele>414</ele>
        <time>2013-03-09T07:30:22.000Z</time>
      </trkpt>
      <trkpt lat="47.31733" lon="4.95711">
        <ele>414</ele>
        <time>2013-03-09T07:30:25.000Z</time>
      </trkpt>
      <trkpt lat="47.31732" lon="4.95711">
        <ele>414</ele>
        <time>2013-03-09T07:30:26.000Z</time>
      </trkpt>
      <trkpt lat="47.31727" lon="4.95711">
        <ele>414</ele>
        <time>2013-03-09T07:30:29.000Z</time>
      </trkpt>
      <trkpt lat="47.31726" lon="4.95712">
        <ele>414</ele>
        <time>2013-03-09T07:30:30.000Z</time>
      </trkpt>
      <trkpt lat="47.31722" lon="4.95712">
        <ele>414</ele>
        <time>2013-03-09T07:30:33.000Z</time>
      </trkpt>
      <trkpt lat="47.3172" lon="4.95711">
        <ele>414</ele>
        <time>2013-03-09T07:30:34.000Z</time>
      </trkpt>
      <trkpt lat="47.31716" lon="4.95712">
        <ele>415</ele>
        <time>2013-03-09T07:30:37.000Z</time>
      </trkpt>
      <trkpt lat="47.31715" lon="4.95712">
        <ele>415</ele>
        <time>2013-03-09T07:30:38.000Z</time>
      </trkpt>
      <trkpt lat="47.31712" lon="4.95712">
        <ele>415</ele>
        <time>2013-03-09T07:30:40.000Z</time>
      </trkpt>
      <trkpt lat="47.31703" lon="4.95712">
        <ele>415</ele>
        <time>2013-03-09T07:30:47.000Z</time>
      </trkpt>
      <trkpt lat="47.317" lon="4.95712">
        <ele>415</ele>
        <time>2013-03-09T07:30:50.000Z</time>
      </trkpt>
      <trkpt lat="47.31698" lon="4.95712">
        <ele>415</ele>
        <time>2013-03-09T07:30:51.000Z</time>
      </trkpt>
      <trkpt lat="47.31694" lon="4.95713">
        <ele>416</ele>
        <time>2013-03-09T07:30:54.000Z</time>
      </trkpt>
      <trkpt lat="47.31693" lon="4.95713">
        <ele>416</ele>
        <time>2013-03-09T07:30:55.000Z</time>
      </trkpt>
      <trkpt lat="47.31689" lon="4.95712">
        <ele>416</ele>
        <time>2013-03-09T07:30:58.000Z</time>
      </trkpt>
      <trkpt lat="47.31687" lon="4.95712">
        <ele>416</ele>
        <time>2013-03-09T07:30:59.000Z</time>
      </trkpt>
      <trkpt lat="47.31683" lon="4.95713">
        <ele>416</ele>
        <time>2013-03-09T07:31:02.000Z</time>
      </trkpt>
      <trkpt lat="47.31682" lon="4.95713">
        <ele>416</ele>
        <time>2013-03-09T07:31:03.000Z</time>
      </trkpt>
      <trkpt lat="47.31679" lon="4.95713">
        <ele>416</ele>
        <time>2013-03-09T07:31:06.000Z</time>
      </trkpt>
      <trkpt lat="47.31677" lon="4.95714">
        <ele>416</ele>
        <time>2013-03-09T07:31:07.000Z</time>
      </trkpt>
      <trkpt lat="47.31673" lon="4.95713">
        <ele>416</ele>
        <time>2013-03-09T07:31:10.000Z</time>
      </trkpt>
      <trkpt lat="47.31672" lon="4.95713">
        <ele>416</ele>
        <time>2013-03-09T07:31:11.000Z</time>
      </trkpt>
      <trkpt lat="47.31669" lon="4.95713">
        <ele>416</ele>
        <time>2013-03-09T07:31:14.000Z</time>
      </trkpt>
      <trkpt lat="47.31667" lon="4.95714">
        <ele>416</ele>
        <time>2013-03-09T07:31:15.000Z</time>
      </trkpt>
      <trkpt lat="47.31664" lon="4.95716">
        <ele>419</ele>
        <time>2013-03-09T07:31:18.000Z</time>
      </trkpt>
      <trkpt lat="47.31663" lon="4.95717">
        <ele>419</ele>
        <time>2013-03-09T07:31:19.000Z</time>
      </trkpt>
      <trkpt lat="47.3166" lon="4.9572">
        <ele>419</ele>
        <time>2013-03-09T07:31:22.000Z</time>
      </trkpt>
      <trkpt lat="47.31659" lon="4.95721">
        <ele>419</ele>
        <time>2013-03-09T07:31:23.000Z</time>
      </trkpt>
      <trkpt lat="47.31656" lon="4.95725">
        <ele>419</ele>
        <time>2013-03-09T07:31:28.000Z</time>
      </trkpt>
      <trkpt lat="47.31656" lon="4.95726">
        <ele>419</ele>
        <time>2013-03-09T07:31:29.000Z</time>
      </trkpt>
      <trkpt lat="47.31655" lon="4.95731">
        <ele>419</ele>
        <time>2013-03-09T07:31:33.000Z</time>
      </trkpt>
      <trkpt lat="47.31655" lon="4.95733">
        <ele>419</ele>
        <time>2013-03-09T07:31:34.000Z</time>
      </trkpt>
      <trkpt lat="47.31655" lon="4.95738">
        <ele>419</ele>
        <time>2013-03-09T07:31:37.000Z</time>
      </trkpt>
      <trkpt lat="47.31654" lon="4.9574">
        <ele>419</ele>
        <time>2013-03-09T07:31:38.000Z</time>
      </trkpt>
      <trkpt lat="47.31654" lon="4.95744">
        <ele>419</ele>
        <time>2013-03-09T07:31:40.000Z</time>
      </trkpt>
      <trkpt lat="47.31655" lon="4.95765">
        <ele>419</ele>
        <time>2013-03-09T07:31:47.000Z</time>
      </trkpt>
      <trkpt lat="47.31656" lon="4.9577">
        <ele>419</ele>
        <time>2013-03-09T07:31:51.000Z</time>
      </trkpt>
      <trkpt lat="47.31657" lon="4.95772">
        <ele>419</ele>
        <time>2013-03-09T07:31:52.000Z</time>
      </trkpt>
      <trkpt lat="47.31658" lon="4.95777">
        <ele>420</ele>
        <time>2013-03-09T07:31:55.000Z</time>
      </trkpt>
      <trkpt lat="47.31658" lon="4.95779">
        <ele>420</ele>
        <time>2013-03-09T07:31:56.000Z</time>
      </trkpt>
      <trkpt lat="47.31657" lon="4.95784">
        <ele>420</ele>
        <time>2013-03-09T07:31:59.000Z</time>
      </trkpt>
      <trkpt lat="47.31657" lon="4.95786">
        <ele>420</ele>
        <time>2013-03-09T07:32:00.000Z</time>
      </trkpt>
      <trkpt lat="47.31657" lon="4.95791">
        <ele>420</ele>
        <time>2013-03-09T07:32:02.000Z</time>
      </trkpt>
      <trkpt lat="47.31657" lon="4.95793">
        <ele>420</ele>
        <time>2013-03-09T07:32:03.000Z</time>
      </trkpt>
      <trkpt lat="47.31656" lon="4.95799">
        <ele>420</ele>
        <time>2013-03-09T07:32:06.000Z</time>
      </trkpt>
      <trkpt lat="47.31656" lon="4.95801">
        <ele>420</ele>
        <time>2013-03-09T07:32:07.000Z</time>
      </trkpt>
      <trkpt lat="47.31655" lon="4.95807">
        <ele>420</ele>
        <time>2013-03-09T07:32:10.000Z</time>
      </trkpt>
      <trkpt lat="47.31655" lon="4.95808">
        <ele>420</ele>
        <time>2013-03-09T07:32:11.000Z</time>
      </trkpt>
      <trkpt lat="47.31655" lon="4.95813">
        <ele>420</ele>
        <time>2013-03-09T07:32:13.000Z</time>
      </trkpt>
      <trkpt lat="47.31655" lon="4.95815">
        <ele>420</ele>
        <time>2013-03-09T07:32:14.000Z</time>
      </trkpt>
      <trkpt lat="47.31655" lon="4.9582">
        <ele>420</ele>
        <time>2013-03-09T07:32:16.000Z</time>
      </trkpt>
      <trkpt lat="47.31655" lon="4.95822">
        <ele>420</ele>
        <time>2013-03-09T07:32:17.000Z</time>
      </trkpt>
      <trkpt lat="47.31655" lon="4.95826">
        <ele>420</ele>
        <time>2013-03-09T07:32:19.000Z</time>
      </trkpt>
      <trkpt lat="47.31655" lon="4.95829">
        <ele>420</ele>
        <time>2013-03-09T07:32:20.000Z</time>
      </trkpt>
      <trkpt lat="47.31655" lon="4.95834">
        <ele>420</ele>
        <time>2013-03-09T07:32:22.000Z</time>
      </trkpt>
      <trkpt lat="47.31655" lon="4.95837">
        <ele>420</ele>
        <time>2013-03-09T07:32:23.000Z</time>
      </trkpt>
      <trkpt lat="47.31654" lon="4.95841">
        <ele>420</ele>
        <time>2013-03-09T07:32:25.000Z</time>
      </trkpt>
      <trkpt lat="47.31653" lon="4.95843">
        <ele>420</ele>
        <time>2013-03-09T07:32:26.000Z</time>
      </trkpt>
      <trkpt lat="47.31652" lon="4.95849">
        <ele>420</ele>
        <time>2013-03-09T07:32:29.000Z</time>
      </trkpt>
      <trkpt lat="47.31652" lon="4.95851">
        <ele>420</ele>
        <time>2013-03-09T07:32:30.000Z</time>
      </trkpt>
      <trkpt lat="47.31652" lon="4.95856">
        <ele>420</ele>
        <time>2013-03-09T07:32:33.000Z</time>
      </trkpt>
      <trkpt lat="47.31652" lon="4.95858">
        <ele>420</ele>
        <time>2013-03-09T07:32:34.000Z</time>
      </trkpt>
      <trkpt lat="47.31651" lon="4.95863">
        <ele>420</ele>
        <time>2013-03-09T07:32:36.000Z</time>
      </trkpt>
      <trkpt lat="47.31651" lon="4.95866">
        <ele>420</ele>
        <time>2013-03-09T07:32:37.000Z</time>
      </trkpt>
      <trkpt lat="47.3165" lon="4.95871">
        <ele>420</ele>
        <time>2013-03-09T07:32:39.000Z</time>
      </trkpt>
      <trkpt lat="47.3165" lon="4.95873">
        <ele>420</ele>
        <time>2013-03-09T07:32:40.000Z</time>
      </trkpt>
      <trkpt lat="47.3165" lon="4.95895">
        <ele>420</ele>
        <time>2013-03-09T07:32:47.000Z</time>
      </trkpt>
      <trkpt lat="47.3165" lon="4.959">
        <ele>420</ele>
        <time>2013-03-09T07:32:49.000Z</time>
      </trkpt>
      <trkpt lat="47.3165" lon="4.95902">
        <ele>420</ele>
        <time>2013-03-09T07:32:50.000Z</time>
      </trkpt>
      <trkpt lat="47.31651" lon="4.95906">
        <ele>420</ele>
        <time>2013-03-09T07:32:52.000Z</time>
      </trkpt>
      <trkpt lat="47.31651" lon="4.95909">
        <ele>420</ele>
        <time>2013-03-09T07:32:53.000Z</time>
      </trkpt>
      <trkpt lat="47.31649" lon="4.95914">
        <ele>420</ele>
        <time>2013-03-09T07:32:57.000Z</time>
      </trkpt>
      <trkpt lat="47.31648" lon="4.95915">
        <ele>420</ele>
        <time>2013-03-09T07:32:58.000Z</time>
      </trkpt>
      <trkpt lat="47.31647" lon="4.9592">
        <ele>419</ele>
        <time>2013-03-09T07:33:01.000Z</time>
      </trkpt>
      <trkpt lat="47.31646" lon="4.95922">
        <ele>419</ele>
        <time>2013-03-09T07:33:02.000Z</time>
      </trkpt>
      <trkpt lat="47.31646" lon="4.95929">
        <ele>419</ele>
        <time>2013-03-09T07:33:05.000Z</time>
      </trkpt>
      <trkpt lat="47.31646" lon="4.9593">
        <ele>419</ele>
        <time>2013-03-09T07:33:06.000Z</time>
      </trkpt>
      <trkpt lat="47.31645" lon="4.95936">
        <ele>419</ele>
        <time>2013-03-09T07:33:09.000Z</time>
      </trkpt>
      <trkpt lat="47.31644" lon="4.95937">
        <ele>419</ele>
        <time>2013-03-09T07:33:10.000Z</time>
      </trkpt>
      <trkpt lat="47.31644" lon="4.95942">
        <ele>419</ele>
        <time>2013-03-09T07:33:12.000Z</time>
      </trkpt>
      <trkpt lat="47.31644" lon="4.95944">
        <ele>419</ele>
        <time>2013-03-09T07:33:13.000Z</time>
      </trkpt>
      <trkpt lat="47.31644" lon="4.95949">
        <ele>419</ele>
        <time>2013-03-09T07:33:15.000Z</time>
      </trkpt>
      <trkpt lat="47.31643" lon="4.95951">
        <ele>418</ele>
        <time>2013-03-09T07:33:16.000Z</time>
      </trkpt>
      <trkpt lat="47.31644" lon="4.95958">
        <ele>418</ele>
        <time>2013-03-09T07:33:19.000Z</time>
      </trkpt>
      <trkpt lat="47.31643" lon="4.9596">
        <ele>418</ele>
        <time>2013-03-09T07:33:20.000Z</time>
      </trkpt>
      <trkpt lat="47.31643" lon="4.95965">
        <ele>418</ele>
        <time>2013-03-09T07:33:22.000Z</time>
      </trkpt>
      <trkpt lat="47.31642" lon="4.95968">
        <ele>418</ele>
        <time>2013-03-09T07:33:23.000Z</time>
      </trkpt>
      <trkpt lat="47.31641" lon="4.95972">
        <ele>418</ele>
        <time>2013-03-09T07:33:25.000Z</time>
      </trkpt>
      <trkpt lat="47.3164" lon="4.95974">
        <ele>418</ele>
        <time>2013-03-09T07:33:26.000Z</time>
      </trkpt>
      <trkpt lat="47.31639" lon="4.95979">
        <ele>418</ele>
        <time>2013-03-09T07:33:28.000Z</time>
      </trkpt>
      <trkpt lat="47.31639" lon="4.95981">
        <ele>418</ele>
        <time>2013-03-09T07:33:29.000Z</time>
      </trkpt>
      <trkpt lat="47.31639" lon="4.95986">
        <ele>418</ele>
        <time>2013-03-09T07:33:31.000Z</time>
      </trkpt>
      <trkpt lat="47.31639" lon="4.95988">
        <ele>418</ele>
        <time>2013-03-09T07:33:32.000Z</time>
      </trkpt>
      <trkpt lat="47.31639" lon="4.95991">
        <ele>418</ele>
        <time>2013-03-09T07:33:33.000Z</time>
      </trkpt>
      <trkpt lat="47.31639" lon="4.95995">
        <ele>418</ele>
        <time>2013-03-09T07:33:34.000Z</time>
      </trkpt>
      <trkpt lat="47.31638" lon="4.96">
        <ele>417</ele>
        <time>2013-03-09T07:33:36.000Z</time>
      </trkpt>
      <trkpt lat="47.31638" lon="4.96003">
        <ele>417</ele>
        <time>2013-03-09T07:33:37.000Z</time>
      </trkpt>
      <trkpt lat="47.31637" lon="4.96005">
        <ele>417</ele>
        <time>2013-03-09T07:33:38.000Z</time>
      </trkpt>
      <trkpt lat="47.31636" lon="4.96009">
        <ele>417</ele>
        <time>2013-03-09T07:33:39.000Z</time>
      </trkpt>
      <trkpt lat="47.31634" lon="4.96011">
        <ele>417</ele>
        <time>2013-03-09T07:33:40.000Z</time>
      </trkpt>
      <trkpt lat="47.31613" lon="4.96018">
        <ele>417</ele>
        <time>2013-03-09T07:33:47.000Z</time>
      </trkpt>
      <trkpt lat="47.3161" lon="4.96014">
        <ele>417</ele>
        <time>2013-03-09T07:33:51.000Z</time>
      </trkpt>
      <trkpt lat="47.31609" lon="4.96012">
        <ele>417</ele>
        <time>2013-03-09T07:33:52.000Z</time>
      </trkpt>
      <trkpt lat="47.31606" lon="4.96009">
        <ele>417</ele>
        <time>2013-03-09T07:33:55.000Z</time>
      </trkpt>
      <trkpt lat="47.31605" lon="4.96008">
        <ele>417</ele>
        <time>2013-03-09T07:33:56.000Z</time>
      </trkpt>
      <trkpt lat="47.31603" lon="4.96005">
        <ele>417</ele>
        <time>2013-03-09T07:33:59.000Z</time>
      </trkpt>
      <trkpt lat="47.31601" lon="4.96004">
        <ele>417</ele>
        <time>2013-03-09T07:34:00.000Z</time>
      </trkpt>
      <trkpt lat="47.31598" lon="4.96002">
        <ele>417</ele>
        <time>2013-03-09T07:34:03.000Z</time>
      </trkpt>
      <trkpt lat="47.31597" lon="4.96">
        <ele>417</ele>
        <time>2013-03-09T07:34:04.000Z</time>
      </trkpt>
      <trkpt lat="47.31595" lon="4.95997">
        <ele>417</ele>
        <time>2013-03-09T07:34:06.000Z</time>
      </trkpt>
      <trkpt lat="47.31594" lon="4.95995">
        <ele>417</ele>
        <time>2013-03-09T07:34:07.000Z</time>
      </trkpt>
      <trkpt lat="47.31592" lon="4.95991">
        <ele>417</ele>
        <time>2013-03-09T07:34:09.000Z</time>
      </trkpt>
      <trkpt lat="47.3159" lon="4.95989">
        <ele>417</ele>
        <time>2013-03-09T07:34:10.000Z</time>
      </trkpt>
      <trkpt lat="47.31587" lon="4.95986">
        <ele>418</ele>
        <time>2013-03-09T07:34:12.000Z</time>
      </trkpt>
      <trkpt lat="47.31586" lon="4.95984">
        <ele>418</ele>
        <time>2013-03-09T07:34:13.000Z</time>
      </trkpt>
      <trkpt lat="47.31584" lon="4.95982">
        <ele>418</ele>
        <time>2013-03-09T07:34:15.000Z</time>
      </trkpt>
      <trkpt lat="47.31582" lon="4.9598">
        <ele>418</ele>
        <time>2013-03-09T07:34:16.000Z</time>
      </trkpt>
      <trkpt lat="47.3158" lon="4.95976">
        <ele>418</ele>
        <time>2013-03-09T07:34:19.000Z</time>
      </trkpt>
      <trkpt lat="47.31579" lon="4.95975">
        <ele>418</ele>
        <time>2013-03-09T07:34:20.000Z</time>
      </trkpt>
      <trkpt lat="47.31576" lon="4.9597">
        <ele>418</ele>
        <time>2013-03-09T07:34:25.000Z</time>
      </trkpt>
      <trkpt lat="47.31575" lon="4.95969">
        <ele>418</ele>
        <time>2013-03-09T07:34:26.000Z</time>
      </trkpt>
      <trkpt lat="47.31571" lon="4.95966">
        <ele>418</ele>
        <time>2013-03-09T07:34:29.000Z</time>
      </trkpt>
      <trkpt lat="47.3157" lon="4.95964">
        <ele>418</ele>
        <time>2013-03-09T07:34:30.000Z</time>
      </trkpt>
      <trkpt lat="47.31569" lon="4.95961">
        <ele>418</ele>
        <time>2013-03-09T07:34:31.000Z</time>
      </trkpt>
      <trkpt lat="47.31567" lon="4.9596">
        <ele>418</ele>
        <time>2013-03-09T07:34:32.000Z</time>
      </trkpt>
      <trkpt lat="47.31564" lon="4.95955">
        <ele>418</ele>
        <time>2013-03-09T07:34:34.000Z</time>
      </trkpt>
      <trkpt lat="47.31563" lon="4.95953">
        <ele>418</ele>
        <time>2013-03-09T07:34:35.000Z</time>
      </trkpt>
      <trkpt lat="47.31561" lon="4.95949">
        <ele>418</ele>
        <time>2013-03-09T07:34:37.000Z</time>
      </trkpt>
      <trkpt lat="47.3156" lon="4.95948">
        <ele>418</ele>
        <time>2013-03-09T07:34:38.000Z</time>
      </trkpt>
      <trkpt lat="47.31557" lon="4.95946">
        <ele>418</ele>
        <time>2013-03-09T07:34:40.000Z</time>
      </trkpt>
      <trkpt lat="47.31544" lon="4.95935">
        <ele>418</ele>
        <time>2013-03-09T07:34:47.000Z</time>
      </trkpt>
      <trkpt lat="47.31543" lon="4.9593">
        <ele>418</ele>
        <time>2013-03-09T07:34:51.000Z</time>
      </trkpt>
      <trkpt lat="47.31542" lon="4.95928">
        <ele>418</ele>
        <time>2013-03-09T07:34:52.000Z</time>
      </trkpt>
      <trkpt lat="47.31539" lon="4.95924">
        <ele>419</ele>
        <time>2013-03-09T07:34:55.000Z</time>
      </trkpt>
      <trkpt lat="47.31538" lon="4.95923">
        <ele>419</ele>
        <time>2013-03-09T07:34:56.000Z</time>
      </trkpt>
      <trkpt lat="47.31534" lon="4.9592">
        <ele>419</ele>
        <time>2013-03-09T07:34:59.000Z</time>
      </trkpt>
      <trkpt lat="47.31533" lon="4.95919">
        <ele>419</ele>
        <time>2013-03-09T07:35:00.000Z</time>
      </trkpt>
      <trkpt lat="47.31529" lon="4.95915">
        <ele>420</ele>
        <time>2013-03-09T07:35:03.000Z</time>
      </trkpt>
      <trkpt lat="47.31527" lon="4.95915">
        <ele>420</ele>
        <time>2013-03-09T07:35:04.000Z</time>
      </trkpt>
      <trkpt lat="47.31524" lon="4.95912">
        <ele>420</ele>
        <time>2013-03-09T07:35:06.000Z</time>
      </trkpt>
      <trkpt lat="47.31523" lon="4.95911">
        <ele>420</ele>
        <time>2013-03-09T07:35:07.000Z</time>
      </trkpt>
      <trkpt lat="47.3152" lon="4.95907">
        <ele>420</ele>
        <time>2013-03-09T07:35:09.000Z</time>
      </trkpt>
      <trkpt lat="47.31519" lon="4.95906">
        <ele>420</ele>
        <time>2013-03-09T07:35:10.000Z</time>
      </trkpt>
      <trkpt lat="47.31516" lon="4.95902">
        <ele>420</ele>
        <time>2013-03-09T07:35:12.000Z</time>
      </trkpt>
      <trkpt lat="47.31515" lon="4.95901">
        <ele>420</ele>
        <time>2013-03-09T07:35:13.000Z</time>
      </trkpt>
      <trkpt lat="47.31511" lon="4.95898">
        <ele>420</ele>
        <time>2013-03-09T07:35:16.000Z</time>
      </trkpt>
      <trkpt lat="47.3151" lon="4.95897">
        <ele>420</ele>
        <time>2013-03-09T07:35:17.000Z</time>
      </trkpt>
      <trkpt lat="47.31507" lon="4.95894">
        <ele>420</ele>
        <time>2013-03-09T07:35:19.000Z</time>
      </trkpt>
      <trkpt lat="47.31506" lon="4.95892">
        <ele>420</ele>
        <time>2013-03-09T07:35:20.000Z</time>
      </trkpt>
      <trkpt lat="47.31503" lon="4.95891">
        <ele>420</ele>
        <time>2013-03-09T07:35:23.000Z</time>
      </trkpt>
      <trkpt lat="47.31502" lon="4.9589">
        <ele>420</ele>
        <time>2013-03-09T07:35:24.000Z</time>
      </trkpt>
      <trkpt lat="47.31498" lon="4.95888">
        <ele>421</ele>
        <time>2013-03-09T07:35:27.000Z</time>
      </trkpt>
      <trkpt lat="47.31497" lon="4.95887">
        <ele>421</ele>
        <time>2013-03-09T07:35:28.000Z</time>
      </trkpt>
      <trkpt lat="47.31493" lon="4.95883">
        <ele>421</ele>
        <time>2013-03-09T07:35:31.000Z</time>
      </trkpt>
      <trkpt lat="47.31492" lon="4.95882">
        <ele>421</ele>
        <time>2013-03-09T07:35:32.000Z</time>
      </trkpt>
      <trkpt lat="47.31489" lon="4.95881">
        <ele>421</ele>
        <time>2013-03-09T07:35:34.000Z</time>
      </trkpt>
      <trkpt lat="47.31487" lon="4.9588">
        <ele>421</ele>
        <time>2013-03-09T07:35:35.000Z</time>
      </trkpt>
      <trkpt lat="47.31483" lon="4.95878">
        <ele>421</ele>
        <time>2013-03-09T07:35:39.000Z</time>
      </trkpt>
      <trkpt lat="47.31483" lon="4.95877">
        <ele>421</ele>
        <time>2013-03-09T07:35:40.000Z</time>
      </trkpt>
      <trkpt lat="47.31478" lon="4.95871">
        <ele>421</ele>
        <time>2013-03-09T07:35:47.000Z</time>
      </trkpt>
      <trkpt lat="47.31474" lon="4.95875">
        <ele>421</ele>
        <time>2013-03-09T07:35:51.000Z</time>
      </trkpt>
      <trkpt lat="47.31474" lon="4.95876">
        <ele>421</ele>
        <time>2013-03-09T07:35:52.000Z</time>
      </trkpt>
      <trkpt lat="47.31472" lon="4.9588">
        <ele>421</ele>
        <time>2013-03-09T07:35:56.000Z</time>
      </trkpt>
      <trkpt lat="47.31471" lon="4.95882">
        <ele>421</ele>
        <time>2013-03-09T07:35:57.000Z</time>
      </trkpt>
      <trkpt lat="47.31471" lon="4.95886">
        <ele>421</ele>
        <time>2013-03-09T07:36:01.000Z</time>
      </trkpt>
      <trkpt lat="47.3147" lon="4.95888">
        <ele>421</ele>
        <time>2013-03-09T07:36:02.000Z</time>
      </trkpt>
      <trkpt lat="47.31469" lon="4.95895">
        <ele>421</ele>
        <time>2013-03-09T07:36:06.000Z</time>
      </trkpt>
      <trkpt lat="47.31469" lon="4.95896">
        <ele>421</ele>
        <time>2013-03-09T07:36:07.000Z</time>
      </trkpt>
      <trkpt lat="47.31468" lon="4.95901">
        <ele>421</ele>
        <time>2013-03-09T07:36:10.000Z</time>
      </trkpt>
      <trkpt lat="47.31468" lon="4.95903">
        <ele>421</ele>
        <time>2013-03-09T07:36:11.000Z</time>
      </trkpt>
      <trkpt lat="47.31468" lon="4.95909">
        <ele>421</ele>
        <time>2013-03-09T07:36:14.000Z</time>
      </trkpt>
      <trkpt lat="47.31468" lon="4.95912">
        <ele>421</ele>
        <time>2013-03-09T07:36:15.000Z</time>
      </trkpt>
      <trkpt lat="47.31468" lon="4.95915">
        <ele>421</ele>
        <time>2013-03-09T07:36:16.000Z</time>
      </trkpt>
      <trkpt lat="47.31467" lon="4.95919">
        <ele>420</ele>
        <time>2013-03-09T07:36:17.000Z</time>
      </trkpt>
      <trkpt lat="47.31467" lon="4.95922">
        <ele>420</ele>
        <time>2013-03-09T07:36:18.000Z</time>
      </trkpt>
      <trkpt lat="47.31467" lon="4.95926">
        <ele>420</ele>
        <time>2013-03-09T07:36:19.000Z</time>
      </trkpt>
      <trkpt lat="47.31467" lon="4.95931">
        <ele>420</ele>
        <time>2013-03-09T07:36:21.000Z</time>
      </trkpt>
      <trkpt lat="47.31467" lon="4.95933">
        <ele>420</ele>
        <time>2013-03-09T07:36:22.000Z</time>
      </trkpt>
      <trkpt lat="47.31465" lon="4.95938">
        <ele>420</ele>
        <time>2013-03-09T07:36:25.000Z</time>
      </trkpt>
      <trkpt lat="47.31464" lon="4.9594">
        <ele>420</ele>
        <time>2013-03-09T07:36:26.000Z</time>
      </trkpt>
      <trkpt lat="47.31461" lon="4.95944">
        <ele>420</ele>
        <time>2013-03-09T07:36:29.000Z</time>
      </trkpt>
      <trkpt lat="47.31459" lon="4.95946">
        <ele>420</ele>
        <time>2013-03-09T07:36:30.000Z</time>
      </trkpt>
      <trkpt lat="47.31456" lon="4.9595">
        <ele>420</ele>
        <time>2013-03-09T07:36:32.000Z</time>
      </trkpt>
      <trkpt lat="47.31455" lon="4.95951">
        <ele>420</ele>
        <time>2013-03-09T07:36:33.000Z</time>
      </trkpt>
      <trkpt lat="47.31453" lon="4.95955">
        <ele>420</ele>
        <time>2013-03-09T07:36:35.000Z</time>
      </trkpt>
      <trkpt lat="47.31452" lon="4.95956">
        <ele>420</ele>
        <time>2013-03-09T07:36:36.000Z</time>
      </trkpt>
      <trkpt lat="47.31449" lon="4.95959">
        <ele>420</ele>
        <time>2013-03-09T07:36:38.000Z</time>
      </trkpt>
      <trkpt lat="47.31448" lon="4.9596">
        <ele>420</ele>
        <time>2013-03-09T07:36:39.000Z</time>
      </trkpt>
      <trkpt lat="47.31447" lon="4.95962">
        <ele>420</ele>
        <time>2013-03-09T07:36:40.000Z</time>
      </trkpt>
      <trkpt lat="47.3144" lon="4.95981">
        <ele>419</ele>
        <time>2013-03-09T07:36:47.000Z</time>
      </trkpt>
      <trkpt lat="47.3144" lon="4.95987">
        <ele>419</ele>
        <time>2013-03-09T07:36:54.000Z</time>
      </trkpt>
      <trkpt lat="47.31441" lon="4.95987">
        <ele>419</ele>
        <time>2013-03-09T07:36:55.000Z</time>
      </trkpt>
      <trkpt lat="47.31444" lon="4.95992">
        <ele>419</ele>
        <time>2013-03-09T07:37:00.000Z</time>
      </trkpt>
      <trkpt lat="47.31444" lon="4.95993">
        <ele>419</ele>
        <time>2013-03-09T07:37:01.000Z</time>
      </trkpt>
      <trkpt lat="47.31445" lon="4.95999">
        <ele>419</ele>
        <time>2013-03-09T07:37:04.000Z</time>
      </trkpt>
      <trkpt lat="47.31445" lon="4.96001">
        <ele>418</ele>
        <time>2013-03-09T07:37:05.000Z</time>
      </trkpt>
      <trkpt lat="47.31446" lon="4.96007">
        <ele>418</ele>
        <time>2013-03-09T07:37:08.000Z</time>
      </trkpt>
      <trkpt lat="47.31446" lon="4.96009">
        <ele>418</ele>
        <time>2013-03-09T07:37:09.000Z</time>
      </trkpt>
      <trkpt lat="47.31446" lon="4.96015">
        <ele>418</ele>
        <time>2013-03-09T07:37:12.000Z</time>
      </trkpt>
      <trkpt lat="47.31446" lon="4.96019">
        <ele>418</ele>
        <time>2013-03-09T07:37:13.000Z</time>
      </trkpt>
      <trkpt lat="47.31447" lon="4.96024">
        <ele>418</ele>
        <time>2013-03-09T07:37:15.000Z</time>
      </trkpt>
      <trkpt lat="47.31447" lon="4.96026">
        <ele>418</ele>
        <time>2013-03-09T07:37:16.000Z</time>
      </trkpt>
      <trkpt lat="47.31447" lon="4.96031">
        <ele>418</ele>
        <time>2013-03-09T07:37:18.000Z</time>
      </trkpt>
      <trkpt lat="47.31447" lon="4.96034">
        <ele>418</ele>
        <time>2013-03-09T07:37:19.000Z</time>
      </trkpt>
      <trkpt lat="47.31448" lon="4.96038">
        <ele>418</ele>
        <time>2013-03-09T07:37:21.000Z</time>
      </trkpt>
      <trkpt lat="47.31447" lon="4.96041">
        <ele>418</ele>
        <time>2013-03-09T07:37:22.000Z</time>
      </trkpt>
      <trkpt lat="47.31447" lon="4.96047">
        <ele>418</ele>
        <time>2013-03-09T07:37:25.000Z</time>
      </trkpt>
      <trkpt lat="47.31447" lon="4.96048">
        <ele>418</ele>
        <time>2013-03-09T07:37:26.000Z</time>
      </trkpt>
      <trkpt lat="47.31444" lon="4.96053">
        <ele>418</ele>
        <time>2013-03-09T07:37:31.000Z</time>
      </trkpt>
      <trkpt lat="47.31443" lon="4.96054">
        <ele>418</ele>
        <time>2013-03-09T07:37:32.000Z</time>
      </trkpt>
      <trkpt lat="47.3144" lon="4.96056">
        <ele>418</ele>
        <time>2013-03-09T07:37:35.000Z</time>
      </trkpt>
      <trkpt lat="47.31439" lon="4.96057">
        <ele>418</ele>
        <time>2013-03-09T07:37:36.000Z</time>
      </trkpt>
      <trkpt lat="47.31436" lon="4.96059">
        <ele>418</ele>
        <time>2013-03-09T07:37:38.000Z</time>
      </trkpt>
      <trkpt lat="47.31435" lon="4.9606">
        <ele>418</ele>
        <time>2013-03-09T07:37:39.000Z</time>
      </trkpt>
      <trkpt lat="47.31433" lon="4.9606">
        <ele>418</ele>
        <time>2013-03-09T07:37:40.000Z</time>
      </trkpt>
      <trkpt lat="47.31414" lon="4.96072">
        <ele>416</ele>
        <time>2013-03-09T07:37:46.000Z</time>
      </trkpt>
      <trkpt lat="47.31412" lon="4.96068">
        <ele>416</ele>
        <time>2013-03-09T07:37:48.000Z</time>
      </trkpt>
      <trkpt lat="47.3141" lon="4.96066">
        <ele>416</ele>
        <time>2013-03-09T07:37:49.000Z</time>
      </trkpt>
      <trkpt lat="47.31407" lon="4.96066">
        <ele>416</ele>
        <time>2013-03-09T07:37:51.000Z</time>
      </trkpt>
      <trkpt lat="47.31406" lon="4.96065">
        <ele>416</ele>
        <time>2013-03-09T07:37:52.000Z</time>
      </trkpt>
      <trkpt lat="47.31402" lon="4.96066">
        <ele>416</ele>
        <time>2013-03-09T07:37:56.000Z</time>
      </trkpt>
      <trkpt lat="47.31401" lon="4.96065">
        <ele>416</ele>
        <time>2013-03-09T07:37:57.000Z</time>
      </trkpt>
      <trkpt lat="47.31397" lon="4.96063">
        <ele>415</ele>
        <time>2013-03-09T07:38:01.000Z</time>
      </trkpt>
      <trkpt lat="47.31396" lon="4.96062">
        <ele>415</ele>
        <time>2013-03-09T07:38:02.000Z</time>
      </trkpt>
      <trkpt lat="47.31393" lon="4.96059">
        <ele>415</ele>
        <time>2013-03-09T07:38:05.000Z</time>
      </trkpt>
      <trkpt lat="47.31392" lon="4.96058">
        <ele>415</ele>
        <time>2013-03-09T07:38:06.000Z</time>
      </trkpt>
      <trkpt lat="47.31388" lon="4.96056">
        <ele>415</ele>
        <time>2013-03-09T07:38:09.000Z</time>
      </trkpt>
      <trkpt lat="47.31386" lon="4.96055">
        <ele>415</ele>
        <time>2013-03-09T07:38:10.000Z</time>
      </trkpt>
      <trkpt lat="47.31383" lon="4.96052">
        <ele>415</ele>
        <time>2013-03-09T07:38:13.000Z</time>
      </trkpt>
      <trkpt lat="47.31381" lon="4.96051">
        <ele>415</ele>
        <time>2013-03-09T07:38:14.000Z</time>
      </trkpt>
      <trkpt lat="47.31378" lon="4.96047">
        <ele>415</ele>
        <time>2013-03-09T07:38:17.000Z</time>
      </trkpt>
      <trkpt lat="47.31376" lon="4.96046">
        <ele>415</ele>
        <time>2013-03-09T07:38:18.000Z</time>
      </trkpt>
      <trkpt lat="47.31373" lon="4.96044">
        <ele>415</ele>
        <time>2013-03-09T07:38:21.000Z</time>
      </trkpt>
      <trkpt lat="47.31372" lon="4.96042">
        <ele>415</ele>
        <time>2013-03-09T07:38:22.000Z</time>
      </trkpt>
      <trkpt lat="47.31369" lon="4.96039">
        <ele>415</ele>
        <time>2013-03-09T07:38:24.000Z</time>
      </trkpt>
      <trkpt lat="47.31367" lon="4.96038">
        <ele>415</ele>
        <time>2013-03-09T07:38:25.000Z</time>
      </trkpt>
      <trkpt lat="47.31364" lon="4.96037">
        <ele>415</ele>
        <time>2013-03-09T07:38:27.000Z</time>
      </trkpt>
      <trkpt lat="47.31363" lon="4.96035">
        <ele>415</ele>
        <time>2013-03-09T07:38:28.000Z</time>
      </trkpt>
      <trkpt lat="47.3136" lon="4.96033">
        <ele>415</ele>
        <time>2013-03-09T07:38:31.000Z</time>
      </trkpt>
      <trkpt lat="47.31359" lon="4.96032">
        <ele>415</ele>
        <time>2013-03-09T07:38:32.000Z</time>
      </trkpt>
      <trkpt lat="47.31356" lon="4.96029">
        <ele>415</ele>
        <time>2013-03-09T07:38:35.000Z</time>
      </trkpt>
      <trkpt lat="47.31354" lon="4.96027">
        <ele>415</ele>
        <time>2013-03-09T07:38:36.000Z</time>
      </trkpt>
      <trkpt lat="47.31351" lon="4.96023">
        <ele>415</ele>
        <time>2013-03-09T07:38:39.000Z</time>
      </trkpt>
      <trkpt lat="47.3135" lon="4.96022">
        <ele>415</ele>
        <time>2013-03-09T07:38:40.000Z</time>
      </trkpt>
      <trkpt lat="47.31331" lon="4.96006">
        <ele>414</ele>
        <time>2013-03-09T07:38:47.000Z</time>
      </trkpt>
      <trkpt lat="47.3133" lon="4.96">
        <ele>416</ele>
        <time>2013-03-09T07:38:52.000Z</time>
      </trkpt>
      <trkpt lat="47.31329" lon="4.95998">
        <ele>416</ele>
        <time>2013-03-09T07:38:53.000Z</time>
      </trkpt>
      <trkpt lat="47.31327" lon="4.95994">
        <ele>415</ele>
        <time>2013-03-09T07:38:56.000Z</time>
      </trkpt>
      <trkpt lat="47.31327" lon="4.95992">
        <ele>415</ele>
        <time>2013-03-09T07:38:57.000Z</time>
      </trkpt>
      <trkpt lat="47.31325" lon="4.95988">
        <ele>415</ele>
        <time>2013-03-09T07:39:00.000Z</time>
      </trkpt>
      <trkpt lat="47.31324" lon="4.95987">
        <ele>415</ele>
        <time>2013-03-09T07:39:01.000Z</time>
      </trkpt>
      <trkpt lat="47.31323" lon="4.95981">
        <ele>414</ele>
        <time>2013-03-09T07:39:04.000Z</time>
      </trkpt>
      <trkpt lat="47.31322" lon="4.95981">
        <ele>414</ele>
        <time>2013-03-09T07:39:05.000Z</time>
      </trkpt>
      <trkpt lat="47.3132" lon="4.95976">
        <ele>414</ele>
        <time>2013-03-09T07:39:07.000Z</time>
      </trkpt>
      <trkpt lat="47.31319" lon="4.95973">
        <ele>414</ele>
        <time>2013-03-09T07:39:08.000Z</time>
      </trkpt>
      <trkpt lat="47.31317" lon="4.95969">
        <ele>414</ele>
        <time>2013-03-09T07:39:10.000Z</time>
      </trkpt>
      <trkpt lat="47.31316" lon="4.95967">
        <ele>414</ele>
        <time>2013-03-09T07:39:11.000Z</time>
      </trkpt>
      <trkpt lat="47.31315" lon="4.95962">
        <ele>414</ele>
        <time>2013-03-09T07:39:13.000Z</time>
      </trkpt>
      <trkpt lat="47.31314" lon="4.9596">
        <ele>413</ele>
        <time>2013-03-09T07:39:14.000Z</time>
      </trkpt>
      <trkpt lat="47.31312" lon="4.95955">
        <ele>414</ele>
        <time>2013-03-09T07:39:17.000Z</time>
      </trkpt>
      <trkpt lat="47.31311" lon="4.95953">
        <ele>414</ele>
        <time>2013-03-09T07:39:18.000Z</time>
      </trkpt>
      <trkpt lat="47.31309" lon="4.95949">
        <ele>414</ele>
        <time>2013-03-09T07:39:21.000Z</time>
      </trkpt>
      <trkpt lat="47.31309" lon="4.95947">
        <ele>414</ele>
        <time>2013-03-09T07:39:22.000Z</time>
      </trkpt>
      <trkpt lat="47.31305" lon="4.95944">
        <ele>413</ele>
        <time>2013-03-09T07:39:25.000Z</time>
      </trkpt>
      <trkpt lat="47.31304" lon="4.95943">
        <ele>413</ele>
        <time>2013-03-09T07:39:26.000Z</time>
      </trkpt>
      <trkpt lat="47.31301" lon="4.9594">
        <ele>413</ele>
        <time>2013-03-09T07:39:29.000Z</time>
      </trkpt>
      <trkpt lat="47.313" lon="4.95937">
        <ele>413</ele>
        <time>2013-03-09T07:39:30.000Z</time>
      </trkpt>
      <trkpt lat="47.31298" lon="4.95933">
        <ele>413</ele>
        <time>2013-03-09T07:39:32.000Z</time>
      </trkpt>
      <trkpt lat="47.31297" lon="4.95931">
        <ele>413</ele>
        <time>2013-03-09T07:39:33.000Z</time>
      </trkpt>
      <trkpt lat="47.31294" lon="4.95928">
        <ele>413</ele>
        <time>2013-03-09T07:39:35.000Z</time>
      </trkpt>
      <trkpt lat="47.31293" lon="4.95926">
        <ele>413</ele>
        <time>2013-03-09T07:39:36.000Z</time>
      </trkpt>
      <trkpt lat="47.31291" lon="4.95922">
        <ele>413</ele>
        <time>2013-03-09T07:39:38.000Z</time>
      </trkpt>
      <trkpt lat="47.31289" lon="4.95921">
        <ele>412</ele>
        <time>2013-03-09T07:39:39.000Z</time>
      </trkpt>
      <trkpt lat="47.31288" lon="4.95918">
        <ele>412</ele>
        <time>2013-03-09T07:39:40.000Z</time>
      </trkpt>
      <trkpt lat="47.31277" lon="4.959">
        <ele>414</ele>
        <time>2013-03-09T07:39:47.000Z</time>
      </trkpt>
      <trkpt lat="47.31275" lon="4.95898">
        <ele>414</ele>
        <time>2013-03-09T07:39:49.000Z</time>
      </trkpt>
      <trkpt lat="47.31273" lon="4.95897">
        <ele>414</ele>
        <time>2013-03-09T07:39:50.000Z</time>
      </trkpt>
      <trkpt lat="47.3127" lon="4.95893">
        <ele>414</ele>
        <time>2013-03-09T07:39:54.000Z</time>
      </trkpt>
      <trkpt lat="47.31269" lon="4.95892">
        <ele>414</ele>
        <time>2013-03-09T07:39:55.000Z</time>
      </trkpt>
      <trkpt lat="47.31267" lon="4.95889">
        <ele>414</ele>
        <time>2013-03-09T07:39:57.000Z</time>
      </trkpt>
      <trkpt lat="47.31266" lon="4.95886">
        <ele>414</ele>
        <time>2013-03-09T07:39:58.000Z</time>
      </trkpt>
      <trkpt lat="47.31264" lon="4.95882">
        <ele>414</ele>
        <time>2013-03-09T07:40:01.000Z</time>
      </trkpt>
      <trkpt lat="47.31263" lon="4.95881">
        <ele>414</ele>
        <time>2013-03-09T07:40:02.000Z</time>
      </trkpt>
      <trkpt lat="47.31262" lon="4.95876">
        <ele>414</ele>
        <time>2013-03-09T07:40:04.000Z</time>
      </trkpt>
      <trkpt lat="47.31261" lon="4.95874">
        <ele>414</ele>
        <time>2013-03-09T07:40:05.000Z</time>
      </trkpt>
      <trkpt lat="47.31258" lon="4.9587">
        <ele>414</ele>
        <time>2013-03-09T07:40:07.000Z</time>
      </trkpt>
      <trkpt lat="47.31257" lon="4.95868">
        <ele>414</ele>
        <time>2013-03-09T07:40:08.000Z</time>
      </trkpt>
      <trkpt lat="47.31255" lon="4.95864">
        <ele>414</ele>
        <time>2013-03-09T07:40:11.000Z</time>
      </trkpt>
      <trkpt lat="47.31254" lon="4.95862">
        <ele>414</ele>
        <time>2013-03-09T07:40:12.000Z</time>
      </trkpt>
      <trkpt lat="47.31251" lon="4.95858">
        <ele>414</ele>
        <time>2013-03-09T07:40:14.000Z</time>
      </trkpt>
      <trkpt lat="47.31249" lon="4.95856">
        <ele>405</ele>
        <time>2013-03-09T07:40:15.000Z</time>
      </trkpt>
      <trkpt lat="47.31248" lon="4.95852">
        <ele>405</ele>
        <time>2013-03-09T07:40:16.000Z</time>
      </trkpt>
      <trkpt lat="47.31246" lon="4.9585">
        <ele>406</ele>
        <time>2013-03-09T07:40:17.000Z</time>
      </trkpt>
      <trkpt lat="47.31245" lon="4.95844">
        <ele>407</ele>
        <time>2013-03-09T07:40:19.000Z</time>
      </trkpt>
      <trkpt lat="47.31244" lon="4.95841">
        <ele>408</ele>
        <time>2013-03-09T07:40:20.000Z</time>
      </trkpt>
      <trkpt lat="47.31243" lon="4.95836">
        <ele>408</ele>
        <time>2013-03-09T07:40:22.000Z</time>
      </trkpt>
      <trkpt lat="47.31242" lon="4.95833">
        <ele>409</ele>
        <time>2013-03-09T07:40:23.000Z</time>
      </trkpt>
      <trkpt lat="47.31241" lon="4.95828">
        <ele>408</ele>
        <time>2013-03-09T07:40:25.000Z</time>
      </trkpt>
      <trkpt lat="47.3124" lon="4.95826">
        <ele>408</ele>
        <time>2013-03-09T07:40:26.000Z</time>
      </trkpt>
      <trkpt lat="47.31239" lon="4.95822">
        <ele>407</ele>
        <time>2013-03-09T07:40:28.000Z</time>
      </trkpt>
      <trkpt lat="47.31238" lon="4.9582">
        <ele>406</ele>
        <time>2013-03-09T07:40:29.000Z</time>
      </trkpt>
      <trkpt lat="47.31238" lon="4.95813">
        <ele>406</ele>
        <time>2013-03-09T07:40:32.000Z</time>
      </trkpt>
      <trkpt lat="47.31238" lon="4.95812">
        <ele>405</ele>
        <time>2013-03-09T07:40:33.000Z</time>
      </trkpt>
      <trkpt lat="47.31237" lon="4.95805">
        <ele>405</ele>
        <time>2013-03-09T07:40:36.000Z</time>
      </trkpt>
      <trkpt lat="47.31236" lon="4.95803">
        <ele>405</ele>
        <time>2013-03-09T07:40:37.000Z</time>
      </trkpt>
      <trkpt lat="47.31236" lon="4.95798">
        <ele>404</ele>
        <time>2013-03-09T07:40:39.000Z</time>
      </trkpt>
      <trkpt lat="47.31236" lon="4.95795">
        <ele>404</ele>
        <time>2013-03-09T07:40:40.000Z</time>
      </trkpt>
      <trkpt lat="47.31234" lon="4.95771">
        <ele>406</ele>
        <time>2013-03-09T07:40:47.000Z</time>
      </trkpt>
      <trkpt lat="47.31233" lon="4.95765">
        <ele>406</ele>
        <time>2013-03-09T07:40:53.000Z</time>
      </trkpt>
      <trkpt lat="47.31232" lon="4.95764">
        <ele>406</ele>
        <time>2013-03-09T07:40:54.000Z</time>
      </trkpt>
      <trkpt lat="47.3123" lon="4.95758">
        <ele>406</ele>
        <time>2013-03-09T07:40:58.000Z</time>
      </trkpt>
      <trkpt lat="47.3123" lon="4.95756">
        <ele>406</ele>
        <time>2013-03-09T07:40:59.000Z</time>
      </trkpt>
      <trkpt lat="47.3123" lon="4.95751">
        <ele>406</ele>
        <time>2013-03-09T07:41:02.000Z</time>
      </trkpt>
      <trkpt lat="47.3123" lon="4.9575">
        <ele>406</ele>
        <time>2013-03-09T07:41:03.000Z</time>
      </trkpt>
      <trkpt lat="47.31229" lon="4.95743">
        <ele>405</ele>
        <time>2013-03-09T07:41:06.000Z</time>
      </trkpt>
      <trkpt lat="47.31229" lon="4.95741">
        <ele>405</ele>
        <time>2013-03-09T07:41:07.000Z</time>
      </trkpt>
      <trkpt lat="47.31229" lon="4.95736">
        <ele>405</ele>
        <time>2013-03-09T07:41:11.000Z</time>
      </trkpt>
      <trkpt lat="47.31229" lon="4.95734">
        <ele>405</ele>
        <time>2013-03-09T07:41:12.000Z</time>
      </trkpt>
      <trkpt lat="47.31228" lon="4.95729">
        <ele>404</ele>
        <time>2013-03-09T07:41:14.000Z</time>
      </trkpt>
      <trkpt lat="47.31228" lon="4.95727">
        <ele>404</ele>
        <time>2013-03-09T07:41:15.000Z</time>
      </trkpt>
      <trkpt lat="47.31229" lon="4.95722">
        <ele>404</ele>
        <time>2013-03-09T07:41:17.000Z</time>
      </trkpt>
      <trkpt lat="47.31229" lon="4.9572">
        <ele>403</ele>
        <time>2013-03-09T07:41:18.000Z</time>
      </trkpt>
      <trkpt lat="47.31229" lon="4.95713">
        <ele>403</ele>
        <time>2013-03-09T07:41:21.000Z</time>
      </trkpt>
      <trkpt lat="47.31229" lon="4.95711">
        <ele>403</ele>
        <time>2013-03-09T07:41:22.000Z</time>
      </trkpt>
      <trkpt lat="47.31228" lon="4.95706">
        <ele>403</ele>
        <time>2013-03-09T07:41:25.000Z</time>
      </trkpt>
      <trkpt lat="47.31228" lon="4.95704">
        <ele>403</ele>
        <time>2013-03-09T07:41:26.000Z</time>
      </trkpt>
      <trkpt lat="47.31227" lon="4.957">
        <ele>403</ele>
        <time>2013-03-09T07:41:28.000Z</time>
      </trkpt>
      <trkpt lat="47.31227" lon="4.95697">
        <ele>403</ele>
        <time>2013-03-09T07:41:29.000Z</time>
      </trkpt>
      <trkpt lat="47.31228" lon="4.95691">
        <ele>403</ele>
        <time>2013-03-09T07:41:31.000Z</time>
      </trkpt>
      <trkpt lat="47.31228" lon="4.95689">
        <ele>404</ele>
        <time>2013-03-09T07:41:32.000Z</time>
      </trkpt>
      <trkpt lat="47.31228" lon="4.95684">
        <ele>404</ele>
        <time>2013-03-09T07:41:34.000Z</time>
      </trkpt>
      <trkpt lat="47.31228" lon="4.95681">
        <ele>404</ele>
        <time>2013-03-09T07:41:35.000Z</time>
      </trkpt>
      <trkpt lat="47.31228" lon="4.95676">
        <ele>404</ele>
        <time>2013-03-09T07:41:37.000Z</time>
      </trkpt>
      <trkpt lat="47.31228" lon="4.95674">
        <ele>404</ele>
        <time>2013-03-09T07:41:38.000Z</time>
      </trkpt>
      <trkpt lat="47.31228" lon="4.9567">
        <ele>405</ele>
        <time>2013-03-09T07:41:40.000Z</time>
      </trkpt>
      <trkpt lat="47.31229" lon="4.95648">
        <ele>404</ele>
        <time>2013-03-09T07:41:47.000Z</time>
      </trkpt>
      <trkpt lat="47.3123" lon="4.95643">
        <ele>404</ele>
        <time>2013-03-09T07:41:50.000Z</time>
      </trkpt>
      <trkpt lat="47.3123" lon="4.9564">
        <ele>403</ele>
        <time>2013-03-09T07:41:51.000Z</time>
      </trkpt>
      <trkpt lat="47.31229" lon="4.95634">
        <ele>403</ele>
        <time>2013-03-09T07:41:53.000Z</time>
      </trkpt>
      <trkpt lat="47.3123" lon="4.95632">
        <ele>403</ele>
        <time>2013-03-09T07:41:54.000Z</time>
      </trkpt>
      <trkpt lat="47.3123" lon="4.95626">
        <ele>403</ele>
        <time>2013-03-09T07:41:57.000Z</time>
      </trkpt>
      <trkpt lat="47.3123" lon="4.95624">
        <ele>403</ele>
        <time>2013-03-09T07:41:58.000Z</time>
      </trkpt>
      <trkpt lat="47.31229" lon="4.95618">
        <ele>403</ele>
        <time>2013-03-09T07:42:01.000Z</time>
      </trkpt>
      <trkpt lat="47.31229" lon="4.95615">
        <ele>403</ele>
        <time>2013-03-09T07:42:02.000Z</time>
      </trkpt>
      <trkpt lat="47.3123" lon="4.95609">
        <ele>404</ele>
        <time>2013-03-09T07:42:05.000Z</time>
      </trkpt>
      <trkpt lat="47.3123" lon="4.95607">
        <ele>404</ele>
        <time>2013-03-09T07:42:06.000Z</time>
      </trkpt>
      <trkpt lat="47.3123" lon="4.95602">
        <ele>404</ele>
        <time>2013-03-09T07:42:10.000Z</time>
      </trkpt>
      <trkpt lat="47.3123" lon="4.95599">
        <ele>405</ele>
        <time>2013-03-09T07:42:11.000Z</time>
      </trkpt>
      <trkpt lat="47.31231" lon="4.95593">
        <ele>405</ele>
        <time>2013-03-09T07:42:14.000Z</time>
      </trkpt>
      <trkpt lat="47.3123" lon="4.95592">
        <ele>405</ele>
        <time>2013-03-09T07:42:15.000Z</time>
      </trkpt>
      <trkpt lat="47.31229" lon="4.95587">
        <ele>405</ele>
        <time>2013-03-09T07:42:17.000Z</time>
      </trkpt>
      <trkpt lat="47.31229" lon="4.95584">
        <ele>406</ele>
        <time>2013-03-09T07:42:18.000Z</time>
      </trkpt>
      <trkpt lat="47.31231" lon="4.95578">
        <ele>407</ele>
        <time>2013-03-09T07:42:21.000Z</time>
      </trkpt>
      <trkpt lat="47.31232" lon="4.95576">
        <ele>407</ele>
        <time>2013-03-09T07:42:22.000Z</time>
      </trkpt>
      <trkpt lat="47.31234" lon="4.9557">
        <ele>407</ele>
        <time>2013-03-09T07:42:25.000Z</time>
      </trkpt>
      <trkpt lat="47.31235" lon="4.95568">
        <ele>407</ele>
        <time>2013-03-09T07:42:26.000Z</time>
      </trkpt>
      <trkpt lat="47.31235" lon="4.95562">
        <ele>406</ele>
        <time>2013-03-09T07:42:29.000Z</time>
      </trkpt>
      <trkpt lat="47.31234" lon="4.9556">
        <ele>406</ele>
        <time>2013-03-09T07:42:30.000Z</time>
      </trkpt>
      <trkpt lat="47.31234" lon="4.95555">
        <ele>405</ele>
        <time>2013-03-09T07:42:32.000Z</time>
      </trkpt>
      <trkpt lat="47.31234" lon="4.95552">
        <ele>405</ele>
        <time>2013-03-09T07:42:33.000Z</time>
      </trkpt>
      <trkpt lat="47.31234" lon="4.95547">
        <ele>405</ele>
        <time>2013-03-09T07:42:35.000Z</time>
      </trkpt>
      <trkpt lat="47.31233" lon="4.95545">
        <ele>405</ele>
        <time>2013-03-09T07:42:36.000Z</time>
      </trkpt>
      <trkpt lat="47.31232" lon="4.9554">
        <ele>405</ele>
        <time>2013-03-09T07:42:38.000Z</time>
      </trkpt>
      <trkpt lat="47.31232" lon="4.95537">
        <ele>405</ele>
        <time>2013-03-09T07:42:39.000Z</time>
      </trkpt>
      <trkpt lat="47.31232" lon="4.95535">
        <ele>405</ele>
        <time>2013-03-09T07:42:40.000Z</time>
      </trkpt>
      <trkpt lat="47.31241" lon="4.95495">
        <ele>409</ele>
        <time>2013-03-09T07:42:48.000Z</time>
      </trkpt>
      <trkpt lat="47.31241" lon="4.95489">
        <ele>408</ele>
        <time>2013-03-09T07:42:52.000Z</time>
      </trkpt>
      <trkpt lat="47.31241" lon="4.95487">
        <ele>408</ele>
        <time>2013-03-09T07:42:53.000Z</time>
      </trkpt>
      <trkpt lat="47.31242" lon="4.95483">
        <ele>408</ele>
        <time>2013-03-09T07:42:55.000Z</time>
      </trkpt>
      <trkpt lat="47.31244" lon="4.95482">
        <ele>408</ele>
        <time>2013-03-09T07:42:56.000Z</time>
      </trkpt>
      <trkpt lat="47.31246" lon="4.95478">
        <ele>407</ele>
        <time>2013-03-09T07:42:58.000Z</time>
      </trkpt>
      <trkpt lat="47.31246" lon="4.95476">
        <ele>407</ele>
        <time>2013-03-09T07:42:59.000Z</time>
      </trkpt>
      <trkpt lat="47.3125" lon="4.95472">
        <ele>407</ele>
        <time>2013-03-09T07:43:01.000Z</time>
      </trkpt>
      <trkpt lat="47.31251" lon="4.9547">
        <ele>414</ele>
        <time>2013-03-09T07:43:02.000Z</time>
      </trkpt>
      <trkpt lat="47.31253" lon="4.95465">
        <ele>414</ele>
        <time>2013-03-09T07:43:05.000Z</time>
      </trkpt>
      <trkpt lat="47.31254" lon="4.95463">
        <ele>414</ele>
        <time>2013-03-09T07:43:06.000Z</time>
      </trkpt>
      <trkpt lat="47.31256" lon="4.9546">
        <ele>414</ele>
        <time>2013-03-09T07:43:09.000Z</time>
      </trkpt>
      <trkpt lat="47.31257" lon="4.95459">
        <ele>414</ele>
        <time>2013-03-09T07:43:10.000Z</time>
      </trkpt>
      <trkpt lat="47.3126" lon="4.95455">
        <ele>414</ele>
        <time>2013-03-09T07:43:14.000Z</time>
      </trkpt>
      <trkpt lat="47.3126" lon="4.95454">
        <ele>414</ele>
        <time>2013-03-09T07:43:15.000Z</time>
      </trkpt>
      <trkpt lat="47.31263" lon="4.9545">
        <ele>414</ele>
        <time>2013-03-09T07:43:18.000Z</time>
      </trkpt>
      <trkpt lat="47.31264" lon="4.95448">
        <ele>414</ele>
        <time>2013-03-09T07:43:19.000Z</time>
      </trkpt>
      <trkpt lat="47.31267" lon="4.95445">
        <ele>414</ele>
        <time>2013-03-09T07:43:21.000Z</time>
      </trkpt>
      <trkpt lat="47.31267" lon="4.95443">
        <ele>414</ele>
        <time>2013-03-09T07:43:22.000Z</time>
      </trkpt>
      <trkpt lat="47.31269" lon="4.95438">
        <ele>414</ele>
        <time>2013-03-09T07:43:24.000Z</time>
      </trkpt>
      <trkpt lat="47.3127" lon="4.95436">
        <ele>414</ele>
        <time>2013-03-09T07:43:25.000Z</time>
      </trkpt>
      <trkpt lat="47.31272" lon="4.95432">
        <ele>414</ele>
        <time>2013-03-09T07:43:27.000Z</time>
      </trkpt>
      <trkpt lat="47.31273" lon="4.9543">
        <ele>414</ele>
        <time>2013-03-09T07:43:28.000Z</time>
      </trkpt>
      <trkpt lat="47.31275" lon="4.95426">
        <ele>414</ele>
        <time>2013-03-09T07:43:30.000Z</time>
      </trkpt>
      <trkpt lat="47.31276" lon="4.95424">
        <ele>414</ele>
        <time>2013-03-09T07:43:31.000Z</time>
      </trkpt>
      <trkpt lat="47.31278" lon="4.9542">
        <ele>414</ele>
        <time>2013-03-09T07:43:33.000Z</time>
      </trkpt>
      <trkpt lat="47.31279" lon="4.95419">
        <ele>414</ele>
        <time>2013-03-09T07:43:34.000Z</time>
      </trkpt>
      <trkpt lat="47.31282" lon="4.95416">
        <ele>413</ele>
        <time>2013-03-09T07:43:37.000Z</time>
      </trkpt>
      <trkpt lat="47.31283" lon="4.95415">
        <ele>413</ele>
        <time>2013-03-09T07:43:38.000Z</time>
      </trkpt>
      <trkpt lat="47.31285" lon="4.95413">
        <ele>413</ele>
        <time>2013-03-09T07:43:40.000Z</time>
      </trkpt>
      <trkpt lat="47.31295" lon="4.95393">
        <ele>414</ele>
        <time>2013-03-09T07:43:47.000Z</time>
      </trkpt>
      <trkpt lat="47.31299" lon="4.95391">
        <ele>414</ele>
        <time>2013-03-09T07:43:51.000Z</time>
      </trkpt>
      <trkpt lat="47.313" lon="4.95391">
        <ele>414</ele>
        <time>2013-03-09T07:43:52.000Z</time>
      </trkpt>
      <trkpt lat="47.31304" lon="4.95388">
        <ele>415</ele>
        <time>2013-03-09T07:43:55.000Z</time>
      </trkpt>
      <trkpt lat="47.31304" lon="4.95388">
        <ele>415</ele>
        <time>2013-03-09T07:43:56.000Z</time>
      </trkpt>
      <trkpt lat="47.31303" lon="4.95382">
        <ele>415</ele>
        <time>2013-03-09T07:44:05.000Z</time>
      </trkpt>
      <trkpt lat="47.31302" lon="4.95381">
        <ele>415</ele>
        <time>2013-03-09T07:44:06.000Z</time>
      </trkpt>
      <trkpt lat="47.31302" lon="4.95375">
        <ele>414</ele>
        <time>2013-03-09T07:44:10.000Z</time>
      </trkpt>
      <trkpt lat="47.31301" lon="4.95373">
        <ele>414</ele>
        <time>2013-03-09T07:44:11.000Z</time>
      </trkpt>
      <trkpt lat="47.313" lon="4.95368">
        <ele>414</ele>
        <time>2013-03-09T07:44:13.000Z</time>
      </trkpt>
      <trkpt lat="47.313" lon="4.95366">
        <ele>414</ele>
        <time>2013-03-09T07:44:14.000Z</time>
      </trkpt>
      <trkpt lat="47.31299" lon="4.95361">
        <ele>414</ele>
        <time>2013-03-09T07:44:16.000Z</time>
      </trkpt>
      <trkpt lat="47.31298" lon="4.95359">
        <ele>414</ele>
        <time>2013-03-09T07:44:17.000Z</time>
      </trkpt>
      <trkpt lat="47.31296" lon="4.95354">
        <ele>414</ele>
        <time>2013-03-09T07:44:19.000Z</time>
      </trkpt>
      <trkpt lat="47.31295" lon="4.95352">
        <ele>414</ele>
        <time>2013-03-09T07:44:20.000Z</time>
      </trkpt>
      <trkpt lat="47.31294" lon="4.95346">
        <ele>414</ele>
        <time>2013-03-09T07:44:23.000Z</time>
      </trkpt>
      <trkpt lat="47.31293" lon="4.95344">
        <ele>414</ele>
        <time>2013-03-09T07:44:24.000Z</time>
      </trkpt>
      <trkpt lat="47.31293" lon="4.95339">
        <ele>414</ele>
        <time>2013-03-09T07:44:27.000Z</time>
      </trkpt>
      <trkpt lat="47.31293" lon="4.95337">
        <ele>414</ele>
        <time>2013-03-09T07:44:28.000Z</time>
      </trkpt>
      <trkpt lat="47.31292" lon="4.95331">
        <ele>414</ele>
        <time>2013-03-09T07:44:31.000Z</time>
      </trkpt>
      <trkpt lat="47.31292" lon="4.95328">
        <ele>414</ele>
        <time>2013-03-09T07:44:32.000Z</time>
      </trkpt>
      <trkpt lat="47.3129" lon="4.95323">
        <ele>414</ele>
        <time>2013-03-09T07:44:34.000Z</time>
      </trkpt>
      <trkpt lat="47.3129" lon="4.95321">
        <ele>414</ele>
        <time>2013-03-09T07:44:35.000Z</time>
      </trkpt>
      <trkpt lat="47.3129" lon="4.95316">
        <ele>414</ele>
        <time>2013-03-09T07:44:37.000Z</time>
      </trkpt>
      <trkpt lat="47.3129" lon="4.95314">
        <ele>414</ele>
        <time>2013-03-09T07:44:38.000Z</time>
      </trkpt>
      <trkpt lat="47.31291" lon="4.95309">
        <ele>414</ele>
        <time>2013-03-09T07:44:40.000Z</time>
      </trkpt>
      <trkpt lat="47.31291" lon="4.95286">
        <ele>414</ele>
        <time>2013-03-09T07:44:47.000Z</time>
      </trkpt>
      <trkpt lat="47.31289" lon="4.95282">
        <ele>414</ele>
        <time>2013-03-09T07:44:50.000Z</time>
      </trkpt>
      <trkpt lat="47.31288" lon="4.9528">
        <ele>414</ele>
        <time>2013-03-09T07:44:51.000Z</time>
      </trkpt>
      <trkpt lat="47.31288" lon="4.95274">
        <ele>414</ele>
        <time>2013-03-09T07:44:55.000Z</time>
      </trkpt>
      <trkpt lat="47.31288" lon="4.95271">
        <ele>414</ele>
        <time>2013-03-09T07:44:56.000Z</time>
      </trkpt>
      <trkpt lat="47.31289" lon="4.95266">
        <ele>414</ele>
        <time>2013-03-09T07:44:59.000Z</time>
      </trkpt>
      <trkpt lat="47.31289" lon="4.95264">
        <ele>414</ele>
        <time>2013-03-09T07:45:00.000Z</time>
      </trkpt>
      <trkpt lat="47.31288" lon="4.95259">
        <ele>414</ele>
        <time>2013-03-09T07:45:04.000Z</time>
      </trkpt>
      <trkpt lat="47.31287" lon="4.95256">
        <ele>414</ele>
        <time>2013-03-09T07:45:05.000Z</time>
      </trkpt>
      <trkpt lat="47.31286" lon="4.95252">
        <ele>414</ele>
        <time>2013-03-09T07:45:07.000Z</time>
      </trkpt>
      <trkpt lat="47.31286" lon="4.9525">
        <ele>415</ele>
        <time>2013-03-09T07:45:08.000Z</time>
      </trkpt>
      <trkpt lat="47.31284" lon="4.95246">
        <ele>415</ele>
        <time>2013-03-09T07:45:10.000Z</time>
      </trkpt>
      <trkpt lat="47.31284" lon="4.95243">
        <ele>415</ele>
        <time>2013-03-09T07:45:11.000Z</time>
      </trkpt>
      <trkpt lat="47.31283" lon="4.95238">
        <ele>415</ele>
        <time>2013-03-09T07:45:13.000Z</time>
      </trkpt>
      <trkpt lat="47.31282" lon="4.95235">
        <ele>415</ele>
        <time>2013-03-09T07:45:14.000Z</time>
      </trkpt>
      <trkpt lat="47.31282" lon="4.9523">
        <ele>415</ele>
        <time>2013-03-09T07:45:16.000Z</time>
      </trkpt>
      <trkpt lat="47.31281" lon="4.95227">
        <ele>415</ele>
        <time>2013-03-09T07:45:17.000Z</time>
      </trkpt>
      <trkpt lat="47.3128" lon="4.95223">
        <ele>415</ele>
        <time>2013-03-09T07:45:19.000Z</time>
      </trkpt>
      <trkpt lat="47.3128" lon="4.95221">
        <ele>415</ele>
        <time>2013-03-09T07:45:20.000Z</time>
      </trkpt>
      <trkpt lat="47.31279" lon="4.95214">
        <ele>415</ele>
        <time>2013-03-09T07:45:23.000Z</time>
      </trkpt>
      <trkpt lat="47.31278" lon="4.95213">
        <ele>415</ele>
        <time>2013-03-09T07:45:24.000Z</time>
      </trkpt>
      <trkpt lat="47.31278" lon="4.95208">
        <ele>415</ele>
        <time>2013-03-09T07:45:26.000Z</time>
      </trkpt>
      <trkpt lat="47.31277" lon="4.95205">
        <ele>415</ele>
        <time>2013-03-09T07:45:27.000Z</time>
      </trkpt>
      <trkpt lat="47.31277" lon="4.952">
        <ele>415</ele>
        <time>2013-03-09T07:45:29.000Z</time>
      </trkpt>
      <trkpt lat="47.31277" lon="4.95197">
        <ele>415</ele>
        <time>2013-03-09T07:45:30.000Z</time>
      </trkpt>
      <trkpt lat="47.31276" lon="4.95193">
        <ele>415</ele>
        <time>2013-03-09T07:45:32.000Z</time>
      </trkpt>
      <trkpt lat="47.31275" lon="4.9519">
        <ele>415</ele>
        <time>2013-03-09T07:45:33.000Z</time>
      </trkpt>
      <trkpt lat="47.31274" lon="4.95185">
        <ele>415</ele>
        <time>2013-03-09T07:45:35.000Z</time>
      </trkpt>
      <trkpt lat="47.31274" lon="4.95183">
        <ele>415</ele>
        <time>2013-03-09T07:45:36.000Z</time>
      </trkpt>
      <trkpt lat="47.31273" lon="4.95176">
        <ele>415</ele>
        <time>2013-03-09T07:45:39.000Z</time>
      </trkpt>
      <trkpt lat="47.31273" lon="4.95174">
        <ele>415</ele>
        <time>2013-03-09T07:45:40.000Z</time>
      </trkpt>
      <trkpt lat="47.31268" lon="4.95149">
        <ele>415</ele>
        <time>2013-03-09T07:45:48.000Z</time>
      </trkpt>
      <trkpt lat="47.31268" lon="4.95144">
        <ele>416</ele>
        <time>2013-03-09T07:45:50.000Z</time>
      </trkpt>
      <trkpt lat="47.31268" lon="4.95141">
        <ele>416</ele>
        <time>2013-03-09T07:45:51.000Z</time>
      </trkpt>
      <trkpt lat="47.31267" lon="4.95136">
        <ele>416</ele>
        <time>2013-03-09T07:45:53.000Z</time>
      </trkpt>
      <trkpt lat="47.31267" lon="4.95133">
        <ele>416</ele>
        <time>2013-03-09T07:45:54.000Z</time>
      </trkpt>
      <trkpt lat="47.31266" lon="4.95128">
        <ele>416</ele>
        <time>2013-03-09T07:45:58.000Z</time>
      </trkpt>
      <trkpt lat="47.31265" lon="4.95126">
        <ele>416</ele>
        <time>2013-03-09T07:45:59.000Z</time>
      </trkpt>
      <trkpt lat="47.31264" lon="4.95121">
        <ele>416</ele>
        <time>2013-03-09T07:46:01.000Z</time>
      </trkpt>
      <trkpt lat="47.31264" lon="4.95119">
        <ele>416</ele>
        <time>2013-03-09T07:46:02.000Z</time>
      </trkpt>
      <trkpt lat="47.31262" lon="4.95113">
        <ele>416</ele>
        <time>2013-03-09T07:46:05.000Z</time>
      </trkpt>
      <trkpt lat="47.31262" lon="4.95111">
        <ele>416</ele>
        <time>2013-03-09T07:46:06.000Z</time>
      </trkpt>
      <trkpt lat="47.31261" lon="4.95106">
        <ele>416</ele>
        <time>2013-03-09T07:46:10.000Z</time>
      </trkpt>
      <trkpt lat="47.3126" lon="4.95104">
        <ele>416</ele>
        <time>2013-03-09T07:46:11.000Z</time>
      </trkpt>
      <trkpt lat="47.31259" lon="4.95099">
        <ele>416</ele>
        <time>2013-03-09T07:46:13.000Z</time>
      </trkpt>
      <trkpt lat="47.31258" lon="4.95096">
        <ele>416</ele>
        <time>2013-03-09T07:46:14.000Z</time>
      </trkpt>
      <trkpt lat="47.31256" lon="4.95091">
        <ele>415</ele>
        <time>2013-03-09T07:46:16.000Z</time>
      </trkpt>
      <trkpt lat="47.31255" lon="4.95089">
        <ele>415</ele>
        <time>2013-03-09T07:46:17.000Z</time>
      </trkpt>
      <trkpt lat="47.31253" lon="4.95084">
        <ele>415</ele>
        <time>2013-03-09T07:46:19.000Z</time>
      </trkpt>
      <trkpt lat="47.31253" lon="4.95082">
        <ele>415</ele>
        <time>2013-03-09T07:46:20.000Z</time>
      </trkpt>
      <trkpt lat="47.31251" lon="4.95078">
        <ele>416</ele>
        <time>2013-03-09T07:46:22.000Z</time>
      </trkpt>
      <trkpt lat="47.3125" lon="4.95075">
        <ele>416</ele>
        <time>2013-03-09T07:46:23.000Z</time>
      </trkpt>
      <trkpt lat="47.31249" lon="4.95071">
        <ele>416</ele>
        <time>2013-03-09T07:46:25.000Z</time>
      </trkpt>
      <trkpt lat="47.31249" lon="4.95068">
        <ele>416</ele>
        <time>2013-03-09T07:46:26.000Z</time>
      </trkpt>
      <trkpt lat="47.31247" lon="4.95065">
        <ele>417</ele>
        <time>2013-03-09T07:46:28.000Z</time>
      </trkpt>
      <trkpt lat="47.31246" lon="4.95062">
        <ele>417</ele>
        <time>2013-03-09T07:46:29.000Z</time>
      </trkpt>
      <trkpt lat="47.31245" lon="4.95058">
        <ele>417</ele>
        <time>2013-03-09T07:46:31.000Z</time>
      </trkpt>
      <trkpt lat="47.31244" lon="4.95055">
        <ele>417</ele>
        <time>2013-03-09T07:46:32.000Z</time>
      </trkpt>
      <trkpt lat="47.31242" lon="4.95051">
        <ele>417</ele>
        <time>2013-03-09T07:46:34.000Z</time>
      </trkpt>
      <trkpt lat="47.31241" lon="4.95048">
        <ele>417</ele>
        <time>2013-03-09T07:46:35.000Z</time>
      </trkpt>
      <trkpt lat="47.3124" lon="4.95044">
        <ele>418</ele>
        <time>2013-03-09T07:46:37.000Z</time>
      </trkpt>
      <trkpt lat="47.31239" lon="4.95042">
        <ele>418</ele>
        <time>2013-03-09T07:46:38.000Z</time>
      </trkpt>
      <trkpt lat="47.31238" lon="4.95037">
        <ele>418</ele>
        <time>2013-03-09T07:46:40.000Z</time>
      </trkpt>
      <trkpt lat="47.31232" lon="4.95021">
        <ele>418</ele>
        <time>2013-03-09T07:46:48.000Z</time>
      </trkpt>
      <trkpt lat="47.31232" lon="4.95016">
        <ele>418</ele>
        <time>2013-03-09T07:46:51.000Z</time>
      </trkpt>
      <trkpt lat="47.31232" lon="4.95014">
        <ele>418</ele>
        <time>2013-03-09T07:46:52.000Z</time>
      </trkpt>
      <trkpt lat="47.31231" lon="4.95008">
        <ele>418</ele>
        <time>2013-03-09T07:46:55.000Z</time>
      </trkpt>
      <trkpt lat="47.3123" lon="4.95005">
        <ele>418</ele>
        <time>2013-03-09T07:46:56.000Z</time>
      </trkpt>
      <trkpt lat="47.31228" lon="4.95001">
        <ele>418</ele>
        <time>2013-03-09T07:46:58.000Z</time>
      </trkpt>
      <trkpt lat="47.31226" lon="4.95">
        <ele>419</ele>
        <time>2013-03-09T07:46:59.000Z</time>
      </trkpt>
      <trkpt lat="47.31223" lon="4.94998">
        <ele>419</ele>
        <time>2013-03-09T07:47:01.000Z</time>
      </trkpt>
      <trkpt lat="47.31222" lon="4.94997">
        <ele>419</ele>
        <time>2013-03-09T07:47:02.000Z</time>
      </trkpt>
      <trkpt lat="47.31219" lon="4.94995">
        <ele>419</ele>
        <time>2013-03-09T07:47:04.000Z</time>
      </trkpt>
      <trkpt lat="47.31217" lon="4.94994">
        <ele>419</ele>
        <time>2013-03-09T07:47:05.000Z</time>
      </trkpt>
      <trkpt lat="47.31214" lon="4.94991">
        <ele>420</ele>
        <time>2013-03-09T07:47:08.000Z</time>
      </trkpt>
      <trkpt lat="47.31213" lon="4.94989">
        <ele>420</ele>
        <time>2013-03-09T07:47:09.000Z</time>
      </trkpt>
      <trkpt lat="47.3121" lon="4.94986">
        <ele>420</ele>
        <time>2013-03-09T07:47:11.000Z</time>
      </trkpt>
      <trkpt lat="47.31209" lon="4.94985">
        <ele>420</ele>
        <time>2013-03-09T07:47:12.000Z</time>
      </trkpt>
      <trkpt lat="47.31206" lon="4.9498">
        <ele>420</ele>
        <time>2013-03-09T07:47:15.000Z</time>
      </trkpt>
      <trkpt lat="47.31206" lon="4.94979">
        <ele>420</ele>
        <time>2013-03-09T07:47:16.000Z</time>
      </trkpt>
      <trkpt lat="47.31204" lon="4.94975">
        <ele>420</ele>
        <time>2013-03-09T07:47:18.000Z</time>
      </trkpt>
      <trkpt lat="47.31203" lon="4.94974">
        <ele>420</ele>
        <time>2013-03-09T07:47:19.000Z</time>
      </trkpt>
      <trkpt lat="47.312" lon="4.9497">
        <ele>420</ele>
        <time>2013-03-09T07:47:21.000Z</time>
      </trkpt>
      <trkpt lat="47.31199" lon="4.94969">
        <ele>420</ele>
        <time>2013-03-09T07:47:22.000Z</time>
      </trkpt>
      <trkpt lat="47.31196" lon="4.94965">
        <ele>420</ele>
        <time>2013-03-09T07:47:24.000Z</time>
      </trkpt>
      <trkpt lat="47.31195" lon="4.94964">
        <ele>420</ele>
        <time>2013-03-09T07:47:25.000Z</time>
      </trkpt>
      <trkpt lat="47.31192" lon="4.9496">
        <ele>420</ele>
        <time>2013-03-09T07:47:28.000Z</time>
      </trkpt>
      <trkpt lat="47.31191" lon="4.94958">
        <ele>420</ele>
        <time>2013-03-09T07:47:29.000Z</time>
      </trkpt>
      <trkpt lat="47.31189" lon="4.94953">
        <ele>420</ele>
        <time>2013-03-09T07:47:32.000Z</time>
      </trkpt>
      <trkpt lat="47.31188" lon="4.94951">
        <ele>420</ele>
        <time>2013-03-09T07:47:33.000Z</time>
      </trkpt>
      <trkpt lat="47.31184" lon="4.94947">
        <ele>420</ele>
        <time>2013-03-09T07:47:36.000Z</time>
      </trkpt>
      <trkpt lat="47.31183" lon="4.94945">
        <ele>420</ele>
        <time>2013-03-09T07:47:37.000Z</time>
      </trkpt>
      <trkpt lat="47.3118" lon="4.94943">
        <ele>420</ele>
        <time>2013-03-09T07:47:39.000Z</time>
      </trkpt>
      <trkpt lat="47.31179" lon="4.94941">
        <ele>420</ele>
        <time>2013-03-09T07:47:40.000Z</time>
      </trkpt>
      <trkpt lat="47.31175" lon="4.94938">
        <ele>420</ele>
        <time>2013-03-09T07:47:43.000Z</time>
      </trkpt>
      <trkpt lat="47.31174" lon="4.94937">
        <ele>420</ele>
        <time>2013-03-09T07:47:44.000Z</time>
      </trkpt>
      <trkpt lat="47.3117" lon="4.94936">
        <ele>420</ele>
        <time>2013-03-09T07:47:47.000Z</time>
      </trkpt>
      <trkpt lat="47.31168" lon="4.94935">
        <ele>420</ele>
        <time>2013-03-09T07:47:48.000Z</time>
      </trkpt>
      <trkpt lat="47.31164" lon="4.94934">
        <ele>419</ele>
        <time>2013-03-09T07:47:51.000Z</time>
      </trkpt>
      <trkpt lat="47.31162" lon="4.94934">
        <ele>419</ele>
        <time>2013-03-09T07:47:52.000Z</time>
      </trkpt>
      <trkpt lat="47.31158" lon="4.94935">
        <ele>419</ele>
        <time>2013-03-09T07:47:55.000Z</time>
      </trkpt>
      <trkpt lat="47.31157" lon="4.94935">
        <ele>419</ele>
        <time>2013-03-09T07:47:56.000Z</time>
      </trkpt>
      <trkpt lat="47.31153" lon="4.94937">
        <ele>419</ele>
        <time>2013-03-09T07:47:59.000Z</time>
      </trkpt>
      <trkpt lat="47.31151" lon="4.94938">
        <ele>419</ele>
        <time>2013-03-09T07:48:00.000Z</time>
      </trkpt>
      <trkpt lat="47.31148" lon="4.94938">
        <ele>419</ele>
        <time>2013-03-09T07:48:02.000Z</time>
      </trkpt>
      <trkpt lat="47.31147" lon="4.94939">
        <ele>419</ele>
        <time>2013-03-09T07:48:03.000Z</time>
      </trkpt>
      <trkpt lat="47.31143" lon="4.94939">
        <ele>419</ele>
        <time>2013-03-09T07:48:05.000Z</time>
      </trkpt>
      <trkpt lat="47.31141" lon="4.94939">
        <ele>419</ele>
        <time>2013-03-09T07:48:06.000Z</time>
      </trkpt>
      <trkpt lat="47.31138" lon="4.94939">
        <ele>419</ele>
        <time>2013-03-09T07:48:08.000Z</time>
      </trkpt>
      <trkpt lat="47.31136" lon="4.94939">
        <ele>419</ele>
        <time>2013-03-09T07:48:09.000Z</time>
      </trkpt>
      <trkpt lat="47.31133" lon="4.94939">
        <ele>419</ele>
        <time>2013-03-09T07:48:11.000Z</time>
      </trkpt>
      <trkpt lat="47.31131" lon="4.94939">
        <ele>419</ele>
        <time>2013-03-09T07:48:12.000Z</time>
      </trkpt>
      <trkpt lat="47.31128" lon="4.9494">
        <ele>419</ele>
        <time>2013-03-09T07:48:14.000Z</time>
      </trkpt>
      <trkpt lat="47.31127" lon="4.9494">
        <ele>419</ele>
        <time>2013-03-09T07:48:15.000Z</time>
      </trkpt>
      <trkpt lat="47.31123" lon="4.9494">
        <ele>418</ele>
        <time>2013-03-09T07:48:17.000Z</time>
      </trkpt>
      <trkpt lat="47.31122" lon="4.94941">
        <ele>418</ele>
        <time>2013-03-09T07:48:18.000Z</time>
      </trkpt>
      <trkpt lat="47.31117" lon="4.9494">
        <ele>418</ele>
        <time>2013-03-09T07:48:21.000Z</time>
      </trkpt>
      <trkpt lat="47.31116" lon="4.9494">
        <ele>418</ele>
        <time>2013-03-09T07:48:22.000Z</time>
      </trkpt>
      <trkpt lat="47.31112" lon="4.9494">
        <ele>418</ele>
        <time>2013-03-09T07:48:24.000Z</time>
      </trkpt>
      <trkpt lat="47.31111" lon="4.9494">
        <ele>418</ele>
        <time>2013-03-09T07:48:25.000Z</time>
      </trkpt>
      <trkpt lat="47.31108" lon="4.9494">
        <ele>418</ele>
        <time>2013-03-09T07:48:27.000Z</time>
      </trkpt>
      <trkpt lat="47.31106" lon="4.9494">
        <ele>418</ele>
        <time>2013-03-09T07:48:28.000Z</time>
      </trkpt>
      <trkpt lat="47.31103" lon="4.9494">
        <ele>418</ele>
        <time>2013-03-09T07:48:30.000Z</time>
      </trkpt>
      <trkpt lat="47.31101" lon="4.9494">
        <ele>418</ele>
        <time>2013-03-09T07:48:31.000Z</time>
      </trkpt>
      <trkpt lat="47.31097" lon="4.9494">
        <ele>418</ele>
        <time>2013-03-09T07:48:34.000Z</time>
      </trkpt>
      <trkpt lat="47.31095" lon="4.94939">
        <ele>418</ele>
        <time>2013-03-09T07:48:35.000Z</time>
      </trkpt>
      <trkpt lat="47.31092" lon="4.94939">
        <ele>418</ele>
        <time>2013-03-09T07:48:37.000Z</time>
      </trkpt>
      <trkpt lat="47.31091" lon="4.94939">
        <ele>418</ele>
        <time>2013-03-09T07:48:38.000Z</time>
      </trkpt>
      <trkpt lat="47.31088" lon="4.94938">
        <ele>418</ele>
        <time>2013-03-09T07:48:40.000Z</time>
      </trkpt>
      <trkpt lat="47.31086" lon="4.94938">
        <ele>418</ele>
        <time>2013-03-09T07:48:41.000Z</time>
      </trkpt>
      <trkpt lat="47.31074" lon="4.94937">
        <ele>415</ele>
        <time>2013-03-09T07:48:48.000Z</time>
      </trkpt>
      <trkpt lat="47.31071" lon="4.94939">
        <ele>415</ele>
        <time>2013-03-09T07:48:50.000Z</time>
      </trkpt>
      <trkpt lat="47.31069" lon="4.94939">
        <ele>415</ele>
        <time>2013-03-09T07:48:51.000Z</time>
      </trkpt>
      <trkpt lat="47.31065" lon="4.9494">
        <ele>415</ele>
        <time>2013-03-09T07:48:54.000Z</time>
      </trkpt>
      <trkpt lat="47.31064" lon="4.9494">
        <ele>415</ele>
        <time>2013-03-09T07:48:55.000Z</time>
      </trkpt>
      <trkpt lat="47.31061" lon="4.9494">
        <ele>414</ele>
        <time>2013-03-09T07:48:57.000Z</time>
      </trkpt>
      <trkpt lat="47.31059" lon="4.94939">
        <ele>414</ele>
        <time>2013-03-09T07:48:58.000Z</time>
      </trkpt>
      <trkpt lat="47.31056" lon="4.94936">
        <ele>414</ele>
        <time>2013-03-09T07:49:00.000Z</time>
      </trkpt>
      <trkpt lat="47.31055" lon="4.94935">
        <ele>414</ele>
        <time>2013-03-09T07:49:01.000Z</time>
      </trkpt>
      <trkpt lat="47.31052" lon="4.94932">
        <ele>414</ele>
        <time>2013-03-09T07:49:03.000Z</time>
      </trkpt>
      <trkpt lat="47.31051" lon="4.9493">
        <ele>414</ele>
        <time>2013-03-09T07:49:04.000Z</time>
      </trkpt>
      <trkpt lat="47.31048" lon="4.94926">
        <ele>414</ele>
        <time>2013-03-09T07:49:07.000Z</time>
      </trkpt>
      <trkpt lat="47.31047" lon="4.94924">
        <ele>414</ele>
        <time>2013-03-09T07:49:08.000Z</time>
      </trkpt>
      <trkpt lat="47.31046" lon="4.94918">
        <ele>414</ele>
        <time>2013-03-09T07:49:11.000Z</time>
      </trkpt>
      <trkpt lat="47.31046" lon="4.94916">
        <ele>414</ele>
        <time>2013-03-09T07:49:12.000Z</time>
      </trkpt>
      <trkpt lat="47.31045" lon="4.94911">
        <ele>414</ele>
        <time>2013-03-09T07:49:15.000Z</time>
      </trkpt>
      <trkpt lat="47.31045" lon="4.94909">
        <ele>414</ele>
        <time>2013-03-09T07:49:16.000Z</time>
      </trkpt>
      <trkpt lat="47.31044" lon="4.94904">
        <ele>414</ele>
        <time>2013-03-09T07:49:19.000Z</time>
      </trkpt>
      <trkpt lat="47.31044" lon="4.94902">
        <ele>414</ele>
        <time>2013-03-09T07:49:20.000Z</time>
      </trkpt>
      <trkpt lat="47.31043" lon="4.94897">
        <ele>414</ele>
        <time>2013-03-09T07:49:23.000Z</time>
      </trkpt>
      <trkpt lat="47.31042" lon="4.94895">
        <ele>414</ele>
        <time>2013-03-09T07:49:24.000Z</time>
      </trkpt>
      <trkpt lat="47.31042" lon="4.9489">
        <ele>414</ele>
        <time>2013-03-09T07:49:27.000Z</time>
      </trkpt>
      <trkpt lat="47.31043" lon="4.94887">
        <ele>414</ele>
        <time>2013-03-09T07:49:28.000Z</time>
      </trkpt>
      <trkpt lat="47.31043" lon="4.94881">
        <ele>414</ele>
        <time>2013-03-09T07:49:31.000Z</time>
      </trkpt>
      <trkpt lat="47.31043" lon="4.9488">
        <ele>414</ele>
        <time>2013-03-09T07:49:32.000Z</time>
      </trkpt>
      <trkpt lat="47.31043" lon="4.94873">
        <ele>414</ele>
        <time>2013-03-09T07:49:35.000Z</time>
      </trkpt>
      <trkpt lat="47.31043" lon="4.94871">
        <ele>414</ele>
        <time>2013-03-09T07:49:36.000Z</time>
      </trkpt>
      <trkpt lat="47.31044" lon="4.94866">
        <ele>414</ele>
        <time>2013-03-09T07:49:38.000Z</time>
      </trkpt>
      <trkpt lat="47.31044" lon="4.94863">
        <ele>414</ele>
        <time>2013-03-09T07:49:39.000Z</time>
      </trkpt>
      <trkpt lat="47.31044" lon="4.94859">
        <ele>414</ele>
        <time>2013-03-09T07:49:41.000Z</time>
      </trkpt>
      <trkpt lat="47.31045" lon="4.94843">
        <ele>414</ele>
        <time>2013-03-09T07:49:48.000Z</time>
      </trkpt>
      <trkpt lat="47.31044" lon="4.94839">
        <ele>413</ele>
        <time>2013-03-09T07:49:52.000Z</time>
      </trkpt>
      <trkpt lat="47.31043" lon="4.94836">
        <ele>413</ele>
        <time>2013-03-09T07:49:53.000Z</time>
      </trkpt>
      <trkpt lat="47.31041" lon="4.9483">
        <ele>412</ele>
        <time>2013-03-09T07:49:56.000Z</time>
      </trkpt>
      <trkpt lat="47.31041" lon="4.94829">
        <ele>412</ele>
        <time>2013-03-09T07:49:57.000Z</time>
      </trkpt>
      <trkpt lat="47.31041" lon="4.94824">
        <ele>412</ele>
        <time>2013-03-09T07:49:59.000Z</time>
      </trkpt>
      <trkpt lat="47.31041" lon="4.94821">
        <ele>412</ele>
        <time>2013-03-09T07:50:00.000Z</time>
      </trkpt>
      <trkpt lat="47.31042" lon="4.94816">
        <ele>412</ele>
        <time>2013-03-09T07:50:02.000Z</time>
      </trkpt>
      <trkpt lat="47.31041" lon="4.94814">
        <ele>412</ele>
        <time>2013-03-09T07:50:03.000Z</time>
      </trkpt>
      <trkpt lat="47.31042" lon="4.94807">
        <ele>412</ele>
        <time>2013-03-09T07:50:06.000Z</time>
      </trkpt>
      <trkpt lat="47.31042" lon="4.94805">
        <ele>412</ele>
        <time>2013-03-09T07:50:07.000Z</time>
      </trkpt>
      <trkpt lat="47.31043" lon="4.948">
        <ele>412</ele>
        <time>2013-03-09T07:50:09.000Z</time>
      </trkpt>
      <trkpt lat="47.31043" lon="4.94798">
        <ele>412</ele>
        <time>2013-03-09T07:50:10.000Z</time>
      </trkpt>
      <trkpt lat="47.31044" lon="4.94792">
        <ele>412</ele>
        <time>2013-03-09T07:50:14.000Z</time>
      </trkpt>
      <trkpt lat="47.31044" lon="4.9479">
        <ele>412</ele>
        <time>2013-03-09T07:50:15.000Z</time>
      </trkpt>
      <trkpt lat="47.31045" lon="4.94784">
        <ele>412</ele>
        <time>2013-03-09T07:50:18.000Z</time>
      </trkpt>
      <trkpt lat="47.31045" lon="4.94783">
        <ele>412</ele>
        <time>2013-03-09T07:50:19.000Z</time>
      </trkpt>
      <trkpt lat="47.31046" lon="4.94778">
        <ele>412</ele>
        <time>2013-03-09T07:50:21.000Z</time>
      </trkpt>
      <trkpt lat="47.31046" lon="4.94775">
        <ele>412</ele>
        <time>2013-03-09T07:50:22.000Z</time>
      </trkpt>
      <trkpt lat="47.31047" lon="4.94771">
        <ele>412</ele>
        <time>2013-03-09T07:50:24.000Z</time>
      </trkpt>
      <trkpt lat="47.31048" lon="4.94768">
        <ele>413</ele>
        <time>2013-03-09T07:50:25.000Z</time>
      </trkpt>
      <trkpt lat="47.31048" lon="4.94762">
        <ele>413</ele>
        <time>2013-03-09T07:50:28.000Z</time>
      </trkpt>
      <trkpt lat="47.31049" lon="4.9476">
        <ele>413</ele>
        <time>2013-03-09T07:50:29.000Z</time>
      </trkpt>
      <trkpt lat="47.3105" lon="4.94756">
        <ele>413</ele>
        <time>2013-03-09T07:50:31.000Z</time>
      </trkpt>
      <trkpt lat="47.3105" lon="4.94753">
        <ele>413</ele>
        <time>2013-03-09T07:50:32.000Z</time>
      </trkpt>
      <trkpt lat="47.31051" lon="4.94748">
        <ele>412</ele>
        <time>2013-03-09T07:50:34.000Z</time>
      </trkpt>
      <trkpt lat="47.31051" lon="4.94745">
        <ele>412</ele>
        <time>2013-03-09T07:50:35.000Z</time>
      </trkpt>
      <trkpt lat="47.31052" lon="4.9474">
        <ele>412</ele>
        <time>2013-03-09T07:50:37.000Z</time>
      </trkpt>
      <trkpt lat="47.31052" lon="4.94737">
        <ele>412</ele>
        <time>2013-03-09T07:50:38.000Z</time>
      </trkpt>
      <trkpt lat="47.31054" lon="4.94731">
        <ele>412</ele>
        <time>2013-03-09T07:50:40.000Z</time>
      </trkpt>
      <trkpt lat="47.31055" lon="4.94728">
        <ele>412</ele>
        <time>2013-03-09T07:50:41.000Z</time>
      </trkpt>
      <trkpt lat="47.31061" lon="4.94703">
        <ele>412</ele>
        <time>2013-03-09T07:50:48.000Z</time>
      </trkpt>
      <trkpt lat="47.31063" lon="4.94698">
        <ele>412</ele>
        <time>2013-03-09T07:50:50.000Z</time>
      </trkpt>
      <trkpt lat="47.31063" lon="4.94696">
        <ele>412</ele>
        <time>2013-03-09T07:50:51.000Z</time>
      </trkpt>
      <trkpt lat="47.31065" lon="4.9469">
        <ele>412</ele>
        <time>2013-03-09T07:50:55.000Z</time>
      </trkpt>
      <trkpt lat="47.31065" lon="4.94689">
        <ele>412</ele>
        <time>2013-03-09T07:50:56.000Z</time>
      </trkpt>
      <trkpt lat="47.31066" lon="4.94683">
        <ele>413</ele>
        <time>2013-03-09T07:51:01.000Z</time>
      </trkpt>
      <trkpt lat="47.31066" lon="4.94682">
        <ele>413</ele>
        <time>2013-03-09T07:51:02.000Z</time>
      </trkpt>
      <trkpt lat="47.31065" lon="4.94676">
        <ele>413</ele>
        <time>2013-03-09T07:51:08.000Z</time>
      </trkpt>
      <trkpt lat="47.31066" lon="4.94674">
        <ele>413</ele>
        <time>2013-03-09T07:51:09.000Z</time>
      </trkpt>
      <trkpt lat="47.31066" lon="4.94668">
        <ele>413</ele>
        <time>2013-03-09T07:51:12.000Z</time>
      </trkpt>
      <trkpt lat="47.31065" lon="4.94666">
        <ele>413</ele>
        <time>2013-03-09T07:51:13.000Z</time>
      </trkpt>
      <trkpt lat="47.31066" lon="4.9466">
        <ele>413</ele>
        <time>2013-03-09T07:51:16.000Z</time>
      </trkpt>
      <trkpt lat="47.31066" lon="4.94658">
        <ele>413</ele>
        <time>2013-03-09T07:51:17.000Z</time>
      </trkpt>
      <trkpt lat="47.31067" lon="4.94652">
        <ele>413</ele>
        <time>2013-03-09T07:51:20.000Z</time>
      </trkpt>
      <trkpt lat="47.31068" lon="4.9465">
        <ele>413</ele>
        <time>2013-03-09T07:51:21.000Z</time>
      </trkpt>
      <trkpt lat="47.31069" lon="4.94644">
        <ele>413</ele>
        <time>2013-03-09T07:51:24.000Z</time>
      </trkpt>
      <trkpt lat="47.31069" lon="4.94641">
        <ele>413</ele>
        <time>2013-03-09T07:51:25.000Z</time>
      </trkpt>
      <trkpt lat="47.3107" lon="4.94636">
        <ele>413</ele>
        <time>2013-03-09T07:51:27.000Z</time>
      </trkpt>
      <trkpt lat="47.3107" lon="4.94634">
        <ele>413</ele>
        <time>2013-03-09T07:51:28.000Z</time>
      </trkpt>
      <trkpt lat="47.31071" lon="4.94628">
        <ele>413</ele>
        <time>2013-03-09T07:51:32.000Z</time>
      </trkpt>
      <trkpt lat="47.31071" lon="4.94625">
        <ele>413</ele>
        <time>2013-03-09T07:51:33.000Z</time>
      </trkpt>
      <trkpt lat="47.31071" lon="4.9462">
        <ele>413</ele>
        <time>2013-03-09T07:51:36.000Z</time>
      </trkpt>
      <trkpt lat="47.31071" lon="4.94619">
        <ele>413</ele>
        <time>2013-03-09T07:51:37.000Z</time>
      </trkpt>
      <trkpt lat="47.31069" lon="4.94613">
        <ele>413</ele>
        <time>2013-03-09T07:51:40.000Z</time>
      </trkpt>
      <trkpt lat="47.31069" lon="4.94611">
        <ele>413</ele>
        <time>2013-03-09T07:51:41.000Z</time>
      </trkpt>
      <trkpt lat="47.31066" lon="4.94588">
        <ele>413</ele>
        <time>2013-03-09T07:51:47.000Z</time>
      </trkpt>
      <trkpt lat="47.31068" lon="4.94582">
        <ele>415</ele>
        <time>2013-03-09T07:51:48.000Z</time>
      </trkpt>
      <trkpt lat="47.31069" lon="4.9458">
        <ele>415</ele>
        <time>2013-03-09T07:51:49.000Z</time>
      </trkpt>
      <trkpt lat="47.31069" lon="4.94575">
        <ele>415</ele>
        <time>2013-03-09T07:51:51.000Z</time>
      </trkpt>
      <trkpt lat="47.31069" lon="4.94573">
        <ele>415</ele>
        <time>2013-03-09T07:51:52.000Z</time>
      </trkpt>
      <trkpt lat="47.31069" lon="4.94567">
        <ele>415</ele>
        <time>2013-03-09T07:51:56.000Z</time>
      </trkpt>
      <trkpt lat="47.31069" lon="4.94565">
        <ele>415</ele>
        <time>2013-03-09T07:51:57.000Z</time>
      </trkpt>
      <trkpt lat="47.31071" lon="4.94559">
        <ele>415</ele>
        <time>2013-03-09T07:52:00.000Z</time>
      </trkpt>
      <trkpt lat="47.31071" lon="4.94557">
        <ele>415</ele>
        <time>2013-03-09T07:52:01.000Z</time>
      </trkpt>
      <trkpt lat="47.31072" lon="4.94553">
        <ele>415</ele>
        <time>2013-03-09T07:52:03.000Z</time>
      </trkpt>
      <trkpt lat="47.31072" lon="4.9455">
        <ele>415</ele>
        <time>2013-03-09T07:52:04.000Z</time>
      </trkpt>
      <trkpt lat="47.31073" lon="4.94545">
        <ele>415</ele>
        <time>2013-03-09T07:52:06.000Z</time>
      </trkpt>
      <trkpt lat="47.31074" lon="4.94543">
        <ele>415</ele>
        <time>2013-03-09T07:52:07.000Z</time>
      </trkpt>
      <trkpt lat="47.31075" lon="4.94539">
        <ele>416</ele>
        <time>2013-03-09T07:52:09.000Z</time>
      </trkpt>
      <trkpt lat="47.31076" lon="4.94536">
        <ele>416</ele>
        <time>2013-03-09T07:52:10.000Z</time>
      </trkpt>
      <trkpt lat="47.31078" lon="4.94531">
        <ele>416</ele>
        <time>2013-03-09T07:52:13.000Z</time>
      </trkpt>
      <trkpt lat="47.31078" lon="4.9453">
        <ele>416</ele>
        <time>2013-03-09T07:52:14.000Z</time>
      </trkpt>
      <trkpt lat="47.31079" lon="4.94524">
        <ele>416</ele>
        <time>2013-03-09T07:52:20.000Z</time>
      </trkpt>
      <trkpt lat="47.31079" lon="4.94523">
        <ele>416</ele>
        <time>2013-03-09T07:52:21.000Z</time>
      </trkpt>
      <trkpt lat="47.3108" lon="4.94517">
        <ele>416</ele>
        <time>2013-03-09T07:52:25.000Z</time>
      </trkpt>
      <trkpt lat="47.3108" lon="4.94515">
        <ele>416</ele>
        <time>2013-03-09T07:52:26.000Z</time>
      </trkpt>
      <trkpt lat="47.31081" lon="4.94509">
        <ele>416</ele>
        <time>2013-03-09T07:52:30.000Z</time>
      </trkpt>
      <trkpt lat="47.31081" lon="4.94508">
        <ele>416</ele>
        <time>2013-03-09T07:52:31.000Z</time>
      </trkpt>
      <trkpt lat="47.31079" lon="4.94502">
        <ele>416</ele>
        <time>2013-03-09T07:52:34.000Z</time>
      </trkpt>
      <trkpt lat="47.31079" lon="4.945">
        <ele>416</ele>
        <time>2013-03-09T07:52:35.000Z</time>
      </trkpt>
      <trkpt lat="47.31078" lon="4.94494">
        <ele>417</ele>
        <time>2013-03-09T07:52:37.000Z</time>
      </trkpt>
      <trkpt lat="47.31077" lon="4.94492">
        <ele>417</ele>
        <time>2013-03-09T07:52:38.000Z</time>
      </trkpt>
      <trkpt lat="47.31076" lon="4.94488">
        <ele>417</ele>
        <time>2013-03-09T07:52:39.000Z</time>
      </trkpt>
      <trkpt lat="47.31076" lon="4.94485">
        <ele>417</ele>
        <time>2013-03-09T07:52:40.000Z</time>
      </trkpt>
      <trkpt lat="47.31075" lon="4.94481">
        <ele>417</ele>
        <time>2013-03-09T07:52:41.000Z</time>
      </trkpt>
      <trkpt lat="47.31066" lon="4.94461">
        <ele>418</ele>
        <time>2013-03-09T07:52:48.000Z</time>
      </trkpt>
      <trkpt lat="47.31066" lon="4.94456">
        <ele>418</ele>
        <time>2013-03-09T07:52:51.000Z</time>
      </trkpt>
      <trkpt lat="47.31065" lon="4.94454">
        <ele>418</ele>
        <time>2013-03-09T07:52:52.000Z</time>
      </trkpt>
      <trkpt lat="47.31061" lon="4.94452">
        <ele>418</ele>
        <time>2013-03-09T07:52:56.000Z</time>
      </trkpt>
      <trkpt lat="47.3106" lon="4.94452">
        <ele>418</ele>
        <time>2013-03-09T07:52:57.000Z</time>
      </trkpt>
      <trkpt lat="47.31057" lon="4.94448">
        <ele>418</ele>
        <time>2013-03-09T07:53:00.000Z</time>
      </trkpt>
      <trkpt lat="47.31057" lon="4.94447">
        <ele>418</ele>
        <time>2013-03-09T07:53:01.000Z</time>
      </trkpt>
      <trkpt lat="47.31055" lon="4.94442">
        <ele>419</ele>
        <time>2013-03-09T07:53:04.000Z</time>
      </trkpt>
      <trkpt lat="47.31053" lon="4.94439">
        <ele>419</ele>
        <time>2013-03-09T07:53:05.000Z</time>
      </trkpt>
      <trkpt lat="47.31051" lon="4.94434">
        <ele>419</ele>
        <time>2013-03-09T07:53:08.000Z</time>
      </trkpt>
      <trkpt lat="47.3105" lon="4.94432">
        <ele>419</ele>
        <time>2013-03-09T07:53:09.000Z</time>
      </trkpt>
      <trkpt lat="47.31048" lon="4.94427">
        <ele>419</ele>
        <time>2013-03-09T07:53:11.000Z</time>
      </trkpt>
      <trkpt lat="47.31047" lon="4.94424">
        <ele>419</ele>
        <time>2013-03-09T07:53:12.000Z</time>
      </trkpt>
      <trkpt lat="47.31045" lon="4.94419">
        <ele>419</ele>
        <time>2013-03-09T07:53:14.000Z</time>
      </trkpt>
      <trkpt lat="47.31045" lon="4.94417">
        <ele>419</ele>
        <time>2013-03-09T07:53:15.000Z</time>
      </trkpt>
      <trkpt lat="47.31043" lon="4.94413">
        <ele>419</ele>
        <time>2013-03-09T07:53:17.000Z</time>
      </trkpt>
      <trkpt lat="47.31043" lon="4.9441">
        <ele>419</ele>
        <time>2013-03-09T07:53:18.000Z</time>
      </trkpt>
      <trkpt lat="47.31041" lon="4.94406">
        <ele>420</ele>
        <time>2013-03-09T07:53:20.000Z</time>
      </trkpt>
      <trkpt lat="47.3104" lon="4.94403">
        <ele>420</ele>
        <time>2013-03-09T07:53:21.000Z</time>
      </trkpt>
      <trkpt lat="47.31039" lon="4.94399">
        <ele>420</ele>
        <time>2013-03-09T07:53:23.000Z</time>
      </trkpt>
      <trkpt lat="47.31039" lon="4.94396">
        <ele>420</ele>
        <time>2013-03-09T07:53:24.000Z</time>
      </trkpt>
      <trkpt lat="47.31038" lon="4.94391">
        <ele>420</ele>
        <time>2013-03-09T07:53:26.000Z</time>
      </trkpt>
      <trkpt lat="47.31037" lon="4.94389">
        <ele>420</ele>
        <time>2013-03-09T07:53:27.000Z</time>
      </trkpt>
      <trkpt lat="47.31035" lon="4.94383">
        <ele>420</ele>
        <time>2013-03-09T07:53:30.000Z</time>
      </trkpt>
      <trkpt lat="47.31035" lon="4.94381">
        <ele>420</ele>
        <time>2013-03-09T07:53:31.000Z</time>
      </trkpt>
      <trkpt lat="47.31033" lon="4.94376">
        <ele>420</ele>
        <time>2013-03-09T07:53:33.000Z</time>
      </trkpt>
      <trkpt lat="47.31033" lon="4.94374">
        <ele>420</ele>
        <time>2013-03-09T07:53:34.000Z</time>
      </trkpt>
      <trkpt lat="47.31032" lon="4.9437">
        <ele>420</ele>
        <time>2013-03-09T07:53:36.000Z</time>
      </trkpt>
      <trkpt lat="47.31031" lon="4.94368">
        <ele>420</ele>
        <time>2013-03-09T07:53:37.000Z</time>
      </trkpt>
      <trkpt lat="47.31029" lon="4.94364">
        <ele>420</ele>
        <time>2013-03-09T07:53:39.000Z</time>
      </trkpt>
      <trkpt lat="47.31028" lon="4.94362">
        <ele>420</ele>
        <time>2013-03-09T07:53:40.000Z</time>
      </trkpt>
      <trkpt lat="47.31028" lon="4.9436">
        <ele>420</ele>
        <time>2013-03-09T07:53:41.000Z</time>
      </trkpt>
      <trkpt lat="47.31022" lon="4.94349">
        <ele>420</ele>
        <time>2013-03-09T07:53:48.000Z</time>
      </trkpt>
      <trkpt lat="47.31021" lon="4.94344">
        <ele>420</ele>
        <time>2013-03-09T07:53:51.000Z</time>
      </trkpt>
      <trkpt lat="47.31021" lon="4.94341">
        <ele>420</ele>
        <time>2013-03-09T07:53:52.000Z</time>
      </trkpt>
      <trkpt lat="47.31019" lon="4.94336">
        <ele>420</ele>
        <time>2013-03-09T07:53:55.000Z</time>
      </trkpt>
      <trkpt lat="47.31018" lon="4.94335">
        <ele>420</ele>
        <time>2013-03-09T07:53:56.000Z</time>
      </trkpt>
      <trkpt lat="47.31017" lon="4.9433">
        <ele>421</ele>
        <time>2013-03-09T07:54:00.000Z</time>
      </trkpt>
      <trkpt lat="47.31016" lon="4.94328">
        <ele>421</ele>
        <time>2013-03-09T07:54:01.000Z</time>
      </trkpt>
      <trkpt lat="47.31015" lon="4.94325">
        <ele>421</ele>
        <time>2013-03-09T07:54:03.000Z</time>
      </trkpt>
      <trkpt lat="47.31014" lon="4.94322">
        <ele>421</ele>
        <time>2013-03-09T07:54:04.000Z</time>
      </trkpt>
      <trkpt lat="47.31012" lon="4.94319">
        <ele>421</ele>
        <time>2013-03-09T07:54:06.000Z</time>
      </trkpt>
      <trkpt lat="47.31011" lon="4.94317">
        <ele>421</ele>
        <time>2013-03-09T07:54:07.000Z</time>
      </trkpt>
      <trkpt lat="47.31009" lon="4.94313">
        <ele>421</ele>
        <time>2013-03-09T07:54:09.000Z</time>
      </trkpt>
      <trkpt lat="47.31007" lon="4.94311">
        <ele>421</ele>
        <time>2013-03-09T07:54:10.000Z</time>
      </trkpt>
      <trkpt lat="47.31004" lon="4.94307">
        <ele>421</ele>
        <time>2013-03-09T07:54:14.000Z</time>
      </trkpt>
      <trkpt lat="47.31003" lon="4.94306">
        <ele>421</ele>
        <time>2013-03-09T07:54:15.000Z</time>
      </trkpt>
      <trkpt lat="47.31" lon="4.94305">
        <ele>422</ele>
        <time>2013-03-09T07:54:19.000Z</time>
      </trkpt>
      <trkpt lat="47.30999" lon="4.94305">
        <ele>422</ele>
        <time>2013-03-09T07:54:20.000Z</time>
      </trkpt>
      <trkpt lat="47.30996" lon="4.94307">
        <ele>422</ele>
        <time>2013-03-09T07:54:24.000Z</time>
      </trkpt>
      <trkpt lat="47.30995" lon="4.94308">
        <ele>422</ele>
        <time>2013-03-09T07:54:25.000Z</time>
      </trkpt>
      <trkpt lat="47.30993" lon="4.94314">
        <ele>421</ele>
        <time>2013-03-09T07:54:30.000Z</time>
      </trkpt>
      <trkpt lat="47.30993" lon="4.94315">
        <ele>421</ele>
        <time>2013-03-09T07:54:31.000Z</time>
      </trkpt>
      <trkpt lat="47.3099" lon="4.94318">
        <ele>421</ele>
        <time>2013-03-09T07:54:34.000Z</time>
      </trkpt>
      <trkpt lat="47.30989" lon="4.94318">
        <ele>421</ele>
        <time>2013-03-09T07:54:35.000Z</time>
      </trkpt>
      <trkpt lat="47.30984" lon="4.9432">
        <ele>421</ele>
        <time>2013-03-09T07:54:38.000Z</time>
      </trkpt>
      <trkpt lat="47.30983" lon="4.94321">
        <ele>421</ele>
        <time>2013-03-09T07:54:39.000Z</time>
      </trkpt>
      <trkpt lat="47.3098" lon="4.9432">
        <ele>422</ele>
        <time>2013-03-09T07:54:41.000Z</time>
      </trkpt>
      <trkpt lat="47.30966" lon="4.94326">
        <ele>422</ele>
        <time>2013-03-09T07:54:48.000Z</time>
      </trkpt>
      <trkpt lat="47.30962" lon="4.94326">
        <ele>422</ele>
        <time>2013-03-09T07:54:51.000Z</time>
      </trkpt>
      <trkpt lat="47.3096" lon="4.94327">
        <ele>422</ele>
        <time>2013-03-09T07:54:52.000Z</time>
      </trkpt>
      <trkpt lat="47.30955" lon="4.94326">
        <ele>422</ele>
        <time>2013-03-09T07:54:55.000Z</time>
      </trkpt>
      <trkpt lat="47.30954" lon="4.94326">
        <ele>422</ele>
        <time>2013-03-09T07:54:56.000Z</time>
      </trkpt>
      <trkpt lat="47.3095" lon="4.94326">
        <ele>422</ele>
        <time>2013-03-09T07:55:41.000Z</time>
      </trkpt>
      <trkpt lat="47.30946" lon="4.94326">
        <ele>422</ele>
        <time>2013-03-09T07:55:48.000Z</time>
      </trkpt>
      <trkpt lat="47.30947" lon="4.94323">
        <ele>422</ele>
        <time>2013-03-09T07:57:18.000Z</time>
      </trkpt>
      <trkpt lat="47.30948" lon="4.9432">
        <ele>422</ele>
        <time>2013-03-09T07:57:19.000Z</time>
      </trkpt>
      <trkpt lat="47.30949" lon="4.94319">
        <ele>422</ele>
        <time>2013-03-09T07:57:41.000Z</time>
      </trkpt>
      <trkpt lat="47.30953" lon="4.94327">
        <ele>422</ele>
        <time>2013-03-09T07:57:48.000Z</time>
      </trkpt>
      <trkpt lat="47.30955" lon="4.94327">
        <ele>422</ele>
        <time>2013-03-09T07:58:41.000Z</time>
      </trkpt>
      <trkpt lat="47.30948" lon="4.94327">
        <ele>422</ele>
        <time>2013-03-09T07:58:48.000Z</time>
      </trkpt>
      <trkpt lat="47.30948" lon="4.94327">
        <ele>422</ele>
        <time>2013-03-09T07:59:41.000Z</time>
      </trkpt>
      <trkpt lat="47.30943" lon="4.94321">
        <ele>422</ele>
        <time>2013-03-09T07:59:48.000Z</time>
      </trkpt>
      <trkpt lat="47.30943" lon="4.94321">
        <ele>422</ele>
        <time>2013-03-09T08:01:36.000Z</time>
      </trkpt>
      <trkpt lat="47.30948" lon="4.94326">
        <ele>422</ele>
        <time>2013-03-09T08:01:37.000Z</time>
      </trkpt>
      <trkpt lat="47.30949" lon="4.94321">
        <ele>422</ele>
        <time>2013-03-09T08:01:41.000Z</time>
      </trkpt>
      <trkpt lat="47.30956" lon="4.94313">
        <ele>422</ele>
        <time>2013-03-09T08:01:48.000Z</time>
      </trkpt>
      <trkpt lat="47.3096" lon="4.94314">
        <ele>422</ele>
        <time>2013-03-09T08:01:51.000Z</time>
      </trkpt>
      <trkpt lat="47.30961" lon="4.94315">
        <ele>422</ele>
        <time>2013-03-09T08:01:52.000Z</time>
      </trkpt>
      <trkpt lat="47.30964" lon="4.94317">
        <ele>422</ele>
        <time>2013-03-09T08:01:55.000Z</time>
      </trkpt>
      <trkpt lat="47.30965" lon="4.94317">
        <ele>422</ele>
        <time>2013-03-09T08:01:56.000Z</time>
      </trkpt>
      <trkpt lat="47.30967" lon="4.94322">
        <ele>422</ele>
        <time>2013-03-09T08:02:00.000Z</time>
      </trkpt>
      <trkpt lat="47.30969" lon="4.94324">
        <ele>422</ele>
        <time>2013-03-09T08:02:01.000Z</time>
      </trkpt>
      <trkpt lat="47.3097" lon="4.94329">
        <ele>422</ele>
        <time>2013-03-09T08:02:04.000Z</time>
      </trkpt>
      <trkpt lat="47.30971" lon="4.9433">
        <ele>422</ele>
        <time>2013-03-09T08:02:05.000Z</time>
      </trkpt>
      <trkpt lat="47.30974" lon="4.94333">
        <ele>422</ele>
        <time>2013-03-09T08:02:09.000Z</time>
      </trkpt>
      <trkpt lat="47.30976" lon="4.94333">
        <ele>421</ele>
        <time>2013-03-09T08:02:10.000Z</time>
      </trkpt>
      <trkpt lat="47.30979" lon="4.94335">
        <ele>421</ele>
        <time>2013-03-09T08:02:13.000Z</time>
      </trkpt>
      <trkpt lat="47.3098" lon="4.94337">
        <ele>421</ele>
        <time>2013-03-09T08:02:14.000Z</time>
      </trkpt>
      <trkpt lat="47.30982" lon="4.94342">
        <ele>421</ele>
        <time>2013-03-09T08:02:17.000Z</time>
      </trkpt>
      <trkpt lat="47.30983" lon="4.94344">
        <ele>421</ele>
        <time>2013-03-09T08:02:18.000Z</time>
      </trkpt>
      <trkpt lat="47.30985" lon="4.9435">
        <ele>421</ele>
        <time>2013-03-09T08:02:20.000Z</time>
      </trkpt>
      <trkpt lat="47.30985" lon="4.94353">
        <ele>421</ele>
        <time>2013-03-09T08:02:21.000Z</time>
      </trkpt>
      <trkpt lat="47.30985" lon="4.94358">
        <ele>421</ele>
        <time>2013-03-09T08:02:23.000Z</time>
      </trkpt>
      <trkpt lat="47.30985" lon="4.9436">
        <ele>421</ele>
        <time>2013-03-09T08:02:24.000Z</time>
      </trkpt>
      <trkpt lat="47.30985" lon="4.94366">
        <ele>421</ele>
        <time>2013-03-09T08:02:27.000Z</time>
      </trkpt>
      <trkpt lat="47.30984" lon="4.94368">
        <ele>421</ele>
        <time>2013-03-09T08:02:28.000Z</time>
      </trkpt>
      <trkpt lat="47.30983" lon="4.94373">
        <ele>421</ele>
        <time>2013-03-09T08:02:30.000Z</time>
      </trkpt>
      <trkpt lat="47.30983" lon="4.94375">
        <ele>421</ele>
        <time>2013-03-09T08:02:31.000Z</time>
      </trkpt>
      <trkpt lat="47.3098" lon="4.9438">
        <ele>421</ele>
        <time>2013-03-09T08:02:34.000Z</time>
      </trkpt>
      <trkpt lat="47.30979" lon="4.94382">
        <ele>421</ele>
        <time>2013-03-09T08:02:35.000Z</time>
      </trkpt>
      <trkpt lat="47.30977" lon="4.94386">
        <ele>421</ele>
        <time>2013-03-09T08:02:38.000Z</time>
      </trkpt>
      <trkpt lat="47.30976" lon="4.94388">
        <ele>421</ele>
        <time>2013-03-09T08:02:39.000Z</time>
      </trkpt>
      <trkpt lat="47.30974" lon="4.94392">
        <ele>421</ele>
        <time>2013-03-09T08:02:41.000Z</time>
      </trkpt>
      <trkpt lat="47.30967" lon="4.94402">
        <ele>421</ele>
        <time>2013-03-09T08:02:48.000Z</time>
      </trkpt>
      <trkpt lat="47.30966" lon="4.94407">
        <ele>421</ele>
        <time>2013-03-09T08:02:50.000Z</time>
      </trkpt>
      <trkpt lat="47.30966" lon="4.9441">
        <ele>421</ele>
        <time>2013-03-09T08:02:51.000Z</time>
      </trkpt>
      <trkpt lat="47.30966" lon="4.94416">
        <ele>421</ele>
        <time>2013-03-09T08:02:53.000Z</time>
      </trkpt>
      <trkpt lat="47.30966" lon="4.94419">
        <ele>422</ele>
        <time>2013-03-09T08:02:54.000Z</time>
      </trkpt>
      <trkpt lat="47.30965" lon="4.94424">
        <ele>422</ele>
        <time>2013-03-09T08:02:57.000Z</time>
      </trkpt>
      <trkpt lat="47.30964" lon="4.94427">
        <ele>422</ele>
        <time>2013-03-09T08:02:58.000Z</time>
      </trkpt>
      <trkpt lat="47.30963" lon="4.94431">
        <ele>422</ele>
        <time>2013-03-09T08:03:00.000Z</time>
      </trkpt>
      <trkpt lat="47.30962" lon="4.94433">
        <ele>422</ele>
        <time>2013-03-09T08:03:01.000Z</time>
      </trkpt>
      <trkpt lat="47.30962" lon="4.94437">
        <ele>422</ele>
        <time>2013-03-09T08:03:03.000Z</time>
      </trkpt>
      <trkpt lat="47.30961" lon="4.9444">
        <ele>422</ele>
        <time>2013-03-09T08:03:04.000Z</time>
      </trkpt>
      <trkpt lat="47.3096" lon="4.94446">
        <ele>422</ele>
        <time>2013-03-09T08:03:06.000Z</time>
      </trkpt>
      <trkpt lat="47.30959" lon="4.94448">
        <ele>422</ele>
        <time>2013-03-09T08:03:07.000Z</time>
      </trkpt>
      <trkpt lat="47.30958" lon="4.94453">
        <ele>422</ele>
        <time>2013-03-09T08:03:09.000Z</time>
      </trkpt>
      <trkpt lat="47.30957" lon="4.94456">
        <ele>422</ele>
        <time>2013-03-09T08:03:10.000Z</time>
      </trkpt>
      <trkpt lat="47.30954" lon="4.94459">
        <ele>422</ele>
        <time>2013-03-09T08:03:13.000Z</time>
      </trkpt>
      <trkpt lat="47.30953" lon="4.94461">
        <ele>422</ele>
        <time>2013-03-09T08:03:14.000Z</time>
      </trkpt>
      <trkpt lat="47.3095" lon="4.94463">
        <ele>423</ele>
        <time>2013-03-09T08:03:17.000Z</time>
      </trkpt>
      <trkpt lat="47.30949" lon="4.94464">
        <ele>423</ele>
        <time>2013-03-09T08:03:18.000Z</time>
      </trkpt>
      <trkpt lat="47.30945" lon="4.94467">
        <ele>423</ele>
        <time>2013-03-09T08:03:22.000Z</time>
      </trkpt>
      <trkpt lat="47.30944" lon="4.94469">
        <ele>423</ele>
        <time>2013-03-09T08:03:23.000Z</time>
      </trkpt>
      <trkpt lat="47.30941" lon="4.94473">
        <ele>423</ele>
        <time>2013-03-09T08:03:26.000Z</time>
      </trkpt>
      <trkpt lat="47.3094" lon="4.94475">
        <ele>423</ele>
        <time>2013-03-09T08:03:27.000Z</time>
      </trkpt>
      <trkpt lat="47.30936" lon="4.94477">
        <ele>423</ele>
        <time>2013-03-09T08:03:30.000Z</time>
      </trkpt>
      <trkpt lat="47.30934" lon="4.94477">
        <ele>423</ele>
        <time>2013-03-09T08:03:31.000Z</time>
      </trkpt>
      <trkpt lat="47.30933" lon="4.94479">
        <ele>423</ele>
        <time>2013-03-09T08:03:32.000Z</time>
      </trkpt>
      <trkpt lat="47.3093" lon="4.9448">
        <ele>423</ele>
        <time>2013-03-09T08:03:33.000Z</time>
      </trkpt>
      <trkpt lat="47.30925" lon="4.9448">
        <ele>424</ele>
        <time>2013-03-09T08:03:35.000Z</time>
      </trkpt>
      <trkpt lat="47.30923" lon="4.94481">
        <ele>424</ele>
        <time>2013-03-09T08:03:36.000Z</time>
      </trkpt>
      <trkpt lat="47.3092" lon="4.94482">
        <ele>424</ele>
        <time>2013-03-09T08:03:38.000Z</time>
      </trkpt>
      <trkpt lat="47.30918" lon="4.94482">
        <ele>424</ele>
        <time>2013-03-09T08:03:39.000Z</time>
      </trkpt>
      <trkpt lat="47.30915" lon="4.9448">
        <ele>425</ele>
        <time>2013-03-09T08:03:41.000Z</time>
      </trkpt>
      <trkpt lat="47.30905" lon="4.9447">
        <ele>425</ele>
        <time>2013-03-09T08:03:47.000Z</time>
      </trkpt>
      <trkpt lat="47.30902" lon="4.94468">
        <ele>425</ele>
        <time>2013-03-09T08:03:49.000Z</time>
      </trkpt>
      <trkpt lat="47.30901" lon="4.94467">
        <ele>425</ele>
        <time>2013-03-09T08:03:50.000Z</time>
      </trkpt>
      <trkpt lat="47.30896" lon="4.94466">
        <ele>425</ele>
        <time>2013-03-09T08:03:54.000Z</time>
      </trkpt>
      <trkpt lat="47.30896" lon="4.94467">
        <ele>425</ele>
        <time>2013-03-09T08:03:55.000Z</time>
      </trkpt>
      <trkpt lat="47.30892" lon="4.94467">
        <ele>425</ele>
        <time>2013-03-09T08:04:00.000Z</time>
      </trkpt>
      <trkpt lat="47.30891" lon="4.94467">
        <ele>425</ele>
        <time>2013-03-09T08:04:01.000Z</time>
      </trkpt>
      <trkpt lat="47.30887" lon="4.94468">
        <ele>425</ele>
        <time>2013-03-09T08:04:06.000Z</time>
      </trkpt>
      <trkpt lat="47.30885" lon="4.94468">
        <ele>425</ele>
        <time>2013-03-09T08:04:07.000Z</time>
      </trkpt>
      <trkpt lat="47.30882" lon="4.94469">
        <ele>424</ele>
        <time>2013-03-09T08:04:09.000Z</time>
      </trkpt>
      <trkpt lat="47.30879" lon="4.94469">
        <ele>424</ele>
        <time>2013-03-09T08:04:10.000Z</time>
      </trkpt>
      <trkpt lat="47.30877" lon="4.94469">
        <ele>424</ele>
        <time>2013-03-09T08:04:11.000Z</time>
      </trkpt>
      <trkpt lat="47.30875" lon="4.94469">
        <ele>424</ele>
        <time>2013-03-09T08:04:12.000Z</time>
      </trkpt>
      <trkpt lat="47.30871" lon="4.94469">
        <ele>424</ele>
        <time>2013-03-09T08:04:14.000Z</time>
      </trkpt>
      <trkpt lat="47.30868" lon="4.94469">
        <ele>424</ele>
        <time>2013-03-09T08:04:15.000Z</time>
      </trkpt>
      <trkpt lat="47.30864" lon="4.94468">
        <ele>424</ele>
        <time>2013-03-09T08:04:17.000Z</time>
      </trkpt>
      <trkpt lat="47.30863" lon="4.94468">
        <ele>424</ele>
        <time>2013-03-09T08:04:18.000Z</time>
      </trkpt>
      <trkpt lat="47.30859" lon="4.94467">
        <ele>424</ele>
        <time>2013-03-09T08:04:20.000Z</time>
      </trkpt>
      <trkpt lat="47.30857" lon="4.94466">
        <ele>424</ele>
        <time>2013-03-09T08:04:21.000Z</time>
      </trkpt>
      <trkpt lat="47.30854" lon="4.94464">
        <ele>424</ele>
        <time>2013-03-09T08:04:23.000Z</time>
      </trkpt>
      <trkpt lat="47.30852" lon="4.94463">
        <ele>424</ele>
        <time>2013-03-09T08:04:24.000Z</time>
      </trkpt>
      <trkpt lat="47.30848" lon="4.94461">
        <ele>424</ele>
        <time>2013-03-09T08:04:26.000Z</time>
      </trkpt>
      <trkpt lat="47.30847" lon="4.9446">
        <ele>424</ele>
        <time>2013-03-09T08:04:27.000Z</time>
      </trkpt>
      <trkpt lat="47.30844" lon="4.94457">
        <ele>424</ele>
        <time>2013-03-09T08:04:29.000Z</time>
      </trkpt>
      <trkpt lat="47.30843" lon="4.94456">
        <ele>424</ele>
        <time>2013-03-09T08:04:30.000Z</time>
      </trkpt>
      <trkpt lat="47.3084" lon="4.94451">
        <ele>424</ele>
        <time>2013-03-09T08:04:34.000Z</time>
      </trkpt>
      <trkpt lat="47.30839" lon="4.9445">
        <ele>424</ele>
        <time>2013-03-09T08:04:35.000Z</time>
      </trkpt>
      <trkpt lat="47.30836" lon="4.94447">
        <ele>424</ele>
        <time>2013-03-09T08:04:37.000Z</time>
      </trkpt>
      <trkpt lat="47.30834" lon="4.94447">
        <ele>424</ele>
        <time>2013-03-09T08:04:38.000Z</time>
      </trkpt>
      <trkpt lat="47.30831" lon="4.94446">
        <ele>426</ele>
        <time>2013-03-09T08:04:40.000Z</time>
      </trkpt>
      <trkpt lat="47.30829" lon="4.94445">
        <ele>426</ele>
        <time>2013-03-09T08:04:41.000Z</time>
      </trkpt>
      <trkpt lat="47.30813" lon="4.94436">
        <ele>427</ele>
        <time>2013-03-09T08:04:48.000Z</time>
      </trkpt>
      <trkpt lat="47.30811" lon="4.94431">
        <ele>427</ele>
        <time>2013-03-09T08:04:51.000Z</time>
      </trkpt>
      <trkpt lat="47.3081" lon="4.94429">
        <ele>427</ele>
        <time>2013-03-09T08:04:52.000Z</time>
      </trkpt>
      <trkpt lat="47.30808" lon="4.94425">
        <ele>427</ele>
        <time>2013-03-09T08:04:55.000Z</time>
      </trkpt>
      <trkpt lat="47.30808" lon="4.94422">
        <ele>427</ele>
        <time>2013-03-09T08:04:56.000Z</time>
      </trkpt>
      <trkpt lat="47.30805" lon="4.9442">
        <ele>427</ele>
        <time>2013-03-09T08:04:58.000Z</time>
      </trkpt>
      <trkpt lat="47.30804" lon="4.94418">
        <ele>427</ele>
        <time>2013-03-09T08:04:59.000Z</time>
      </trkpt>
      <trkpt lat="47.30801" lon="4.94416">
        <ele>427</ele>
        <time>2013-03-09T08:05:01.000Z</time>
      </trkpt>
      <trkpt lat="47.30799" lon="4.94415">
        <ele>427</ele>
        <time>2013-03-09T08:05:02.000Z</time>
      </trkpt>
      <trkpt lat="47.30796" lon="4.94411">
        <ele>427</ele>
        <time>2013-03-09T08:05:05.000Z</time>
      </trkpt>
      <trkpt lat="47.30795" lon="4.94409">
        <ele>427</ele>
        <time>2013-03-09T08:05:06.000Z</time>
      </trkpt>
      <trkpt lat="47.30793" lon="4.94407">
        <ele>427</ele>
        <time>2013-03-09T08:05:08.000Z</time>
      </trkpt>
      <trkpt lat="47.30791" lon="4.94405">
        <ele>428</ele>
        <time>2013-03-09T08:05:09.000Z</time>
      </trkpt>
      <trkpt lat="47.30789" lon="4.944">
        <ele>428</ele>
        <time>2013-03-09T08:05:12.000Z</time>
      </trkpt>
      <trkpt lat="47.30788" lon="4.94399">
        <ele>428</ele>
        <time>2013-03-09T08:05:13.000Z</time>
      </trkpt>
      <trkpt lat="47.30784" lon="4.94398">
        <ele>428</ele>
        <time>2013-03-09T08:05:17.000Z</time>
      </trkpt>
      <trkpt lat="47.30783" lon="4.94398">
        <ele>428</ele>
        <time>2013-03-09T08:05:18.000Z</time>
      </trkpt>
      <trkpt lat="47.30779" lon="4.94398">
        <ele>428</ele>
        <time>2013-03-09T08:05:21.000Z</time>
      </trkpt>
      <trkpt lat="47.30778" lon="4.94398">
        <ele>428</ele>
        <time>2013-03-09T08:05:22.000Z</time>
      </trkpt>
      <trkpt lat="47.30774" lon="4.944">
        <ele>428</ele>
        <time>2013-03-09T08:05:26.000Z</time>
      </trkpt>
      <trkpt lat="47.30773" lon="4.94401">
        <ele>428</ele>
        <time>2013-03-09T08:05:27.000Z</time>
      </trkpt>
      <trkpt lat="47.3077" lon="4.94402">
        <ele>428</ele>
        <time>2013-03-09T08:05:29.000Z</time>
      </trkpt>
      <trkpt lat="47.30768" lon="4.94403">
        <ele>428</ele>
        <time>2013-03-09T08:05:30.000Z</time>
      </trkpt>
      <trkpt lat="47.30764" lon="4.94405">
        <ele>429</ele>
        <time>2013-03-09T08:05:33.000Z</time>
      </trkpt>
      <trkpt lat="47.30764" lon="4.94406">
        <ele>429</ele>
        <time>2013-03-09T08:05:34.000Z</time>
      </trkpt>
      <trkpt lat="47.30764" lon="4.94411">
        <ele>429</ele>
        <time>2013-03-09T08:05:37.000Z</time>
      </trkpt>
      <trkpt lat="47.30763" lon="4.94413">
        <ele>429</ele>
        <time>2013-03-09T08:05:38.000Z</time>
      </trkpt>
      <trkpt lat="47.30761" lon="4.94416">
        <ele>429</ele>
        <time>2013-03-09T08:05:41.000Z</time>
      </trkpt>
      <trkpt lat="47.30753" lon="4.94426">
        <ele>429</ele>
        <time>2013-03-09T08:05:48.000Z</time>
      </trkpt>
      <trkpt lat="47.30749" lon="4.94429">
        <ele>431</ele>
        <time>2013-03-09T08:05:52.000Z</time>
      </trkpt>
      <trkpt lat="47.30748" lon="4.9443">
        <ele>431</ele>
        <time>2013-03-09T08:05:53.000Z</time>
      </trkpt>
      <trkpt lat="47.30745" lon="4.94433">
        <ele>431</ele>
        <time>2013-03-09T08:05:55.000Z</time>
      </trkpt>
      <trkpt lat="47.30743" lon="4.94433">
        <ele>431</ele>
        <time>2013-03-09T08:05:56.000Z</time>
      </trkpt>
      <trkpt lat="47.30739" lon="4.94436">
        <ele>432</ele>
        <time>2013-03-09T08:05:59.000Z</time>
      </trkpt>
      <trkpt lat="47.30737" lon="4.94436">
        <ele>432</ele>
        <time>2013-03-09T08:06:00.000Z</time>
      </trkpt>
      <trkpt lat="47.30734" lon="4.94439">
        <ele>432</ele>
        <time>2013-03-09T08:06:02.000Z</time>
      </trkpt>
      <trkpt lat="47.30733" lon="4.94441">
        <ele>432</ele>
        <time>2013-03-09T08:06:03.000Z</time>
      </trkpt>
      <trkpt lat="47.3073" lon="4.94444">
        <ele>432</ele>
        <time>2013-03-09T08:06:06.000Z</time>
      </trkpt>
      <trkpt lat="47.30729" lon="4.94445">
        <ele>432</ele>
        <time>2013-03-09T08:06:07.000Z</time>
      </trkpt>
      <trkpt lat="47.30727" lon="4.9445">
        <ele>432</ele>
        <time>2013-03-09T08:06:10.000Z</time>
      </trkpt>
      <trkpt lat="47.30727" lon="4.94451">
        <ele>432</ele>
        <time>2013-03-09T08:06:11.000Z</time>
      </trkpt>
      <trkpt lat="47.30726" lon="4.94456">
        <ele>432</ele>
        <time>2013-03-09T08:06:14.000Z</time>
      </trkpt>
      <trkpt lat="47.30725" lon="4.94458">
        <ele>432</ele>
        <time>2013-03-09T08:06:15.000Z</time>
      </trkpt>
      <trkpt lat="47.30726" lon="4.94463">
        <ele>433</ele>
        <time>2013-03-09T08:06:19.000Z</time>
      </trkpt>
      <trkpt lat="47.30725" lon="4.94465">
        <ele>433</ele>
        <time>2013-03-09T08:06:20.000Z</time>
      </trkpt>
      <trkpt lat="47.30723" lon="4.9447">
        <ele>433</ele>
        <time>2013-03-09T08:06:23.000Z</time>
      </trkpt>
      <trkpt lat="47.30723" lon="4.94472">
        <ele>433</ele>
        <time>2013-03-09T08:06:24.000Z</time>
      </trkpt>
      <trkpt lat="47.30721" lon="4.94478">
        <ele>433</ele>
        <time>2013-03-09T08:06:27.000Z</time>
      </trkpt>
      <trkpt lat="47.30721" lon="4.94481">
        <ele>433</ele>
        <time>2013-03-09T08:06:28.000Z</time>
      </trkpt>
      <trkpt lat="47.30719" lon="4.94487">
        <ele>433</ele>
        <time>2013-03-09T08:06:31.000Z</time>
      </trkpt>
      <trkpt lat="47.30718" lon="4.94489">
        <ele>433</ele>
        <time>2013-03-09T08:06:32.000Z</time>
      </trkpt>
      <trkpt lat="47.30718" lon="4.94495">
        <ele>433</ele>
        <time>2013-03-09T08:06:35.000Z</time>
      </trkpt>
      <trkpt lat="47.30718" lon="4.94499">
        <ele>433</ele>
        <time>2013-03-09T08:06:36.000Z</time>
      </trkpt>
      <trkpt lat="47.30718" lon="4.94503">
        <ele>434</ele>
        <time>2013-03-09T08:06:37.000Z</time>
      </trkpt>
      <trkpt lat="47.30718" lon="4.94507">
        <ele>434</ele>
        <time>2013-03-09T08:06:38.000Z</time>
      </trkpt>
      <trkpt lat="47.30717" lon="4.94511">
        <ele>434</ele>
        <time>2013-03-09T08:06:39.000Z</time>
      </trkpt>
      <trkpt lat="47.30716" lon="4.94514">
        <ele>434</ele>
        <time>2013-03-09T08:06:40.000Z</time>
      </trkpt>
      <trkpt lat="47.30715" lon="4.94517">
        <ele>434</ele>
        <time>2013-03-09T08:06:41.000Z</time>
      </trkpt>
      <trkpt lat="47.30711" lon="4.94534">
        <ele>434</ele>
        <time>2013-03-09T08:06:48.000Z</time>
      </trkpt>
      <trkpt lat="47.3071" lon="4.94539">
        <ele>434</ele>
        <time>2013-03-09T08:06:50.000Z</time>
      </trkpt>
      <trkpt lat="47.3071" lon="4.94542">
        <ele>434</ele>
        <time>2013-03-09T08:06:51.000Z</time>
      </trkpt>
      <trkpt lat="47.30709" lon="4.94546">
        <ele>434</ele>
        <time>2013-03-09T08:06:53.000Z</time>
      </trkpt>
      <trkpt lat="47.30708" lon="4.94548">
        <ele>434</ele>
        <time>2013-03-09T08:06:54.000Z</time>
      </trkpt>
      <trkpt lat="47.30708" lon="4.94553">
        <ele>434</ele>
        <time>2013-03-09T08:06:56.000Z</time>
      </trkpt>
      <trkpt lat="47.30707" lon="4.94556">
        <ele>434</ele>
        <time>2013-03-09T08:06:57.000Z</time>
      </trkpt>
      <trkpt lat="47.30707" lon="4.94563">
        <ele>434</ele>
        <time>2013-03-09T08:07:00.000Z</time>
      </trkpt>
      <trkpt lat="47.30706" lon="4.94564">
        <ele>434</ele>
        <time>2013-03-09T08:07:01.000Z</time>
      </trkpt>
      <trkpt lat="47.30704" lon="4.94569">
        <ele>434</ele>
        <time>2013-03-09T08:07:03.000Z</time>
      </trkpt>
      <trkpt lat="47.30703" lon="4.94572">
        <ele>434</ele>
        <time>2013-03-09T08:07:04.000Z</time>
      </trkpt>
      <trkpt lat="47.30701" lon="4.94577">
        <ele>434</ele>
        <time>2013-03-09T08:07:06.000Z</time>
      </trkpt>
      <trkpt lat="47.30701" lon="4.94579">
        <ele>434</ele>
        <time>2013-03-09T08:07:07.000Z</time>
      </trkpt>
      <trkpt lat="47.30698" lon="4.94583">
        <ele>434</ele>
        <time>2013-03-09T08:07:09.000Z</time>
      </trkpt>
      <trkpt lat="47.30697" lon="4.94585">
        <ele>434</ele>
        <time>2013-03-09T08:07:10.000Z</time>
      </trkpt>
      <trkpt lat="47.30696" lon="4.9459">
        <ele>434</ele>
        <time>2013-03-09T08:07:12.000Z</time>
      </trkpt>
      <trkpt lat="47.30695" lon="4.94592">
        <ele>434</ele>
        <time>2013-03-09T08:07:13.000Z</time>
      </trkpt>
      <trkpt lat="47.30693" lon="4.94595">
        <ele>434</ele>
        <time>2013-03-09T08:07:16.000Z</time>
      </trkpt>
      <trkpt lat="47.30691" lon="4.94596">
        <ele>434</ele>
        <time>2013-03-09T08:07:17.000Z</time>
      </trkpt>
      <trkpt lat="47.30688" lon="4.946">
        <ele>434</ele>
        <time>2013-03-09T08:07:19.000Z</time>
      </trkpt>
      <trkpt lat="47.30686" lon="4.94601">
        <ele>434</ele>
        <time>2013-03-09T08:07:20.000Z</time>
      </trkpt>
      <trkpt lat="47.30684" lon="4.94605">
        <ele>434</ele>
        <time>2013-03-09T08:07:22.000Z</time>
      </trkpt>
      <trkpt lat="47.30684" lon="4.94607">
        <ele>434</ele>
        <time>2013-03-09T08:07:23.000Z</time>
      </trkpt>
      <trkpt lat="47.30683" lon="4.94611">
        <ele>434</ele>
        <time>2013-03-09T08:07:25.000Z</time>
      </trkpt>
      <trkpt lat="47.30682" lon="4.94614">
        <ele>434</ele>
        <time>2013-03-09T08:07:26.000Z</time>
      </trkpt>
      <trkpt lat="47.3068" lon="4.94619">
        <ele>434</ele>
        <time>2013-03-09T08:07:30.000Z</time>
      </trkpt>
      <trkpt lat="47.3068" lon="4.9462">
        <ele>434</ele>
        <time>2013-03-09T08:07:31.000Z</time>
      </trkpt>
      <trkpt lat="47.30683" lon="4.94624">
        <ele>434</ele>
        <time>2013-03-09T08:07:36.000Z</time>
      </trkpt>
      <trkpt lat="47.30683" lon="4.94626">
        <ele>434</ele>
        <time>2013-03-09T08:07:37.000Z</time>
      </trkpt>
      <trkpt lat="47.30685" lon="4.94629">
        <ele>434</ele>
        <time>2013-03-09T08:07:40.000Z</time>
      </trkpt>
      <trkpt lat="47.30686" lon="4.9463">
        <ele>434</ele>
        <time>2013-03-09T08:07:41.000Z</time>
      </trkpt>
      <trkpt lat="47.3069" lon="4.94631">
        <ele>434</ele>
        <time>2013-03-09T08:07:44.000Z</time>
      </trkpt>
      <trkpt lat="47.30692" lon="4.94632">
        <ele>434</ele>
        <time>2013-03-09T08:07:45.000Z</time>
      </trkpt>
      <trkpt lat="47.30696" lon="4.94632">
        <ele>434</ele>
        <time>2013-03-09T08:07:48.000Z</time>
      </trkpt>
      <trkpt lat="47.30697" lon="4.94632">
        <ele>434</ele>
        <time>2013-03-09T08:07:49.000Z</time>
      </trkpt>
      <trkpt lat="47.30701" lon="4.9463">
        <ele>434</ele>
        <time>2013-03-09T08:07:52.000Z</time>
      </trkpt>
      <trkpt lat="47.30702" lon="4.9463">
        <ele>434</ele>
        <time>2013-03-09T08:07:53.000Z</time>
      </trkpt>
      <trkpt lat="47.30705" lon="4.94635">
        <ele>434</ele>
        <time>2013-03-09T08:07:58.000Z</time>
      </trkpt>
      <trkpt lat="47.30706" lon="4.94637">
        <ele>434</ele>
        <time>2013-03-09T08:07:59.000Z</time>
      </trkpt>
      <trkpt lat="47.30709" lon="4.94641">
        <ele>434</ele>
        <time>2013-03-09T08:08:02.000Z</time>
      </trkpt>
      <trkpt lat="47.3071" lon="4.94644">
        <ele>434</ele>
        <time>2013-03-09T08:08:03.000Z</time>
      </trkpt>
      <trkpt lat="47.30711" lon="4.94648">
        <ele>434</ele>
        <time>2013-03-09T08:08:05.000Z</time>
      </trkpt>
      <trkpt lat="47.30712" lon="4.94651">
        <ele>434</ele>
        <time>2013-03-09T08:08:06.000Z</time>
      </trkpt>
      <trkpt lat="47.30713" lon="4.94656">
        <ele>434</ele>
        <time>2013-03-09T08:08:08.000Z</time>
      </trkpt>
      <trkpt lat="47.30714" lon="4.94658">
        <ele>434</ele>
        <time>2013-03-09T08:08:09.000Z</time>
      </trkpt>
      <trkpt lat="47.30715" lon="4.94664">
        <ele>434</ele>
        <time>2013-03-09T08:08:11.000Z</time>
      </trkpt>
      <trkpt lat="47.30716" lon="4.94666">
        <ele>434</ele>
        <time>2013-03-09T08:08:12.000Z</time>
      </trkpt>
      <trkpt lat="47.30716" lon="4.94672">
        <ele>434</ele>
        <time>2013-03-09T08:08:14.000Z</time>
      </trkpt>
      <trkpt lat="47.30717" lon="4.94674">
        <ele>434</ele>
        <time>2013-03-09T08:08:15.000Z</time>
      </trkpt>
      <trkpt lat="47.30718" lon="4.94679">
        <ele>433</ele>
        <time>2013-03-09T08:08:17.000Z</time>
      </trkpt>
      <trkpt lat="47.30719" lon="4.94682">
        <ele>433</ele>
        <time>2013-03-09T08:08:18.000Z</time>
      </trkpt>
      <trkpt lat="47.30719" lon="4.94687">
        <ele>433</ele>
        <time>2013-03-09T08:08:20.000Z</time>
      </trkpt>
      <trkpt lat="47.3072" lon="4.9469">
        <ele>433</ele>
        <time>2013-03-09T08:08:21.000Z</time>
      </trkpt>
      <trkpt lat="47.3072" lon="4.94696">
        <ele>433</ele>
        <time>2013-03-09T08:08:23.000Z</time>
      </trkpt>
      <trkpt lat="47.30721" lon="4.94698">
        <ele>433</ele>
        <time>2013-03-09T08:08:24.000Z</time>
      </trkpt>
      <trkpt lat="47.30721" lon="4.94704">
        <ele>433</ele>
        <time>2013-03-09T08:08:26.000Z</time>
      </trkpt>
      <trkpt lat="47.3072" lon="4.94706">
        <ele>433</ele>
        <time>2013-03-09T08:08:27.000Z</time>
      </trkpt>
      <trkpt lat="47.30721" lon="4.94712">
        <ele>433</ele>
        <time>2013-03-09T08:08:30.000Z</time>
      </trkpt>
      <trkpt lat="47.30721" lon="4.94714">
        <ele>433</ele>
        <time>2013-03-09T08:08:31.000Z</time>
      </trkpt>
      <trkpt lat="47.30721" lon="4.9472">
        <ele>433</ele>
        <time>2013-03-09T08:08:34.000Z</time>
      </trkpt>
      <trkpt lat="47.30721" lon="4.94722">
        <ele>433</ele>
        <time>2013-03-09T08:08:35.000Z</time>
      </trkpt>
      <trkpt lat="47.30721" lon="4.94727">
        <ele>433</ele>
        <time>2013-03-09T08:08:38.000Z</time>
      </trkpt>
      <trkpt lat="47.30721" lon="4.9473">
        <ele>433</ele>
        <time>2013-03-09T08:08:39.000Z</time>
      </trkpt>
      <trkpt lat="47.30722" lon="4.94734">
        <ele>433</ele>
        <time>2013-03-09T08:08:41.000Z</time>
      </trkpt>
      <trkpt lat="47.30731" lon="4.94752">
        <ele>432</ele>
        <time>2013-03-09T08:08:48.000Z</time>
      </trkpt>
      <trkpt lat="47.30732" lon="4.94754">
        <ele>432</ele>
        <time>2013-03-09T08:08:49.000Z</time>
      </trkpt>
      <trkpt lat="47.30734" lon="4.94758">
        <ele>432</ele>
        <time>2013-03-09T08:08:50.000Z</time>
      </trkpt>
      <trkpt lat="47.30736" lon="4.94764">
        <ele>432</ele>
        <time>2013-03-09T08:08:54.000Z</time>
      </trkpt>
      <trkpt lat="47.30736" lon="4.94765">
        <ele>432</ele>
        <time>2013-03-09T08:08:55.000Z</time>
      </trkpt>
      <trkpt lat="47.30738" lon="4.94769">
        <ele>432</ele>
        <time>2013-03-09T08:08:57.000Z</time>
      </trkpt>
      <trkpt lat="47.30738" lon="4.94773">
        <ele>432</ele>
        <time>2013-03-09T08:08:58.000Z</time>
      </trkpt>
      <trkpt lat="47.30739" lon="4.94778">
        <ele>432</ele>
        <time>2013-03-09T08:09:00.000Z</time>
      </trkpt>
      <trkpt lat="47.30739" lon="4.9478">
        <ele>432</ele>
        <time>2013-03-09T08:09:01.000Z</time>
      </trkpt>
      <trkpt lat="47.30739" lon="4.94785">
        <ele>432</ele>
        <time>2013-03-09T08:09:03.000Z</time>
      </trkpt>
      <trkpt lat="47.3074" lon="4.94788">
        <ele>432</ele>
        <time>2013-03-09T08:09:04.000Z</time>
      </trkpt>
      <trkpt lat="47.3074" lon="4.94792">
        <ele>431</ele>
        <time>2013-03-09T08:09:06.000Z</time>
      </trkpt>
      <trkpt lat="47.3074" lon="4.94797">
        <ele>431</ele>
        <time>2013-03-09T08:09:07.000Z</time>
      </trkpt>
      <trkpt lat="47.30741" lon="4.94802">
        <ele>431</ele>
        <time>2013-03-09T08:09:09.000Z</time>
      </trkpt>
      <trkpt lat="47.30742" lon="4.94804">
        <ele>431</ele>
        <time>2013-03-09T08:09:10.000Z</time>
      </trkpt>
      <trkpt lat="47.30743" lon="4.9481">
        <ele>431</ele>
        <time>2013-03-09T08:09:13.000Z</time>
      </trkpt>
      <trkpt lat="47.30744" lon="4.94812">
        <ele>431</ele>
        <time>2013-03-09T08:09:14.000Z</time>
      </trkpt>
      <trkpt lat="47.30743" lon="4.94818">
        <ele>431</ele>
        <time>2013-03-09T08:09:19.000Z</time>
      </trkpt>
      <trkpt lat="47.30743" lon="4.94819">
        <ele>431</ele>
        <time>2013-03-09T08:09:20.000Z</time>
      </trkpt>
      <trkpt lat="47.30744" lon="4.94823">
        <ele>431</ele>
        <time>2013-03-09T08:09:22.000Z</time>
      </trkpt>
      <trkpt lat="47.30745" lon="4.94826">
        <ele>431</ele>
        <time>2013-03-09T08:09:23.000Z</time>
      </trkpt>
      <trkpt lat="47.30745" lon="4.9483">
        <ele>431</ele>
        <time>2013-03-09T08:09:24.000Z</time>
      </trkpt>
      <trkpt lat="47.30745" lon="4.94834">
        <ele>431</ele>
        <time>2013-03-09T08:09:25.000Z</time>
      </trkpt>
      <trkpt lat="47.30746" lon="4.94838">
        <ele>430</ele>
        <time>2013-03-09T08:09:26.000Z</time>
      </trkpt>
      <trkpt lat="47.30746" lon="4.94842">
        <ele>430</ele>
        <time>2013-03-09T08:09:27.000Z</time>
      </trkpt>
      <trkpt lat="47.30746" lon="4.94848">
        <ele>430</ele>
        <time>2013-03-09T08:09:29.000Z</time>
      </trkpt>
      <trkpt lat="47.30746" lon="4.94851">
        <ele>430</ele>
        <time>2013-03-09T08:09:30.000Z</time>
      </trkpt>
      <trkpt lat="47.30744" lon="4.94855">
        <ele>429</ele>
        <time>2013-03-09T08:09:32.000Z</time>
      </trkpt>
      <trkpt lat="47.30744" lon="4.94858">
        <ele>429</ele>
        <time>2013-03-09T08:09:33.000Z</time>
      </trkpt>
      <trkpt lat="47.30743" lon="4.94862">
        <ele>429</ele>
        <time>2013-03-09T08:09:35.000Z</time>
      </trkpt>
      <trkpt lat="47.30743" lon="4.94865">
        <ele>429</ele>
        <time>2013-03-09T08:09:36.000Z</time>
      </trkpt>
      <trkpt lat="47.30742" lon="4.94868">
        <ele>429</ele>
        <time>2013-03-09T08:09:38.000Z</time>
      </trkpt>
      <trkpt lat="47.30741" lon="4.94871">
        <ele>429</ele>
        <time>2013-03-09T08:09:39.000Z</time>
      </trkpt>
      <trkpt lat="47.30739" lon="4.94876">
        <ele>428</ele>
        <time>2013-03-09T08:09:41.000Z</time>
      </trkpt>
      <trkpt lat="47.30729" lon="4.94901">
        <ele>427</ele>
        <time>2013-03-09T08:09:49.000Z</time>
      </trkpt>
      <trkpt lat="47.30729" lon="4.94907">
        <ele>427</ele>
        <time>2013-03-09T08:09:53.000Z</time>
      </trkpt>
      <trkpt lat="47.30728" lon="4.94909">
        <ele>427</ele>
        <time>2013-03-09T08:09:54.000Z</time>
      </trkpt>
      <trkpt lat="47.30727" lon="4.94915">
        <ele>427</ele>
        <time>2013-03-09T08:09:57.000Z</time>
      </trkpt>
      <trkpt lat="47.30727" lon="4.94917">
        <ele>426</ele>
        <time>2013-03-09T08:09:58.000Z</time>
      </trkpt>
      <trkpt lat="47.30726" lon="4.94923">
        <ele>426</ele>
        <time>2013-03-09T08:10:02.000Z</time>
      </trkpt>
      <trkpt lat="47.30725" lon="4.94924">
        <ele>426</ele>
        <time>2013-03-09T08:10:03.000Z</time>
      </trkpt>
      <trkpt lat="47.30724" lon="4.9493">
        <ele>426</ele>
        <time>2013-03-09T08:10:08.000Z</time>
      </trkpt>
      <trkpt lat="47.30724" lon="4.94932">
        <ele>426</ele>
        <time>2013-03-09T08:10:09.000Z</time>
      </trkpt>
      <trkpt lat="47.30723" lon="4.94936">
        <ele>427</ele>
        <time>2013-03-09T08:10:11.000Z</time>
      </trkpt>
      <trkpt lat="47.30722" lon="4.94938">
        <ele>427</ele>
        <time>2013-03-09T08:10:12.000Z</time>
      </trkpt>
      <trkpt lat="47.3072" lon="4.94942">
        <ele>427</ele>
        <time>2013-03-09T08:10:14.000Z</time>
      </trkpt>
      <trkpt lat="47.30719" lon="4.94945">
        <ele>427</ele>
        <time>2013-03-09T08:10:15.000Z</time>
      </trkpt>
      <trkpt lat="47.30717" lon="4.94949">
        <ele>427</ele>
        <time>2013-03-09T08:10:17.000Z</time>
      </trkpt>
      <trkpt lat="47.30716" lon="4.94951">
        <ele>427</ele>
        <time>2013-03-09T08:10:18.000Z</time>
      </trkpt>
      <trkpt lat="47.30715" lon="4.94956">
        <ele>427</ele>
        <time>2013-03-09T08:10:20.000Z</time>
      </trkpt>
      <trkpt lat="47.30713" lon="4.94958">
        <ele>427</ele>
        <time>2013-03-09T08:10:21.000Z</time>
      </trkpt>
      <trkpt lat="47.3071" lon="4.94962">
        <ele>427</ele>
        <time>2013-03-09T08:10:23.000Z</time>
      </trkpt>
      <trkpt lat="47.30708" lon="4.94963">
        <ele>427</ele>
        <time>2013-03-09T08:10:24.000Z</time>
      </trkpt>
      <trkpt lat="47.30706" lon="4.94966">
        <ele>427</ele>
        <time>2013-03-09T08:10:26.000Z</time>
      </trkpt>
      <trkpt lat="47.30705" lon="4.94968">
        <ele>427</ele>
        <time>2013-03-09T08:10:27.000Z</time>
      </trkpt>
      <trkpt lat="47.30702" lon="4.94972">
        <ele>428</ele>
        <time>2013-03-09T08:10:31.000Z</time>
      </trkpt>
      <trkpt lat="47.30701" lon="4.94974">
        <ele>428</ele>
        <time>2013-03-09T08:10:32.000Z</time>
      </trkpt>
      <trkpt lat="47.30698" lon="4.94977">
        <ele>428</ele>
        <time>2013-03-09T08:10:35.000Z</time>
      </trkpt>
      <trkpt lat="47.30697" lon="4.94978">
        <ele>428</ele>
        <time>2013-03-09T08:10:36.000Z</time>
      </trkpt>
      <trkpt lat="47.30693" lon="4.94978">
        <ele>428</ele>
        <time>2013-03-09T08:10:40.000Z</time>
      </trkpt>
      <trkpt lat="47.30693" lon="4.9498">
        <ele>428</ele>
        <time>2013-03-09T08:10:41.000Z</time>
      </trkpt>
      <trkpt lat="47.3068" lon="4.94994">
        <ele>429</ele>
        <time>2013-03-09T08:10:48.000Z</time>
      </trkpt>
      <trkpt lat="47.3068" lon="4.95">
        <ele>429</ele>
        <time>2013-03-09T08:10:52.000Z</time>
      </trkpt>
      <trkpt lat="47.3068" lon="4.95002">
        <ele>429</ele>
        <time>2013-03-09T08:10:53.000Z</time>
      </trkpt>
      <trkpt lat="47.3068" lon="4.95008">
        <ele>429</ele>
        <time>2013-03-09T08:10:55.000Z</time>
      </trkpt>
      <trkpt lat="47.30679" lon="4.9501">
        <ele>429</ele>
        <time>2013-03-09T08:10:56.000Z</time>
      </trkpt>
      <trkpt lat="47.30678" lon="4.95013">
        <ele>429</ele>
        <time>2013-03-09T08:10:58.000Z</time>
      </trkpt>
      <trkpt lat="47.30678" lon="4.95016">
        <ele>429</ele>
        <time>2013-03-09T08:10:59.000Z</time>
      </trkpt>
      <trkpt lat="47.30676" lon="4.95021">
        <ele>429</ele>
        <time>2013-03-09T08:11:01.000Z</time>
      </trkpt>
      <trkpt lat="47.30674" lon="4.95023">
        <ele>429</ele>
        <time>2013-03-09T08:11:02.000Z</time>
      </trkpt>
      <trkpt lat="47.30672" lon="4.95028">
        <ele>428</ele>
        <time>2013-03-09T08:11:05.000Z</time>
      </trkpt>
      <trkpt lat="47.30672" lon="4.9503">
        <ele>428</ele>
        <time>2013-03-09T08:11:06.000Z</time>
      </trkpt>
      <trkpt lat="47.30671" lon="4.95036">
        <ele>428</ele>
        <time>2013-03-09T08:11:09.000Z</time>
      </trkpt>
      <trkpt lat="47.3067" lon="4.95037">
        <ele>428</ele>
        <time>2013-03-09T08:11:10.000Z</time>
      </trkpt>
      <trkpt lat="47.30668" lon="4.95042">
        <ele>428</ele>
        <time>2013-03-09T08:11:13.000Z</time>
      </trkpt>
      <trkpt lat="47.30667" lon="4.95044">
        <ele>428</ele>
        <time>2013-03-09T08:11:14.000Z</time>
      </trkpt>
      <trkpt lat="47.30665" lon="4.95048">
        <ele>429</ele>
        <time>2013-03-09T08:11:16.000Z</time>
      </trkpt>
      <trkpt lat="47.30664" lon="4.9505">
        <ele>429</ele>
        <time>2013-03-09T08:11:17.000Z</time>
      </trkpt>
      <trkpt lat="47.30662" lon="4.95054">
        <ele>429</ele>
        <time>2013-03-09T08:11:19.000Z</time>
      </trkpt>
      <trkpt lat="47.30661" lon="4.95056">
        <ele>429</ele>
        <time>2013-03-09T08:11:20.000Z</time>
      </trkpt>
      <trkpt lat="47.30658" lon="4.95061">
        <ele>429</ele>
        <time>2013-03-09T08:11:23.000Z</time>
      </trkpt>
      <trkpt lat="47.30658" lon="4.95062">
        <ele>429</ele>
        <time>2013-03-09T08:11:24.000Z</time>
      </trkpt>
      <trkpt lat="47.30656" lon="4.95067">
        <ele>429</ele>
        <time>2013-03-09T08:11:27.000Z</time>
      </trkpt>
      <trkpt lat="47.30654" lon="4.95069">
        <ele>429</ele>
        <time>2013-03-09T08:11:28.000Z</time>
      </trkpt>
      <trkpt lat="47.30652" lon="4.95072">
        <ele>429</ele>
        <time>2013-03-09T08:11:30.000Z</time>
      </trkpt>
      <trkpt lat="47.30651" lon="4.95074">
        <ele>429</ele>
        <time>2013-03-09T08:11:31.000Z</time>
      </trkpt>
      <trkpt lat="47.3065" lon="4.9508">
        <ele>429</ele>
        <time>2013-03-09T08:11:33.000Z</time>
      </trkpt>
      <trkpt lat="47.30649" lon="4.95083">
        <ele>429</ele>
        <time>2013-03-09T08:11:34.000Z</time>
      </trkpt>
      <trkpt lat="47.30647" lon="4.95088">
        <ele>428</ele>
        <time>2013-03-09T08:11:36.000Z</time>
      </trkpt>
      <trkpt lat="47.30646" lon="4.9509">
        <ele>428</ele>
        <time>2013-03-09T08:11:37.000Z</time>
      </trkpt>
      <trkpt lat="47.30645" lon="4.95095">
        <ele>428</ele>
        <time>2013-03-09T08:11:39.000Z</time>
      </trkpt>
      <trkpt lat="47.30644" lon="4.95098">
        <ele>428</ele>
        <time>2013-03-09T08:11:40.000Z</time>
      </trkpt>
      <trkpt lat="47.30643" lon="4.951">
        <ele>428</ele>
        <time>2013-03-09T08:11:41.000Z</time>
      </trkpt>
      <trkpt lat="47.30637" lon="4.95115">
        <ele>428</ele>
        <time>2013-03-09T08:11:48.000Z</time>
      </trkpt>
      <trkpt lat="47.30633" lon="4.95116">
        <ele>428</ele>
        <time>2013-03-09T08:11:50.000Z</time>
      </trkpt>
      <trkpt lat="47.30633" lon="4.95118">
        <ele>428</ele>
        <time>2013-03-09T08:11:51.000Z</time>
      </trkpt>
      <trkpt lat="47.30632" lon="4.95123">
        <ele>428</ele>
        <time>2013-03-09T08:11:53.000Z</time>
      </trkpt>
      <trkpt lat="47.30632" lon="4.95126">
        <ele>428</ele>
        <time>2013-03-09T08:11:54.000Z</time>
      </trkpt>
      <trkpt lat="47.30631" lon="4.95131">
        <ele>428</ele>
        <time>2013-03-09T08:11:56.000Z</time>
      </trkpt>
      <trkpt lat="47.30632" lon="4.95134">
        <ele>428</ele>
        <time>2013-03-09T08:11:57.000Z</time>
      </trkpt>
      <trkpt lat="47.30632" lon="4.9514">
        <ele>428</ele>
        <time>2013-03-09T08:11:59.000Z</time>
      </trkpt>
      <trkpt lat="47.30632" lon="4.95142">
        <ele>428</ele>
        <time>2013-03-09T08:12:00.000Z</time>
      </trkpt>
      <trkpt lat="47.30631" lon="4.95147">
        <ele>428</ele>
        <time>2013-03-09T08:12:02.000Z</time>
      </trkpt>
      <trkpt lat="47.30631" lon="4.95149">
        <ele>428</ele>
        <time>2013-03-09T08:12:03.000Z</time>
      </trkpt>
      <trkpt lat="47.3063" lon="4.95154">
        <ele>428</ele>
        <time>2013-03-09T08:12:05.000Z</time>
      </trkpt>
      <trkpt lat="47.30629" lon="4.95156">
        <ele>428</ele>
        <time>2013-03-09T08:12:06.000Z</time>
      </trkpt>
      <trkpt lat="47.30628" lon="4.95161">
        <ele>428</ele>
        <time>2013-03-09T08:12:08.000Z</time>
      </trkpt>
      <trkpt lat="47.30627" lon="4.95163">
        <ele>428</ele>
        <time>2013-03-09T08:12:09.000Z</time>
      </trkpt>
      <trkpt lat="47.30626" lon="4.95167">
        <ele>427</ele>
        <time>2013-03-09T08:12:11.000Z</time>
      </trkpt>
      <trkpt lat="47.30626" lon="4.95169">
        <ele>427</ele>
        <time>2013-03-09T08:12:12.000Z</time>
      </trkpt>
      <trkpt lat="47.30624" lon="4.95174">
        <ele>427</ele>
        <time>2013-03-09T08:12:14.000Z</time>
      </trkpt>
      <trkpt lat="47.30623" lon="4.95176">
        <ele>427</ele>
        <time>2013-03-09T08:12:15.000Z</time>
      </trkpt>
      <trkpt lat="47.30621" lon="4.95181">
        <ele>427</ele>
        <time>2013-03-09T08:12:18.000Z</time>
      </trkpt>
      <trkpt lat="47.30619" lon="4.95183">
        <ele>427</ele>
        <time>2013-03-09T08:12:19.000Z</time>
      </trkpt>
      <trkpt lat="47.30615" lon="4.95186">
        <ele>427</ele>
        <time>2013-03-09T08:12:22.000Z</time>
      </trkpt>
      <trkpt lat="47.30614" lon="4.95187">
        <ele>427</ele>
        <time>2013-03-09T08:12:23.000Z</time>
      </trkpt>
      <trkpt lat="47.3061" lon="4.95191">
        <ele>427</ele>
        <time>2013-03-09T08:12:25.000Z</time>
      </trkpt>
      <trkpt lat="47.30609" lon="4.95193">
        <ele>427</ele>
        <time>2013-03-09T08:12:26.000Z</time>
      </trkpt>
      <trkpt lat="47.30607" lon="4.95196">
        <ele>427</ele>
        <time>2013-03-09T08:12:28.000Z</time>
      </trkpt>
      <trkpt lat="47.30606" lon="4.95198">
        <ele>427</ele>
        <time>2013-03-09T08:12:29.000Z</time>
      </trkpt>
      <trkpt lat="47.30604" lon="4.95202">
        <ele>427</ele>
        <time>2013-03-09T08:12:31.000Z</time>
      </trkpt>
      <trkpt lat="47.30603" lon="4.95203">
        <ele>427</ele>
        <time>2013-03-09T08:12:32.000Z</time>
      </trkpt>
      <trkpt lat="47.30602" lon="4.95208">
        <ele>427</ele>
        <time>2013-03-09T08:12:34.000Z</time>
      </trkpt>
      <trkpt lat="47.30601" lon="4.9521">
        <ele>427</ele>
        <time>2013-03-09T08:12:35.000Z</time>
      </trkpt>
      <trkpt lat="47.30601" lon="4.95215">
        <ele>427</ele>
        <time>2013-03-09T08:12:37.000Z</time>
      </trkpt>
      <trkpt lat="47.306" lon="4.95217">
        <ele>427</ele>
        <time>2013-03-09T08:12:38.000Z</time>
      </trkpt>
      <trkpt lat="47.30599" lon="4.95222">
        <ele>427</ele>
        <time>2013-03-09T08:12:40.000Z</time>
      </trkpt>
      <trkpt lat="47.30598" lon="4.95224">
        <ele>427</ele>
        <time>2013-03-09T08:12:41.000Z</time>
      </trkpt>
      <trkpt lat="47.30592" lon="4.95238">
        <ele>427</ele>
        <time>2013-03-09T08:12:48.000Z</time>
      </trkpt>
      <trkpt lat="47.3059" lon="4.95243">
        <ele>426</ele>
        <time>2013-03-09T08:12:50.000Z</time>
      </trkpt>
      <trkpt lat="47.30589" lon="4.95244">
        <ele>426</ele>
        <time>2013-03-09T08:12:51.000Z</time>
      </trkpt>
      <trkpt lat="47.30585" lon="4.95245">
        <ele>426</ele>
        <time>2013-03-09T08:12:58.000Z</time>
      </trkpt>
      <trkpt lat="47.30584" lon="4.95245">
        <ele>426</ele>
        <time>2013-03-09T08:12:59.000Z</time>
      </trkpt>
      <trkpt lat="47.30581" lon="4.95245">
        <ele>426</ele>
        <time>2013-03-09T08:13:01.000Z</time>
      </trkpt>
      <trkpt lat="47.30579" lon="4.95245">
        <ele>426</ele>
        <time>2013-03-09T08:13:02.000Z</time>
      </trkpt>
      <trkpt lat="47.30575" lon="4.95245">
        <ele>426</ele>
        <time>2013-03-09T08:13:05.000Z</time>
      </trkpt>
      <trkpt lat="47.30573" lon="4.95244">
        <ele>426</ele>
        <time>2013-03-09T08:13:06.000Z</time>
      </trkpt>
      <trkpt lat="47.3057" lon="4.95244">
        <ele>426</ele>
        <time>2013-03-09T08:13:08.000Z</time>
      </trkpt>
      <trkpt lat="47.30568" lon="4.95243">
        <ele>426</ele>
        <time>2013-03-09T08:13:09.000Z</time>
      </trkpt>
      <trkpt lat="47.30565" lon="4.95243">
        <ele>426</ele>
        <time>2013-03-09T08:13:11.000Z</time>
      </trkpt>
      <trkpt lat="47.30564" lon="4.95243">
        <ele>426</ele>
        <time>2013-03-09T08:13:12.000Z</time>
      </trkpt>
      <trkpt lat="47.3056" lon="4.95243">
        <ele>426</ele>
        <time>2013-03-09T08:13:14.000Z</time>
      </trkpt>
      <trkpt lat="47.30559" lon="4.95242">
        <ele>426</ele>
        <time>2013-03-09T08:13:15.000Z</time>
      </trkpt>
      <trkpt lat="47.30556" lon="4.95241">
        <ele>426</ele>
        <time>2013-03-09T08:13:17.000Z</time>
      </trkpt>
      <trkpt lat="47.30554" lon="4.9524">
        <ele>426</ele>
        <time>2013-03-09T08:13:18.000Z</time>
      </trkpt>
      <trkpt lat="47.30551" lon="4.95239">
        <ele>426</ele>
        <time>2013-03-09T08:13:20.000Z</time>
      </trkpt>
      <trkpt lat="47.30549" lon="4.95239">
        <ele>426</ele>
        <time>2013-03-09T08:13:21.000Z</time>
      </trkpt>
      <trkpt lat="47.30546" lon="4.95237">
        <ele>426</ele>
        <time>2013-03-09T08:13:23.000Z</time>
      </trkpt>
      <trkpt lat="47.30545" lon="4.95236">
        <ele>426</ele>
        <time>2013-03-09T08:13:24.000Z</time>
      </trkpt>
      <trkpt lat="47.3054" lon="4.95234">
        <ele>426</ele>
        <time>2013-03-09T08:13:27.000Z</time>
      </trkpt>
      <trkpt lat="47.30539" lon="4.95233">
        <ele>426</ele>
        <time>2013-03-09T08:13:28.000Z</time>
      </trkpt>
      <trkpt lat="47.30535" lon="4.9523">
        <ele>426</ele>
        <time>2013-03-09T08:13:31.000Z</time>
      </trkpt>
      <trkpt lat="47.30534" lon="4.95229">
        <ele>426</ele>
        <time>2013-03-09T08:13:32.000Z</time>
      </trkpt>
      <trkpt lat="47.3053" lon="4.95227">
        <ele>426</ele>
        <time>2013-03-09T08:13:35.000Z</time>
      </trkpt>
      <trkpt lat="47.30529" lon="4.95226">
        <ele>426</ele>
        <time>2013-03-09T08:13:36.000Z</time>
      </trkpt>
      <trkpt lat="47.30526" lon="4.95223">
        <ele>426</ele>
        <time>2013-03-09T08:13:38.000Z</time>
      </trkpt>
      <trkpt lat="47.30525" lon="4.95222">
        <ele>426</ele>
        <time>2013-03-09T08:13:39.000Z</time>
      </trkpt>
      <trkpt lat="47.30522" lon="4.9522">
        <ele>426</ele>
        <time>2013-03-09T08:13:41.000Z</time>
      </trkpt>
      <trkpt lat="47.30511" lon="4.95214">
        <ele>426</ele>
        <time>2013-03-09T08:13:48.000Z</time>
      </trkpt>
      <trkpt lat="47.30508" lon="4.9521">
        <ele>426</ele>
        <time>2013-03-09T08:13:50.000Z</time>
      </trkpt>
      <trkpt lat="47.30507" lon="4.95209">
        <ele>426</ele>
        <time>2013-03-09T08:13:51.000Z</time>
      </trkpt>
      <trkpt lat="47.30504" lon="4.95207">
        <ele>426</ele>
        <time>2013-03-09T08:13:53.000Z</time>
      </trkpt>
      <trkpt lat="47.30502" lon="4.95205">
        <ele>426</ele>
        <time>2013-03-09T08:13:54.000Z</time>
      </trkpt>
      <trkpt lat="47.30499" lon="4.95202">
        <ele>425</ele>
        <time>2013-03-09T08:13:56.000Z</time>
      </trkpt>
      <trkpt lat="47.30498" lon="4.95202">
        <ele>425</ele>
        <time>2013-03-09T08:13:57.000Z</time>
      </trkpt>
      <trkpt lat="47.30495" lon="4.95198">
        <ele>425</ele>
        <time>2013-03-09T08:13:59.000Z</time>
      </trkpt>
      <trkpt lat="47.30494" lon="4.95197">
        <ele>425</ele>
        <time>2013-03-09T08:14:00.000Z</time>
      </trkpt>
      <trkpt lat="47.30491" lon="4.95195">
        <ele>425</ele>
        <time>2013-03-09T08:14:02.000Z</time>
      </trkpt>
      <trkpt lat="47.30489" lon="4.95194">
        <ele>425</ele>
        <time>2013-03-09T08:14:03.000Z</time>
      </trkpt>
      <trkpt lat="47.30486" lon="4.95191">
        <ele>425</ele>
        <time>2013-03-09T08:14:06.000Z</time>
      </trkpt>
      <trkpt lat="47.30484" lon="4.95189">
        <ele>425</ele>
        <time>2013-03-09T08:14:07.000Z</time>
      </trkpt>
      <trkpt lat="47.30482" lon="4.95185">
        <ele>425</ele>
        <time>2013-03-09T08:14:09.000Z</time>
      </trkpt>
      <trkpt lat="47.3048" lon="4.95185">
        <ele>425</ele>
        <time>2013-03-09T08:14:10.000Z</time>
      </trkpt>
      <trkpt lat="47.30477" lon="4.95182">
        <ele>425</ele>
        <time>2013-03-09T08:14:12.000Z</time>
      </trkpt>
      <trkpt lat="47.30476" lon="4.9518">
        <ele>425</ele>
        <time>2013-03-09T08:14:13.000Z</time>
      </trkpt>
      <trkpt lat="47.30473" lon="4.95177">
        <ele>425</ele>
        <time>2013-03-09T08:14:15.000Z</time>
      </trkpt>
      <trkpt lat="47.30472" lon="4.95175">
        <ele>425</ele>
        <time>2013-03-09T08:14:16.000Z</time>
      </trkpt>
      <trkpt lat="47.30469" lon="4.95172">
        <ele>425</ele>
        <time>2013-03-09T08:14:18.000Z</time>
      </trkpt>
      <trkpt lat="47.30468" lon="4.9517">
        <ele>425</ele>
        <time>2013-03-09T08:14:19.000Z</time>
      </trkpt>
      <trkpt lat="47.30466" lon="4.95167">
        <ele>425</ele>
        <time>2013-03-09T08:14:23.000Z</time>
      </trkpt>
      <trkpt lat="47.30464" lon="4.95165">
        <ele>427</ele>
        <time>2013-03-09T08:14:24.000Z</time>
      </trkpt>
      <trkpt lat="47.30462" lon="4.95162">
        <ele>427</ele>
        <time>2013-03-09T08:14:26.000Z</time>
      </trkpt>
      <trkpt lat="47.3046" lon="4.9516">
        <ele>427</ele>
        <time>2013-03-09T08:14:27.000Z</time>
      </trkpt>
      <trkpt lat="47.30457" lon="4.95156">
        <ele>427</ele>
        <time>2013-03-09T08:14:29.000Z</time>
      </trkpt>
      <trkpt lat="47.30455" lon="4.95154">
        <ele>427</ele>
        <time>2013-03-09T08:14:30.000Z</time>
      </trkpt>
      <trkpt lat="47.30452" lon="4.9515">
        <ele>427</ele>
        <time>2013-03-09T08:14:32.000Z</time>
      </trkpt>
      <trkpt lat="47.3045" lon="4.95148">
        <ele>427</ele>
        <time>2013-03-09T08:14:33.000Z</time>
      </trkpt>
      <trkpt lat="47.30447" lon="4.95145">
        <ele>427</ele>
        <time>2013-03-09T08:14:35.000Z</time>
      </trkpt>
      <trkpt lat="47.30446" lon="4.95143">
        <ele>427</ele>
        <time>2013-03-09T08:14:36.000Z</time>
      </trkpt>
      <trkpt lat="47.30444" lon="4.9514">
        <ele>427</ele>
        <time>2013-03-09T08:14:38.000Z</time>
      </trkpt>
      <trkpt lat="47.30443" lon="4.95139">
        <ele>427</ele>
        <time>2013-03-09T08:14:39.000Z</time>
      </trkpt>
      <trkpt lat="47.3044" lon="4.95134">
        <ele>427</ele>
        <time>2013-03-09T08:14:42.000Z</time>
      </trkpt>
      <trkpt lat="47.30438" lon="4.95132">
        <ele>427</ele>
        <time>2013-03-09T08:14:43.000Z</time>
      </trkpt>
      <trkpt lat="47.30436" lon="4.95129">
        <ele>427</ele>
        <time>2013-03-09T08:14:45.000Z</time>
      </trkpt>
      <trkpt lat="47.30435" lon="4.95128">
        <ele>427</ele>
        <time>2013-03-09T08:14:46.000Z</time>
      </trkpt>
      <trkpt lat="47.30433" lon="4.95125">
        <ele>427</ele>
        <time>2013-03-09T08:14:48.000Z</time>
      </trkpt>
      <trkpt lat="47.30432" lon="4.95123">
        <ele>427</ele>
        <time>2013-03-09T08:14:49.000Z</time>
      </trkpt>
      <trkpt lat="47.30429" lon="4.95119">
        <ele>427</ele>
        <time>2013-03-09T08:14:51.000Z</time>
      </trkpt>
      <trkpt lat="47.30428" lon="4.95117">
        <ele>427</ele>
        <time>2013-03-09T08:14:52.000Z</time>
      </trkpt>
      <trkpt lat="47.30426" lon="4.95113">
        <ele>427</ele>
        <time>2013-03-09T08:14:54.000Z</time>
      </trkpt>
      <trkpt lat="47.30425" lon="4.95111">
        <ele>427</ele>
        <time>2013-03-09T08:14:55.000Z</time>
      </trkpt>
      <trkpt lat="47.30423" lon="4.95106">
        <ele>427</ele>
        <time>2013-03-09T08:14:57.000Z</time>
      </trkpt>
      <trkpt lat="47.30422" lon="4.95104">
        <ele>427</ele>
        <time>2013-03-09T08:14:58.000Z</time>
      </trkpt>
      <trkpt lat="47.3042" lon="4.95101">
        <ele>427</ele>
        <time>2013-03-09T08:15:00.000Z</time>
      </trkpt>
      <trkpt lat="47.30419" lon="4.95099">
        <ele>427</ele>
        <time>2013-03-09T08:15:01.000Z</time>
      </trkpt>
      <trkpt lat="47.30417" lon="4.95096">
        <ele>428</ele>
        <time>2013-03-09T08:15:03.000Z</time>
      </trkpt>
      <trkpt lat="47.30416" lon="4.95094">
        <ele>427</ele>
        <time>2013-03-09T08:15:04.000Z</time>
      </trkpt>
      <trkpt lat="47.30414" lon="4.9509">
        <ele>427</ele>
        <time>2013-03-09T08:15:06.000Z</time>
      </trkpt>
      <trkpt lat="47.30412" lon="4.95088">
        <ele>427</ele>
        <time>2013-03-09T08:15:07.000Z</time>
      </trkpt>
      <trkpt lat="47.3041" lon="4.95084">
        <ele>427</ele>
        <time>2013-03-09T08:15:09.000Z</time>
      </trkpt>
      <trkpt lat="47.30409" lon="4.95082">
        <ele>428</ele>
        <time>2013-03-09T08:15:10.000Z</time>
      </trkpt>
      <trkpt lat="47.30407" lon="4.95079">
        <ele>428</ele>
        <time>2013-03-09T08:15:12.000Z</time>
      </trkpt>
      <trkpt lat="47.30406" lon="4.95077">
        <ele>428</ele>
        <time>2013-03-09T08:15:13.000Z</time>
      </trkpt>
      <trkpt lat="47.30404" lon="4.95073">
        <ele>428</ele>
        <time>2013-03-09T08:15:15.000Z</time>
      </trkpt>
      <trkpt lat="47.30403" lon="4.95071">
        <ele>427</ele>
        <time>2013-03-09T08:15:16.000Z</time>
      </trkpt>
      <trkpt lat="47.30401" lon="4.95068">
        <ele>427</ele>
        <time>2013-03-09T08:15:18.000Z</time>
      </trkpt>
      <trkpt lat="47.304" lon="4.95066">
        <ele>427</ele>
        <time>2013-03-09T08:15:19.000Z</time>
      </trkpt>
      <trkpt lat="47.30398" lon="4.95062">
        <ele>427</ele>
        <time>2013-03-09T08:15:21.000Z</time>
      </trkpt>
      <trkpt lat="47.30397" lon="4.95061">
        <ele>427</ele>
        <time>2013-03-09T08:15:22.000Z</time>
      </trkpt>
      <trkpt lat="47.30395" lon="4.95057">
        <ele>427</ele>
        <time>2013-03-09T08:15:24.000Z</time>
      </trkpt>
      <trkpt lat="47.30394" lon="4.95055">
        <ele>427</ele>
        <time>2013-03-09T08:15:25.000Z</time>
      </trkpt>
      <trkpt lat="47.30392" lon="4.95051">
        <ele>427</ele>
        <time>2013-03-09T08:15:27.000Z</time>
      </trkpt>
      <trkpt lat="47.30391" lon="4.95049">
        <ele>427</ele>
        <time>2013-03-09T08:15:28.000Z</time>
      </trkpt>
      <trkpt lat="47.30389" lon="4.95046">
        <ele>427</ele>
        <time>2013-03-09T08:15:30.000Z</time>
      </trkpt>
      <trkpt lat="47.30388" lon="4.95044">
        <ele>427</ele>
        <time>2013-03-09T08:15:31.000Z</time>
      </trkpt>
      <trkpt lat="47.30386" lon="4.95039">
        <ele>427</ele>
        <time>2013-03-09T08:15:33.000Z</time>
      </trkpt>
      <trkpt lat="47.30385" lon="4.95037">
        <ele>427</ele>
        <time>2013-03-09T08:15:34.000Z</time>
      </trkpt>
      <trkpt lat="47.30383" lon="4.95033">
        <ele>427</ele>
        <time>2013-03-09T08:15:36.000Z</time>
      </trkpt>
      <trkpt lat="47.30382" lon="4.95031">
        <ele>427</ele>
        <time>2013-03-09T08:15:37.000Z</time>
      </trkpt>
      <trkpt lat="47.3038" lon="4.95026">
        <ele>427</ele>
        <time>2013-03-09T08:15:40.000Z</time>
      </trkpt>
      <trkpt lat="47.30379" lon="4.95024">
        <ele>427</ele>
        <time>2013-03-09T08:15:41.000Z</time>
      </trkpt>
      <trkpt lat="47.30371" lon="4.95009">
        <ele>427</ele>
        <time>2013-03-09T08:15:48.000Z</time>
      </trkpt>
      <trkpt lat="47.30369" lon="4.95006">
        <ele>427</ele>
        <time>2013-03-09T08:15:50.000Z</time>
      </trkpt>
      <trkpt lat="47.30368" lon="4.95003">
        <ele>427</ele>
        <time>2013-03-09T08:15:51.000Z</time>
      </trkpt>
      <trkpt lat="47.30366" lon="4.94999">
        <ele>428</ele>
        <time>2013-03-09T08:15:53.000Z</time>
      </trkpt>
      <trkpt lat="47.30366" lon="4.94997">
        <ele>428</ele>
        <time>2013-03-09T08:15:54.000Z</time>
      </trkpt>
      <trkpt lat="47.30363" lon="4.94992">
        <ele>428</ele>
        <time>2013-03-09T08:15:57.000Z</time>
      </trkpt>
      <trkpt lat="47.30362" lon="4.9499">
        <ele>428</ele>
        <time>2013-03-09T08:15:58.000Z</time>
      </trkpt>
      <trkpt lat="47.30359" lon="4.94985">
        <ele>428</ele>
        <time>2013-03-09T08:16:01.000Z</time>
      </trkpt>
      <trkpt lat="47.30358" lon="4.94983">
        <ele>428</ele>
        <time>2013-03-09T08:16:02.000Z</time>
      </trkpt>
      <trkpt lat="47.30356" lon="4.94978">
        <ele>428</ele>
        <time>2013-03-09T08:16:05.000Z</time>
      </trkpt>
      <trkpt lat="47.30355" lon="4.94976">
        <ele>428</ele>
        <time>2013-03-09T08:16:06.000Z</time>
      </trkpt>
      <trkpt lat="47.30353" lon="4.94973">
        <ele>428</ele>
        <time>2013-03-09T08:16:08.000Z</time>
      </trkpt>
      <trkpt lat="47.30352" lon="4.94971">
        <ele>428</ele>
        <time>2013-03-09T08:16:09.000Z</time>
      </trkpt>
      <trkpt lat="47.3035" lon="4.94967">
        <ele>428</ele>
        <time>2013-03-09T08:16:11.000Z</time>
      </trkpt>
      <trkpt lat="47.30349" lon="4.94966">
        <ele>428</ele>
        <time>2013-03-09T08:16:12.000Z</time>
      </trkpt>
      <trkpt lat="47.30347" lon="4.94962">
        <ele>428</ele>
        <time>2013-03-09T08:16:14.000Z</time>
      </trkpt>
      <trkpt lat="47.30346" lon="4.9496">
        <ele>428</ele>
        <time>2013-03-09T08:16:15.000Z</time>
      </trkpt>
      <trkpt lat="47.30345" lon="4.94956">
        <ele>428</ele>
        <time>2013-03-09T08:16:17.000Z</time>
      </trkpt>
      <trkpt lat="47.30344" lon="4.94954">
        <ele>428</ele>
        <time>2013-03-09T08:16:18.000Z</time>
      </trkpt>
      <trkpt lat="47.30342" lon="4.9495">
        <ele>428</ele>
        <time>2013-03-09T08:16:20.000Z</time>
      </trkpt>
      <trkpt lat="47.30341" lon="4.94948">
        <ele>428</ele>
        <time>2013-03-09T08:16:21.000Z</time>
      </trkpt>
      <trkpt lat="47.3034" lon="4.94944">
        <ele>428</ele>
        <time>2013-03-09T08:16:23.000Z</time>
      </trkpt>
      <trkpt lat="47.30339" lon="4.94942">
        <ele>428</ele>
        <time>2013-03-09T08:16:24.000Z</time>
      </trkpt>
      <trkpt lat="47.30337" lon="4.94938">
        <ele>428</ele>
        <time>2013-03-09T08:16:26.000Z</time>
      </trkpt>
      <trkpt lat="47.30337" lon="4.94936">
        <ele>428</ele>
        <time>2013-03-09T08:16:27.000Z</time>
      </trkpt>
      <trkpt lat="47.30335" lon="4.94931">
        <ele>428</ele>
        <time>2013-03-09T08:16:29.000Z</time>
      </trkpt>
      <trkpt lat="47.30335" lon="4.94929">
        <ele>428</ele>
        <time>2013-03-09T08:16:30.000Z</time>
      </trkpt>
      <trkpt lat="47.30334" lon="4.94925">
        <ele>428</ele>
        <time>2013-03-09T08:16:32.000Z</time>
      </trkpt>
      <trkpt lat="47.30333" lon="4.94923">
        <ele>427</ele>
        <time>2013-03-09T08:16:33.000Z</time>
      </trkpt>
      <trkpt lat="47.30332" lon="4.94918">
        <ele>428</ele>
        <time>2013-03-09T08:16:35.000Z</time>
      </trkpt>
      <trkpt lat="47.30331" lon="4.94916">
        <ele>428</ele>
        <time>2013-03-09T08:16:36.000Z</time>
      </trkpt>
      <trkpt lat="47.3033" lon="4.94911">
        <ele>427</ele>
        <time>2013-03-09T08:16:38.000Z</time>
      </trkpt>
      <trkpt lat="47.30329" lon="4.94909">
        <ele>427</ele>
        <time>2013-03-09T08:16:39.000Z</time>
      </trkpt>
      <trkpt lat="47.30328" lon="4.94905">
        <ele>427</ele>
        <time>2013-03-09T08:16:41.000Z</time>
      </trkpt>
      <trkpt lat="47.30328" lon="4.94903">
        <ele>427</ele>
        <time>2013-03-09T08:16:42.000Z</time>
      </trkpt>
      <trkpt lat="47.30323" lon="4.94886">
        <ele>427</ele>
        <time>2013-03-09T08:16:48.000Z</time>
      </trkpt>
      <trkpt lat="47.30322" lon="4.9488">
        <ele>427</ele>
        <time>2013-03-09T08:16:51.000Z</time>
      </trkpt>
      <trkpt lat="47.30321" lon="4.94878">
        <ele>427</ele>
        <time>2013-03-09T08:16:52.000Z</time>
      </trkpt>
      <trkpt lat="47.3032" lon="4.94872">
        <ele>427</ele>
        <time>2013-03-09T08:16:55.000Z</time>
      </trkpt>
      <trkpt lat="47.30319" lon="4.94869">
        <ele>427</ele>
        <time>2013-03-09T08:16:56.000Z</time>
      </trkpt>
      <trkpt lat="47.30318" lon="4.94864">
        <ele>427</ele>
        <time>2013-03-09T08:16:58.000Z</time>
      </trkpt>
      <trkpt lat="47.30318" lon="4.94861">
        <ele>427</ele>
        <time>2013-03-09T08:16:59.000Z</time>
      </trkpt>
      <trkpt lat="47.30317" lon="4.94857">
        <ele>427</ele>
        <time>2013-03-09T08:17:01.000Z</time>
      </trkpt>
      <trkpt lat="47.30316" lon="4.94855">
        <ele>427</ele>
        <time>2013-03-09T08:17:02.000Z</time>
      </trkpt>
      <trkpt lat="47.30315" lon="4.94851">
        <ele>427</ele>
        <time>2013-03-09T08:17:04.000Z</time>
      </trkpt>
      <trkpt lat="47.30314" lon="4.94849">
        <ele>428</ele>
        <time>2013-03-09T08:17:05.000Z</time>
      </trkpt>
      <trkpt lat="47.30312" lon="4.94843">
        <ele>428</ele>
        <time>2013-03-09T08:17:08.000Z</time>
      </trkpt>
      <trkpt lat="47.30311" lon="4.94841">
        <ele>428</ele>
        <time>2013-03-09T08:17:09.000Z</time>
      </trkpt>
      <trkpt lat="47.3031" lon="4.94837">
        <ele>428</ele>
        <time>2013-03-09T08:17:11.000Z</time>
      </trkpt>
      <trkpt lat="47.30309" lon="4.94835">
        <ele>428</ele>
        <time>2013-03-09T08:17:12.000Z</time>
      </trkpt>
      <trkpt lat="47.30308" lon="4.94831">
        <ele>430</ele>
        <time>2013-03-09T08:17:14.000Z</time>
      </trkpt>
      <trkpt lat="47.30307" lon="4.94828">
        <ele>430</ele>
        <time>2013-03-09T08:17:15.000Z</time>
      </trkpt>
      <trkpt lat="47.30306" lon="4.94824">
        <ele>430</ele>
        <time>2013-03-09T08:17:17.000Z</time>
      </trkpt>
      <trkpt lat="47.30305" lon="4.94821">
        <ele>430</ele>
        <time>2013-03-09T08:17:18.000Z</time>
      </trkpt>
      <trkpt lat="47.30304" lon="4.94817">
        <ele>431</ele>
        <time>2013-03-09T08:17:20.000Z</time>
      </trkpt>
      <trkpt lat="47.30303" lon="4.94815">
        <ele>431</ele>
        <time>2013-03-09T08:17:21.000Z</time>
      </trkpt>
      <trkpt lat="47.30301" lon="4.9481">
        <ele>431</ele>
        <time>2013-03-09T08:17:23.000Z</time>
      </trkpt>
      <trkpt lat="47.30301" lon="4.94808">
        <ele>431</ele>
        <time>2013-03-09T08:17:24.000Z</time>
      </trkpt>
      <trkpt lat="47.30299" lon="4.94803">
        <ele>431</ele>
        <time>2013-03-09T08:17:27.000Z</time>
      </trkpt>
      <trkpt lat="47.30298" lon="4.94801">
        <ele>431</ele>
        <time>2013-03-09T08:17:28.000Z</time>
      </trkpt>
      <trkpt lat="47.30296" lon="4.94795">
        <ele>431</ele>
        <time>2013-03-09T08:17:31.000Z</time>
      </trkpt>
      <trkpt lat="47.30295" lon="4.94793">
        <ele>431</ele>
        <time>2013-03-09T08:17:32.000Z</time>
      </trkpt>
      <trkpt lat="47.30293" lon="4.94787">
        <ele>431</ele>
        <time>2013-03-09T08:17:35.000Z</time>
      </trkpt>
      <trkpt lat="47.30293" lon="4.94785">
        <ele>431</ele>
        <time>2013-03-09T08:17:36.000Z</time>
      </trkpt>
      <trkpt lat="47.30291" lon="4.9478">
        <ele>431</ele>
        <time>2013-03-09T08:17:39.000Z</time>
      </trkpt>
      <trkpt lat="47.3029" lon="4.94779">
        <ele>431</ele>
        <time>2013-03-09T08:17:40.000Z</time>
      </trkpt>
      <trkpt lat="47.30288" lon="4.94775">
        <ele>432</ele>
        <time>2013-03-09T08:17:42.000Z</time>
      </trkpt>
      <trkpt lat="47.30282" lon="4.9476">
        <ele>432</ele>
        <time>2013-03-09T08:17:49.000Z</time>
      </trkpt>
      <trkpt lat="47.30277" lon="4.94758">
        <ele>432</ele>
        <time>2013-03-09T08:17:54.000Z</time>
      </trkpt>
      <trkpt lat="47.30277" lon="4.94757">
        <ele>432</ele>
        <time>2013-03-09T08:17:55.000Z</time>
      </trkpt>
      <trkpt lat="47.30274" lon="4.94753">
        <ele>432</ele>
        <time>2013-03-09T08:17:58.000Z</time>
      </trkpt>
      <trkpt lat="47.30274" lon="4.94751">
        <ele>432</ele>
        <time>2013-03-09T08:17:59.000Z</time>
      </trkpt>
      <trkpt lat="47.30272" lon="4.94746">
        <ele>435</ele>
        <time>2013-03-09T08:18:02.000Z</time>
      </trkpt>
      <trkpt lat="47.30271" lon="4.94745">
        <ele>434</ele>
        <time>2013-03-09T08:18:03.000Z</time>
      </trkpt>
      <trkpt lat="47.3027" lon="4.94739">
        <ele>435</ele>
        <time>2013-03-09T08:18:06.000Z</time>
      </trkpt>
      <trkpt lat="47.3027" lon="4.94738">
        <ele>435</ele>
        <time>2013-03-09T08:18:07.000Z</time>
      </trkpt>
      <trkpt lat="47.3027" lon="4.94733">
        <ele>435</ele>
        <time>2013-03-09T08:18:10.000Z</time>
      </trkpt>
      <trkpt lat="47.30269" lon="4.94731">
        <ele>435</ele>
        <time>2013-03-09T08:18:11.000Z</time>
      </trkpt>
      <trkpt lat="47.30268" lon="4.94727">
        <ele>435</ele>
        <time>2013-03-09T08:18:13.000Z</time>
      </trkpt>
      <trkpt lat="47.30268" lon="4.94724">
        <ele>435</ele>
        <time>2013-03-09T08:18:14.000Z</time>
      </trkpt>
      <trkpt lat="47.30267" lon="4.94718">
        <ele>435</ele>
        <time>2013-03-09T08:18:16.000Z</time>
      </trkpt>
      <trkpt lat="47.30267" lon="4.94715">
        <ele>435</ele>
        <time>2013-03-09T08:18:17.000Z</time>
      </trkpt>
      <trkpt lat="47.30265" lon="4.94709">
        <ele>435</ele>
        <time>2013-03-09T08:18:20.000Z</time>
      </trkpt>
      <trkpt lat="47.30264" lon="4.94707">
        <ele>435</ele>
        <time>2013-03-09T08:18:21.000Z</time>
      </trkpt>
      <trkpt lat="47.30263" lon="4.94702">
        <ele>435</ele>
        <time>2013-03-09T08:18:23.000Z</time>
      </trkpt>
      <trkpt lat="47.30263" lon="4.947">
        <ele>435</ele>
        <time>2013-03-09T08:18:24.000Z</time>
      </trkpt>
      <trkpt lat="47.30261" lon="4.94696">
        <ele>435</ele>
        <time>2013-03-09T08:18:26.000Z</time>
      </trkpt>
      <trkpt lat="47.3026" lon="4.94695">
        <ele>435</ele>
        <time>2013-03-09T08:18:27.000Z</time>
      </trkpt>
      <trkpt lat="47.30259" lon="4.9469">
        <ele>436</ele>
        <time>2013-03-09T08:18:29.000Z</time>
      </trkpt>
      <trkpt lat="47.30258" lon="4.94688">
        <ele>436</ele>
        <time>2013-03-09T08:18:30.000Z</time>
      </trkpt>
      <trkpt lat="47.30257" lon="4.94684">
        <ele>436</ele>
        <time>2013-03-09T08:18:32.000Z</time>
      </trkpt>
      <trkpt lat="47.30256" lon="4.94682">
        <ele>436</ele>
        <time>2013-03-09T08:18:33.000Z</time>
      </trkpt>
      <trkpt lat="47.30255" lon="4.94676">
        <ele>436</ele>
        <time>2013-03-09T08:18:35.000Z</time>
      </trkpt>
      <trkpt lat="47.30255" lon="4.94673">
        <ele>436</ele>
        <time>2013-03-09T08:18:36.000Z</time>
      </trkpt>
      <trkpt lat="47.30255" lon="4.94667">
        <ele>436</ele>
        <time>2013-03-09T08:18:38.000Z</time>
      </trkpt>
      <trkpt lat="47.30255" lon="4.94664">
        <ele>436</ele>
        <time>2013-03-09T08:18:39.000Z</time>
      </trkpt>
      <trkpt lat="47.30255" lon="4.94658">
        <ele>436</ele>
        <time>2013-03-09T08:18:41.000Z</time>
      </trkpt>
      <trkpt lat="47.30256" lon="4.94655">
        <ele>436</ele>
        <time>2013-03-09T08:18:42.000Z</time>
      </trkpt>
      <trkpt lat="47.30256" lon="4.94626">
        <ele>437</ele>
        <time>2013-03-09T08:18:49.000Z</time>
      </trkpt>
      <trkpt lat="47.30255" lon="4.94621">
        <ele>437</ele>
        <time>2013-03-09T08:18:51.000Z</time>
      </trkpt>
      <trkpt lat="47.30255" lon="4.94618">
        <ele>437</ele>
        <time>2013-03-09T08:18:52.000Z</time>
      </trkpt>
      <trkpt lat="47.30255" lon="4.94612">
        <ele>437</ele>
        <time>2013-03-09T08:18:55.000Z</time>
      </trkpt>
      <trkpt lat="47.30255" lon="4.9461">
        <ele>437</ele>
        <time>2013-03-09T08:18:56.000Z</time>
      </trkpt>
      <trkpt lat="47.30255" lon="4.94603">
        <ele>437</ele>
        <time>2013-03-09T08:18:59.000Z</time>
      </trkpt>
      <trkpt lat="47.30255" lon="4.94601">
        <ele>437</ele>
        <time>2013-03-09T08:19:00.000Z</time>
      </trkpt>
      <trkpt lat="47.30255" lon="4.94596">
        <ele>437</ele>
        <time>2013-03-09T08:19:02.000Z</time>
      </trkpt>
      <trkpt lat="47.30255" lon="4.94594">
        <ele>437</ele>
        <time>2013-03-09T08:19:03.000Z</time>
      </trkpt>
      <trkpt lat="47.30255" lon="4.94589">
        <ele>437</ele>
        <time>2013-03-09T08:19:05.000Z</time>
      </trkpt>
      <trkpt lat="47.30256" lon="4.94587">
        <ele>437</ele>
        <time>2013-03-09T08:19:06.000Z</time>
      </trkpt>
      <trkpt lat="47.30256" lon="4.94581">
        <ele>437</ele>
        <time>2013-03-09T08:19:08.000Z</time>
      </trkpt>
      <trkpt lat="47.30256" lon="4.94579">
        <ele>437</ele>
        <time>2013-03-09T08:19:09.000Z</time>
      </trkpt>
      <trkpt lat="47.30256" lon="4.94573">
        <ele>437</ele>
        <time>2013-03-09T08:19:12.000Z</time>
      </trkpt>
      <trkpt lat="47.30256" lon="4.94571">
        <ele>437</ele>
        <time>2013-03-09T08:19:13.000Z</time>
      </trkpt>
      <trkpt lat="47.30255" lon="4.94565">
        <ele>437</ele>
        <time>2013-03-09T08:19:16.000Z</time>
      </trkpt>
      <trkpt lat="47.30255" lon="4.94563">
        <ele>437</ele>
        <time>2013-03-09T08:19:17.000Z</time>
      </trkpt>
      <trkpt lat="47.30254" lon="4.94557">
        <ele>438</ele>
        <time>2013-03-09T08:19:20.000Z</time>
      </trkpt>
      <trkpt lat="47.30254" lon="4.94555">
        <ele>438</ele>
        <time>2013-03-09T08:19:21.000Z</time>
      </trkpt>
      <trkpt lat="47.30253" lon="4.94549">
        <ele>438</ele>
        <time>2013-03-09T08:19:24.000Z</time>
      </trkpt>
      <trkpt lat="47.30252" lon="4.94547">
        <ele>438</ele>
        <time>2013-03-09T08:19:25.000Z</time>
      </trkpt>
      <trkpt lat="47.30252" lon="4.94542">
        <ele>438</ele>
        <time>2013-03-09T08:19:27.000Z</time>
      </trkpt>
      <trkpt lat="47.30251" lon="4.9454">
        <ele>438</ele>
        <time>2013-03-09T08:19:28.000Z</time>
      </trkpt>
      <trkpt lat="47.30251" lon="4.94536">
        <ele>438</ele>
        <time>2013-03-09T08:19:30.000Z</time>
      </trkpt>
      <trkpt lat="47.30251" lon="4.94534">
        <ele>438</ele>
        <time>2013-03-09T08:19:31.000Z</time>
      </trkpt>
      <trkpt lat="47.3025" lon="4.94527">
        <ele>434</ele>
        <time>2013-03-09T08:19:34.000Z</time>
      </trkpt>
      <trkpt lat="47.30249" lon="4.94525">
        <ele>434</ele>
        <time>2013-03-09T08:19:35.000Z</time>
      </trkpt>
      <trkpt lat="47.30249" lon="4.94521">
        <ele>434</ele>
        <time>2013-03-09T08:19:37.000Z</time>
      </trkpt>
      <trkpt lat="47.30248" lon="4.94519">
        <ele>435</ele>
        <time>2013-03-09T08:19:38.000Z</time>
      </trkpt>
      <trkpt lat="47.30248" lon="4.94513">
        <ele>435</ele>
        <time>2013-03-09T08:19:41.000Z</time>
      </trkpt>
      <trkpt lat="47.30247" lon="4.9451">
        <ele>435</ele>
        <time>2013-03-09T08:19:42.000Z</time>
      </trkpt>
      <trkpt lat="47.30246" lon="4.94489">
        <ele>436</ele>
        <time>2013-03-09T08:19:49.000Z</time>
      </trkpt>
      <trkpt lat="47.30244" lon="4.94484">
        <ele>436</ele>
        <time>2013-03-09T08:19:51.000Z</time>
      </trkpt>
      <trkpt lat="47.30243" lon="4.94482">
        <ele>436</ele>
        <time>2013-03-09T08:19:52.000Z</time>
      </trkpt>
      <trkpt lat="47.30242" lon="4.94478">
        <ele>436</ele>
        <time>2013-03-09T08:19:54.000Z</time>
      </trkpt>
      <trkpt lat="47.30242" lon="4.94476">
        <ele>435</ele>
        <time>2013-03-09T08:19:55.000Z</time>
      </trkpt>
      <trkpt lat="47.30241" lon="4.94472">
        <ele>435</ele>
        <time>2013-03-09T08:19:57.000Z</time>
      </trkpt>
      <trkpt lat="47.3024" lon="4.9447">
        <ele>435</ele>
        <time>2013-03-09T08:19:58.000Z</time>
      </trkpt>
      <trkpt lat="47.30238" lon="4.94464">
        <ele>435</ele>
        <time>2013-03-09T08:20:02.000Z</time>
      </trkpt>
      <trkpt lat="47.30237" lon="4.94463">
        <ele>435</ele>
        <time>2013-03-09T08:20:03.000Z</time>
      </trkpt>
      <trkpt lat="47.30235" lon="4.94458">
        <ele>435</ele>
        <time>2013-03-09T08:20:06.000Z</time>
      </trkpt>
      <trkpt lat="47.30235" lon="4.94456">
        <ele>435</ele>
        <time>2013-03-09T08:20:07.000Z</time>
      </trkpt>
      <trkpt lat="47.30234" lon="4.94451">
        <ele>435</ele>
        <time>2013-03-09T08:20:09.000Z</time>
      </trkpt>
      <trkpt lat="47.30233" lon="4.94449">
        <ele>436</ele>
        <time>2013-03-09T08:20:10.000Z</time>
      </trkpt>
      <trkpt lat="47.30232" lon="4.94445">
        <ele>436</ele>
        <time>2013-03-09T08:20:13.000Z</time>
      </trkpt>
      <trkpt lat="47.30231" lon="4.94443">
        <ele>436</ele>
        <time>2013-03-09T08:20:14.000Z</time>
      </trkpt>
      <trkpt lat="47.3023" lon="4.94437">
        <ele>436</ele>
        <time>2013-03-09T08:20:17.000Z</time>
      </trkpt>
      <trkpt lat="47.30229" lon="4.94435">
        <ele>436</ele>
        <time>2013-03-09T08:20:18.000Z</time>
      </trkpt>
      <trkpt lat="47.30228" lon="4.94429">
        <ele>436</ele>
        <time>2013-03-09T08:20:21.000Z</time>
      </trkpt>
      <trkpt lat="47.30227" lon="4.94426">
        <ele>436</ele>
        <time>2013-03-09T08:20:22.000Z</time>
      </trkpt>
      <trkpt lat="47.30227" lon="4.94421">
        <ele>436</ele>
        <time>2013-03-09T08:20:24.000Z</time>
      </trkpt>
      <trkpt lat="47.30226" lon="4.94418">
        <ele>436</ele>
        <time>2013-03-09T08:20:25.000Z</time>
      </trkpt>
      <trkpt lat="47.30225" lon="4.94413">
        <ele>438</ele>
        <time>2013-03-09T08:20:27.000Z</time>
      </trkpt>
      <trkpt lat="47.30225" lon="4.94411">
        <ele>438</ele>
        <time>2013-03-09T08:20:28.000Z</time>
      </trkpt>
      <trkpt lat="47.30224" lon="4.94405">
        <ele>438</ele>
        <time>2013-03-09T08:20:30.000Z</time>
      </trkpt>
      <trkpt lat="47.30224" lon="4.94403">
        <ele>438</ele>
        <time>2013-03-09T08:20:31.000Z</time>
      </trkpt>
      <trkpt lat="47.30222" lon="4.94397">
        <ele>438</ele>
        <time>2013-03-09T08:20:34.000Z</time>
      </trkpt>
      <trkpt lat="47.30222" lon="4.94394">
        <ele>438</ele>
        <time>2013-03-09T08:20:35.000Z</time>
      </trkpt>
      <trkpt lat="47.30221" lon="4.9439">
        <ele>438</ele>
        <time>2013-03-09T08:20:37.000Z</time>
      </trkpt>
      <trkpt lat="47.3022" lon="4.94387">
        <ele>438</ele>
        <time>2013-03-09T08:20:38.000Z</time>
      </trkpt>
      <trkpt lat="47.30219" lon="4.94381">
        <ele>438</ele>
        <time>2013-03-09T08:20:41.000Z</time>
      </trkpt>
      <trkpt lat="47.30219" lon="4.94379">
        <ele>438</ele>
        <time>2013-03-09T08:20:42.000Z</time>
      </trkpt>
      <trkpt lat="47.30214" lon="4.94358">
        <ele>438</ele>
        <time>2013-03-09T08:20:49.000Z</time>
      </trkpt>
      <trkpt lat="47.30214" lon="4.94354">
        <ele>438</ele>
        <time>2013-03-09T08:20:51.000Z</time>
      </trkpt>
      <trkpt lat="47.30213" lon="4.94352">
        <ele>438</ele>
        <time>2013-03-09T08:20:52.000Z</time>
      </trkpt>
      <trkpt lat="47.30213" lon="4.94345">
        <ele>438</ele>
        <time>2013-03-09T08:20:55.000Z</time>
      </trkpt>
      <trkpt lat="47.30213" lon="4.94343">
        <ele>438</ele>
        <time>2013-03-09T08:20:56.000Z</time>
      </trkpt>
      <trkpt lat="47.30212" lon="4.94337">
        <ele>438</ele>
        <time>2013-03-09T08:20:59.000Z</time>
      </trkpt>
      <trkpt lat="47.30212" lon="4.94334">
        <ele>438</ele>
        <time>2013-03-09T08:21:00.000Z</time>
      </trkpt>
      <trkpt lat="47.30211" lon="4.94328">
        <ele>440</ele>
        <time>2013-03-09T08:21:03.000Z</time>
      </trkpt>
      <trkpt lat="47.3021" lon="4.94326">
        <ele>440</ele>
        <time>2013-03-09T08:21:04.000Z</time>
      </trkpt>
      <trkpt lat="47.3021" lon="4.94321">
        <ele>440</ele>
        <time>2013-03-09T08:21:07.000Z</time>
      </trkpt>
      <trkpt lat="47.30209" lon="4.94319">
        <ele>440</ele>
        <time>2013-03-09T08:21:08.000Z</time>
      </trkpt>
      <trkpt lat="47.30209" lon="4.94314">
        <ele>440</ele>
        <time>2013-03-09T08:21:10.000Z</time>
      </trkpt>
      <trkpt lat="47.30208" lon="4.94312">
        <ele>440</ele>
        <time>2013-03-09T08:21:11.000Z</time>
      </trkpt>
      <trkpt lat="47.30207" lon="4.94307">
        <ele>440</ele>
        <time>2013-03-09T08:21:13.000Z</time>
      </trkpt>
      <trkpt lat="47.30206" lon="4.94304">
        <ele>440</ele>
        <time>2013-03-09T08:21:14.000Z</time>
      </trkpt>
      <trkpt lat="47.30205" lon="4.94298">
        <ele>440</ele>
        <time>2013-03-09T08:21:16.000Z</time>
      </trkpt>
      <trkpt lat="47.30205" lon="4.94295">
        <ele>440</ele>
        <time>2013-03-09T08:21:17.000Z</time>
      </trkpt>
      <trkpt lat="47.30204" lon="4.94291">
        <ele>440</ele>
        <time>2013-03-09T08:21:19.000Z</time>
      </trkpt>
      <trkpt lat="47.30203" lon="4.94289">
        <ele>440</ele>
        <time>2013-03-09T08:21:20.000Z</time>
      </trkpt>
      <trkpt lat="47.30201" lon="4.94285">
        <ele>440</ele>
        <time>2013-03-09T08:21:22.000Z</time>
      </trkpt>
      <trkpt lat="47.302" lon="4.94284">
        <ele>440</ele>
        <time>2013-03-09T08:21:23.000Z</time>
      </trkpt>
      <trkpt lat="47.30197" lon="4.94278">
        <ele>440</ele>
        <time>2013-03-09T08:21:26.000Z</time>
      </trkpt>
      <trkpt lat="47.30196" lon="4.94276">
        <ele>440</ele>
        <time>2013-03-09T08:21:27.000Z</time>
      </trkpt>
      <trkpt lat="47.30195" lon="4.94272">
        <ele>440</ele>
        <time>2013-03-09T08:21:29.000Z</time>
      </trkpt>
      <trkpt lat="47.30194" lon="4.9427">
        <ele>440</ele>
        <time>2013-03-09T08:21:30.000Z</time>
      </trkpt>
      <trkpt lat="47.30192" lon="4.94266">
        <ele>440</ele>
        <time>2013-03-09T08:21:32.000Z</time>
      </trkpt>
      <trkpt lat="47.30191" lon="4.94264">
        <ele>440</ele>
        <time>2013-03-09T08:21:33.000Z</time>
      </trkpt>
      <trkpt lat="47.30189" lon="4.94261">
        <ele>440</ele>
        <time>2013-03-09T08:21:35.000Z</time>
      </trkpt>
      <trkpt lat="47.30187" lon="4.94259">
        <ele>440</ele>
        <time>2013-03-09T08:21:36.000Z</time>
      </trkpt>
      <trkpt lat="47.30186" lon="4.94255">
        <ele>440</ele>
        <time>2013-03-09T08:21:38.000Z</time>
      </trkpt>
      <trkpt lat="47.30185" lon="4.94253">
        <ele>440</ele>
        <time>2013-03-09T08:21:39.000Z</time>
      </trkpt>
      <trkpt lat="47.30184" lon="4.94248">
        <ele>441</ele>
        <time>2013-03-09T08:21:41.000Z</time>
      </trkpt>
      <trkpt lat="47.30183" lon="4.94246">
        <ele>441</ele>
        <time>2013-03-09T08:21:42.000Z</time>
      </trkpt>
      <trkpt lat="47.3018" lon="4.94223">
        <ele>442</ele>
        <time>2013-03-09T08:21:49.000Z</time>
      </trkpt>
      <trkpt lat="47.30176" lon="4.94221">
        <ele>442</ele>
        <time>2013-03-09T08:21:52.000Z</time>
      </trkpt>
      <trkpt lat="47.30174" lon="4.94218">
        <ele>442</ele>
        <time>2013-03-09T08:21:53.000Z</time>
      </trkpt>
      <trkpt lat="47.30171" lon="4.94214">
        <ele>442</ele>
        <time>2013-03-09T08:21:56.000Z</time>
      </trkpt>
      <trkpt lat="47.30171" lon="4.94212">
        <ele>442</ele>
        <time>2013-03-09T08:21:57.000Z</time>
      </trkpt>
      <trkpt lat="47.30168" lon="4.94208">
        <ele>442</ele>
        <time>2013-03-09T08:22:00.000Z</time>
      </trkpt>
      <trkpt lat="47.30167" lon="4.94206">
        <ele>442</ele>
        <time>2013-03-09T08:22:01.000Z</time>
      </trkpt>
      <trkpt lat="47.30164" lon="4.94203">
        <ele>442</ele>
        <time>2013-03-09T08:22:03.000Z</time>
      </trkpt>
      <trkpt lat="47.30163" lon="4.94201">
        <ele>442</ele>
        <time>2013-03-09T08:22:04.000Z</time>
      </trkpt>
      <trkpt lat="47.30159" lon="4.94197">
        <ele>442</ele>
        <time>2013-03-09T08:22:07.000Z</time>
      </trkpt>
      <trkpt lat="47.30158" lon="4.94197">
        <ele>442</ele>
        <time>2013-03-09T08:22:08.000Z</time>
      </trkpt>
      <trkpt lat="47.30154" lon="4.94194">
        <ele>442</ele>
        <time>2013-03-09T08:22:11.000Z</time>
      </trkpt>
      <trkpt lat="47.30153" lon="4.94193">
        <ele>442</ele>
        <time>2013-03-09T08:22:12.000Z</time>
      </trkpt>
      <trkpt lat="47.30149" lon="4.94193">
        <ele>442</ele>
        <time>2013-03-09T08:22:18.000Z</time>
      </trkpt>
      <trkpt lat="47.30149" lon="4.94194">
        <ele>442</ele>
        <time>2013-03-09T08:22:19.000Z</time>
      </trkpt>
      <trkpt lat="47.30149" lon="4.942">
        <ele>442</ele>
        <time>2013-03-09T08:22:24.000Z</time>
      </trkpt>
      <trkpt lat="47.30149" lon="4.94202">
        <ele>442</ele>
        <time>2013-03-09T08:22:25.000Z</time>
      </trkpt>
      <trkpt lat="47.30149" lon="4.94207">
        <ele>442</ele>
        <time>2013-03-09T08:22:28.000Z</time>
      </trkpt>
      <trkpt lat="47.30149" lon="4.94209">
        <ele>442</ele>
        <time>2013-03-09T08:22:29.000Z</time>
      </trkpt>
      <trkpt lat="47.3015" lon="4.94215">
        <ele>442</ele>
        <time>2013-03-09T08:22:32.000Z</time>
      </trkpt>
      <trkpt lat="47.3015" lon="4.94216">
        <ele>442</ele>
        <time>2013-03-09T08:22:33.000Z</time>
      </trkpt>
      <trkpt lat="47.30151" lon="4.94222">
        <ele>442</ele>
        <time>2013-03-09T08:22:36.000Z</time>
      </trkpt>
      <trkpt lat="47.30151" lon="4.94224">
        <ele>442</ele>
        <time>2013-03-09T08:22:37.000Z</time>
      </trkpt>
      <trkpt lat="47.30152" lon="4.94229">
        <ele>442</ele>
        <time>2013-03-09T08:22:39.000Z</time>
      </trkpt>
      <trkpt lat="47.30152" lon="4.94231">
        <ele>442</ele>
        <time>2013-03-09T08:22:40.000Z</time>
      </trkpt>
      <trkpt lat="47.30152" lon="4.94235">
        <ele>442</ele>
        <time>2013-03-09T08:22:42.000Z</time>
      </trkpt>
      <trkpt lat="47.30157" lon="4.94253">
        <ele>441</ele>
        <time>2013-03-09T08:22:49.000Z</time>
      </trkpt>
      <trkpt lat="47.30157" lon="4.94259">
        <ele>441</ele>
        <time>2013-03-09T08:22:52.000Z</time>
      </trkpt>
      <trkpt lat="47.30157" lon="4.94262">
        <ele>441</ele>
        <time>2013-03-09T08:22:53.000Z</time>
      </trkpt>
      <trkpt lat="47.30159" lon="4.94267">
        <ele>441</ele>
        <time>2013-03-09T08:22:55.000Z</time>
      </trkpt>
      <trkpt lat="47.30159" lon="4.9427">
        <ele>441</ele>
        <time>2013-03-09T08:22:56.000Z</time>
      </trkpt>
      <trkpt lat="47.3016" lon="4.94275">
        <ele>440</ele>
        <time>2013-03-09T08:22:58.000Z</time>
      </trkpt>
      <trkpt lat="47.3016" lon="4.94277">
        <ele>440</ele>
        <time>2013-03-09T08:22:59.000Z</time>
      </trkpt>
      <trkpt lat="47.30161" lon="4.94283">
        <ele>440</ele>
        <time>2013-03-09T08:23:01.000Z</time>
      </trkpt>
      <trkpt lat="47.30162" lon="4.94285">
        <ele>440</ele>
        <time>2013-03-09T08:23:02.000Z</time>
      </trkpt>
      <trkpt lat="47.30162" lon="4.94292">
        <ele>440</ele>
        <time>2013-03-09T08:23:05.000Z</time>
      </trkpt>
      <trkpt lat="47.30162" lon="4.94294">
        <ele>440</ele>
        <time>2013-03-09T08:23:06.000Z</time>
      </trkpt>
      <trkpt lat="47.30163" lon="4.94298">
        <ele>440</ele>
        <time>2013-03-09T08:23:08.000Z</time>
      </trkpt>
      <trkpt lat="47.30164" lon="4.94301">
        <ele>440</ele>
        <time>2013-03-09T08:23:09.000Z</time>
      </trkpt>
      <trkpt lat="47.30165" lon="4.94305">
        <ele>439</ele>
        <time>2013-03-09T08:23:11.000Z</time>
      </trkpt>
      <trkpt lat="47.30165" lon="4.94308">
        <ele>439</ele>
        <time>2013-03-09T08:23:12.000Z</time>
      </trkpt>
      <trkpt lat="47.30166" lon="4.94313">
        <ele>439</ele>
        <time>2013-03-09T08:23:14.000Z</time>
      </trkpt>
      <trkpt lat="47.30166" lon="4.94316">
        <ele>439</ele>
        <time>2013-03-09T08:23:15.000Z</time>
      </trkpt>
      <trkpt lat="47.30168" lon="4.9432">
        <ele>438</ele>
        <time>2013-03-09T08:23:17.000Z</time>
      </trkpt>
      <trkpt lat="47.30168" lon="4.94323">
        <ele>438</ele>
        <time>2013-03-09T08:23:18.000Z</time>
      </trkpt>
      <trkpt lat="47.30169" lon="4.94328">
        <ele>438</ele>
        <time>2013-03-09T08:23:20.000Z</time>
      </trkpt>
      <trkpt lat="47.3017" lon="4.9433">
        <ele>438</ele>
        <time>2013-03-09T08:23:21.000Z</time>
      </trkpt>
      <trkpt lat="47.30171" lon="4.94335">
        <ele>437</ele>
        <time>2013-03-09T08:23:23.000Z</time>
      </trkpt>
      <trkpt lat="47.30172" lon="4.94338">
        <ele>437</ele>
        <time>2013-03-09T08:23:24.000Z</time>
      </trkpt>
      <trkpt lat="47.30173" lon="4.94344">
        <ele>437</ele>
        <time>2013-03-09T08:23:26.000Z</time>
      </trkpt>
      <trkpt lat="47.30174" lon="4.94347">
        <ele>437</ele>
        <time>2013-03-09T08:23:27.000Z</time>
      </trkpt>
      <trkpt lat="47.30175" lon="4.94351">
        <ele>437</ele>
        <time>2013-03-09T08:23:29.000Z</time>
      </trkpt>
      <trkpt lat="47.30175" lon="4.94354">
        <ele>437</ele>
        <time>2013-03-09T08:23:30.000Z</time>
      </trkpt>
      <trkpt lat="47.30175" lon="4.94359">
        <ele>437</ele>
        <time>2013-03-09T08:23:32.000Z</time>
      </trkpt>
      <trkpt lat="47.30175" lon="4.94361">
        <ele>437</ele>
        <time>2013-03-09T08:23:33.000Z</time>
      </trkpt>
      <trkpt lat="47.30176" lon="4.94366">
        <ele>437</ele>
        <time>2013-03-09T08:23:35.000Z</time>
      </trkpt>
      <trkpt lat="47.30176" lon="4.94369">
        <ele>437</ele>
        <time>2013-03-09T08:23:36.000Z</time>
      </trkpt>
      <trkpt lat="47.30177" lon="4.94373">
        <ele>437</ele>
        <time>2013-03-09T08:23:38.000Z</time>
      </trkpt>
      <trkpt lat="47.30178" lon="4.94376">
        <ele>437</ele>
        <time>2013-03-09T08:23:39.000Z</time>
      </trkpt>
      <trkpt lat="47.30178" lon="4.94382">
        <ele>436</ele>
        <time>2013-03-09T08:23:41.000Z</time>
      </trkpt>
      <trkpt lat="47.30178" lon="4.94384">
        <ele>436</ele>
        <time>2013-03-09T08:23:42.000Z</time>
      </trkpt>
      <trkpt lat="47.30186" lon="4.94412">
        <ele>436</ele>
        <time>2013-03-09T08:23:51.000Z</time>
      </trkpt>
      <trkpt lat="47.30186" lon="4.94416">
        <ele>435</ele>
        <time>2013-03-09T08:23:53.000Z</time>
      </trkpt>
      <trkpt lat="47.30186" lon="4.94418">
        <ele>434</ele>
        <time>2013-03-09T08:23:54.000Z</time>
      </trkpt>
      <trkpt lat="47.30186" lon="4.94423">
        <ele>434</ele>
        <time>2013-03-09T08:23:56.000Z</time>
      </trkpt>
      <trkpt lat="47.30186" lon="4.94426">
        <ele>434</ele>
        <time>2013-03-09T08:23:57.000Z</time>
      </trkpt>
      <trkpt lat="47.30186" lon="4.94432">
        <ele>434</ele>
        <time>2013-03-09T08:23:59.000Z</time>
      </trkpt>
      <trkpt lat="47.30186" lon="4.94435">
        <ele>434</ele>
        <time>2013-03-09T08:24:00.000Z</time>
      </trkpt>
      <trkpt lat="47.30186" lon="4.94439">
        <ele>434</ele>
        <time>2013-03-09T08:24:02.000Z</time>
      </trkpt>
      <trkpt lat="47.30186" lon="4.94441">
        <ele>434</ele>
        <time>2013-03-09T08:24:03.000Z</time>
      </trkpt>
      <trkpt lat="47.30186" lon="4.94446">
        <ele>434</ele>
        <time>2013-03-09T08:24:05.000Z</time>
      </trkpt>
      <trkpt lat="47.30185" lon="4.94449">
        <ele>434</ele>
        <time>2013-03-09T08:24:06.000Z</time>
      </trkpt>
      <trkpt lat="47.30185" lon="4.94453">
        <ele>433</ele>
        <time>2013-03-09T08:24:08.000Z</time>
      </trkpt>
      <trkpt lat="47.30185" lon="4.94455">
        <ele>433</ele>
        <time>2013-03-09T08:24:09.000Z</time>
      </trkpt>
      <trkpt lat="47.30184" lon="4.9446">
        <ele>433</ele>
        <time>2013-03-09T08:24:11.000Z</time>
      </trkpt>
      <trkpt lat="47.30185" lon="4.94463">
        <ele>433</ele>
        <time>2013-03-09T08:24:12.000Z</time>
      </trkpt>
      <trkpt lat="47.30185" lon="4.94468">
        <ele>433</ele>
        <time>2013-03-09T08:24:14.000Z</time>
      </trkpt>
      <trkpt lat="47.30186" lon="4.94471">
        <ele>433</ele>
        <time>2013-03-09T08:24:15.000Z</time>
      </trkpt>
      <trkpt lat="47.30185" lon="4.94475">
        <ele>432</ele>
        <time>2013-03-09T08:24:17.000Z</time>
      </trkpt>
      <trkpt lat="47.30184" lon="4.94478">
        <ele>432</ele>
        <time>2013-03-09T08:24:18.000Z</time>
      </trkpt>
      <trkpt lat="47.30184" lon="4.94482">
        <ele>432</ele>
        <time>2013-03-09T08:24:20.000Z</time>
      </trkpt>
      <trkpt lat="47.30183" lon="4.94485">
        <ele>432</ele>
        <time>2013-03-09T08:24:21.000Z</time>
      </trkpt>
      <trkpt lat="47.30181" lon="4.9449">
        <ele>431</ele>
        <time>2013-03-09T08:24:23.000Z</time>
      </trkpt>
      <trkpt lat="47.30181" lon="4.94493">
        <ele>431</ele>
        <time>2013-03-09T08:24:24.000Z</time>
      </trkpt>
      <trkpt lat="47.30182" lon="4.94497">
        <ele>431</ele>
        <time>2013-03-09T08:24:26.000Z</time>
      </trkpt>
      <trkpt lat="47.30183" lon="4.945">
        <ele>431</ele>
        <time>2013-03-09T08:24:27.000Z</time>
      </trkpt>
      <trkpt lat="47.30183" lon="4.94505">
        <ele>430</ele>
        <time>2013-03-09T08:24:29.000Z</time>
      </trkpt>
      <trkpt lat="47.30183" lon="4.94508">
        <ele>430</ele>
        <time>2013-03-09T08:24:30.000Z</time>
      </trkpt>
      <trkpt lat="47.30182" lon="4.94513">
        <ele>430</ele>
        <time>2013-03-09T08:24:32.000Z</time>
      </trkpt>
      <trkpt lat="47.30182" lon="4.94515">
        <ele>430</ele>
        <time>2013-03-09T08:24:33.000Z</time>
      </trkpt>
      <trkpt lat="47.30181" lon="4.9452">
        <ele>430</ele>
        <time>2013-03-09T08:24:35.000Z</time>
      </trkpt>
      <trkpt lat="47.3018" lon="4.94523">
        <ele>430</ele>
        <time>2013-03-09T08:24:36.000Z</time>
      </trkpt>
      <trkpt lat="47.30179" lon="4.94528">
        <ele>430</ele>
        <time>2013-03-09T08:24:38.000Z</time>
      </trkpt>
      <trkpt lat="47.30179" lon="4.94531">
        <ele>430</ele>
        <time>2013-03-09T08:24:39.000Z</time>
      </trkpt>
      <trkpt lat="47.30179" lon="4.94536">
        <ele>430</ele>
        <time>2013-03-09T08:24:41.000Z</time>
      </trkpt>
      <trkpt lat="47.30179" lon="4.94539">
        <ele>430</ele>
        <time>2013-03-09T08:24:42.000Z</time>
      </trkpt>
      <trkpt lat="47.30172" lon="4.94564">
        <ele>429</ele>
        <time>2013-03-09T08:24:51.000Z</time>
      </trkpt>
      <trkpt lat="47.30169" lon="4.94567">
        <ele>428</ele>
        <time>2013-03-09T08:24:53.000Z</time>
      </trkpt>
      <trkpt lat="47.30168" lon="4.94569">
        <ele>428</ele>
        <time>2013-03-09T08:24:54.000Z</time>
      </trkpt>
      <trkpt lat="47.30167" lon="4.94575">
        <ele>427</ele>
        <time>2013-03-09T08:24:57.000Z</time>
      </trkpt>
      <trkpt lat="47.30167" lon="4.94578">
        <ele>426</ele>
        <time>2013-03-09T08:24:58.000Z</time>
      </trkpt>
      <trkpt lat="47.30165" lon="4.94583">
        <ele>425</ele>
        <time>2013-03-09T08:25:00.000Z</time>
      </trkpt>
      <trkpt lat="47.30165" lon="4.94586">
        <ele>425</ele>
        <time>2013-03-09T08:25:01.000Z</time>
      </trkpt>
      <trkpt lat="47.30164" lon="4.94591">
        <ele>425</ele>
        <time>2013-03-09T08:25:03.000Z</time>
      </trkpt>
      <trkpt lat="47.30164" lon="4.94594">
        <ele>425</ele>
        <time>2013-03-09T08:25:04.000Z</time>
      </trkpt>
      <trkpt lat="47.30162" lon="4.94598">
        <ele>425</ele>
        <time>2013-03-09T08:25:06.000Z</time>
      </trkpt>
      <trkpt lat="47.30162" lon="4.94601">
        <ele>424</ele>
        <time>2013-03-09T08:25:07.000Z</time>
      </trkpt>
      <trkpt lat="47.30161" lon="4.94605">
        <ele>424</ele>
        <time>2013-03-09T08:25:09.000Z</time>
      </trkpt>
      <trkpt lat="47.3016" lon="4.94607">
        <ele>424</ele>
        <time>2013-03-09T08:25:10.000Z</time>
      </trkpt>
      <trkpt lat="47.30158" lon="4.94611">
        <ele>424</ele>
        <time>2013-03-09T08:25:12.000Z</time>
      </trkpt>
      <trkpt lat="47.30158" lon="4.94614">
        <ele>424</ele>
        <time>2013-03-09T08:25:13.000Z</time>
      </trkpt>
      <trkpt lat="47.30157" lon="4.94619">
        <ele>424</ele>
        <time>2013-03-09T08:25:15.000Z</time>
      </trkpt>
      <trkpt lat="47.30156" lon="4.94621">
        <ele>424</ele>
        <time>2013-03-09T08:25:16.000Z</time>
      </trkpt>
      <trkpt lat="47.30155" lon="4.94626">
        <ele>424</ele>
        <time>2013-03-09T08:25:18.000Z</time>
      </trkpt>
      <trkpt lat="47.30155" lon="4.94629">
        <ele>424</ele>
        <time>2013-03-09T08:25:19.000Z</time>
      </trkpt>
      <trkpt lat="47.30153" lon="4.94634">
        <ele>424</ele>
        <time>2013-03-09T08:25:21.000Z</time>
      </trkpt>
      <trkpt lat="47.30152" lon="4.94637">
        <ele>424</ele>
        <time>2013-03-09T08:25:22.000Z</time>
      </trkpt>
      <trkpt lat="47.30151" lon="4.94642">
        <ele>424</ele>
        <time>2013-03-09T08:25:24.000Z</time>
      </trkpt>
      <trkpt lat="47.3015" lon="4.94644">
        <ele>424</ele>
        <time>2013-03-09T08:25:25.000Z</time>
      </trkpt>
      <trkpt lat="47.30148" lon="4.94649">
        <ele>424</ele>
        <time>2013-03-09T08:25:27.000Z</time>
      </trkpt>
      <trkpt lat="47.30147" lon="4.94651">
        <ele>424</ele>
        <time>2013-03-09T08:25:28.000Z</time>
      </trkpt>
      <trkpt lat="47.30146" lon="4.94656">
        <ele>424</ele>
        <time>2013-03-09T08:25:30.000Z</time>
      </trkpt>
      <trkpt lat="47.30145" lon="4.94659">
        <ele>424</ele>
        <time>2013-03-09T08:25:31.000Z</time>
      </trkpt>
      <trkpt lat="47.30144" lon="4.94663">
        <ele>424</ele>
        <time>2013-03-09T08:25:33.000Z</time>
      </trkpt>
      <trkpt lat="47.30143" lon="4.94666">
        <ele>424</ele>
        <time>2013-03-09T08:25:34.000Z</time>
      </trkpt>
      <trkpt lat="47.30142" lon="4.94671">
        <ele>421</ele>
        <time>2013-03-09T08:25:36.000Z</time>
      </trkpt>
      <trkpt lat="47.30141" lon="4.94674">
        <ele>421</ele>
        <time>2013-03-09T08:25:37.000Z</time>
      </trkpt>
      <trkpt lat="47.3014" lon="4.9468">
        <ele>421</ele>
        <time>2013-03-09T08:25:40.000Z</time>
      </trkpt>
      <trkpt lat="47.30139" lon="4.94682">
        <ele>421</ele>
        <time>2013-03-09T08:25:41.000Z</time>
      </trkpt>
      <trkpt lat="47.30138" lon="4.94684">
        <ele>420</ele>
        <time>2013-03-09T08:25:42.000Z</time>
      </trkpt>
      <trkpt lat="47.30126" lon="4.94698">
        <ele>419</ele>
        <time>2013-03-09T08:25:51.000Z</time>
      </trkpt>
      <trkpt lat="47.30125" lon="4.94703">
        <ele>419</ele>
        <time>2013-03-09T08:25:55.000Z</time>
      </trkpt>
      <trkpt lat="47.30125" lon="4.94706">
        <ele>419</ele>
        <time>2013-03-09T08:25:56.000Z</time>
      </trkpt>
      <trkpt lat="47.30125" lon="4.94711">
        <ele>419</ele>
        <time>2013-03-09T08:25:58.000Z</time>
      </trkpt>
      <trkpt lat="47.30124" lon="4.94713">
        <ele>419</ele>
        <time>2013-03-09T08:25:59.000Z</time>
      </trkpt>
      <trkpt lat="47.30124" lon="4.94718">
        <ele>419</ele>
        <time>2013-03-09T08:26:01.000Z</time>
      </trkpt>
      <trkpt lat="47.30124" lon="4.9472">
        <ele>419</ele>
        <time>2013-03-09T08:26:02.000Z</time>
      </trkpt>
      <trkpt lat="47.30123" lon="4.94724">
        <ele>418</ele>
        <time>2013-03-09T08:26:04.000Z</time>
      </trkpt>
      <trkpt lat="47.30122" lon="4.94727">
        <ele>418</ele>
        <time>2013-03-09T08:26:05.000Z</time>
      </trkpt>
      <trkpt lat="47.30122" lon="4.94732">
        <ele>418</ele>
        <time>2013-03-09T08:26:07.000Z</time>
      </trkpt>
      <trkpt lat="47.30122" lon="4.94734">
        <ele>418</ele>
        <time>2013-03-09T08:26:08.000Z</time>
      </trkpt>
      <trkpt lat="47.3012" lon="4.9474">
        <ele>418</ele>
        <time>2013-03-09T08:26:11.000Z</time>
      </trkpt>
      <trkpt lat="47.30119" lon="4.94742">
        <ele>418</ele>
        <time>2013-03-09T08:26:12.000Z</time>
      </trkpt>
      <trkpt lat="47.30118" lon="4.94747">
        <ele>417</ele>
        <time>2013-03-09T08:26:14.000Z</time>
      </trkpt>
      <trkpt lat="47.30117" lon="4.94749">
        <ele>417</ele>
        <time>2013-03-09T08:26:15.000Z</time>
      </trkpt>
      <trkpt lat="47.30115" lon="4.94754">
        <ele>414</ele>
        <time>2013-03-09T08:26:17.000Z</time>
      </trkpt>
      <trkpt lat="47.30114" lon="4.94756">
        <ele>414</ele>
        <time>2013-03-09T08:26:18.000Z</time>
      </trkpt>
      <trkpt lat="47.30112" lon="4.9476">
        <ele>414</ele>
        <time>2013-03-09T08:26:20.000Z</time>
      </trkpt>
      <trkpt lat="47.30111" lon="4.94762">
        <ele>413</ele>
        <time>2013-03-09T08:26:21.000Z</time>
      </trkpt>
      <trkpt lat="47.3011" lon="4.94766">
        <ele>413</ele>
        <time>2013-03-09T08:26:23.000Z</time>
      </trkpt>
      <trkpt lat="47.30109" lon="4.94769">
        <ele>413</ele>
        <time>2013-03-09T08:26:24.000Z</time>
      </trkpt>
      <trkpt lat="47.30108" lon="4.94773">
        <ele>413</ele>
        <time>2013-03-09T08:26:26.000Z</time>
      </trkpt>
      <trkpt lat="47.30107" lon="4.94775">
        <ele>413</ele>
        <time>2013-03-09T08:26:27.000Z</time>
      </trkpt>
      <trkpt lat="47.30105" lon="4.94779">
        <ele>413</ele>
        <time>2013-03-09T08:26:29.000Z</time>
      </trkpt>
      <trkpt lat="47.30104" lon="4.94781">
        <ele>413</ele>
        <time>2013-03-09T08:26:30.000Z</time>
      </trkpt>
      <trkpt lat="47.30102" lon="4.94785">
        <ele>413</ele>
        <time>2013-03-09T08:26:32.000Z</time>
      </trkpt>
      <trkpt lat="47.30102" lon="4.94787">
        <ele>413</ele>
        <time>2013-03-09T08:26:33.000Z</time>
      </trkpt>
      <trkpt lat="47.301" lon="4.94792">
        <ele>413</ele>
        <time>2013-03-09T08:26:35.000Z</time>
      </trkpt>
      <trkpt lat="47.30099" lon="4.94794">
        <ele>412</ele>
        <time>2013-03-09T08:26:36.000Z</time>
      </trkpt>
      <trkpt lat="47.30098" lon="4.94799">
        <ele>412</ele>
        <time>2013-03-09T08:26:38.000Z</time>
      </trkpt>
      <trkpt lat="47.30098" lon="4.94801">
        <ele>412</ele>
        <time>2013-03-09T08:26:39.000Z</time>
      </trkpt>
      <trkpt lat="47.30096" lon="4.94805">
        <ele>412</ele>
        <time>2013-03-09T08:26:41.000Z</time>
      </trkpt>
      <trkpt lat="47.30095" lon="4.94807">
        <ele>412</ele>
        <time>2013-03-09T08:26:42.000Z</time>
      </trkpt>
      <trkpt lat="47.30087" lon="4.94823">
        <ele>410</ele>
        <time>2013-03-09T08:26:49.000Z</time>
      </trkpt>
      <trkpt lat="47.30085" lon="4.94828">
        <ele>409</ele>
        <time>2013-03-09T08:26:51.000Z</time>
      </trkpt>
      <trkpt lat="47.30084" lon="4.94829">
        <ele>409</ele>
        <time>2013-03-09T08:26:52.000Z</time>
      </trkpt>
      <trkpt lat="47.30082" lon="4.94835">
        <ele>408</ele>
        <time>2013-03-09T08:26:57.000Z</time>
      </trkpt>
      <trkpt lat="47.30081" lon="4.94837">
        <ele>408</ele>
        <time>2013-03-09T08:26:58.000Z</time>
      </trkpt>
      <trkpt lat="47.30078" lon="4.9484">
        <ele>409</ele>
        <time>2013-03-09T08:27:00.000Z</time>
      </trkpt>
      <trkpt lat="47.30077" lon="4.94841">
        <ele>409</ele>
        <time>2013-03-09T08:27:01.000Z</time>
      </trkpt>
      <trkpt lat="47.30075" lon="4.94843">
        <ele>409</ele>
        <time>2013-03-09T08:27:09.000Z</time>
      </trkpt>
      <trkpt lat="47.30073" lon="4.94843">
        <ele>409</ele>
        <time>2013-03-09T08:27:10.000Z</time>
      </trkpt>
      <trkpt lat="47.3007" lon="4.94847">
        <ele>409</ele>
        <time>2013-03-09T08:27:14.000Z</time>
      </trkpt>
      <trkpt lat="47.30069" lon="4.94848">
        <ele>410</ele>
        <time>2013-03-09T08:27:15.000Z</time>
      </trkpt>
      <trkpt lat="47.30066" lon="4.94852">
        <ele>410</ele>
        <time>2013-03-09T08:27:18.000Z</time>
      </trkpt>
      <trkpt lat="47.30065" lon="4.94853">
        <ele>410</ele>
        <time>2013-03-09T08:27:19.000Z</time>
      </trkpt>
      <trkpt lat="47.30061" lon="4.94856">
        <ele>410</ele>
        <time>2013-03-09T08:27:21.000Z</time>
      </trkpt>
      <trkpt lat="47.3006" lon="4.94857">
        <ele>410</ele>
        <time>2013-03-09T08:27:22.000Z</time>
      </trkpt>
      <trkpt lat="47.30058" lon="4.9486">
        <ele>410</ele>
        <time>2013-03-09T08:27:24.000Z</time>
      </trkpt>
      <trkpt lat="47.30056" lon="4.94862">
        <ele>410</ele>
        <time>2013-03-09T08:27:25.000Z</time>
      </trkpt>
      <trkpt lat="47.30054" lon="4.94867">
        <ele>410</ele>
        <time>2013-03-09T08:27:27.000Z</time>
      </trkpt>
      <trkpt lat="47.30053" lon="4.94869">
        <ele>411</ele>
        <time>2013-03-09T08:27:28.000Z</time>
      </trkpt>
      <trkpt lat="47.30052" lon="4.94874">
        <ele>411</ele>
        <time>2013-03-09T08:27:30.000Z</time>
      </trkpt>
      <trkpt lat="47.30051" lon="4.94876">
        <ele>411</ele>
        <time>2013-03-09T08:27:31.000Z</time>
      </trkpt>
      <trkpt lat="47.3005" lon="4.94881">
        <ele>411</ele>
        <time>2013-03-09T08:27:33.000Z</time>
      </trkpt>
      <trkpt lat="47.30049" lon="4.94883">
        <ele>411</ele>
        <time>2013-03-09T08:27:34.000Z</time>
      </trkpt>
      <trkpt lat="47.30049" lon="4.94889">
        <ele>411</ele>
        <time>2013-03-09T08:27:37.000Z</time>
      </trkpt>
      <trkpt lat="47.30049" lon="4.94892">
        <ele>411</ele>
        <time>2013-03-09T08:27:38.000Z</time>
      </trkpt>
      <trkpt lat="47.30049" lon="4.94897">
        <ele>411</ele>
        <time>2013-03-09T08:27:40.000Z</time>
      </trkpt>
      <trkpt lat="47.3005" lon="4.94899">
        <ele>411</ele>
        <time>2013-03-09T08:27:41.000Z</time>
      </trkpt>
      <trkpt lat="47.3005" lon="4.94905">
        <ele>411</ele>
        <time>2013-03-09T08:27:44.000Z</time>
      </trkpt>
      <trkpt lat="47.30051" lon="4.94907">
        <ele>411</ele>
        <time>2013-03-09T08:27:45.000Z</time>
      </trkpt>
      <trkpt lat="47.30052" lon="4.94913">
        <ele>410</ele>
        <time>2013-03-09T08:27:48.000Z</time>
      </trkpt>
      <trkpt lat="47.30053" lon="4.94915">
        <ele>410</ele>
        <time>2013-03-09T08:27:49.000Z</time>
      </trkpt>
      <trkpt lat="47.30054" lon="4.9492">
        <ele>410</ele>
        <time>2013-03-09T08:27:52.000Z</time>
      </trkpt>
      <trkpt lat="47.30055" lon="4.94923">
        <ele>410</ele>
        <time>2013-03-09T08:27:53.000Z</time>
      </trkpt>
      <trkpt lat="47.30056" lon="4.94929">
        <ele>410</ele>
        <time>2013-03-09T08:27:56.000Z</time>
      </trkpt>
      <trkpt lat="47.30056" lon="4.94931">
        <ele>410</ele>
        <time>2013-03-09T08:27:57.000Z</time>
      </trkpt>
      <trkpt lat="47.30057" lon="4.94935">
        <ele>410</ele>
        <time>2013-03-09T08:27:59.000Z</time>
      </trkpt>
      <trkpt lat="47.30058" lon="4.94938">
        <ele>410</ele>
        <time>2013-03-09T08:28:00.000Z</time>
      </trkpt>
      <trkpt lat="47.3006" lon="4.94942">
        <ele>410</ele>
        <time>2013-03-09T08:28:02.000Z</time>
      </trkpt>
      <trkpt lat="47.3006" lon="4.94945">
        <ele>410</ele>
        <time>2013-03-09T08:28:03.000Z</time>
      </trkpt>
      <trkpt lat="47.30062" lon="4.9495">
        <ele>410</ele>
        <time>2013-03-09T08:28:05.000Z</time>
      </trkpt>
      <trkpt lat="47.30062" lon="4.94952">
        <ele>410</ele>
        <time>2013-03-09T08:28:06.000Z</time>
      </trkpt>
      <trkpt lat="47.30064" lon="4.94957">
        <ele>410</ele>
        <time>2013-03-09T08:28:08.000Z</time>
      </trkpt>
      <trkpt lat="47.30064" lon="4.94959">
        <ele>410</ele>
        <time>2013-03-09T08:28:09.000Z</time>
      </trkpt>
      <trkpt lat="47.30065" lon="4.94964">
        <ele>410</ele>
        <time>2013-03-09T08:28:11.000Z</time>
      </trkpt>
      <trkpt lat="47.30066" lon="4.94966">
        <ele>410</ele>
        <time>2013-03-09T08:28:12.000Z</time>
      </trkpt>
      <trkpt lat="47.30066" lon="4.94971">
        <ele>410</ele>
        <time>2013-03-09T08:28:14.000Z</time>
      </trkpt>
      <trkpt lat="47.30067" lon="4.94973">
        <ele>410</ele>
        <time>2013-03-09T08:28:15.000Z</time>
      </trkpt>
      <trkpt lat="47.30067" lon="4.94978">
        <ele>410</ele>
        <time>2013-03-09T08:28:17.000Z</time>
      </trkpt>
      <trkpt lat="47.30068" lon="4.9498">
        <ele>409</ele>
        <time>2013-03-09T08:28:18.000Z</time>
      </trkpt>
      <trkpt lat="47.30069" lon="4.94985">
        <ele>409</ele>
        <time>2013-03-09T08:28:20.000Z</time>
      </trkpt>
      <trkpt lat="47.30069" lon="4.94987">
        <ele>409</ele>
        <time>2013-03-09T08:28:21.000Z</time>
      </trkpt>
      <trkpt lat="47.3007" lon="4.94992">
        <ele>409</ele>
        <time>2013-03-09T08:28:23.000Z</time>
      </trkpt>
      <trkpt lat="47.30071" lon="4.94994">
        <ele>409</ele>
        <time>2013-03-09T08:28:24.000Z</time>
      </trkpt>
      <trkpt lat="47.30071" lon="4.95">
        <ele>409</ele>
        <time>2013-03-09T08:28:26.000Z</time>
      </trkpt>
      <trkpt lat="47.30072" lon="4.95002">
        <ele>409</ele>
        <time>2013-03-09T08:28:27.000Z</time>
      </trkpt>
      <trkpt lat="47.30072" lon="4.95008">
        <ele>409</ele>
        <time>2013-03-09T08:28:30.000Z</time>
      </trkpt>
      <trkpt lat="47.30072" lon="4.9501">
        <ele>409</ele>
        <time>2013-03-09T08:28:31.000Z</time>
      </trkpt>
      <trkpt lat="47.30073" lon="4.95014">
        <ele>409</ele>
        <time>2013-03-09T08:28:33.000Z</time>
      </trkpt>
      <trkpt lat="47.30074" lon="4.95017">
        <ele>409</ele>
        <time>2013-03-09T08:28:34.000Z</time>
      </trkpt>
      <trkpt lat="47.30075" lon="4.95022">
        <ele>409</ele>
        <time>2013-03-09T08:28:37.000Z</time>
      </trkpt>
      <trkpt lat="47.30075" lon="4.95025">
        <ele>409</ele>
        <time>2013-03-09T08:28:38.000Z</time>
      </trkpt>
      <trkpt lat="47.30075" lon="4.95029">
        <ele>409</ele>
        <time>2013-03-09T08:28:40.000Z</time>
      </trkpt>
      <trkpt lat="47.30075" lon="4.95031">
        <ele>410</ele>
        <time>2013-03-09T08:28:41.000Z</time>
      </trkpt>
      <trkpt lat="47.30075" lon="4.95034">
        <ele>410</ele>
        <time>2013-03-09T08:28:42.000Z</time>
      </trkpt>
      <trkpt lat="47.3008" lon="4.95057">
        <ele>409</ele>
        <time>2013-03-09T08:28:49.000Z</time>
      </trkpt>
      <trkpt lat="47.3008" lon="4.95063">
        <ele>409</ele>
        <time>2013-03-09T08:28:52.000Z</time>
      </trkpt>
      <trkpt lat="47.30081" lon="4.95066">
        <ele>409</ele>
        <time>2013-03-09T08:28:53.000Z</time>
      </trkpt>
      <trkpt lat="47.3008" lon="4.95071">
        <ele>409</ele>
        <time>2013-03-09T08:28:56.000Z</time>
      </trkpt>
      <trkpt lat="47.3008" lon="4.95072">
        <ele>408</ele>
        <time>2013-03-09T08:28:57.000Z</time>
      </trkpt>
      <trkpt lat="47.30079" lon="4.95077">
        <ele>408</ele>
        <time>2013-03-09T08:29:00.000Z</time>
      </trkpt>
      <trkpt lat="47.30078" lon="4.95079">
        <ele>408</ele>
        <time>2013-03-09T08:29:01.000Z</time>
      </trkpt>
      <trkpt lat="47.30078" lon="4.95084">
        <ele>408</ele>
        <time>2013-03-09T08:29:04.000Z</time>
      </trkpt>
      <trkpt lat="47.30078" lon="4.95086">
        <ele>408</ele>
        <time>2013-03-09T08:29:05.000Z</time>
      </trkpt>
      <trkpt lat="47.30078" lon="4.95091">
        <ele>408</ele>
        <time>2013-03-09T08:29:08.000Z</time>
      </trkpt>
      <trkpt lat="47.30078" lon="4.95093">
        <ele>409</ele>
        <time>2013-03-09T08:29:09.000Z</time>
      </trkpt>
      <trkpt lat="47.30079" lon="4.95098">
        <ele>409</ele>
        <time>2013-03-09T08:29:11.000Z</time>
      </trkpt>
      <trkpt lat="47.30079" lon="4.95101">
        <ele>409</ele>
        <time>2013-03-09T08:29:12.000Z</time>
      </trkpt>
      <trkpt lat="47.3008" lon="4.95107">
        <ele>410</ele>
        <time>2013-03-09T08:29:14.000Z</time>
      </trkpt>
      <trkpt lat="47.30081" lon="4.9511">
        <ele>410</ele>
        <time>2013-03-09T08:29:15.000Z</time>
      </trkpt>
      <trkpt lat="47.30082" lon="4.95113">
        <ele>410</ele>
        <time>2013-03-09T08:29:16.000Z</time>
      </trkpt>
      <trkpt lat="47.30083" lon="4.95116">
        <ele>410</ele>
        <time>2013-03-09T08:29:17.000Z</time>
      </trkpt>
      <trkpt lat="47.30085" lon="4.95121">
        <ele>405</ele>
        <time>2013-03-09T08:29:19.000Z</time>
      </trkpt>
      <trkpt lat="47.30085" lon="4.95124">
        <ele>405</ele>
        <time>2013-03-09T08:29:20.000Z</time>
      </trkpt>
      <trkpt lat="47.30086" lon="4.95129">
        <ele>405</ele>
        <time>2013-03-09T08:29:22.000Z</time>
      </trkpt>
      <trkpt lat="47.30086" lon="4.95132">
        <ele>405</ele>
        <time>2013-03-09T08:29:23.000Z</time>
      </trkpt>
      <trkpt lat="47.30086" lon="4.95138">
        <ele>405</ele>
        <time>2013-03-09T08:29:25.000Z</time>
      </trkpt>
      <trkpt lat="47.30086" lon="4.95141">
        <ele>405</ele>
        <time>2013-03-09T08:29:26.000Z</time>
      </trkpt>
      <trkpt lat="47.30086" lon="4.95147">
        <ele>405</ele>
        <time>2013-03-09T08:29:28.000Z</time>
      </trkpt>
      <trkpt lat="47.30086" lon="4.95149">
        <ele>405</ele>
        <time>2013-03-09T08:29:29.000Z</time>
      </trkpt>
      <trkpt lat="47.30087" lon="4.95155">
        <ele>406</ele>
        <time>2013-03-09T08:29:31.000Z</time>
      </trkpt>
      <trkpt lat="47.30087" lon="4.95157">
        <ele>406</ele>
        <time>2013-03-09T08:29:32.000Z</time>
      </trkpt>
      <trkpt lat="47.30088" lon="4.95162">
        <ele>406</ele>
        <time>2013-03-09T08:29:34.000Z</time>
      </trkpt>
      <trkpt lat="47.30088" lon="4.95165">
        <ele>406</ele>
        <time>2013-03-09T08:29:35.000Z</time>
      </trkpt>
      <trkpt lat="47.30089" lon="4.95169">
        <ele>406</ele>
        <time>2013-03-09T08:29:37.000Z</time>
      </trkpt>
      <trkpt lat="47.30089" lon="4.95172">
        <ele>406</ele>
        <time>2013-03-09T08:29:38.000Z</time>
      </trkpt>
      <trkpt lat="47.3009" lon="4.95177">
        <ele>406</ele>
        <time>2013-03-09T08:29:41.000Z</time>
      </trkpt>
      <trkpt lat="47.3009" lon="4.9518">
        <ele>406</ele>
        <time>2013-03-09T08:29:42.000Z</time>
      </trkpt>
      <trkpt lat="47.30092" lon="4.95203">
        <ele>405</ele>
        <time>2013-03-09T08:29:49.000Z</time>
      </trkpt>
      <trkpt lat="47.30093" lon="4.95208">
        <ele>405</ele>
        <time>2013-03-09T08:29:52.000Z</time>
      </trkpt>
      <trkpt lat="47.30093" lon="4.95211">
        <ele>405</ele>
        <time>2013-03-09T08:29:53.000Z</time>
      </trkpt>
      <trkpt lat="47.30092" lon="4.95217">
        <ele>405</ele>
        <time>2013-03-09T08:29:56.000Z</time>
      </trkpt>
      <trkpt lat="47.30093" lon="4.95219">
        <ele>405</ele>
        <time>2013-03-09T08:29:57.000Z</time>
      </trkpt>
      <trkpt lat="47.30093" lon="4.95225">
        <ele>405</ele>
        <time>2013-03-09T08:30:01.000Z</time>
      </trkpt>
      <trkpt lat="47.30092" lon="4.95227">
        <ele>405</ele>
        <time>2013-03-09T08:30:02.000Z</time>
      </trkpt>
      <trkpt lat="47.30091" lon="4.95232">
        <ele>406</ele>
        <time>2013-03-09T08:30:05.000Z</time>
      </trkpt>
      <trkpt lat="47.30091" lon="4.95234">
        <ele>406</ele>
        <time>2013-03-09T08:30:06.000Z</time>
      </trkpt>
      <trkpt lat="47.30091" lon="4.95238">
        <ele>406</ele>
        <time>2013-03-09T08:30:08.000Z</time>
      </trkpt>
      <trkpt lat="47.30091" lon="4.9524">
        <ele>406</ele>
        <time>2013-03-09T08:30:09.000Z</time>
      </trkpt>
      <trkpt lat="47.30091" lon="4.95247">
        <ele>407</ele>
        <time>2013-03-09T08:30:11.000Z</time>
      </trkpt>
      <trkpt lat="47.30091" lon="4.9525">
        <ele>407</ele>
        <time>2013-03-09T08:30:12.000Z</time>
      </trkpt>
      <trkpt lat="47.30092" lon="4.95255">
        <ele>407</ele>
        <time>2013-03-09T08:30:15.000Z</time>
      </trkpt>
      <trkpt lat="47.30093" lon="4.95256">
        <ele>407</ele>
        <time>2013-03-09T08:30:16.000Z</time>
      </trkpt>
      <trkpt lat="47.30093" lon="4.95262">
        <ele>407</ele>
        <time>2013-03-09T08:30:19.000Z</time>
      </trkpt>
      <trkpt lat="47.30093" lon="4.95264">
        <ele>407</ele>
        <time>2013-03-09T08:30:20.000Z</time>
      </trkpt>
      <trkpt lat="47.30094" lon="4.95269">
        <ele>407</ele>
        <time>2013-03-09T08:30:22.000Z</time>
      </trkpt>
      <trkpt lat="47.30094" lon="4.95271">
        <ele>406</ele>
        <time>2013-03-09T08:30:23.000Z</time>
      </trkpt>
      <trkpt lat="47.30095" lon="4.95275">
        <ele>406</ele>
        <time>2013-03-09T08:30:25.000Z</time>
      </trkpt>
      <trkpt lat="47.30096" lon="4.95278">
        <ele>406</ele>
        <time>2013-03-09T08:30:26.000Z</time>
      </trkpt>
      <trkpt lat="47.30096" lon="4.95282">
        <ele>406</ele>
        <time>2013-03-09T08:30:28.000Z</time>
      </trkpt>
      <trkpt lat="47.30096" lon="4.95285">
        <ele>406</ele>
        <time>2013-03-09T08:30:29.000Z</time>
      </trkpt>
      <trkpt lat="47.30096" lon="4.9529">
        <ele>406</ele>
        <time>2013-03-09T08:30:31.000Z</time>
      </trkpt>
      <trkpt lat="47.30097" lon="4.95292">
        <ele>406</ele>
        <time>2013-03-09T08:30:32.000Z</time>
      </trkpt>
      <trkpt lat="47.30097" lon="4.95297">
        <ele>406</ele>
        <time>2013-03-09T08:30:35.000Z</time>
      </trkpt>
      <trkpt lat="47.30097" lon="4.953">
        <ele>407</ele>
        <time>2013-03-09T08:30:36.000Z</time>
      </trkpt>
      <trkpt lat="47.30097" lon="4.95305">
        <ele>407</ele>
        <time>2013-03-09T08:30:38.000Z</time>
      </trkpt>
      <trkpt lat="47.30097" lon="4.95308">
        <ele>407</ele>
        <time>2013-03-09T08:30:39.000Z</time>
      </trkpt>
      <trkpt lat="47.30097" lon="4.95312">
        <ele>407</ele>
        <time>2013-03-09T08:30:40.000Z</time>
      </trkpt>
      <trkpt lat="47.30098" lon="4.95316">
        <ele>407</ele>
        <time>2013-03-09T08:30:41.000Z</time>
      </trkpt>
      <trkpt lat="47.30099" lon="4.95319">
        <ele>407</ele>
        <time>2013-03-09T08:30:42.000Z</time>
      </trkpt>
      <trkpt lat="47.30105" lon="4.95344">
        <ele>408</ele>
        <time>2013-03-09T08:30:50.000Z</time>
      </trkpt>
      <trkpt lat="47.30106" lon="4.9535">
        <ele>408</ele>
        <time>2013-03-09T08:30:52.000Z</time>
      </trkpt>
      <trkpt lat="47.30106" lon="4.95352">
        <ele>408</ele>
        <time>2013-03-09T08:30:53.000Z</time>
      </trkpt>
      <trkpt lat="47.30107" lon="4.95357">
        <ele>408</ele>
        <time>2013-03-09T08:30:55.000Z</time>
      </trkpt>
      <trkpt lat="47.30107" lon="4.9536">
        <ele>408</ele>
        <time>2013-03-09T08:30:56.000Z</time>
      </trkpt>
      <trkpt lat="47.30108" lon="4.95364">
        <ele>408</ele>
        <time>2013-03-09T08:30:58.000Z</time>
      </trkpt>
      <trkpt lat="47.30109" lon="4.95367">
        <ele>408</ele>
        <time>2013-03-09T08:30:59.000Z</time>
      </trkpt>
      <trkpt lat="47.30108" lon="4.95371">
        <ele>408</ele>
        <time>2013-03-09T08:31:01.000Z</time>
      </trkpt>
      <trkpt lat="47.30108" lon="4.95374">
        <ele>408</ele>
        <time>2013-03-09T08:31:02.000Z</time>
      </trkpt>
      <trkpt lat="47.30108" lon="4.95378">
        <ele>408</ele>
        <time>2013-03-09T08:31:04.000Z</time>
      </trkpt>
      <trkpt lat="47.30108" lon="4.95381">
        <ele>408</ele>
        <time>2013-03-09T08:31:05.000Z</time>
      </trkpt>
      <trkpt lat="47.30109" lon="4.95385">
        <ele>408</ele>
        <time>2013-03-09T08:31:07.000Z</time>
      </trkpt>
      <trkpt lat="47.30109" lon="4.95388">
        <ele>408</ele>
        <time>2013-03-09T08:31:08.000Z</time>
      </trkpt>
      <trkpt lat="47.30109" lon="4.95392">
        <ele>408</ele>
        <time>2013-03-09T08:31:10.000Z</time>
      </trkpt>
      <trkpt lat="47.3011" lon="4.95394">
        <ele>408</ele>
        <time>2013-03-09T08:31:11.000Z</time>
      </trkpt>
      <trkpt lat="47.30111" lon="4.95401">
        <ele>409</ele>
        <time>2013-03-09T08:31:13.000Z</time>
      </trkpt>
      <trkpt lat="47.30112" lon="4.95404">
        <ele>409</ele>
        <time>2013-03-09T08:31:14.000Z</time>
      </trkpt>
      <trkpt lat="47.30112" lon="4.9541">
        <ele>409</ele>
        <time>2013-03-09T08:31:17.000Z</time>
      </trkpt>
      <trkpt lat="47.30113" lon="4.95413">
        <ele>409</ele>
        <time>2013-03-09T08:31:18.000Z</time>
      </trkpt>
      <trkpt lat="47.30114" lon="4.95419">
        <ele>410</ele>
        <time>2013-03-09T08:31:20.000Z</time>
      </trkpt>
      <trkpt lat="47.30114" lon="4.95421">
        <ele>410</ele>
        <time>2013-03-09T08:31:21.000Z</time>
      </trkpt>
      <trkpt lat="47.30115" lon="4.95426">
        <ele>410</ele>
        <time>2013-03-09T08:31:23.000Z</time>
      </trkpt>
      <trkpt lat="47.30115" lon="4.95429">
        <ele>410</ele>
        <time>2013-03-09T08:31:24.000Z</time>
      </trkpt>
      <trkpt lat="47.30114" lon="4.95435">
        <ele>410</ele>
        <time>2013-03-09T08:31:27.000Z</time>
      </trkpt>
      <trkpt lat="47.30114" lon="4.95437">
        <ele>410</ele>
        <time>2013-03-09T08:31:28.000Z</time>
      </trkpt>
      <trkpt lat="47.30114" lon="4.95443">
        <ele>410</ele>
        <time>2013-03-09T08:31:31.000Z</time>
      </trkpt>
      <trkpt lat="47.30115" lon="4.95445">
        <ele>410</ele>
        <time>2013-03-09T08:31:32.000Z</time>
      </trkpt>
      <trkpt lat="47.30114" lon="4.9545">
        <ele>410</ele>
        <time>2013-03-09T08:31:34.000Z</time>
      </trkpt>
      <trkpt lat="47.30114" lon="4.95453">
        <ele>410</ele>
        <time>2013-03-09T08:31:35.000Z</time>
      </trkpt>
      <trkpt lat="47.30114" lon="4.95457">
        <ele>410</ele>
        <time>2013-03-09T08:31:37.000Z</time>
      </trkpt>
      <trkpt lat="47.30114" lon="4.95461">
        <ele>410</ele>
        <time>2013-03-09T08:31:38.000Z</time>
      </trkpt>
      <trkpt lat="47.30115" lon="4.95467">
        <ele>410</ele>
        <time>2013-03-09T08:31:40.000Z</time>
      </trkpt>
      <trkpt lat="47.30115" lon="4.9547">
        <ele>410</ele>
        <time>2013-03-09T08:31:41.000Z</time>
      </trkpt>
      <trkpt lat="47.30115" lon="4.95472">
        <ele>410</ele>
        <time>2013-03-09T08:31:42.000Z</time>
      </trkpt>
      <trkpt lat="47.30118" lon="4.95496">
        <ele>411</ele>
        <time>2013-03-09T08:31:51.000Z</time>
      </trkpt>
      <trkpt lat="47.30117" lon="4.95501">
        <ele>412</ele>
        <time>2013-03-09T08:31:53.000Z</time>
      </trkpt>
      <trkpt lat="47.30117" lon="4.95503">
        <ele>412</ele>
        <time>2013-03-09T08:31:54.000Z</time>
      </trkpt>
      <trkpt lat="47.30118" lon="4.95509">
        <ele>412</ele>
        <time>2013-03-09T08:31:56.000Z</time>
      </trkpt>
      <trkpt lat="47.30118" lon="4.95512">
        <ele>412</ele>
        <time>2013-03-09T08:31:57.000Z</time>
      </trkpt>
      <trkpt lat="47.30119" lon="4.95516">
        <ele>412</ele>
        <time>2013-03-09T08:31:59.000Z</time>
      </trkpt>
      <trkpt lat="47.30119" lon="4.95519">
        <ele>412</ele>
        <time>2013-03-09T08:32:00.000Z</time>
      </trkpt>
      <trkpt lat="47.30119" lon="4.95524">
        <ele>412</ele>
        <time>2013-03-09T08:32:02.000Z</time>
      </trkpt>
      <trkpt lat="47.30119" lon="4.95526">
        <ele>412</ele>
        <time>2013-03-09T08:32:03.000Z</time>
      </trkpt>
      <trkpt lat="47.30118" lon="4.95531">
        <ele>412</ele>
        <time>2013-03-09T08:32:05.000Z</time>
      </trkpt>
      <trkpt lat="47.30118" lon="4.95534">
        <ele>412</ele>
        <time>2013-03-09T08:32:06.000Z</time>
      </trkpt>
      <trkpt lat="47.30117" lon="4.95539">
        <ele>412</ele>
        <time>2013-03-09T08:32:08.000Z</time>
      </trkpt>
      <trkpt lat="47.30117" lon="4.95541">
        <ele>412</ele>
        <time>2013-03-09T08:32:09.000Z</time>
      </trkpt>
      <trkpt lat="47.30117" lon="4.95547">
        <ele>412</ele>
        <time>2013-03-09T08:32:12.000Z</time>
      </trkpt>
      <trkpt lat="47.30117" lon="4.95549">
        <ele>413</ele>
        <time>2013-03-09T08:32:13.000Z</time>
      </trkpt>
      <trkpt lat="47.30117" lon="4.95554">
        <ele>413</ele>
        <time>2013-03-09T08:32:15.000Z</time>
      </trkpt>
      <trkpt lat="47.30117" lon="4.95556">
        <ele>413</ele>
        <time>2013-03-09T08:32:16.000Z</time>
      </trkpt>
      <trkpt lat="47.30118" lon="4.95562">
        <ele>413</ele>
        <time>2013-03-09T08:32:18.000Z</time>
      </trkpt>
      <trkpt lat="47.30118" lon="4.95564">
        <ele>413</ele>
        <time>2013-03-09T08:32:19.000Z</time>
      </trkpt>
      <trkpt lat="47.30119" lon="4.95569">
        <ele>413</ele>
        <time>2013-03-09T08:32:21.000Z</time>
      </trkpt>
      <trkpt lat="47.30118" lon="4.95571">
        <ele>413</ele>
        <time>2013-03-09T08:32:22.000Z</time>
      </trkpt>
      <trkpt lat="47.30119" lon="4.95576">
        <ele>413</ele>
        <time>2013-03-09T08:32:24.000Z</time>
      </trkpt>
      <trkpt lat="47.30119" lon="4.95579">
        <ele>413</ele>
        <time>2013-03-09T08:32:25.000Z</time>
      </trkpt>
      <trkpt lat="47.30119" lon="4.95583">
        <ele>413</ele>
        <time>2013-03-09T08:32:27.000Z</time>
      </trkpt>
      <trkpt lat="47.30119" lon="4.95585">
        <ele>415</ele>
        <time>2013-03-09T08:32:28.000Z</time>
      </trkpt>
      <trkpt lat="47.30119" lon="4.9559">
        <ele>415</ele>
        <time>2013-03-09T08:32:30.000Z</time>
      </trkpt>
      <trkpt lat="47.30119" lon="4.95593">
        <ele>415</ele>
        <time>2013-03-09T08:32:31.000Z</time>
      </trkpt>
      <trkpt lat="47.30119" lon="4.95598">
        <ele>415</ele>
        <time>2013-03-09T08:32:33.000Z</time>
      </trkpt>
      <trkpt lat="47.30119" lon="4.956">
        <ele>415</ele>
        <time>2013-03-09T08:32:34.000Z</time>
      </trkpt>
      <trkpt lat="47.30119" lon="4.95605">
        <ele>415</ele>
        <time>2013-03-09T08:32:36.000Z</time>
      </trkpt>
      <trkpt lat="47.30119" lon="4.95607">
        <ele>415</ele>
        <time>2013-03-09T08:32:37.000Z</time>
      </trkpt>
      <trkpt lat="47.30119" lon="4.95611">
        <ele>415</ele>
        <time>2013-03-09T08:32:39.000Z</time>
      </trkpt>
      <trkpt lat="47.30119" lon="4.95613">
        <ele>415</ele>
        <time>2013-03-09T08:32:40.000Z</time>
      </trkpt>
      <trkpt lat="47.30119" lon="4.95618">
        <ele>415</ele>
        <time>2013-03-09T08:32:42.000Z</time>
      </trkpt>
      <trkpt lat="47.30123" lon="4.9564">
        <ele>415</ele>
        <time>2013-03-09T08:32:50.000Z</time>
      </trkpt>
      <trkpt lat="47.30122" lon="4.95645">
        <ele>415</ele>
        <time>2013-03-09T08:32:53.000Z</time>
      </trkpt>
      <trkpt lat="47.30122" lon="4.95647">
        <ele>415</ele>
        <time>2013-03-09T08:32:54.000Z</time>
      </trkpt>
      <trkpt lat="47.30121" lon="4.95652">
        <ele>416</ele>
        <time>2013-03-09T08:32:56.000Z</time>
      </trkpt>
      <trkpt lat="47.30121" lon="4.95655">
        <ele>416</ele>
        <time>2013-03-09T08:32:57.000Z</time>
      </trkpt>
      <trkpt lat="47.30121" lon="4.95661">
        <ele>416</ele>
        <time>2013-03-09T08:33:00.000Z</time>
      </trkpt>
      <trkpt lat="47.30121" lon="4.95663">
        <ele>416</ele>
        <time>2013-03-09T08:33:01.000Z</time>
      </trkpt>
      <trkpt lat="47.30121" lon="4.95668">
        <ele>418</ele>
        <time>2013-03-09T08:33:03.000Z</time>
      </trkpt>
      <trkpt lat="47.30121" lon="4.9567">
        <ele>418</ele>
        <time>2013-03-09T08:33:04.000Z</time>
      </trkpt>
      <trkpt lat="47.30122" lon="4.95675">
        <ele>418</ele>
        <time>2013-03-09T08:33:06.000Z</time>
      </trkpt>
      <trkpt lat="47.30121" lon="4.95677">
        <ele>418</ele>
        <time>2013-03-09T08:33:07.000Z</time>
      </trkpt>
      <trkpt lat="47.30122" lon="4.95682">
        <ele>418</ele>
        <time>2013-03-09T08:33:09.000Z</time>
      </trkpt>
      <trkpt lat="47.30122" lon="4.95685">
        <ele>418</ele>
        <time>2013-03-09T08:33:10.000Z</time>
      </trkpt>
      <trkpt lat="47.30122" lon="4.95689">
        <ele>418</ele>
        <time>2013-03-09T08:33:12.000Z</time>
      </trkpt>
      <trkpt lat="47.30123" lon="4.95692">
        <ele>418</ele>
        <time>2013-03-09T08:33:13.000Z</time>
      </trkpt>
      <trkpt lat="47.30123" lon="4.95697">
        <ele>418</ele>
        <time>2013-03-09T08:33:15.000Z</time>
      </trkpt>
      <trkpt lat="47.30123" lon="4.95699">
        <ele>418</ele>
        <time>2013-03-09T08:33:16.000Z</time>
      </trkpt>
      <trkpt lat="47.30124" lon="4.95704">
        <ele>418</ele>
        <time>2013-03-09T08:33:18.000Z</time>
      </trkpt>
      <trkpt lat="47.30124" lon="4.95706">
        <ele>418</ele>
        <time>2013-03-09T08:33:19.000Z</time>
      </trkpt>
      <trkpt lat="47.30124" lon="4.9571">
        <ele>418</ele>
        <time>2013-03-09T08:33:21.000Z</time>
      </trkpt>
      <trkpt lat="47.30124" lon="4.95713">
        <ele>418</ele>
        <time>2013-03-09T08:33:22.000Z</time>
      </trkpt>
      <trkpt lat="47.30124" lon="4.95718">
        <ele>419</ele>
        <time>2013-03-09T08:33:24.000Z</time>
      </trkpt>
      <trkpt lat="47.30124" lon="4.9572">
        <ele>419</ele>
        <time>2013-03-09T08:33:25.000Z</time>
      </trkpt>
      <trkpt lat="47.30125" lon="4.95727">
        <ele>419</ele>
        <time>2013-03-09T08:33:28.000Z</time>
      </trkpt>
      <trkpt lat="47.30125" lon="4.95728">
        <ele>419</ele>
        <time>2013-03-09T08:33:29.000Z</time>
      </trkpt>
      <trkpt lat="47.30125" lon="4.95733">
        <ele>419</ele>
        <time>2013-03-09T08:33:32.000Z</time>
      </trkpt>
      <trkpt lat="47.30125" lon="4.95735">
        <ele>419</ele>
        <time>2013-03-09T08:33:33.000Z</time>
      </trkpt>
      <trkpt lat="47.30125" lon="4.9574">
        <ele>419</ele>
        <time>2013-03-09T08:33:35.000Z</time>
      </trkpt>
      <trkpt lat="47.30125" lon="4.95742">
        <ele>419</ele>
        <time>2013-03-09T08:33:36.000Z</time>
      </trkpt>
      <trkpt lat="47.30125" lon="4.95747">
        <ele>419</ele>
        <time>2013-03-09T08:33:38.000Z</time>
      </trkpt>
      <trkpt lat="47.30125" lon="4.95749">
        <ele>419</ele>
        <time>2013-03-09T08:33:39.000Z</time>
      </trkpt>
      <trkpt lat="47.30125" lon="4.95755">
        <ele>421</ele>
        <time>2013-03-09T08:33:42.000Z</time>
      </trkpt>
      <trkpt lat="47.30117" lon="4.9578">
        <ele>421</ele>
        <time>2013-03-09T08:33:50.000Z</time>
      </trkpt>
      <trkpt lat="47.30118" lon="4.95787">
        <ele>421</ele>
        <time>2013-03-09T08:33:54.000Z</time>
      </trkpt>
      <trkpt lat="47.30118" lon="4.95788">
        <ele>421</ele>
        <time>2013-03-09T08:33:55.000Z</time>
      </trkpt>
      <trkpt lat="47.30118" lon="4.95794">
        <ele>422</ele>
        <time>2013-03-09T08:33:58.000Z</time>
      </trkpt>
      <trkpt lat="47.30118" lon="4.95796">
        <ele>422</ele>
        <time>2013-03-09T08:33:59.000Z</time>
      </trkpt>
      <trkpt lat="47.30118" lon="4.958">
        <ele>422</ele>
        <time>2013-03-09T08:34:01.000Z</time>
      </trkpt>
      <trkpt lat="47.30117" lon="4.95803">
        <ele>422</ele>
        <time>2013-03-09T08:34:02.000Z</time>
      </trkpt>
      <trkpt lat="47.30117" lon="4.95808">
        <ele>422</ele>
        <time>2013-03-09T08:34:04.000Z</time>
      </trkpt>
      <trkpt lat="47.30116" lon="4.9581">
        <ele>422</ele>
        <time>2013-03-09T08:34:05.000Z</time>
      </trkpt>
      <trkpt lat="47.30116" lon="4.95814">
        <ele>422</ele>
        <time>2013-03-09T08:34:07.000Z</time>
      </trkpt>
      <trkpt lat="47.30116" lon="4.95817">
        <ele>422</ele>
        <time>2013-03-09T08:34:08.000Z</time>
      </trkpt>
      <trkpt lat="47.30115" lon="4.95821">
        <ele>422</ele>
        <time>2013-03-09T08:34:10.000Z</time>
      </trkpt>
      <trkpt lat="47.30114" lon="4.95823">
        <ele>422</ele>
        <time>2013-03-09T08:34:11.000Z</time>
      </trkpt>
      <trkpt lat="47.30112" lon="4.95829">
        <ele>422</ele>
        <time>2013-03-09T08:34:14.000Z</time>
      </trkpt>
      <trkpt lat="47.30111" lon="4.95831">
        <ele>422</ele>
        <time>2013-03-09T08:34:15.000Z</time>
      </trkpt>
      <trkpt lat="47.3011" lon="4.95835">
        <ele>424</ele>
        <time>2013-03-09T08:34:17.000Z</time>
      </trkpt>
      <trkpt lat="47.30109" lon="4.95837">
        <ele>424</ele>
        <time>2013-03-09T08:34:18.000Z</time>
      </trkpt>
      <trkpt lat="47.30107" lon="4.9584">
        <ele>424</ele>
        <time>2013-03-09T08:34:20.000Z</time>
      </trkpt>
      <trkpt lat="47.30106" lon="4.95843">
        <ele>424</ele>
        <time>2013-03-09T08:34:21.000Z</time>
      </trkpt>
      <trkpt lat="47.30105" lon="4.95846">
        <ele>424</ele>
        <time>2013-03-09T08:34:23.000Z</time>
      </trkpt>
      <trkpt lat="47.30104" lon="4.95848">
        <ele>424</ele>
        <time>2013-03-09T08:34:24.000Z</time>
      </trkpt>
      <trkpt lat="47.30102" lon="4.95852">
        <ele>424</ele>
        <time>2013-03-09T08:34:26.000Z</time>
      </trkpt>
      <trkpt lat="47.30101" lon="4.95854">
        <ele>424</ele>
        <time>2013-03-09T08:34:27.000Z</time>
      </trkpt>
      <trkpt lat="47.30099" lon="4.95858">
        <ele>424</ele>
        <time>2013-03-09T08:34:29.000Z</time>
      </trkpt>
      <trkpt lat="47.30099" lon="4.9586">
        <ele>424</ele>
        <time>2013-03-09T08:34:30.000Z</time>
      </trkpt>
      <trkpt lat="47.30097" lon="4.95864">
        <ele>424</ele>
        <time>2013-03-09T08:34:32.000Z</time>
      </trkpt>
      <trkpt lat="47.30096" lon="4.95866">
        <ele>424</ele>
        <time>2013-03-09T08:34:33.000Z</time>
      </trkpt>
      <trkpt lat="47.30094" lon="4.9587">
        <ele>424</ele>
        <time>2013-03-09T08:34:35.000Z</time>
      </trkpt>
      <trkpt lat="47.30093" lon="4.95872">
        <ele>424</ele>
        <time>2013-03-09T08:34:36.000Z</time>
      </trkpt>
      <trkpt lat="47.30091" lon="4.95876">
        <ele>425</ele>
        <time>2013-03-09T08:34:38.000Z</time>
      </trkpt>
      <trkpt lat="47.3009" lon="4.95878">
        <ele>425</ele>
        <time>2013-03-09T08:34:39.000Z</time>
      </trkpt>
      <trkpt lat="47.30087" lon="4.95881">
        <ele>425</ele>
        <time>2013-03-09T08:34:41.000Z</time>
      </trkpt>
      <trkpt lat="47.30086" lon="4.95883">
        <ele>425</ele>
        <time>2013-03-09T08:34:42.000Z</time>
      </trkpt>
      <trkpt lat="47.30085" lon="4.95885">
        <ele>425</ele>
        <time>2013-03-09T08:34:43.000Z</time>
      </trkpt>
      <trkpt lat="47.30068" lon="4.95909">
        <ele>427</ele>
        <time>2013-03-09T08:34:50.000Z</time>
      </trkpt>
      <trkpt lat="47.30064" lon="4.95912">
        <ele>427</ele>
        <time>2013-03-09T08:34:52.000Z</time>
      </trkpt>
      <trkpt lat="47.30063" lon="4.95914">
        <ele>427</ele>
        <time>2013-03-09T08:34:53.000Z</time>
      </trkpt>
      <trkpt lat="47.30061" lon="4.95918">
        <ele>426</ele>
        <time>2013-03-09T08:34:55.000Z</time>
      </trkpt>
      <trkpt lat="47.3006" lon="4.9592">
        <ele>426</ele>
        <time>2013-03-09T08:34:56.000Z</time>
      </trkpt>
      <trkpt lat="47.30058" lon="4.95924">
        <ele>426</ele>
        <time>2013-03-09T08:34:59.000Z</time>
      </trkpt>
      <trkpt lat="47.30057" lon="4.95925">
        <ele>426</ele>
        <time>2013-03-09T08:35:00.000Z</time>
      </trkpt>
      <trkpt lat="47.30053" lon="4.95928">
        <ele>426</ele>
        <time>2013-03-09T08:35:03.000Z</time>
      </trkpt>
      <trkpt lat="47.30052" lon="4.9593">
        <ele>426</ele>
        <time>2013-03-09T08:35:04.000Z</time>
      </trkpt>
      <trkpt lat="47.3005" lon="4.95935">
        <ele>426</ele>
        <time>2013-03-09T08:35:07.000Z</time>
      </trkpt>
      <trkpt lat="47.30049" lon="4.95936">
        <ele>426</ele>
        <time>2013-03-09T08:35:08.000Z</time>
      </trkpt>
      <trkpt lat="47.30047" lon="4.95941">
        <ele>426</ele>
        <time>2013-03-09T08:35:12.000Z</time>
      </trkpt>
      <trkpt lat="47.30047" lon="4.95942">
        <ele>426</ele>
        <time>2013-03-09T08:35:13.000Z</time>
      </trkpt>
      <trkpt lat="47.30045" lon="4.95943">
        <ele>426</ele>
        <time>2013-03-09T08:35:43.000Z</time>
      </trkpt>
      <trkpt lat="47.30049" lon="4.95925">
        <ele>426</ele>
        <time>2013-03-09T08:35:50.000Z</time>
      </trkpt>
      <trkpt lat="47.30051" lon="4.95926">
        <ele>426</ele>
        <time>2013-03-09T08:37:43.000Z</time>
      </trkpt>
      <trkpt lat="47.30046" lon="4.95932">
        <ele>426</ele>
        <time>2013-03-09T08:37:50.000Z</time>
      </trkpt>
      <trkpt lat="47.30047" lon="4.95932">
        <ele>426</ele>
        <time>2013-03-09T08:38:43.000Z</time>
      </trkpt>
      <trkpt lat="47.30031" lon="4.95934">
        <ele>426</ele>
        <time>2013-03-09T08:38:51.000Z</time>
      </trkpt>
      <trkpt lat="47.30034" lon="4.95934">
        <ele>426</ele>
        <time>2013-03-09T08:39:26.000Z</time>
      </trkpt>
      <trkpt lat="47.30041" lon="4.95926">
        <ele>426</ele>
        <time>2013-03-09T08:39:27.000Z</time>
      </trkpt>
      <trkpt lat="47.30042" lon="4.95926">
        <ele>426</ele>
        <time>2013-03-09T08:39:43.000Z</time>
      </trkpt>
      <trkpt lat="47.30039" lon="4.95944">
        <ele>425</ele>
        <time>2013-03-09T08:39:51.000Z</time>
      </trkpt>
      <trkpt lat="47.30041" lon="4.95938">
        <ele>426</ele>
        <time>2013-03-09T08:39:52.000Z</time>
      </trkpt>
      <trkpt lat="47.30041" lon="4.95937">
        <ele>426</ele>
        <time>2013-03-09T08:39:53.000Z</time>
      </trkpt>
      <trkpt lat="47.3004" lon="4.95942">
        <ele>425</ele>
        <time>2013-03-09T08:39:54.000Z</time>
      </trkpt>
      <trkpt lat="47.3004" lon="4.95946">
        <ele>425</ele>
        <time>2013-03-09T08:39:55.000Z</time>
      </trkpt>
      <trkpt lat="47.30038" lon="4.95951">
        <ele>425</ele>
        <time>2013-03-09T08:39:57.000Z</time>
      </trkpt>
      <trkpt lat="47.30037" lon="4.95953">
        <ele>425</ele>
        <time>2013-03-09T08:39:58.000Z</time>
      </trkpt>
      <trkpt lat="47.30036" lon="4.95958">
        <ele>425</ele>
        <time>2013-03-09T08:40:01.000Z</time>
      </trkpt>
      <trkpt lat="47.30036" lon="4.9596">
        <ele>425</ele>
        <time>2013-03-09T08:40:02.000Z</time>
      </trkpt>
      <trkpt lat="47.30036" lon="4.95966">
        <ele>425</ele>
        <time>2013-03-09T08:40:05.000Z</time>
      </trkpt>
      <trkpt lat="47.30037" lon="4.95967">
        <ele>425</ele>
        <time>2013-03-09T08:40:06.000Z</time>
      </trkpt>
      <trkpt lat="47.30038" lon="4.95972">
        <ele>425</ele>
        <time>2013-03-09T08:40:09.000Z</time>
      </trkpt>
      <trkpt lat="47.30038" lon="4.95974">
        <ele>425</ele>
        <time>2013-03-09T08:40:10.000Z</time>
      </trkpt>
      <trkpt lat="47.30037" lon="4.95979">
        <ele>425</ele>
        <time>2013-03-09T08:40:13.000Z</time>
      </trkpt>
      <trkpt lat="47.30037" lon="4.95981">
        <ele>425</ele>
        <time>2013-03-09T08:40:14.000Z</time>
      </trkpt>
      <trkpt lat="47.30036" lon="4.95986">
        <ele>425</ele>
        <time>2013-03-09T08:40:16.000Z</time>
      </trkpt>
      <trkpt lat="47.30036" lon="4.95988">
        <ele>425</ele>
        <time>2013-03-09T08:40:17.000Z</time>
      </trkpt>
      <trkpt lat="47.30035" lon="4.95994">
        <ele>425</ele>
        <time>2013-03-09T08:40:20.000Z</time>
      </trkpt>
      <trkpt lat="47.30034" lon="4.95996">
        <ele>425</ele>
        <time>2013-03-09T08:40:21.000Z</time>
      </trkpt>
      <trkpt lat="47.30033" lon="4.96">
        <ele>423</ele>
        <time>2013-03-09T08:40:23.000Z</time>
      </trkpt>
      <trkpt lat="47.30032" lon="4.96003">
        <ele>423</ele>
        <time>2013-03-09T08:40:24.000Z</time>
      </trkpt>
      <trkpt lat="47.30031" lon="4.96008">
        <ele>423</ele>
        <time>2013-03-09T08:40:27.000Z</time>
      </trkpt>
      <trkpt lat="47.3003" lon="4.9601">
        <ele>423</ele>
        <time>2013-03-09T08:40:28.000Z</time>
      </trkpt>
      <trkpt lat="47.30029" lon="4.96014">
        <ele>423</ele>
        <time>2013-03-09T08:40:30.000Z</time>
      </trkpt>
      <trkpt lat="47.30028" lon="4.96016">
        <ele>423</ele>
        <time>2013-03-09T08:40:31.000Z</time>
      </trkpt>
      <trkpt lat="47.30026" lon="4.96021">
        <ele>423</ele>
        <time>2013-03-09T08:40:33.000Z</time>
      </trkpt>
      <trkpt lat="47.30026" lon="4.96023">
        <ele>423</ele>
        <time>2013-03-09T08:40:34.000Z</time>
      </trkpt>
      <trkpt lat="47.30025" lon="4.96027">
        <ele>423</ele>
        <time>2013-03-09T08:40:36.000Z</time>
      </trkpt>
      <trkpt lat="47.30024" lon="4.96029">
        <ele>423</ele>
        <time>2013-03-09T08:40:37.000Z</time>
      </trkpt>
      <trkpt lat="47.30023" lon="4.96034">
        <ele>423</ele>
        <time>2013-03-09T08:40:39.000Z</time>
      </trkpt>
      <trkpt lat="47.30022" lon="4.96037">
        <ele>423</ele>
        <time>2013-03-09T08:40:40.000Z</time>
      </trkpt>
      <trkpt lat="47.30021" lon="4.96041">
        <ele>423</ele>
        <time>2013-03-09T08:40:42.000Z</time>
      </trkpt>
      <trkpt lat="47.30021" lon="4.96043">
        <ele>423</ele>
        <time>2013-03-09T08:40:43.000Z</time>
      </trkpt>
      <trkpt lat="47.30007" lon="4.96071">
        <ele>422</ele>
        <time>2013-03-09T08:40:50.000Z</time>
      </trkpt>
      <trkpt lat="47.30007" lon="4.96077">
        <ele>422</ele>
        <time>2013-03-09T08:40:52.000Z</time>
      </trkpt>
      <trkpt lat="47.30007" lon="4.9608">
        <ele>422</ele>
        <time>2013-03-09T08:40:53.000Z</time>
      </trkpt>
      <trkpt lat="47.30007" lon="4.96086">
        <ele>422</ele>
        <time>2013-03-09T08:40:56.000Z</time>
      </trkpt>
      <trkpt lat="47.30007" lon="4.96087">
        <ele>422</ele>
        <time>2013-03-09T08:40:57.000Z</time>
      </trkpt>
      <trkpt lat="47.30008" lon="4.96094">
        <ele>422</ele>
        <time>2013-03-09T08:41:01.000Z</time>
      </trkpt>
      <trkpt lat="47.30009" lon="4.96095">
        <ele>422</ele>
        <time>2013-03-09T08:41:02.000Z</time>
      </trkpt>
      <trkpt lat="47.3001" lon="4.96101">
        <ele>422</ele>
        <time>2013-03-09T08:41:05.000Z</time>
      </trkpt>
      <trkpt lat="47.3001" lon="4.96103">
        <ele>422</ele>
        <time>2013-03-09T08:41:06.000Z</time>
      </trkpt>
      <trkpt lat="47.3001" lon="4.96108">
        <ele>422</ele>
        <time>2013-03-09T08:41:08.000Z</time>
      </trkpt>
      <trkpt lat="47.3001" lon="4.9611">
        <ele>422</ele>
        <time>2013-03-09T08:41:09.000Z</time>
      </trkpt>
      <trkpt lat="47.30011" lon="4.96115">
        <ele>421</ele>
        <time>2013-03-09T08:41:11.000Z</time>
      </trkpt>
      <trkpt lat="47.30011" lon="4.96117">
        <ele>421</ele>
        <time>2013-03-09T08:41:12.000Z</time>
      </trkpt>
      <trkpt lat="47.30012" lon="4.96122">
        <ele>421</ele>
        <time>2013-03-09T08:41:14.000Z</time>
      </trkpt>
      <trkpt lat="47.30012" lon="4.96124">
        <ele>421</ele>
        <time>2013-03-09T08:41:15.000Z</time>
      </trkpt>
      <trkpt lat="47.30013" lon="4.9613">
        <ele>421</ele>
        <time>2013-03-09T08:41:17.000Z</time>
      </trkpt>
      <trkpt lat="47.30013" lon="4.96132">
        <ele>421</ele>
        <time>2013-03-09T08:41:18.000Z</time>
      </trkpt>
      <trkpt lat="47.30013" lon="4.96137">
        <ele>421</ele>
        <time>2013-03-09T08:41:20.000Z</time>
      </trkpt>
      <trkpt lat="47.30013" lon="4.96139">
        <ele>421</ele>
        <time>2013-03-09T08:41:21.000Z</time>
      </trkpt>
      <trkpt lat="47.30012" lon="4.96144">
        <ele>421</ele>
        <time>2013-03-09T08:41:23.000Z</time>
      </trkpt>
      <trkpt lat="47.30012" lon="4.96146">
        <ele>421</ele>
        <time>2013-03-09T08:41:24.000Z</time>
      </trkpt>
      <trkpt lat="47.30012" lon="4.96151">
        <ele>421</ele>
        <time>2013-03-09T08:41:26.000Z</time>
      </trkpt>
      <trkpt lat="47.30012" lon="4.96154">
        <ele>421</ele>
        <time>2013-03-09T08:41:27.000Z</time>
      </trkpt>
      <trkpt lat="47.30011" lon="4.96159">
        <ele>421</ele>
        <time>2013-03-09T08:41:29.000Z</time>
      </trkpt>
      <trkpt lat="47.30011" lon="4.96161">
        <ele>421</ele>
        <time>2013-03-09T08:41:30.000Z</time>
      </trkpt>
      <trkpt lat="47.30011" lon="4.96165">
        <ele>421</ele>
        <time>2013-03-09T08:41:32.000Z</time>
      </trkpt>
      <trkpt lat="47.30011" lon="4.96168">
        <ele>420</ele>
        <time>2013-03-09T08:41:33.000Z</time>
      </trkpt>
      <trkpt lat="47.30011" lon="4.96173">
        <ele>420</ele>
        <time>2013-03-09T08:41:35.000Z</time>
      </trkpt>
      <trkpt lat="47.30011" lon="4.96175">
        <ele>420</ele>
        <time>2013-03-09T08:41:36.000Z</time>
      </trkpt>
      <trkpt lat="47.30011" lon="4.96182">
        <ele>420</ele>
        <time>2013-03-09T08:41:39.000Z</time>
      </trkpt>
      <trkpt lat="47.30012" lon="4.96183">
        <ele>420</ele>
        <time>2013-03-09T08:41:40.000Z</time>
      </trkpt>
      <trkpt lat="47.30014" lon="4.96188">
        <ele>420</ele>
        <time>2013-03-09T08:41:43.000Z</time>
      </trkpt>
      <trkpt lat="47.30007" lon="4.96209">
        <ele>420</ele>
        <time>2013-03-09T08:41:50.000Z</time>
      </trkpt>
      <trkpt lat="47.30009" lon="4.96212">
        <ele>420</ele>
        <time>2013-03-09T08:41:52.000Z</time>
      </trkpt>
      <trkpt lat="47.30011" lon="4.96213">
        <ele>420</ele>
        <time>2013-03-09T08:41:53.000Z</time>
      </trkpt>
      <trkpt lat="47.30013" lon="4.96216">
        <ele>420</ele>
        <time>2013-03-09T08:41:55.000Z</time>
      </trkpt>
      <trkpt lat="47.30015" lon="4.96218">
        <ele>420</ele>
        <time>2013-03-09T08:41:56.000Z</time>
      </trkpt>
      <trkpt lat="47.30017" lon="4.96222">
        <ele>420</ele>
        <time>2013-03-09T08:41:58.000Z</time>
      </trkpt>
      <trkpt lat="47.30019" lon="4.96224">
        <ele>420</ele>
        <time>2013-03-09T08:41:59.000Z</time>
      </trkpt>
      <trkpt lat="47.30021" lon="4.96227">
        <ele>420</ele>
        <time>2013-03-09T08:42:01.000Z</time>
      </trkpt>
      <trkpt lat="47.30022" lon="4.96228">
        <ele>420</ele>
        <time>2013-03-09T08:42:02.000Z</time>
      </trkpt>
      <trkpt lat="47.30025" lon="4.96231">
        <ele>420</ele>
        <time>2013-03-09T08:42:04.000Z</time>
      </trkpt>
      <trkpt lat="47.30026" lon="4.96232">
        <ele>420</ele>
        <time>2013-03-09T08:42:05.000Z</time>
      </trkpt>
      <trkpt lat="47.30029" lon="4.96236">
        <ele>420</ele>
        <time>2013-03-09T08:42:07.000Z</time>
      </trkpt>
      <trkpt lat="47.30029" lon="4.96238">
        <ele>420</ele>
        <time>2013-03-09T08:42:08.000Z</time>
      </trkpt>
      <trkpt lat="47.30031" lon="4.96243">
        <ele>420</ele>
        <time>2013-03-09T08:42:10.000Z</time>
      </trkpt>
      <trkpt lat="47.30031" lon="4.96246">
        <ele>420</ele>
        <time>2013-03-09T08:42:11.000Z</time>
      </trkpt>
      <trkpt lat="47.30031" lon="4.96251">
        <ele>418</ele>
        <time>2013-03-09T08:42:13.000Z</time>
      </trkpt>
      <trkpt lat="47.30031" lon="4.96253">
        <ele>418</ele>
        <time>2013-03-09T08:42:14.000Z</time>
      </trkpt>
      <trkpt lat="47.3003" lon="4.96258">
        <ele>418</ele>
        <time>2013-03-09T08:42:17.000Z</time>
      </trkpt>
      <trkpt lat="47.3003" lon="4.96259">
        <ele>418</ele>
        <time>2013-03-09T08:42:18.000Z</time>
      </trkpt>
      <trkpt lat="47.30027" lon="4.96264">
        <ele>418</ele>
        <time>2013-03-09T08:42:22.000Z</time>
      </trkpt>
      <trkpt lat="47.30026" lon="4.96265">
        <ele>418</ele>
        <time>2013-03-09T08:42:23.000Z</time>
      </trkpt>
      <trkpt lat="47.30024" lon="4.96269">
        <ele>418</ele>
        <time>2013-03-09T08:42:27.000Z</time>
      </trkpt>
      <trkpt lat="47.30023" lon="4.96271">
        <ele>418</ele>
        <time>2013-03-09T08:42:28.000Z</time>
      </trkpt>
      <trkpt lat="47.30023" lon="4.96277">
        <ele>418</ele>
        <time>2013-03-09T08:42:32.000Z</time>
      </trkpt>
      <trkpt lat="47.30023" lon="4.96278">
        <ele>418</ele>
        <time>2013-03-09T08:42:33.000Z</time>
      </trkpt>
      <trkpt lat="47.30024" lon="4.96283">
        <ele>418</ele>
        <time>2013-03-09T08:42:36.000Z</time>
      </trkpt>
      <trkpt lat="47.30024" lon="4.96284">
        <ele>418</ele>
        <time>2013-03-09T08:42:37.000Z</time>
      </trkpt>
      <trkpt lat="47.30026" lon="4.9629">
        <ele>418</ele>
        <time>2013-03-09T08:42:41.000Z</time>
      </trkpt>
      <trkpt lat="47.30026" lon="4.96291">
        <ele>418</ele>
        <time>2013-03-09T08:42:42.000Z</time>
      </trkpt>
      <trkpt lat="47.30026" lon="4.96292">
        <ele>418</ele>
        <time>2013-03-09T08:42:43.000Z</time>
      </trkpt>
      <trkpt lat="47.30016" lon="4.96313">
        <ele>417</ele>
        <time>2013-03-09T08:42:50.000Z</time>
      </trkpt>
      <trkpt lat="47.30019" lon="4.96313">
        <ele>417</ele>
        <time>2013-03-09T08:42:51.000Z</time>
      </trkpt>
      <trkpt lat="47.30021" lon="4.96313">
        <ele>417</ele>
        <time>2013-03-09T08:42:52.000Z</time>
      </trkpt>
      <trkpt lat="47.30024" lon="4.96317">
        <ele>417</ele>
        <time>2013-03-09T08:42:55.000Z</time>
      </trkpt>
      <trkpt lat="47.30025" lon="4.96318">
        <ele>417</ele>
        <time>2013-03-09T08:42:56.000Z</time>
      </trkpt>
      <trkpt lat="47.30028" lon="4.96322">
        <ele>417</ele>
        <time>2013-03-09T08:42:58.000Z</time>
      </trkpt>
      <trkpt lat="47.30029" lon="4.96324">
        <ele>417</ele>
        <time>2013-03-09T08:42:59.000Z</time>
      </trkpt>
      <trkpt lat="47.30031" lon="4.96328">
        <ele>417</ele>
        <time>2013-03-09T08:43:01.000Z</time>
      </trkpt>
      <trkpt lat="47.30032" lon="4.9633">
        <ele>417</ele>
        <time>2013-03-09T08:43:02.000Z</time>
      </trkpt>
      <trkpt lat="47.30034" lon="4.96334">
        <ele>415</ele>
        <time>2013-03-09T08:43:04.000Z</time>
      </trkpt>
      <trkpt lat="47.30035" lon="4.96336">
        <ele>415</ele>
        <time>2013-03-09T08:43:05.000Z</time>
      </trkpt>
      <trkpt lat="47.30036" lon="4.9634">
        <ele>415</ele>
        <time>2013-03-09T08:43:07.000Z</time>
      </trkpt>
      <trkpt lat="47.30037" lon="4.96342">
        <ele>415</ele>
        <time>2013-03-09T08:43:08.000Z</time>
      </trkpt>
      <trkpt lat="47.30039" lon="4.96346">
        <ele>416</ele>
        <time>2013-03-09T08:43:11.000Z</time>
      </trkpt>
      <trkpt lat="47.3004" lon="4.96348">
        <ele>416</ele>
        <time>2013-03-09T08:43:12.000Z</time>
      </trkpt>
      <trkpt lat="47.30041" lon="4.96352">
        <ele>416</ele>
        <time>2013-03-09T08:43:14.000Z</time>
      </trkpt>
      <trkpt lat="47.30043" lon="4.96354">
        <ele>416</ele>
        <time>2013-03-09T08:43:15.000Z</time>
      </trkpt>
      <trkpt lat="47.30044" lon="4.96359">
        <ele>416</ele>
        <time>2013-03-09T08:43:17.000Z</time>
      </trkpt>
      <trkpt lat="47.30044" lon="4.96361">
        <ele>416</ele>
        <time>2013-03-09T08:43:18.000Z</time>
      </trkpt>
      <trkpt lat="47.30046" lon="4.96365">
        <ele>416</ele>
        <time>2013-03-09T08:43:20.000Z</time>
      </trkpt>
      <trkpt lat="47.30045" lon="4.96368">
        <ele>415</ele>
        <time>2013-03-09T08:43:21.000Z</time>
      </trkpt>
      <trkpt lat="47.30034" lon="4.96384">
        <ele>415</ele>
        <time>2013-03-09T08:43:22.000Z</time>
      </trkpt>
      <trkpt lat="47.30039" lon="4.96382">
        <ele>415</ele>
        <time>2013-03-09T08:43:23.000Z</time>
      </trkpt>
      <trkpt lat="47.30041" lon="4.96381">
        <ele>415</ele>
        <time>2013-03-09T08:43:24.000Z</time>
      </trkpt>
      <trkpt lat="47.30044" lon="4.96382">
        <ele>415</ele>
        <time>2013-03-09T08:43:25.000Z</time>
      </trkpt>
      <trkpt lat="47.30047" lon="4.96384">
        <ele>415</ele>
        <time>2013-03-09T08:43:27.000Z</time>
      </trkpt>
      <trkpt lat="47.30048" lon="4.96385">
        <ele>415</ele>
        <time>2013-03-09T08:43:28.000Z</time>
      </trkpt>
      <trkpt lat="47.30051" lon="4.96388">
        <ele>415</ele>
        <time>2013-03-09T08:43:31.000Z</time>
      </trkpt>
      <trkpt lat="47.30051" lon="4.9639">
        <ele>415</ele>
        <time>2013-03-09T08:43:32.000Z</time>
      </trkpt>
      <trkpt lat="47.30053" lon="4.96395">
        <ele>416</ele>
        <time>2013-03-09T08:43:35.000Z</time>
      </trkpt>
      <trkpt lat="47.30053" lon="4.96397">
        <ele>416</ele>
        <time>2013-03-09T08:43:36.000Z</time>
      </trkpt>
      <trkpt lat="47.30055" lon="4.96403">
        <ele>416</ele>
        <time>2013-03-09T08:43:39.000Z</time>
      </trkpt>
      <trkpt lat="47.30057" lon="4.96405">
        <ele>416</ele>
        <time>2013-03-09T08:43:40.000Z</time>
      </trkpt>
      <trkpt lat="47.30059" lon="4.9641">
        <ele>416</ele>
        <time>2013-03-09T08:43:43.000Z</time>
      </trkpt>
      <trkpt lat="47.30054" lon="4.96439">
        <ele>414</ele>
        <time>2013-03-09T08:43:50.000Z</time>
      </trkpt>
      <trkpt lat="47.30058" lon="4.96441">
        <ele>414</ele>
        <time>2013-03-09T08:43:52.000Z</time>
      </trkpt>
      <trkpt lat="47.30059" lon="4.96442">
        <ele>414</ele>
        <time>2013-03-09T08:43:53.000Z</time>
      </trkpt>
      <trkpt lat="47.30062" lon="4.96445">
        <ele>414</ele>
        <time>2013-03-09T08:43:55.000Z</time>
      </trkpt>
      <trkpt lat="47.30064" lon="4.96447">
        <ele>414</ele>
        <time>2013-03-09T08:43:56.000Z</time>
      </trkpt>
      <trkpt lat="47.30067" lon="4.96451">
        <ele>414</ele>
        <time>2013-03-09T08:43:58.000Z</time>
      </trkpt>
      <trkpt lat="47.30068" lon="4.96453">
        <ele>414</ele>
        <time>2013-03-09T08:43:59.000Z</time>
      </trkpt>
      <trkpt lat="47.30069" lon="4.96457">
        <ele>414</ele>
        <time>2013-03-09T08:44:01.000Z</time>
      </trkpt>
      <trkpt lat="47.3007" lon="4.96459">
        <ele>414</ele>
        <time>2013-03-09T08:44:02.000Z</time>
      </trkpt>
      <trkpt lat="47.30071" lon="4.96463">
        <ele>414</ele>
        <time>2013-03-09T08:44:04.000Z</time>
      </trkpt>
      <trkpt lat="47.30072" lon="4.96465">
        <ele>414</ele>
        <time>2013-03-09T08:44:05.000Z</time>
      </trkpt>
      <trkpt lat="47.30074" lon="4.96469">
        <ele>414</ele>
        <time>2013-03-09T08:44:07.000Z</time>
      </trkpt>
      <trkpt lat="47.30075" lon="4.9647">
        <ele>414</ele>
        <time>2013-03-09T08:44:08.000Z</time>
      </trkpt>
      <trkpt lat="47.30077" lon="4.96476">
        <ele>414</ele>
        <time>2013-03-09T08:44:11.000Z</time>
      </trkpt>
      <trkpt lat="47.30078" lon="4.96478">
        <ele>414</ele>
        <time>2013-03-09T08:44:12.000Z</time>
      </trkpt>
      <trkpt lat="47.30079" lon="4.96483">
        <ele>414</ele>
        <time>2013-03-09T08:44:15.000Z</time>
      </trkpt>
      <trkpt lat="47.3008" lon="4.96486">
        <ele>415</ele>
        <time>2013-03-09T08:44:16.000Z</time>
      </trkpt>
      <trkpt lat="47.30081" lon="4.96492">
        <ele>415</ele>
        <time>2013-03-09T08:44:18.000Z</time>
      </trkpt>
      <trkpt lat="47.30082" lon="4.96494">
        <ele>415</ele>
        <time>2013-03-09T08:44:19.000Z</time>
      </trkpt>
      <trkpt lat="47.30083" lon="4.96499">
        <ele>416</ele>
        <time>2013-03-09T08:44:21.000Z</time>
      </trkpt>
      <trkpt lat="47.30084" lon="4.96501">
        <ele>416</ele>
        <time>2013-03-09T08:44:22.000Z</time>
      </trkpt>
      <trkpt lat="47.30086" lon="4.96507">
        <ele>416</ele>
        <time>2013-03-09T08:44:25.000Z</time>
      </trkpt>
      <trkpt lat="47.30086" lon="4.96509">
        <ele>416</ele>
        <time>2013-03-09T08:44:26.000Z</time>
      </trkpt>
      <trkpt lat="47.30088" lon="4.96514">
        <ele>416</ele>
        <time>2013-03-09T08:44:28.000Z</time>
      </trkpt>
      <trkpt lat="47.30089" lon="4.96516">
        <ele>416</ele>
        <time>2013-03-09T08:44:29.000Z</time>
      </trkpt>
      <trkpt lat="47.30091" lon="4.96522">
        <ele>416</ele>
        <time>2013-03-09T08:44:32.000Z</time>
      </trkpt>
      <trkpt lat="47.30091" lon="4.96524">
        <ele>416</ele>
        <time>2013-03-09T08:44:33.000Z</time>
      </trkpt>
      <trkpt lat="47.30092" lon="4.96529">
        <ele>416</ele>
        <time>2013-03-09T08:44:36.000Z</time>
      </trkpt>
      <trkpt lat="47.30092" lon="4.96531">
        <ele>416</ele>
        <time>2013-03-09T08:44:37.000Z</time>
      </trkpt>
      <trkpt lat="47.30094" lon="4.96536">
        <ele>416</ele>
        <time>2013-03-09T08:44:39.000Z</time>
      </trkpt>
      <trkpt lat="47.30094" lon="4.96537">
        <ele>416</ele>
        <time>2013-03-09T08:44:40.000Z</time>
      </trkpt>
      <trkpt lat="47.30097" lon="4.96542">
        <ele>416</ele>
        <time>2013-03-09T08:44:43.000Z</time>
      </trkpt>
      <trkpt lat="47.30098" lon="4.9657">
        <ele>415</ele>
        <time>2013-03-09T08:44:50.000Z</time>
      </trkpt>
      <trkpt lat="47.30102" lon="4.9657">
        <ele>416</ele>
        <time>2013-03-09T08:44:52.000Z</time>
      </trkpt>
      <trkpt lat="47.30104" lon="4.9657">
        <ele>416</ele>
        <time>2013-03-09T08:44:53.000Z</time>
      </trkpt>
      <trkpt lat="47.30107" lon="4.96574">
        <ele>416</ele>
        <time>2013-03-09T08:44:56.000Z</time>
      </trkpt>
      <trkpt lat="47.30108" lon="4.96576">
        <ele>416</ele>
        <time>2013-03-09T08:44:57.000Z</time>
      </trkpt>
      <trkpt lat="47.30111" lon="4.96579">
        <ele>416</ele>
        <time>2013-03-09T08:44:59.000Z</time>
      </trkpt>
      <trkpt lat="47.30112" lon="4.96581">
        <ele>416</ele>
        <time>2013-03-09T08:45:00.000Z</time>
      </trkpt>
      <trkpt lat="47.30114" lon="4.96584">
        <ele>414</ele>
        <time>2013-03-09T08:45:02.000Z</time>
      </trkpt>
      <trkpt lat="47.30115" lon="4.96586">
        <ele>414</ele>
        <time>2013-03-09T08:45:03.000Z</time>
      </trkpt>
      <trkpt lat="47.30117" lon="4.96588">
        <ele>414</ele>
        <time>2013-03-09T08:45:04.000Z</time>
      </trkpt>
      <trkpt lat="47.30119" lon="4.96591">
        <ele>414</ele>
        <time>2013-03-09T08:45:06.000Z</time>
      </trkpt>
      <trkpt lat="47.30122" lon="4.96594">
        <ele>414</ele>
        <time>2013-03-09T08:45:08.000Z</time>
      </trkpt>
      <trkpt lat="47.30124" lon="4.96597">
        <ele>414</ele>
        <time>2013-03-09T08:45:09.000Z</time>
      </trkpt>
      <trkpt lat="47.30126" lon="4.966">
        <ele>414</ele>
        <time>2013-03-09T08:45:11.000Z</time>
      </trkpt>
      <trkpt lat="47.30127" lon="4.96602">
        <ele>414</ele>
        <time>2013-03-09T08:45:12.000Z</time>
      </trkpt>
      <trkpt lat="47.30129" lon="4.96606">
        <ele>413</ele>
        <time>2013-03-09T08:45:15.000Z</time>
      </trkpt>
      <trkpt lat="47.3013" lon="4.96607">
        <ele>413</ele>
        <time>2013-03-09T08:45:16.000Z</time>
      </trkpt>
      <trkpt lat="47.30131" lon="4.96612">
        <ele>413</ele>
        <time>2013-03-09T08:45:19.000Z</time>
      </trkpt>
      <trkpt lat="47.30132" lon="4.96613">
        <ele>413</ele>
        <time>2013-03-09T08:45:20.000Z</time>
      </trkpt>
      <trkpt lat="47.30134" lon="4.96616">
        <ele>413</ele>
        <time>2013-03-09T08:45:24.000Z</time>
      </trkpt>
      <trkpt lat="47.30136" lon="4.96619">
        <ele>413</ele>
        <time>2013-03-09T08:45:25.000Z</time>
      </trkpt>
      <trkpt lat="47.30138" lon="4.96624">
        <ele>413</ele>
        <time>2013-03-09T08:45:28.000Z</time>
      </trkpt>
      <trkpt lat="47.30139" lon="4.96625">
        <ele>413</ele>
        <time>2013-03-09T08:45:29.000Z</time>
      </trkpt>
      <trkpt lat="47.30141" lon="4.96628">
        <ele>413</ele>
        <time>2013-03-09T08:45:31.000Z</time>
      </trkpt>
      <trkpt lat="47.30142" lon="4.9663">
        <ele>413</ele>
        <time>2013-03-09T08:45:32.000Z</time>
      </trkpt>
      <trkpt lat="47.30143" lon="4.96633">
        <ele>413</ele>
        <time>2013-03-09T08:45:34.000Z</time>
      </trkpt>
      <trkpt lat="47.30144" lon="4.96636">
        <ele>413</ele>
        <time>2013-03-09T08:45:35.000Z</time>
      </trkpt>
      <trkpt lat="47.30146" lon="4.96641">
        <ele>413</ele>
        <time>2013-03-09T08:45:37.000Z</time>
      </trkpt>
      <trkpt lat="47.30147" lon="4.96644">
        <ele>413</ele>
        <time>2013-03-09T08:45:38.000Z</time>
      </trkpt>
      <trkpt lat="47.30149" lon="4.96648">
        <ele>413</ele>
        <time>2013-03-09T08:45:40.000Z</time>
      </trkpt>
      <trkpt lat="47.3015" lon="4.9665">
        <ele>413</ele>
        <time>2013-03-09T08:45:41.000Z</time>
      </trkpt>
      <trkpt lat="47.30151" lon="4.96654">
        <ele>413</ele>
        <time>2013-03-09T08:45:43.000Z</time>
      </trkpt>
      <trkpt lat="47.30143" lon="4.96688">
        <ele>409</ele>
        <time>2013-03-09T08:45:51.000Z</time>
      </trkpt>
      <trkpt lat="47.30146" lon="4.9669">
        <ele>409</ele>
        <time>2013-03-09T08:45:52.000Z</time>
      </trkpt>
      <trkpt lat="47.30147" lon="4.96692">
        <ele>409</ele>
        <time>2013-03-09T08:45:53.000Z</time>
      </trkpt>
      <trkpt lat="47.3015" lon="4.96693">
        <ele>409</ele>
        <time>2013-03-09T08:45:55.000Z</time>
      </trkpt>
      <trkpt lat="47.30152" lon="4.96694">
        <ele>409</ele>
        <time>2013-03-09T08:45:56.000Z</time>
      </trkpt>
      <trkpt lat="47.30155" lon="4.96695">
        <ele>409</ele>
        <time>2013-03-09T08:45:59.000Z</time>
      </trkpt>
      <trkpt lat="47.30157" lon="4.96696">
        <ele>409</ele>
        <time>2013-03-09T08:46:00.000Z</time>
      </trkpt>
      <trkpt lat="47.30159" lon="4.96698">
        <ele>409</ele>
        <time>2013-03-09T08:46:02.000Z</time>
      </trkpt>
      <trkpt lat="47.30161" lon="4.96699">
        <ele>409</ele>
        <time>2013-03-09T08:46:03.000Z</time>
      </trkpt>
      <trkpt lat="47.30163" lon="4.96704">
        <ele>409</ele>
        <time>2013-03-09T08:46:06.000Z</time>
      </trkpt>
      <trkpt lat="47.30164" lon="4.96706">
        <ele>409</ele>
        <time>2013-03-09T08:46:07.000Z</time>
      </trkpt>
      <trkpt lat="47.30166" lon="4.9671">
        <ele>409</ele>
        <time>2013-03-09T08:46:09.000Z</time>
      </trkpt>
      <trkpt lat="47.30167" lon="4.96711">
        <ele>409</ele>
        <time>2013-03-09T08:46:10.000Z</time>
      </trkpt>
      <trkpt lat="47.30168" lon="4.96715">
        <ele>412</ele>
        <time>2013-03-09T08:46:12.000Z</time>
      </trkpt>
      <trkpt lat="47.30169" lon="4.96717">
        <ele>412</ele>
        <time>2013-03-09T08:46:13.000Z</time>
      </trkpt>
      <trkpt lat="47.30171" lon="4.96722">
        <ele>412</ele>
        <time>2013-03-09T08:46:15.000Z</time>
      </trkpt>
      <trkpt lat="47.30172" lon="4.96724">
        <ele>412</ele>
        <time>2013-03-09T08:46:16.000Z</time>
      </trkpt>
      <trkpt lat="47.30174" lon="4.96729">
        <ele>411</ele>
        <time>2013-03-09T08:46:18.000Z</time>
      </trkpt>
      <trkpt lat="47.30175" lon="4.96732">
        <ele>411</ele>
        <time>2013-03-09T08:46:19.000Z</time>
      </trkpt>
      <trkpt lat="47.30176" lon="4.96736">
        <ele>411</ele>
        <time>2013-03-09T08:46:21.000Z</time>
      </trkpt>
      <trkpt lat="47.30177" lon="4.96739">
        <ele>411</ele>
        <time>2013-03-09T08:46:22.000Z</time>
      </trkpt>
      <trkpt lat="47.3018" lon="4.96743">
        <ele>411</ele>
        <time>2013-03-09T08:46:24.000Z</time>
      </trkpt>
      <trkpt lat="47.3018" lon="4.96745">
        <ele>411</ele>
        <time>2013-03-09T08:46:25.000Z</time>
      </trkpt>
      <trkpt lat="47.30181" lon="4.96748">
        <ele>411</ele>
        <time>2013-03-09T08:46:27.000Z</time>
      </trkpt>
      <trkpt lat="47.30182" lon="4.96751">
        <ele>409</ele>
        <time>2013-03-09T08:46:28.000Z</time>
      </trkpt>
      <trkpt lat="47.30184" lon="4.96756">
        <ele>409</ele>
        <time>2013-03-09T08:46:31.000Z</time>
      </trkpt>
      <trkpt lat="47.30185" lon="4.96758">
        <ele>410</ele>
        <time>2013-03-09T08:46:32.000Z</time>
      </trkpt>
      <trkpt lat="47.30187" lon="4.96763">
        <ele>410</ele>
        <time>2013-03-09T08:46:34.000Z</time>
      </trkpt>
      <trkpt lat="47.30188" lon="4.96765">
        <ele>410</ele>
        <time>2013-03-09T08:46:35.000Z</time>
      </trkpt>
      <trkpt lat="47.30191" lon="4.96767">
        <ele>410</ele>
        <time>2013-03-09T08:46:37.000Z</time>
      </trkpt>
      <trkpt lat="47.30192" lon="4.96769">
        <ele>410</ele>
        <time>2013-03-09T08:46:38.000Z</time>
      </trkpt>
      <trkpt lat="47.30195" lon="4.96773">
        <ele>410</ele>
        <time>2013-03-09T08:46:40.000Z</time>
      </trkpt>
      <trkpt lat="47.30196" lon="4.96775">
        <ele>410</ele>
        <time>2013-03-09T08:46:41.000Z</time>
      </trkpt>
      <trkpt lat="47.30198" lon="4.96779">
        <ele>410</ele>
        <time>2013-03-09T08:46:43.000Z</time>
      </trkpt>
      <trkpt lat="47.30199" lon="4.96802">
        <ele>409</ele>
        <time>2013-03-09T08:46:51.000Z</time>
      </trkpt>
      <trkpt lat="47.30202" lon="4.96805">
        <ele>409</ele>
        <time>2013-03-09T08:46:53.000Z</time>
      </trkpt>
      <trkpt lat="47.30203" lon="4.96807">
        <ele>409</ele>
        <time>2013-03-09T08:46:54.000Z</time>
      </trkpt>
      <trkpt lat="47.30207" lon="4.96809">
        <ele>409</ele>
        <time>2013-03-09T08:46:56.000Z</time>
      </trkpt>
      <trkpt lat="47.30208" lon="4.96811">
        <ele>409</ele>
        <time>2013-03-09T08:46:57.000Z</time>
      </trkpt>
      <trkpt lat="47.30212" lon="4.96814">
        <ele>409</ele>
        <time>2013-03-09T08:47:07.000Z</time>
      </trkpt>
      <trkpt lat="47.30213" lon="4.96817">
        <ele>409</ele>
        <time>2013-03-09T08:47:08.000Z</time>
      </trkpt>
      <trkpt lat="47.30209" lon="4.96817">
        <ele>409</ele>
        <time>2013-03-09T08:47:40.000Z</time>
      </trkpt>
      <trkpt lat="47.30208" lon="4.96817">
        <ele>409</ele>
        <time>2013-03-09T08:47:41.000Z</time>
      </trkpt>
      <trkpt lat="47.30207" lon="4.96814">
        <ele>409</ele>
        <time>2013-03-09T08:47:43.000Z</time>
      </trkpt>
      <trkpt lat="47.30202" lon="4.96798">
        <ele>409</ele>
        <time>2013-03-09T08:47:50.000Z</time>
      </trkpt>
      <trkpt lat="47.30198" lon="4.96796">
        <ele>409</ele>
        <time>2013-03-09T08:47:54.000Z</time>
      </trkpt>
      <trkpt lat="47.30197" lon="4.96795">
        <ele>409</ele>
        <time>2013-03-09T08:47:55.000Z</time>
      </trkpt>
      <trkpt lat="47.30193" lon="4.9679">
        <ele>409</ele>
        <time>2013-03-09T08:47:58.000Z</time>
      </trkpt>
      <trkpt lat="47.30192" lon="4.96789">
        <ele>409</ele>
        <time>2013-03-09T08:47:59.000Z</time>
      </trkpt>
      <trkpt lat="47.30189" lon="4.96785">
        <ele>409</ele>
        <time>2013-03-09T08:48:02.000Z</time>
      </trkpt>
      <trkpt lat="47.30188" lon="4.96784">
        <ele>409</ele>
        <time>2013-03-09T08:48:03.000Z</time>
      </trkpt>
      <trkpt lat="47.30186" lon="4.9678">
        <ele>409</ele>
        <time>2013-03-09T08:48:05.000Z</time>
      </trkpt>
      <trkpt lat="47.30185" lon="4.96778">
        <ele>409</ele>
        <time>2013-03-09T08:48:06.000Z</time>
      </trkpt>
      <trkpt lat="47.30182" lon="4.96773">
        <ele>409</ele>
        <time>2013-03-09T08:48:09.000Z</time>
      </trkpt>
      <trkpt lat="47.30181" lon="4.96771">
        <ele>409</ele>
        <time>2013-03-09T08:48:10.000Z</time>
      </trkpt>
      <trkpt lat="47.3018" lon="4.96768">
        <ele>409</ele>
        <time>2013-03-09T08:48:12.000Z</time>
      </trkpt>
      <trkpt lat="47.30179" lon="4.96766">
        <ele>409</ele>
        <time>2013-03-09T08:48:13.000Z</time>
      </trkpt>
      <trkpt lat="47.30177" lon="4.96761">
        <ele>409</ele>
        <time>2013-03-09T08:48:16.000Z</time>
      </trkpt>
      <trkpt lat="47.30176" lon="4.96759">
        <ele>409</ele>
        <time>2013-03-09T08:48:17.000Z</time>
      </trkpt>
      <trkpt lat="47.30175" lon="4.96754">
        <ele>409</ele>
        <time>2013-03-09T08:48:19.000Z</time>
      </trkpt>
      <trkpt lat="47.30174" lon="4.96752">
        <ele>409</ele>
        <time>2013-03-09T08:48:20.000Z</time>
      </trkpt>
      <trkpt lat="47.30173" lon="4.96748">
        <ele>410</ele>
        <time>2013-03-09T08:48:22.000Z</time>
      </trkpt>
      <trkpt lat="47.30172" lon="4.96745">
        <ele>410</ele>
        <time>2013-03-09T08:48:23.000Z</time>
      </trkpt>
      <trkpt lat="47.3017" lon="4.96741">
        <ele>410</ele>
        <time>2013-03-09T08:48:25.000Z</time>
      </trkpt>
      <trkpt lat="47.3017" lon="4.96738">
        <ele>411</ele>
        <time>2013-03-09T08:48:26.000Z</time>
      </trkpt>
      <trkpt lat="47.30169" lon="4.96734">
        <ele>411</ele>
        <time>2013-03-09T08:48:28.000Z</time>
      </trkpt>
      <trkpt lat="47.30169" lon="4.96731">
        <ele>411</ele>
        <time>2013-03-09T08:48:29.000Z</time>
      </trkpt>
      <trkpt lat="47.30167" lon="4.96727">
        <ele>411</ele>
        <time>2013-03-09T08:48:31.000Z</time>
      </trkpt>
      <trkpt lat="47.30167" lon="4.96725">
        <ele>408</ele>
        <time>2013-03-09T08:48:32.000Z</time>
      </trkpt>
      <trkpt lat="47.30165" lon="4.9672">
        <ele>408</ele>
        <time>2013-03-09T08:48:34.000Z</time>
      </trkpt>
      <trkpt lat="47.30164" lon="4.96718">
        <ele>408</ele>
        <time>2013-03-09T08:48:35.000Z</time>
      </trkpt>
      <trkpt lat="47.30162" lon="4.96714">
        <ele>409</ele>
        <time>2013-03-09T08:48:38.000Z</time>
      </trkpt>
      <trkpt lat="47.30161" lon="4.96712">
        <ele>409</ele>
        <time>2013-03-09T08:48:39.000Z</time>
      </trkpt>
      <trkpt lat="47.30159" lon="4.96709">
        <ele>409</ele>
        <time>2013-03-09T08:48:41.000Z</time>
      </trkpt>
      <trkpt lat="47.30158" lon="4.96707">
        <ele>409</ele>
        <time>2013-03-09T08:48:42.000Z</time>
      </trkpt>
      <trkpt lat="47.30158" lon="4.96705">
        <ele>409</ele>
        <time>2013-03-09T08:48:43.000Z</time>
      </trkpt>
      <trkpt lat="47.30147" lon="4.96686">
        <ele>409</ele>
        <time>2013-03-09T08:48:51.000Z</time>
      </trkpt>
      <trkpt lat="47.30146" lon="4.96681">
        <ele>410</ele>
        <time>2013-03-09T08:48:53.000Z</time>
      </trkpt>
      <trkpt lat="47.30146" lon="4.96678">
        <ele>410</ele>
        <time>2013-03-09T08:48:54.000Z</time>
      </trkpt>
      <trkpt lat="47.30145" lon="4.96671">
        <ele>410</ele>
        <time>2013-03-09T08:48:57.000Z</time>
      </trkpt>
      <trkpt lat="47.30144" lon="4.9667">
        <ele>410</ele>
        <time>2013-03-09T08:48:58.000Z</time>
      </trkpt>
      <trkpt lat="47.30142" lon="4.96664">
        <ele>413</ele>
        <time>2013-03-09T08:49:01.000Z</time>
      </trkpt>
      <trkpt lat="47.30142" lon="4.96662">
        <ele>413</ele>
        <time>2013-03-09T08:49:02.000Z</time>
      </trkpt>
      <trkpt lat="47.3014" lon="4.96656">
        <ele>413</ele>
        <time>2013-03-09T08:49:05.000Z</time>
      </trkpt>
      <trkpt lat="47.30139" lon="4.96654">
        <ele>413</ele>
        <time>2013-03-09T08:49:06.000Z</time>
      </trkpt>
      <trkpt lat="47.30138" lon="4.9665">
        <ele>413</ele>
        <time>2013-03-09T08:49:08.000Z</time>
      </trkpt>
      <trkpt lat="47.30137" lon="4.96648">
        <ele>413</ele>
        <time>2013-03-09T08:49:09.000Z</time>
      </trkpt>
      <trkpt lat="47.30134" lon="4.96645">
        <ele>413</ele>
        <time>2013-03-09T08:49:11.000Z</time>
      </trkpt>
      <trkpt lat="47.30133" lon="4.96643">
        <ele>413</ele>
        <time>2013-03-09T08:49:12.000Z</time>
      </trkpt>
      <trkpt lat="47.30132" lon="4.96639">
        <ele>413</ele>
        <time>2013-03-09T08:49:14.000Z</time>
      </trkpt>
      <trkpt lat="47.30131" lon="4.96637">
        <ele>413</ele>
        <time>2013-03-09T08:49:15.000Z</time>
      </trkpt>
      <trkpt lat="47.30128" lon="4.96633">
        <ele>413</ele>
        <time>2013-03-09T08:49:17.000Z</time>
      </trkpt>
      <trkpt lat="47.30127" lon="4.9663">
        <ele>413</ele>
        <time>2013-03-09T08:49:18.000Z</time>
      </trkpt>
      <trkpt lat="47.30125" lon="4.96626">
        <ele>413</ele>
        <time>2013-03-09T08:49:20.000Z</time>
      </trkpt>
      <trkpt lat="47.30124" lon="4.96624">
        <ele>413</ele>
        <time>2013-03-09T08:49:21.000Z</time>
      </trkpt>
      <trkpt lat="47.30122" lon="4.9662">
        <ele>413</ele>
        <time>2013-03-09T08:49:23.000Z</time>
      </trkpt>
      <trkpt lat="47.30121" lon="4.96617">
        <ele>413</ele>
        <time>2013-03-09T08:49:24.000Z</time>
      </trkpt>
      <trkpt lat="47.30118" lon="4.96614">
        <ele>413</ele>
        <time>2013-03-09T08:49:26.000Z</time>
      </trkpt>
      <trkpt lat="47.30117" lon="4.96612">
        <ele>413</ele>
        <time>2013-03-09T08:49:27.000Z</time>
      </trkpt>
      <trkpt lat="47.30115" lon="4.96608">
        <ele>413</ele>
        <time>2013-03-09T08:49:29.000Z</time>
      </trkpt>
      <trkpt lat="47.30114" lon="4.96607">
        <ele>413</ele>
        <time>2013-03-09T08:49:30.000Z</time>
      </trkpt>
      <trkpt lat="47.30113" lon="4.96603">
        <ele>413</ele>
        <time>2013-03-09T08:49:32.000Z</time>
      </trkpt>
      <trkpt lat="47.30112" lon="4.966">
        <ele>413</ele>
        <time>2013-03-09T08:49:33.000Z</time>
      </trkpt>
      <trkpt lat="47.3011" lon="4.96596">
        <ele>413</ele>
        <time>2013-03-09T08:49:35.000Z</time>
      </trkpt>
      <trkpt lat="47.30109" lon="4.96594">
        <ele>413</ele>
        <time>2013-03-09T08:49:36.000Z</time>
      </trkpt>
      <trkpt lat="47.30107" lon="4.9659">
        <ele>413</ele>
        <time>2013-03-09T08:49:38.000Z</time>
      </trkpt>
      <trkpt lat="47.30106" lon="4.96587">
        <ele>413</ele>
        <time>2013-03-09T08:49:39.000Z</time>
      </trkpt>
      <trkpt lat="47.30104" lon="4.96584">
        <ele>413</ele>
        <time>2013-03-09T08:49:41.000Z</time>
      </trkpt>
      <trkpt lat="47.30103" lon="4.96582">
        <ele>415</ele>
        <time>2013-03-09T08:49:42.000Z</time>
      </trkpt>
      <trkpt lat="47.30102" lon="4.9658">
        <ele>415</ele>
        <time>2013-03-09T08:49:43.000Z</time>
      </trkpt>
      <trkpt lat="47.30088" lon="4.9656">
        <ele>416</ele>
        <time>2013-03-09T08:49:53.000Z</time>
      </trkpt>
      <trkpt lat="47.30084" lon="4.9656">
        <ele>416</ele>
        <time>2013-03-09T08:49:58.000Z</time>
      </trkpt>
      <trkpt lat="47.30084" lon="4.96561">
        <ele>416</ele>
        <time>2013-03-09T08:49:59.000Z</time>
      </trkpt>
      <trkpt lat="47.30079" lon="4.96563">
        <ele>412</ele>
        <time>2013-03-09T08:50:04.000Z</time>
      </trkpt>
      <trkpt lat="47.30078" lon="4.96563">
        <ele>412</ele>
        <time>2013-03-09T08:50:05.000Z</time>
      </trkpt>
      <trkpt lat="47.30075" lon="4.96563">
        <ele>412</ele>
        <time>2013-03-09T08:50:07.000Z</time>
      </trkpt>
      <trkpt lat="47.30073" lon="4.96563">
        <ele>412</ele>
        <time>2013-03-09T08:50:08.000Z</time>
      </trkpt>
      <trkpt lat="47.3007" lon="4.96564">
        <ele>411</ele>
        <time>2013-03-09T08:50:10.000Z</time>
      </trkpt>
      <trkpt lat="47.30068" lon="4.96564">
        <ele>411</ele>
        <time>2013-03-09T08:50:11.000Z</time>
      </trkpt>
      <trkpt lat="47.30064" lon="4.96565">
        <ele>411</ele>
        <time>2013-03-09T08:50:14.000Z</time>
      </trkpt>
      <trkpt lat="47.30062" lon="4.96565">
        <ele>411</ele>
        <time>2013-03-09T08:50:16.000Z</time>
      </trkpt>
      <trkpt lat="47.30059" lon="4.96566">
        <ele>411</ele>
        <time>2013-03-09T08:50:19.000Z</time>
      </trkpt>
      <trkpt lat="47.30058" lon="4.96567">
        <ele>410</ele>
        <time>2013-03-09T08:50:20.000Z</time>
      </trkpt>
      <trkpt lat="47.30054" lon="4.96568">
        <ele>410</ele>
        <time>2013-03-09T08:50:23.000Z</time>
      </trkpt>
      <trkpt lat="47.30053" lon="4.96568">
        <ele>410</ele>
        <time>2013-03-09T08:50:24.000Z</time>
      </trkpt>
      <trkpt lat="47.30049" lon="4.96569">
        <ele>410</ele>
        <time>2013-03-09T08:50:27.000Z</time>
      </trkpt>
      <trkpt lat="47.30048" lon="4.9657">
        <ele>410</ele>
        <time>2013-03-09T08:50:28.000Z</time>
      </trkpt>
      <trkpt lat="47.30044" lon="4.96572">
        <ele>409</ele>
        <time>2013-03-09T08:50:32.000Z</time>
      </trkpt>
      <trkpt lat="47.30043" lon="4.96572">
        <ele>409</ele>
        <time>2013-03-09T08:50:33.000Z</time>
      </trkpt>
      <trkpt lat="47.30039" lon="4.96572">
        <ele>409</ele>
        <time>2013-03-09T08:50:36.000Z</time>
      </trkpt>
      <trkpt lat="47.30037" lon="4.96572">
        <ele>409</ele>
        <time>2013-03-09T08:50:37.000Z</time>
      </trkpt>
      <trkpt lat="47.30033" lon="4.96573">
        <ele>408</ele>
        <time>2013-03-09T08:50:39.000Z</time>
      </trkpt>
      <trkpt lat="47.30032" lon="4.96573">
        <ele>408</ele>
        <time>2013-03-09T08:50:40.000Z</time>
      </trkpt>
      <trkpt lat="47.30028" lon="4.96573">
        <ele>408</ele>
        <time>2013-03-09T08:50:43.000Z</time>
      </trkpt>
      <trkpt lat="47.30005" lon="4.96583">
        <ele>403</ele>
        <time>2013-03-09T08:50:52.000Z</time>
      </trkpt>
      <trkpt lat="47.30002" lon="4.9658">
        <ele>403</ele>
        <time>2013-03-09T08:50:55.000Z</time>
      </trkpt>
      <trkpt lat="47.30001" lon="4.9658">
        <ele>403</ele>
        <time>2013-03-09T08:50:56.000Z</time>
      </trkpt>
      <trkpt lat="47.29996" lon="4.96578">
        <ele>402</ele>
        <time>2013-03-09T08:51:00.000Z</time>
      </trkpt>
      <trkpt lat="47.29996" lon="4.96577">
        <ele>402</ele>
        <time>2013-03-09T08:51:01.000Z</time>
      </trkpt>
      <trkpt lat="47.29994" lon="4.96579">
        <ele>402</ele>
        <time>2013-03-09T08:51:03.000Z</time>
      </trkpt>
      <trkpt lat="47.29991" lon="4.9658">
        <ele>402</ele>
        <time>2013-03-09T08:51:04.000Z</time>
      </trkpt>
      <trkpt lat="47.29988" lon="4.96582">
        <ele>402</ele>
        <time>2013-03-09T08:51:06.000Z</time>
      </trkpt>
      <trkpt lat="47.29987" lon="4.96583">
        <ele>402</ele>
        <time>2013-03-09T08:51:07.000Z</time>
      </trkpt>
      <trkpt lat="47.29984" lon="4.96579">
        <ele>402</ele>
        <time>2013-03-09T08:51:25.000Z</time>
      </trkpt>
      <trkpt lat="47.29984" lon="4.96576">
        <ele>402</ele>
        <time>2013-03-09T08:51:26.000Z</time>
      </trkpt>
      <trkpt lat="47.29983" lon="4.96581">
        <ele>402</ele>
        <time>2013-03-09T08:51:39.000Z</time>
      </trkpt>
      <trkpt lat="47.29983" lon="4.96582">
        <ele>402</ele>
        <time>2013-03-09T08:51:40.000Z</time>
      </trkpt>
      <trkpt lat="47.29982" lon="4.96588">
        <ele>399</ele>
        <time>2013-03-09T08:51:43.000Z</time>
      </trkpt>
      <trkpt lat="47.29981" lon="4.9659">
        <ele>399</ele>
        <time>2013-03-09T08:51:44.000Z</time>
      </trkpt>
      <trkpt lat="47.29971" lon="4.96625">
        <ele>397</ele>
        <time>2013-03-09T08:51:52.000Z</time>
      </trkpt>
      <trkpt lat="47.29973" lon="4.9663">
        <ele>397</ele>
        <time>2013-03-09T08:52:00.000Z</time>
      </trkpt>
      <trkpt lat="47.29973" lon="4.96632">
        <ele>397</ele>
        <time>2013-03-09T08:52:01.000Z</time>
      </trkpt>
      <trkpt lat="47.29974" lon="4.96637">
        <ele>397</ele>
        <time>2013-03-09T08:52:04.000Z</time>
      </trkpt>
      <trkpt lat="47.29974" lon="4.96638">
        <ele>397</ele>
        <time>2013-03-09T08:52:05.000Z</time>
      </trkpt>
      <trkpt lat="47.29974" lon="4.96643">
        <ele>397</ele>
        <time>2013-03-09T08:52:07.000Z</time>
      </trkpt>
      <trkpt lat="47.29973" lon="4.96645">
        <ele>397</ele>
        <time>2013-03-09T08:52:08.000Z</time>
      </trkpt>
      <trkpt lat="47.29972" lon="4.9665">
        <ele>397</ele>
        <time>2013-03-09T08:52:10.000Z</time>
      </trkpt>
      <trkpt lat="47.29971" lon="4.96652">
        <ele>397</ele>
        <time>2013-03-09T08:52:11.000Z</time>
      </trkpt>
      <trkpt lat="47.29969" lon="4.96658">
        <ele>396</ele>
        <time>2013-03-09T08:52:13.000Z</time>
      </trkpt>
      <trkpt lat="47.29968" lon="4.96661">
        <ele>396</ele>
        <time>2013-03-09T08:52:14.000Z</time>
      </trkpt>
      <trkpt lat="47.29966" lon="4.96666">
        <ele>396</ele>
        <time>2013-03-09T08:52:16.000Z</time>
      </trkpt>
      <trkpt lat="47.29965" lon="4.96669">
        <ele>393</ele>
        <time>2013-03-09T08:52:17.000Z</time>
      </trkpt>
      <trkpt lat="47.29962" lon="4.96672">
        <ele>393</ele>
        <time>2013-03-09T08:52:19.000Z</time>
      </trkpt>
      <trkpt lat="47.29961" lon="4.96674">
        <ele>393</ele>
        <time>2013-03-09T08:52:20.000Z</time>
      </trkpt>
      <trkpt lat="47.29959" lon="4.96678">
        <ele>392</ele>
        <time>2013-03-09T08:52:22.000Z</time>
      </trkpt>
      <trkpt lat="47.29957" lon="4.9668">
        <ele>392</ele>
        <time>2013-03-09T08:52:23.000Z</time>
      </trkpt>
      <trkpt lat="47.29954" lon="4.96685">
        <ele>392</ele>
        <time>2013-03-09T08:52:25.000Z</time>
      </trkpt>
      <trkpt lat="47.29953" lon="4.96687">
        <ele>392</ele>
        <time>2013-03-09T08:52:26.000Z</time>
      </trkpt>
      <trkpt lat="47.2995" lon="4.96691">
        <ele>392</ele>
        <time>2013-03-09T08:52:28.000Z</time>
      </trkpt>
      <trkpt lat="47.29949" lon="4.96693">
        <ele>392</ele>
        <time>2013-03-09T08:52:29.000Z</time>
      </trkpt>
      <trkpt lat="47.29947" lon="4.96696">
        <ele>392</ele>
        <time>2013-03-09T08:52:31.000Z</time>
      </trkpt>
      <trkpt lat="47.29945" lon="4.96698">
        <ele>392</ele>
        <time>2013-03-09T08:52:32.000Z</time>
      </trkpt>
      <trkpt lat="47.29943" lon="4.96702">
        <ele>392</ele>
        <time>2013-03-09T08:52:34.000Z</time>
      </trkpt>
      <trkpt lat="47.29942" lon="4.96704">
        <ele>391</ele>
        <time>2013-03-09T08:52:35.000Z</time>
      </trkpt>
      <trkpt lat="47.2994" lon="4.96708">
        <ele>391</ele>
        <time>2013-03-09T08:52:37.000Z</time>
      </trkpt>
      <trkpt lat="47.29939" lon="4.9671">
        <ele>391</ele>
        <time>2013-03-09T08:52:38.000Z</time>
      </trkpt>
      <trkpt lat="47.29936" lon="4.96713">
        <ele>391</ele>
        <time>2013-03-09T08:52:40.000Z</time>
      </trkpt>
      <trkpt lat="47.29935" lon="4.96715">
        <ele>391</ele>
        <time>2013-03-09T08:52:41.000Z</time>
      </trkpt>
      <trkpt lat="47.29932" lon="4.96719">
        <ele>391</ele>
        <time>2013-03-09T08:52:43.000Z</time>
      </trkpt>
      <trkpt lat="47.29931" lon="4.96721">
        <ele>391</ele>
        <time>2013-03-09T08:52:44.000Z</time>
      </trkpt>
      <trkpt lat="47.29917" lon="4.96749">
        <ele>388</ele>
        <time>2013-03-09T08:52:51.000Z</time>
      </trkpt>
      <trkpt lat="47.29914" lon="4.96753">
        <ele>388</ele>
        <time>2013-03-09T08:52:54.000Z</time>
      </trkpt>
      <trkpt lat="47.29913" lon="4.96754">
        <ele>388</ele>
        <time>2013-03-09T08:52:55.000Z</time>
      </trkpt>
      <trkpt lat="47.29912" lon="4.9676">
        <ele>388</ele>
        <time>2013-03-09T08:52:58.000Z</time>
      </trkpt>
      <trkpt lat="47.29911" lon="4.96762">
        <ele>388</ele>
        <time>2013-03-09T08:52:59.000Z</time>
      </trkpt>
      <trkpt lat="47.29908" lon="4.96767">
        <ele>388</ele>
        <time>2013-03-09T08:53:02.000Z</time>
      </trkpt>
      <trkpt lat="47.29907" lon="4.96768">
        <ele>388</ele>
        <time>2013-03-09T08:53:03.000Z</time>
      </trkpt>
      <trkpt lat="47.29905" lon="4.96774">
        <ele>388</ele>
        <time>2013-03-09T08:53:06.000Z</time>
      </trkpt>
      <trkpt lat="47.29904" lon="4.96776">
        <ele>388</ele>
        <time>2013-03-09T08:53:07.000Z</time>
      </trkpt>
      <trkpt lat="47.29902" lon="4.9678">
        <ele>387</ele>
        <time>2013-03-09T08:53:09.000Z</time>
      </trkpt>
      <trkpt lat="47.29901" lon="4.96782">
        <ele>387</ele>
        <time>2013-03-09T08:53:10.000Z</time>
      </trkpt>
      <trkpt lat="47.29898" lon="4.96787">
        <ele>387</ele>
        <time>2013-03-09T08:53:13.000Z</time>
      </trkpt>
      <trkpt lat="47.29897" lon="4.96789">
        <ele>387</ele>
        <time>2013-03-09T08:53:14.000Z</time>
      </trkpt>
      <trkpt lat="47.29895" lon="4.96794">
        <ele>387</ele>
        <time>2013-03-09T08:53:16.000Z</time>
      </trkpt>
      <trkpt lat="47.29895" lon="4.96796">
        <ele>387</ele>
        <time>2013-03-09T08:53:17.000Z</time>
      </trkpt>
      <trkpt lat="47.29893" lon="4.968">
        <ele>387</ele>
        <time>2013-03-09T08:53:19.000Z</time>
      </trkpt>
      <trkpt lat="47.29892" lon="4.96802">
        <ele>387</ele>
        <time>2013-03-09T08:53:20.000Z</time>
      </trkpt>
      <trkpt lat="47.29891" lon="4.96806">
        <ele>387</ele>
        <time>2013-03-09T08:53:22.000Z</time>
      </trkpt>
      <trkpt lat="47.2989" lon="4.96808">
        <ele>387</ele>
        <time>2013-03-09T08:53:23.000Z</time>
      </trkpt>
      <trkpt lat="47.29889" lon="4.96813">
        <ele>387</ele>
        <time>2013-03-09T08:53:25.000Z</time>
      </trkpt>
      <trkpt lat="47.29888" lon="4.96815">
        <ele>387</ele>
        <time>2013-03-09T08:53:26.000Z</time>
      </trkpt>
      <trkpt lat="47.29887" lon="4.96821">
        <ele>387</ele>
        <time>2013-03-09T08:53:29.000Z</time>
      </trkpt>
      <trkpt lat="47.29887" lon="4.96823">
        <ele>387</ele>
        <time>2013-03-09T08:53:30.000Z</time>
      </trkpt>
      <trkpt lat="47.29885" lon="4.96827">
        <ele>387</ele>
        <time>2013-03-09T08:53:32.000Z</time>
      </trkpt>
      <trkpt lat="47.29884" lon="4.96829">
        <ele>387</ele>
        <time>2013-03-09T08:53:33.000Z</time>
      </trkpt>
      <trkpt lat="47.29883" lon="4.96833">
        <ele>387</ele>
        <time>2013-03-09T08:53:35.000Z</time>
      </trkpt>
      <trkpt lat="47.29882" lon="4.96835">
        <ele>387</ele>
        <time>2013-03-09T08:53:36.000Z</time>
      </trkpt>
      <trkpt lat="47.2988" lon="4.96838">
        <ele>387</ele>
        <time>2013-03-09T08:53:38.000Z</time>
      </trkpt>
      <trkpt lat="47.2988" lon="4.96841">
        <ele>387</ele>
        <time>2013-03-09T08:53:39.000Z</time>
      </trkpt>
      <trkpt lat="47.29879" lon="4.96845">
        <ele>387</ele>
        <time>2013-03-09T08:53:41.000Z</time>
      </trkpt>
      <trkpt lat="47.29878" lon="4.96847">
        <ele>387</ele>
        <time>2013-03-09T08:53:42.000Z</time>
      </trkpt>
      <trkpt lat="47.29877" lon="4.96853">
        <ele>387</ele>
        <time>2013-03-09T08:53:45.000Z</time>
      </trkpt>
      <trkpt lat="47.29877" lon="4.96855">
        <ele>387</ele>
        <time>2013-03-09T08:53:46.000Z</time>
      </trkpt>
      <trkpt lat="47.29875" lon="4.9686">
        <ele>387</ele>
        <time>2013-03-09T08:53:49.000Z</time>
      </trkpt>
      <trkpt lat="47.29875" lon="4.96862">
        <ele>387</ele>
        <time>2013-03-09T08:53:50.000Z</time>
      </trkpt>
      <trkpt lat="47.29873" lon="4.96866">
        <ele>387</ele>
        <time>2013-03-09T08:53:52.000Z</time>
      </trkpt>
      <trkpt lat="47.29872" lon="4.96869">
        <ele>387</ele>
        <time>2013-03-09T08:53:53.000Z</time>
      </trkpt>
      <trkpt lat="47.2987" lon="4.96873">
        <ele>387</ele>
        <time>2013-03-09T08:53:55.000Z</time>
      </trkpt>
      <trkpt lat="47.29869" lon="4.96875">
        <ele>387</ele>
        <time>2013-03-09T08:53:56.000Z</time>
      </trkpt>
      <trkpt lat="47.29868" lon="4.9688">
        <ele>387</ele>
        <time>2013-03-09T08:53:58.000Z</time>
      </trkpt>
      <trkpt lat="47.29868" lon="4.96882">
        <ele>387</ele>
        <time>2013-03-09T08:53:59.000Z</time>
      </trkpt>
      <trkpt lat="47.29867" lon="4.96886">
        <ele>387</ele>
        <time>2013-03-09T08:54:01.000Z</time>
      </trkpt>
      <trkpt lat="47.29866" lon="4.96889">
        <ele>387</ele>
        <time>2013-03-09T08:54:02.000Z</time>
      </trkpt>
      <trkpt lat="47.29864" lon="4.96894">
        <ele>387</ele>
        <time>2013-03-09T08:54:04.000Z</time>
      </trkpt>
      <trkpt lat="47.29863" lon="4.96897">
        <ele>387</ele>
        <time>2013-03-09T08:54:05.000Z</time>
      </trkpt>
      <trkpt lat="47.29861" lon="4.96902">
        <ele>387</ele>
        <time>2013-03-09T08:54:07.000Z</time>
      </trkpt>
      <trkpt lat="47.29861" lon="4.96904">
        <ele>387</ele>
        <time>2013-03-09T08:54:08.000Z</time>
      </trkpt>
      <trkpt lat="47.29859" lon="4.96909">
        <ele>387</ele>
        <time>2013-03-09T08:54:10.000Z</time>
      </trkpt>
      <trkpt lat="47.29859" lon="4.96911">
        <ele>387</ele>
        <time>2013-03-09T08:54:11.000Z</time>
      </trkpt>
      <trkpt lat="47.29857" lon="4.96916">
        <ele>387</ele>
        <time>2013-03-09T08:54:13.000Z</time>
      </trkpt>
      <trkpt lat="47.29856" lon="4.96918">
        <ele>386</ele>
        <time>2013-03-09T08:54:14.000Z</time>
      </trkpt>
      <trkpt lat="47.29854" lon="4.96923">
        <ele>386</ele>
        <time>2013-03-09T08:54:16.000Z</time>
      </trkpt>
      <trkpt lat="47.29853" lon="4.96926">
        <ele>386</ele>
        <time>2013-03-09T08:54:17.000Z</time>
      </trkpt>
      <trkpt lat="47.29853" lon="4.96932">
        <ele>386</ele>
        <time>2013-03-09T08:54:19.000Z</time>
      </trkpt>
      <trkpt lat="47.29852" lon="4.96934">
        <ele>386</ele>
        <time>2013-03-09T08:54:20.000Z</time>
      </trkpt>
      <trkpt lat="47.29852" lon="4.9694">
        <ele>386</ele>
        <time>2013-03-09T08:54:22.000Z</time>
      </trkpt>
      <trkpt lat="47.29852" lon="4.96942">
        <ele>386</ele>
        <time>2013-03-09T08:54:23.000Z</time>
      </trkpt>
      <trkpt lat="47.29851" lon="4.96947">
        <ele>386</ele>
        <time>2013-03-09T08:54:25.000Z</time>
      </trkpt>
      <trkpt lat="47.2985" lon="4.9695">
        <ele>385</ele>
        <time>2013-03-09T08:54:26.000Z</time>
      </trkpt>
      <trkpt lat="47.29849" lon="4.96955">
        <ele>385</ele>
        <time>2013-03-09T08:54:28.000Z</time>
      </trkpt>
      <trkpt lat="47.29849" lon="4.96958">
        <ele>385</ele>
        <time>2013-03-09T08:54:29.000Z</time>
      </trkpt>
      <trkpt lat="47.29847" lon="4.96963">
        <ele>385</ele>
        <time>2013-03-09T08:54:31.000Z</time>
      </trkpt>
      <trkpt lat="47.29847" lon="4.96966">
        <ele>385</ele>
        <time>2013-03-09T08:54:32.000Z</time>
      </trkpt>
      <trkpt lat="47.29846" lon="4.96971">
        <ele>385</ele>
        <time>2013-03-09T08:54:34.000Z</time>
      </trkpt>
      <trkpt lat="47.29846" lon="4.96974">
        <ele>385</ele>
        <time>2013-03-09T08:54:35.000Z</time>
      </trkpt>
      <trkpt lat="47.29846" lon="4.96978">
        <ele>385</ele>
        <time>2013-03-09T08:54:37.000Z</time>
      </trkpt>
      <trkpt lat="47.29845" lon="4.9698">
        <ele>385</ele>
        <time>2013-03-09T08:54:38.000Z</time>
      </trkpt>
      <trkpt lat="47.29845" lon="4.96985">
        <ele>385</ele>
        <time>2013-03-09T08:54:40.000Z</time>
      </trkpt>
      <trkpt lat="47.29844" lon="4.96987">
        <ele>385</ele>
        <time>2013-03-09T08:54:41.000Z</time>
      </trkpt>
      <trkpt lat="47.29843" lon="4.96992">
        <ele>385</ele>
        <time>2013-03-09T08:54:43.000Z</time>
      </trkpt>
      <trkpt lat="47.29843" lon="4.96995">
        <ele>385</ele>
        <time>2013-03-09T08:54:44.000Z</time>
      </trkpt>
      <trkpt lat="47.29825" lon="4.9704">
        <ele>383</ele>
        <time>2013-03-09T08:54:51.000Z</time>
      </trkpt>
      <trkpt lat="47.29828" lon="4.97043">
        <ele>383</ele>
        <time>2013-03-09T08:54:56.000Z</time>
      </trkpt>
      <trkpt lat="47.29829" lon="4.97045">
        <ele>383</ele>
        <time>2013-03-09T08:54:57.000Z</time>
      </trkpt>
      <trkpt lat="47.2983" lon="4.9705">
        <ele>383</ele>
        <time>2013-03-09T08:55:00.000Z</time>
      </trkpt>
      <trkpt lat="47.2983" lon="4.97052">
        <ele>383</ele>
        <time>2013-03-09T08:55:01.000Z</time>
      </trkpt>
      <trkpt lat="47.29831" lon="4.97056">
        <ele>383</ele>
        <time>2013-03-09T08:55:03.000Z</time>
      </trkpt>
      <trkpt lat="47.29831" lon="4.97059">
        <ele>383</ele>
        <time>2013-03-09T08:55:04.000Z</time>
      </trkpt>
      <trkpt lat="47.29832" lon="4.97065">
        <ele>383</ele>
        <time>2013-03-09T08:55:06.000Z</time>
      </trkpt>
      <trkpt lat="47.29832" lon="4.97068">
        <ele>383</ele>
        <time>2013-03-09T08:55:07.000Z</time>
      </trkpt>
      <trkpt lat="47.29833" lon="4.97073">
        <ele>383</ele>
        <time>2013-03-09T08:55:09.000Z</time>
      </trkpt>
      <trkpt lat="47.29833" lon="4.97076">
        <ele>383</ele>
        <time>2013-03-09T08:55:10.000Z</time>
      </trkpt>
      <trkpt lat="47.29833" lon="4.97081">
        <ele>383</ele>
        <time>2013-03-09T08:55:12.000Z</time>
      </trkpt>
      <trkpt lat="47.29833" lon="4.97083">
        <ele>383</ele>
        <time>2013-03-09T08:55:13.000Z</time>
      </trkpt>
      <trkpt lat="47.29833" lon="4.97088">
        <ele>383</ele>
        <time>2013-03-09T08:55:15.000Z</time>
      </trkpt>
      <trkpt lat="47.29834" lon="4.9709">
        <ele>383</ele>
        <time>2013-03-09T08:55:16.000Z</time>
      </trkpt>
      <trkpt lat="47.29834" lon="4.97095">
        <ele>383</ele>
        <time>2013-03-09T08:55:18.000Z</time>
      </trkpt>
      <trkpt lat="47.29835" lon="4.97097">
        <ele>382</ele>
        <time>2013-03-09T08:55:19.000Z</time>
      </trkpt>
      <trkpt lat="47.29833" lon="4.97103">
        <ele>383</ele>
        <time>2013-03-09T08:55:20.000Z</time>
      </trkpt>
      <trkpt lat="47.2982" lon="4.97125">
        <ele>384</ele>
        <time>2013-03-09T08:55:21.000Z</time>
      </trkpt>
      <trkpt lat="47.29826" lon="4.9712">
        <ele>384</ele>
        <time>2013-03-09T08:55:22.000Z</time>
      </trkpt>
      <trkpt lat="47.29829" lon="4.97118">
        <ele>384</ele>
        <time>2013-03-09T08:55:23.000Z</time>
      </trkpt>
      <trkpt lat="47.29831" lon="4.97118">
        <ele>384</ele>
        <time>2013-03-09T08:55:24.000Z</time>
      </trkpt>
      <trkpt lat="47.29833" lon="4.97121">
        <ele>382</ele>
        <time>2013-03-09T08:55:26.000Z</time>
      </trkpt>
      <trkpt lat="47.29834" lon="4.97123">
        <ele>382</ele>
        <time>2013-03-09T08:55:27.000Z</time>
      </trkpt>
      <trkpt lat="47.29836" lon="4.97129">
        <ele>382</ele>
        <time>2013-03-09T08:55:30.000Z</time>
      </trkpt>
      <trkpt lat="47.29837" lon="4.97131">
        <ele>382</ele>
        <time>2013-03-09T08:55:31.000Z</time>
      </trkpt>
      <trkpt lat="47.29838" lon="4.97137">
        <ele>382</ele>
        <time>2013-03-09T08:55:34.000Z</time>
      </trkpt>
      <trkpt lat="47.29839" lon="4.97139">
        <ele>382</ele>
        <time>2013-03-09T08:55:35.000Z</time>
      </trkpt>
      <trkpt lat="47.29839" lon="4.97144">
        <ele>383</ele>
        <time>2013-03-09T08:55:38.000Z</time>
      </trkpt>
      <trkpt lat="47.2984" lon="4.97146">
        <ele>383</ele>
        <time>2013-03-09T08:55:39.000Z</time>
      </trkpt>
      <trkpt lat="47.29841" lon="4.9715">
        <ele>383</ele>
        <time>2013-03-09T08:55:41.000Z</time>
      </trkpt>
      <trkpt lat="47.29841" lon="4.97153">
        <ele>383</ele>
        <time>2013-03-09T08:55:42.000Z</time>
      </trkpt>
      <trkpt lat="47.29842" lon="4.97158">
        <ele>383</ele>
        <time>2013-03-09T08:55:44.000Z</time>
      </trkpt>
      <trkpt lat="47.29839" lon="4.97182">
        <ele>384</ele>
        <time>2013-03-09T08:55:51.000Z</time>
      </trkpt>
      <trkpt lat="47.29835" lon="4.97184">
        <ele>384</ele>
        <time>2013-03-09T08:55:56.000Z</time>
      </trkpt>
      <trkpt lat="47.29834" lon="4.97185">
        <ele>384</ele>
        <time>2013-03-09T08:55:57.000Z</time>
      </trkpt>
      <trkpt lat="47.29831" lon="4.97187">
        <ele>385</ele>
        <time>2013-03-09T08:55:59.000Z</time>
      </trkpt>
      <trkpt lat="47.29829" lon="4.97188">
        <ele>385</ele>
        <time>2013-03-09T08:56:00.000Z</time>
      </trkpt>
      <trkpt lat="47.29825" lon="4.97191">
        <ele>385</ele>
        <time>2013-03-09T08:56:03.000Z</time>
      </trkpt>
      <trkpt lat="47.29824" lon="4.97191">
        <ele>385</ele>
        <time>2013-03-09T08:56:04.000Z</time>
      </trkpt>
      <trkpt lat="47.29821" lon="4.97192">
        <ele>385</ele>
        <time>2013-03-09T08:56:06.000Z</time>
      </trkpt>
      <trkpt lat="47.29819" lon="4.97191">
        <ele>385</ele>
        <time>2013-03-09T08:56:07.000Z</time>
      </trkpt>
      <trkpt lat="47.29816" lon="4.97189">
        <ele>385</ele>
        <time>2013-03-09T08:56:09.000Z</time>
      </trkpt>
      <trkpt lat="47.29814" lon="4.97188">
        <ele>385</ele>
        <time>2013-03-09T08:56:10.000Z</time>
      </trkpt>
      <trkpt lat="47.29811" lon="4.97185">
        <ele>385</ele>
        <time>2013-03-09T08:56:13.000Z</time>
      </trkpt>
      <trkpt lat="47.2981" lon="4.97183">
        <ele>385</ele>
        <time>2013-03-09T08:56:14.000Z</time>
      </trkpt>
      <trkpt lat="47.29807" lon="4.97179">
        <ele>385</ele>
        <time>2013-03-09T08:56:16.000Z</time>
      </trkpt>
      <trkpt lat="47.29805" lon="4.97178">
        <ele>385</ele>
        <time>2013-03-09T08:56:17.000Z</time>
      </trkpt>
      <trkpt lat="47.29802" lon="4.97175">
        <ele>386</ele>
        <time>2013-03-09T08:56:19.000Z</time>
      </trkpt>
      <trkpt lat="47.29801" lon="4.97174">
        <ele>386</ele>
        <time>2013-03-09T08:56:20.000Z</time>
      </trkpt>
      <trkpt lat="47.29798" lon="4.97172">
        <ele>386</ele>
        <time>2013-03-09T08:56:22.000Z</time>
      </trkpt>
      <trkpt lat="47.29796" lon="4.97171">
        <ele>386</ele>
        <time>2013-03-09T08:56:23.000Z</time>
      </trkpt>
      <trkpt lat="47.29793" lon="4.97169">
        <ele>386</ele>
        <time>2013-03-09T08:56:25.000Z</time>
      </trkpt>
      <trkpt lat="47.29791" lon="4.97168">
        <ele>386</ele>
        <time>2013-03-09T08:56:26.000Z</time>
      </trkpt>
      <trkpt lat="47.29788" lon="4.97166">
        <ele>384</ele>
        <time>2013-03-09T08:56:28.000Z</time>
      </trkpt>
      <trkpt lat="47.29787" lon="4.97165">
        <ele>385</ele>
        <time>2013-03-09T08:56:29.000Z</time>
      </trkpt>
      <trkpt lat="47.29784" lon="4.97161">
        <ele>385</ele>
        <time>2013-03-09T08:56:31.000Z</time>
      </trkpt>
      <trkpt lat="47.29783" lon="4.9716">
        <ele>385</ele>
        <time>2013-03-09T08:56:32.000Z</time>
      </trkpt>
      <trkpt lat="47.2978" lon="4.97157">
        <ele>385</ele>
        <time>2013-03-09T08:56:34.000Z</time>
      </trkpt>
      <trkpt lat="47.29779" lon="4.97155">
        <ele>385</ele>
        <time>2013-03-09T08:56:35.000Z</time>
      </trkpt>
      <trkpt lat="47.29776" lon="4.97152">
        <ele>385</ele>
        <time>2013-03-09T08:56:37.000Z</time>
      </trkpt>
      <trkpt lat="47.29775" lon="4.9715">
        <ele>385</ele>
        <time>2013-03-09T08:56:38.000Z</time>
      </trkpt>
      <trkpt lat="47.29772" lon="4.97147">
        <ele>385</ele>
        <time>2013-03-09T08:56:40.000Z</time>
      </trkpt>
      <trkpt lat="47.2977" lon="4.97146">
        <ele>385</ele>
        <time>2013-03-09T08:56:41.000Z</time>
      </trkpt>
      <trkpt lat="47.29768" lon="4.97143">
        <ele>385</ele>
        <time>2013-03-09T08:56:43.000Z</time>
      </trkpt>
      <trkpt lat="47.29766" lon="4.97141">
        <ele>385</ele>
        <time>2013-03-09T08:56:44.000Z</time>
      </trkpt>
      <trkpt lat="47.29754" lon="4.97134">
        <ele>384</ele>
        <time>2013-03-09T08:56:52.000Z</time>
      </trkpt>
      <trkpt lat="47.29751" lon="4.97131">
        <ele>384</ele>
        <time>2013-03-09T08:56:54.000Z</time>
      </trkpt>
      <trkpt lat="47.29749" lon="4.9713">
        <ele>384</ele>
        <time>2013-03-09T08:56:55.000Z</time>
      </trkpt>
      <trkpt lat="47.29746" lon="4.97129">
        <ele>384</ele>
        <time>2013-03-09T08:56:57.000Z</time>
      </trkpt>
      <trkpt lat="47.29745" lon="4.97129">
        <ele>384</ele>
        <time>2013-03-09T08:56:58.000Z</time>
      </trkpt>
      <trkpt lat="47.29742" lon="4.97127">
        <ele>383</ele>
        <time>2013-03-09T08:57:00.000Z</time>
      </trkpt>
      <trkpt lat="47.2974" lon="4.97126">
        <ele>383</ele>
        <time>2013-03-09T08:57:01.000Z</time>
      </trkpt>
      <trkpt lat="47.29737" lon="4.97124">
        <ele>383</ele>
        <time>2013-03-09T08:57:03.000Z</time>
      </trkpt>
      <trkpt lat="47.29736" lon="4.97122">
        <ele>383</ele>
        <time>2013-03-09T08:57:04.000Z</time>
      </trkpt>
      <trkpt lat="47.29736" lon="4.97116">
        <ele>383</ele>
        <time>2013-03-09T08:57:07.000Z</time>
      </trkpt>
      <trkpt lat="47.29737" lon="4.97115">
        <ele>383</ele>
        <time>2013-03-09T08:57:08.000Z</time>
      </trkpt>
      <trkpt lat="47.29738" lon="4.97109">
        <ele>383</ele>
        <time>2013-03-09T08:57:13.000Z</time>
      </trkpt>
      <trkpt lat="47.29738" lon="4.97108">
        <ele>382</ele>
        <time>2013-03-09T08:57:14.000Z</time>
      </trkpt>
      <trkpt lat="47.29736" lon="4.97101">
        <ele>382</ele>
        <time>2013-03-09T08:57:17.000Z</time>
      </trkpt>
      <trkpt lat="47.29736" lon="4.97099">
        <ele>382</ele>
        <time>2013-03-09T08:57:18.000Z</time>
      </trkpt>
      <trkpt lat="47.29733" lon="4.97094">
        <ele>382</ele>
        <time>2013-03-09T08:57:21.000Z</time>
      </trkpt>
      <trkpt lat="47.29733" lon="4.97093">
        <ele>382</ele>
        <time>2013-03-09T08:57:22.000Z</time>
      </trkpt>
      <trkpt lat="47.29734" lon="4.97088">
        <ele>382</ele>
        <time>2013-03-09T08:57:26.000Z</time>
      </trkpt>
      <trkpt lat="47.29735" lon="4.97087">
        <ele>382</ele>
        <time>2013-03-09T08:57:27.000Z</time>
      </trkpt>
      <trkpt lat="47.29737" lon="4.97082">
        <ele>379</ele>
        <time>2013-03-09T08:57:31.000Z</time>
      </trkpt>
      <trkpt lat="47.29738" lon="4.97079">
        <ele>379</ele>
        <time>2013-03-09T08:57:32.000Z</time>
      </trkpt>
      <trkpt lat="47.29739" lon="4.97074">
        <ele>379</ele>
        <time>2013-03-09T08:57:52.000Z</time>
      </trkpt>
      <trkpt lat="47.2974" lon="4.97073">
        <ele>379</ele>
        <time>2013-03-09T08:57:53.000Z</time>
      </trkpt>
      <trkpt lat="47.29744" lon="4.97073">
        <ele>379</ele>
        <time>2013-03-09T08:57:56.000Z</time>
      </trkpt>
      <trkpt lat="47.29745" lon="4.97073">
        <ele>380</ele>
        <time>2013-03-09T08:57:57.000Z</time>
      </trkpt>
      <trkpt lat="47.29749" lon="4.97071">
        <ele>380</ele>
        <time>2013-03-09T08:58:02.000Z</time>
      </trkpt>
      <trkpt lat="47.29749" lon="4.97071">
        <ele>380</ele>
        <time>2013-03-09T08:58:03.000Z</time>
      </trkpt>
      <trkpt lat="47.29748" lon="4.97067">
        <ele>379</ele>
        <time>2013-03-09T08:58:09.000Z</time>
      </trkpt>
      <trkpt lat="47.29747" lon="4.97066">
        <ele>379</ele>
        <time>2013-03-09T08:58:10.000Z</time>
      </trkpt>
      <trkpt lat="47.29744" lon="4.97062">
        <ele>379</ele>
        <time>2013-03-09T08:58:14.000Z</time>
      </trkpt>
      <trkpt lat="47.29743" lon="4.97062">
        <ele>379</ele>
        <time>2013-03-09T08:58:15.000Z</time>
      </trkpt>
      <trkpt lat="47.29739" lon="4.9706">
        <ele>378</ele>
        <time>2013-03-09T08:58:18.000Z</time>
      </trkpt>
      <trkpt lat="47.29738" lon="4.97058">
        <ele>378</ele>
        <time>2013-03-09T08:58:19.000Z</time>
      </trkpt>
      <trkpt lat="47.29734" lon="4.97055">
        <ele>378</ele>
        <time>2013-03-09T08:58:22.000Z</time>
      </trkpt>
      <trkpt lat="47.29733" lon="4.97055">
        <ele>378</ele>
        <time>2013-03-09T08:58:23.000Z</time>
      </trkpt>
      <trkpt lat="47.2973" lon="4.97053">
        <ele>378</ele>
        <time>2013-03-09T08:58:25.000Z</time>
      </trkpt>
      <trkpt lat="47.29728" lon="4.97053">
        <ele>378</ele>
        <time>2013-03-09T08:58:26.000Z</time>
      </trkpt>
      <trkpt lat="47.29724" lon="4.97054">
        <ele>378</ele>
        <time>2013-03-09T08:58:28.000Z</time>
      </trkpt>
      <trkpt lat="47.29721" lon="4.97053">
        <ele>378</ele>
        <time>2013-03-09T08:58:29.000Z</time>
      </trkpt>
      <trkpt lat="47.29717" lon="4.97052">
        <ele>377</ele>
        <time>2013-03-09T08:58:31.000Z</time>
      </trkpt>
      <trkpt lat="47.29715" lon="4.97052">
        <ele>377</ele>
        <time>2013-03-09T08:58:32.000Z</time>
      </trkpt>
      <trkpt lat="47.29712" lon="4.97051">
        <ele>377</ele>
        <time>2013-03-09T08:58:34.000Z</time>
      </trkpt>
      <trkpt lat="47.2971" lon="4.97051">
        <ele>377</ele>
        <time>2013-03-09T08:58:35.000Z</time>
      </trkpt>
      <trkpt lat="47.29706" lon="4.97049">
        <ele>377</ele>
        <time>2013-03-09T08:58:37.000Z</time>
      </trkpt>
      <trkpt lat="47.29705" lon="4.97049">
        <ele>377</ele>
        <time>2013-03-09T08:58:38.000Z</time>
      </trkpt>
      <trkpt lat="47.29701" lon="4.97048">
        <ele>377</ele>
        <time>2013-03-09T08:58:40.000Z</time>
      </trkpt>
      <trkpt lat="47.29699" lon="4.97048">
        <ele>377</ele>
        <time>2013-03-09T08:58:41.000Z</time>
      </trkpt>
      <trkpt lat="47.29695" lon="4.97047">
        <ele>376</ele>
        <time>2013-03-09T08:58:43.000Z</time>
      </trkpt>
      <trkpt lat="47.29693" lon="4.97047">
        <ele>376</ele>
        <time>2013-03-09T08:58:44.000Z</time>
      </trkpt>
      <trkpt lat="47.29658" lon="4.97045">
        <ele>372</ele>
        <time>2013-03-09T08:58:59.000Z</time>
      </trkpt>
      <trkpt lat="47.29655" lon="4.97042">
        <ele>371</ele>
        <time>2013-03-09T08:59:01.000Z</time>
      </trkpt>
      <trkpt lat="47.29653" lon="4.97042">
        <ele>371</ele>
        <time>2013-03-09T08:59:02.000Z</time>
      </trkpt>
      <trkpt lat="47.29649" lon="4.97039">
        <ele>371</ele>
        <time>2013-03-09T08:59:04.000Z</time>
      </trkpt>
      <trkpt lat="47.29648" lon="4.97038">
        <ele>371</ele>
        <time>2013-03-09T08:59:05.000Z</time>
      </trkpt>
      <trkpt lat="47.29645" lon="4.97035">
        <ele>371</ele>
        <time>2013-03-09T08:59:07.000Z</time>
      </trkpt>
      <trkpt lat="47.29644" lon="4.97033">
        <ele>371</ele>
        <time>2013-03-09T08:59:08.000Z</time>
      </trkpt>
      <trkpt lat="47.29641" lon="4.9703">
        <ele>370</ele>
        <time>2013-03-09T08:59:10.000Z</time>
      </trkpt>
      <trkpt lat="47.2964" lon="4.97028">
        <ele>370</ele>
        <time>2013-03-09T08:59:11.000Z</time>
      </trkpt>
      <trkpt lat="47.29637" lon="4.97024">
        <ele>370</ele>
        <time>2013-03-09T08:59:13.000Z</time>
      </trkpt>
      <trkpt lat="47.29635" lon="4.97022">
        <ele>369</ele>
        <time>2013-03-09T08:59:14.000Z</time>
      </trkpt>
      <trkpt lat="47.29633" lon="4.97019">
        <ele>369</ele>
        <time>2013-03-09T08:59:16.000Z</time>
      </trkpt>
      <trkpt lat="47.29631" lon="4.97018">
        <ele>369</ele>
        <time>2013-03-09T08:59:17.000Z</time>
      </trkpt>
      <trkpt lat="47.29629" lon="4.97014">
        <ele>369</ele>
        <time>2013-03-09T08:59:19.000Z</time>
      </trkpt>
      <trkpt lat="47.29628" lon="4.97012">
        <ele>368</ele>
        <time>2013-03-09T08:59:20.000Z</time>
      </trkpt>
      <trkpt lat="47.29625" lon="4.9701">
        <ele>368</ele>
        <time>2013-03-09T08:59:22.000Z</time>
      </trkpt>
      <trkpt lat="47.29624" lon="4.97008">
        <ele>368</ele>
        <time>2013-03-09T08:59:23.000Z</time>
      </trkpt>
      <trkpt lat="47.29622" lon="4.97004">
        <ele>367</ele>
        <time>2013-03-09T08:59:25.000Z</time>
      </trkpt>
      <trkpt lat="47.29621" lon="4.97002">
        <ele>367</ele>
        <time>2013-03-09T08:59:26.000Z</time>
      </trkpt>
      <trkpt lat="47.29618" lon="4.96997">
        <ele>360</ele>
        <time>2013-03-09T08:59:29.000Z</time>
      </trkpt>
      <trkpt lat="47.29617" lon="4.96996">
        <ele>360</ele>
        <time>2013-03-09T08:59:30.000Z</time>
      </trkpt>
      <trkpt lat="47.29614" lon="4.96991">
        <ele>360</ele>
        <time>2013-03-09T08:59:32.000Z</time>
      </trkpt>
      <trkpt lat="47.29613" lon="4.96989">
        <ele>360</ele>
        <time>2013-03-09T08:59:33.000Z</time>
      </trkpt>
      <trkpt lat="47.29611" lon="4.96984">
        <ele>360</ele>
        <time>2013-03-09T08:59:36.000Z</time>
      </trkpt>
      <trkpt lat="47.2961" lon="4.96981">
        <ele>359</ele>
        <time>2013-03-09T08:59:37.000Z</time>
      </trkpt>
      <trkpt lat="47.29609" lon="4.96977">
        <ele>359</ele>
        <time>2013-03-09T08:59:39.000Z</time>
      </trkpt>
      <trkpt lat="47.29608" lon="4.96975">
        <ele>359</ele>
        <time>2013-03-09T08:59:40.000Z</time>
      </trkpt>
      <trkpt lat="47.29604" lon="4.96971">
        <ele>359</ele>
        <time>2013-03-09T08:59:43.000Z</time>
      </trkpt>
      <trkpt lat="47.29602" lon="4.9697">
        <ele>359</ele>
        <time>2013-03-09T08:59:44.000Z</time>
      </trkpt>
      <trkpt lat="47.296" lon="4.96969">
        <ele>359</ele>
        <time>2013-03-09T08:59:45.000Z</time>
      </trkpt>
      <trkpt lat="47.29589" lon="4.96966">
        <ele>358</ele>
        <time>2013-03-09T08:59:53.000Z</time>
      </trkpt>
      <trkpt lat="47.29589" lon="4.96966">
        <ele>358</ele>
        <time>2013-03-09T09:00:06.000Z</time>
      </trkpt>
      <trkpt lat="47.29591" lon="4.9696">
        <ele>358</ele>
        <time>2013-03-09T09:00:07.000Z</time>
      </trkpt>
      <trkpt lat="47.29592" lon="4.96959">
        <ele>358</ele>
        <time>2013-03-09T09:00:25.000Z</time>
      </trkpt>
      <trkpt lat="47.29591" lon="4.96952">
        <ele>358</ele>
        <time>2013-03-09T09:00:26.000Z</time>
      </trkpt>
      <trkpt lat="47.2959" lon="4.96946">
        <ele>357</ele>
        <time>2013-03-09T09:00:32.000Z</time>
      </trkpt>
      <trkpt lat="47.29589" lon="4.96945">
        <ele>357</ele>
        <time>2013-03-09T09:00:33.000Z</time>
      </trkpt>
      <trkpt lat="47.29588" lon="4.96942">
        <ele>357</ele>
        <time>2013-03-09T09:00:40.000Z</time>
      </trkpt>
      <trkpt lat="47.29587" lon="4.9694">
        <ele>356</ele>
        <time>2013-03-09T09:00:41.000Z</time>
      </trkpt>
      <trkpt lat="47.29584" lon="4.96936">
        <ele>356</ele>
        <time>2013-03-09T09:00:44.000Z</time>
      </trkpt>
      <trkpt lat="47.29578" lon="4.96918">
        <ele>351</ele>
        <time>2013-03-09T09:00:52.000Z</time>
      </trkpt>
      <trkpt lat="47.29577" lon="4.96912">
        <ele>353</ele>
        <time>2013-03-09T09:00:56.000Z</time>
      </trkpt>
      <trkpt lat="47.29576" lon="4.9691">
        <ele>353</ele>
        <time>2013-03-09T09:00:57.000Z</time>
      </trkpt>
      <trkpt lat="47.29574" lon="4.96906">
        <ele>354</ele>
        <time>2013-03-09T09:01:01.000Z</time>
      </trkpt>
      <trkpt lat="47.29573" lon="4.96905">
        <ele>355</ele>
        <time>2013-03-09T09:01:02.000Z</time>
      </trkpt>
      <trkpt lat="47.2957" lon="4.96902">
        <ele>355</ele>
        <time>2013-03-09T09:01:06.000Z</time>
      </trkpt>
      <trkpt lat="47.29569" lon="4.96902">
        <ele>356</ele>
        <time>2013-03-09T09:01:07.000Z</time>
      </trkpt>
      <trkpt lat="47.29565" lon="4.969">
        <ele>356</ele>
        <time>2013-03-09T09:01:11.000Z</time>
      </trkpt>
      <trkpt lat="47.29564" lon="4.96899">
        <ele>356</ele>
        <time>2013-03-09T09:01:12.000Z</time>
      </trkpt>
      <trkpt lat="47.29561" lon="4.96896">
        <ele>357</ele>
        <time>2013-03-09T09:01:15.000Z</time>
      </trkpt>
      <trkpt lat="47.2956" lon="4.96895">
        <ele>357</ele>
        <time>2013-03-09T09:01:16.000Z</time>
      </trkpt>
      <trkpt lat="47.29557" lon="4.96893">
        <ele>357</ele>
        <time>2013-03-09T09:01:18.000Z</time>
      </trkpt>
      <trkpt lat="47.29556" lon="4.96892">
        <ele>357</ele>
        <time>2013-03-09T09:01:19.000Z</time>
      </trkpt>
      <trkpt lat="47.29552" lon="4.9689">
        <ele>358</ele>
        <time>2013-03-09T09:01:22.000Z</time>
      </trkpt>
      <trkpt lat="47.29551" lon="4.9689">
        <ele>358</ele>
        <time>2013-03-09T09:01:23.000Z</time>
      </trkpt>
      <trkpt lat="47.29548" lon="4.9689">
        <ele>358</ele>
        <time>2013-03-09T09:01:25.000Z</time>
      </trkpt>
      <trkpt lat="47.29546" lon="4.9689">
        <ele>358</ele>
        <time>2013-03-09T09:01:26.000Z</time>
      </trkpt>
      <trkpt lat="47.29542" lon="4.96887">
        <ele>358</ele>
        <time>2013-03-09T09:01:30.000Z</time>
      </trkpt>
      <trkpt lat="47.29541" lon="4.96887">
        <ele>358</ele>
        <time>2013-03-09T09:01:31.000Z</time>
      </trkpt>
      <trkpt lat="47.29538" lon="4.96884">
        <ele>358</ele>
        <time>2013-03-09T09:01:35.000Z</time>
      </trkpt>
      <trkpt lat="47.29537" lon="4.96883">
        <ele>358</ele>
        <time>2013-03-09T09:01:36.000Z</time>
      </trkpt>
      <trkpt lat="47.29534" lon="4.96879">
        <ele>359</ele>
        <time>2013-03-09T09:01:40.000Z</time>
      </trkpt>
      <trkpt lat="47.29533" lon="4.96878">
        <ele>359</ele>
        <time>2013-03-09T09:01:41.000Z</time>
      </trkpt>
      <trkpt lat="47.29532" lon="4.96875">
        <ele>359</ele>
        <time>2013-03-09T09:01:44.000Z</time>
      </trkpt>
      <trkpt lat="47.29525" lon="4.96864">
        <ele>361</ele>
        <time>2013-03-09T09:01:53.000Z</time>
      </trkpt>
      <trkpt lat="47.29522" lon="4.9686">
        <ele>362</ele>
        <time>2013-03-09T09:02:00.000Z</time>
      </trkpt>
      <trkpt lat="47.29521" lon="4.96859">
        <ele>362</ele>
        <time>2013-03-09T09:02:01.000Z</time>
      </trkpt>
      <trkpt lat="47.29519" lon="4.96854">
        <ele>363</ele>
        <time>2013-03-09T09:02:06.000Z</time>
      </trkpt>
      <trkpt lat="47.29518" lon="4.96853">
        <ele>363</ele>
        <time>2013-03-09T09:02:07.000Z</time>
      </trkpt>
      <trkpt lat="47.29515" lon="4.96849">
        <ele>364</ele>
        <time>2013-03-09T09:02:12.000Z</time>
      </trkpt>
      <trkpt lat="47.29514" lon="4.96847">
        <ele>364</ele>
        <time>2013-03-09T09:02:13.000Z</time>
      </trkpt>
      <trkpt lat="47.29513" lon="4.96841">
        <ele>366</ele>
        <time>2013-03-09T09:02:18.000Z</time>
      </trkpt>
      <trkpt lat="47.29513" lon="4.9684">
        <ele>366</ele>
        <time>2013-03-09T09:02:19.000Z</time>
      </trkpt>
      <trkpt lat="47.29512" lon="4.96834">
        <ele>367</ele>
        <time>2013-03-09T09:02:24.000Z</time>
      </trkpt>
      <trkpt lat="47.29512" lon="4.96833">
        <ele>374</ele>
        <time>2013-03-09T09:02:25.000Z</time>
      </trkpt>
      <trkpt lat="47.2951" lon="4.96828">
        <ele>374</ele>
        <time>2013-03-09T09:02:35.000Z</time>
      </trkpt>
      <trkpt lat="47.29508" lon="4.96826">
        <ele>374</ele>
        <time>2013-03-09T09:02:36.000Z</time>
      </trkpt>
      <trkpt lat="47.29504" lon="4.96827">
        <ele>373</ele>
        <time>2013-03-09T09:02:40.000Z</time>
      </trkpt>
      <trkpt lat="47.29503" lon="4.96827">
        <ele>373</ele>
        <time>2013-03-09T09:02:41.000Z</time>
      </trkpt>
      <trkpt lat="47.29499" lon="4.96827">
        <ele>374</ele>
        <time>2013-03-09T09:02:44.000Z</time>
      </trkpt>
      <trkpt lat="47.29498" lon="4.96827">
        <ele>374</ele>
        <time>2013-03-09T09:02:45.000Z</time>
      </trkpt>
      <trkpt lat="47.29486" lon="4.96818">
        <ele>379</ele>
        <time>2013-03-09T09:02:52.000Z</time>
      </trkpt>
      <trkpt lat="47.29489" lon="4.96813">
        <ele>380</ele>
        <time>2013-03-09T09:02:55.000Z</time>
      </trkpt>
      <trkpt lat="47.2949" lon="4.96814">
        <ele>379</ele>
        <time>2013-03-09T09:02:56.000Z</time>
      </trkpt>
      <trkpt lat="47.2949" lon="4.96814">
        <ele>379</ele>
        <time>2013-03-09T09:03:44.000Z</time>
      </trkpt>
      <trkpt lat="47.29483" lon="4.96819">
        <ele>379</ele>
        <time>2013-03-09T09:03:52.000Z</time>
      </trkpt>
      <trkpt lat="47.29486" lon="4.96818">
        <ele>379</ele>
        <time>2013-03-09T09:06:45.000Z</time>
      </trkpt>
      <trkpt lat="47.2947" lon="4.96847">
        <ele>367</ele>
        <time>2013-03-09T09:06:52.000Z</time>
      </trkpt>
      <trkpt lat="47.2947" lon="4.96847">
        <ele>367</ele>
        <time>2013-03-09T09:07:44.000Z</time>
      </trkpt>
      <trkpt lat="47.29485" lon="4.96843">
        <ele>368</ele>
        <time>2013-03-09T09:07:52.000Z</time>
      </trkpt>
      <trkpt lat="47.29485" lon="4.96843">
        <ele>368</ele>
        <time>2013-03-09T09:08:37.000Z</time>
      </trkpt>
      <trkpt lat="47.29488" lon="4.96834">
        <ele>369</ele>
        <time>2013-03-09T09:08:38.000Z</time>
      </trkpt>
      <trkpt lat="47.2949" lon="4.96832">
        <ele>376</ele>
        <time>2013-03-09T09:10:37.000Z</time>
      </trkpt>
      <trkpt lat="47.29489" lon="4.96828">
        <ele>376</ele>
        <time>2013-03-09T09:10:38.000Z</time>
      </trkpt>
      <trkpt lat="47.29485" lon="4.96828">
        <ele>377</ele>
        <time>2013-03-09T09:10:44.000Z</time>
      </trkpt>
      <trkpt lat="47.29474" lon="4.96829">
        <ele>380</ele>
        <time>2013-03-09T09:10:53.000Z</time>
      </trkpt>
      <trkpt lat="47.29471" lon="4.96827">
        <ele>380</ele>
        <time>2013-03-09T09:10:56.000Z</time>
      </trkpt>
      <trkpt lat="47.29469" lon="4.96826">
        <ele>380</ele>
        <time>2013-03-09T09:10:57.000Z</time>
      </trkpt>
      <trkpt lat="47.29466" lon="4.96824">
        <ele>381</ele>
        <time>2013-03-09T09:11:00.000Z</time>
      </trkpt>
      <trkpt lat="47.29465" lon="4.96825">
        <ele>381</ele>
        <time>2013-03-09T09:11:01.000Z</time>
      </trkpt>
      <trkpt lat="47.29461" lon="4.96825">
        <ele>381</ele>
        <time>2013-03-09T09:11:06.000Z</time>
      </trkpt>
      <trkpt lat="47.2946" lon="4.96825">
        <ele>381</ele>
        <time>2013-03-09T09:11:07.000Z</time>
      </trkpt>
      <trkpt lat="47.29456" lon="4.96825">
        <ele>382</ele>
        <time>2013-03-09T09:11:11.000Z</time>
      </trkpt>
      <trkpt lat="47.29454" lon="4.96825">
        <ele>382</ele>
        <time>2013-03-09T09:11:12.000Z</time>
      </trkpt>
      <trkpt lat="47.29451" lon="4.96825">
        <ele>382</ele>
        <time>2013-03-09T09:11:14.000Z</time>
      </trkpt>
      <trkpt lat="47.29449" lon="4.96824">
        <ele>382</ele>
        <time>2013-03-09T09:11:15.000Z</time>
      </trkpt>
      <trkpt lat="47.29445" lon="4.96822">
        <ele>382</ele>
        <time>2013-03-09T09:11:17.000Z</time>
      </trkpt>
      <trkpt lat="47.29444" lon="4.96822">
        <ele>382</ele>
        <time>2013-03-09T09:11:18.000Z</time>
      </trkpt>
      <trkpt lat="47.29439" lon="4.9682">
        <ele>382</ele>
        <time>2013-03-09T09:11:22.000Z</time>
      </trkpt>
      <trkpt lat="47.29438" lon="4.96819">
        <ele>382</ele>
        <time>2013-03-09T09:11:23.000Z</time>
      </trkpt>
      <trkpt lat="47.29435" lon="4.96817">
        <ele>382</ele>
        <time>2013-03-09T09:11:25.000Z</time>
      </trkpt>
      <trkpt lat="47.29433" lon="4.96817">
        <ele>382</ele>
        <time>2013-03-09T09:11:26.000Z</time>
      </trkpt>
      <trkpt lat="47.29429" lon="4.96813">
        <ele>383</ele>
        <time>2013-03-09T09:11:30.000Z</time>
      </trkpt>
      <trkpt lat="47.29428" lon="4.96813">
        <ele>383</ele>
        <time>2013-03-09T09:11:31.000Z</time>
      </trkpt>
      <trkpt lat="47.29425" lon="4.9681">
        <ele>383</ele>
        <time>2013-03-09T09:11:34.000Z</time>
      </trkpt>
      <trkpt lat="47.29424" lon="4.9681">
        <ele>383</ele>
        <time>2013-03-09T09:11:35.000Z</time>
      </trkpt>
      <trkpt lat="47.2942" lon="4.96808">
        <ele>383</ele>
        <time>2013-03-09T09:11:40.000Z</time>
      </trkpt>
      <trkpt lat="47.29419" lon="4.96807">
        <ele>383</ele>
        <time>2013-03-09T09:11:41.000Z</time>
      </trkpt>
      <trkpt lat="47.29415" lon="4.96806">
        <ele>388</ele>
        <time>2013-03-09T09:11:45.000Z</time>
      </trkpt>
      <trkpt lat="47.29397" lon="4.96812">
        <ele>389</ele>
        <time>2013-03-09T09:11:53.000Z</time>
      </trkpt>
      <trkpt lat="47.29394" lon="4.96815">
        <ele>389</ele>
        <time>2013-03-09T09:12:01.000Z</time>
      </trkpt>
      <trkpt lat="47.29394" lon="4.96817">
        <ele>389</ele>
        <time>2013-03-09T09:12:02.000Z</time>
      </trkpt>
      <trkpt lat="47.29394" lon="4.96822">
        <ele>388</ele>
        <time>2013-03-09T09:12:06.000Z</time>
      </trkpt>
      <trkpt lat="47.29394" lon="4.96824">
        <ele>388</ele>
        <time>2013-03-09T09:12:07.000Z</time>
      </trkpt>
      <trkpt lat="47.29394" lon="4.9683">
        <ele>387</ele>
        <time>2013-03-09T09:12:11.000Z</time>
      </trkpt>
      <trkpt lat="47.29394" lon="4.96831">
        <ele>387</ele>
        <time>2013-03-09T09:12:12.000Z</time>
      </trkpt>
      <trkpt lat="47.29392" lon="4.96837">
        <ele>379</ele>
        <time>2013-03-09T09:12:16.000Z</time>
      </trkpt>
      <trkpt lat="47.29392" lon="4.96839">
        <ele>379</ele>
        <time>2013-03-09T09:12:17.000Z</time>
      </trkpt>
      <trkpt lat="47.29392" lon="4.96844">
        <ele>379</ele>
        <time>2013-03-09T09:12:20.000Z</time>
      </trkpt>
      <trkpt lat="47.29391" lon="4.96845">
        <ele>379</ele>
        <time>2013-03-09T09:12:21.000Z</time>
      </trkpt>
      <trkpt lat="47.29389" lon="4.96851">
        <ele>379</ele>
        <time>2013-03-09T09:12:24.000Z</time>
      </trkpt>
      <trkpt lat="47.29388" lon="4.96853">
        <ele>379</ele>
        <time>2013-03-09T09:12:25.000Z</time>
      </trkpt>
      <trkpt lat="47.29386" lon="4.96856">
        <ele>379</ele>
        <time>2013-03-09T09:12:27.000Z</time>
      </trkpt>
      <trkpt lat="47.29385" lon="4.96857">
        <ele>379</ele>
        <time>2013-03-09T09:12:28.000Z</time>
      </trkpt>
      <trkpt lat="47.29382" lon="4.96861">
        <ele>379</ele>
        <time>2013-03-09T09:12:31.000Z</time>
      </trkpt>
      <trkpt lat="47.29381" lon="4.96863">
        <ele>378</ele>
        <time>2013-03-09T09:12:32.000Z</time>
      </trkpt>
      <trkpt lat="47.29378" lon="4.96866">
        <ele>378</ele>
        <time>2013-03-09T09:12:35.000Z</time>
      </trkpt>
      <trkpt lat="47.29377" lon="4.96867">
        <ele>378</ele>
        <time>2013-03-09T09:12:36.000Z</time>
      </trkpt>
      <trkpt lat="47.29373" lon="4.9687">
        <ele>378</ele>
        <time>2013-03-09T09:12:39.000Z</time>
      </trkpt>
      <trkpt lat="47.29372" lon="4.96872">
        <ele>378</ele>
        <time>2013-03-09T09:12:40.000Z</time>
      </trkpt>
      <trkpt lat="47.29369" lon="4.96875">
        <ele>378</ele>
        <time>2013-03-09T09:12:43.000Z</time>
      </trkpt>
      <trkpt lat="47.29368" lon="4.96876">
        <ele>378</ele>
        <time>2013-03-09T09:12:44.000Z</time>
      </trkpt>
      <trkpt lat="47.29353" lon="4.96891">
        <ele>378</ele>
        <time>2013-03-09T09:12:51.000Z</time>
      </trkpt>
      <trkpt lat="47.2935" lon="4.96886">
        <ele>379</ele>
        <time>2013-03-09T09:12:55.000Z</time>
      </trkpt>
      <trkpt lat="47.29349" lon="4.96886">
        <ele>379</ele>
        <time>2013-03-09T09:12:56.000Z</time>
      </trkpt>
      <trkpt lat="47.29345" lon="4.96888">
        <ele>379</ele>
        <time>2013-03-09T09:13:00.000Z</time>
      </trkpt>
      <trkpt lat="47.29344" lon="4.96889">
        <ele>379</ele>
        <time>2013-03-09T09:13:01.000Z</time>
      </trkpt>
      <trkpt lat="47.29341" lon="4.96888">
        <ele>379</ele>
        <time>2013-03-09T09:13:03.000Z</time>
      </trkpt>
      <trkpt lat="47.29339" lon="4.96888">
        <ele>379</ele>
        <time>2013-03-09T09:13:04.000Z</time>
      </trkpt>
      <trkpt lat="47.29335" lon="4.96887">
        <ele>379</ele>
        <time>2013-03-09T09:13:07.000Z</time>
      </trkpt>
      <trkpt lat="47.29334" lon="4.96887">
        <ele>379</ele>
        <time>2013-03-09T09:13:08.000Z</time>
      </trkpt>
      <trkpt lat="47.2933" lon="4.96886">
        <ele>384</ele>
        <time>2013-03-09T09:13:10.000Z</time>
      </trkpt>
      <trkpt lat="47.29329" lon="4.96885">
        <ele>384</ele>
        <time>2013-03-09T09:13:11.000Z</time>
      </trkpt>
      <trkpt lat="47.29325" lon="4.96885">
        <ele>384</ele>
        <time>2013-03-09T09:13:13.000Z</time>
      </trkpt>
      <trkpt lat="47.29324" lon="4.96884">
        <ele>384</ele>
        <time>2013-03-09T09:13:14.000Z</time>
      </trkpt>
      <trkpt lat="47.2932" lon="4.96882">
        <ele>384</ele>
        <time>2013-03-09T09:13:17.000Z</time>
      </trkpt>
      <trkpt lat="47.29319" lon="4.96881">
        <ele>384</ele>
        <time>2013-03-09T09:13:18.000Z</time>
      </trkpt>
      <trkpt lat="47.29315" lon="4.96881">
        <ele>384</ele>
        <time>2013-03-09T09:13:20.000Z</time>
      </trkpt>
      <trkpt lat="47.29313" lon="4.96881">
        <ele>384</ele>
        <time>2013-03-09T09:13:21.000Z</time>
      </trkpt>
      <trkpt lat="47.29308" lon="4.9688">
        <ele>385</ele>
        <time>2013-03-09T09:13:24.000Z</time>
      </trkpt>
      <trkpt lat="47.29307" lon="4.9688">
        <ele>385</ele>
        <time>2013-03-09T09:13:25.000Z</time>
      </trkpt>
      <trkpt lat="47.29304" lon="4.96877">
        <ele>385</ele>
        <time>2013-03-09T09:13:28.000Z</time>
      </trkpt>
      <trkpt lat="47.29303" lon="4.96877">
        <ele>385</ele>
        <time>2013-03-09T09:13:29.000Z</time>
      </trkpt>
      <trkpt lat="47.29299" lon="4.96872">
        <ele>385</ele>
        <time>2013-03-09T09:13:43.000Z</time>
      </trkpt>
      <trkpt lat="47.29298" lon="4.96871">
        <ele>385</ele>
        <time>2013-03-09T09:13:44.000Z</time>
      </trkpt>
      <trkpt lat="47.29281" lon="4.96878">
        <ele>385</ele>
        <time>2013-03-09T09:13:52.000Z</time>
      </trkpt>
      <trkpt lat="47.2928" lon="4.96874">
        <ele>385</ele>
        <time>2013-03-09T09:13:53.000Z</time>
      </trkpt>
      <trkpt lat="47.2928" lon="4.9687">
        <ele>385</ele>
        <time>2013-03-09T09:13:54.000Z</time>
      </trkpt>
      <trkpt lat="47.29279" lon="4.96863">
        <ele>386</ele>
        <time>2013-03-09T09:13:56.000Z</time>
      </trkpt>
      <trkpt lat="47.29279" lon="4.96861">
        <ele>386</ele>
        <time>2013-03-09T09:13:57.000Z</time>
      </trkpt>
      <trkpt lat="47.29278" lon="4.96854">
        <ele>387</ele>
        <time>2013-03-09T09:13:59.000Z</time>
      </trkpt>
      <trkpt lat="47.29278" lon="4.96851">
        <ele>387</ele>
        <time>2013-03-09T09:14:00.000Z</time>
      </trkpt>
      <trkpt lat="47.29278" lon="4.96846">
        <ele>387</ele>
        <time>2013-03-09T09:14:02.000Z</time>
      </trkpt>
      <trkpt lat="47.29277" lon="4.96844">
        <ele>387</ele>
        <time>2013-03-09T09:14:03.000Z</time>
      </trkpt>
      <trkpt lat="47.29275" lon="4.96839">
        <ele>388</ele>
        <time>2013-03-09T09:14:06.000Z</time>
      </trkpt>
      <trkpt lat="47.29274" lon="4.96837">
        <ele>388</ele>
        <time>2013-03-09T09:14:07.000Z</time>
      </trkpt>
      <trkpt lat="47.29271" lon="4.96832">
        <ele>394</ele>
        <time>2013-03-09T09:14:10.000Z</time>
      </trkpt>
      <trkpt lat="47.29271" lon="4.9683">
        <ele>394</ele>
        <time>2013-03-09T09:14:11.000Z</time>
      </trkpt>
      <trkpt lat="47.29269" lon="4.96826">
        <ele>395</ele>
        <time>2013-03-09T09:14:13.000Z</time>
      </trkpt>
      <trkpt lat="47.29269" lon="4.96824">
        <ele>395</ele>
        <time>2013-03-09T09:14:14.000Z</time>
      </trkpt>
      <trkpt lat="47.29267" lon="4.96818">
        <ele>395</ele>
        <time>2013-03-09T09:14:17.000Z</time>
      </trkpt>
      <trkpt lat="47.29267" lon="4.96815">
        <ele>395</ele>
        <time>2013-03-09T09:14:18.000Z</time>
      </trkpt>
      <trkpt lat="47.29264" lon="4.9681">
        <ele>396</ele>
        <time>2013-03-09T09:14:21.000Z</time>
      </trkpt>
      <trkpt lat="47.29264" lon="4.96809">
        <ele>396</ele>
        <time>2013-03-09T09:14:22.000Z</time>
      </trkpt>
      <trkpt lat="47.29261" lon="4.96807">
        <ele>396</ele>
        <time>2013-03-09T09:14:25.000Z</time>
      </trkpt>
      <trkpt lat="47.2926" lon="4.96806">
        <ele>396</ele>
        <time>2013-03-09T09:14:26.000Z</time>
      </trkpt>
      <trkpt lat="47.29257" lon="4.96804">
        <ele>396</ele>
        <time>2013-03-09T09:14:28.000Z</time>
      </trkpt>
      <trkpt lat="47.29255" lon="4.96803">
        <ele>396</ele>
        <time>2013-03-09T09:14:29.000Z</time>
      </trkpt>
      <trkpt lat="47.29253" lon="4.968">
        <ele>396</ele>
        <time>2013-03-09T09:14:31.000Z</time>
      </trkpt>
      <trkpt lat="47.29252" lon="4.96798">
        <ele>397</ele>
        <time>2013-03-09T09:14:32.000Z</time>
      </trkpt>
      <trkpt lat="47.29251" lon="4.96794">
        <ele>397</ele>
        <time>2013-03-09T09:14:34.000Z</time>
      </trkpt>
      <trkpt lat="47.29251" lon="4.96791">
        <ele>397</ele>
        <time>2013-03-09T09:14:35.000Z</time>
      </trkpt>
      <trkpt lat="47.29249" lon="4.96786">
        <ele>400</ele>
        <time>2013-03-09T09:14:38.000Z</time>
      </trkpt>
      <trkpt lat="47.29249" lon="4.96784">
        <ele>400</ele>
        <time>2013-03-09T09:14:39.000Z</time>
      </trkpt>
      <trkpt lat="47.29247" lon="4.96779">
        <ele>400</ele>
        <time>2013-03-09T09:14:42.000Z</time>
      </trkpt>
      <trkpt lat="47.29246" lon="4.96778">
        <ele>400</ele>
        <time>2013-03-09T09:14:43.000Z</time>
      </trkpt>
      <trkpt lat="47.29244" lon="4.96776">
        <ele>400</ele>
        <time>2013-03-09T09:14:45.000Z</time>
      </trkpt>
      <trkpt lat="47.29237" lon="4.96763">
        <ele>401</ele>
        <time>2013-03-09T09:14:52.000Z</time>
      </trkpt>
      <trkpt lat="47.29236" lon="4.96758">
        <ele>401</ele>
        <time>2013-03-09T09:14:54.000Z</time>
      </trkpt>
      <trkpt lat="47.29235" lon="4.96756">
        <ele>401</ele>
        <time>2013-03-09T09:14:55.000Z</time>
      </trkpt>
      <trkpt lat="47.29233" lon="4.96751">
        <ele>402</ele>
        <time>2013-03-09T09:14:58.000Z</time>
      </trkpt>
      <trkpt lat="47.29233" lon="4.96749">
        <ele>404</ele>
        <time>2013-03-09T09:14:59.000Z</time>
      </trkpt>
      <trkpt lat="47.29232" lon="4.96743">
        <ele>405</ele>
        <time>2013-03-09T09:15:03.000Z</time>
      </trkpt>
      <trkpt lat="47.29232" lon="4.96742">
        <ele>405</ele>
        <time>2013-03-09T09:15:04.000Z</time>
      </trkpt>
      <trkpt lat="47.29229" lon="4.96737">
        <ele>405</ele>
        <time>2013-03-09T09:15:09.000Z</time>
      </trkpt>
      <trkpt lat="47.29228" lon="4.96736">
        <ele>405</ele>
        <time>2013-03-09T09:15:10.000Z</time>
      </trkpt>
      <trkpt lat="47.29224" lon="4.96734">
        <ele>406</ele>
        <time>2013-03-09T09:15:15.000Z</time>
      </trkpt>
      <trkpt lat="47.29223" lon="4.96733">
        <ele>406</ele>
        <time>2013-03-09T09:15:16.000Z</time>
      </trkpt>
      <trkpt lat="47.29219" lon="4.96732">
        <ele>406</ele>
        <time>2013-03-09T09:15:20.000Z</time>
      </trkpt>
      <trkpt lat="47.29218" lon="4.96732">
        <ele>406</ele>
        <time>2013-03-09T09:15:21.000Z</time>
      </trkpt>
      <trkpt lat="47.29214" lon="4.96729">
        <ele>406</ele>
        <time>2013-03-09T09:15:24.000Z</time>
      </trkpt>
      <trkpt lat="47.29213" lon="4.96728">
        <ele>406</ele>
        <time>2013-03-09T09:15:25.000Z</time>
      </trkpt>
      <trkpt lat="47.29208" lon="4.96727">
        <ele>406</ele>
        <time>2013-03-09T09:15:28.000Z</time>
      </trkpt>
      <trkpt lat="47.29207" lon="4.96726">
        <ele>407</ele>
        <time>2013-03-09T09:15:29.000Z</time>
      </trkpt>
      <trkpt lat="47.29204" lon="4.96724">
        <ele>407</ele>
        <time>2013-03-09T09:15:33.000Z</time>
      </trkpt>
      <trkpt lat="47.29203" lon="4.96723">
        <ele>407</ele>
        <time>2013-03-09T09:15:34.000Z</time>
      </trkpt>
      <trkpt lat="47.292" lon="4.96724">
        <ele>407</ele>
        <time>2013-03-09T09:15:38.000Z</time>
      </trkpt>
      <trkpt lat="47.29199" lon="4.96724">
        <ele>407</ele>
        <time>2013-03-09T09:15:39.000Z</time>
      </trkpt>
      <trkpt lat="47.29196" lon="4.96726">
        <ele>407</ele>
        <time>2013-03-09T09:15:42.000Z</time>
      </trkpt>
      <trkpt lat="47.29194" lon="4.96727">
        <ele>407</ele>
        <time>2013-03-09T09:15:43.000Z</time>
      </trkpt>
      <trkpt lat="47.29193" lon="4.96728">
        <ele>407</ele>
        <time>2013-03-09T09:15:44.000Z</time>
      </trkpt>
      <trkpt lat="47.29174" lon="4.96747">
        <ele>407</ele>
        <time>2013-03-09T09:15:51.000Z</time>
      </trkpt>
      <trkpt lat="47.29177" lon="4.96745">
        <ele>407</ele>
        <time>2013-03-09T09:15:54.000Z</time>
      </trkpt>
      <trkpt lat="47.29177" lon="4.96743">
        <ele>407</ele>
        <time>2013-03-09T09:15:55.000Z</time>
      </trkpt>
      <trkpt lat="47.2918" lon="4.96746">
        <ele>407</ele>
        <time>2013-03-09T09:16:17.000Z</time>
      </trkpt>
      <trkpt lat="47.29181" lon="4.96747">
        <ele>407</ele>
        <time>2013-03-09T09:16:18.000Z</time>
      </trkpt>
      <trkpt lat="47.29184" lon="4.96748">
        <ele>407</ele>
        <time>2013-03-09T09:16:21.000Z</time>
      </trkpt>
      <trkpt lat="47.29185" lon="4.96748">
        <ele>407</ele>
        <time>2013-03-09T09:16:22.000Z</time>
      </trkpt>
      <trkpt lat="47.29189" lon="4.96749">
        <ele>407</ele>
        <time>2013-03-09T09:16:25.000Z</time>
      </trkpt>
      <trkpt lat="47.2919" lon="4.9675">
        <ele>407</ele>
        <time>2013-03-09T09:16:26.000Z</time>
      </trkpt>
      <trkpt lat="47.29192" lon="4.96754">
        <ele>403</ele>
        <time>2013-03-09T09:16:28.000Z</time>
      </trkpt>
      <trkpt lat="47.29194" lon="4.96756">
        <ele>403</ele>
        <time>2013-03-09T09:16:29.000Z</time>
      </trkpt>
      <trkpt lat="47.29196" lon="4.96762">
        <ele>403</ele>
        <time>2013-03-09T09:16:32.000Z</time>
      </trkpt>
      <trkpt lat="47.29196" lon="4.96764">
        <ele>403</ele>
        <time>2013-03-09T09:16:33.000Z</time>
      </trkpt>
      <trkpt lat="47.29197" lon="4.9677">
        <ele>402</ele>
        <time>2013-03-09T09:16:40.000Z</time>
      </trkpt>
      <trkpt lat="47.29196" lon="4.9677">
        <ele>402</ele>
        <time>2013-03-09T09:16:42.000Z</time>
      </trkpt>
      <trkpt lat="47.29196" lon="4.9677">
        <ele>402</ele>
        <time>2013-03-09T09:16:44.000Z</time>
      </trkpt>
      <trkpt lat="47.29209" lon="4.96773">
        <ele>402</ele>
        <time>2013-03-09T09:16:53.000Z</time>
      </trkpt>
      <trkpt lat="47.29211" lon="4.96768">
        <ele>402</ele>
        <time>2013-03-09T09:17:14.000Z</time>
      </trkpt>
      <trkpt lat="47.29211" lon="4.96767">
        <ele>402</ele>
        <time>2013-03-09T09:17:15.000Z</time>
      </trkpt>
      <trkpt lat="47.29215" lon="4.96768">
        <ele>401</ele>
        <time>2013-03-09T09:17:23.000Z</time>
      </trkpt>
      <trkpt lat="47.29216" lon="4.9677">
        <ele>401</ele>
        <time>2013-03-09T09:17:24.000Z</time>
      </trkpt>
      <trkpt lat="47.29217" lon="4.96774">
        <ele>401</ele>
        <time>2013-03-09T09:17:45.000Z</time>
      </trkpt>
      <trkpt lat="47.29217" lon="4.9678">
        <ele>401</ele>
        <time>2013-03-09T09:17:53.000Z</time>
      </trkpt>
      <trkpt lat="47.2922" lon="4.96783">
        <ele>401</ele>
        <time>2013-03-09T09:17:56.000Z</time>
      </trkpt>
      <trkpt lat="47.29221" lon="4.96785">
        <ele>401</ele>
        <time>2013-03-09T09:17:57.000Z</time>
      </trkpt>
      <trkpt lat="47.29224" lon="4.96789">
        <ele>400</ele>
        <time>2013-03-09T09:18:00.000Z</time>
      </trkpt>
      <trkpt lat="47.29224" lon="4.96791">
        <ele>400</ele>
        <time>2013-03-09T09:18:01.000Z</time>
      </trkpt>
      <trkpt lat="47.29226" lon="4.96796">
        <ele>400</ele>
        <time>2013-03-09T09:18:03.000Z</time>
      </trkpt>
      <trkpt lat="47.29225" lon="4.96799">
        <ele>399</ele>
        <time>2013-03-09T09:18:04.000Z</time>
      </trkpt>
      <trkpt lat="47.29225" lon="4.96805">
        <ele>399</ele>
        <time>2013-03-09T09:18:07.000Z</time>
      </trkpt>
      <trkpt lat="47.29225" lon="4.96808">
        <ele>399</ele>
        <time>2013-03-09T09:18:08.000Z</time>
      </trkpt>
      <trkpt lat="47.29226" lon="4.96814">
        <ele>398</ele>
        <time>2013-03-09T09:18:11.000Z</time>
      </trkpt>
      <trkpt lat="47.29226" lon="4.96815">
        <ele>398</ele>
        <time>2013-03-09T09:18:12.000Z</time>
      </trkpt>
      <trkpt lat="47.29228" lon="4.96819">
        <ele>398</ele>
        <time>2013-03-09T09:18:14.000Z</time>
      </trkpt>
      <trkpt lat="47.29229" lon="4.96821">
        <ele>397</ele>
        <time>2013-03-09T09:18:15.000Z</time>
      </trkpt>
      <trkpt lat="47.29231" lon="4.96825">
        <ele>397</ele>
        <time>2013-03-09T09:18:17.000Z</time>
      </trkpt>
      <trkpt lat="47.29233" lon="4.96827">
        <ele>396</ele>
        <time>2013-03-09T09:18:18.000Z</time>
      </trkpt>
      <trkpt lat="47.29235" lon="4.96832">
        <ele>396</ele>
        <time>2013-03-09T09:18:20.000Z</time>
      </trkpt>
      <trkpt lat="47.29236" lon="4.96833">
        <ele>392</ele>
        <time>2013-03-09T09:18:21.000Z</time>
      </trkpt>
      <trkpt lat="47.29238" lon="4.96838">
        <ele>392</ele>
        <time>2013-03-09T09:18:23.000Z</time>
      </trkpt>
      <trkpt lat="47.29239" lon="4.9684">
        <ele>392</ele>
        <time>2013-03-09T09:18:24.000Z</time>
      </trkpt>
      <trkpt lat="47.29241" lon="4.96845">
        <ele>391</ele>
        <time>2013-03-09T09:18:26.000Z</time>
      </trkpt>
      <trkpt lat="47.29241" lon="4.96846">
        <ele>391</ele>
        <time>2013-03-09T09:18:27.000Z</time>
      </trkpt>
      <trkpt lat="47.29243" lon="4.96851">
        <ele>391</ele>
        <time>2013-03-09T09:18:30.000Z</time>
      </trkpt>
      <trkpt lat="47.29243" lon="4.96853">
        <ele>391</ele>
        <time>2013-03-09T09:18:31.000Z</time>
      </trkpt>
      <trkpt lat="47.29244" lon="4.96857">
        <ele>391</ele>
        <time>2013-03-09T09:18:33.000Z</time>
      </trkpt>
      <trkpt lat="47.29244" lon="4.9686">
        <ele>391</ele>
        <time>2013-03-09T09:18:34.000Z</time>
      </trkpt>
      <trkpt lat="47.29246" lon="4.96865">
        <ele>390</ele>
        <time>2013-03-09T09:18:37.000Z</time>
      </trkpt>
      <trkpt lat="47.29247" lon="4.96867">
        <ele>390</ele>
        <time>2013-03-09T09:18:38.000Z</time>
      </trkpt>
      <trkpt lat="47.29248" lon="4.96871">
        <ele>390</ele>
        <time>2013-03-09T09:18:40.000Z</time>
      </trkpt>
      <trkpt lat="47.29249" lon="4.96873">
        <ele>390</ele>
        <time>2013-03-09T09:18:41.000Z</time>
      </trkpt>
      <trkpt lat="47.29251" lon="4.96877">
        <ele>385</ele>
        <time>2013-03-09T09:18:43.000Z</time>
      </trkpt>
      <trkpt lat="47.29252" lon="4.9688">
        <ele>384</ele>
        <time>2013-03-09T09:18:44.000Z</time>
      </trkpt>
      <trkpt lat="47.29253" lon="4.96885">
        <ele>384</ele>
        <time>2013-03-09T09:18:47.000Z</time>
      </trkpt>
      <trkpt lat="47.29254" lon="4.96888">
        <ele>383</ele>
        <time>2013-03-09T09:18:48.000Z</time>
      </trkpt>
      <trkpt lat="47.29256" lon="4.96892">
        <ele>383</ele>
        <time>2013-03-09T09:18:50.000Z</time>
      </trkpt>
      <trkpt lat="47.29256" lon="4.96894">
        <ele>383</ele>
        <time>2013-03-09T09:18:51.000Z</time>
      </trkpt>
      <trkpt lat="47.29258" lon="4.96899">
        <ele>382</ele>
        <time>2013-03-09T09:18:54.000Z</time>
      </trkpt>
      <trkpt lat="47.29258" lon="4.96901">
        <ele>382</ele>
        <time>2013-03-09T09:18:55.000Z</time>
      </trkpt>
      <trkpt lat="47.29259" lon="4.96906">
        <ele>381</ele>
        <time>2013-03-09T09:18:58.000Z</time>
      </trkpt>
      <trkpt lat="47.2926" lon="4.96908">
        <ele>381</ele>
        <time>2013-03-09T09:18:59.000Z</time>
      </trkpt>
      <trkpt lat="47.29262" lon="4.96913">
        <ele>381</ele>
        <time>2013-03-09T09:19:02.000Z</time>
      </trkpt>
      <trkpt lat="47.29262" lon="4.96916">
        <ele>381</ele>
        <time>2013-03-09T09:19:03.000Z</time>
      </trkpt>
      <trkpt lat="47.29264" lon="4.9692">
        <ele>374</ele>
        <time>2013-03-09T09:19:05.000Z</time>
      </trkpt>
      <trkpt lat="47.29265" lon="4.96922">
        <ele>374</ele>
        <time>2013-03-09T09:19:06.000Z</time>
      </trkpt>
      <trkpt lat="47.29266" lon="4.96926">
        <ele>374</ele>
        <time>2013-03-09T09:19:08.000Z</time>
      </trkpt>
      <trkpt lat="47.29267" lon="4.96928">
        <ele>373</ele>
        <time>2013-03-09T09:19:09.000Z</time>
      </trkpt>
      <trkpt lat="47.29268" lon="4.96933">
        <ele>373</ele>
        <time>2013-03-09T09:19:12.000Z</time>
      </trkpt>
      <trkpt lat="47.29269" lon="4.96934">
        <ele>373</ele>
        <time>2013-03-09T09:19:13.000Z</time>
      </trkpt>
      <trkpt lat="47.29271" lon="4.96939">
        <ele>372</ele>
        <time>2013-03-09T09:19:16.000Z</time>
      </trkpt>
      <trkpt lat="47.29272" lon="4.9694">
        <ele>372</ele>
        <time>2013-03-09T09:19:17.000Z</time>
      </trkpt>
      <trkpt lat="47.29274" lon="4.96945">
        <ele>371</ele>
        <time>2013-03-09T09:19:20.000Z</time>
      </trkpt>
      <trkpt lat="47.29274" lon="4.96946">
        <ele>371</ele>
        <time>2013-03-09T09:19:21.000Z</time>
      </trkpt>
      <trkpt lat="47.29276" lon="4.96952">
        <ele>370</ele>
        <time>2013-03-09T09:19:24.000Z</time>
      </trkpt>
      <trkpt lat="47.29277" lon="4.96954">
        <ele>370</ele>
        <time>2013-03-09T09:19:25.000Z</time>
      </trkpt>
      <trkpt lat="47.29278" lon="4.96959">
        <ele>370</ele>
        <time>2013-03-09T09:19:28.000Z</time>
      </trkpt>
      <trkpt lat="47.29278" lon="4.96961">
        <ele>369</ele>
        <time>2013-03-09T09:19:29.000Z</time>
      </trkpt>
      <trkpt lat="47.2928" lon="4.96965">
        <ele>369</ele>
        <time>2013-03-09T09:19:31.000Z</time>
      </trkpt>
      <trkpt lat="47.29281" lon="4.96967">
        <ele>369</ele>
        <time>2013-03-09T09:19:32.000Z</time>
      </trkpt>
      <trkpt lat="47.29282" lon="4.96972">
        <ele>368</ele>
        <time>2013-03-09T09:19:34.000Z</time>
      </trkpt>
      <trkpt lat="47.29283" lon="4.96975">
        <ele>368</ele>
        <time>2013-03-09T09:19:35.000Z</time>
      </trkpt>
      <trkpt lat="47.29284" lon="4.96979">
        <ele>368</ele>
        <time>2013-03-09T09:19:37.000Z</time>
      </trkpt>
      <trkpt lat="47.29285" lon="4.96982">
        <ele>367</ele>
        <time>2013-03-09T09:19:38.000Z</time>
      </trkpt>
      <trkpt lat="47.29287" lon="4.96986">
        <ele>367</ele>
        <time>2013-03-09T09:19:40.000Z</time>
      </trkpt>
      <trkpt lat="47.29287" lon="4.96989">
        <ele>367</ele>
        <time>2013-03-09T09:19:41.000Z</time>
      </trkpt>
      <trkpt lat="47.2929" lon="4.96993">
        <ele>367</ele>
        <time>2013-03-09T09:19:43.000Z</time>
      </trkpt>
      <trkpt lat="47.29291" lon="4.96996">
        <ele>366</ele>
        <time>2013-03-09T09:19:44.000Z</time>
      </trkpt>
      <trkpt lat="47.29292" lon="4.96998">
        <ele>366</ele>
        <time>2013-03-09T09:19:45.000Z</time>
      </trkpt>
      <trkpt lat="47.29312" lon="4.9705">
        <ele>353</ele>
        <time>2013-03-09T09:20:04.000Z</time>
      </trkpt>
      <trkpt lat="47.29314" lon="4.97055">
        <ele>352</ele>
        <time>2013-03-09T09:20:07.000Z</time>
      </trkpt>
      <trkpt lat="47.29315" lon="4.97057">
        <ele>351</ele>
        <time>2013-03-09T09:20:08.000Z</time>
      </trkpt>
      <trkpt lat="47.29316" lon="4.97062">
        <ele>351</ele>
        <time>2013-03-09T09:20:11.000Z</time>
      </trkpt>
      <trkpt lat="47.29318" lon="4.97064">
        <ele>350</ele>
        <time>2013-03-09T09:20:12.000Z</time>
      </trkpt>
      <trkpt lat="47.29319" lon="4.9707">
        <ele>349</ele>
        <time>2013-03-09T09:20:15.000Z</time>
      </trkpt>
      <trkpt lat="47.2932" lon="4.97071">
        <ele>349</ele>
        <time>2013-03-09T09:20:16.000Z</time>
      </trkpt>
      <trkpt lat="47.29322" lon="4.97075">
        <ele>347</ele>
        <time>2013-03-09T09:20:18.000Z</time>
      </trkpt>
      <trkpt lat="47.29324" lon="4.97077">
        <ele>347</ele>
        <time>2013-03-09T09:20:19.000Z</time>
      </trkpt>
      <trkpt lat="47.29326" lon="4.97081">
        <ele>345</ele>
        <time>2013-03-09T09:20:22.000Z</time>
      </trkpt>
      <trkpt lat="47.29327" lon="4.97083">
        <ele>345</ele>
        <time>2013-03-09T09:20:23.000Z</time>
      </trkpt>
      <trkpt lat="47.29329" lon="4.97088">
        <ele>343</ele>
        <time>2013-03-09T09:20:26.000Z</time>
      </trkpt>
      <trkpt lat="47.29329" lon="4.97091">
        <ele>343</ele>
        <time>2013-03-09T09:20:27.000Z</time>
      </trkpt>
      <trkpt lat="47.29332" lon="4.97095">
        <ele>344</ele>
        <time>2013-03-09T09:20:31.000Z</time>
      </trkpt>
      <trkpt lat="47.29332" lon="4.97097">
        <ele>344</ele>
        <time>2013-03-09T09:20:32.000Z</time>
      </trkpt>
      <trkpt lat="47.29333" lon="4.97102">
        <ele>344</ele>
        <time>2013-03-09T09:20:37.000Z</time>
      </trkpt>
      <trkpt lat="47.29333" lon="4.97103">
        <ele>344</ele>
        <time>2013-03-09T09:20:38.000Z</time>
      </trkpt>
      <trkpt lat="47.29335" lon="4.97109">
        <ele>346</ele>
        <time>2013-03-09T09:20:43.000Z</time>
      </trkpt>
      <trkpt lat="47.29334" lon="4.9711">
        <ele>346</ele>
        <time>2013-03-09T09:20:44.000Z</time>
      </trkpt>
      <trkpt lat="47.29334" lon="4.9711">
        <ele>346</ele>
        <time>2013-03-09T09:20:45.000Z</time>
      </trkpt>
      <trkpt lat="47.29325" lon="4.97136">
        <ele>345</ele>
        <time>2013-03-09T09:20:59.000Z</time>
      </trkpt>
      <trkpt lat="47.29323" lon="4.97133">
        <ele>345</ele>
        <time>2013-03-09T09:21:45.000Z</time>
      </trkpt>
      <trkpt lat="47.29304" lon="4.97166">
        <ele>345</ele>
        <time>2013-03-09T09:21:53.000Z</time>
      </trkpt>
      <trkpt lat="47.29306" lon="4.97164">
        <ele>345</ele>
        <time>2013-03-09T09:22:01.000Z</time>
      </trkpt>
      <trkpt lat="47.29307" lon="4.97156">
        <ele>345</ele>
        <time>2013-03-09T09:22:02.000Z</time>
      </trkpt>
      <trkpt lat="47.29307" lon="4.97154">
        <ele>345</ele>
        <time>2013-03-09T09:22:16.000Z</time>
      </trkpt>
      <trkpt lat="47.29311" lon="4.97142">
        <ele>345</ele>
        <time>2013-03-09T09:22:17.000Z</time>
      </trkpt>
      <trkpt lat="47.29312" lon="4.9714">
        <ele>345</ele>
        <time>2013-03-09T09:22:45.000Z</time>
      </trkpt>
      <trkpt lat="47.29304" lon="4.97134">
        <ele>345</ele>
        <time>2013-03-09T09:22:53.000Z</time>
      </trkpt>
      <trkpt lat="47.29304" lon="4.97134">
        <ele>345</ele>
        <time>2013-03-09T09:22:54.000Z</time>
      </trkpt>
      <trkpt lat="47.2931" lon="4.97125">
        <ele>345</ele>
        <time>2013-03-09T09:22:55.000Z</time>
      </trkpt>
      <trkpt lat="47.2931" lon="4.97125">
        <ele>345</ele>
        <time>2013-03-09T09:23:40.000Z</time>
      </trkpt>
      <trkpt lat="47.2932" lon="4.97128">
        <ele>345</ele>
        <time>2013-03-09T09:23:41.000Z</time>
      </trkpt>
      <trkpt lat="47.2932" lon="4.97128">
        <ele>345</ele>
        <time>2013-03-09T09:23:45.000Z</time>
      </trkpt>
      <trkpt lat="47.29306" lon="4.97159">
        <ele>345</ele>
        <time>2013-03-09T09:23:54.000Z</time>
      </trkpt>
      <trkpt lat="47.29307" lon="4.97159">
        <ele>345</ele>
        <time>2013-03-09T09:24:09.000Z</time>
      </trkpt>
      <trkpt lat="47.29312" lon="4.97156">
        <ele>345</ele>
        <time>2013-03-09T09:24:10.000Z</time>
      </trkpt>
      <trkpt lat="47.29312" lon="4.97156">
        <ele>345</ele>
        <time>2013-03-09T09:24:19.000Z</time>
      </trkpt>
      <trkpt lat="47.29316" lon="4.97146">
        <ele>345</ele>
        <time>2013-03-09T09:24:20.000Z</time>
      </trkpt>
      <trkpt lat="47.29317" lon="4.97141">
        <ele>345</ele>
        <time>2013-03-09T09:24:22.000Z</time>
      </trkpt>
      <trkpt lat="47.29318" lon="4.97139">
        <ele>345</ele>
        <time>2013-03-09T09:24:23.000Z</time>
      </trkpt>
      <trkpt lat="47.29315" lon="4.97143">
        <ele>345</ele>
        <time>2013-03-09T09:24:33.000Z</time>
      </trkpt>
      <trkpt lat="47.29314" lon="4.97144">
        <ele>345</ele>
        <time>2013-03-09T09:24:34.000Z</time>
      </trkpt>
      <trkpt lat="47.29311" lon="4.97148">
        <ele>345</ele>
        <time>2013-03-09T09:24:42.000Z</time>
      </trkpt>
      <trkpt lat="47.29311" lon="4.97149">
        <ele>345</ele>
        <time>2013-03-09T09:24:43.000Z</time>
      </trkpt>
      <trkpt lat="47.2931" lon="4.97151">
        <ele>345</ele>
        <time>2013-03-09T09:24:45.000Z</time>
      </trkpt>
      <trkpt lat="47.29298" lon="4.97167">
        <ele>346</ele>
        <time>2013-03-09T09:24:57.000Z</time>
      </trkpt>
      <trkpt lat="47.29296" lon="4.97173">
        <ele>346</ele>
        <time>2013-03-09T09:25:00.000Z</time>
      </trkpt>
      <trkpt lat="47.29295" lon="4.97175">
        <ele>346</ele>
        <time>2013-03-09T09:25:01.000Z</time>
      </trkpt>
      <trkpt lat="47.29292" lon="4.97179">
        <ele>346</ele>
        <time>2013-03-09T09:25:04.000Z</time>
      </trkpt>
      <trkpt lat="47.29291" lon="4.97181">
        <ele>346</ele>
        <time>2013-03-09T09:25:05.000Z</time>
      </trkpt>
      <trkpt lat="47.29289" lon="4.97186">
        <ele>346</ele>
        <time>2013-03-09T09:25:08.000Z</time>
      </trkpt>
      <trkpt lat="47.29288" lon="4.97187">
        <ele>346</ele>
        <time>2013-03-09T09:25:09.000Z</time>
      </trkpt>
      <trkpt lat="47.29286" lon="4.97192">
        <ele>346</ele>
        <time>2013-03-09T09:25:12.000Z</time>
      </trkpt>
      <trkpt lat="47.29285" lon="4.97193">
        <ele>346</ele>
        <time>2013-03-09T09:25:13.000Z</time>
      </trkpt>
      <trkpt lat="47.29282" lon="4.97197">
        <ele>346</ele>
        <time>2013-03-09T09:25:16.000Z</time>
      </trkpt>
      <trkpt lat="47.29281" lon="4.97197">
        <ele>346</ele>
        <time>2013-03-09T09:25:17.000Z</time>
      </trkpt>
      <trkpt lat="47.29278" lon="4.97199">
        <ele>346</ele>
        <time>2013-03-09T09:25:20.000Z</time>
      </trkpt>
      <trkpt lat="47.29277" lon="4.972">
        <ele>346</ele>
        <time>2013-03-09T09:25:21.000Z</time>
      </trkpt>
      <trkpt lat="47.29273" lon="4.97203">
        <ele>346</ele>
        <time>2013-03-09T09:25:23.000Z</time>
      </trkpt>
      <trkpt lat="47.29272" lon="4.97205">
        <ele>346</ele>
        <time>2013-03-09T09:25:24.000Z</time>
      </trkpt>
      <trkpt lat="47.29269" lon="4.97209">
        <ele>346</ele>
        <time>2013-03-09T09:25:27.000Z</time>
      </trkpt>
      <trkpt lat="47.29267" lon="4.9721">
        <ele>346</ele>
        <time>2013-03-09T09:25:28.000Z</time>
      </trkpt>
      <trkpt lat="47.29264" lon="4.97213">
        <ele>346</ele>
        <time>2013-03-09T09:25:30.000Z</time>
      </trkpt>
      <trkpt lat="47.29262" lon="4.97214">
        <ele>346</ele>
        <time>2013-03-09T09:25:31.000Z</time>
      </trkpt>
      <trkpt lat="47.2926" lon="4.97217">
        <ele>345</ele>
        <time>2013-03-09T09:25:33.000Z</time>
      </trkpt>
      <trkpt lat="47.29258" lon="4.97218">
        <ele>345</ele>
        <time>2013-03-09T09:25:34.000Z</time>
      </trkpt>
      <trkpt lat="47.29255" lon="4.9722">
        <ele>345</ele>
        <time>2013-03-09T09:25:36.000Z</time>
      </trkpt>
      <trkpt lat="47.29254" lon="4.97222">
        <ele>345</ele>
        <time>2013-03-09T09:25:37.000Z</time>
      </trkpt>
      <trkpt lat="47.29251" lon="4.97225">
        <ele>345</ele>
        <time>2013-03-09T09:25:39.000Z</time>
      </trkpt>
      <trkpt lat="47.29249" lon="4.97226">
        <ele>345</ele>
        <time>2013-03-09T09:25:40.000Z</time>
      </trkpt>
      <trkpt lat="47.29246" lon="4.97228">
        <ele>344</ele>
        <time>2013-03-09T09:25:42.000Z</time>
      </trkpt>
      <trkpt lat="47.29244" lon="4.97228">
        <ele>344</ele>
        <time>2013-03-09T09:25:43.000Z</time>
      </trkpt>
      <trkpt lat="47.29242" lon="4.9723">
        <ele>344</ele>
        <time>2013-03-09T09:25:45.000Z</time>
      </trkpt>
      <trkpt lat="47.29221" lon="4.97243">
        <ele>345</ele>
        <time>2013-03-09T09:25:53.000Z</time>
      </trkpt>
      <trkpt lat="47.29218" lon="4.97246">
        <ele>345</ele>
        <time>2013-03-09T09:25:55.000Z</time>
      </trkpt>
      <trkpt lat="47.29217" lon="4.97248">
        <ele>345</ele>
        <time>2013-03-09T09:25:56.000Z</time>
      </trkpt>
      <trkpt lat="47.29214" lon="4.97251">
        <ele>344</ele>
        <time>2013-03-09T09:25:58.000Z</time>
      </trkpt>
      <trkpt lat="47.29212" lon="4.97252">
        <ele>344</ele>
        <time>2013-03-09T09:25:59.000Z</time>
      </trkpt>
      <trkpt lat="47.29209" lon="4.97254">
        <ele>344</ele>
        <time>2013-03-09T09:26:04.000Z</time>
      </trkpt>
      <trkpt lat="47.29208" lon="4.97255">
        <ele>344</ele>
        <time>2013-03-09T09:26:05.000Z</time>
      </trkpt>
      <trkpt lat="47.29205" lon="4.97258">
        <ele>344</ele>
        <time>2013-03-09T09:26:08.000Z</time>
      </trkpt>
      <trkpt lat="47.29204" lon="4.97259">
        <ele>344</ele>
        <time>2013-03-09T09:26:09.000Z</time>
      </trkpt>
      <trkpt lat="47.29201" lon="4.97262">
        <ele>344</ele>
        <time>2013-03-09T09:26:12.000Z</time>
      </trkpt>
      <trkpt lat="47.292" lon="4.97263">
        <ele>344</ele>
        <time>2013-03-09T09:26:13.000Z</time>
      </trkpt>
      <trkpt lat="47.29196" lon="4.97267">
        <ele>344</ele>
        <time>2013-03-09T09:26:16.000Z</time>
      </trkpt>
      <trkpt lat="47.29195" lon="4.97268">
        <ele>344</ele>
        <time>2013-03-09T09:26:17.000Z</time>
      </trkpt>
      <trkpt lat="47.29192" lon="4.97271">
        <ele>344</ele>
        <time>2013-03-09T09:26:19.000Z</time>
      </trkpt>
      <trkpt lat="47.29191" lon="4.97272">
        <ele>344</ele>
        <time>2013-03-09T09:26:20.000Z</time>
      </trkpt>
      <trkpt lat="47.29189" lon="4.97277">
        <ele>344</ele>
        <time>2013-03-09T09:26:23.000Z</time>
      </trkpt>
      <trkpt lat="47.29187" lon="4.97278">
        <ele>344</ele>
        <time>2013-03-09T09:26:24.000Z</time>
      </trkpt>
      <trkpt lat="47.29185" lon="4.97282">
        <ele>344</ele>
        <time>2013-03-09T09:26:27.000Z</time>
      </trkpt>
      <trkpt lat="47.29184" lon="4.97283">
        <ele>344</ele>
        <time>2013-03-09T09:26:28.000Z</time>
      </trkpt>
      <trkpt lat="47.29181" lon="4.97288">
        <ele>344</ele>
        <time>2013-03-09T09:26:31.000Z</time>
      </trkpt>
      <trkpt lat="47.2918" lon="4.9729">
        <ele>344</ele>
        <time>2013-03-09T09:26:32.000Z</time>
      </trkpt>
      <trkpt lat="47.29177" lon="4.97293">
        <ele>343</ele>
        <time>2013-03-09T09:26:35.000Z</time>
      </trkpt>
      <trkpt lat="47.29176" lon="4.97295">
        <ele>343</ele>
        <time>2013-03-09T09:26:36.000Z</time>
      </trkpt>
      <trkpt lat="47.29173" lon="4.97297">
        <ele>343</ele>
        <time>2013-03-09T09:26:38.000Z</time>
      </trkpt>
      <trkpt lat="47.29172" lon="4.97298">
        <ele>343</ele>
        <time>2013-03-09T09:26:39.000Z</time>
      </trkpt>
      <trkpt lat="47.29169" lon="4.97302">
        <ele>343</ele>
        <time>2013-03-09T09:26:42.000Z</time>
      </trkpt>
      <trkpt lat="47.29167" lon="4.97303">
        <ele>342</ele>
        <time>2013-03-09T09:26:43.000Z</time>
      </trkpt>
      <trkpt lat="47.29164" lon="4.97306">
        <ele>343</ele>
        <time>2013-03-09T09:26:45.000Z</time>
      </trkpt>
      <trkpt lat="47.29132" lon="4.97346">
        <ele>339</ele>
        <time>2013-03-09T09:26:55.000Z</time>
      </trkpt>
      <trkpt lat="47.29131" lon="4.97352">
        <ele>339</ele>
        <time>2013-03-09T09:27:00.000Z</time>
      </trkpt>
      <trkpt lat="47.2913" lon="4.97353">
        <ele>339</ele>
        <time>2013-03-09T09:27:01.000Z</time>
      </trkpt>
      <trkpt lat="47.29128" lon="4.97356">
        <ele>339</ele>
        <time>2013-03-09T09:27:04.000Z</time>
      </trkpt>
      <trkpt lat="47.29126" lon="4.97358">
        <ele>339</ele>
        <time>2013-03-09T09:27:05.000Z</time>
      </trkpt>
      <trkpt lat="47.29124" lon="4.97363">
        <ele>339</ele>
        <time>2013-03-09T09:27:08.000Z</time>
      </trkpt>
      <trkpt lat="47.29124" lon="4.97364">
        <ele>339</ele>
        <time>2013-03-09T09:27:09.000Z</time>
      </trkpt>
      <trkpt lat="47.29122" lon="4.97368">
        <ele>339</ele>
        <time>2013-03-09T09:27:12.000Z</time>
      </trkpt>
      <trkpt lat="47.29121" lon="4.97369">
        <ele>339</ele>
        <time>2013-03-09T09:27:13.000Z</time>
      </trkpt>
      <trkpt lat="47.2912" lon="4.97375">
        <ele>339</ele>
        <time>2013-03-09T09:27:16.000Z</time>
      </trkpt>
      <trkpt lat="47.2912" lon="4.97377">
        <ele>339</ele>
        <time>2013-03-09T09:27:17.000Z</time>
      </trkpt>
      <trkpt lat="47.29118" lon="4.97383">
        <ele>339</ele>
        <time>2013-03-09T09:27:20.000Z</time>
      </trkpt>
      <trkpt lat="47.29118" lon="4.97385">
        <ele>339</ele>
        <time>2013-03-09T09:27:21.000Z</time>
      </trkpt>
      <trkpt lat="47.29117" lon="4.97389">
        <ele>339</ele>
        <time>2013-03-09T09:27:23.000Z</time>
      </trkpt>
      <trkpt lat="47.29116" lon="4.97391">
        <ele>339</ele>
        <time>2013-03-09T09:27:24.000Z</time>
      </trkpt>
      <trkpt lat="47.29115" lon="4.97395">
        <ele>338</ele>
        <time>2013-03-09T09:27:26.000Z</time>
      </trkpt>
      <trkpt lat="47.29114" lon="4.97398">
        <ele>338</ele>
        <time>2013-03-09T09:27:27.000Z</time>
      </trkpt>
      <trkpt lat="47.29113" lon="4.97403">
        <ele>338</ele>
        <time>2013-03-09T09:27:29.000Z</time>
      </trkpt>
      <trkpt lat="47.29112" lon="4.97405">
        <ele>338</ele>
        <time>2013-03-09T09:27:30.000Z</time>
      </trkpt>
      <trkpt lat="47.29109" lon="4.97408">
        <ele>338</ele>
        <time>2013-03-09T09:27:32.000Z</time>
      </trkpt>
      <trkpt lat="47.29108" lon="4.9741">
        <ele>337</ele>
        <time>2013-03-09T09:27:33.000Z</time>
      </trkpt>
      <trkpt lat="47.29106" lon="4.97414">
        <ele>337</ele>
        <time>2013-03-09T09:27:36.000Z</time>
      </trkpt>
      <trkpt lat="47.29106" lon="4.97416">
        <ele>337</ele>
        <time>2013-03-09T09:27:37.000Z</time>
      </trkpt>
      <trkpt lat="47.29104" lon="4.97421">
        <ele>337</ele>
        <time>2013-03-09T09:27:40.000Z</time>
      </trkpt>
      <trkpt lat="47.29102" lon="4.97422">
        <ele>337</ele>
        <time>2013-03-09T09:27:41.000Z</time>
      </trkpt>
      <trkpt lat="47.291" lon="4.97426">
        <ele>337</ele>
        <time>2013-03-09T09:27:43.000Z</time>
      </trkpt>
      <trkpt lat="47.29099" lon="4.97428">
        <ele>336</ele>
        <time>2013-03-09T09:27:44.000Z</time>
      </trkpt>
      <trkpt lat="47.29097" lon="4.97429">
        <ele>336</ele>
        <time>2013-03-09T09:27:45.000Z</time>
      </trkpt>
      <trkpt lat="47.29078" lon="4.97444">
        <ele>336</ele>
        <time>2013-03-09T09:27:52.000Z</time>
      </trkpt>
      <trkpt lat="47.29077" lon="4.97449">
        <ele>336</ele>
        <time>2013-03-09T09:27:55.000Z</time>
      </trkpt>
      <trkpt lat="47.29077" lon="4.97451">
        <ele>336</ele>
        <time>2013-03-09T09:27:56.000Z</time>
      </trkpt>
      <trkpt lat="47.29075" lon="4.97456">
        <ele>336</ele>
        <time>2013-03-09T09:28:00.000Z</time>
      </trkpt>
      <trkpt lat="47.29074" lon="4.97458">
        <ele>336</ele>
        <time>2013-03-09T09:28:01.000Z</time>
      </trkpt>
      <trkpt lat="47.29073" lon="4.97463">
        <ele>336</ele>
        <time>2013-03-09T09:28:03.000Z</time>
      </trkpt>
      <trkpt lat="47.29072" lon="4.97466">
        <ele>336</ele>
        <time>2013-03-09T09:28:04.000Z</time>
      </trkpt>
      <trkpt lat="47.29069" lon="4.9747">
        <ele>335</ele>
        <time>2013-03-09T09:28:06.000Z</time>
      </trkpt>
      <trkpt lat="47.29068" lon="4.97472">
        <ele>335</ele>
        <time>2013-03-09T09:28:07.000Z</time>
      </trkpt>
      <trkpt lat="47.29066" lon="4.97476">
        <ele>335</ele>
        <time>2013-03-09T09:28:09.000Z</time>
      </trkpt>
      <trkpt lat="47.29065" lon="4.97478">
        <ele>335</ele>
        <time>2013-03-09T09:28:10.000Z</time>
      </trkpt>
      <trkpt lat="47.29062" lon="4.97482">
        <ele>335</ele>
        <time>2013-03-09T09:28:13.000Z</time>
      </trkpt>
      <trkpt lat="47.29061" lon="4.97484">
        <ele>335</ele>
        <time>2013-03-09T09:28:14.000Z</time>
      </trkpt>
      <trkpt lat="47.29058" lon="4.9749">
        <ele>335</ele>
        <time>2013-03-09T09:28:17.000Z</time>
      </trkpt>
      <trkpt lat="47.29057" lon="4.97492">
        <ele>335</ele>
        <time>2013-03-09T09:28:18.000Z</time>
      </trkpt>
      <trkpt lat="47.29056" lon="4.97498">
        <ele>335</ele>
        <time>2013-03-09T09:28:21.000Z</time>
      </trkpt>
      <trkpt lat="47.29056" lon="4.97501">
        <ele>332</ele>
        <time>2013-03-09T09:28:22.000Z</time>
      </trkpt>
      <trkpt lat="47.29054" lon="4.97505">
        <ele>332</ele>
        <time>2013-03-09T09:28:24.000Z</time>
      </trkpt>
      <trkpt lat="47.29054" lon="4.97508">
        <ele>332</ele>
        <time>2013-03-09T09:28:25.000Z</time>
      </trkpt>
      <trkpt lat="47.29053" lon="4.97512">
        <ele>332</ele>
        <time>2013-03-09T09:28:27.000Z</time>
      </trkpt>
      <trkpt lat="47.29053" lon="4.97514">
        <ele>332</ele>
        <time>2013-03-09T09:28:28.000Z</time>
      </trkpt>
      <trkpt lat="47.29052" lon="4.97519">
        <ele>332</ele>
        <time>2013-03-09T09:28:31.000Z</time>
      </trkpt>
      <trkpt lat="47.29052" lon="4.97521">
        <ele>332</ele>
        <time>2013-03-09T09:28:32.000Z</time>
      </trkpt>
      <trkpt lat="47.29051" lon="4.97526">
        <ele>332</ele>
        <time>2013-03-09T09:28:35.000Z</time>
      </trkpt>
      <trkpt lat="47.29051" lon="4.97528">
        <ele>332</ele>
        <time>2013-03-09T09:28:36.000Z</time>
      </trkpt>
      <trkpt lat="47.29049" lon="4.97534">
        <ele>332</ele>
        <time>2013-03-09T09:28:39.000Z</time>
      </trkpt>
      <trkpt lat="47.29048" lon="4.97536">
        <ele>332</ele>
        <time>2013-03-09T09:28:40.000Z</time>
      </trkpt>
      <trkpt lat="47.29046" lon="4.97541">
        <ele>332</ele>
        <time>2013-03-09T09:28:43.000Z</time>
      </trkpt>
      <trkpt lat="47.29045" lon="4.97542">
        <ele>332</ele>
        <time>2013-03-09T09:28:44.000Z</time>
      </trkpt>
      <trkpt lat="47.29044" lon="4.97543">
        <ele>332</ele>
        <time>2013-03-09T09:28:45.000Z</time>
      </trkpt>
      <trkpt lat="47.2903" lon="4.97557">
        <ele>332</ele>
        <time>2013-03-09T09:28:56.000Z</time>
      </trkpt>
      <trkpt lat="47.29034" lon="4.97557">
        <ele>332</ele>
        <time>2013-03-09T09:28:58.000Z</time>
      </trkpt>
      <trkpt lat="47.29035" lon="4.97557">
        <ele>332</ele>
        <time>2013-03-09T09:28:59.000Z</time>
      </trkpt>
      <trkpt lat="47.29039" lon="4.97557">
        <ele>332</ele>
        <time>2013-03-09T09:29:01.000Z</time>
      </trkpt>
      <trkpt lat="47.2904" lon="4.97557">
        <ele>332</ele>
        <time>2013-03-09T09:29:02.000Z</time>
      </trkpt>
      <trkpt lat="47.29044" lon="4.97557">
        <ele>332</ele>
        <time>2013-03-09T09:29:04.000Z</time>
      </trkpt>
      <trkpt lat="47.29045" lon="4.97557">
        <ele>332</ele>
        <time>2013-03-09T09:29:05.000Z</time>
      </trkpt>
      <trkpt lat="47.29048" lon="4.97558">
        <ele>332</ele>
        <time>2013-03-09T09:29:07.000Z</time>
      </trkpt>
      <trkpt lat="47.2905" lon="4.97559">
        <ele>332</ele>
        <time>2013-03-09T09:29:08.000Z</time>
      </trkpt>
      <trkpt lat="47.29054" lon="4.9756">
        <ele>332</ele>
        <time>2013-03-09T09:29:11.000Z</time>
      </trkpt>
      <trkpt lat="47.29055" lon="4.97561">
        <ele>332</ele>
        <time>2013-03-09T09:29:12.000Z</time>
      </trkpt>
      <trkpt lat="47.29058" lon="4.97563">
        <ele>331</ele>
        <time>2013-03-09T09:29:15.000Z</time>
      </trkpt>
      <trkpt lat="47.29059" lon="4.97564">
        <ele>331</ele>
        <time>2013-03-09T09:29:16.000Z</time>
      </trkpt>
      <trkpt lat="47.29062" lon="4.97566">
        <ele>331</ele>
        <time>2013-03-09T09:29:19.000Z</time>
      </trkpt>
      <trkpt lat="47.29064" lon="4.97566">
        <ele>331</ele>
        <time>2013-03-09T09:29:20.000Z</time>
      </trkpt>
      <trkpt lat="47.29068" lon="4.97567">
        <ele>331</ele>
        <time>2013-03-09T09:29:23.000Z</time>
      </trkpt>
      <trkpt lat="47.29069" lon="4.97568">
        <ele>331</ele>
        <time>2013-03-09T09:29:24.000Z</time>
      </trkpt>
      <trkpt lat="47.29072" lon="4.9757">
        <ele>331</ele>
        <time>2013-03-09T09:29:27.000Z</time>
      </trkpt>
      <trkpt lat="47.29073" lon="4.97571">
        <ele>331</ele>
        <time>2013-03-09T09:29:28.000Z</time>
      </trkpt>
      <trkpt lat="47.29076" lon="4.97574">
        <ele>331</ele>
        <time>2013-03-09T09:29:30.000Z</time>
      </trkpt>
      <trkpt lat="47.29078" lon="4.97575">
        <ele>331</ele>
        <time>2013-03-09T09:29:31.000Z</time>
      </trkpt>
      <trkpt lat="47.29081" lon="4.97576">
        <ele>331</ele>
        <time>2013-03-09T09:29:33.000Z</time>
      </trkpt>
      <trkpt lat="47.29082" lon="4.97577">
        <ele>331</ele>
        <time>2013-03-09T09:29:34.000Z</time>
      </trkpt>
      <trkpt lat="47.29085" lon="4.97579">
        <ele>333</ele>
        <time>2013-03-09T09:29:36.000Z</time>
      </trkpt>
      <trkpt lat="47.29087" lon="4.9758">
        <ele>333</ele>
        <time>2013-03-09T09:29:37.000Z</time>
      </trkpt>
      <trkpt lat="47.2909" lon="4.97583">
        <ele>334</ele>
        <time>2013-03-09T09:29:40.000Z</time>
      </trkpt>
      <trkpt lat="47.29091" lon="4.97584">
        <ele>335</ele>
        <time>2013-03-09T09:29:41.000Z</time>
      </trkpt>
      <trkpt lat="47.29095" lon="4.97587">
        <ele>336</ele>
        <time>2013-03-09T09:29:44.000Z</time>
      </trkpt>
      <trkpt lat="47.29096" lon="4.97588">
        <ele>337</ele>
        <time>2013-03-09T09:29:45.000Z</time>
      </trkpt>
      <trkpt lat="47.29114" lon="4.97588">
        <ele>341</ele>
        <time>2013-03-09T09:29:52.000Z</time>
      </trkpt>
      <trkpt lat="47.29118" lon="4.97592">
        <ele>342</ele>
        <time>2013-03-09T09:29:55.000Z</time>
      </trkpt>
      <trkpt lat="47.29118" lon="4.97593">
        <ele>342</ele>
        <time>2013-03-09T09:29:56.000Z</time>
      </trkpt>
      <trkpt lat="47.29121" lon="4.97595">
        <ele>342</ele>
        <time>2013-03-09T09:30:00.000Z</time>
      </trkpt>
      <trkpt lat="47.29123" lon="4.97596">
        <ele>343</ele>
        <time>2013-03-09T09:30:01.000Z</time>
      </trkpt>
      <trkpt lat="47.29126" lon="4.97599">
        <ele>343</ele>
        <time>2013-03-09T09:30:05.000Z</time>
      </trkpt>
      <trkpt lat="47.29126" lon="4.976">
        <ele>343</ele>
        <time>2013-03-09T09:30:06.000Z</time>
      </trkpt>
      <trkpt lat="47.29129" lon="4.97605">
        <ele>344</ele>
        <time>2013-03-09T09:30:11.000Z</time>
      </trkpt>
      <trkpt lat="47.29129" lon="4.97607">
        <ele>344</ele>
        <time>2013-03-09T09:30:12.000Z</time>
      </trkpt>
      <trkpt lat="47.29133" lon="4.97611">
        <ele>344</ele>
        <time>2013-03-09T09:30:15.000Z</time>
      </trkpt>
      <trkpt lat="47.29134" lon="4.97612">
        <ele>344</ele>
        <time>2013-03-09T09:30:16.000Z</time>
      </trkpt>
      <trkpt lat="47.29136" lon="4.97615">
        <ele>345</ele>
        <time>2013-03-09T09:30:19.000Z</time>
      </trkpt>
      <trkpt lat="47.29137" lon="4.97616">
        <ele>345</ele>
        <time>2013-03-09T09:30:20.000Z</time>
      </trkpt>
      <trkpt lat="47.29137" lon="4.97622">
        <ele>345</ele>
        <time>2013-03-09T09:30:22.000Z</time>
      </trkpt>
      <trkpt lat="47.29132" lon="4.97639">
        <ele>345</ele>
        <time>2013-03-09T09:30:23.000Z</time>
      </trkpt>
      <trkpt lat="47.29133" lon="4.97642">
        <ele>345</ele>
        <time>2013-03-09T09:30:24.000Z</time>
      </trkpt>
      <trkpt lat="47.29139" lon="4.97638">
        <ele>345</ele>
        <time>2013-03-09T09:30:25.000Z</time>
      </trkpt>
      <trkpt lat="47.29142" lon="4.97636">
        <ele>345</ele>
        <time>2013-03-09T09:30:26.000Z</time>
      </trkpt>
      <trkpt lat="47.29143" lon="4.97635">
        <ele>345</ele>
        <time>2013-03-09T09:30:27.000Z</time>
      </trkpt>
      <trkpt lat="47.29147" lon="4.97636">
        <ele>346</ele>
        <time>2013-03-09T09:30:29.000Z</time>
      </trkpt>
      <trkpt lat="47.29148" lon="4.97637">
        <ele>346</ele>
        <time>2013-03-09T09:30:30.000Z</time>
      </trkpt>
      <trkpt lat="47.29151" lon="4.97641">
        <ele>346</ele>
        <time>2013-03-09T09:30:33.000Z</time>
      </trkpt>
      <trkpt lat="47.29152" lon="4.97642">
        <ele>346</ele>
        <time>2013-03-09T09:30:34.000Z</time>
      </trkpt>
      <trkpt lat="47.29153" lon="4.97648">
        <ele>346</ele>
        <time>2013-03-09T09:30:38.000Z</time>
      </trkpt>
      <trkpt lat="47.29154" lon="4.97649">
        <ele>346</ele>
        <time>2013-03-09T09:30:39.000Z</time>
      </trkpt>
      <trkpt lat="47.29156" lon="4.97653">
        <ele>347</ele>
        <time>2013-03-09T09:30:43.000Z</time>
      </trkpt>
      <trkpt lat="47.29156" lon="4.97654">
        <ele>347</ele>
        <time>2013-03-09T09:30:44.000Z</time>
      </trkpt>
      <trkpt lat="47.29157" lon="4.97656">
        <ele>347</ele>
        <time>2013-03-09T09:30:45.000Z</time>
      </trkpt>
      <trkpt lat="47.29109" lon="4.9786">
        <ele>360</ele>
        <time>2013-03-09T09:31:04.000Z</time>
      </trkpt>
      <trkpt lat="47.29111" lon="4.97863">
        <ele>360</ele>
        <time>2013-03-09T09:31:05.000Z</time>
      </trkpt>
      <trkpt lat="47.29111" lon="4.97867">
        <ele>359</ele>
        <time>2013-03-09T09:31:06.000Z</time>
      </trkpt>
      <trkpt lat="47.29111" lon="4.97872">
        <ele>359</ele>
        <time>2013-03-09T09:31:07.000Z</time>
      </trkpt>
      <trkpt lat="47.29105" lon="4.9787">
        <ele>359</ele>
        <time>2013-03-09T09:31:08.000Z</time>
      </trkpt>
      <trkpt lat="47.29101" lon="4.97865">
        <ele>359</ele>
        <time>2013-03-09T09:31:09.000Z</time>
      </trkpt>
      <trkpt lat="47.29105" lon="4.97867">
        <ele>359</ele>
        <time>2013-03-09T09:31:11.000Z</time>
      </trkpt>
      <trkpt lat="47.29106" lon="4.97865">
        <ele>359</ele>
        <time>2013-03-09T09:31:12.000Z</time>
      </trkpt>
      <trkpt lat="47.29103" lon="4.97857">
        <ele>359</ele>
        <time>2013-03-09T09:31:13.000Z</time>
      </trkpt>
      <trkpt lat="47.29108" lon="4.97859">
        <ele>359</ele>
        <time>2013-03-09T09:31:14.000Z</time>
      </trkpt>
      <trkpt lat="47.29112" lon="4.97861">
        <ele>360</ele>
        <time>2013-03-09T09:31:17.000Z</time>
      </trkpt>
      <trkpt lat="47.29113" lon="4.9786">
        <ele>360</ele>
        <time>2013-03-09T09:31:18.000Z</time>
      </trkpt>
      <trkpt lat="47.29118" lon="4.97857">
        <ele>360</ele>
        <time>2013-03-09T09:31:19.000Z</time>
      </trkpt>
      <trkpt lat="47.29121" lon="4.97858">
        <ele>360</ele>
        <time>2013-03-09T09:31:20.000Z</time>
      </trkpt>
      <trkpt lat="47.29154" lon="4.97742">
        <ele>356</ele>
        <time>2013-03-09T09:31:21.000Z</time>
      </trkpt>
      <trkpt lat="47.29192" lon="4.97716">
        <ele>360</ele>
        <time>2013-03-09T09:31:22.000Z</time>
      </trkpt>
      <trkpt lat="47.29195" lon="4.9771">
        <ele>360</ele>
        <time>2013-03-09T09:31:23.000Z</time>
      </trkpt>
      <trkpt lat="47.29196" lon="4.97715">
        <ele>360</ele>
        <time>2013-03-09T09:31:28.000Z</time>
      </trkpt>
      <trkpt lat="47.29198" lon="4.97716">
        <ele>360</ele>
        <time>2013-03-09T09:31:29.000Z</time>
      </trkpt>
      <trkpt lat="47.29201" lon="4.97718">
        <ele>360</ele>
        <time>2013-03-09T09:31:31.000Z</time>
      </trkpt>
      <trkpt lat="47.29202" lon="4.97719">
        <ele>360</ele>
        <time>2013-03-09T09:31:32.000Z</time>
      </trkpt>
      <trkpt lat="47.29205" lon="4.97721">
        <ele>361</ele>
        <time>2013-03-09T09:31:34.000Z</time>
      </trkpt>
      <trkpt lat="47.29206" lon="4.97722">
        <ele>361</ele>
        <time>2013-03-09T09:31:35.000Z</time>
      </trkpt>
      <trkpt lat="47.29209" lon="4.97725">
        <ele>361</ele>
        <time>2013-03-09T09:31:37.000Z</time>
      </trkpt>
      <trkpt lat="47.2921" lon="4.97726">
        <ele>361</ele>
        <time>2013-03-09T09:31:38.000Z</time>
      </trkpt>
      <trkpt lat="47.29213" lon="4.97728">
        <ele>361</ele>
        <time>2013-03-09T09:31:41.000Z</time>
      </trkpt>
      <trkpt lat="47.29214" lon="4.97729">
        <ele>361</ele>
        <time>2013-03-09T09:31:42.000Z</time>
      </trkpt>
      <trkpt lat="47.29217" lon="4.97732">
        <ele>361</ele>
        <time>2013-03-09T09:31:45.000Z</time>
      </trkpt>
      <trkpt lat="47.29219" lon="4.97733">
        <ele>362</ele>
        <time>2013-03-09T09:31:46.000Z</time>
      </trkpt>
      <trkpt lat="47.29222" lon="4.97736">
        <ele>362</ele>
        <time>2013-03-09T09:31:49.000Z</time>
      </trkpt>
      <trkpt lat="47.29223" lon="4.97737">
        <ele>362</ele>
        <time>2013-03-09T09:31:50.000Z</time>
      </trkpt>
      <trkpt lat="47.29226" lon="4.97739">
        <ele>362</ele>
        <time>2013-03-09T09:31:53.000Z</time>
      </trkpt>
      <trkpt lat="47.29228" lon="4.9774">
        <ele>362</ele>
        <time>2013-03-09T09:31:54.000Z</time>
      </trkpt>
      <trkpt lat="47.2923" lon="4.97742">
        <ele>362</ele>
        <time>2013-03-09T09:31:56.000Z</time>
      </trkpt>
      <trkpt lat="47.29231" lon="4.97743">
        <ele>362</ele>
        <time>2013-03-09T09:31:57.000Z</time>
      </trkpt>
      <trkpt lat="47.29235" lon="4.97746">
        <ele>363</ele>
        <time>2013-03-09T09:32:00.000Z</time>
      </trkpt>
      <trkpt lat="47.29236" lon="4.97747">
        <ele>363</ele>
        <time>2013-03-09T09:32:01.000Z</time>
      </trkpt>
      <trkpt lat="47.29238" lon="4.9775">
        <ele>363</ele>
        <time>2013-03-09T09:32:03.000Z</time>
      </trkpt>
      <trkpt lat="47.2924" lon="4.9775">
        <ele>365</ele>
        <time>2013-03-09T09:32:04.000Z</time>
      </trkpt>
      <trkpt lat="47.29243" lon="4.97753">
        <ele>365</ele>
        <time>2013-03-09T09:32:07.000Z</time>
      </trkpt>
      <trkpt lat="47.29244" lon="4.97753">
        <ele>364</ele>
        <time>2013-03-09T09:32:08.000Z</time>
      </trkpt>
      <trkpt lat="47.29247" lon="4.97757">
        <ele>365</ele>
        <time>2013-03-09T09:32:11.000Z</time>
      </trkpt>
      <trkpt lat="47.29249" lon="4.97758">
        <ele>365</ele>
        <time>2013-03-09T09:32:12.000Z</time>
      </trkpt>
      <trkpt lat="47.29253" lon="4.97761">
        <ele>367</ele>
        <time>2013-03-09T09:32:15.000Z</time>
      </trkpt>
      <trkpt lat="47.29254" lon="4.97762">
        <ele>367</ele>
        <time>2013-03-09T09:32:16.000Z</time>
      </trkpt>
      <trkpt lat="47.29257" lon="4.97765">
        <ele>368</ele>
        <time>2013-03-09T09:32:19.000Z</time>
      </trkpt>
      <trkpt lat="47.29258" lon="4.97765">
        <ele>368</ele>
        <time>2013-03-09T09:32:20.000Z</time>
      </trkpt>
      <trkpt lat="47.29261" lon="4.97767">
        <ele>369</ele>
        <time>2013-03-09T09:32:23.000Z</time>
      </trkpt>
      <trkpt lat="47.29262" lon="4.97768">
        <ele>369</ele>
        <time>2013-03-09T09:32:24.000Z</time>
      </trkpt>
      <trkpt lat="47.29266" lon="4.9777">
        <ele>370</ele>
        <time>2013-03-09T09:32:27.000Z</time>
      </trkpt>
      <trkpt lat="47.29268" lon="4.97771">
        <ele>370</ele>
        <time>2013-03-09T09:32:28.000Z</time>
      </trkpt>
      <trkpt lat="47.29271" lon="4.97773">
        <ele>370</ele>
        <time>2013-03-09T09:32:31.000Z</time>
      </trkpt>
      <trkpt lat="47.29272" lon="4.97774">
        <ele>371</ele>
        <time>2013-03-09T09:32:32.000Z</time>
      </trkpt>
      <trkpt lat="47.29276" lon="4.97778">
        <ele>371</ele>
        <time>2013-03-09T09:32:36.000Z</time>
      </trkpt>
      <trkpt lat="47.29277" lon="4.97779">
        <ele>371</ele>
        <time>2013-03-09T09:32:37.000Z</time>
      </trkpt>
      <trkpt lat="47.29281" lon="4.97781">
        <ele>372</ele>
        <time>2013-03-09T09:32:40.000Z</time>
      </trkpt>
      <trkpt lat="47.29282" lon="4.97782">
        <ele>372</ele>
        <time>2013-03-09T09:32:41.000Z</time>
      </trkpt>
      <trkpt lat="47.29285" lon="4.97786">
        <ele>372</ele>
        <time>2013-03-09T09:32:44.000Z</time>
      </trkpt>
      <trkpt lat="47.29286" lon="4.97787">
        <ele>372</ele>
        <time>2013-03-09T09:32:45.000Z</time>
      </trkpt>
      <trkpt lat="47.29298" lon="4.97793">
        <ele>373</ele>
        <time>2013-03-09T09:32:52.000Z</time>
      </trkpt>
      <trkpt lat="47.29301" lon="4.97792">
        <ele>373</ele>
        <time>2013-03-09T09:32:56.000Z</time>
      </trkpt>
      <trkpt lat="47.29302" lon="4.97793">
        <ele>373</ele>
        <time>2013-03-09T09:32:57.000Z</time>
      </trkpt>
      <trkpt lat="47.29306" lon="4.97795">
        <ele>373</ele>
        <time>2013-03-09T09:33:01.000Z</time>
      </trkpt>
      <trkpt lat="47.29307" lon="4.97795">
        <ele>373</ele>
        <time>2013-03-09T09:33:02.000Z</time>
      </trkpt>
      <trkpt lat="47.29311" lon="4.97796">
        <ele>373</ele>
        <time>2013-03-09T09:33:06.000Z</time>
      </trkpt>
      <trkpt lat="47.29312" lon="4.97796">
        <ele>373</ele>
        <time>2013-03-09T09:33:07.000Z</time>
      </trkpt>
      <trkpt lat="47.29316" lon="4.97798">
        <ele>374</ele>
        <time>2013-03-09T09:33:11.000Z</time>
      </trkpt>
      <trkpt lat="47.29317" lon="4.97799">
        <ele>374</ele>
        <time>2013-03-09T09:33:12.000Z</time>
      </trkpt>
      <trkpt lat="47.29321" lon="4.978">
        <ele>374</ele>
        <time>2013-03-09T09:33:17.000Z</time>
      </trkpt>
      <trkpt lat="47.29323" lon="4.978">
        <ele>374</ele>
        <time>2013-03-09T09:33:18.000Z</time>
      </trkpt>
      <trkpt lat="47.29327" lon="4.97801">
        <ele>374</ele>
        <time>2013-03-09T09:33:21.000Z</time>
      </trkpt>
      <trkpt lat="47.29328" lon="4.97801">
        <ele>374</ele>
        <time>2013-03-09T09:33:22.000Z</time>
      </trkpt>
      <trkpt lat="47.29331" lon="4.97803">
        <ele>374</ele>
        <time>2013-03-09T09:33:24.000Z</time>
      </trkpt>
      <trkpt lat="47.29332" lon="4.97804">
        <ele>374</ele>
        <time>2013-03-09T09:33:25.000Z</time>
      </trkpt>
      <trkpt lat="47.29336" lon="4.97808">
        <ele>378</ele>
        <time>2013-03-09T09:33:28.000Z</time>
      </trkpt>
      <trkpt lat="47.29337" lon="4.97809">
        <ele>378</ele>
        <time>2013-03-09T09:33:29.000Z</time>
      </trkpt>
      <trkpt lat="47.2934" lon="4.97809">
        <ele>378</ele>
        <time>2013-03-09T09:33:33.000Z</time>
      </trkpt>
      <trkpt lat="47.29342" lon="4.97809">
        <ele>378</ele>
        <time>2013-03-09T09:33:34.000Z</time>
      </trkpt>
      <trkpt lat="47.29344" lon="4.97805">
        <ele>379</ele>
        <time>2013-03-09T09:33:38.000Z</time>
      </trkpt>
      <trkpt lat="47.29345" lon="4.97803">
        <ele>379</ele>
        <time>2013-03-09T09:33:39.000Z</time>
      </trkpt>
      <trkpt lat="47.29347" lon="4.97798">
        <ele>379</ele>
        <time>2013-03-09T09:33:43.000Z</time>
      </trkpt>
      <trkpt lat="47.29347" lon="4.97796">
        <ele>379</ele>
        <time>2013-03-09T09:33:44.000Z</time>
      </trkpt>
      <trkpt lat="47.29348" lon="4.97795">
        <ele>379</ele>
        <time>2013-03-09T09:33:45.000Z</time>
      </trkpt>
      <trkpt lat="47.29353" lon="4.97786">
        <ele>379</ele>
        <time>2013-03-09T09:33:52.000Z</time>
      </trkpt>
      <trkpt lat="47.29356" lon="4.97783">
        <ele>379</ele>
        <time>2013-03-09T09:33:55.000Z</time>
      </trkpt>
      <trkpt lat="47.29357" lon="4.97782">
        <ele>379</ele>
        <time>2013-03-09T09:33:56.000Z</time>
      </trkpt>
      <trkpt lat="47.2936" lon="4.97777">
        <ele>379</ele>
        <time>2013-03-09T09:34:00.000Z</time>
      </trkpt>
      <trkpt lat="47.29361" lon="4.97776">
        <ele>379</ele>
        <time>2013-03-09T09:34:01.000Z</time>
      </trkpt>
      <trkpt lat="47.29358" lon="4.97777">
        <ele>379</ele>
        <time>2013-03-09T09:35:20.000Z</time>
      </trkpt>
      <trkpt lat="47.29197" lon="4.97786">
        <ele>366</ele>
        <time>2013-03-09T09:35:27.000Z</time>
      </trkpt>
      <trkpt lat="47.29195" lon="4.97813">
        <ele>367</ele>
        <time>2013-03-09T09:35:28.000Z</time>
      </trkpt>
      <trkpt lat="47.2919" lon="4.97818">
        <ele>367</ele>
        <time>2013-03-09T09:35:29.000Z</time>
      </trkpt>
      <trkpt lat="47.29187" lon="4.97825">
        <ele>368</ele>
        <time>2013-03-09T09:35:30.000Z</time>
      </trkpt>
      <trkpt lat="47.29187" lon="4.97825">
        <ele>368</ele>
        <time>2013-03-09T09:35:31.000Z</time>
      </trkpt>
      <trkpt lat="47.2919" lon="4.97834">
        <ele>371</ele>
        <time>2013-03-09T09:35:32.000Z</time>
      </trkpt>
      <trkpt lat="47.2919" lon="4.97838">
        <ele>371</ele>
        <time>2013-03-09T09:35:33.000Z</time>
      </trkpt>
      <trkpt lat="47.29192" lon="4.97841">
        <ele>371</ele>
        <time>2013-03-09T09:35:34.000Z</time>
      </trkpt>
      <trkpt lat="47.29192" lon="4.97846">
        <ele>371</ele>
        <time>2013-03-09T09:35:36.000Z</time>
      </trkpt>
      <trkpt lat="47.29191" lon="4.97855">
        <ele>371</ele>
        <time>2013-03-09T09:35:37.000Z</time>
      </trkpt>
      <trkpt lat="47.29189" lon="4.97857">
        <ele>371</ele>
        <time>2013-03-09T09:35:39.000Z</time>
      </trkpt>
      <trkpt lat="47.29191" lon="4.97861">
        <ele>371</ele>
        <time>2013-03-09T09:35:40.000Z</time>
      </trkpt>
      <trkpt lat="47.29193" lon="4.97866">
        <ele>372</ele>
        <time>2013-03-09T09:35:42.000Z</time>
      </trkpt>
      <trkpt lat="47.29181" lon="4.97861">
        <ele>371</ele>
        <time>2013-03-09T09:35:43.000Z</time>
      </trkpt>
      <trkpt lat="47.2918" lon="4.97863">
        <ele>371</ele>
        <time>2013-03-09T09:35:45.000Z</time>
      </trkpt>
      <trkpt lat="47.29349" lon="4.97781">
        <ele>379</ele>
        <time>2013-03-09T09:35:53.000Z</time>
      </trkpt>
      <trkpt lat="47.29353" lon="4.97779">
        <ele>379</ele>
        <time>2013-03-09T09:35:55.000Z</time>
      </trkpt>
      <trkpt lat="47.29353" lon="4.97779">
        <ele>379</ele>
        <time>2013-03-09T09:35:56.000Z</time>
      </trkpt>
      <trkpt lat="47.29357" lon="4.97776">
        <ele>379</ele>
        <time>2013-03-09T09:36:08.000Z</time>
      </trkpt>
      <trkpt lat="47.29358" lon="4.97776">
        <ele>379</ele>
        <time>2013-03-09T09:36:09.000Z</time>
      </trkpt>
      <trkpt lat="47.29357" lon="4.97782">
        <ele>379</ele>
        <time>2013-03-09T09:38:29.000Z</time>
      </trkpt>
      <trkpt lat="47.29356" lon="4.97783">
        <ele>379</ele>
        <time>2013-03-09T09:38:30.000Z</time>
      </trkpt>
      <trkpt lat="47.29353" lon="4.97785">
        <ele>379</ele>
        <time>2013-03-09T09:38:34.000Z</time>
      </trkpt>
      <trkpt lat="47.29352" lon="4.97785">
        <ele>379</ele>
        <time>2013-03-09T09:38:35.000Z</time>
      </trkpt>
      <trkpt lat="47.29348" lon="4.97785">
        <ele>379</ele>
        <time>2013-03-09T09:38:38.000Z</time>
      </trkpt>
      <trkpt lat="47.29347" lon="4.97785">
        <ele>379</ele>
        <time>2013-03-09T09:38:39.000Z</time>
      </trkpt>
      <trkpt lat="47.29344" lon="4.97785">
        <ele>379</ele>
        <time>2013-03-09T09:38:41.000Z</time>
      </trkpt>
      <trkpt lat="47.29342" lon="4.97784">
        <ele>379</ele>
        <time>2013-03-09T09:38:42.000Z</time>
      </trkpt>
      <trkpt lat="47.29339" lon="4.97781">
        <ele>379</ele>
        <time>2013-03-09T09:38:44.000Z</time>
      </trkpt>
      <trkpt lat="47.29338" lon="4.97781">
        <ele>379</ele>
        <time>2013-03-09T09:38:45.000Z</time>
      </trkpt>
      <trkpt lat="47.29331" lon="4.97782">
        <ele>374</ele>
        <time>2013-03-09T09:38:52.000Z</time>
      </trkpt>
      <trkpt lat="47.29328" lon="4.9778">
        <ele>374</ele>
        <time>2013-03-09T09:38:55.000Z</time>
      </trkpt>
      <trkpt lat="47.29327" lon="4.97779">
        <ele>374</ele>
        <time>2013-03-09T09:38:56.000Z</time>
      </trkpt>
      <trkpt lat="47.29324" lon="4.97775">
        <ele>374</ele>
        <time>2013-03-09T09:38:58.000Z</time>
      </trkpt>
      <trkpt lat="47.29323" lon="4.97775">
        <ele>374</ele>
        <time>2013-03-09T09:38:59.000Z</time>
      </trkpt>
      <trkpt lat="47.2932" lon="4.97775">
        <ele>374</ele>
        <time>2013-03-09T09:39:01.000Z</time>
      </trkpt>
      <trkpt lat="47.29318" lon="4.97773">
        <ele>374</ele>
        <time>2013-03-09T09:39:02.000Z</time>
      </trkpt>
      <trkpt lat="47.29316" lon="4.97769">
        <ele>374</ele>
        <time>2013-03-09T09:39:04.000Z</time>
      </trkpt>
      <trkpt lat="47.29315" lon="4.97767">
        <ele>374</ele>
        <time>2013-03-09T09:39:05.000Z</time>
      </trkpt>
      <trkpt lat="47.29313" lon="4.97762">
        <ele>374</ele>
        <time>2013-03-09T09:39:07.000Z</time>
      </trkpt>
      <trkpt lat="47.29313" lon="4.9776">
        <ele>374</ele>
        <time>2013-03-09T09:39:08.000Z</time>
      </trkpt>
      <trkpt lat="47.29312" lon="4.97755">
        <ele>374</ele>
        <time>2013-03-09T09:39:10.000Z</time>
      </trkpt>
      <trkpt lat="47.29311" lon="4.97753">
        <ele>374</ele>
        <time>2013-03-09T09:39:11.000Z</time>
      </trkpt>
      <trkpt lat="47.29308" lon="4.97748">
        <ele>374</ele>
        <time>2013-03-09T09:39:14.000Z</time>
      </trkpt>
      <trkpt lat="47.29307" lon="4.97747">
        <ele>374</ele>
        <time>2013-03-09T09:39:15.000Z</time>
      </trkpt>
      <trkpt lat="47.29304" lon="4.97745">
        <ele>374</ele>
        <time>2013-03-09T09:39:17.000Z</time>
      </trkpt>
      <trkpt lat="47.29302" lon="4.97745">
        <ele>374</ele>
        <time>2013-03-09T09:39:18.000Z</time>
      </trkpt>
      <trkpt lat="47.293" lon="4.97742">
        <ele>374</ele>
        <time>2013-03-09T09:39:20.000Z</time>
      </trkpt>
      <trkpt lat="47.29299" lon="4.97741">
        <ele>374</ele>
        <time>2013-03-09T09:39:21.000Z</time>
      </trkpt>
      <trkpt lat="47.29296" lon="4.97739">
        <ele>373</ele>
        <time>2013-03-09T09:39:23.000Z</time>
      </trkpt>
      <trkpt lat="47.29295" lon="4.97737">
        <ele>373</ele>
        <time>2013-03-09T09:39:24.000Z</time>
      </trkpt>
      <trkpt lat="47.29292" lon="4.97734">
        <ele>373</ele>
        <time>2013-03-09T09:39:26.000Z</time>
      </trkpt>
      <trkpt lat="47.29291" lon="4.97732">
        <ele>373</ele>
        <time>2013-03-09T09:39:27.000Z</time>
      </trkpt>
      <trkpt lat="47.29289" lon="4.97727">
        <ele>373</ele>
        <time>2013-03-09T09:39:29.000Z</time>
      </trkpt>
      <trkpt lat="47.29288" lon="4.97725">
        <ele>373</ele>
        <time>2013-03-09T09:39:30.000Z</time>
      </trkpt>
      <trkpt lat="47.29285" lon="4.97721">
        <ele>373</ele>
        <time>2013-03-09T09:39:32.000Z</time>
      </trkpt>
      <trkpt lat="47.29284" lon="4.97719">
        <ele>373</ele>
        <time>2013-03-09T09:39:33.000Z</time>
      </trkpt>
      <trkpt lat="47.29281" lon="4.97717">
        <ele>373</ele>
        <time>2013-03-09T09:39:35.000Z</time>
      </trkpt>
      <trkpt lat="47.29279" lon="4.97715">
        <ele>373</ele>
        <time>2013-03-09T09:39:36.000Z</time>
      </trkpt>
      <trkpt lat="47.29277" lon="4.97711">
        <ele>373</ele>
        <time>2013-03-09T09:39:38.000Z</time>
      </trkpt>
      <trkpt lat="47.29277" lon="4.97709">
        <ele>373</ele>
        <time>2013-03-09T09:39:39.000Z</time>
      </trkpt>
      <trkpt lat="47.29276" lon="4.97704">
        <ele>373</ele>
        <time>2013-03-09T09:39:41.000Z</time>
      </trkpt>
      <trkpt lat="47.29275" lon="4.97701">
        <ele>373</ele>
        <time>2013-03-09T09:39:42.000Z</time>
      </trkpt>
      <trkpt lat="47.29273" lon="4.97697">
        <ele>373</ele>
        <time>2013-03-09T09:39:44.000Z</time>
      </trkpt>
      <trkpt lat="47.29272" lon="4.97696">
        <ele>373</ele>
        <time>2013-03-09T09:39:45.000Z</time>
      </trkpt>
      <trkpt lat="47.29271" lon="4.97694">
        <ele>373</ele>
        <time>2013-03-09T09:39:46.000Z</time>
      </trkpt>
      <trkpt lat="47.29264" lon="4.97675">
        <ele>373</ele>
        <time>2013-03-09T09:39:53.000Z</time>
      </trkpt>
      <trkpt lat="47.29262" lon="4.97669">
        <ele>372</ele>
        <time>2013-03-09T09:39:56.000Z</time>
      </trkpt>
      <trkpt lat="47.29261" lon="4.97666">
        <ele>374</ele>
        <time>2013-03-09T09:39:57.000Z</time>
      </trkpt>
      <trkpt lat="47.29259" lon="4.97661">
        <ele>374</ele>
        <time>2013-03-09T09:39:59.000Z</time>
      </trkpt>
      <trkpt lat="47.29259" lon="4.97659">
        <ele>374</ele>
        <time>2013-03-09T09:40:00.000Z</time>
      </trkpt>
      <trkpt lat="47.29256" lon="4.97653">
        <ele>375</ele>
        <time>2013-03-09T09:40:03.000Z</time>
      </trkpt>
      <trkpt lat="47.29256" lon="4.97651">
        <ele>375</ele>
        <time>2013-03-09T09:40:04.000Z</time>
      </trkpt>
      <trkpt lat="47.29255" lon="4.97646">
        <ele>376</ele>
        <time>2013-03-09T09:40:06.000Z</time>
      </trkpt>
      <trkpt lat="47.29254" lon="4.97644">
        <ele>376</ele>
        <time>2013-03-09T09:40:07.000Z</time>
      </trkpt>
      <trkpt lat="47.29253" lon="4.9764">
        <ele>377</ele>
        <time>2013-03-09T09:40:09.000Z</time>
      </trkpt>
      <trkpt lat="47.29252" lon="4.97638">
        <ele>377</ele>
        <time>2013-03-09T09:40:10.000Z</time>
      </trkpt>
      <trkpt lat="47.29251" lon="4.97632">
        <ele>377</ele>
        <time>2013-03-09T09:40:13.000Z</time>
      </trkpt>
      <trkpt lat="47.2925" lon="4.97629">
        <ele>367</ele>
        <time>2013-03-09T09:40:14.000Z</time>
      </trkpt>
      <trkpt lat="47.29249" lon="4.97625">
        <ele>367</ele>
        <time>2013-03-09T09:40:16.000Z</time>
      </trkpt>
      <trkpt lat="47.29248" lon="4.97623">
        <ele>367</ele>
        <time>2013-03-09T09:40:17.000Z</time>
      </trkpt>
      <trkpt lat="47.29247" lon="4.97618">
        <ele>368</ele>
        <time>2013-03-09T09:40:19.000Z</time>
      </trkpt>
      <trkpt lat="47.29247" lon="4.97615">
        <ele>368</ele>
        <time>2013-03-09T09:40:20.000Z</time>
      </trkpt>
      <trkpt lat="47.29246" lon="4.9761">
        <ele>368</ele>
        <time>2013-03-09T09:40:22.000Z</time>
      </trkpt>
      <trkpt lat="47.29245" lon="4.97608">
        <ele>369</ele>
        <time>2013-03-09T09:40:23.000Z</time>
      </trkpt>
      <trkpt lat="47.29245" lon="4.97603">
        <ele>370</ele>
        <time>2013-03-09T09:40:25.000Z</time>
      </trkpt>
      <trkpt lat="47.29244" lon="4.976">
        <ele>370</ele>
        <time>2013-03-09T09:40:26.000Z</time>
      </trkpt>
      <trkpt lat="47.29243" lon="4.97595">
        <ele>372</ele>
        <time>2013-03-09T09:40:28.000Z</time>
      </trkpt>
      <trkpt lat="47.29243" lon="4.97593">
        <ele>372</ele>
        <time>2013-03-09T09:40:29.000Z</time>
      </trkpt>
      <trkpt lat="47.29242" lon="4.97587">
        <ele>373</ele>
        <time>2013-03-09T09:40:31.000Z</time>
      </trkpt>
      <trkpt lat="47.29242" lon="4.97585">
        <ele>374</ele>
        <time>2013-03-09T09:40:32.000Z</time>
      </trkpt>
      <trkpt lat="47.29242" lon="4.97579">
        <ele>374</ele>
        <time>2013-03-09T09:40:34.000Z</time>
      </trkpt>
      <trkpt lat="47.29242" lon="4.97577">
        <ele>374</ele>
        <time>2013-03-09T09:40:35.000Z</time>
      </trkpt>
      <trkpt lat="47.29242" lon="4.97571">
        <ele>373</ele>
        <time>2013-03-09T09:40:37.000Z</time>
      </trkpt>
      <trkpt lat="47.29242" lon="4.97569">
        <ele>372</ele>
        <time>2013-03-09T09:40:38.000Z</time>
      </trkpt>
      <trkpt lat="47.29242" lon="4.97564">
        <ele>371</ele>
        <time>2013-03-09T09:40:40.000Z</time>
      </trkpt>
      <trkpt lat="47.29243" lon="4.97561">
        <ele>371</ele>
        <time>2013-03-09T09:40:41.000Z</time>
      </trkpt>
      <trkpt lat="47.29243" lon="4.97556">
        <ele>370</ele>
        <time>2013-03-09T09:40:43.000Z</time>
      </trkpt>
      <trkpt lat="47.29244" lon="4.97554">
        <ele>370</ele>
        <time>2013-03-09T09:40:44.000Z</time>
      </trkpt>
      <trkpt lat="47.29244" lon="4.97548">
        <ele>370</ele>
        <time>2013-03-09T09:40:46.000Z</time>
      </trkpt>
      <trkpt lat="47.29248" lon="4.97529">
        <ele>371</ele>
        <time>2013-03-09T09:40:53.000Z</time>
      </trkpt>
      <trkpt lat="47.2925" lon="4.97523">
        <ele>371</ele>
        <time>2013-03-09T09:40:56.000Z</time>
      </trkpt>
      <trkpt lat="47.2925" lon="4.97521">
        <ele>380</ele>
        <time>2013-03-09T09:40:57.000Z</time>
      </trkpt>
      <trkpt lat="47.29251" lon="4.97517">
        <ele>380</ele>
        <time>2013-03-09T09:40:59.000Z</time>
      </trkpt>
      <trkpt lat="47.29252" lon="4.97514">
        <ele>380</ele>
        <time>2013-03-09T09:41:00.000Z</time>
      </trkpt>
      <trkpt lat="47.29254" lon="4.9751">
        <ele>380</ele>
        <time>2013-03-09T09:41:02.000Z</time>
      </trkpt>
      <trkpt lat="47.29255" lon="4.97508">
        <ele>380</ele>
        <time>2013-03-09T09:41:03.000Z</time>
      </trkpt>
      <trkpt lat="47.29257" lon="4.97504">
        <ele>379</ele>
        <time>2013-03-09T09:41:05.000Z</time>
      </trkpt>
      <trkpt lat="47.29258" lon="4.97502">
        <ele>379</ele>
        <time>2013-03-09T09:41:06.000Z</time>
      </trkpt>
      <trkpt lat="47.2926" lon="4.97498">
        <ele>379</ele>
        <time>2013-03-09T09:41:08.000Z</time>
      </trkpt>
      <trkpt lat="47.29261" lon="4.97496">
        <ele>379</ele>
        <time>2013-03-09T09:41:09.000Z</time>
      </trkpt>
      <trkpt lat="47.29263" lon="4.97491">
        <ele>379</ele>
        <time>2013-03-09T09:41:11.000Z</time>
      </trkpt>
      <trkpt lat="47.29264" lon="4.97488">
        <ele>379</ele>
        <time>2013-03-09T09:41:12.000Z</time>
      </trkpt>
      <trkpt lat="47.29266" lon="4.97484">
        <ele>379</ele>
        <time>2013-03-09T09:41:14.000Z</time>
      </trkpt>
      <trkpt lat="47.29267" lon="4.97482">
        <ele>379</ele>
        <time>2013-03-09T09:41:15.000Z</time>
      </trkpt>
      <trkpt lat="47.29269" lon="4.97479">
        <ele>379</ele>
        <time>2013-03-09T09:41:17.000Z</time>
      </trkpt>
      <trkpt lat="47.2927" lon="4.97477">
        <ele>379</ele>
        <time>2013-03-09T09:41:18.000Z</time>
      </trkpt>
      <trkpt lat="47.29273" lon="4.97473">
        <ele>379</ele>
        <time>2013-03-09T09:41:20.000Z</time>
      </trkpt>
      <trkpt lat="47.29274" lon="4.97472">
        <ele>379</ele>
        <time>2013-03-09T09:41:21.000Z</time>
      </trkpt>
      <trkpt lat="47.29276" lon="4.97467">
        <ele>379</ele>
        <time>2013-03-09T09:41:25.000Z</time>
      </trkpt>
      <trkpt lat="47.29277" lon="4.97466">
        <ele>379</ele>
        <time>2013-03-09T09:41:26.000Z</time>
      </trkpt>
      <trkpt lat="47.29279" lon="4.97462">
        <ele>379</ele>
        <time>2013-03-09T09:41:30.000Z</time>
      </trkpt>
      <trkpt lat="47.2928" lon="4.97461">
        <ele>379</ele>
        <time>2013-03-09T09:41:31.000Z</time>
      </trkpt>
      <trkpt lat="47.29282" lon="4.97455">
        <ele>379</ele>
        <time>2013-03-09T09:41:54.000Z</time>
      </trkpt>
      <trkpt lat="47.29282" lon="4.97454">
        <ele>379</ele>
        <time>2013-03-09T09:41:55.000Z</time>
      </trkpt>
      <trkpt lat="47.29283" lon="4.9745">
        <ele>379</ele>
        <time>2013-03-09T09:41:57.000Z</time>
      </trkpt>
      <trkpt lat="47.29284" lon="4.97448">
        <ele>379</ele>
        <time>2013-03-09T09:41:58.000Z</time>
      </trkpt>
      <trkpt lat="47.29288" lon="4.97444">
        <ele>379</ele>
        <time>2013-03-09T09:42:01.000Z</time>
      </trkpt>
      <trkpt lat="47.29289" lon="4.97443">
        <ele>379</ele>
        <time>2013-03-09T09:42:02.000Z</time>
      </trkpt>
      <trkpt lat="47.29292" lon="4.9744">
        <ele>380</ele>
        <time>2013-03-09T09:42:04.000Z</time>
      </trkpt>
      <trkpt lat="47.29293" lon="4.97438">
        <ele>380</ele>
        <time>2013-03-09T09:42:05.000Z</time>
      </trkpt>
      <trkpt lat="47.29295" lon="4.97435">
        <ele>380</ele>
        <time>2013-03-09T09:42:07.000Z</time>
      </trkpt>
      <trkpt lat="47.29296" lon="4.97433">
        <ele>380</ele>
        <time>2013-03-09T09:42:08.000Z</time>
      </trkpt>
      <trkpt lat="47.29298" lon="4.97429">
        <ele>380</ele>
        <time>2013-03-09T09:42:10.000Z</time>
      </trkpt>
      <trkpt lat="47.29299" lon="4.97428">
        <ele>380</ele>
        <time>2013-03-09T09:42:11.000Z</time>
      </trkpt>
      <trkpt lat="47.29301" lon="4.97423">
        <ele>381</ele>
        <time>2013-03-09T09:42:14.000Z</time>
      </trkpt>
      <trkpt lat="47.29302" lon="4.97421">
        <ele>381</ele>
        <time>2013-03-09T09:42:15.000Z</time>
      </trkpt>
      <trkpt lat="47.29305" lon="4.97417">
        <ele>381</ele>
        <time>2013-03-09T09:42:17.000Z</time>
      </trkpt>
      <trkpt lat="47.29306" lon="4.97416">
        <ele>377</ele>
        <time>2013-03-09T09:42:18.000Z</time>
      </trkpt>
      <trkpt lat="47.29308" lon="4.97412">
        <ele>377</ele>
        <time>2013-03-09T09:42:20.000Z</time>
      </trkpt>
      <trkpt lat="47.2931" lon="4.9741">
        <ele>377</ele>
        <time>2013-03-09T09:42:21.000Z</time>
      </trkpt>
      <trkpt lat="47.29312" lon="4.97407">
        <ele>377</ele>
        <time>2013-03-09T09:42:23.000Z</time>
      </trkpt>
      <trkpt lat="47.29313" lon="4.97405">
        <ele>377</ele>
        <time>2013-03-09T09:42:24.000Z</time>
      </trkpt>
      <trkpt lat="47.29315" lon="4.97401">
        <ele>377</ele>
        <time>2013-03-09T09:42:26.000Z</time>
      </trkpt>
      <trkpt lat="47.29315" lon="4.97398">
        <ele>377</ele>
        <time>2013-03-09T09:42:27.000Z</time>
      </trkpt>
      <trkpt lat="47.29317" lon="4.97395">
        <ele>377</ele>
        <time>2013-03-09T09:42:29.000Z</time>
      </trkpt>
      <trkpt lat="47.29318" lon="4.97392">
        <ele>376</ele>
        <time>2013-03-09T09:42:30.000Z</time>
      </trkpt>
      <trkpt lat="47.2932" lon="4.97389">
        <ele>376</ele>
        <time>2013-03-09T09:42:32.000Z</time>
      </trkpt>
      <trkpt lat="47.29321" lon="4.97387">
        <ele>376</ele>
        <time>2013-03-09T09:42:33.000Z</time>
      </trkpt>
      <trkpt lat="47.29323" lon="4.97382">
        <ele>375</ele>
        <time>2013-03-09T09:42:36.000Z</time>
      </trkpt>
      <trkpt lat="47.29324" lon="4.9738">
        <ele>375</ele>
        <time>2013-03-09T09:42:37.000Z</time>
      </trkpt>
      <trkpt lat="47.29326" lon="4.97375">
        <ele>375</ele>
        <time>2013-03-09T09:42:39.000Z</time>
      </trkpt>
      <trkpt lat="47.29328" lon="4.97372">
        <ele>375</ele>
        <time>2013-03-09T09:42:40.000Z</time>
      </trkpt>
      <trkpt lat="47.2933" lon="4.97368">
        <ele>374</ele>
        <time>2013-03-09T09:42:42.000Z</time>
      </trkpt>
      <trkpt lat="47.29331" lon="4.97365">
        <ele>374</ele>
        <time>2013-03-09T09:42:43.000Z</time>
      </trkpt>
      <trkpt lat="47.29333" lon="4.97361">
        <ele>374</ele>
        <time>2013-03-09T09:42:45.000Z</time>
      </trkpt>
      <trkpt lat="47.29335" lon="4.97359">
        <ele>382</ele>
        <time>2013-03-09T09:42:46.000Z</time>
      </trkpt>
      <trkpt lat="47.29347" lon="4.97343">
        <ele>381</ele>
        <time>2013-03-09T09:42:53.000Z</time>
      </trkpt>
      <trkpt lat="47.2935" lon="4.97339">
        <ele>381</ele>
        <time>2013-03-09T09:42:55.000Z</time>
      </trkpt>
      <trkpt lat="47.29351" lon="4.97338">
        <ele>381</ele>
        <time>2013-03-09T09:42:56.000Z</time>
      </trkpt>
      <trkpt lat="47.29352" lon="4.97333">
        <ele>377</ele>
        <time>2013-03-09T09:42:58.000Z</time>
      </trkpt>
      <trkpt lat="47.29353" lon="4.97331">
        <ele>377</ele>
        <time>2013-03-09T09:42:59.000Z</time>
      </trkpt>
      <trkpt lat="47.29356" lon="4.97327">
        <ele>377</ele>
        <time>2013-03-09T09:43:01.000Z</time>
      </trkpt>
      <trkpt lat="47.29357" lon="4.97325">
        <ele>377</ele>
        <time>2013-03-09T09:43:02.000Z</time>
      </trkpt>
      <trkpt lat="47.2936" lon="4.97321">
        <ele>377</ele>
        <time>2013-03-09T09:43:04.000Z</time>
      </trkpt>
      <trkpt lat="47.29361" lon="4.97319">
        <ele>377</ele>
        <time>2013-03-09T09:43:05.000Z</time>
      </trkpt>
      <trkpt lat="47.29364" lon="4.97316">
        <ele>377</ele>
        <time>2013-03-09T09:43:07.000Z</time>
      </trkpt>
      <trkpt lat="47.29365" lon="4.97314">
        <ele>377</ele>
        <time>2013-03-09T09:43:08.000Z</time>
      </trkpt>
      <trkpt lat="47.29367" lon="4.9731">
        <ele>377</ele>
        <time>2013-03-09T09:43:10.000Z</time>
      </trkpt>
      <trkpt lat="47.29368" lon="4.97308">
        <ele>377</ele>
        <time>2013-03-09T09:43:11.000Z</time>
      </trkpt>
      <trkpt lat="47.29371" lon="4.97304">
        <ele>377</ele>
        <time>2013-03-09T09:43:13.000Z</time>
      </trkpt>
      <trkpt lat="47.29372" lon="4.97302">
        <ele>377</ele>
        <time>2013-03-09T09:43:14.000Z</time>
      </trkpt>
      <trkpt lat="47.29375" lon="4.97299">
        <ele>377</ele>
        <time>2013-03-09T09:43:16.000Z</time>
      </trkpt>
      <trkpt lat="47.29376" lon="4.97297">
        <ele>377</ele>
        <time>2013-03-09T09:43:17.000Z</time>
      </trkpt>
      <trkpt lat="47.29379" lon="4.97295">
        <ele>377</ele>
        <time>2013-03-09T09:43:19.000Z</time>
      </trkpt>
      <trkpt lat="47.2938" lon="4.97294">
        <ele>377</ele>
        <time>2013-03-09T09:43:20.000Z</time>
      </trkpt>
      <trkpt lat="47.29384" lon="4.97292">
        <ele>378</ele>
        <time>2013-03-09T09:43:22.000Z</time>
      </trkpt>
      <trkpt lat="47.29385" lon="4.97291">
        <ele>378</ele>
        <time>2013-03-09T09:43:23.000Z</time>
      </trkpt>
      <trkpt lat="47.29389" lon="4.97288">
        <ele>378</ele>
        <time>2013-03-09T09:43:25.000Z</time>
      </trkpt>
      <trkpt lat="47.2939" lon="4.97286">
        <ele>378</ele>
        <time>2013-03-09T09:43:26.000Z</time>
      </trkpt>
      <trkpt lat="47.29393" lon="4.97283">
        <ele>378</ele>
        <time>2013-03-09T09:43:28.000Z</time>
      </trkpt>
      <trkpt lat="47.29394" lon="4.97281">
        <ele>378</ele>
        <time>2013-03-09T09:43:29.000Z</time>
      </trkpt>
      <trkpt lat="47.29396" lon="4.97276">
        <ele>378</ele>
        <time>2013-03-09T09:43:31.000Z</time>
      </trkpt>
      <trkpt lat="47.29397" lon="4.97274">
        <ele>378</ele>
        <time>2013-03-09T09:43:32.000Z</time>
      </trkpt>
      <trkpt lat="47.29399" lon="4.97271">
        <ele>378</ele>
        <time>2013-03-09T09:43:34.000Z</time>
      </trkpt>
      <trkpt lat="47.294" lon="4.97269">
        <ele>379</ele>
        <time>2013-03-09T09:43:35.000Z</time>
      </trkpt>
      <trkpt lat="47.29402" lon="4.97265">
        <ele>379</ele>
        <time>2013-03-09T09:43:37.000Z</time>
      </trkpt>
      <trkpt lat="47.29404" lon="4.97264">
        <ele>379</ele>
        <time>2013-03-09T09:43:38.000Z</time>
      </trkpt>
      <trkpt lat="47.29406" lon="4.97261">
        <ele>379</ele>
        <time>2013-03-09T09:43:40.000Z</time>
      </trkpt>
      <trkpt lat="47.29408" lon="4.9726">
        <ele>380</ele>
        <time>2013-03-09T09:43:41.000Z</time>
      </trkpt>
      <trkpt lat="47.29411" lon="4.97258">
        <ele>380</ele>
        <time>2013-03-09T09:43:43.000Z</time>
      </trkpt>
      <trkpt lat="47.29412" lon="4.97257">
        <ele>380</ele>
        <time>2013-03-09T09:43:44.000Z</time>
      </trkpt>
      <trkpt lat="47.29414" lon="4.97255">
        <ele>381</ele>
        <time>2013-03-09T09:43:46.000Z</time>
      </trkpt>
      <trkpt lat="47.29429" lon="4.97244">
        <ele>381</ele>
        <time>2013-03-09T09:43:52.000Z</time>
      </trkpt>
      <trkpt lat="47.29432" lon="4.97243">
        <ele>381</ele>
        <time>2013-03-09T09:43:56.000Z</time>
      </trkpt>
      <trkpt lat="47.29434" lon="4.97242">
        <ele>381</ele>
        <time>2013-03-09T09:43:57.000Z</time>
      </trkpt>
      <trkpt lat="47.29437" lon="4.97239">
        <ele>380</ele>
        <time>2013-03-09T09:44:00.000Z</time>
      </trkpt>
      <trkpt lat="47.29438" lon="4.97237">
        <ele>380</ele>
        <time>2013-03-09T09:44:01.000Z</time>
      </trkpt>
      <trkpt lat="47.29441" lon="4.97232">
        <ele>380</ele>
        <time>2013-03-09T09:44:05.000Z</time>
      </trkpt>
      <trkpt lat="47.29442" lon="4.97232">
        <ele>380</ele>
        <time>2013-03-09T09:44:06.000Z</time>
      </trkpt>
      <trkpt lat="47.29444" lon="4.97229">
        <ele>380</ele>
        <time>2013-03-09T09:44:08.000Z</time>
      </trkpt>
      <trkpt lat="47.29445" lon="4.97227">
        <ele>380</ele>
        <time>2013-03-09T09:44:09.000Z</time>
      </trkpt>
      <trkpt lat="47.29447" lon="4.97223">
        <ele>380</ele>
        <time>2013-03-09T09:44:10.000Z</time>
      </trkpt>
      <trkpt lat="47.29449" lon="4.97221">
        <ele>380</ele>
        <time>2013-03-09T09:44:11.000Z</time>
      </trkpt>
      <trkpt lat="47.29451" lon="4.97219">
        <ele>380</ele>
        <time>2013-03-09T09:44:12.000Z</time>
      </trkpt>
      <trkpt lat="47.29453" lon="4.97218">
        <ele>380</ele>
        <time>2013-03-09T09:44:13.000Z</time>
      </trkpt>
      <trkpt lat="47.29456" lon="4.97214">
        <ele>380</ele>
        <time>2013-03-09T09:44:16.000Z</time>
      </trkpt>
      <trkpt lat="47.29457" lon="4.97212">
        <ele>379</ele>
        <time>2013-03-09T09:44:17.000Z</time>
      </trkpt>
      <trkpt lat="47.29459" lon="4.97209">
        <ele>379</ele>
        <time>2013-03-09T09:44:19.000Z</time>
      </trkpt>
      <trkpt lat="47.29461" lon="4.97208">
        <ele>379</ele>
        <time>2013-03-09T09:44:20.000Z</time>
      </trkpt>
      <trkpt lat="47.29463" lon="4.97204">
        <ele>379</ele>
        <time>2013-03-09T09:44:22.000Z</time>
      </trkpt>
      <trkpt lat="47.29465" lon="4.97203">
        <ele>379</ele>
        <time>2013-03-09T09:44:23.000Z</time>
      </trkpt>
      <trkpt lat="47.29467" lon="4.972">
        <ele>379</ele>
        <time>2013-03-09T09:44:25.000Z</time>
      </trkpt>
      <trkpt lat="47.29468" lon="4.97198">
        <ele>379</ele>
        <time>2013-03-09T09:44:26.000Z</time>
      </trkpt>
      <trkpt lat="47.2947" lon="4.97193">
        <ele>379</ele>
        <time>2013-03-09T09:44:29.000Z</time>
      </trkpt>
      <trkpt lat="47.29471" lon="4.97191">
        <ele>379</ele>
        <time>2013-03-09T09:44:30.000Z</time>
      </trkpt>
      <trkpt lat="47.29473" lon="4.97188">
        <ele>379</ele>
        <time>2013-03-09T09:44:33.000Z</time>
      </trkpt>
      <trkpt lat="47.29475" lon="4.97187">
        <ele>379</ele>
        <time>2013-03-09T09:44:34.000Z</time>
      </trkpt>
      <trkpt lat="47.29478" lon="4.97184">
        <ele>380</ele>
        <time>2013-03-09T09:44:36.000Z</time>
      </trkpt>
      <trkpt lat="47.2948" lon="4.97182">
        <ele>380</ele>
        <time>2013-03-09T09:44:37.000Z</time>
      </trkpt>
      <trkpt lat="47.29484" lon="4.97179">
        <ele>380</ele>
        <time>2013-03-09T09:44:40.000Z</time>
      </trkpt>
      <trkpt lat="47.29484" lon="4.97178">
        <ele>380</ele>
        <time>2013-03-09T09:44:41.000Z</time>
      </trkpt>
      <trkpt lat="47.29487" lon="4.97174">
        <ele>380</ele>
        <time>2013-03-09T09:44:44.000Z</time>
      </trkpt>
      <trkpt lat="47.29487" lon="4.97173">
        <ele>380</ele>
        <time>2013-03-09T09:44:45.000Z</time>
      </trkpt>
      <trkpt lat="47.29488" lon="4.97171">
        <ele>381</ele>
        <time>2013-03-09T09:44:46.000Z</time>
      </trkpt>
      <trkpt lat="47.29493" lon="4.97155">
        <ele>375</ele>
        <time>2013-03-09T09:44:52.000Z</time>
      </trkpt>
      <trkpt lat="47.29495" lon="4.97151">
        <ele>374</ele>
        <time>2013-03-09T09:44:54.000Z</time>
      </trkpt>
      <trkpt lat="47.29496" lon="4.97149">
        <ele>374</ele>
        <time>2013-03-09T09:44:55.000Z</time>
      </trkpt>
      <trkpt lat="47.29498" lon="4.97145">
        <ele>373</ele>
        <time>2013-03-09T09:44:57.000Z</time>
      </trkpt>
      <trkpt lat="47.29499" lon="4.97143">
        <ele>372</ele>
        <time>2013-03-09T09:44:58.000Z</time>
      </trkpt>
      <trkpt lat="47.29502" lon="4.97138">
        <ele>380</ele>
        <time>2013-03-09T09:45:01.000Z</time>
      </trkpt>
      <trkpt lat="47.29503" lon="4.97136">
        <ele>380</ele>
        <time>2013-03-09T09:45:02.000Z</time>
      </trkpt>
      <trkpt lat="47.29505" lon="4.97132">
        <ele>379</ele>
        <time>2013-03-09T09:45:04.000Z</time>
      </trkpt>
      <trkpt lat="47.29506" lon="4.9713">
        <ele>379</ele>
        <time>2013-03-09T09:45:05.000Z</time>
      </trkpt>
      <trkpt lat="47.29508" lon="4.97127">
        <ele>379</ele>
        <time>2013-03-09T09:45:07.000Z</time>
      </trkpt>
      <trkpt lat="47.29509" lon="4.97125">
        <ele>379</ele>
        <time>2013-03-09T09:45:08.000Z</time>
      </trkpt>
      <trkpt lat="47.29512" lon="4.97121">
        <ele>378</ele>
        <time>2013-03-09T09:45:11.000Z</time>
      </trkpt>
      <trkpt lat="47.29513" lon="4.97119">
        <ele>378</ele>
        <time>2013-03-09T09:45:12.000Z</time>
      </trkpt>
      <trkpt lat="47.29515" lon="4.97116">
        <ele>378</ele>
        <time>2013-03-09T09:45:14.000Z</time>
      </trkpt>
      <trkpt lat="47.29516" lon="4.97114">
        <ele>378</ele>
        <time>2013-03-09T09:45:15.000Z</time>
      </trkpt>
      <trkpt lat="47.29518" lon="4.9711">
        <ele>377</ele>
        <time>2013-03-09T09:45:17.000Z</time>
      </trkpt>
      <trkpt lat="47.29519" lon="4.97108">
        <ele>377</ele>
        <time>2013-03-09T09:45:18.000Z</time>
      </trkpt>
      <trkpt lat="47.29522" lon="4.97105">
        <ele>377</ele>
        <time>2013-03-09T09:45:20.000Z</time>
      </trkpt>
      <trkpt lat="47.29524" lon="4.97104">
        <ele>377</ele>
        <time>2013-03-09T09:45:21.000Z</time>
      </trkpt>
      <trkpt lat="47.29528" lon="4.971">
        <ele>377</ele>
        <time>2013-03-09T09:45:24.000Z</time>
      </trkpt>
      <trkpt lat="47.29529" lon="4.97099">
        <ele>377</ele>
        <time>2013-03-09T09:45:25.000Z</time>
      </trkpt>
      <trkpt lat="47.29532" lon="4.97096">
        <ele>378</ele>
        <time>2013-03-09T09:45:27.000Z</time>
      </trkpt>
      <trkpt lat="47.29534" lon="4.97095">
        <ele>378</ele>
        <time>2013-03-09T09:45:28.000Z</time>
      </trkpt>
      <trkpt lat="47.29538" lon="4.97092">
        <ele>378</ele>
        <time>2013-03-09T09:45:31.000Z</time>
      </trkpt>
      <trkpt lat="47.29538" lon="4.97091">
        <ele>378</ele>
        <time>2013-03-09T09:45:32.000Z</time>
      </trkpt>
      <trkpt lat="47.29541" lon="4.9709">
        <ele>378</ele>
        <time>2013-03-09T09:45:45.000Z</time>
      </trkpt>
      <trkpt lat="47.29546" lon="4.97093">
        <ele>379</ele>
        <time>2013-03-09T09:45:53.000Z</time>
      </trkpt>
      <trkpt lat="47.29546" lon="4.97093">
        <ele>379</ele>
        <time>2013-03-09T09:46:46.000Z</time>
      </trkpt>
      <trkpt lat="47.29552" lon="4.97098">
        <ele>380</ele>
        <time>2013-03-09T09:46:53.000Z</time>
      </trkpt>
      <trkpt lat="47.29552" lon="4.97098">
        <ele>380</ele>
        <time>2013-03-09T09:47:03.000Z</time>
      </trkpt>
      <trkpt lat="47.29546" lon="4.97094">
        <ele>379</ele>
        <time>2013-03-09T09:47:04.000Z</time>
      </trkpt>
      <trkpt lat="47.29547" lon="4.97091">
        <ele>379</ele>
        <time>2013-03-09T09:47:20.000Z</time>
      </trkpt>
      <trkpt lat="47.2955" lon="4.97083">
        <ele>370</ele>
        <time>2013-03-09T09:47:23.000Z</time>
      </trkpt>
      <trkpt lat="47.29554" lon="4.97085">
        <ele>379</ele>
        <time>2013-03-09T09:47:28.000Z</time>
      </trkpt>
      <trkpt lat="47.29556" lon="4.97085">
        <ele>380</ele>
        <time>2013-03-09T09:47:29.000Z</time>
      </trkpt>
      <trkpt lat="47.29559" lon="4.97084">
        <ele>380</ele>
        <time>2013-03-09T09:47:32.000Z</time>
      </trkpt>
      <trkpt lat="47.2956" lon="4.97083">
        <ele>371</ele>
        <time>2013-03-09T09:47:33.000Z</time>
      </trkpt>
      <trkpt lat="47.29563" lon="4.9708">
        <ele>372</ele>
        <time>2013-03-09T09:47:36.000Z</time>
      </trkpt>
      <trkpt lat="47.29564" lon="4.97079">
        <ele>372</ele>
        <time>2013-03-09T09:47:37.000Z</time>
      </trkpt>
      <trkpt lat="47.29568" lon="4.97077">
        <ele>373</ele>
        <time>2013-03-09T09:47:42.000Z</time>
      </trkpt>
      <trkpt lat="47.29569" lon="4.97076">
        <ele>373</ele>
        <time>2013-03-09T09:47:43.000Z</time>
      </trkpt>
      <trkpt lat="47.29573" lon="4.97075">
        <ele>374</ele>
        <time>2013-03-09T09:47:46.000Z</time>
      </trkpt>
      <trkpt lat="47.29587" lon="4.9708">
        <ele>379</ele>
        <time>2013-03-09T09:47:53.000Z</time>
      </trkpt>
      <trkpt lat="47.29589" lon="4.97085">
        <ele>382</ele>
        <time>2013-03-09T09:47:57.000Z</time>
      </trkpt>
      <trkpt lat="47.29589" lon="4.97087">
        <ele>382</ele>
        <time>2013-03-09T09:47:58.000Z</time>
      </trkpt>
      <trkpt lat="47.29589" lon="4.97093">
        <ele>382</ele>
        <time>2013-03-09T09:48:01.000Z</time>
      </trkpt>
      <trkpt lat="47.2959" lon="4.97094">
        <ele>382</ele>
        <time>2013-03-09T09:48:02.000Z</time>
      </trkpt>
      <trkpt lat="47.29592" lon="4.971">
        <ele>382</ele>
        <time>2013-03-09T09:48:06.000Z</time>
      </trkpt>
      <trkpt lat="47.29592" lon="4.97101">
        <ele>382</ele>
        <time>2013-03-09T09:48:07.000Z</time>
      </trkpt>
      <trkpt lat="47.29595" lon="4.97102">
        <ele>383</ele>
        <time>2013-03-09T09:48:11.000Z</time>
      </trkpt>
      <trkpt lat="47.29596" lon="4.97102">
        <ele>383</ele>
        <time>2013-03-09T09:48:12.000Z</time>
      </trkpt>
      <trkpt lat="47.296" lon="4.97103">
        <ele>383</ele>
        <time>2013-03-09T09:48:15.000Z</time>
      </trkpt>
      <trkpt lat="47.29601" lon="4.97104">
        <ele>383</ele>
        <time>2013-03-09T09:48:16.000Z</time>
      </trkpt>
      <trkpt lat="47.29604" lon="4.97105">
        <ele>383</ele>
        <time>2013-03-09T09:48:18.000Z</time>
      </trkpt>
      <trkpt lat="47.29606" lon="4.97107">
        <ele>383</ele>
        <time>2013-03-09T09:48:19.000Z</time>
      </trkpt>
      <trkpt lat="47.29608" lon="4.9711">
        <ele>383</ele>
        <time>2013-03-09T09:48:21.000Z</time>
      </trkpt>
      <trkpt lat="47.29609" lon="4.97111">
        <ele>383</ele>
        <time>2013-03-09T09:48:22.000Z</time>
      </trkpt>
      <trkpt lat="47.29611" lon="4.97115">
        <ele>383</ele>
        <time>2013-03-09T09:48:24.000Z</time>
      </trkpt>
      <trkpt lat="47.29612" lon="4.97117">
        <ele>383</ele>
        <time>2013-03-09T09:48:25.000Z</time>
      </trkpt>
      <trkpt lat="47.29615" lon="4.9712">
        <ele>383</ele>
        <time>2013-03-09T09:48:27.000Z</time>
      </trkpt>
      <trkpt lat="47.29616" lon="4.97122">
        <ele>384</ele>
        <time>2013-03-09T09:48:28.000Z</time>
      </trkpt>
      <trkpt lat="47.29619" lon="4.97127">
        <ele>384</ele>
        <time>2013-03-09T09:48:30.000Z</time>
      </trkpt>
      <trkpt lat="47.2962" lon="4.9713">
        <ele>384</ele>
        <time>2013-03-09T09:48:31.000Z</time>
      </trkpt>
      <trkpt lat="47.29622" lon="4.97133">
        <ele>384</ele>
        <time>2013-03-09T09:48:33.000Z</time>
      </trkpt>
      <trkpt lat="47.29623" lon="4.97135">
        <ele>384</ele>
        <time>2013-03-09T09:48:34.000Z</time>
      </trkpt>
      <trkpt lat="47.29625" lon="4.97139">
        <ele>384</ele>
        <time>2013-03-09T09:48:36.000Z</time>
      </trkpt>
      <trkpt lat="47.29626" lon="4.97141">
        <ele>384</ele>
        <time>2013-03-09T09:48:37.000Z</time>
      </trkpt>
      <trkpt lat="47.29628" lon="4.97145">
        <ele>384</ele>
        <time>2013-03-09T09:48:39.000Z</time>
      </trkpt>
      <trkpt lat="47.2963" lon="4.97147">
        <ele>385</ele>
        <time>2013-03-09T09:48:40.000Z</time>
      </trkpt>
      <trkpt lat="47.29632" lon="4.97151">
        <ele>385</ele>
        <time>2013-03-09T09:48:42.000Z</time>
      </trkpt>
      <trkpt lat="47.29634" lon="4.97152">
        <ele>385</ele>
        <time>2013-03-09T09:48:43.000Z</time>
      </trkpt>
      <trkpt lat="47.29637" lon="4.97156">
        <ele>385</ele>
        <time>2013-03-09T09:48:45.000Z</time>
      </trkpt>
      <trkpt lat="47.29638" lon="4.97158">
        <ele>385</ele>
        <time>2013-03-09T09:48:46.000Z</time>
      </trkpt>
      <trkpt lat="47.29648" lon="4.97178">
        <ele>388</ele>
        <time>2013-03-09T09:48:53.000Z</time>
      </trkpt>
      <trkpt lat="47.29652" lon="4.97176">
        <ele>388</ele>
        <time>2013-03-09T09:48:56.000Z</time>
      </trkpt>
      <trkpt lat="47.29654" lon="4.97177">
        <ele>388</ele>
        <time>2013-03-09T09:48:57.000Z</time>
      </trkpt>
      <trkpt lat="47.29656" lon="4.97177">
        <ele>388</ele>
        <time>2013-03-09T09:48:58.000Z</time>
      </trkpt>
      <trkpt lat="47.29658" lon="4.97179">
        <ele>388</ele>
        <time>2013-03-09T09:48:59.000Z</time>
      </trkpt>
      <trkpt lat="47.29662" lon="4.97181">
        <ele>388</ele>
        <time>2013-03-09T09:49:01.000Z</time>
      </trkpt>
      <trkpt lat="47.29664" lon="4.97182">
        <ele>388</ele>
        <time>2013-03-09T09:49:02.000Z</time>
      </trkpt>
      <trkpt lat="47.29666" lon="4.97185">
        <ele>388</ele>
        <time>2013-03-09T09:49:04.000Z</time>
      </trkpt>
      <trkpt lat="47.29667" lon="4.97187">
        <ele>387</ele>
        <time>2013-03-09T09:49:05.000Z</time>
      </trkpt>
      <trkpt lat="47.29671" lon="4.97191">
        <ele>387</ele>
        <time>2013-03-09T09:49:07.000Z</time>
      </trkpt>
      <trkpt lat="47.29672" lon="4.97193">
        <ele>387</ele>
        <time>2013-03-09T09:49:08.000Z</time>
      </trkpt>
      <trkpt lat="47.29675" lon="4.97199">
        <ele>387</ele>
        <time>2013-03-09T09:49:11.000Z</time>
      </trkpt>
      <trkpt lat="47.29675" lon="4.97199">
        <ele>387</ele>
        <time>2013-03-09T09:49:12.000Z</time>
      </trkpt>
      <trkpt lat="47.29679" lon="4.97202">
        <ele>387</ele>
        <time>2013-03-09T09:49:19.000Z</time>
      </trkpt>
      <trkpt lat="47.2968" lon="4.97202">
        <ele>387</ele>
        <time>2013-03-09T09:49:20.000Z</time>
      </trkpt>
      <trkpt lat="47.29682" lon="4.97197">
        <ele>387</ele>
        <time>2013-03-09T09:49:28.000Z</time>
      </trkpt>
      <trkpt lat="47.29682" lon="4.97196">
        <ele>387</ele>
        <time>2013-03-09T09:49:29.000Z</time>
      </trkpt>
      <trkpt lat="47.29686" lon="4.97192">
        <ele>387</ele>
        <time>2013-03-09T09:49:37.000Z</time>
      </trkpt>
      <trkpt lat="47.29687" lon="4.97193">
        <ele>387</ele>
        <time>2013-03-09T09:49:38.000Z</time>
      </trkpt>
      <trkpt lat="47.29691" lon="4.97195">
        <ele>387</ele>
        <time>2013-03-09T09:49:44.000Z</time>
      </trkpt>
      <trkpt lat="47.29691" lon="4.97195">
        <ele>387</ele>
        <time>2013-03-09T09:49:45.000Z</time>
      </trkpt>
      <trkpt lat="47.29688" lon="4.97191">
        <ele>387</ele>
        <time>2013-03-09T09:49:55.000Z</time>
      </trkpt>
      <trkpt lat="47.29688" lon="4.97189">
        <ele>387</ele>
        <time>2013-03-09T09:49:56.000Z</time>
      </trkpt>
      <trkpt lat="47.29689" lon="4.97183">
        <ele>387</ele>
        <time>2013-03-09T09:49:59.000Z</time>
      </trkpt>
      <trkpt lat="47.29689" lon="4.97181">
        <ele>387</ele>
        <time>2013-03-09T09:50:00.000Z</time>
      </trkpt>
      <trkpt lat="47.2969" lon="4.97176">
        <ele>387</ele>
        <time>2013-03-09T09:50:02.000Z</time>
      </trkpt>
      <trkpt lat="47.29692" lon="4.97174">
        <ele>387</ele>
        <time>2013-03-09T09:50:03.000Z</time>
      </trkpt>
      <trkpt lat="47.29694" lon="4.9717">
        <ele>387</ele>
        <time>2013-03-09T09:50:05.000Z</time>
      </trkpt>
      <trkpt lat="47.29696" lon="4.97169">
        <ele>387</ele>
        <time>2013-03-09T09:50:06.000Z</time>
      </trkpt>
      <trkpt lat="47.29698" lon="4.97164">
        <ele>385</ele>
        <time>2013-03-09T09:50:09.000Z</time>
      </trkpt>
      <trkpt lat="47.29699" lon="4.97162">
        <ele>384</ele>
        <time>2013-03-09T09:50:10.000Z</time>
      </trkpt>
      <trkpt lat="47.297" lon="4.97158">
        <ele>384</ele>
        <time>2013-03-09T09:50:12.000Z</time>
      </trkpt>
      <trkpt lat="47.29701" lon="4.97156">
        <ele>384</ele>
        <time>2013-03-09T09:50:13.000Z</time>
      </trkpt>
      <trkpt lat="47.29703" lon="4.97152">
        <ele>384</ele>
        <time>2013-03-09T09:50:15.000Z</time>
      </trkpt>
      <trkpt lat="47.29704" lon="4.9715">
        <ele>384</ele>
        <time>2013-03-09T09:50:16.000Z</time>
      </trkpt>
      <trkpt lat="47.29706" lon="4.97146">
        <ele>384</ele>
        <time>2013-03-09T09:50:18.000Z</time>
      </trkpt>
      <trkpt lat="47.29708" lon="4.97145">
        <ele>384</ele>
        <time>2013-03-09T09:50:19.000Z</time>
      </trkpt>
      <trkpt lat="47.29711" lon="4.97142">
        <ele>384</ele>
        <time>2013-03-09T09:50:21.000Z</time>
      </trkpt>
      <trkpt lat="47.29713" lon="4.97141">
        <ele>384</ele>
        <time>2013-03-09T09:50:22.000Z</time>
      </trkpt>
      <trkpt lat="47.29715" lon="4.97138">
        <ele>384</ele>
        <time>2013-03-09T09:50:24.000Z</time>
      </trkpt>
      <trkpt lat="47.29717" lon="4.97136">
        <ele>384</ele>
        <time>2013-03-09T09:50:25.000Z</time>
      </trkpt>
      <trkpt lat="47.29719" lon="4.97133">
        <ele>383</ele>
        <time>2013-03-09T09:50:27.000Z</time>
      </trkpt>
      <trkpt lat="47.2972" lon="4.97131">
        <ele>383</ele>
        <time>2013-03-09T09:50:28.000Z</time>
      </trkpt>
      <trkpt lat="47.29723" lon="4.97127">
        <ele>383</ele>
        <time>2013-03-09T09:50:30.000Z</time>
      </trkpt>
      <trkpt lat="47.29724" lon="4.97126">
        <ele>383</ele>
        <time>2013-03-09T09:50:31.000Z</time>
      </trkpt>
      <trkpt lat="47.29728" lon="4.97123">
        <ele>383</ele>
        <time>2013-03-09T09:50:33.000Z</time>
      </trkpt>
      <trkpt lat="47.29729" lon="4.97122">
        <ele>383</ele>
        <time>2013-03-09T09:50:34.000Z</time>
      </trkpt>
      <trkpt lat="47.29734" lon="4.97121">
        <ele>383</ele>
        <time>2013-03-09T09:50:36.000Z</time>
      </trkpt>
      <trkpt lat="47.29735" lon="4.97122">
        <ele>383</ele>
        <time>2013-03-09T09:50:37.000Z</time>
      </trkpt>
      <trkpt lat="47.29739" lon="4.97122">
        <ele>383</ele>
        <time>2013-03-09T09:50:39.000Z</time>
      </trkpt>
      <trkpt lat="47.29741" lon="4.97122">
        <ele>383</ele>
        <time>2013-03-09T09:50:40.000Z</time>
      </trkpt>
      <trkpt lat="47.29745" lon="4.97122">
        <ele>383</ele>
        <time>2013-03-09T09:50:42.000Z</time>
      </trkpt>
      <trkpt lat="47.29746" lon="4.97123">
        <ele>383</ele>
        <time>2013-03-09T09:50:43.000Z</time>
      </trkpt>
      <trkpt lat="47.29749" lon="4.97124">
        <ele>383</ele>
        <time>2013-03-09T09:50:45.000Z</time>
      </trkpt>
      <trkpt lat="47.29751" lon="4.97125">
        <ele>384</ele>
        <time>2013-03-09T09:50:46.000Z</time>
      </trkpt>
      <trkpt lat="47.29772" lon="4.97137">
        <ele>384</ele>
        <time>2013-03-09T09:50:53.000Z</time>
      </trkpt>
      <trkpt lat="47.29774" lon="4.97139">
        <ele>384</ele>
        <time>2013-03-09T09:50:54.000Z</time>
      </trkpt>
      <trkpt lat="47.29776" lon="4.9714">
        <ele>384</ele>
        <time>2013-03-09T09:50:55.000Z</time>
      </trkpt>
      <trkpt lat="47.2978" lon="4.97143">
        <ele>384</ele>
        <time>2013-03-09T09:50:57.000Z</time>
      </trkpt>
      <trkpt lat="47.29782" lon="4.97143">
        <ele>384</ele>
        <time>2013-03-09T09:50:58.000Z</time>
      </trkpt>
      <trkpt lat="47.29784" lon="4.97145">
        <ele>384</ele>
        <time>2013-03-09T09:51:00.000Z</time>
      </trkpt>
      <trkpt lat="47.29785" lon="4.97147">
        <ele>384</ele>
        <time>2013-03-09T09:51:01.000Z</time>
      </trkpt>
      <trkpt lat="47.29788" lon="4.97151">
        <ele>384</ele>
        <time>2013-03-09T09:51:03.000Z</time>
      </trkpt>
      <trkpt lat="47.29789" lon="4.97153">
        <ele>384</ele>
        <time>2013-03-09T09:51:04.000Z</time>
      </trkpt>
      <trkpt lat="47.29792" lon="4.97156">
        <ele>384</ele>
        <time>2013-03-09T09:51:06.000Z</time>
      </trkpt>
      <trkpt lat="47.29793" lon="4.97157">
        <ele>384</ele>
        <time>2013-03-09T09:51:07.000Z</time>
      </trkpt>
      <trkpt lat="47.29796" lon="4.97159">
        <ele>384</ele>
        <time>2013-03-09T09:51:09.000Z</time>
      </trkpt>
      <trkpt lat="47.29797" lon="4.97161">
        <ele>384</ele>
        <time>2013-03-09T09:51:10.000Z</time>
      </trkpt>
      <trkpt lat="47.298" lon="4.97163">
        <ele>384</ele>
        <time>2013-03-09T09:51:12.000Z</time>
      </trkpt>
      <trkpt lat="47.29801" lon="4.97165">
        <ele>384</ele>
        <time>2013-03-09T09:51:13.000Z</time>
      </trkpt>
      <trkpt lat="47.29804" lon="4.97168">
        <ele>385</ele>
        <time>2013-03-09T09:51:15.000Z</time>
      </trkpt>
      <trkpt lat="47.29806" lon="4.9717">
        <ele>385</ele>
        <time>2013-03-09T09:51:16.000Z</time>
      </trkpt>
      <trkpt lat="47.29809" lon="4.97173">
        <ele>385</ele>
        <time>2013-03-09T09:51:18.000Z</time>
      </trkpt>
      <trkpt lat="47.29811" lon="4.97174">
        <ele>385</ele>
        <time>2013-03-09T09:51:19.000Z</time>
      </trkpt>
      <trkpt lat="47.29813" lon="4.97175">
        <ele>385</ele>
        <time>2013-03-09T09:51:20.000Z</time>
      </trkpt>
      <trkpt lat="47.29822" lon="4.97182">
        <ele>385</ele>
        <time>2013-03-09T09:51:28.000Z</time>
      </trkpt>
      <trkpt lat="47.29827" lon="4.9718">
        <ele>385</ele>
        <time>2013-03-09T09:51:32.000Z</time>
      </trkpt>
      <trkpt lat="47.29827" lon="4.9718">
        <ele>385</ele>
        <time>2013-03-09T09:51:33.000Z</time>
      </trkpt>
      <trkpt lat="47.29831" lon="4.97177">
        <ele>385</ele>
        <time>2013-03-09T09:51:37.000Z</time>
      </trkpt>
      <trkpt lat="47.29832" lon="4.97177">
        <ele>385</ele>
        <time>2013-03-09T09:51:38.000Z</time>
      </trkpt>
      <trkpt lat="47.29836" lon="4.97175">
        <ele>384</ele>
        <time>2013-03-09T09:51:42.000Z</time>
      </trkpt>
      <trkpt lat="47.29837" lon="4.97176">
        <ele>384</ele>
        <time>2013-03-09T09:51:43.000Z</time>
      </trkpt>
      <trkpt lat="47.29839" lon="4.97176">
        <ele>384</ele>
        <time>2013-03-09T09:51:46.000Z</time>
      </trkpt>
      <trkpt lat="47.29842" lon="4.9717">
        <ele>384</ele>
        <time>2013-03-09T09:51:53.000Z</time>
      </trkpt>
      <trkpt lat="47.29846" lon="4.97167">
        <ele>384</ele>
        <time>2013-03-09T09:52:00.000Z</time>
      </trkpt>
      <trkpt lat="47.29847" lon="4.97168">
        <ele>383</ele>
        <time>2013-03-09T09:52:01.000Z</time>
      </trkpt>
      <trkpt lat="47.2985" lon="4.97171">
        <ele>383</ele>
        <time>2013-03-09T09:52:05.000Z</time>
      </trkpt>
      <trkpt lat="47.29851" lon="4.97172">
        <ele>383</ele>
        <time>2013-03-09T09:52:06.000Z</time>
      </trkpt>
      <trkpt lat="47.29854" lon="4.97176">
        <ele>383</ele>
        <time>2013-03-09T09:52:09.000Z</time>
      </trkpt>
      <trkpt lat="47.29855" lon="4.97176">
        <ele>383</ele>
        <time>2013-03-09T09:52:10.000Z</time>
      </trkpt>
      <trkpt lat="47.29858" lon="4.97179">
        <ele>383</ele>
        <time>2013-03-09T09:52:13.000Z</time>
      </trkpt>
      <trkpt lat="47.2986" lon="4.9718">
        <ele>383</ele>
        <time>2013-03-09T09:52:14.000Z</time>
      </trkpt>
      <trkpt lat="47.29864" lon="4.97183">
        <ele>383</ele>
        <time>2013-03-09T09:52:19.000Z</time>
      </trkpt>
      <trkpt lat="47.29877" lon="4.97193">
        <ele>383</ele>
        <time>2013-03-09T09:52:24.000Z</time>
      </trkpt>
      <trkpt lat="47.29881" lon="4.97195">
        <ele>383</ele>
        <time>2013-03-09T09:52:26.000Z</time>
      </trkpt>
      <trkpt lat="47.29882" lon="4.97196">
        <ele>383</ele>
        <time>2013-03-09T09:52:27.000Z</time>
      </trkpt>
      <trkpt lat="47.29885" lon="4.972">
        <ele>383</ele>
        <time>2013-03-09T09:52:30.000Z</time>
      </trkpt>
      <trkpt lat="47.29887" lon="4.97202">
        <ele>383</ele>
        <time>2013-03-09T09:52:31.000Z</time>
      </trkpt>
      <trkpt lat="47.2989" lon="4.97204">
        <ele>383</ele>
        <time>2013-03-09T09:52:33.000Z</time>
      </trkpt>
      <trkpt lat="47.29891" lon="4.97206">
        <ele>383</ele>
        <time>2013-03-09T09:52:34.000Z</time>
      </trkpt>
      <trkpt lat="47.29894" lon="4.97209">
        <ele>383</ele>
        <time>2013-03-09T09:52:36.000Z</time>
      </trkpt>
      <trkpt lat="47.29895" lon="4.97211">
        <ele>383</ele>
        <time>2013-03-09T09:52:37.000Z</time>
      </trkpt>
      <trkpt lat="47.29898" lon="4.97214">
        <ele>383</ele>
        <time>2013-03-09T09:52:39.000Z</time>
      </trkpt>
      <trkpt lat="47.299" lon="4.97215">
        <ele>383</ele>
        <time>2013-03-09T09:52:40.000Z</time>
      </trkpt>
      <trkpt lat="47.29903" lon="4.97218">
        <ele>383</ele>
        <time>2013-03-09T09:52:42.000Z</time>
      </trkpt>
      <trkpt lat="47.29904" lon="4.97219">
        <ele>383</ele>
        <time>2013-03-09T09:52:43.000Z</time>
      </trkpt>
      <trkpt lat="47.29907" lon="4.97222">
        <ele>383</ele>
        <time>2013-03-09T09:52:45.000Z</time>
      </trkpt>
      <trkpt lat="47.29908" lon="4.97223">
        <ele>383</ele>
        <time>2013-03-09T09:52:46.000Z</time>
      </trkpt>
      <trkpt lat="47.29916" lon="4.97243">
        <ele>383</ele>
        <time>2013-03-09T09:52:53.000Z</time>
      </trkpt>
      <trkpt lat="47.29919" lon="4.97248">
        <ele>383</ele>
        <time>2013-03-09T09:52:56.000Z</time>
      </trkpt>
      <trkpt lat="47.2992" lon="4.9725">
        <ele>383</ele>
        <time>2013-03-09T09:52:57.000Z</time>
      </trkpt>
      <trkpt lat="47.29923" lon="4.97254">
        <ele>383</ele>
        <time>2013-03-09T09:52:59.000Z</time>
      </trkpt>
      <trkpt lat="47.29924" lon="4.97256">
        <ele>383</ele>
        <time>2013-03-09T09:53:00.000Z</time>
      </trkpt>
      <trkpt lat="47.29926" lon="4.97261">
        <ele>383</ele>
        <time>2013-03-09T09:53:02.000Z</time>
      </trkpt>
      <trkpt lat="47.29926" lon="4.97263">
        <ele>383</ele>
        <time>2013-03-09T09:53:03.000Z</time>
      </trkpt>
      <trkpt lat="47.29928" lon="4.97266">
        <ele>383</ele>
        <time>2013-03-09T09:53:05.000Z</time>
      </trkpt>
      <trkpt lat="47.29929" lon="4.97269">
        <ele>383</ele>
        <time>2013-03-09T09:53:06.000Z</time>
      </trkpt>
      <trkpt lat="47.29931" lon="4.97274">
        <ele>383</ele>
        <time>2013-03-09T09:53:08.000Z</time>
      </trkpt>
      <trkpt lat="47.29931" lon="4.97276">
        <ele>383</ele>
        <time>2013-03-09T09:53:09.000Z</time>
      </trkpt>
      <trkpt lat="47.29933" lon="4.97282">
        <ele>384</ele>
        <time>2013-03-09T09:53:11.000Z</time>
      </trkpt>
      <trkpt lat="47.29934" lon="4.97284">
        <ele>384</ele>
        <time>2013-03-09T09:53:12.000Z</time>
      </trkpt>
      <trkpt lat="47.29935" lon="4.97288">
        <ele>384</ele>
        <time>2013-03-09T09:53:14.000Z</time>
      </trkpt>
      <trkpt lat="47.29936" lon="4.97291">
        <ele>384</ele>
        <time>2013-03-09T09:53:15.000Z</time>
      </trkpt>
      <trkpt lat="47.29938" lon="4.97295">
        <ele>384</ele>
        <time>2013-03-09T09:53:17.000Z</time>
      </trkpt>
      <trkpt lat="47.29939" lon="4.97298">
        <ele>384</ele>
        <time>2013-03-09T09:53:18.000Z</time>
      </trkpt>
      <trkpt lat="47.29941" lon="4.97303">
        <ele>384</ele>
        <time>2013-03-09T09:53:20.000Z</time>
      </trkpt>
      <trkpt lat="47.29895" lon="4.97358">
        <ele>386</ele>
        <time>2013-03-09T09:53:33.000Z</time>
      </trkpt>
      <trkpt lat="47.29901" lon="4.97372">
        <ele>386</ele>
        <time>2013-03-09T09:53:36.000Z</time>
      </trkpt>
      <trkpt lat="47.29905" lon="4.97389">
        <ele>386</ele>
        <time>2013-03-09T09:53:37.000Z</time>
      </trkpt>
      <trkpt lat="47.29919" lon="4.97383">
        <ele>386</ele>
        <time>2013-03-09T09:53:38.000Z</time>
      </trkpt>
      <trkpt lat="47.29928" lon="4.97393">
        <ele>386</ele>
        <time>2013-03-09T09:53:39.000Z</time>
      </trkpt>
      <trkpt lat="47.29931" lon="4.9739">
        <ele>385</ele>
        <time>2013-03-09T09:53:40.000Z</time>
      </trkpt>
      <trkpt lat="47.29935" lon="4.97389">
        <ele>385</ele>
        <time>2013-03-09T09:53:41.000Z</time>
      </trkpt>
      <trkpt lat="47.29938" lon="4.97388">
        <ele>385</ele>
        <time>2013-03-09T09:53:42.000Z</time>
      </trkpt>
      <trkpt lat="47.2994" lon="4.97388">
        <ele>385</ele>
        <time>2013-03-09T09:53:43.000Z</time>
      </trkpt>
      <trkpt lat="47.29945" lon="4.97388">
        <ele>385</ele>
        <time>2013-03-09T09:53:45.000Z</time>
      </trkpt>
      <trkpt lat="47.29946" lon="4.97388">
        <ele>385</ele>
        <time>2013-03-09T09:53:46.000Z</time>
      </trkpt>
      <trkpt lat="47.2997" lon="4.9738">
        <ele>385</ele>
        <time>2013-03-09T09:53:53.000Z</time>
      </trkpt>
      <trkpt lat="47.29974" lon="4.97382">
        <ele>384</ele>
        <time>2013-03-09T09:53:55.000Z</time>
      </trkpt>
      <trkpt lat="47.29975" lon="4.97384">
        <ele>384</ele>
        <time>2013-03-09T09:53:56.000Z</time>
      </trkpt>
      <trkpt lat="47.29978" lon="4.97388">
        <ele>384</ele>
        <time>2013-03-09T09:53:58.000Z</time>
      </trkpt>
      <trkpt lat="47.29979" lon="4.97389">
        <ele>384</ele>
        <time>2013-03-09T09:53:59.000Z</time>
      </trkpt>
      <trkpt lat="47.29981" lon="4.97393">
        <ele>384</ele>
        <time>2013-03-09T09:54:01.000Z</time>
      </trkpt>
      <trkpt lat="47.29982" lon="4.97395">
        <ele>384</ele>
        <time>2013-03-09T09:54:02.000Z</time>
      </trkpt>
      <trkpt lat="47.29984" lon="4.97399">
        <ele>384</ele>
        <time>2013-03-09T09:54:04.000Z</time>
      </trkpt>
      <trkpt lat="47.29986" lon="4.97401">
        <ele>384</ele>
        <time>2013-03-09T09:54:05.000Z</time>
      </trkpt>
      <trkpt lat="47.29988" lon="4.97406">
        <ele>384</ele>
        <time>2013-03-09T09:54:07.000Z</time>
      </trkpt>
      <trkpt lat="47.29989" lon="4.97408">
        <ele>384</ele>
        <time>2013-03-09T09:54:08.000Z</time>
      </trkpt>
      <trkpt lat="47.2999" lon="4.97413">
        <ele>384</ele>
        <time>2013-03-09T09:54:10.000Z</time>
      </trkpt>
      <trkpt lat="47.29991" lon="4.97416">
        <ele>384</ele>
        <time>2013-03-09T09:54:11.000Z</time>
      </trkpt>
      <trkpt lat="47.29992" lon="4.97421">
        <ele>384</ele>
        <time>2013-03-09T09:54:13.000Z</time>
      </trkpt>
      <trkpt lat="47.29993" lon="4.97424">
        <ele>384</ele>
        <time>2013-03-09T09:54:14.000Z</time>
      </trkpt>
      <trkpt lat="47.29995" lon="4.97429">
        <ele>384</ele>
        <time>2013-03-09T09:54:16.000Z</time>
      </trkpt>
      <trkpt lat="47.29996" lon="4.97431">
        <ele>384</ele>
        <time>2013-03-09T09:54:17.000Z</time>
      </trkpt>
      <trkpt lat="47.29997" lon="4.97436">
        <ele>384</ele>
        <time>2013-03-09T09:54:19.000Z</time>
      </trkpt>
      <trkpt lat="47.29998" lon="4.97439">
        <ele>384</ele>
        <time>2013-03-09T09:54:20.000Z</time>
      </trkpt>
      <trkpt lat="47.30026" lon="4.97467">
        <ele>382</ele>
        <time>2013-03-09T09:54:37.000Z</time>
      </trkpt>
      <trkpt lat="47.30025" lon="4.97471">
        <ele>382</ele>
        <time>2013-03-09T09:54:38.000Z</time>
      </trkpt>
      <trkpt lat="47.30026" lon="4.97476">
        <ele>382</ele>
        <time>2013-03-09T09:54:39.000Z</time>
      </trkpt>
      <trkpt lat="47.30027" lon="4.9748">
        <ele>382</ele>
        <time>2013-03-09T09:54:40.000Z</time>
      </trkpt>
      <trkpt lat="47.30027" lon="4.97484">
        <ele>382</ele>
        <time>2013-03-09T09:54:41.000Z</time>
      </trkpt>
      <trkpt lat="47.30028" lon="4.97487">
        <ele>382</ele>
        <time>2013-03-09T09:54:42.000Z</time>
      </trkpt>
      <trkpt lat="47.3003" lon="4.9749">
        <ele>382</ele>
        <time>2013-03-09T09:54:43.000Z</time>
      </trkpt>
      <trkpt lat="47.30032" lon="4.97495">
        <ele>382</ele>
        <time>2013-03-09T09:54:45.000Z</time>
      </trkpt>
      <trkpt lat="47.30033" lon="4.97498">
        <ele>382</ele>
        <time>2013-03-09T09:54:46.000Z</time>
      </trkpt>
      <trkpt lat="47.30041" lon="4.9752">
        <ele>381</ele>
        <time>2013-03-09T09:54:53.000Z</time>
      </trkpt>
      <trkpt lat="47.30043" lon="4.97525">
        <ele>381</ele>
        <time>2013-03-09T09:54:55.000Z</time>
      </trkpt>
      <trkpt lat="47.30044" lon="4.97528">
        <ele>381</ele>
        <time>2013-03-09T09:54:56.000Z</time>
      </trkpt>
      <trkpt lat="47.30047" lon="4.97532">
        <ele>381</ele>
        <time>2013-03-09T09:54:58.000Z</time>
      </trkpt>
      <trkpt lat="47.30047" lon="4.97534">
        <ele>381</ele>
        <time>2013-03-09T09:54:59.000Z</time>
      </trkpt>
      <trkpt lat="47.3005" lon="4.97538">
        <ele>381</ele>
        <time>2013-03-09T09:55:01.000Z</time>
      </trkpt>
      <trkpt lat="47.30051" lon="4.9754">
        <ele>381</ele>
        <time>2013-03-09T09:55:02.000Z</time>
      </trkpt>
      <trkpt lat="47.30054" lon="4.97544">
        <ele>381</ele>
        <time>2013-03-09T09:55:04.000Z</time>
      </trkpt>
      <trkpt lat="47.30055" lon="4.97546">
        <ele>381</ele>
        <time>2013-03-09T09:55:05.000Z</time>
      </trkpt>
      <trkpt lat="47.30057" lon="4.97549">
        <ele>381</ele>
        <time>2013-03-09T09:55:06.000Z</time>
      </trkpt>
      <trkpt lat="47.30058" lon="4.97551">
        <ele>381</ele>
        <time>2013-03-09T09:55:07.000Z</time>
      </trkpt>
      <trkpt lat="47.30061" lon="4.97556">
        <ele>381</ele>
        <time>2013-03-09T09:55:09.000Z</time>
      </trkpt>
      <trkpt lat="47.30062" lon="4.97559">
        <ele>381</ele>
        <time>2013-03-09T09:55:10.000Z</time>
      </trkpt>
      <trkpt lat="47.30064" lon="4.97564">
        <ele>381</ele>
        <time>2013-03-09T09:55:12.000Z</time>
      </trkpt>
      <trkpt lat="47.30065" lon="4.97567">
        <ele>381</ele>
        <time>2013-03-09T09:55:13.000Z</time>
      </trkpt>
      <trkpt lat="47.30068" lon="4.97571">
        <ele>381</ele>
        <time>2013-03-09T09:55:15.000Z</time>
      </trkpt>
      <trkpt lat="47.30069" lon="4.97574">
        <ele>381</ele>
        <time>2013-03-09T09:55:16.000Z</time>
      </trkpt>
      <trkpt lat="47.3007" lon="4.97577">
        <ele>380</ele>
        <time>2013-03-09T09:55:17.000Z</time>
      </trkpt>
      <trkpt lat="47.30072" lon="4.9758">
        <ele>380</ele>
        <time>2013-03-09T09:55:18.000Z</time>
      </trkpt>
      <trkpt lat="47.30073" lon="4.97583">
        <ele>380</ele>
        <time>2013-03-09T09:55:19.000Z</time>
      </trkpt>
      <trkpt lat="47.30031" lon="4.97668">
        <ele>379</ele>
        <time>2013-03-09T09:55:39.000Z</time>
      </trkpt>
      <trkpt lat="47.30116" lon="4.97682">
        <ele>377</ele>
        <time>2013-03-09T09:55:53.000Z</time>
      </trkpt>
      <trkpt lat="47.30119" lon="4.97684">
        <ele>377</ele>
        <time>2013-03-09T09:55:55.000Z</time>
      </trkpt>
      <trkpt lat="47.3012" lon="4.97686">
        <ele>377</ele>
        <time>2013-03-09T09:55:56.000Z</time>
      </trkpt>
      <trkpt lat="47.30123" lon="4.9769">
        <ele>376</ele>
        <time>2013-03-09T09:55:58.000Z</time>
      </trkpt>
      <trkpt lat="47.30124" lon="4.97692">
        <ele>376</ele>
        <time>2013-03-09T09:55:59.000Z</time>
      </trkpt>
      <trkpt lat="47.30127" lon="4.97696">
        <ele>376</ele>
        <time>2013-03-09T09:56:01.000Z</time>
      </trkpt>
      <trkpt lat="47.30128" lon="4.97697">
        <ele>376</ele>
        <time>2013-03-09T09:56:02.000Z</time>
      </trkpt>
      <trkpt lat="47.3013" lon="4.97702">
        <ele>376</ele>
        <time>2013-03-09T09:56:04.000Z</time>
      </trkpt>
      <trkpt lat="47.30132" lon="4.97705">
        <ele>376</ele>
        <time>2013-03-09T09:56:05.000Z</time>
      </trkpt>
      <trkpt lat="47.30133" lon="4.97707">
        <ele>376</ele>
        <time>2013-03-09T09:56:06.000Z</time>
      </trkpt>
      <trkpt lat="47.30134" lon="4.9771">
        <ele>376</ele>
        <time>2013-03-09T09:56:07.000Z</time>
      </trkpt>
      <trkpt lat="47.30137" lon="4.97715">
        <ele>376</ele>
        <time>2013-03-09T09:56:09.000Z</time>
      </trkpt>
      <trkpt lat="47.30138" lon="4.97717">
        <ele>376</ele>
        <time>2013-03-09T09:56:10.000Z</time>
      </trkpt>
      <trkpt lat="47.30139" lon="4.9772">
        <ele>376</ele>
        <time>2013-03-09T09:56:11.000Z</time>
      </trkpt>
      <trkpt lat="47.30141" lon="4.97723">
        <ele>376</ele>
        <time>2013-03-09T09:56:12.000Z</time>
      </trkpt>
      <trkpt lat="47.30143" lon="4.97728">
        <ele>375</ele>
        <time>2013-03-09T09:56:14.000Z</time>
      </trkpt>
      <trkpt lat="47.30144" lon="4.9773">
        <ele>375</ele>
        <time>2013-03-09T09:56:15.000Z</time>
      </trkpt>
      <trkpt lat="47.30147" lon="4.97734">
        <ele>375</ele>
        <time>2013-03-09T09:56:17.000Z</time>
      </trkpt>
      <trkpt lat="47.30148" lon="4.97737">
        <ele>375</ele>
        <time>2013-03-09T09:56:18.000Z</time>
      </trkpt>
      <trkpt lat="47.30149" lon="4.9774">
        <ele>375</ele>
        <time>2013-03-09T09:56:19.000Z</time>
      </trkpt>
      <trkpt lat="47.30132" lon="4.97808">
        <ele>374</ele>
        <time>2013-03-09T09:56:39.000Z</time>
      </trkpt>
      <trkpt lat="47.30137" lon="4.97812">
        <ele>374</ele>
        <time>2013-03-09T09:56:40.000Z</time>
      </trkpt>
      <trkpt lat="47.3014" lon="4.97815">
        <ele>374</ele>
        <time>2013-03-09T09:56:41.000Z</time>
      </trkpt>
      <trkpt lat="47.30143" lon="4.97817">
        <ele>374</ele>
        <time>2013-03-09T09:56:42.000Z</time>
      </trkpt>
      <trkpt lat="47.30145" lon="4.97819">
        <ele>374</ele>
        <time>2013-03-09T09:56:43.000Z</time>
      </trkpt>
      <trkpt lat="47.30147" lon="4.97821">
        <ele>374</ele>
        <time>2013-03-09T09:56:44.000Z</time>
      </trkpt>
      <trkpt lat="47.30149" lon="4.97822">
        <ele>374</ele>
        <time>2013-03-09T09:56:45.000Z</time>
      </trkpt>
      <trkpt lat="47.30151" lon="4.97825">
        <ele>373</ele>
        <time>2013-03-09T09:56:46.000Z</time>
      </trkpt>
      <trkpt lat="47.30146" lon="4.97882">
        <ele>373</ele>
        <time>2013-03-09T09:56:50.000Z</time>
      </trkpt>
      <trkpt lat="47.3018" lon="4.97867">
        <ele>371</ele>
        <time>2013-03-09T09:56:54.000Z</time>
      </trkpt>
      <trkpt lat="47.30183" lon="4.97865">
        <ele>371</ele>
        <time>2013-03-09T09:56:55.000Z</time>
      </trkpt>
      <trkpt lat="47.30185" lon="4.97865">
        <ele>371</ele>
        <time>2013-03-09T09:56:56.000Z</time>
      </trkpt>
      <trkpt lat="47.30187" lon="4.97866">
        <ele>371</ele>
        <time>2013-03-09T09:56:57.000Z</time>
      </trkpt>
      <trkpt lat="47.3019" lon="4.97866">
        <ele>371</ele>
        <time>2013-03-09T09:56:58.000Z</time>
      </trkpt>
      <trkpt lat="47.30194" lon="4.97869">
        <ele>371</ele>
        <time>2013-03-09T09:57:00.000Z</time>
      </trkpt>
      <trkpt lat="47.30195" lon="4.97869">
        <ele>370</ele>
        <time>2013-03-09T09:57:01.000Z</time>
      </trkpt>
      <trkpt lat="47.30199" lon="4.97871">
        <ele>370</ele>
        <time>2013-03-09T09:57:03.000Z</time>
      </trkpt>
      <trkpt lat="47.30201" lon="4.97873">
        <ele>370</ele>
        <time>2013-03-09T09:57:04.000Z</time>
      </trkpt>
      <trkpt lat="47.30205" lon="4.97876">
        <ele>370</ele>
        <time>2013-03-09T09:57:06.000Z</time>
      </trkpt>
      <trkpt lat="47.30206" lon="4.97878">
        <ele>370</ele>
        <time>2013-03-09T09:57:07.000Z</time>
      </trkpt>
      <trkpt lat="47.30209" lon="4.97881">
        <ele>370</ele>
        <time>2013-03-09T09:57:09.000Z</time>
      </trkpt>
      <trkpt lat="47.30211" lon="4.97883">
        <ele>370</ele>
        <time>2013-03-09T09:57:10.000Z</time>
      </trkpt>
      <trkpt lat="47.30214" lon="4.97887">
        <ele>370</ele>
        <time>2013-03-09T09:57:12.000Z</time>
      </trkpt>
      <trkpt lat="47.30215" lon="4.9789">
        <ele>370</ele>
        <time>2013-03-09T09:57:13.000Z</time>
      </trkpt>
      <trkpt lat="47.30217" lon="4.97895">
        <ele>370</ele>
        <time>2013-03-09T09:57:15.000Z</time>
      </trkpt>
      <trkpt lat="47.30218" lon="4.97897">
        <ele>370</ele>
        <time>2013-03-09T09:57:16.000Z</time>
      </trkpt>
      <trkpt lat="47.30221" lon="4.97902">
        <ele>370</ele>
        <time>2013-03-09T09:57:18.000Z</time>
      </trkpt>
      <trkpt lat="47.30222" lon="4.97904">
        <ele>370</ele>
        <time>2013-03-09T09:57:19.000Z</time>
      </trkpt>
      <trkpt lat="47.30221" lon="4.97981">
        <ele>369</ele>
        <time>2013-03-09T09:57:35.000Z</time>
      </trkpt>
      <trkpt lat="47.30221" lon="4.97987">
        <ele>369</ele>
        <time>2013-03-09T09:57:36.000Z</time>
      </trkpt>
      <trkpt lat="47.30226" lon="4.97992">
        <ele>368</ele>
        <time>2013-03-09T09:57:37.000Z</time>
      </trkpt>
      <trkpt lat="47.30229" lon="4.97991">
        <ele>368</ele>
        <time>2013-03-09T09:57:38.000Z</time>
      </trkpt>
      <trkpt lat="47.30232" lon="4.97991">
        <ele>368</ele>
        <time>2013-03-09T09:57:39.000Z</time>
      </trkpt>
      <trkpt lat="47.30235" lon="4.97992">
        <ele>368</ele>
        <time>2013-03-09T09:57:40.000Z</time>
      </trkpt>
      <trkpt lat="47.30237" lon="4.97992">
        <ele>368</ele>
        <time>2013-03-09T09:57:41.000Z</time>
      </trkpt>
      <trkpt lat="47.30239" lon="4.97992">
        <ele>368</ele>
        <time>2013-03-09T09:57:42.000Z</time>
      </trkpt>
      <trkpt lat="47.30242" lon="4.97993">
        <ele>368</ele>
        <time>2013-03-09T09:57:43.000Z</time>
      </trkpt>
      <trkpt lat="47.30246" lon="4.97994">
        <ele>368</ele>
        <time>2013-03-09T09:57:45.000Z</time>
      </trkpt>
      <trkpt lat="47.30248" lon="4.97995">
        <ele>367</ele>
        <time>2013-03-09T09:57:46.000Z</time>
      </trkpt>
      <trkpt lat="47.30252" lon="4.97998">
        <ele>367</ele>
        <time>2013-03-09T09:57:48.000Z</time>
      </trkpt>
      <trkpt lat="47.30254" lon="4.97999">
        <ele>367</ele>
        <time>2013-03-09T09:57:49.000Z</time>
      </trkpt>
      <trkpt lat="47.30256" lon="4.98">
        <ele>366</ele>
        <time>2013-03-09T09:57:50.000Z</time>
      </trkpt>
      <trkpt lat="47.30258" lon="4.98002">
        <ele>366</ele>
        <time>2013-03-09T09:57:51.000Z</time>
      </trkpt>
      <trkpt lat="47.3026" lon="4.98004">
        <ele>366</ele>
        <time>2013-03-09T09:57:52.000Z</time>
      </trkpt>
      <trkpt lat="47.30262" lon="4.98006">
        <ele>366</ele>
        <time>2013-03-09T09:57:53.000Z</time>
      </trkpt>
      <trkpt lat="47.30264" lon="4.98008">
        <ele>366</ele>
        <time>2013-03-09T09:57:54.000Z</time>
      </trkpt>
      <trkpt lat="47.30266" lon="4.98011">
        <ele>366</ele>
        <time>2013-03-09T09:57:55.000Z</time>
      </trkpt>
      <trkpt lat="47.30269" lon="4.98015">
        <ele>365</ele>
        <time>2013-03-09T09:57:57.000Z</time>
      </trkpt>
      <trkpt lat="47.3027" lon="4.98018">
        <ele>365</ele>
        <time>2013-03-09T09:57:58.000Z</time>
      </trkpt>
      <trkpt lat="47.30272" lon="4.9802">
        <ele>365</ele>
        <time>2013-03-09T09:57:59.000Z</time>
      </trkpt>
      <trkpt lat="47.30273" lon="4.98023">
        <ele>365</ele>
        <time>2013-03-09T09:58:00.000Z</time>
      </trkpt>
      <trkpt lat="47.30276" lon="4.98027">
        <ele>365</ele>
        <time>2013-03-09T09:58:02.000Z</time>
      </trkpt>
      <trkpt lat="47.30277" lon="4.9803">
        <ele>365</ele>
        <time>2013-03-09T09:58:03.000Z</time>
      </trkpt>
      <trkpt lat="47.30279" lon="4.98033">
        <ele>365</ele>
        <time>2013-03-09T09:58:04.000Z</time>
      </trkpt>
      <trkpt lat="47.30281" lon="4.98035">
        <ele>365</ele>
        <time>2013-03-09T09:58:05.000Z</time>
      </trkpt>
      <trkpt lat="47.30282" lon="4.98038">
        <ele>365</ele>
        <time>2013-03-09T09:58:06.000Z</time>
      </trkpt>
      <trkpt lat="47.30283" lon="4.98041">
        <ele>365</ele>
        <time>2013-03-09T09:58:07.000Z</time>
      </trkpt>
      <trkpt lat="47.30286" lon="4.98046">
        <ele>365</ele>
        <time>2013-03-09T09:58:09.000Z</time>
      </trkpt>
      <trkpt lat="47.30287" lon="4.98048">
        <ele>365</ele>
        <time>2013-03-09T09:58:10.000Z</time>
      </trkpt>
      <trkpt lat="47.30289" lon="4.98053">
        <ele>364</ele>
        <time>2013-03-09T09:58:12.000Z</time>
      </trkpt>
      <trkpt lat="47.30291" lon="4.98056">
        <ele>364</ele>
        <time>2013-03-09T09:58:13.000Z</time>
      </trkpt>
      <trkpt lat="47.30293" lon="4.98061">
        <ele>364</ele>
        <time>2013-03-09T09:58:15.000Z</time>
      </trkpt>
      <trkpt lat="47.30294" lon="4.98064">
        <ele>364</ele>
        <time>2013-03-09T09:58:16.000Z</time>
      </trkpt>
      <trkpt lat="47.30295" lon="4.98068">
        <ele>364</ele>
        <time>2013-03-09T09:58:17.000Z</time>
      </trkpt>
      <trkpt lat="47.30295" lon="4.98071">
        <ele>364</ele>
        <time>2013-03-09T09:58:18.000Z</time>
      </trkpt>
      <trkpt lat="47.30296" lon="4.98074">
        <ele>364</ele>
        <time>2013-03-09T09:58:19.000Z</time>
      </trkpt>
      <trkpt lat="47.30297" lon="4.98077">
        <ele>364</ele>
        <time>2013-03-09T09:58:20.000Z</time>
      </trkpt>
      <trkpt lat="47.30296" lon="4.98083">
        <ele>364</ele>
        <time>2013-03-09T09:58:22.000Z</time>
      </trkpt>
      <trkpt lat="47.30296" lon="4.98086">
        <ele>363</ele>
        <time>2013-03-09T09:58:23.000Z</time>
      </trkpt>
      <trkpt lat="47.30294" lon="4.98091">
        <ele>363</ele>
        <time>2013-03-09T09:58:25.000Z</time>
      </trkpt>
      <trkpt lat="47.30293" lon="4.98093">
        <ele>363</ele>
        <time>2013-03-09T09:58:26.000Z</time>
      </trkpt>
      <trkpt lat="47.30291" lon="4.98098">
        <ele>363</ele>
        <time>2013-03-09T09:58:28.000Z</time>
      </trkpt>
      <trkpt lat="47.3029" lon="4.98101">
        <ele>363</ele>
        <time>2013-03-09T09:58:29.000Z</time>
      </trkpt>
      <trkpt lat="47.30289" lon="4.98104">
        <ele>363</ele>
        <time>2013-03-09T09:58:30.000Z</time>
      </trkpt>
      <trkpt lat="47.30287" lon="4.98107">
        <ele>363</ele>
        <time>2013-03-09T09:58:31.000Z</time>
      </trkpt>
      <trkpt lat="47.30285" lon="4.98112">
        <ele>363</ele>
        <time>2013-03-09T09:58:33.000Z</time>
      </trkpt>
      <trkpt lat="47.30284" lon="4.98115">
        <ele>363</ele>
        <time>2013-03-09T09:58:34.000Z</time>
      </trkpt>
      <trkpt lat="47.30283" lon="4.98118">
        <ele>363</ele>
        <time>2013-03-09T09:58:35.000Z</time>
      </trkpt>
      <trkpt lat="47.30282" lon="4.98121">
        <ele>363</ele>
        <time>2013-03-09T09:58:36.000Z</time>
      </trkpt>
      <trkpt lat="47.3028" lon="4.98127">
        <ele>363</ele>
        <time>2013-03-09T09:58:38.000Z</time>
      </trkpt>
      <trkpt lat="47.30279" lon="4.98129">
        <ele>363</ele>
        <time>2013-03-09T09:58:39.000Z</time>
      </trkpt>
      <trkpt lat="47.30277" lon="4.98134">
        <ele>363</ele>
        <time>2013-03-09T09:58:41.000Z</time>
      </trkpt>
      <trkpt lat="47.30276" lon="4.98137">
        <ele>363</ele>
        <time>2013-03-09T09:58:42.000Z</time>
      </trkpt>
      <trkpt lat="47.30274" lon="4.98142">
        <ele>363</ele>
        <time>2013-03-09T09:58:44.000Z</time>
      </trkpt>
      <trkpt lat="47.30272" lon="4.98145">
        <ele>363</ele>
        <time>2013-03-09T09:58:45.000Z</time>
      </trkpt>
      <trkpt lat="47.30265" lon="4.98162">
        <ele>363</ele>
        <time>2013-03-09T09:58:53.000Z</time>
      </trkpt>
      <trkpt lat="47.30262" lon="4.98165">
        <ele>363</ele>
        <time>2013-03-09T09:58:55.000Z</time>
      </trkpt>
      <trkpt lat="47.3026" lon="4.98167">
        <ele>362</ele>
        <time>2013-03-09T09:58:56.000Z</time>
      </trkpt>
      <trkpt lat="47.30257" lon="4.98171">
        <ele>362</ele>
        <time>2013-03-09T09:58:58.000Z</time>
      </trkpt>
      <trkpt lat="47.30255" lon="4.98174">
        <ele>362</ele>
        <time>2013-03-09T09:58:59.000Z</time>
      </trkpt>
      <trkpt lat="47.30252" lon="4.98178">
        <ele>362</ele>
        <time>2013-03-09T09:59:01.000Z</time>
      </trkpt>
      <trkpt lat="47.30251" lon="4.9818">
        <ele>362</ele>
        <time>2013-03-09T09:59:02.000Z</time>
      </trkpt>
      <trkpt lat="47.30247" lon="4.98182">
        <ele>364</ele>
        <time>2013-03-09T09:59:04.000Z</time>
      </trkpt>
      <trkpt lat="47.30245" lon="4.98183">
        <ele>364</ele>
        <time>2013-03-09T09:59:05.000Z</time>
      </trkpt>
      <trkpt lat="47.30242" lon="4.98184">
        <ele>364</ele>
        <time>2013-03-09T09:59:07.000Z</time>
      </trkpt>
      <trkpt lat="47.3024" lon="4.98185">
        <ele>365</ele>
        <time>2013-03-09T09:59:08.000Z</time>
      </trkpt>
      <trkpt lat="47.30235" lon="4.98185">
        <ele>365</ele>
        <time>2013-03-09T09:59:11.000Z</time>
      </trkpt>
      <trkpt lat="47.30234" lon="4.98184">
        <ele>365</ele>
        <time>2013-03-09T09:59:12.000Z</time>
      </trkpt>
      <trkpt lat="47.3023" lon="4.98183">
        <ele>365</ele>
        <time>2013-03-09T09:59:15.000Z</time>
      </trkpt>
      <trkpt lat="47.30229" lon="4.98182">
        <ele>365</ele>
        <time>2013-03-09T09:59:16.000Z</time>
      </trkpt>
      <trkpt lat="47.30227" lon="4.98178">
        <ele>365</ele>
        <time>2013-03-09T09:59:18.000Z</time>
      </trkpt>
      <trkpt lat="47.30227" lon="4.98176">
        <ele>365</ele>
        <time>2013-03-09T09:59:19.000Z</time>
      </trkpt>
      <trkpt lat="47.30226" lon="4.98171">
        <ele>365</ele>
        <time>2013-03-09T09:59:21.000Z</time>
      </trkpt>
      <trkpt lat="47.30226" lon="4.98169">
        <ele>365</ele>
        <time>2013-03-09T09:59:22.000Z</time>
      </trkpt>
      <trkpt lat="47.30228" lon="4.98164">
        <ele>365</ele>
        <time>2013-03-09T09:59:24.000Z</time>
      </trkpt>
      <trkpt lat="47.30228" lon="4.98162">
        <ele>365</ele>
        <time>2013-03-09T09:59:25.000Z</time>
      </trkpt>
      <trkpt lat="47.3023" lon="4.98157">
        <ele>365</ele>
        <time>2013-03-09T09:59:27.000Z</time>
      </trkpt>
      <trkpt lat="47.30232" lon="4.98155">
        <ele>365</ele>
        <time>2013-03-09T09:59:28.000Z</time>
      </trkpt>
      <trkpt lat="47.30235" lon="4.9815">
        <ele>365</ele>
        <time>2013-03-09T09:59:30.000Z</time>
      </trkpt>
      <trkpt lat="47.30236" lon="4.98148">
        <ele>365</ele>
        <time>2013-03-09T09:59:31.000Z</time>
      </trkpt>
      <trkpt lat="47.30239" lon="4.98145">
        <ele>365</ele>
        <time>2013-03-09T09:59:33.000Z</time>
      </trkpt>
      <trkpt lat="47.3024" lon="4.98143">
        <ele>365</ele>
        <time>2013-03-09T09:59:34.000Z</time>
      </trkpt>
      <trkpt lat="47.30243" lon="4.98139">
        <ele>365</ele>
        <time>2013-03-09T09:59:36.000Z</time>
      </trkpt>
      <trkpt lat="47.30245" lon="4.98136">
        <ele>365</ele>
        <time>2013-03-09T09:59:37.000Z</time>
      </trkpt>
      <trkpt lat="47.30248" lon="4.98133">
        <ele>365</ele>
        <time>2013-03-09T09:59:39.000Z</time>
      </trkpt>
      <trkpt lat="47.30249" lon="4.98131">
        <ele>365</ele>
        <time>2013-03-09T09:59:40.000Z</time>
      </trkpt>
      <trkpt lat="47.30252" lon="4.98126">
        <ele>363</ele>
        <time>2013-03-09T09:59:42.000Z</time>
      </trkpt>
      <trkpt lat="47.30253" lon="4.98124">
        <ele>363</ele>
        <time>2013-03-09T09:59:43.000Z</time>
      </trkpt>
      <trkpt lat="47.30255" lon="4.98119">
        <ele>363</ele>
        <time>2013-03-09T09:59:45.000Z</time>
      </trkpt>
      <trkpt lat="47.30256" lon="4.98117">
        <ele>363</ele>
        <time>2013-03-09T09:59:46.000Z</time>
      </trkpt>
      <trkpt lat="47.30267" lon="4.98098">
        <ele>364</ele>
        <time>2013-03-09T09:59:53.000Z</time>
      </trkpt>
      <trkpt lat="47.30271" lon="4.98094">
        <ele>364</ele>
        <time>2013-03-09T09:59:55.000Z</time>
      </trkpt>
      <trkpt lat="47.30272" lon="4.98092">
        <ele>364</ele>
        <time>2013-03-09T09:59:56.000Z</time>
      </trkpt>
      <trkpt lat="47.30274" lon="4.98088">
        <ele>364</ele>
        <time>2013-03-09T09:59:58.000Z</time>
      </trkpt>
      <trkpt lat="47.30276" lon="4.98086">
        <ele>364</ele>
        <time>2013-03-09T09:59:59.000Z</time>
      </trkpt>
      <trkpt lat="47.30279" lon="4.98082">
        <ele>365</ele>
        <time>2013-03-09T10:00:01.000Z</time>
      </trkpt>
      <trkpt lat="47.3028" lon="4.9808">
        <ele>365</ele>
        <time>2013-03-09T10:00:02.000Z</time>
      </trkpt>
      <trkpt lat="47.30283" lon="4.98076">
        <ele>365</ele>
        <time>2013-03-09T10:00:05.000Z</time>
      </trkpt>
      <trkpt lat="47.30284" lon="4.98075">
        <ele>365</ele>
        <time>2013-03-09T10:00:06.000Z</time>
      </trkpt>
      <trkpt lat="47.30288" lon="4.98074">
        <ele>364</ele>
        <time>2013-03-09T10:00:09.000Z</time>
      </trkpt>
      <trkpt lat="47.30289" lon="4.98075">
        <ele>364</ele>
        <time>2013-03-09T10:00:10.000Z</time>
      </trkpt>
      <trkpt lat="47.30293" lon="4.98075">
        <ele>364</ele>
        <time>2013-03-09T10:00:15.000Z</time>
      </trkpt>
      <trkpt lat="47.30293" lon="4.98076">
        <ele>364</ele>
        <time>2013-03-09T10:00:16.000Z</time>
      </trkpt>
      <trkpt lat="47.30295" lon="4.98078">
        <ele>364</ele>
        <time>2013-03-09T10:00:19.000Z</time>
      </trkpt>
      <trkpt lat="47.30285" lon="4.98092">
        <ele>363</ele>
        <time>2013-03-09T10:00:46.000Z</time>
      </trkpt>
      <trkpt lat="47.30309" lon="4.9814">
        <ele>362</ele>
        <time>2013-03-09T10:00:53.000Z</time>
      </trkpt>
      <trkpt lat="47.30315" lon="4.98124">
        <ele>362</ele>
        <time>2013-03-09T10:00:54.000Z</time>
      </trkpt>
      <trkpt lat="47.30319" lon="4.98129">
        <ele>362</ele>
        <time>2013-03-09T10:00:55.000Z</time>
      </trkpt>
      <trkpt lat="47.30318" lon="4.98131">
        <ele>362</ele>
        <time>2013-03-09T10:00:57.000Z</time>
      </trkpt>
      <trkpt lat="47.30321" lon="4.9814">
        <ele>361</ele>
        <time>2013-03-09T10:00:58.000Z</time>
      </trkpt>
      <trkpt lat="47.3032" lon="4.98146">
        <ele>361</ele>
        <time>2013-03-09T10:00:59.000Z</time>
      </trkpt>
      <trkpt lat="47.30324" lon="4.98147">
        <ele>361</ele>
        <time>2013-03-09T10:01:00.000Z</time>
      </trkpt>
      <trkpt lat="47.3033" lon="4.98148">
        <ele>361</ele>
        <time>2013-03-09T10:01:01.000Z</time>
      </trkpt>
      <trkpt lat="47.30334" lon="4.98149">
        <ele>359</ele>
        <time>2013-03-09T10:01:03.000Z</time>
      </trkpt>
      <trkpt lat="47.30337" lon="4.98151">
        <ele>359</ele>
        <time>2013-03-09T10:01:04.000Z</time>
      </trkpt>
      <trkpt lat="47.30343" lon="4.98154">
        <ele>359</ele>
        <time>2013-03-09T10:01:05.000Z</time>
      </trkpt>
      <trkpt lat="47.30355" lon="4.98161">
        <ele>359</ele>
        <time>2013-03-09T10:01:06.000Z</time>
      </trkpt>
      <trkpt lat="47.30364" lon="4.98165">
        <ele>359</ele>
        <time>2013-03-09T10:01:07.000Z</time>
      </trkpt>
      <trkpt lat="47.30367" lon="4.98161">
        <ele>359</ele>
        <time>2013-03-09T10:01:13.000Z</time>
      </trkpt>
      <trkpt lat="47.30369" lon="4.98161">
        <ele>359</ele>
        <time>2013-03-09T10:01:14.000Z</time>
      </trkpt>
      <trkpt lat="47.30372" lon="4.9816">
        <ele>359</ele>
        <time>2013-03-09T10:01:16.000Z</time>
      </trkpt>
      <trkpt lat="47.30374" lon="4.98161">
        <ele>359</ele>
        <time>2013-03-09T10:01:17.000Z</time>
      </trkpt>
      <trkpt lat="47.30377" lon="4.9816">
        <ele>359</ele>
        <time>2013-03-09T10:01:19.000Z</time>
      </trkpt>
      <trkpt lat="47.30379" lon="4.98159">
        <ele>359</ele>
        <time>2013-03-09T10:01:20.000Z</time>
      </trkpt>
      <trkpt lat="47.3038" lon="4.98154">
        <ele>359</ele>
        <time>2013-03-09T10:01:23.000Z</time>
      </trkpt>
      <trkpt lat="47.30381" lon="4.98153">
        <ele>359</ele>
        <time>2013-03-09T10:01:24.000Z</time>
      </trkpt>
      <trkpt lat="47.30383" lon="4.9815">
        <ele>359</ele>
        <time>2013-03-09T10:01:26.000Z</time>
      </trkpt>
      <trkpt lat="47.30385" lon="4.98148">
        <ele>359</ele>
        <time>2013-03-09T10:01:27.000Z</time>
      </trkpt>
      <trkpt lat="47.30388" lon="4.98145">
        <ele>359</ele>
        <time>2013-03-09T10:01:29.000Z</time>
      </trkpt>
      <trkpt lat="47.30389" lon="4.98145">
        <ele>359</ele>
        <time>2013-03-09T10:01:30.000Z</time>
      </trkpt>
      <trkpt lat="47.30393" lon="4.98142">
        <ele>359</ele>
        <time>2013-03-09T10:01:32.000Z</time>
      </trkpt>
      <trkpt lat="47.30394" lon="4.9814">
        <ele>359</ele>
        <time>2013-03-09T10:01:33.000Z</time>
      </trkpt>
      <trkpt lat="47.30398" lon="4.98136">
        <ele>359</ele>
        <time>2013-03-09T10:01:35.000Z</time>
      </trkpt>
      <trkpt lat="47.304" lon="4.98135">
        <ele>359</ele>
        <time>2013-03-09T10:01:36.000Z</time>
      </trkpt>
      <trkpt lat="47.30403" lon="4.98133">
        <ele>359</ele>
        <time>2013-03-09T10:01:38.000Z</time>
      </trkpt>
      <trkpt lat="47.30405" lon="4.98131">
        <ele>359</ele>
        <time>2013-03-09T10:01:39.000Z</time>
      </trkpt>
      <trkpt lat="47.30409" lon="4.98129">
        <ele>359</ele>
        <time>2013-03-09T10:01:42.000Z</time>
      </trkpt>
      <trkpt lat="47.3041" lon="4.98129">
        <ele>359</ele>
        <time>2013-03-09T10:01:43.000Z</time>
      </trkpt>
      <trkpt lat="47.30413" lon="4.98128">
        <ele>359</ele>
        <time>2013-03-09T10:01:45.000Z</time>
      </trkpt>
      <trkpt lat="47.30415" lon="4.98128">
        <ele>359</ele>
        <time>2013-03-09T10:01:46.000Z</time>
      </trkpt>
      <trkpt lat="47.30428" lon="4.98119">
        <ele>359</ele>
        <time>2013-03-09T10:01:53.000Z</time>
      </trkpt>
      <trkpt lat="47.30431" lon="4.98119">
        <ele>359</ele>
        <time>2013-03-09T10:01:55.000Z</time>
      </trkpt>
      <trkpt lat="47.30432" lon="4.98119">
        <ele>359</ele>
        <time>2013-03-09T10:01:56.000Z</time>
      </trkpt>
      <trkpt lat="47.30435" lon="4.9812">
        <ele>359</ele>
        <time>2013-03-09T10:01:58.000Z</time>
      </trkpt>
      <trkpt lat="47.30437" lon="4.98121">
        <ele>359</ele>
        <time>2013-03-09T10:01:59.000Z</time>
      </trkpt>
      <trkpt lat="47.3044" lon="4.98122">
        <ele>359</ele>
        <time>2013-03-09T10:02:01.000Z</time>
      </trkpt>
      <trkpt lat="47.30442" lon="4.98123">
        <ele>359</ele>
        <time>2013-03-09T10:02:02.000Z</time>
      </trkpt>
      <trkpt lat="47.30445" lon="4.98124">
        <ele>359</ele>
        <time>2013-03-09T10:02:04.000Z</time>
      </trkpt>
      <trkpt lat="47.30446" lon="4.98125">
        <ele>359</ele>
        <time>2013-03-09T10:02:05.000Z</time>
      </trkpt>
      <trkpt lat="47.30449" lon="4.98127">
        <ele>359</ele>
        <time>2013-03-09T10:02:07.000Z</time>
      </trkpt>
      <trkpt lat="47.30451" lon="4.98128">
        <ele>359</ele>
        <time>2013-03-09T10:02:08.000Z</time>
      </trkpt>
      <trkpt lat="47.30454" lon="4.98131">
        <ele>359</ele>
        <time>2013-03-09T10:02:11.000Z</time>
      </trkpt>
      <trkpt lat="47.30456" lon="4.98132">
        <ele>359</ele>
        <time>2013-03-09T10:02:12.000Z</time>
      </trkpt>
      <trkpt lat="47.30458" lon="4.98136">
        <ele>359</ele>
        <time>2013-03-09T10:02:14.000Z</time>
      </trkpt>
      <trkpt lat="47.30459" lon="4.98137">
        <ele>359</ele>
        <time>2013-03-09T10:02:15.000Z</time>
      </trkpt>
      <trkpt lat="47.30461" lon="4.9814">
        <ele>359</ele>
        <time>2013-03-09T10:02:17.000Z</time>
      </trkpt>
      <trkpt lat="47.30462" lon="4.98141">
        <ele>359</ele>
        <time>2013-03-09T10:02:18.000Z</time>
      </trkpt>
      <trkpt lat="47.30465" lon="4.98145">
        <ele>359</ele>
        <time>2013-03-09T10:02:21.000Z</time>
      </trkpt>
      <trkpt lat="47.30467" lon="4.98145">
        <ele>359</ele>
        <time>2013-03-09T10:02:22.000Z</time>
      </trkpt>
      <trkpt lat="47.30469" lon="4.98148">
        <ele>359</ele>
        <time>2013-03-09T10:02:24.000Z</time>
      </trkpt>
      <trkpt lat="47.3047" lon="4.98149">
        <ele>359</ele>
        <time>2013-03-09T10:02:25.000Z</time>
      </trkpt>
      <trkpt lat="47.30472" lon="4.98152">
        <ele>359</ele>
        <time>2013-03-09T10:02:27.000Z</time>
      </trkpt>
      <trkpt lat="47.30473" lon="4.98154">
        <ele>358</ele>
        <time>2013-03-09T10:02:28.000Z</time>
      </trkpt>
      <trkpt lat="47.30476" lon="4.98157">
        <ele>358</ele>
        <time>2013-03-09T10:02:30.000Z</time>
      </trkpt>
      <trkpt lat="47.30477" lon="4.98158">
        <ele>358</ele>
        <time>2013-03-09T10:02:31.000Z</time>
      </trkpt>
      <trkpt lat="47.30479" lon="4.98161">
        <ele>358</ele>
        <time>2013-03-09T10:02:33.000Z</time>
      </trkpt>
      <trkpt lat="47.3048" lon="4.98163">
        <ele>358</ele>
        <time>2013-03-09T10:02:34.000Z</time>
      </trkpt>
      <trkpt lat="47.30483" lon="4.98166">
        <ele>358</ele>
        <time>2013-03-09T10:02:36.000Z</time>
      </trkpt>
      <trkpt lat="47.30484" lon="4.98168">
        <ele>357</ele>
        <time>2013-03-09T10:02:37.000Z</time>
      </trkpt>
      <trkpt lat="47.30486" lon="4.98171">
        <ele>357</ele>
        <time>2013-03-09T10:02:39.000Z</time>
      </trkpt>
      <trkpt lat="47.30487" lon="4.98173">
        <ele>357</ele>
        <time>2013-03-09T10:02:40.000Z</time>
      </trkpt>
      <trkpt lat="47.30489" lon="4.98176">
        <ele>357</ele>
        <time>2013-03-09T10:02:42.000Z</time>
      </trkpt>
      <trkpt lat="47.3049" lon="4.98178">
        <ele>357</ele>
        <time>2013-03-09T10:02:43.000Z</time>
      </trkpt>
      <trkpt lat="47.30494" lon="4.98182">
        <ele>357</ele>
        <time>2013-03-09T10:02:46.000Z</time>
      </trkpt>
      <trkpt lat="47.30502" lon="4.98197">
        <ele>358</ele>
        <time>2013-03-09T10:02:55.000Z</time>
      </trkpt>
      <trkpt lat="47.30505" lon="4.982">
        <ele>357</ele>
        <time>2013-03-09T10:02:57.000Z</time>
      </trkpt>
      <trkpt lat="47.30507" lon="4.98202">
        <ele>357</ele>
        <time>2013-03-09T10:02:58.000Z</time>
      </trkpt>
      <trkpt lat="47.3051" lon="4.98205">
        <ele>357</ele>
        <time>2013-03-09T10:03:00.000Z</time>
      </trkpt>
      <trkpt lat="47.30511" lon="4.98207">
        <ele>357</ele>
        <time>2013-03-09T10:03:01.000Z</time>
      </trkpt>
      <trkpt lat="47.30514" lon="4.98212">
        <ele>357</ele>
        <time>2013-03-09T10:03:03.000Z</time>
      </trkpt>
      <trkpt lat="47.30515" lon="4.98214">
        <ele>357</ele>
        <time>2013-03-09T10:03:04.000Z</time>
      </trkpt>
      <trkpt lat="47.30518" lon="4.98217">
        <ele>357</ele>
        <time>2013-03-09T10:03:06.000Z</time>
      </trkpt>
      <trkpt lat="47.30519" lon="4.98219">
        <ele>357</ele>
        <time>2013-03-09T10:03:07.000Z</time>
      </trkpt>
      <trkpt lat="47.30521" lon="4.98222">
        <ele>357</ele>
        <time>2013-03-09T10:03:09.000Z</time>
      </trkpt>
      <trkpt lat="47.30522" lon="4.98224">
        <ele>357</ele>
        <time>2013-03-09T10:03:10.000Z</time>
      </trkpt>
      <trkpt lat="47.30524" lon="4.98227">
        <ele>357</ele>
        <time>2013-03-09T10:03:12.000Z</time>
      </trkpt>
      <trkpt lat="47.30526" lon="4.98228">
        <ele>357</ele>
        <time>2013-03-09T10:03:13.000Z</time>
      </trkpt>
      <trkpt lat="47.30528" lon="4.98232">
        <ele>357</ele>
        <time>2013-03-09T10:03:15.000Z</time>
      </trkpt>
      <trkpt lat="47.30529" lon="4.98234">
        <ele>357</ele>
        <time>2013-03-09T10:03:16.000Z</time>
      </trkpt>
      <trkpt lat="47.30532" lon="4.98237">
        <ele>357</ele>
        <time>2013-03-09T10:03:18.000Z</time>
      </trkpt>
      <trkpt lat="47.30533" lon="4.98239">
        <ele>357</ele>
        <time>2013-03-09T10:03:19.000Z</time>
      </trkpt>
      <trkpt lat="47.30535" lon="4.98242">
        <ele>357</ele>
        <time>2013-03-09T10:03:21.000Z</time>
      </trkpt>
      <trkpt lat="47.30536" lon="4.98244">
        <ele>357</ele>
        <time>2013-03-09T10:03:22.000Z</time>
      </trkpt>
      <trkpt lat="47.30538" lon="4.98247">
        <ele>357</ele>
        <time>2013-03-09T10:03:24.000Z</time>
      </trkpt>
      <trkpt lat="47.3054" lon="4.98249">
        <ele>357</ele>
        <time>2013-03-09T10:03:25.000Z</time>
      </trkpt>
      <trkpt lat="47.30542" lon="4.98252">
        <ele>355</ele>
        <time>2013-03-09T10:03:27.000Z</time>
      </trkpt>
      <trkpt lat="47.30543" lon="4.98254">
        <ele>355</ele>
        <time>2013-03-09T10:03:28.000Z</time>
      </trkpt>
      <trkpt lat="47.30546" lon="4.98257">
        <ele>355</ele>
        <time>2013-03-09T10:03:30.000Z</time>
      </trkpt>
      <trkpt lat="47.30547" lon="4.98259">
        <ele>355</ele>
        <time>2013-03-09T10:03:31.000Z</time>
      </trkpt>
      <trkpt lat="47.30549" lon="4.98262">
        <ele>355</ele>
        <time>2013-03-09T10:03:33.000Z</time>
      </trkpt>
      <trkpt lat="47.3055" lon="4.98263">
        <ele>355</ele>
        <time>2013-03-09T10:03:34.000Z</time>
      </trkpt>
      <trkpt lat="47.30553" lon="4.98266">
        <ele>355</ele>
        <time>2013-03-09T10:03:36.000Z</time>
      </trkpt>
      <trkpt lat="47.30554" lon="4.98267">
        <ele>355</ele>
        <time>2013-03-09T10:03:37.000Z</time>
      </trkpt>
      <trkpt lat="47.30556" lon="4.9827">
        <ele>355</ele>
        <time>2013-03-09T10:03:39.000Z</time>
      </trkpt>
      <trkpt lat="47.30558" lon="4.98272">
        <ele>355</ele>
        <time>2013-03-09T10:03:40.000Z</time>
      </trkpt>
      <trkpt lat="47.3056" lon="4.98273">
        <ele>355</ele>
        <time>2013-03-09T10:03:42.000Z</time>
      </trkpt>
      <trkpt lat="47.30562" lon="4.98274">
        <ele>355</ele>
        <time>2013-03-09T10:03:43.000Z</time>
      </trkpt>
      <trkpt lat="47.30566" lon="4.98275">
        <ele>355</ele>
        <time>2013-03-09T10:03:46.000Z</time>
      </trkpt>
      <trkpt lat="47.30577" lon="4.98273">
        <ele>355</ele>
        <time>2013-03-09T10:03:53.000Z</time>
      </trkpt>
      <trkpt lat="47.30581" lon="4.98272">
        <ele>355</ele>
        <time>2013-03-09T10:03:55.000Z</time>
      </trkpt>
      <trkpt lat="47.30582" lon="4.98272">
        <ele>355</ele>
        <time>2013-03-09T10:03:56.000Z</time>
      </trkpt>
      <trkpt lat="47.30586" lon="4.98272">
        <ele>356</ele>
        <time>2013-03-09T10:03:58.000Z</time>
      </trkpt>
      <trkpt lat="47.30587" lon="4.98271">
        <ele>356</ele>
        <time>2013-03-09T10:03:59.000Z</time>
      </trkpt>
      <trkpt lat="47.30591" lon="4.9827">
        <ele>356</ele>
        <time>2013-03-09T10:04:01.000Z</time>
      </trkpt>
      <trkpt lat="47.30592" lon="4.9827">
        <ele>356</ele>
        <time>2013-03-09T10:04:02.000Z</time>
      </trkpt>
      <trkpt lat="47.30597" lon="4.98269">
        <ele>356</ele>
        <time>2013-03-09T10:04:05.000Z</time>
      </trkpt>
      <trkpt lat="47.30598" lon="4.98268">
        <ele>356</ele>
        <time>2013-03-09T10:04:06.000Z</time>
      </trkpt>
      <trkpt lat="47.30602" lon="4.98267">
        <ele>356</ele>
        <time>2013-03-09T10:04:09.000Z</time>
      </trkpt>
      <trkpt lat="47.30603" lon="4.98267">
        <ele>356</ele>
        <time>2013-03-09T10:04:10.000Z</time>
      </trkpt>
      <trkpt lat="47.30607" lon="4.98265">
        <ele>356</ele>
        <time>2013-03-09T10:04:29.000Z</time>
      </trkpt>
      <trkpt lat="47.30608" lon="4.98264">
        <ele>356</ele>
        <time>2013-03-09T10:04:30.000Z</time>
      </trkpt>
      <trkpt lat="47.30611" lon="4.9826">
        <ele>356</ele>
        <time>2013-03-09T10:04:33.000Z</time>
      </trkpt>
      <trkpt lat="47.30611" lon="4.98259">
        <ele>356</ele>
        <time>2013-03-09T10:04:34.000Z</time>
      </trkpt>
      <trkpt lat="47.30613" lon="4.98254">
        <ele>356</ele>
        <time>2013-03-09T10:04:37.000Z</time>
      </trkpt>
      <trkpt lat="47.30613" lon="4.98252">
        <ele>356</ele>
        <time>2013-03-09T10:04:38.000Z</time>
      </trkpt>
      <trkpt lat="47.30614" lon="4.98246">
        <ele>358</ele>
        <time>2013-03-09T10:04:41.000Z</time>
      </trkpt>
      <trkpt lat="47.30615" lon="4.98245">
        <ele>358</ele>
        <time>2013-03-09T10:04:42.000Z</time>
      </trkpt>
      <trkpt lat="47.30618" lon="4.98241">
        <ele>358</ele>
        <time>2013-03-09T10:04:45.000Z</time>
      </trkpt>
      <trkpt lat="47.30618" lon="4.9824">
        <ele>358</ele>
        <time>2013-03-09T10:04:46.000Z</time>
      </trkpt>
      <trkpt lat="47.30626" lon="4.98227">
        <ele>358</ele>
        <time>2013-03-09T10:04:53.000Z</time>
      </trkpt>
      <trkpt lat="47.30629" lon="4.98223">
        <ele>358</ele>
        <time>2013-03-09T10:04:56.000Z</time>
      </trkpt>
      <trkpt lat="47.3063" lon="4.98221">
        <ele>358</ele>
        <time>2013-03-09T10:04:57.000Z</time>
      </trkpt>
      <trkpt lat="47.30633" lon="4.98218">
        <ele>358</ele>
        <time>2013-03-09T10:04:59.000Z</time>
      </trkpt>
      <trkpt lat="47.30634" lon="4.98216">
        <ele>358</ele>
        <time>2013-03-09T10:05:00.000Z</time>
      </trkpt>
      <trkpt lat="47.30636" lon="4.98213">
        <ele>358</ele>
        <time>2013-03-09T10:05:02.000Z</time>
      </trkpt>
      <trkpt lat="47.30637" lon="4.98211">
        <ele>358</ele>
        <time>2013-03-09T10:05:03.000Z</time>
      </trkpt>
      <trkpt lat="47.30639" lon="4.98208">
        <ele>358</ele>
        <time>2013-03-09T10:05:05.000Z</time>
      </trkpt>
      <trkpt lat="47.3064" lon="4.98206">
        <ele>358</ele>
        <time>2013-03-09T10:05:06.000Z</time>
      </trkpt>
      <trkpt lat="47.30642" lon="4.98202">
        <ele>358</ele>
        <time>2013-03-09T10:05:08.000Z</time>
      </trkpt>
      <trkpt lat="47.30643" lon="4.98201">
        <ele>358</ele>
        <time>2013-03-09T10:05:09.000Z</time>
      </trkpt>
      <trkpt lat="47.30645" lon="4.98197">
        <ele>358</ele>
        <time>2013-03-09T10:05:11.000Z</time>
      </trkpt>
      <trkpt lat="47.30646" lon="4.98195">
        <ele>358</ele>
        <time>2013-03-09T10:05:12.000Z</time>
      </trkpt>
      <trkpt lat="47.30648" lon="4.98192">
        <ele>358</ele>
        <time>2013-03-09T10:05:14.000Z</time>
      </trkpt>
      <trkpt lat="47.30649" lon="4.9819">
        <ele>358</ele>
        <time>2013-03-09T10:05:15.000Z</time>
      </trkpt>
      <trkpt lat="47.30651" lon="4.98187">
        <ele>359</ele>
        <time>2013-03-09T10:05:17.000Z</time>
      </trkpt>
      <trkpt lat="47.30652" lon="4.98185">
        <ele>359</ele>
        <time>2013-03-09T10:05:18.000Z</time>
      </trkpt>
      <trkpt lat="47.30654" lon="4.98182">
        <ele>359</ele>
        <time>2013-03-09T10:05:20.000Z</time>
      </trkpt>
      <trkpt lat="47.30655" lon="4.9818">
        <ele>359</ele>
        <time>2013-03-09T10:05:21.000Z</time>
      </trkpt>
      <trkpt lat="47.30658" lon="4.98175">
        <ele>359</ele>
        <time>2013-03-09T10:05:24.000Z</time>
      </trkpt>
      <trkpt lat="47.30659" lon="4.98173">
        <ele>359</ele>
        <time>2013-03-09T10:05:25.000Z</time>
      </trkpt>
      <trkpt lat="47.30661" lon="4.98169">
        <ele>359</ele>
        <time>2013-03-09T10:05:27.000Z</time>
      </trkpt>
      <trkpt lat="47.30662" lon="4.98168">
        <ele>359</ele>
        <time>2013-03-09T10:05:28.000Z</time>
      </trkpt>
      <trkpt lat="47.30664" lon="4.98164">
        <ele>359</ele>
        <time>2013-03-09T10:05:30.000Z</time>
      </trkpt>
      <trkpt lat="47.30665" lon="4.98162">
        <ele>359</ele>
        <time>2013-03-09T10:05:31.000Z</time>
      </trkpt>
      <trkpt lat="47.30667" lon="4.98159">
        <ele>359</ele>
        <time>2013-03-09T10:05:33.000Z</time>
      </trkpt>
      <trkpt lat="47.30668" lon="4.98157">
        <ele>360</ele>
        <time>2013-03-09T10:05:34.000Z</time>
      </trkpt>
      <trkpt lat="47.3067" lon="4.98153">
        <ele>360</ele>
        <time>2013-03-09T10:05:36.000Z</time>
      </trkpt>
      <trkpt lat="47.30671" lon="4.98151">
        <ele>360</ele>
        <time>2013-03-09T10:05:37.000Z</time>
      </trkpt>
      <trkpt lat="47.30673" lon="4.98148">
        <ele>360</ele>
        <time>2013-03-09T10:05:39.000Z</time>
      </trkpt>
      <trkpt lat="47.30673" lon="4.98146">
        <ele>360</ele>
        <time>2013-03-09T10:05:40.000Z</time>
      </trkpt>
      <trkpt lat="47.30675" lon="4.98142">
        <ele>360</ele>
        <time>2013-03-09T10:05:42.000Z</time>
      </trkpt>
      <trkpt lat="47.30676" lon="4.98141">
        <ele>360</ele>
        <time>2013-03-09T10:05:43.000Z</time>
      </trkpt>
      <trkpt lat="47.30679" lon="4.98135">
        <ele>360</ele>
        <time>2013-03-09T10:05:46.000Z</time>
      </trkpt>
      <trkpt lat="47.30686" lon="4.98124">
        <ele>361</ele>
        <time>2013-03-09T10:05:53.000Z</time>
      </trkpt>
      <trkpt lat="47.30688" lon="4.9812">
        <ele>361</ele>
        <time>2013-03-09T10:05:55.000Z</time>
      </trkpt>
      <trkpt lat="47.30689" lon="4.98119">
        <ele>361</ele>
        <time>2013-03-09T10:05:56.000Z</time>
      </trkpt>
      <trkpt lat="47.30691" lon="4.98115">
        <ele>361</ele>
        <time>2013-03-09T10:05:58.000Z</time>
      </trkpt>
      <trkpt lat="47.30692" lon="4.98114">
        <ele>361</ele>
        <time>2013-03-09T10:05:59.000Z</time>
      </trkpt>
      <trkpt lat="47.30695" lon="4.9811">
        <ele>361</ele>
        <time>2013-03-09T10:06:01.000Z</time>
      </trkpt>
      <trkpt lat="47.30696" lon="4.98108">
        <ele>361</ele>
        <time>2013-03-09T10:06:02.000Z</time>
      </trkpt>
      <trkpt lat="47.30698" lon="4.98104">
        <ele>361</ele>
        <time>2013-03-09T10:06:04.000Z</time>
      </trkpt>
      <trkpt lat="47.30699" lon="4.98103">
        <ele>361</ele>
        <time>2013-03-09T10:06:05.000Z</time>
      </trkpt>
      <trkpt lat="47.30701" lon="4.98099">
        <ele>361</ele>
        <time>2013-03-09T10:06:07.000Z</time>
      </trkpt>
      <trkpt lat="47.30702" lon="4.98097">
        <ele>361</ele>
        <time>2013-03-09T10:06:08.000Z</time>
      </trkpt>
      <trkpt lat="47.30704" lon="4.98094">
        <ele>361</ele>
        <time>2013-03-09T10:06:10.000Z</time>
      </trkpt>
      <trkpt lat="47.30705" lon="4.98092">
        <ele>361</ele>
        <time>2013-03-09T10:06:11.000Z</time>
      </trkpt>
      <trkpt lat="47.30707" lon="4.98089">
        <ele>361</ele>
        <time>2013-03-09T10:06:13.000Z</time>
      </trkpt>
      <trkpt lat="47.30709" lon="4.98087">
        <ele>361</ele>
        <time>2013-03-09T10:06:14.000Z</time>
      </trkpt>
      <trkpt lat="47.30711" lon="4.98084">
        <ele>361</ele>
        <time>2013-03-09T10:06:16.000Z</time>
      </trkpt>
      <trkpt lat="47.30712" lon="4.98083">
        <ele>362</ele>
        <time>2013-03-09T10:06:17.000Z</time>
      </trkpt>
      <trkpt lat="47.30715" lon="4.98079">
        <ele>362</ele>
        <time>2013-03-09T10:06:19.000Z</time>
      </trkpt>
      <trkpt lat="47.30716" lon="4.98077">
        <ele>362</ele>
        <time>2013-03-09T10:06:20.000Z</time>
      </trkpt>
      <trkpt lat="47.30719" lon="4.98073">
        <ele>362</ele>
        <time>2013-03-09T10:06:22.000Z</time>
      </trkpt>
      <trkpt lat="47.3072" lon="4.98071">
        <ele>362</ele>
        <time>2013-03-09T10:06:23.000Z</time>
      </trkpt>
      <trkpt lat="47.30722" lon="4.98067">
        <ele>363</ele>
        <time>2013-03-09T10:06:25.000Z</time>
      </trkpt>
      <trkpt lat="47.30723" lon="4.98065">
        <ele>363</ele>
        <time>2013-03-09T10:06:26.000Z</time>
      </trkpt>
      <trkpt lat="47.30726" lon="4.9806">
        <ele>363</ele>
        <time>2013-03-09T10:06:28.000Z</time>
      </trkpt>
      <trkpt lat="47.30727" lon="4.98058">
        <ele>363</ele>
        <time>2013-03-09T10:06:29.000Z</time>
      </trkpt>
      <trkpt lat="47.30729" lon="4.98053">
        <ele>363</ele>
        <time>2013-03-09T10:06:31.000Z</time>
      </trkpt>
      <trkpt lat="47.30731" lon="4.98051">
        <ele>363</ele>
        <time>2013-03-09T10:06:32.000Z</time>
      </trkpt>
      <trkpt lat="47.30733" lon="4.98047">
        <ele>363</ele>
        <time>2013-03-09T10:06:34.000Z</time>
      </trkpt>
      <trkpt lat="47.30734" lon="4.98045">
        <ele>363</ele>
        <time>2013-03-09T10:06:35.000Z</time>
      </trkpt>
      <trkpt lat="47.30737" lon="4.9804">
        <ele>363</ele>
        <time>2013-03-09T10:06:37.000Z</time>
      </trkpt>
      <trkpt lat="47.30738" lon="4.98038">
        <ele>363</ele>
        <time>2013-03-09T10:06:38.000Z</time>
      </trkpt>
      <trkpt lat="47.30741" lon="4.98034">
        <ele>363</ele>
        <time>2013-03-09T10:06:40.000Z</time>
      </trkpt>
      <trkpt lat="47.30742" lon="4.98031">
        <ele>363</ele>
        <time>2013-03-09T10:06:41.000Z</time>
      </trkpt>
      <trkpt lat="47.30745" lon="4.98027">
        <ele>363</ele>
        <time>2013-03-09T10:06:43.000Z</time>
      </trkpt>
      <trkpt lat="47.30746" lon="4.98025">
        <ele>363</ele>
        <time>2013-03-09T10:06:44.000Z</time>
      </trkpt>
      <trkpt lat="47.30749" lon="4.98021">
        <ele>363</ele>
        <time>2013-03-09T10:06:46.000Z</time>
      </trkpt>
      <trkpt lat="47.30757" lon="4.98005">
        <ele>363</ele>
        <time>2013-03-09T10:06:53.000Z</time>
      </trkpt>
      <trkpt lat="47.3076" lon="4.98">
        <ele>363</ele>
        <time>2013-03-09T10:06:55.000Z</time>
      </trkpt>
      <trkpt lat="47.30761" lon="4.97998">
        <ele>363</ele>
        <time>2013-03-09T10:06:56.000Z</time>
      </trkpt>
      <trkpt lat="47.30764" lon="4.97993">
        <ele>363</ele>
        <time>2013-03-09T10:06:58.000Z</time>
      </trkpt>
      <trkpt lat="47.30765" lon="4.97991">
        <ele>363</ele>
        <time>2013-03-09T10:06:59.000Z</time>
      </trkpt>
      <trkpt lat="47.30767" lon="4.97987">
        <ele>363</ele>
        <time>2013-03-09T10:07:01.000Z</time>
      </trkpt>
      <trkpt lat="47.30769" lon="4.97985">
        <ele>363</ele>
        <time>2013-03-09T10:07:02.000Z</time>
      </trkpt>
      <trkpt lat="47.30771" lon="4.97981">
        <ele>364</ele>
        <time>2013-03-09T10:07:04.000Z</time>
      </trkpt>
      <trkpt lat="47.30773" lon="4.97979">
        <ele>364</ele>
        <time>2013-03-09T10:07:05.000Z</time>
      </trkpt>
      <trkpt lat="47.30775" lon="4.97974">
        <ele>364</ele>
        <time>2013-03-09T10:07:07.000Z</time>
      </trkpt>
      <trkpt lat="47.30777" lon="4.97972">
        <ele>364</ele>
        <time>2013-03-09T10:07:08.000Z</time>
      </trkpt>
      <trkpt lat="47.3078" lon="4.97968">
        <ele>364</ele>
        <time>2013-03-09T10:07:10.000Z</time>
      </trkpt>
      <trkpt lat="47.30781" lon="4.97965">
        <ele>364</ele>
        <time>2013-03-09T10:07:11.000Z</time>
      </trkpt>
      <trkpt lat="47.30784" lon="4.97961">
        <ele>364</ele>
        <time>2013-03-09T10:07:13.000Z</time>
      </trkpt>
      <trkpt lat="47.30785" lon="4.97959">
        <ele>364</ele>
        <time>2013-03-09T10:07:14.000Z</time>
      </trkpt>
      <trkpt lat="47.30788" lon="4.97954">
        <ele>364</ele>
        <time>2013-03-09T10:07:16.000Z</time>
      </trkpt>
      <trkpt lat="47.30789" lon="4.97951">
        <ele>364</ele>
        <time>2013-03-09T10:07:17.000Z</time>
      </trkpt>
      <trkpt lat="47.30792" lon="4.97946">
        <ele>364</ele>
        <time>2013-03-09T10:07:19.000Z</time>
      </trkpt>
      <trkpt lat="47.30793" lon="4.97944">
        <ele>364</ele>
        <time>2013-03-09T10:07:20.000Z</time>
      </trkpt>
      <trkpt lat="47.30796" lon="4.97939">
        <ele>364</ele>
        <time>2013-03-09T10:07:22.000Z</time>
      </trkpt>
      <trkpt lat="47.30798" lon="4.97937">
        <ele>364</ele>
        <time>2013-03-09T10:07:23.000Z</time>
      </trkpt>
      <trkpt lat="47.308" lon="4.97932">
        <ele>364</ele>
        <time>2013-03-09T10:07:25.000Z</time>
      </trkpt>
      <trkpt lat="47.30802" lon="4.97929">
        <ele>364</ele>
        <time>2013-03-09T10:07:26.000Z</time>
      </trkpt>
      <trkpt lat="47.30805" lon="4.97925">
        <ele>364</ele>
        <time>2013-03-09T10:07:28.000Z</time>
      </trkpt>
      <trkpt lat="47.30806" lon="4.97923">
        <ele>364</ele>
        <time>2013-03-09T10:07:29.000Z</time>
      </trkpt>
      <trkpt lat="47.30808" lon="4.97918">
        <ele>364</ele>
        <time>2013-03-09T10:07:31.000Z</time>
      </trkpt>
      <trkpt lat="47.30809" lon="4.97915">
        <ele>364</ele>
        <time>2013-03-09T10:07:32.000Z</time>
      </trkpt>
      <trkpt lat="47.30808" lon="4.97909">
        <ele>364</ele>
        <time>2013-03-09T10:07:34.000Z</time>
      </trkpt>
      <trkpt lat="47.30807" lon="4.97906">
        <ele>364</ele>
        <time>2013-03-09T10:07:35.000Z</time>
      </trkpt>
      <trkpt lat="47.30805" lon="4.97901">
        <ele>364</ele>
        <time>2013-03-09T10:07:37.000Z</time>
      </trkpt>
      <trkpt lat="47.30803" lon="4.97899">
        <ele>364</ele>
        <time>2013-03-09T10:07:38.000Z</time>
      </trkpt>
      <trkpt lat="47.308" lon="4.97895">
        <ele>364</ele>
        <time>2013-03-09T10:07:40.000Z</time>
      </trkpt>
      <trkpt lat="47.30798" lon="4.97893">
        <ele>364</ele>
        <time>2013-03-09T10:07:41.000Z</time>
      </trkpt>
      <trkpt lat="47.30794" lon="4.9789">
        <ele>364</ele>
        <time>2013-03-09T10:07:43.000Z</time>
      </trkpt>
      <trkpt lat="47.30792" lon="4.97888">
        <ele>364</ele>
        <time>2013-03-09T10:07:44.000Z</time>
      </trkpt>
      <trkpt lat="47.30789" lon="4.97885">
        <ele>364</ele>
        <time>2013-03-09T10:07:46.000Z</time>
      </trkpt>
      <trkpt lat="47.30787" lon="4.97883">
        <ele>364</ele>
        <time>2013-03-09T10:07:47.000Z</time>
      </trkpt>
      <trkpt lat="47.30783" lon="4.97879">
        <ele>365</ele>
        <time>2013-03-09T10:07:49.000Z</time>
      </trkpt>
      <trkpt lat="47.30782" lon="4.97878">
        <ele>365</ele>
        <time>2013-03-09T10:07:50.000Z</time>
      </trkpt>
      <trkpt lat="47.30778" lon="4.97874">
        <ele>365</ele>
        <time>2013-03-09T10:07:52.000Z</time>
      </trkpt>
      <trkpt lat="47.30777" lon="4.97872">
        <ele>365</ele>
        <time>2013-03-09T10:07:53.000Z</time>
      </trkpt>
      <trkpt lat="47.30773" lon="4.97869">
        <ele>365</ele>
        <time>2013-03-09T10:07:55.000Z</time>
      </trkpt>
      <trkpt lat="47.30772" lon="4.97866">
        <ele>365</ele>
        <time>2013-03-09T10:07:56.000Z</time>
      </trkpt>
      <trkpt lat="47.30769" lon="4.97862">
        <ele>365</ele>
        <time>2013-03-09T10:07:58.000Z</time>
      </trkpt>
      <trkpt lat="47.30767" lon="4.9786">
        <ele>365</ele>
        <time>2013-03-09T10:07:59.000Z</time>
      </trkpt>
      <trkpt lat="47.30764" lon="4.97857">
        <ele>365</ele>
        <time>2013-03-09T10:08:01.000Z</time>
      </trkpt>
      <trkpt lat="47.30762" lon="4.97855">
        <ele>365</ele>
        <time>2013-03-09T10:08:02.000Z</time>
      </trkpt>
      <trkpt lat="47.30759" lon="4.97852">
        <ele>365</ele>
        <time>2013-03-09T10:08:04.000Z</time>
      </trkpt>
      <trkpt lat="47.30757" lon="4.9785">
        <ele>365</ele>
        <time>2013-03-09T10:08:05.000Z</time>
      </trkpt>
      <trkpt lat="47.30754" lon="4.97846">
        <ele>365</ele>
        <time>2013-03-09T10:08:07.000Z</time>
      </trkpt>
      <trkpt lat="47.30753" lon="4.97844">
        <ele>365</ele>
        <time>2013-03-09T10:08:08.000Z</time>
      </trkpt>
      <trkpt lat="47.30749" lon="4.9784">
        <ele>366</ele>
        <time>2013-03-09T10:08:10.000Z</time>
      </trkpt>
      <trkpt lat="47.30748" lon="4.97838">
        <ele>366</ele>
        <time>2013-03-09T10:08:11.000Z</time>
      </trkpt>
      <trkpt lat="47.30745" lon="4.97834">
        <ele>366</ele>
        <time>2013-03-09T10:08:13.000Z</time>
      </trkpt>
      <trkpt lat="47.30744" lon="4.97831">
        <ele>366</ele>
        <time>2013-03-09T10:08:14.000Z</time>
      </trkpt>
      <trkpt lat="47.30742" lon="4.97826">
        <ele>366</ele>
        <time>2013-03-09T10:08:16.000Z</time>
      </trkpt>
      <trkpt lat="47.30741" lon="4.97824">
        <ele>366</ele>
        <time>2013-03-09T10:08:17.000Z</time>
      </trkpt>
      <trkpt lat="47.30739" lon="4.97819">
        <ele>366</ele>
        <time>2013-03-09T10:08:19.000Z</time>
      </trkpt>
      <trkpt lat="47.30738" lon="4.97816">
        <ele>366</ele>
        <time>2013-03-09T10:08:20.000Z</time>
      </trkpt>
      <trkpt lat="47.30737" lon="4.9781">
        <ele>365</ele>
        <time>2013-03-09T10:08:22.000Z</time>
      </trkpt>
      <trkpt lat="47.30737" lon="4.97807">
        <ele>365</ele>
        <time>2013-03-09T10:08:23.000Z</time>
      </trkpt>
      <trkpt lat="47.30736" lon="4.97801">
        <ele>365</ele>
        <time>2013-03-09T10:08:25.000Z</time>
      </trkpt>
      <trkpt lat="47.30736" lon="4.97798">
        <ele>365</ele>
        <time>2013-03-09T10:08:26.000Z</time>
      </trkpt>
      <trkpt lat="47.30736" lon="4.97792">
        <ele>365</ele>
        <time>2013-03-09T10:08:28.000Z</time>
      </trkpt>
      <trkpt lat="47.30736" lon="4.97789">
        <ele>365</ele>
        <time>2013-03-09T10:08:29.000Z</time>
      </trkpt>
      <trkpt lat="47.30737" lon="4.97783">
        <ele>365</ele>
        <time>2013-03-09T10:08:31.000Z</time>
      </trkpt>
      <trkpt lat="47.30737" lon="4.9778">
        <ele>365</ele>
        <time>2013-03-09T10:08:32.000Z</time>
      </trkpt>
      <trkpt lat="47.30738" lon="4.97774">
        <ele>365</ele>
        <time>2013-03-09T10:08:34.000Z</time>
      </trkpt>
      <trkpt lat="47.30738" lon="4.97771">
        <ele>365</ele>
        <time>2013-03-09T10:08:35.000Z</time>
      </trkpt>
      <trkpt lat="47.30739" lon="4.97765">
        <ele>365</ele>
        <time>2013-03-09T10:08:37.000Z</time>
      </trkpt>
      <trkpt lat="47.3074" lon="4.97762">
        <ele>365</ele>
        <time>2013-03-09T10:08:38.000Z</time>
      </trkpt>
      <trkpt lat="47.30741" lon="4.97756">
        <ele>365</ele>
        <time>2013-03-09T10:08:40.000Z</time>
      </trkpt>
      <trkpt lat="47.30742" lon="4.97753">
        <ele>365</ele>
        <time>2013-03-09T10:08:41.000Z</time>
      </trkpt>
      <trkpt lat="47.30744" lon="4.97747">
        <ele>365</ele>
        <time>2013-03-09T10:08:43.000Z</time>
      </trkpt>
      <trkpt lat="47.30745" lon="4.97744">
        <ele>365</ele>
        <time>2013-03-09T10:08:44.000Z</time>
      </trkpt>
      <trkpt lat="47.30746" lon="4.97738">
        <ele>365</ele>
        <time>2013-03-09T10:08:46.000Z</time>
      </trkpt>
      <trkpt lat="47.30751" lon="4.97716">
        <ele>365</ele>
        <time>2013-03-09T10:08:53.000Z</time>
      </trkpt>
      <trkpt lat="47.30752" lon="4.97713">
        <ele>365</ele>
        <time>2013-03-09T10:08:54.000Z</time>
      </trkpt>
      <trkpt lat="47.30753" lon="4.9771">
        <ele>365</ele>
        <time>2013-03-09T10:08:55.000Z</time>
      </trkpt>
      <trkpt lat="47.30754" lon="4.97707">
        <ele>365</ele>
        <time>2013-03-09T10:08:56.000Z</time>
      </trkpt>
      <trkpt lat="47.30755" lon="4.97704">
        <ele>365</ele>
        <time>2013-03-09T10:08:57.000Z</time>
      </trkpt>
      <trkpt lat="47.30757" lon="4.97698">
        <ele>365</ele>
        <time>2013-03-09T10:08:59.000Z</time>
      </trkpt>
      <trkpt lat="47.30758" lon="4.97695">
        <ele>365</ele>
        <time>2013-03-09T10:09:00.000Z</time>
      </trkpt>
      <trkpt lat="47.3076" lon="4.97689">
        <ele>365</ele>
        <time>2013-03-09T10:09:02.000Z</time>
      </trkpt>
      <trkpt lat="47.30761" lon="4.97687">
        <ele>365</ele>
        <time>2013-03-09T10:09:03.000Z</time>
      </trkpt>
      <trkpt lat="47.30763" lon="4.97681">
        <ele>365</ele>
        <time>2013-03-09T10:09:05.000Z</time>
      </trkpt>
      <trkpt lat="47.30764" lon="4.97678">
        <ele>365</ele>
        <time>2013-03-09T10:09:06.000Z</time>
      </trkpt>
      <trkpt lat="47.30765" lon="4.97672">
        <ele>365</ele>
        <time>2013-03-09T10:09:08.000Z</time>
      </trkpt>
      <trkpt lat="47.30766" lon="4.9767">
        <ele>365</ele>
        <time>2013-03-09T10:09:09.000Z</time>
      </trkpt>
      <trkpt lat="47.30768" lon="4.97664">
        <ele>365</ele>
        <time>2013-03-09T10:09:11.000Z</time>
      </trkpt>
      <trkpt lat="47.30769" lon="4.97661">
        <ele>365</ele>
        <time>2013-03-09T10:09:12.000Z</time>
      </trkpt>
      <trkpt lat="47.30771" lon="4.97656">
        <ele>364</ele>
        <time>2013-03-09T10:09:14.000Z</time>
      </trkpt>
      <trkpt lat="47.30771" lon="4.97653">
        <ele>364</ele>
        <time>2013-03-09T10:09:15.000Z</time>
      </trkpt>
      <trkpt lat="47.30773" lon="4.97647">
        <ele>364</ele>
        <time>2013-03-09T10:09:17.000Z</time>
      </trkpt>
      <trkpt lat="47.30774" lon="4.97644">
        <ele>364</ele>
        <time>2013-03-09T10:09:18.000Z</time>
      </trkpt>
      <trkpt lat="47.30775" lon="4.97638">
        <ele>364</ele>
        <time>2013-03-09T10:09:20.000Z</time>
      </trkpt>
      <trkpt lat="47.30776" lon="4.97636">
        <ele>364</ele>
        <time>2013-03-09T10:09:21.000Z</time>
      </trkpt>
      <trkpt lat="47.30778" lon="4.9763">
        <ele>364</ele>
        <time>2013-03-09T10:09:23.000Z</time>
      </trkpt>
      <trkpt lat="47.30779" lon="4.97627">
        <ele>364</ele>
        <time>2013-03-09T10:09:24.000Z</time>
      </trkpt>
      <trkpt lat="47.3078" lon="4.97621">
        <ele>364</ele>
        <time>2013-03-09T10:09:26.000Z</time>
      </trkpt>
      <trkpt lat="47.30781" lon="4.97618">
        <ele>364</ele>
        <time>2013-03-09T10:09:27.000Z</time>
      </trkpt>
      <trkpt lat="47.30783" lon="4.97612">
        <ele>364</ele>
        <time>2013-03-09T10:09:29.000Z</time>
      </trkpt>
      <trkpt lat="47.30783" lon="4.97609">
        <ele>364</ele>
        <time>2013-03-09T10:09:30.000Z</time>
      </trkpt>
      <trkpt lat="47.30785" lon="4.97603">
        <ele>364</ele>
        <time>2013-03-09T10:09:32.000Z</time>
      </trkpt>
      <trkpt lat="47.30786" lon="4.976">
        <ele>364</ele>
        <time>2013-03-09T10:09:33.000Z</time>
      </trkpt>
      <trkpt lat="47.30787" lon="4.97594">
        <ele>364</ele>
        <time>2013-03-09T10:09:35.000Z</time>
      </trkpt>
      <trkpt lat="47.30788" lon="4.97591">
        <ele>364</ele>
        <time>2013-03-09T10:09:36.000Z</time>
      </trkpt>
      <trkpt lat="47.3079" lon="4.97586">
        <ele>364</ele>
        <time>2013-03-09T10:09:38.000Z</time>
      </trkpt>
      <trkpt lat="47.30791" lon="4.97583">
        <ele>364</ele>
        <time>2013-03-09T10:09:39.000Z</time>
      </trkpt>
      <trkpt lat="47.30792" lon="4.97577">
        <ele>364</ele>
        <time>2013-03-09T10:09:41.000Z</time>
      </trkpt>
      <trkpt lat="47.30793" lon="4.97574">
        <ele>364</ele>
        <time>2013-03-09T10:09:42.000Z</time>
      </trkpt>
      <trkpt lat="47.30795" lon="4.97568">
        <ele>364</ele>
        <time>2013-03-09T10:09:44.000Z</time>
      </trkpt>
      <trkpt lat="47.30795" lon="4.97565">
        <ele>364</ele>
        <time>2013-03-09T10:09:45.000Z</time>
      </trkpt>
      <trkpt lat="47.30796" lon="4.97562">
        <ele>364</ele>
        <time>2013-03-09T10:09:46.000Z</time>
      </trkpt>
      <trkpt lat="47.30802" lon="4.97542">
        <ele>364</ele>
        <time>2013-03-09T10:09:53.000Z</time>
      </trkpt>
      <trkpt lat="47.30803" lon="4.97539">
        <ele>364</ele>
        <time>2013-03-09T10:09:54.000Z</time>
      </trkpt>
      <trkpt lat="47.30804" lon="4.97535">
        <ele>364</ele>
        <time>2013-03-09T10:09:55.000Z</time>
      </trkpt>
      <trkpt lat="47.30805" lon="4.97529">
        <ele>363</ele>
        <time>2013-03-09T10:09:57.000Z</time>
      </trkpt>
      <trkpt lat="47.30805" lon="4.97526">
        <ele>363</ele>
        <time>2013-03-09T10:09:58.000Z</time>
      </trkpt>
      <trkpt lat="47.30807" lon="4.97521">
        <ele>363</ele>
        <time>2013-03-09T10:10:00.000Z</time>
      </trkpt>
      <trkpt lat="47.30808" lon="4.97518">
        <ele>363</ele>
        <time>2013-03-09T10:10:01.000Z</time>
      </trkpt>
      <trkpt lat="47.30809" lon="4.97512">
        <ele>363</ele>
        <time>2013-03-09T10:10:03.000Z</time>
      </trkpt>
      <trkpt lat="47.3081" lon="4.97509">
        <ele>363</ele>
        <time>2013-03-09T10:10:04.000Z</time>
      </trkpt>
      <trkpt lat="47.30811" lon="4.97503">
        <ele>363</ele>
        <time>2013-03-09T10:10:06.000Z</time>
      </trkpt>
      <trkpt lat="47.30812" lon="4.97499">
        <ele>363</ele>
        <time>2013-03-09T10:10:07.000Z</time>
      </trkpt>
      <trkpt lat="47.30814" lon="4.97493">
        <ele>363</ele>
        <time>2013-03-09T10:10:09.000Z</time>
      </trkpt>
      <trkpt lat="47.30815" lon="4.97491">
        <ele>363</ele>
        <time>2013-03-09T10:10:10.000Z</time>
      </trkpt>
      <trkpt lat="47.30816" lon="4.97485">
        <ele>363</ele>
        <time>2013-03-09T10:10:12.000Z</time>
      </trkpt>
      <trkpt lat="47.30817" lon="4.97482">
        <ele>363</ele>
        <time>2013-03-09T10:10:13.000Z</time>
      </trkpt>
      <trkpt lat="47.30819" lon="4.97476">
        <ele>363</ele>
        <time>2013-03-09T10:10:15.000Z</time>
      </trkpt>
      <trkpt lat="47.3082" lon="4.97473">
        <ele>363</ele>
        <time>2013-03-09T10:10:16.000Z</time>
      </trkpt>
      <trkpt lat="47.30822" lon="4.97467">
        <ele>363</ele>
        <time>2013-03-09T10:10:18.000Z</time>
      </trkpt>
      <trkpt lat="47.30822" lon="4.97464">
        <ele>363</ele>
        <time>2013-03-09T10:10:19.000Z</time>
      </trkpt>
      <trkpt lat="47.30824" lon="4.97458">
        <ele>363</ele>
        <time>2013-03-09T10:10:21.000Z</time>
      </trkpt>
      <trkpt lat="47.30824" lon="4.97455">
        <ele>363</ele>
        <time>2013-03-09T10:10:22.000Z</time>
      </trkpt>
      <trkpt lat="47.30826" lon="4.97449">
        <ele>363</ele>
        <time>2013-03-09T10:10:24.000Z</time>
      </trkpt>
      <trkpt lat="47.30827" lon="4.97446">
        <ele>363</ele>
        <time>2013-03-09T10:10:25.000Z</time>
      </trkpt>
      <trkpt lat="47.30828" lon="4.97441">
        <ele>362</ele>
        <time>2013-03-09T10:10:27.000Z</time>
      </trkpt>
      <trkpt lat="47.30829" lon="4.97437">
        <ele>362</ele>
        <time>2013-03-09T10:10:28.000Z</time>
      </trkpt>
      <trkpt lat="47.3083" lon="4.97432">
        <ele>362</ele>
        <time>2013-03-09T10:10:30.000Z</time>
      </trkpt>
      <trkpt lat="47.30831" lon="4.9743">
        <ele>362</ele>
        <time>2013-03-09T10:10:31.000Z</time>
      </trkpt>
      <trkpt lat="47.30833" lon="4.97426">
        <ele>362</ele>
        <time>2013-03-09T10:10:33.000Z</time>
      </trkpt>
      <trkpt lat="47.30833" lon="4.97423">
        <ele>362</ele>
        <time>2013-03-09T10:10:34.000Z</time>
      </trkpt>
      <trkpt lat="47.30834" lon="4.97419">
        <ele>362</ele>
        <time>2013-03-09T10:10:36.000Z</time>
      </trkpt>
      <trkpt lat="47.30835" lon="4.97416">
        <ele>362</ele>
        <time>2013-03-09T10:10:37.000Z</time>
      </trkpt>
      <trkpt lat="47.30836" lon="4.97412">
        <ele>362</ele>
        <time>2013-03-09T10:10:39.000Z</time>
      </trkpt>
      <trkpt lat="47.30837" lon="4.9741">
        <ele>362</ele>
        <time>2013-03-09T10:10:40.000Z</time>
      </trkpt>
      <trkpt lat="47.30838" lon="4.97406">
        <ele>362</ele>
        <time>2013-03-09T10:10:42.000Z</time>
      </trkpt>
      <trkpt lat="47.30839" lon="4.97404">
        <ele>362</ele>
        <time>2013-03-09T10:10:43.000Z</time>
      </trkpt>
      <trkpt lat="47.30841" lon="4.974">
        <ele>362</ele>
        <time>2013-03-09T10:10:45.000Z</time>
      </trkpt>
      <trkpt lat="47.30841" lon="4.97398">
        <ele>362</ele>
        <time>2013-03-09T10:10:46.000Z</time>
      </trkpt>
      <trkpt lat="47.30849" lon="4.97371">
        <ele>362</ele>
        <time>2013-03-09T10:10:53.000Z</time>
      </trkpt>
      <trkpt lat="47.30849" lon="4.97366">
        <ele>362</ele>
        <time>2013-03-09T10:10:55.000Z</time>
      </trkpt>
      <trkpt lat="47.3085" lon="4.97363">
        <ele>362</ele>
        <time>2013-03-09T10:10:56.000Z</time>
      </trkpt>
      <trkpt lat="47.30852" lon="4.97358">
        <ele>362</ele>
        <time>2013-03-09T10:10:58.000Z</time>
      </trkpt>
      <trkpt lat="47.30854" lon="4.97356">
        <ele>362</ele>
        <time>2013-03-09T10:10:59.000Z</time>
      </trkpt>
      <trkpt lat="47.30854" lon="4.97351">
        <ele>362</ele>
        <time>2013-03-09T10:11:01.000Z</time>
      </trkpt>
      <trkpt lat="47.30855" lon="4.97348">
        <ele>362</ele>
        <time>2013-03-09T10:11:02.000Z</time>
      </trkpt>
      <trkpt lat="47.30856" lon="4.97342">
        <ele>362</ele>
        <time>2013-03-09T10:11:04.000Z</time>
      </trkpt>
      <trkpt lat="47.30856" lon="4.97339">
        <ele>362</ele>
        <time>2013-03-09T10:11:05.000Z</time>
      </trkpt>
      <trkpt lat="47.30857" lon="4.97334">
        <ele>362</ele>
        <time>2013-03-09T10:11:07.000Z</time>
      </trkpt>
      <trkpt lat="47.30858" lon="4.97331">
        <ele>361</ele>
        <time>2013-03-09T10:11:08.000Z</time>
      </trkpt>
      <trkpt lat="47.30861" lon="4.97326">
        <ele>360</ele>
        <time>2013-03-09T10:11:10.000Z</time>
      </trkpt>
      <trkpt lat="47.30861" lon="4.97323">
        <ele>360</ele>
        <time>2013-03-09T10:11:11.000Z</time>
      </trkpt>
      <trkpt lat="47.30863" lon="4.97318">
        <ele>360</ele>
        <time>2013-03-09T10:11:13.000Z</time>
      </trkpt>
      <trkpt lat="47.30864" lon="4.97316">
        <ele>360</ele>
        <time>2013-03-09T10:11:14.000Z</time>
      </trkpt>
      <trkpt lat="47.30865" lon="4.9731">
        <ele>360</ele>
        <time>2013-03-09T10:11:16.000Z</time>
      </trkpt>
      <trkpt lat="47.30866" lon="4.97307">
        <ele>360</ele>
        <time>2013-03-09T10:11:17.000Z</time>
      </trkpt>
      <trkpt lat="47.30866" lon="4.973">
        <ele>360</ele>
        <time>2013-03-09T10:11:19.000Z</time>
      </trkpt>
      <trkpt lat="47.30866" lon="4.97297">
        <ele>360</ele>
        <time>2013-03-09T10:11:20.000Z</time>
      </trkpt>
      <trkpt lat="47.30867" lon="4.97292">
        <ele>359</ele>
        <time>2013-03-09T10:11:22.000Z</time>
      </trkpt>
      <trkpt lat="47.30867" lon="4.97289">
        <ele>359</ele>
        <time>2013-03-09T10:11:23.000Z</time>
      </trkpt>
      <trkpt lat="47.30868" lon="4.97284">
        <ele>359</ele>
        <time>2013-03-09T10:11:25.000Z</time>
      </trkpt>
      <trkpt lat="47.30868" lon="4.97281">
        <ele>359</ele>
        <time>2013-03-09T10:11:26.000Z</time>
      </trkpt>
      <trkpt lat="47.30869" lon="4.97276">
        <ele>359</ele>
        <time>2013-03-09T10:11:28.000Z</time>
      </trkpt>
      <trkpt lat="47.3087" lon="4.97272">
        <ele>359</ele>
        <time>2013-03-09T10:11:29.000Z</time>
      </trkpt>
      <trkpt lat="47.3087" lon="4.97269">
        <ele>359</ele>
        <time>2013-03-09T10:11:30.000Z</time>
      </trkpt>
      <trkpt lat="47.30871" lon="4.97265">
        <ele>359</ele>
        <time>2013-03-09T10:11:31.000Z</time>
      </trkpt>
      <trkpt lat="47.30871" lon="4.97262">
        <ele>359</ele>
        <time>2013-03-09T10:11:32.000Z</time>
      </trkpt>
      <trkpt lat="47.30871" lon="4.97259">
        <ele>358</ele>
        <time>2013-03-09T10:11:33.000Z</time>
      </trkpt>
      <trkpt lat="47.30871" lon="4.97252">
        <ele>358</ele>
        <time>2013-03-09T10:11:35.000Z</time>
      </trkpt>
      <trkpt lat="47.30871" lon="4.97249">
        <ele>355</ele>
        <time>2013-03-09T10:11:36.000Z</time>
      </trkpt>
      <trkpt lat="47.30871" lon="4.97242">
        <ele>355</ele>
        <time>2013-03-09T10:11:38.000Z</time>
      </trkpt>
      <trkpt lat="47.30872" lon="4.97239">
        <ele>355</ele>
        <time>2013-03-09T10:11:39.000Z</time>
      </trkpt>
      <trkpt lat="47.30872" lon="4.97236">
        <ele>355</ele>
        <time>2013-03-09T10:11:40.000Z</time>
      </trkpt>
      <trkpt lat="47.30873" lon="4.97233">
        <ele>355</ele>
        <time>2013-03-09T10:11:41.000Z</time>
      </trkpt>
      <trkpt lat="47.30875" lon="4.97228">
        <ele>354</ele>
        <time>2013-03-09T10:11:43.000Z</time>
      </trkpt>
      <trkpt lat="47.30876" lon="4.97225">
        <ele>354</ele>
        <time>2013-03-09T10:11:44.000Z</time>
      </trkpt>
      <trkpt lat="47.30878" lon="4.9722">
        <ele>354</ele>
        <time>2013-03-09T10:11:46.000Z</time>
      </trkpt>
      <trkpt lat="47.30883" lon="4.97189">
        <ele>353</ele>
        <time>2013-03-09T10:11:53.000Z</time>
      </trkpt>
      <trkpt lat="47.30885" lon="4.97185">
        <ele>352</ele>
        <time>2013-03-09T10:11:56.000Z</time>
      </trkpt>
      <trkpt lat="47.30885" lon="4.97182">
        <ele>352</ele>
        <time>2013-03-09T10:11:57.000Z</time>
      </trkpt>
      <trkpt lat="47.30885" lon="4.97177">
        <ele>352</ele>
        <time>2013-03-09T10:11:59.000Z</time>
      </trkpt>
      <trkpt lat="47.30884" lon="4.97173">
        <ele>352</ele>
        <time>2013-03-09T10:12:00.000Z</time>
      </trkpt>
      <trkpt lat="47.30884" lon="4.97169">
        <ele>352</ele>
        <time>2013-03-09T10:12:01.000Z</time>
      </trkpt>
      <trkpt lat="47.30883" lon="4.97165">
        <ele>349</ele>
        <time>2013-03-09T10:12:02.000Z</time>
      </trkpt>
      <trkpt lat="47.30883" lon="4.9716">
        <ele>349</ele>
        <time>2013-03-09T10:12:04.000Z</time>
      </trkpt>
      <trkpt lat="47.30884" lon="4.97157">
        <ele>349</ele>
        <time>2013-03-09T10:12:05.000Z</time>
      </trkpt>
      <trkpt lat="47.30885" lon="4.97152">
        <ele>348</ele>
        <time>2013-03-09T10:12:07.000Z</time>
      </trkpt>
      <trkpt lat="47.30885" lon="4.9715">
        <ele>348</ele>
        <time>2013-03-09T10:12:08.000Z</time>
      </trkpt>
      <trkpt lat="47.30887" lon="4.97143">
        <ele>348</ele>
        <time>2013-03-09T10:12:10.000Z</time>
      </trkpt>
      <trkpt lat="47.30887" lon="4.9714">
        <ele>348</ele>
        <time>2013-03-09T10:12:11.000Z</time>
      </trkpt>
      <trkpt lat="47.30886" lon="4.97136">
        <ele>348</ele>
        <time>2013-03-09T10:12:12.000Z</time>
      </trkpt>
      <trkpt lat="47.30886" lon="4.97133">
        <ele>348</ele>
        <time>2013-03-09T10:12:13.000Z</time>
      </trkpt>
      <trkpt lat="47.30887" lon="4.97126">
        <ele>348</ele>
        <time>2013-03-09T10:12:15.000Z</time>
      </trkpt>
      <trkpt lat="47.30888" lon="4.97123">
        <ele>348</ele>
        <time>2013-03-09T10:12:16.000Z</time>
      </trkpt>
      <trkpt lat="47.30888" lon="4.97119">
        <ele>347</ele>
        <time>2013-03-09T10:12:17.000Z</time>
      </trkpt>
      <trkpt lat="47.30888" lon="4.97116">
        <ele>347</ele>
        <time>2013-03-09T10:12:18.000Z</time>
      </trkpt>
      <trkpt lat="47.30888" lon="4.9711">
        <ele>347</ele>
        <time>2013-03-09T10:12:20.000Z</time>
      </trkpt>
      <trkpt lat="47.30888" lon="4.97108">
        <ele>347</ele>
        <time>2013-03-09T10:12:21.000Z</time>
      </trkpt>
      <trkpt lat="47.30888" lon="4.97104">
        <ele>347</ele>
        <time>2013-03-09T10:12:23.000Z</time>
      </trkpt>
      <trkpt lat="47.30888" lon="4.97101">
        <ele>347</ele>
        <time>2013-03-09T10:12:24.000Z</time>
      </trkpt>
      <trkpt lat="47.30886" lon="4.97098">
        <ele>347</ele>
        <time>2013-03-09T10:12:25.000Z</time>
      </trkpt>
      <trkpt lat="47.30885" lon="4.97094">
        <ele>347</ele>
        <time>2013-03-09T10:12:26.000Z</time>
      </trkpt>
      <trkpt lat="47.30884" lon="4.9709">
        <ele>347</ele>
        <time>2013-03-09T10:12:27.000Z</time>
      </trkpt>
      <trkpt lat="47.30884" lon="4.97087">
        <ele>347</ele>
        <time>2013-03-09T10:12:28.000Z</time>
      </trkpt>
      <trkpt lat="47.30884" lon="4.97083">
        <ele>349</ele>
        <time>2013-03-09T10:12:29.000Z</time>
      </trkpt>
      <trkpt lat="47.30884" lon="4.9708">
        <ele>349</ele>
        <time>2013-03-09T10:12:30.000Z</time>
      </trkpt>
      <trkpt lat="47.30885" lon="4.97076">
        <ele>349</ele>
        <time>2013-03-09T10:12:31.000Z</time>
      </trkpt>
      <trkpt lat="47.30885" lon="4.97073">
        <ele>349</ele>
        <time>2013-03-09T10:12:32.000Z</time>
      </trkpt>
      <trkpt lat="47.30887" lon="4.97068">
        <ele>349</ele>
        <time>2013-03-09T10:12:35.000Z</time>
      </trkpt>
      <trkpt lat="47.30888" lon="4.97066">
        <ele>349</ele>
        <time>2013-03-09T10:12:36.000Z</time>
      </trkpt>
      <trkpt lat="47.30891" lon="4.97062">
        <ele>349</ele>
        <time>2013-03-09T10:12:39.000Z</time>
      </trkpt>
      <trkpt lat="47.30892" lon="4.97061">
        <ele>349</ele>
        <time>2013-03-09T10:12:40.000Z</time>
      </trkpt>
      <trkpt lat="47.30894" lon="4.97057">
        <ele>349</ele>
        <time>2013-03-09T10:12:42.000Z</time>
      </trkpt>
      <trkpt lat="47.30896" lon="4.97055">
        <ele>349</ele>
        <time>2013-03-09T10:12:43.000Z</time>
      </trkpt>
      <trkpt lat="47.30897" lon="4.9705">
        <ele>350</ele>
        <time>2013-03-09T10:12:45.000Z</time>
      </trkpt>
      <trkpt lat="47.30898" lon="4.97047">
        <ele>350</ele>
        <time>2013-03-09T10:12:46.000Z</time>
      </trkpt>
      <trkpt lat="47.30909" lon="4.97028">
        <ele>352</ele>
        <time>2013-03-09T10:12:52.000Z</time>
      </trkpt>
      <trkpt lat="47.3091" lon="4.97023">
        <ele>352</ele>
        <time>2013-03-09T10:12:56.000Z</time>
      </trkpt>
      <trkpt lat="47.30911" lon="4.9702">
        <ele>352</ele>
        <time>2013-03-09T10:12:57.000Z</time>
      </trkpt>
      <trkpt lat="47.30914" lon="4.97016">
        <ele>353</ele>
        <time>2013-03-09T10:13:00.000Z</time>
      </trkpt>
      <trkpt lat="47.30916" lon="4.97015">
        <ele>353</ele>
        <time>2013-03-09T10:13:01.000Z</time>
      </trkpt>
      <trkpt lat="47.30918" lon="4.9701">
        <ele>351</ele>
        <time>2013-03-09T10:13:03.000Z</time>
      </trkpt>
      <trkpt lat="47.30919" lon="4.97008">
        <ele>351</ele>
        <time>2013-03-09T10:13:04.000Z</time>
      </trkpt>
      <trkpt lat="47.30922" lon="4.97003">
        <ele>352</ele>
        <time>2013-03-09T10:13:07.000Z</time>
      </trkpt>
      <trkpt lat="47.30922" lon="4.97001">
        <ele>352</ele>
        <time>2013-03-09T10:13:08.000Z</time>
      </trkpt>
      <trkpt lat="47.30925" lon="4.96997">
        <ele>353</ele>
        <time>2013-03-09T10:13:11.000Z</time>
      </trkpt>
      <trkpt lat="47.30927" lon="4.96996">
        <ele>353</ele>
        <time>2013-03-09T10:13:12.000Z</time>
      </trkpt>
      <trkpt lat="47.3093" lon="4.96994">
        <ele>352</ele>
        <time>2013-03-09T10:13:14.000Z</time>
      </trkpt>
      <trkpt lat="47.30931" lon="4.96992">
        <ele>352</ele>
        <time>2013-03-09T10:13:15.000Z</time>
      </trkpt>
      <trkpt lat="47.30934" lon="4.9699">
        <ele>352</ele>
        <time>2013-03-09T10:13:17.000Z</time>
      </trkpt>
      <trkpt lat="47.30935" lon="4.96988">
        <ele>352</ele>
        <time>2013-03-09T10:13:18.000Z</time>
      </trkpt>
      <trkpt lat="47.30937" lon="4.96986">
        <ele>351</ele>
        <time>2013-03-09T10:13:19.000Z</time>
      </trkpt>
      <trkpt lat="47.30939" lon="4.96985">
        <ele>351</ele>
        <time>2013-03-09T10:13:20.000Z</time>
      </trkpt>
      <trkpt lat="47.30941" lon="4.96983">
        <ele>351</ele>
        <time>2013-03-09T10:13:21.000Z</time>
      </trkpt>
      <trkpt lat="47.30943" lon="4.96981">
        <ele>351</ele>
        <time>2013-03-09T10:13:22.000Z</time>
      </trkpt>
      <trkpt lat="47.30947" lon="4.96977">
        <ele>351</ele>
        <time>2013-03-09T10:13:24.000Z</time>
      </trkpt>
      <trkpt lat="47.30948" lon="4.96976">
        <ele>350</ele>
        <time>2013-03-09T10:13:25.000Z</time>
      </trkpt>
      <trkpt lat="47.30951" lon="4.96973">
        <ele>350</ele>
        <time>2013-03-09T10:13:27.000Z</time>
      </trkpt>
      <trkpt lat="47.30953" lon="4.96971">
        <ele>350</ele>
        <time>2013-03-09T10:13:28.000Z</time>
      </trkpt>
      <trkpt lat="47.30955" lon="4.96968">
        <ele>350</ele>
        <time>2013-03-09T10:13:30.000Z</time>
      </trkpt>
      <trkpt lat="47.30957" lon="4.96965">
        <ele>350</ele>
        <time>2013-03-09T10:13:31.000Z</time>
      </trkpt>
      <trkpt lat="47.30959" lon="4.96963">
        <ele>350</ele>
        <time>2013-03-09T10:13:32.000Z</time>
      </trkpt>
      <trkpt lat="47.3096" lon="4.96961">
        <ele>350</ele>
        <time>2013-03-09T10:13:33.000Z</time>
      </trkpt>
      <trkpt lat="47.30963" lon="4.96957">
        <ele>350</ele>
        <time>2013-03-09T10:13:35.000Z</time>
      </trkpt>
      <trkpt lat="47.30964" lon="4.96955">
        <ele>350</ele>
        <time>2013-03-09T10:13:36.000Z</time>
      </trkpt>
      <trkpt lat="47.30967" lon="4.96951">
        <ele>350</ele>
        <time>2013-03-09T10:13:38.000Z</time>
      </trkpt>
      <trkpt lat="47.30968" lon="4.96949">
        <ele>350</ele>
        <time>2013-03-09T10:13:39.000Z</time>
      </trkpt>
      <trkpt lat="47.30971" lon="4.96944">
        <ele>349</ele>
        <time>2013-03-09T10:13:41.000Z</time>
      </trkpt>
      <trkpt lat="47.30972" lon="4.96943">
        <ele>349</ele>
        <time>2013-03-09T10:13:42.000Z</time>
      </trkpt>
      <trkpt lat="47.30976" lon="4.9694">
        <ele>349</ele>
        <time>2013-03-09T10:13:44.000Z</time>
      </trkpt>
      <trkpt lat="47.30977" lon="4.96938">
        <ele>349</ele>
        <time>2013-03-09T10:13:45.000Z</time>
      </trkpt>
      <trkpt lat="47.30979" lon="4.96937">
        <ele>349</ele>
        <time>2013-03-09T10:13:46.000Z</time>
      </trkpt>
      <trkpt lat="47.31006" lon="4.96908">
        <ele>344</ele>
        <time>2013-03-09T10:13:55.000Z</time>
      </trkpt>
      <trkpt lat="47.31009" lon="4.96905">
        <ele>343</ele>
        <time>2013-03-09T10:13:57.000Z</time>
      </trkpt>
      <trkpt lat="47.31011" lon="4.96904">
        <ele>343</ele>
        <time>2013-03-09T10:13:58.000Z</time>
      </trkpt>
      <trkpt lat="47.31014" lon="4.969">
        <ele>343</ele>
        <time>2013-03-09T10:14:00.000Z</time>
      </trkpt>
      <trkpt lat="47.31017" lon="4.96899">
        <ele>343</ele>
        <time>2013-03-09T10:14:01.000Z</time>
      </trkpt>
      <trkpt lat="47.3102" lon="4.96895">
        <ele>343</ele>
        <time>2013-03-09T10:14:03.000Z</time>
      </trkpt>
      <trkpt lat="47.31021" lon="4.96893">
        <ele>343</ele>
        <time>2013-03-09T10:14:04.000Z</time>
      </trkpt>
      <trkpt lat="47.31024" lon="4.96889">
        <ele>343</ele>
        <time>2013-03-09T10:14:06.000Z</time>
      </trkpt>
      <trkpt lat="47.31026" lon="4.96887">
        <ele>343</ele>
        <time>2013-03-09T10:14:07.000Z</time>
      </trkpt>
      <trkpt lat="47.31029" lon="4.96885">
        <ele>343</ele>
        <time>2013-03-09T10:14:09.000Z</time>
      </trkpt>
      <trkpt lat="47.31031" lon="4.96884">
        <ele>342</ele>
        <time>2013-03-09T10:14:10.000Z</time>
      </trkpt>
      <trkpt lat="47.31035" lon="4.96881">
        <ele>342</ele>
        <time>2013-03-09T10:14:12.000Z</time>
      </trkpt>
      <trkpt lat="47.31037" lon="4.9688">
        <ele>342</ele>
        <time>2013-03-09T10:14:13.000Z</time>
      </trkpt>
      <trkpt lat="47.31039" lon="4.96878">
        <ele>342</ele>
        <time>2013-03-09T10:14:14.000Z</time>
      </trkpt>
      <trkpt lat="47.31041" lon="4.96876">
        <ele>342</ele>
        <time>2013-03-09T10:14:15.000Z</time>
      </trkpt>
      <trkpt lat="47.31042" lon="4.96874">
        <ele>342</ele>
        <time>2013-03-09T10:14:16.000Z</time>
      </trkpt>
      <trkpt lat="47.31044" lon="4.96872">
        <ele>342</ele>
        <time>2013-03-09T10:14:17.000Z</time>
      </trkpt>
      <trkpt lat="47.31046" lon="4.96867">
        <ele>342</ele>
        <time>2013-03-09T10:14:20.000Z</time>
      </trkpt>
      <trkpt lat="47.31047" lon="4.96865">
        <ele>341</ele>
        <time>2013-03-09T10:14:21.000Z</time>
      </trkpt>
      <trkpt lat="47.3105" lon="4.96861">
        <ele>341</ele>
        <time>2013-03-09T10:14:24.000Z</time>
      </trkpt>
      <trkpt lat="47.31052" lon="4.9686">
        <ele>341</ele>
        <time>2013-03-09T10:14:25.000Z</time>
      </trkpt>
      <trkpt lat="47.31055" lon="4.96857">
        <ele>340</ele>
        <time>2013-03-09T10:14:27.000Z</time>
      </trkpt>
      <trkpt lat="47.31057" lon="4.96855">
        <ele>340</ele>
        <time>2013-03-09T10:14:28.000Z</time>
      </trkpt>
      <trkpt lat="47.31059" lon="4.96854">
        <ele>340</ele>
        <time>2013-03-09T10:14:29.000Z</time>
      </trkpt>
      <trkpt lat="47.31061" lon="4.96853">
        <ele>339</ele>
        <time>2013-03-09T10:14:30.000Z</time>
      </trkpt>
      <trkpt lat="47.31063" lon="4.96851">
        <ele>339</ele>
        <time>2013-03-09T10:14:31.000Z</time>
      </trkpt>
      <trkpt lat="47.31066" lon="4.9685">
        <ele>339</ele>
        <time>2013-03-09T10:14:32.000Z</time>
      </trkpt>
      <trkpt lat="47.31068" lon="4.96849">
        <ele>338</ele>
        <time>2013-03-09T10:14:33.000Z</time>
      </trkpt>
      <trkpt lat="47.3107" lon="4.96847">
        <ele>338</ele>
        <time>2013-03-09T10:14:34.000Z</time>
      </trkpt>
      <trkpt lat="47.31073" lon="4.96847">
        <ele>337</ele>
        <time>2013-03-09T10:14:36.000Z</time>
      </trkpt>
      <trkpt lat="47.31075" lon="4.96847">
        <ele>337</ele>
        <time>2013-03-09T10:14:37.000Z</time>
      </trkpt>
      <trkpt lat="47.31077" lon="4.96846">
        <ele>336</ele>
        <time>2013-03-09T10:14:38.000Z</time>
      </trkpt>
      <trkpt lat="47.31079" lon="4.96846">
        <ele>336</ele>
        <time>2013-03-09T10:14:39.000Z</time>
      </trkpt>
      <trkpt lat="47.31083" lon="4.96848">
        <ele>336</ele>
        <time>2013-03-09T10:14:41.000Z</time>
      </trkpt>
      <trkpt lat="47.31084" lon="4.9685">
        <ele>331</ele>
        <time>2013-03-09T10:14:42.000Z</time>
      </trkpt>
      <trkpt lat="47.31085" lon="4.96856">
        <ele>331</ele>
        <time>2013-03-09T10:14:46.000Z</time>
      </trkpt>
      <trkpt lat="47.31081" lon="4.96875">
        <ele>338</ele>
        <time>2013-03-09T10:14:56.000Z</time>
      </trkpt>
      <trkpt lat="47.31079" lon="4.96879">
        <ele>338</ele>
        <time>2013-03-09T10:14:59.000Z</time>
      </trkpt>
      <trkpt lat="47.31077" lon="4.9688">
        <ele>338</ele>
        <time>2013-03-09T10:15:00.000Z</time>
      </trkpt>
      <trkpt lat="47.31076" lon="4.96882">
        <ele>338</ele>
        <time>2013-03-09T10:15:01.000Z</time>
      </trkpt>
      <trkpt lat="47.31073" lon="4.96884">
        <ele>338</ele>
        <time>2013-03-09T10:15:02.000Z</time>
      </trkpt>
      <trkpt lat="47.3107" lon="4.96888">
        <ele>338</ele>
        <time>2013-03-09T10:15:04.000Z</time>
      </trkpt>
      <trkpt lat="47.3107" lon="4.96889">
        <ele>338</ele>
        <time>2013-03-09T10:15:05.000Z</time>
      </trkpt>
      <trkpt lat="47.31066" lon="4.96894">
        <ele>338</ele>
        <time>2013-03-09T10:15:08.000Z</time>
      </trkpt>
      <trkpt lat="47.31065" lon="4.96895">
        <ele>338</ele>
        <time>2013-03-09T10:15:09.000Z</time>
      </trkpt>
      <trkpt lat="47.31063" lon="4.96899">
        <ele>338</ele>
        <time>2013-03-09T10:15:11.000Z</time>
      </trkpt>
      <trkpt lat="47.31062" lon="4.96901">
        <ele>338</ele>
        <time>2013-03-09T10:15:12.000Z</time>
      </trkpt>
      <trkpt lat="47.3106" lon="4.96905">
        <ele>338</ele>
        <time>2013-03-09T10:15:14.000Z</time>
      </trkpt>
      <trkpt lat="47.31059" lon="4.96907">
        <ele>338</ele>
        <time>2013-03-09T10:15:15.000Z</time>
      </trkpt>
      <trkpt lat="47.31057" lon="4.96911">
        <ele>338</ele>
        <time>2013-03-09T10:15:17.000Z</time>
      </trkpt>
      <trkpt lat="47.31055" lon="4.96913">
        <ele>339</ele>
        <time>2013-03-09T10:15:18.000Z</time>
      </trkpt>
      <trkpt lat="47.31053" lon="4.96917">
        <ele>338</ele>
        <time>2013-03-09T10:15:20.000Z</time>
      </trkpt>
      <trkpt lat="47.31002" lon="4.97002">
        <ele>338</ele>
        <time>2013-03-09T10:15:53.000Z</time>
      </trkpt>
      <trkpt lat="47.31003" lon="4.97007">
        <ele>340</ele>
        <time>2013-03-09T10:15:56.000Z</time>
      </trkpt>
      <trkpt lat="47.31002" lon="4.97009">
        <ele>340</ele>
        <time>2013-03-09T10:15:57.000Z</time>
      </trkpt>
      <trkpt lat="47.31" lon="4.97013">
        <ele>340</ele>
        <time>2013-03-09T10:16:01.000Z</time>
      </trkpt>
      <trkpt lat="47.30999" lon="4.97015">
        <ele>341</ele>
        <time>2013-03-09T10:16:02.000Z</time>
      </trkpt>
      <trkpt lat="47.30995" lon="4.97019">
        <ele>342</ele>
        <time>2013-03-09T10:16:05.000Z</time>
      </trkpt>
      <trkpt lat="47.30994" lon="4.97021">
        <ele>342</ele>
        <time>2013-03-09T10:16:06.000Z</time>
      </trkpt>
      <trkpt lat="47.30991" lon="4.97026">
        <ele>342</ele>
        <time>2013-03-09T10:16:09.000Z</time>
      </trkpt>
      <trkpt lat="47.30991" lon="4.97027">
        <ele>343</ele>
        <time>2013-03-09T10:16:10.000Z</time>
      </trkpt>
      <trkpt lat="47.30988" lon="4.97031">
        <ele>343</ele>
        <time>2013-03-09T10:16:12.000Z</time>
      </trkpt>
      <trkpt lat="47.30987" lon="4.97033">
        <ele>343</ele>
        <time>2013-03-09T10:16:13.000Z</time>
      </trkpt>
      <trkpt lat="47.30985" lon="4.97036">
        <ele>344</ele>
        <time>2013-03-09T10:16:14.000Z</time>
      </trkpt>
      <trkpt lat="47.30983" lon="4.97038">
        <ele>344</ele>
        <time>2013-03-09T10:16:15.000Z</time>
      </trkpt>
      <trkpt lat="47.3098" lon="4.97042">
        <ele>344</ele>
        <time>2013-03-09T10:16:17.000Z</time>
      </trkpt>
      <trkpt lat="47.30978" lon="4.97043">
        <ele>344</ele>
        <time>2013-03-09T10:16:18.000Z</time>
      </trkpt>
      <trkpt lat="47.30976" lon="4.97045">
        <ele>344</ele>
        <time>2013-03-09T10:16:19.000Z</time>
      </trkpt>
      <trkpt lat="47.30974" lon="4.97047">
        <ele>344</ele>
        <time>2013-03-09T10:16:20.000Z</time>
      </trkpt>
      <trkpt lat="47.3097" lon="4.97051">
        <ele>344</ele>
        <time>2013-03-09T10:16:22.000Z</time>
      </trkpt>
      <trkpt lat="47.30969" lon="4.97052">
        <ele>344</ele>
        <time>2013-03-09T10:16:23.000Z</time>
      </trkpt>
      <trkpt lat="47.30965" lon="4.97054">
        <ele>345</ele>
        <time>2013-03-09T10:16:25.000Z</time>
      </trkpt>
      <trkpt lat="47.30963" lon="4.97054">
        <ele>345</ele>
        <time>2013-03-09T10:16:26.000Z</time>
      </trkpt>
      <trkpt lat="47.3096" lon="4.97055">
        <ele>345</ele>
        <time>2013-03-09T10:16:28.000Z</time>
      </trkpt>
      <trkpt lat="47.30959" lon="4.97056">
        <ele>345</ele>
        <time>2013-03-09T10:16:29.000Z</time>
      </trkpt>
      <trkpt lat="47.30955" lon="4.97058">
        <ele>345</ele>
        <time>2013-03-09T10:16:31.000Z</time>
      </trkpt>
      <trkpt lat="47.30953" lon="4.97058">
        <ele>345</ele>
        <time>2013-03-09T10:16:32.000Z</time>
      </trkpt>
      <trkpt lat="47.30949" lon="4.97059">
        <ele>345</ele>
        <time>2013-03-09T10:16:34.000Z</time>
      </trkpt>
      <trkpt lat="47.30948" lon="4.9706">
        <ele>345</ele>
        <time>2013-03-09T10:16:35.000Z</time>
      </trkpt>
      <trkpt lat="47.30944" lon="4.9706">
        <ele>345</ele>
        <time>2013-03-09T10:16:37.000Z</time>
      </trkpt>
      <trkpt lat="47.30942" lon="4.9706">
        <ele>345</ele>
        <time>2013-03-09T10:16:38.000Z</time>
      </trkpt>
      <trkpt lat="47.30938" lon="4.97061">
        <ele>345</ele>
        <time>2013-03-09T10:16:40.000Z</time>
      </trkpt>
      <trkpt lat="47.30936" lon="4.97061">
        <ele>345</ele>
        <time>2013-03-09T10:16:41.000Z</time>
      </trkpt>
      <trkpt lat="47.30933" lon="4.97061">
        <ele>344</ele>
        <time>2013-03-09T10:16:43.000Z</time>
      </trkpt>
      <trkpt lat="47.30931" lon="4.97061">
        <ele>344</ele>
        <time>2013-03-09T10:16:44.000Z</time>
      </trkpt>
      <trkpt lat="47.30929" lon="4.97062">
        <ele>344</ele>
        <time>2013-03-09T10:16:46.000Z</time>
      </trkpt>
      <trkpt lat="47.30918" lon="4.97072">
        <ele>343</ele>
        <time>2013-03-09T10:16:53.000Z</time>
      </trkpt>
      <trkpt lat="47.30915" lon="4.97072">
        <ele>345</ele>
        <time>2013-03-09T10:16:55.000Z</time>
      </trkpt>
      <trkpt lat="47.30913" lon="4.97071">
        <ele>346</ele>
        <time>2013-03-09T10:16:56.000Z</time>
      </trkpt>
      <trkpt lat="47.30909" lon="4.9707">
        <ele>346</ele>
        <time>2013-03-09T10:16:58.000Z</time>
      </trkpt>
      <trkpt lat="47.30908" lon="4.97069">
        <ele>347</ele>
        <time>2013-03-09T10:16:59.000Z</time>
      </trkpt>
      <trkpt lat="47.30905" lon="4.97065">
        <ele>348</ele>
        <time>2013-03-09T10:17:02.000Z</time>
      </trkpt>
      <trkpt lat="47.30903" lon="4.97063">
        <ele>348</ele>
        <time>2013-03-09T10:17:03.000Z</time>
      </trkpt>
      <trkpt lat="47.30902" lon="4.9706">
        <ele>349</ele>
        <time>2013-03-09T10:17:05.000Z</time>
      </trkpt>
      <trkpt lat="47.30901" lon="4.97058">
        <ele>349</ele>
        <time>2013-03-09T10:17:06.000Z</time>
      </trkpt>
      <trkpt lat="47.309" lon="4.97052">
        <ele>350</ele>
        <time>2013-03-09T10:17:11.000Z</time>
      </trkpt>
      <trkpt lat="47.309" lon="4.9705">
        <ele>350</ele>
        <time>2013-03-09T10:17:12.000Z</time>
      </trkpt>
      <trkpt lat="47.30901" lon="4.97044">
        <ele>350</ele>
        <time>2013-03-09T10:17:17.000Z</time>
      </trkpt>
      <trkpt lat="47.30901" lon="4.97043">
        <ele>350</ele>
        <time>2013-03-09T10:17:18.000Z</time>
      </trkpt>
      <trkpt lat="47.309" lon="4.97038">
        <ele>351</ele>
        <time>2013-03-09T10:17:22.000Z</time>
      </trkpt>
      <trkpt lat="47.30899" lon="4.97036">
        <ele>351</ele>
        <time>2013-03-09T10:17:23.000Z</time>
      </trkpt>
      <trkpt lat="47.30897" lon="4.97032">
        <ele>351</ele>
        <time>2013-03-09T10:17:27.000Z</time>
      </trkpt>
      <trkpt lat="47.30896" lon="4.97032">
        <ele>352</ele>
        <time>2013-03-09T10:17:28.000Z</time>
      </trkpt>
      <trkpt lat="47.30892" lon="4.97032">
        <ele>352</ele>
        <time>2013-03-09T10:17:33.000Z</time>
      </trkpt>
      <trkpt lat="47.3089" lon="4.97031">
        <ele>352</ele>
        <time>2013-03-09T10:17:34.000Z</time>
      </trkpt>
      <trkpt lat="47.30886" lon="4.9703">
        <ele>352</ele>
        <time>2013-03-09T10:17:38.000Z</time>
      </trkpt>
      <trkpt lat="47.30885" lon="4.9703">
        <ele>352</ele>
        <time>2013-03-09T10:17:39.000Z</time>
      </trkpt>
      <trkpt lat="47.30881" lon="4.9703">
        <ele>352</ele>
        <time>2013-03-09T10:17:43.000Z</time>
      </trkpt>
      <trkpt lat="47.3088" lon="4.9703">
        <ele>352</ele>
        <time>2013-03-09T10:17:44.000Z</time>
      </trkpt>
      <trkpt lat="47.30878" lon="4.97029">
        <ele>352</ele>
        <time>2013-03-09T10:17:46.000Z</time>
      </trkpt>
      <trkpt lat="47.3086" lon="4.97021">
        <ele>354</ele>
        <time>2013-03-09T10:17:53.000Z</time>
      </trkpt>
      <trkpt lat="47.30857" lon="4.97023">
        <ele>354</ele>
        <time>2013-03-09T10:17:57.000Z</time>
      </trkpt>
      <trkpt lat="47.30856" lon="4.97023">
        <ele>354</ele>
        <time>2013-03-09T10:17:58.000Z</time>
      </trkpt>
      <trkpt lat="47.30854" lon="4.97021">
        <ele>354</ele>
        <time>2013-03-09T10:18:13.000Z</time>
      </trkpt>
      <trkpt lat="47.30847" lon="4.97019">
        <ele>355</ele>
        <time>2013-03-09T10:18:14.000Z</time>
      </trkpt>
      <trkpt lat="47.30847" lon="4.97019">
        <ele>355</ele>
        <time>2013-03-09T10:18:46.000Z</time>
      </trkpt>
      <trkpt lat="47.30811" lon="4.97233">
        <ele>361</ele>
        <time>2013-03-09T10:18:58.000Z</time>
      </trkpt>
      <trkpt lat="47.30809" lon="4.97228">
        <ele>361</ele>
        <time>2013-03-09T10:19:02.000Z</time>
      </trkpt>
      <trkpt lat="47.30809" lon="4.97226">
        <ele>361</ele>
        <time>2013-03-09T10:19:03.000Z</time>
      </trkpt>
      <trkpt lat="47.30807" lon="4.97221">
        <ele>361</ele>
        <time>2013-03-09T10:19:04.000Z</time>
      </trkpt>
      <trkpt lat="47.30806" lon="4.97217">
        <ele>361</ele>
        <time>2013-03-09T10:19:05.000Z</time>
      </trkpt>
      <trkpt lat="47.30805" lon="4.97213">
        <ele>361</ele>
        <time>2013-03-09T10:19:06.000Z</time>
      </trkpt>
      <trkpt lat="47.30804" lon="4.97209">
        <ele>361</ele>
        <time>2013-03-09T10:19:07.000Z</time>
      </trkpt>
      <trkpt lat="47.30803" lon="4.97203">
        <ele>361</ele>
        <time>2013-03-09T10:19:09.000Z</time>
      </trkpt>
      <trkpt lat="47.30793" lon="4.97181">
        <ele>361</ele>
        <time>2013-03-09T10:19:10.000Z</time>
      </trkpt>
      <trkpt lat="47.30791" lon="4.97175">
        <ele>361</ele>
        <time>2013-03-09T10:19:12.000Z</time>
      </trkpt>
      <trkpt lat="47.30791" lon="4.97174">
        <ele>361</ele>
        <time>2013-03-09T10:19:13.000Z</time>
      </trkpt>
      <trkpt lat="47.30787" lon="4.97171">
        <ele>361</ele>
        <time>2013-03-09T10:19:18.000Z</time>
      </trkpt>
      <trkpt lat="47.30786" lon="4.97171">
        <ele>361</ele>
        <time>2013-03-09T10:19:19.000Z</time>
      </trkpt>
      <trkpt lat="47.30789" lon="4.9717">
        <ele>361</ele>
        <time>2013-03-09T10:19:30.000Z</time>
      </trkpt>
      <trkpt lat="47.30791" lon="4.9717">
        <ele>361</ele>
        <time>2013-03-09T10:19:31.000Z</time>
      </trkpt>
      <trkpt lat="47.30795" lon="4.97172">
        <ele>361</ele>
        <time>2013-03-09T10:19:37.000Z</time>
      </trkpt>
      <trkpt lat="47.30796" lon="4.97173">
        <ele>360</ele>
        <time>2013-03-09T10:19:38.000Z</time>
      </trkpt>
      <trkpt lat="47.308" lon="4.97173">
        <ele>360</ele>
        <time>2013-03-09T10:19:41.000Z</time>
      </trkpt>
      <trkpt lat="47.30801" lon="4.97174">
        <ele>360</ele>
        <time>2013-03-09T10:19:42.000Z</time>
      </trkpt>
      <trkpt lat="47.30805" lon="4.97173">
        <ele>360</ele>
        <time>2013-03-09T10:19:46.000Z</time>
      </trkpt>
      <trkpt lat="47.30816" lon="4.97056">
        <ele>356</ele>
        <time>2013-03-09T10:19:51.000Z</time>
      </trkpt>
      <trkpt lat="47.30832" lon="4.97061">
        <ele>354</ele>
        <time>2013-03-09T10:19:52.000Z</time>
      </trkpt>
      <trkpt lat="47.30837" lon="4.97057">
        <ele>351</ele>
        <time>2013-03-09T10:19:53.000Z</time>
      </trkpt>
      <trkpt lat="47.30841" lon="4.97055">
        <ele>351</ele>
        <time>2013-03-09T10:19:54.000Z</time>
      </trkpt>
      <trkpt lat="47.30844" lon="4.97054">
        <ele>351</ele>
        <time>2013-03-09T10:19:55.000Z</time>
      </trkpt>
      <trkpt lat="47.30848" lon="4.97053">
        <ele>351</ele>
        <time>2013-03-09T10:19:57.000Z</time>
      </trkpt>
      <trkpt lat="47.30851" lon="4.97052">
        <ele>352</ele>
        <time>2013-03-09T10:19:58.000Z</time>
      </trkpt>
      <trkpt lat="47.30855" lon="4.97049">
        <ele>352</ele>
        <time>2013-03-09T10:20:00.000Z</time>
      </trkpt>
      <trkpt lat="47.30857" lon="4.97048">
        <ele>352</ele>
        <time>2013-03-09T10:20:01.000Z</time>
      </trkpt>
      <trkpt lat="47.30859" lon="4.97048">
        <ele>352</ele>
        <time>2013-03-09T10:20:02.000Z</time>
      </trkpt>
      <trkpt lat="47.30862" lon="4.97047">
        <ele>352</ele>
        <time>2013-03-09T10:20:03.000Z</time>
      </trkpt>
      <trkpt lat="47.30866" lon="4.97048">
        <ele>351</ele>
        <time>2013-03-09T10:20:05.000Z</time>
      </trkpt>
      <trkpt lat="47.30867" lon="4.97047">
        <ele>351</ele>
        <time>2013-03-09T10:20:06.000Z</time>
      </trkpt>
      <trkpt lat="47.30871" lon="4.97045">
        <ele>351</ele>
        <time>2013-03-09T10:20:08.000Z</time>
      </trkpt>
      <trkpt lat="47.30872" lon="4.97044">
        <ele>351</ele>
        <time>2013-03-09T10:20:09.000Z</time>
      </trkpt>
      <trkpt lat="47.30875" lon="4.97043">
        <ele>351</ele>
        <time>2013-03-09T10:20:11.000Z</time>
      </trkpt>
      <trkpt lat="47.30877" lon="4.97042">
        <ele>351</ele>
        <time>2013-03-09T10:20:12.000Z</time>
      </trkpt>
      <trkpt lat="47.30879" lon="4.97041">
        <ele>351</ele>
        <time>2013-03-09T10:20:14.000Z</time>
      </trkpt>
      <trkpt lat="47.30881" lon="4.9704">
        <ele>351</ele>
        <time>2013-03-09T10:20:15.000Z</time>
      </trkpt>
      <trkpt lat="47.30884" lon="4.97038">
        <ele>351</ele>
        <time>2013-03-09T10:20:17.000Z</time>
      </trkpt>
      <trkpt lat="47.30886" lon="4.97035">
        <ele>352</ele>
        <time>2013-03-09T10:20:18.000Z</time>
      </trkpt>
      <trkpt lat="47.30889" lon="4.97031">
        <ele>352</ele>
        <time>2013-03-09T10:20:20.000Z</time>
      </trkpt>
      <trkpt lat="47.30891" lon="4.9703">
        <ele>352</ele>
        <time>2013-03-09T10:20:21.000Z</time>
      </trkpt>
      <trkpt lat="47.30893" lon="4.97028">
        <ele>352</ele>
        <time>2013-03-09T10:20:22.000Z</time>
      </trkpt>
      <trkpt lat="47.30895" lon="4.97026">
        <ele>352</ele>
        <time>2013-03-09T10:20:23.000Z</time>
      </trkpt>
      <trkpt lat="47.30898" lon="4.97022">
        <ele>352</ele>
        <time>2013-03-09T10:20:24.000Z</time>
      </trkpt>
      <trkpt lat="47.30901" lon="4.97018">
        <ele>352</ele>
        <time>2013-03-09T10:20:25.000Z</time>
      </trkpt>
      <trkpt lat="47.30903" lon="4.97016">
        <ele>353</ele>
        <time>2013-03-09T10:20:26.000Z</time>
      </trkpt>
      <trkpt lat="47.30905" lon="4.97014">
        <ele>353</ele>
        <time>2013-03-09T10:20:27.000Z</time>
      </trkpt>
      <trkpt lat="47.30908" lon="4.97012">
        <ele>353</ele>
        <time>2013-03-09T10:20:29.000Z</time>
      </trkpt>
      <trkpt lat="47.3091" lon="4.97011">
        <ele>353</ele>
        <time>2013-03-09T10:20:30.000Z</time>
      </trkpt>
      <trkpt lat="47.30913" lon="4.97008">
        <ele>353</ele>
        <time>2013-03-09T10:20:32.000Z</time>
      </trkpt>
      <trkpt lat="47.30915" lon="4.97006">
        <ele>353</ele>
        <time>2013-03-09T10:20:33.000Z</time>
      </trkpt>
      <trkpt lat="47.30917" lon="4.97004">
        <ele>352</ele>
        <time>2013-03-09T10:20:35.000Z</time>
      </trkpt>
      <trkpt lat="47.30919" lon="4.97003">
        <ele>353</ele>
        <time>2013-03-09T10:20:36.000Z</time>
      </trkpt>
      <trkpt lat="47.30921" lon="4.97">
        <ele>353</ele>
        <time>2013-03-09T10:20:38.000Z</time>
      </trkpt>
      <trkpt lat="47.30923" lon="4.96999">
        <ele>353</ele>
        <time>2013-03-09T10:20:39.000Z</time>
      </trkpt>
      <trkpt lat="47.30926" lon="4.96994">
        <ele>353</ele>
        <time>2013-03-09T10:20:43.000Z</time>
      </trkpt>
      <trkpt lat="47.30926" lon="4.96993">
        <ele>353</ele>
        <time>2013-03-09T10:20:44.000Z</time>
      </trkpt>
      <trkpt lat="47.30927" lon="4.9699">
        <ele>352</ele>
        <time>2013-03-09T10:20:46.000Z</time>
      </trkpt>
      <trkpt lat="47.3097" lon="4.96903">
        <ele>357</ele>
        <time>2013-03-09T10:20:53.000Z</time>
      </trkpt>
      <trkpt lat="47.30972" lon="4.96903">
        <ele>356</ele>
        <time>2013-03-09T10:20:54.000Z</time>
      </trkpt>
      <trkpt lat="47.30975" lon="4.96903">
        <ele>356</ele>
        <time>2013-03-09T10:20:55.000Z</time>
      </trkpt>
      <trkpt lat="47.30977" lon="4.96904">
        <ele>355</ele>
        <time>2013-03-09T10:20:56.000Z</time>
      </trkpt>
      <trkpt lat="47.30979" lon="4.96905">
        <ele>354</ele>
        <time>2013-03-09T10:20:57.000Z</time>
      </trkpt>
      <trkpt lat="47.30982" lon="4.96905">
        <ele>354</ele>
        <time>2013-03-09T10:20:58.000Z</time>
      </trkpt>
      <trkpt lat="47.30984" lon="4.96905">
        <ele>353</ele>
        <time>2013-03-09T10:20:59.000Z</time>
      </trkpt>
      <trkpt lat="47.30989" lon="4.96905">
        <ele>352</ele>
        <time>2013-03-09T10:21:01.000Z</time>
      </trkpt>
      <trkpt lat="47.30991" lon="4.96905">
        <ele>352</ele>
        <time>2013-03-09T10:21:02.000Z</time>
      </trkpt>
      <trkpt lat="47.30994" lon="4.96904">
        <ele>351</ele>
        <time>2013-03-09T10:21:03.000Z</time>
      </trkpt>
      <trkpt lat="47.30996" lon="4.96904">
        <ele>351</ele>
        <time>2013-03-09T10:21:04.000Z</time>
      </trkpt>
      <trkpt lat="47.30998" lon="4.96903">
        <ele>351</ele>
        <time>2013-03-09T10:21:05.000Z</time>
      </trkpt>
      <trkpt lat="47.31001" lon="4.96902">
        <ele>344</ele>
        <time>2013-03-09T10:21:06.000Z</time>
      </trkpt>
      <trkpt lat="47.31004" lon="4.96901">
        <ele>344</ele>
        <time>2013-03-09T10:21:07.000Z</time>
      </trkpt>
      <trkpt lat="47.31006" lon="4.969">
        <ele>344</ele>
        <time>2013-03-09T10:21:08.000Z</time>
      </trkpt>
      <trkpt lat="47.31009" lon="4.96898">
        <ele>343</ele>
        <time>2013-03-09T10:21:09.000Z</time>
      </trkpt>
      <trkpt lat="47.31012" lon="4.96895">
        <ele>343</ele>
        <time>2013-03-09T10:21:11.000Z</time>
      </trkpt>
      <trkpt lat="47.31015" lon="4.96895">
        <ele>343</ele>
        <time>2013-03-09T10:21:12.000Z</time>
      </trkpt>
      <trkpt lat="47.31018" lon="4.96894">
        <ele>343</ele>
        <time>2013-03-09T10:21:13.000Z</time>
      </trkpt>
      <trkpt lat="47.3102" lon="4.96893">
        <ele>343</ele>
        <time>2013-03-09T10:21:14.000Z</time>
      </trkpt>
      <trkpt lat="47.31023" lon="4.96891">
        <ele>343</ele>
        <time>2013-03-09T10:21:16.000Z</time>
      </trkpt>
      <trkpt lat="47.31025" lon="4.9689">
        <ele>343</ele>
        <time>2013-03-09T10:21:17.000Z</time>
      </trkpt>
      <trkpt lat="47.31028" lon="4.96887">
        <ele>343</ele>
        <time>2013-03-09T10:21:19.000Z</time>
      </trkpt>
      <trkpt lat="47.31029" lon="4.96885">
        <ele>343</ele>
        <time>2013-03-09T10:21:20.000Z</time>
      </trkpt>
      <trkpt lat="47.31032" lon="4.96881">
        <ele>343</ele>
        <time>2013-03-09T10:21:22.000Z</time>
      </trkpt>
      <trkpt lat="47.31033" lon="4.96879">
        <ele>342</ele>
        <time>2013-03-09T10:21:23.000Z</time>
      </trkpt>
      <trkpt lat="47.31035" lon="4.96875">
        <ele>342</ele>
        <time>2013-03-09T10:21:25.000Z</time>
      </trkpt>
      <trkpt lat="47.31036" lon="4.96873">
        <ele>343</ele>
        <time>2013-03-09T10:21:26.000Z</time>
      </trkpt>
      <trkpt lat="47.31038" lon="4.96869">
        <ele>343</ele>
        <time>2013-03-09T10:21:28.000Z</time>
      </trkpt>
      <trkpt lat="47.31039" lon="4.96867">
        <ele>342</ele>
        <time>2013-03-09T10:21:29.000Z</time>
      </trkpt>
      <trkpt lat="47.31042" lon="4.96864">
        <ele>342</ele>
        <time>2013-03-09T10:21:31.000Z</time>
      </trkpt>
      <trkpt lat="47.31044" lon="4.96863">
        <ele>342</ele>
        <time>2013-03-09T10:21:32.000Z</time>
      </trkpt>
      <trkpt lat="47.31048" lon="4.9686">
        <ele>342</ele>
        <time>2013-03-09T10:21:34.000Z</time>
      </trkpt>
      <trkpt lat="47.31049" lon="4.96859">
        <ele>341</ele>
        <time>2013-03-09T10:21:35.000Z</time>
      </trkpt>
      <trkpt lat="47.31052" lon="4.96854">
        <ele>341</ele>
        <time>2013-03-09T10:21:39.000Z</time>
      </trkpt>
      <trkpt lat="47.31053" lon="4.96853">
        <ele>341</ele>
        <time>2013-03-09T10:21:40.000Z</time>
      </trkpt>
      <trkpt lat="47.31056" lon="4.9685">
        <ele>340</ele>
        <time>2013-03-09T10:21:42.000Z</time>
      </trkpt>
      <trkpt lat="47.31056" lon="4.96848">
        <ele>340</ele>
        <time>2013-03-09T10:21:43.000Z</time>
      </trkpt>
      <trkpt lat="47.31059" lon="4.96845">
        <ele>340</ele>
        <time>2013-03-09T10:21:45.000Z</time>
      </trkpt>
      <trkpt lat="47.31061" lon="4.96845">
        <ele>339</ele>
        <time>2013-03-09T10:21:46.000Z</time>
      </trkpt>
      <trkpt lat="47.31089" lon="4.96847">
        <ele>331</ele>
        <time>2013-03-09T10:21:53.000Z</time>
      </trkpt>
      <trkpt lat="47.31091" lon="4.96848">
        <ele>331</ele>
        <time>2013-03-09T10:21:55.000Z</time>
      </trkpt>
      <trkpt lat="47.31094" lon="4.96849">
        <ele>330</ele>
        <time>2013-03-09T10:21:56.000Z</time>
      </trkpt>
      <trkpt lat="47.31098" lon="4.96846">
        <ele>330</ele>
        <time>2013-03-09T10:21:59.000Z</time>
      </trkpt>
      <trkpt lat="47.311" lon="4.96846">
        <ele>330</ele>
        <time>2013-03-09T10:22:00.000Z</time>
      </trkpt>
      <trkpt lat="47.31104" lon="4.96846">
        <ele>330</ele>
        <time>2013-03-09T10:22:02.000Z</time>
      </trkpt>
      <trkpt lat="47.31105" lon="4.96845">
        <ele>330</ele>
        <time>2013-03-09T10:22:03.000Z</time>
      </trkpt>
      <trkpt lat="47.31109" lon="4.96845">
        <ele>330</ele>
        <time>2013-03-09T10:22:06.000Z</time>
      </trkpt>
      <trkpt lat="47.3111" lon="4.96845">
        <ele>330</ele>
        <time>2013-03-09T10:22:07.000Z</time>
      </trkpt>
      <trkpt lat="47.31113" lon="4.96845">
        <ele>329</ele>
        <time>2013-03-09T10:22:09.000Z</time>
      </trkpt>
      <trkpt lat="47.31115" lon="4.96844">
        <ele>329</ele>
        <time>2013-03-09T10:22:10.000Z</time>
      </trkpt>
      <trkpt lat="47.31119" lon="4.96842">
        <ele>329</ele>
        <time>2013-03-09T10:22:13.000Z</time>
      </trkpt>
      <trkpt lat="47.3112" lon="4.96842">
        <ele>329</ele>
        <time>2013-03-09T10:22:14.000Z</time>
      </trkpt>
      <trkpt lat="47.31123" lon="4.96841">
        <ele>329</ele>
        <time>2013-03-09T10:22:16.000Z</time>
      </trkpt>
      <trkpt lat="47.31125" lon="4.9684">
        <ele>328</ele>
        <time>2013-03-09T10:22:17.000Z</time>
      </trkpt>
      <trkpt lat="47.31128" lon="4.96838">
        <ele>328</ele>
        <time>2013-03-09T10:22:19.000Z</time>
      </trkpt>
      <trkpt lat="47.31129" lon="4.96837">
        <ele>328</ele>
        <time>2013-03-09T10:22:20.000Z</time>
      </trkpt>
      <trkpt lat="47.31133" lon="4.96836">
        <ele>328</ele>
        <time>2013-03-09T10:22:23.000Z</time>
      </trkpt>
      <trkpt lat="47.31135" lon="4.96835">
        <ele>327</ele>
        <time>2013-03-09T10:22:24.000Z</time>
      </trkpt>
      <trkpt lat="47.31138" lon="4.96834">
        <ele>327</ele>
        <time>2013-03-09T10:22:26.000Z</time>
      </trkpt>
      <trkpt lat="47.31139" lon="4.96834">
        <ele>327</ele>
        <time>2013-03-09T10:22:27.000Z</time>
      </trkpt>
      <trkpt lat="47.31142" lon="4.96832">
        <ele>327</ele>
        <time>2013-03-09T10:22:29.000Z</time>
      </trkpt>
      <trkpt lat="47.31144" lon="4.96832">
        <ele>327</ele>
        <time>2013-03-09T10:22:30.000Z</time>
      </trkpt>
      <trkpt lat="47.31147" lon="4.9683">
        <ele>327</ele>
        <time>2013-03-09T10:22:32.000Z</time>
      </trkpt>
      <trkpt lat="47.31149" lon="4.96828">
        <ele>326</ele>
        <time>2013-03-09T10:22:33.000Z</time>
      </trkpt>
      <trkpt lat="47.31152" lon="4.96828">
        <ele>326</ele>
        <time>2013-03-09T10:22:35.000Z</time>
      </trkpt>
      <trkpt lat="47.31154" lon="4.96827">
        <ele>325</ele>
        <time>2013-03-09T10:22:36.000Z</time>
      </trkpt>
      <trkpt lat="47.31157" lon="4.96826">
        <ele>325</ele>
        <time>2013-03-09T10:22:38.000Z</time>
      </trkpt>
      <trkpt lat="47.31159" lon="4.96826">
        <ele>325</ele>
        <time>2013-03-09T10:22:39.000Z</time>
      </trkpt>
      <trkpt lat="47.31163" lon="4.96825">
        <ele>324</ele>
        <time>2013-03-09T10:22:41.000Z</time>
      </trkpt>
      <trkpt lat="47.31165" lon="4.96824">
        <ele>324</ele>
        <time>2013-03-09T10:22:42.000Z</time>
      </trkpt>
      <trkpt lat="47.31169" lon="4.96823">
        <ele>322</ele>
        <time>2013-03-09T10:22:44.000Z</time>
      </trkpt>
      <trkpt lat="47.31171" lon="4.96823">
        <ele>322</ele>
        <time>2013-03-09T10:22:45.000Z</time>
      </trkpt>
      <trkpt lat="47.31175" lon="4.96822">
        <ele>322</ele>
        <time>2013-03-09T10:22:47.000Z</time>
      </trkpt>
      <trkpt lat="47.31177" lon="4.96822">
        <ele>322</ele>
        <time>2013-03-09T10:22:48.000Z</time>
      </trkpt>
      <trkpt lat="47.3118" lon="4.96821">
        <ele>322</ele>
        <time>2013-03-09T10:22:50.000Z</time>
      </trkpt>
      <trkpt lat="47.31182" lon="4.96821">
        <ele>322</ele>
        <time>2013-03-09T10:22:51.000Z</time>
      </trkpt>
      <trkpt lat="47.31186" lon="4.9682">
        <ele>323</ele>
        <time>2013-03-09T10:22:53.000Z</time>
      </trkpt>
      <trkpt lat="47.31187" lon="4.96819">
        <ele>323</ele>
        <time>2013-03-09T10:22:54.000Z</time>
      </trkpt>
      <trkpt lat="47.31191" lon="4.96818">
        <ele>323</ele>
        <time>2013-03-09T10:22:56.000Z</time>
      </trkpt>
      <trkpt lat="47.31193" lon="4.96817">
        <ele>323</ele>
        <time>2013-03-09T10:22:57.000Z</time>
      </trkpt>
      <trkpt lat="47.31195" lon="4.96812">
        <ele>323</ele>
        <time>2013-03-09T10:23:00.000Z</time>
      </trkpt>
      <trkpt lat="47.31197" lon="4.96811">
        <ele>323</ele>
        <time>2013-03-09T10:23:01.000Z</time>
      </trkpt>
      <trkpt lat="47.31197" lon="4.96805">
        <ele>323</ele>
        <time>2013-03-09T10:23:05.000Z</time>
      </trkpt>
      <trkpt lat="47.31196" lon="4.96804">
        <ele>323</ele>
        <time>2013-03-09T10:23:06.000Z</time>
      </trkpt>
      <trkpt lat="47.31196" lon="4.96797">
        <ele>324</ele>
        <time>2013-03-09T10:23:18.000Z</time>
      </trkpt>
      <trkpt lat="47.31196" lon="4.96797">
        <ele>324</ele>
        <time>2013-03-09T10:23:19.000Z</time>
      </trkpt>
      <trkpt lat="47.31194" lon="4.9679">
        <ele>324</ele>
        <time>2013-03-09T10:23:23.000Z</time>
      </trkpt>
      <trkpt lat="47.31194" lon="4.96789">
        <ele>324</ele>
        <time>2013-03-09T10:23:24.000Z</time>
      </trkpt>
      <trkpt lat="47.31192" lon="4.96784">
        <ele>324</ele>
        <time>2013-03-09T10:23:28.000Z</time>
      </trkpt>
      <trkpt lat="47.31192" lon="4.96783">
        <ele>324</ele>
        <time>2013-03-09T10:23:29.000Z</time>
      </trkpt>
      <trkpt lat="47.31191" lon="4.96778">
        <ele>324</ele>
        <time>2013-03-09T10:23:32.000Z</time>
      </trkpt>
      <trkpt lat="47.3119" lon="4.96777">
        <ele>324</ele>
        <time>2013-03-09T10:23:33.000Z</time>
      </trkpt>
      <trkpt lat="47.31189" lon="4.96771">
        <ele>325</ele>
        <time>2013-03-09T10:23:37.000Z</time>
      </trkpt>
      <trkpt lat="47.31189" lon="4.96769">
        <ele>325</ele>
        <time>2013-03-09T10:23:38.000Z</time>
      </trkpt>
      <trkpt lat="47.31188" lon="4.96764">
        <ele>325</ele>
        <time>2013-03-09T10:23:42.000Z</time>
      </trkpt>
      <trkpt lat="47.31187" lon="4.96762">
        <ele>325</ele>
        <time>2013-03-09T10:23:43.000Z</time>
      </trkpt>
      <trkpt lat="47.31187" lon="4.96758">
        <ele>325</ele>
        <time>2013-03-09T10:23:46.000Z</time>
      </trkpt>
      <trkpt lat="47.31176" lon="4.96736">
        <ele>328</ele>
        <time>2013-03-09T10:23:54.000Z</time>
      </trkpt>
      <trkpt lat="47.31172" lon="4.96732">
        <ele>328</ele>
        <time>2013-03-09T10:23:56.000Z</time>
      </trkpt>
      <trkpt lat="47.31171" lon="4.9673">
        <ele>328</ele>
        <time>2013-03-09T10:23:57.000Z</time>
      </trkpt>
      <trkpt lat="47.31173" lon="4.96726">
        <ele>329</ele>
        <time>2013-03-09T10:24:00.000Z</time>
      </trkpt>
      <trkpt lat="47.31173" lon="4.96724">
        <ele>329</ele>
        <time>2013-03-09T10:24:01.000Z</time>
      </trkpt>
      <trkpt lat="47.31172" lon="4.96717">
        <ele>329</ele>
        <time>2013-03-09T10:24:04.000Z</time>
      </trkpt>
      <trkpt lat="47.31173" lon="4.96715">
        <ele>329</ele>
        <time>2013-03-09T10:24:05.000Z</time>
      </trkpt>
      <trkpt lat="47.31173" lon="4.96709">
        <ele>330</ele>
        <time>2013-03-09T10:24:09.000Z</time>
      </trkpt>
      <trkpt lat="47.31173" lon="4.96707">
        <ele>330</ele>
        <time>2013-03-09T10:24:10.000Z</time>
      </trkpt>
      <trkpt lat="47.31172" lon="4.96701">
        <ele>330</ele>
        <time>2013-03-09T10:24:12.000Z</time>
      </trkpt>
      <trkpt lat="47.31172" lon="4.96699">
        <ele>330</ele>
        <time>2013-03-09T10:24:13.000Z</time>
      </trkpt>
      <trkpt lat="47.31172" lon="4.96694">
        <ele>330</ele>
        <time>2013-03-09T10:24:15.000Z</time>
      </trkpt>
      <trkpt lat="47.31172" lon="4.96691">
        <ele>330</ele>
        <time>2013-03-09T10:24:16.000Z</time>
      </trkpt>
      <trkpt lat="47.31171" lon="4.96687">
        <ele>329</ele>
        <time>2013-03-09T10:24:18.000Z</time>
      </trkpt>
      <trkpt lat="47.31171" lon="4.96684">
        <ele>329</ele>
        <time>2013-03-09T10:24:19.000Z</time>
      </trkpt>
      <trkpt lat="47.31169" lon="4.96679">
        <ele>329</ele>
        <time>2013-03-09T10:24:21.000Z</time>
      </trkpt>
      <trkpt lat="47.31168" lon="4.96676">
        <ele>329</ele>
        <time>2013-03-09T10:24:22.000Z</time>
      </trkpt>
      <trkpt lat="47.31167" lon="4.96671">
        <ele>328</ele>
        <time>2013-03-09T10:24:24.000Z</time>
      </trkpt>
      <trkpt lat="47.31167" lon="4.96668">
        <ele>327</ele>
        <time>2013-03-09T10:24:25.000Z</time>
      </trkpt>
      <trkpt lat="47.31168" lon="4.96663">
        <ele>328</ele>
        <time>2013-03-09T10:24:27.000Z</time>
      </trkpt>
      <trkpt lat="47.31169" lon="4.96661">
        <ele>329</ele>
        <time>2013-03-09T10:24:28.000Z</time>
      </trkpt>
      <trkpt lat="47.31169" lon="4.96656">
        <ele>330</ele>
        <time>2013-03-09T10:24:30.000Z</time>
      </trkpt>
      <trkpt lat="47.3117" lon="4.96654">
        <ele>331</ele>
        <time>2013-03-09T10:24:31.000Z</time>
      </trkpt>
      <trkpt lat="47.3117" lon="4.96649">
        <ele>331</ele>
        <time>2013-03-09T10:24:33.000Z</time>
      </trkpt>
      <trkpt lat="47.3117" lon="4.96646">
        <ele>332</ele>
        <time>2013-03-09T10:24:34.000Z</time>
      </trkpt>
      <trkpt lat="47.3117" lon="4.96642">
        <ele>332</ele>
        <time>2013-03-09T10:24:36.000Z</time>
      </trkpt>
      <trkpt lat="47.31171" lon="4.96639">
        <ele>333</ele>
        <time>2013-03-09T10:24:37.000Z</time>
      </trkpt>
      <trkpt lat="47.31171" lon="4.96634">
        <ele>333</ele>
        <time>2013-03-09T10:24:39.000Z</time>
      </trkpt>
      <trkpt lat="47.31172" lon="4.96631">
        <ele>333</ele>
        <time>2013-03-09T10:24:40.000Z</time>
      </trkpt>
      <trkpt lat="47.31173" lon="4.96626">
        <ele>333</ele>
        <time>2013-03-09T10:24:42.000Z</time>
      </trkpt>
      <trkpt lat="47.31173" lon="4.96624">
        <ele>333</ele>
        <time>2013-03-09T10:24:43.000Z</time>
      </trkpt>
      <trkpt lat="47.31173" lon="4.96618">
        <ele>333</ele>
        <time>2013-03-09T10:24:46.000Z</time>
      </trkpt>
      <trkpt lat="47.31174" lon="4.96615">
        <ele>333</ele>
        <time>2013-03-09T10:24:47.000Z</time>
      </trkpt>
      <trkpt lat="47.31169" lon="4.96583">
        <ele>329</ele>
        <time>2013-03-09T10:24:54.000Z</time>
      </trkpt>
      <trkpt lat="47.31171" lon="4.96579">
        <ele>330</ele>
        <time>2013-03-09T10:24:56.000Z</time>
      </trkpt>
      <trkpt lat="47.31174" lon="4.96578">
        <ele>331</ele>
        <time>2013-03-09T10:24:57.000Z</time>
      </trkpt>
      <trkpt lat="47.31171" lon="4.96573">
        <ele>332</ele>
        <time>2013-03-09T10:25:00.000Z</time>
      </trkpt>
      <trkpt lat="47.31171" lon="4.96571">
        <ele>332</ele>
        <time>2013-03-09T10:25:01.000Z</time>
      </trkpt>
      <trkpt lat="47.31168" lon="4.96566">
        <ele>333</ele>
        <time>2013-03-09T10:25:03.000Z</time>
      </trkpt>
      <trkpt lat="47.31168" lon="4.96564">
        <ele>334</ele>
        <time>2013-03-09T10:25:04.000Z</time>
      </trkpt>
      <trkpt lat="47.31169" lon="4.96557">
        <ele>334</ele>
        <time>2013-03-09T10:25:07.000Z</time>
      </trkpt>
      <trkpt lat="47.31169" lon="4.96555">
        <ele>335</ele>
        <time>2013-03-09T10:25:08.000Z</time>
      </trkpt>
      <trkpt lat="47.31168" lon="4.96549">
        <ele>335</ele>
        <time>2013-03-09T10:25:11.000Z</time>
      </trkpt>
      <trkpt lat="47.31169" lon="4.96547">
        <ele>335</ele>
        <time>2013-03-09T10:25:12.000Z</time>
      </trkpt>
      <trkpt lat="47.31169" lon="4.96541">
        <ele>335</ele>
        <time>2013-03-09T10:25:15.000Z</time>
      </trkpt>
      <trkpt lat="47.31169" lon="4.96539">
        <ele>335</ele>
        <time>2013-03-09T10:25:16.000Z</time>
      </trkpt>
      <trkpt lat="47.31168" lon="4.96534">
        <ele>335</ele>
        <time>2013-03-09T10:25:19.000Z</time>
      </trkpt>
      <trkpt lat="47.31169" lon="4.96532">
        <ele>335</ele>
        <time>2013-03-09T10:25:20.000Z</time>
      </trkpt>
      <trkpt lat="47.31168" lon="4.96526">
        <ele>335</ele>
        <time>2013-03-09T10:25:23.000Z</time>
      </trkpt>
      <trkpt lat="47.31168" lon="4.96524">
        <ele>334</ele>
        <time>2013-03-09T10:25:24.000Z</time>
      </trkpt>
      <trkpt lat="47.31167" lon="4.96518">
        <ele>334</ele>
        <time>2013-03-09T10:25:27.000Z</time>
      </trkpt>
      <trkpt lat="47.31166" lon="4.96515">
        <ele>332</ele>
        <time>2013-03-09T10:25:28.000Z</time>
      </trkpt>
      <trkpt lat="47.31166" lon="4.9651">
        <ele>331</ele>
        <time>2013-03-09T10:25:30.000Z</time>
      </trkpt>
      <trkpt lat="47.31165" lon="4.96507">
        <ele>331</ele>
        <time>2013-03-09T10:25:31.000Z</time>
      </trkpt>
      <trkpt lat="47.31164" lon="4.96502">
        <ele>330</ele>
        <time>2013-03-09T10:25:33.000Z</time>
      </trkpt>
      <trkpt lat="47.31163" lon="4.96499">
        <ele>330</ele>
        <time>2013-03-09T10:25:34.000Z</time>
      </trkpt>
      <trkpt lat="47.31163" lon="4.96493">
        <ele>331</ele>
        <time>2013-03-09T10:25:36.000Z</time>
      </trkpt>
      <trkpt lat="47.31162" lon="4.96491">
        <ele>331</ele>
        <time>2013-03-09T10:25:37.000Z</time>
      </trkpt>
      <trkpt lat="47.31161" lon="4.96484">
        <ele>332</ele>
        <time>2013-03-09T10:25:39.000Z</time>
      </trkpt>
      <trkpt lat="47.31161" lon="4.96481">
        <ele>332</ele>
        <time>2013-03-09T10:25:40.000Z</time>
      </trkpt>
      <trkpt lat="47.3116" lon="4.96476">
        <ele>333</ele>
        <time>2013-03-09T10:25:42.000Z</time>
      </trkpt>
      <trkpt lat="47.31159" lon="4.96473">
        <ele>333</ele>
        <time>2013-03-09T10:25:43.000Z</time>
      </trkpt>
      <trkpt lat="47.31158" lon="4.96467">
        <ele>334</ele>
        <time>2013-03-09T10:25:45.000Z</time>
      </trkpt>
      <trkpt lat="47.31158" lon="4.96464">
        <ele>334</ele>
        <time>2013-03-09T10:25:46.000Z</time>
      </trkpt>
      <trkpt lat="47.31157" lon="4.96461">
        <ele>334</ele>
        <time>2013-03-09T10:25:47.000Z</time>
      </trkpt>
      <trkpt lat="47.31147" lon="4.96426">
        <ele>335</ele>
        <time>2013-03-09T10:25:54.000Z</time>
      </trkpt>
      <trkpt lat="47.31147" lon="4.96421">
        <ele>335</ele>
        <time>2013-03-09T10:25:56.000Z</time>
      </trkpt>
      <trkpt lat="47.31147" lon="4.96418">
        <ele>335</ele>
        <time>2013-03-09T10:25:57.000Z</time>
      </trkpt>
      <trkpt lat="47.31146" lon="4.96412">
        <ele>337</ele>
        <time>2013-03-09T10:26:00.000Z</time>
      </trkpt>
      <trkpt lat="47.31145" lon="4.96409">
        <ele>337</ele>
        <time>2013-03-09T10:26:01.000Z</time>
      </trkpt>
      <trkpt lat="47.31143" lon="4.96405">
        <ele>337</ele>
        <time>2013-03-09T10:26:03.000Z</time>
      </trkpt>
      <trkpt lat="47.31142" lon="4.96402">
        <ele>337</ele>
        <time>2013-03-09T10:26:04.000Z</time>
      </trkpt>
      <trkpt lat="47.3114" lon="4.96397">
        <ele>338</ele>
        <time>2013-03-09T10:26:06.000Z</time>
      </trkpt>
      <trkpt lat="47.31139" lon="4.96394">
        <ele>338</ele>
        <time>2013-03-09T10:26:07.000Z</time>
      </trkpt>
      <trkpt lat="47.31137" lon="4.96388">
        <ele>338</ele>
        <time>2013-03-09T10:26:09.000Z</time>
      </trkpt>
      <trkpt lat="47.31136" lon="4.96386">
        <ele>338</ele>
        <time>2013-03-09T10:26:10.000Z</time>
      </trkpt>
      <trkpt lat="47.31132" lon="4.96381">
        <ele>338</ele>
        <time>2013-03-09T10:26:12.000Z</time>
      </trkpt>
      <trkpt lat="47.31131" lon="4.96379">
        <ele>338</ele>
        <time>2013-03-09T10:26:13.000Z</time>
      </trkpt>
      <trkpt lat="47.31129" lon="4.96377">
        <ele>338</ele>
        <time>2013-03-09T10:26:14.000Z</time>
      </trkpt>
      <trkpt lat="47.31127" lon="4.96375">
        <ele>338</ele>
        <time>2013-03-09T10:26:15.000Z</time>
      </trkpt>
      <trkpt lat="47.31124" lon="4.96371">
        <ele>338</ele>
        <time>2013-03-09T10:26:17.000Z</time>
      </trkpt>
      <trkpt lat="47.31123" lon="4.9637">
        <ele>338</ele>
        <time>2013-03-09T10:26:18.000Z</time>
      </trkpt>
      <trkpt lat="47.31121" lon="4.96364">
        <ele>338</ele>
        <time>2013-03-09T10:26:21.000Z</time>
      </trkpt>
      <trkpt lat="47.31121" lon="4.96362">
        <ele>338</ele>
        <time>2013-03-09T10:26:22.000Z</time>
      </trkpt>
      <trkpt lat="47.31118" lon="4.96357">
        <ele>338</ele>
        <time>2013-03-09T10:26:25.000Z</time>
      </trkpt>
      <trkpt lat="47.31117" lon="4.96355">
        <ele>338</ele>
        <time>2013-03-09T10:26:26.000Z</time>
      </trkpt>
      <trkpt lat="47.31116" lon="4.9635">
        <ele>338</ele>
        <time>2013-03-09T10:26:30.000Z</time>
      </trkpt>
      <trkpt lat="47.31116" lon="4.96348">
        <ele>338</ele>
        <time>2013-03-09T10:26:31.000Z</time>
      </trkpt>
      <trkpt lat="47.31114" lon="4.96344">
        <ele>338</ele>
        <time>2013-03-09T10:26:33.000Z</time>
      </trkpt>
      <trkpt lat="47.31113" lon="4.96342">
        <ele>338</ele>
        <time>2013-03-09T10:26:34.000Z</time>
      </trkpt>
      <trkpt lat="47.31112" lon="4.96336">
        <ele>338</ele>
        <time>2013-03-09T10:26:36.000Z</time>
      </trkpt>
      <trkpt lat="47.3111" lon="4.96333">
        <ele>341</ele>
        <time>2013-03-09T10:26:37.000Z</time>
      </trkpt>
      <trkpt lat="47.31108" lon="4.96328">
        <ele>340</ele>
        <time>2013-03-09T10:26:39.000Z</time>
      </trkpt>
      <trkpt lat="47.31108" lon="4.96326">
        <ele>340</ele>
        <time>2013-03-09T10:26:40.000Z</time>
      </trkpt>
      <trkpt lat="47.31106" lon="4.96323">
        <ele>340</ele>
        <time>2013-03-09T10:26:41.000Z</time>
      </trkpt>
      <trkpt lat="47.31104" lon="4.96321">
        <ele>340</ele>
        <time>2013-03-09T10:26:42.000Z</time>
      </trkpt>
      <trkpt lat="47.31102" lon="4.96318">
        <ele>340</ele>
        <time>2013-03-09T10:26:43.000Z</time>
      </trkpt>
      <trkpt lat="47.31101" lon="4.96316">
        <ele>340</ele>
        <time>2013-03-09T10:26:44.000Z</time>
      </trkpt>
      <trkpt lat="47.31098" lon="4.96312">
        <ele>340</ele>
        <time>2013-03-09T10:26:46.000Z</time>
      </trkpt>
      <trkpt lat="47.31096" lon="4.96309">
        <ele>340</ele>
        <time>2013-03-09T10:26:47.000Z</time>
      </trkpt>
      <trkpt lat="47.31087" lon="4.96286">
        <ele>341</ele>
        <time>2013-03-09T10:26:54.000Z</time>
      </trkpt>
      <trkpt lat="47.31084" lon="4.96282">
        <ele>341</ele>
        <time>2013-03-09T10:26:56.000Z</time>
      </trkpt>
      <trkpt lat="47.31084" lon="4.9628">
        <ele>341</ele>
        <time>2013-03-09T10:26:57.000Z</time>
      </trkpt>
      <trkpt lat="47.31081" lon="4.96276">
        <ele>340</ele>
        <time>2013-03-09T10:26:59.000Z</time>
      </trkpt>
      <trkpt lat="47.3108" lon="4.96274">
        <ele>340</ele>
        <time>2013-03-09T10:27:00.000Z</time>
      </trkpt>
      <trkpt lat="47.31078" lon="4.9627">
        <ele>340</ele>
        <time>2013-03-09T10:27:02.000Z</time>
      </trkpt>
      <trkpt lat="47.31077" lon="4.96268">
        <ele>340</ele>
        <time>2013-03-09T10:27:03.000Z</time>
      </trkpt>
      <trkpt lat="47.31074" lon="4.96264">
        <ele>339</ele>
        <time>2013-03-09T10:27:05.000Z</time>
      </trkpt>
      <trkpt lat="47.31073" lon="4.96262">
        <ele>339</ele>
        <time>2013-03-09T10:27:06.000Z</time>
      </trkpt>
      <trkpt lat="47.3107" lon="4.96258">
        <ele>339</ele>
        <time>2013-03-09T10:27:08.000Z</time>
      </trkpt>
      <trkpt lat="47.31069" lon="4.96256">
        <ele>339</ele>
        <time>2013-03-09T10:27:09.000Z</time>
      </trkpt>
      <trkpt lat="47.31067" lon="4.96251">
        <ele>339</ele>
        <time>2013-03-09T10:27:11.000Z</time>
      </trkpt>
      <trkpt lat="47.31066" lon="4.96249">
        <ele>338</ele>
        <time>2013-03-09T10:27:12.000Z</time>
      </trkpt>
      <trkpt lat="47.31065" lon="4.96245">
        <ele>339</ele>
        <time>2013-03-09T10:27:14.000Z</time>
      </trkpt>
      <trkpt lat="47.31064" lon="4.96243">
        <ele>339</ele>
        <time>2013-03-09T10:27:15.000Z</time>
      </trkpt>
      <trkpt lat="47.31063" lon="4.96238">
        <ele>339</ele>
        <time>2013-03-09T10:27:17.000Z</time>
      </trkpt>
      <trkpt lat="47.31061" lon="4.96235">
        <ele>339</ele>
        <time>2013-03-09T10:27:18.000Z</time>
      </trkpt>
      <trkpt lat="47.3106" lon="4.96231">
        <ele>339</ele>
        <time>2013-03-09T10:27:19.000Z</time>
      </trkpt>
      <trkpt lat="47.31057" lon="4.96229">
        <ele>339</ele>
        <time>2013-03-09T10:27:20.000Z</time>
      </trkpt>
      <trkpt lat="47.31055" lon="4.96224">
        <ele>340</ele>
        <time>2013-03-09T10:27:22.000Z</time>
      </trkpt>
      <trkpt lat="47.31055" lon="4.9622">
        <ele>340</ele>
        <time>2013-03-09T10:27:23.000Z</time>
      </trkpt>
      <trkpt lat="47.31055" lon="4.96217">
        <ele>340</ele>
        <time>2013-03-09T10:27:24.000Z</time>
      </trkpt>
      <trkpt lat="47.31056" lon="4.96214">
        <ele>340</ele>
        <time>2013-03-09T10:27:25.000Z</time>
      </trkpt>
      <trkpt lat="47.31056" lon="4.96207">
        <ele>340</ele>
        <time>2013-03-09T10:27:27.000Z</time>
      </trkpt>
      <trkpt lat="47.31056" lon="4.96205">
        <ele>340</ele>
        <time>2013-03-09T10:27:28.000Z</time>
      </trkpt>
      <trkpt lat="47.31055" lon="4.96199">
        <ele>340</ele>
        <time>2013-03-09T10:27:30.000Z</time>
      </trkpt>
      <trkpt lat="47.31055" lon="4.96196">
        <ele>340</ele>
        <time>2013-03-09T10:27:31.000Z</time>
      </trkpt>
      <trkpt lat="47.31056" lon="4.96191">
        <ele>340</ele>
        <time>2013-03-09T10:27:33.000Z</time>
      </trkpt>
      <trkpt lat="47.31056" lon="4.96189">
        <ele>340</ele>
        <time>2013-03-09T10:27:34.000Z</time>
      </trkpt>
      <trkpt lat="47.31054" lon="4.96184">
        <ele>340</ele>
        <time>2013-03-09T10:27:36.000Z</time>
      </trkpt>
      <trkpt lat="47.31054" lon="4.96181">
        <ele>340</ele>
        <time>2013-03-09T10:27:37.000Z</time>
      </trkpt>
      <trkpt lat="47.31053" lon="4.96175">
        <ele>340</ele>
        <time>2013-03-09T10:27:40.000Z</time>
      </trkpt>
      <trkpt lat="47.31052" lon="4.96172">
        <ele>340</ele>
        <time>2013-03-09T10:27:41.000Z</time>
      </trkpt>
      <trkpt lat="47.31051" lon="4.96167">
        <ele>341</ele>
        <time>2013-03-09T10:27:43.000Z</time>
      </trkpt>
      <trkpt lat="47.31051" lon="4.96164">
        <ele>341</ele>
        <time>2013-03-09T10:27:44.000Z</time>
      </trkpt>
      <trkpt lat="47.31052" lon="4.96159">
        <ele>341</ele>
        <time>2013-03-09T10:27:46.000Z</time>
      </trkpt>
      <trkpt lat="47.31052" lon="4.96156">
        <ele>341</ele>
        <time>2013-03-09T10:27:47.000Z</time>
      </trkpt>
      <trkpt lat="47.31052" lon="4.9613">
        <ele>342</ele>
        <time>2013-03-09T10:27:54.000Z</time>
      </trkpt>
      <trkpt lat="47.31052" lon="4.96124">
        <ele>342</ele>
        <time>2013-03-09T10:27:56.000Z</time>
      </trkpt>
      <trkpt lat="47.31052" lon="4.96122">
        <ele>343</ele>
        <time>2013-03-09T10:27:57.000Z</time>
      </trkpt>
      <trkpt lat="47.31054" lon="4.96117">
        <ele>343</ele>
        <time>2013-03-09T10:28:00.000Z</time>
      </trkpt>
      <trkpt lat="47.31054" lon="4.96116">
        <ele>343</ele>
        <time>2013-03-09T10:28:01.000Z</time>
      </trkpt>
      <trkpt lat="47.31054" lon="4.9611">
        <ele>343</ele>
        <time>2013-03-09T10:28:04.000Z</time>
      </trkpt>
      <trkpt lat="47.31054" lon="4.96108">
        <ele>343</ele>
        <time>2013-03-09T10:28:05.000Z</time>
      </trkpt>
      <trkpt lat="47.31054" lon="4.96102">
        <ele>343</ele>
        <time>2013-03-09T10:28:08.000Z</time>
      </trkpt>
      <trkpt lat="47.31053" lon="4.96099">
        <ele>343</ele>
        <time>2013-03-09T10:28:09.000Z</time>
      </trkpt>
      <trkpt lat="47.31055" lon="4.96093">
        <ele>344</ele>
        <time>2013-03-09T10:28:12.000Z</time>
      </trkpt>
      <trkpt lat="47.31055" lon="4.96091">
        <ele>344</ele>
        <time>2013-03-09T10:28:13.000Z</time>
      </trkpt>
      <trkpt lat="47.31057" lon="4.96085">
        <ele>344</ele>
        <time>2013-03-09T10:28:16.000Z</time>
      </trkpt>
      <trkpt lat="47.31056" lon="4.96083">
        <ele>349</ele>
        <time>2013-03-09T10:28:17.000Z</time>
      </trkpt>
      <trkpt lat="47.31057" lon="4.96078">
        <ele>349</ele>
        <time>2013-03-09T10:28:19.000Z</time>
      </trkpt>
      <trkpt lat="47.31057" lon="4.96075">
        <ele>349</ele>
        <time>2013-03-09T10:28:20.000Z</time>
      </trkpt>
      <trkpt lat="47.31059" lon="4.9607">
        <ele>349</ele>
        <time>2013-03-09T10:28:22.000Z</time>
      </trkpt>
      <trkpt lat="47.31059" lon="4.96068">
        <ele>349</ele>
        <time>2013-03-09T10:28:23.000Z</time>
      </trkpt>
      <trkpt lat="47.3106" lon="4.96064">
        <ele>349</ele>
        <time>2013-03-09T10:28:25.000Z</time>
      </trkpt>
      <trkpt lat="47.3106" lon="4.96061">
        <ele>349</ele>
        <time>2013-03-09T10:28:26.000Z</time>
      </trkpt>
      <trkpt lat="47.31061" lon="4.96057">
        <ele>350</ele>
        <time>2013-03-09T10:28:28.000Z</time>
      </trkpt>
      <trkpt lat="47.31062" lon="4.96055">
        <ele>350</ele>
        <time>2013-03-09T10:28:29.000Z</time>
      </trkpt>
      <trkpt lat="47.31062" lon="4.96049">
        <ele>350</ele>
        <time>2013-03-09T10:28:31.000Z</time>
      </trkpt>
      <trkpt lat="47.31062" lon="4.96047">
        <ele>350</ele>
        <time>2013-03-09T10:28:32.000Z</time>
      </trkpt>
      <trkpt lat="47.31063" lon="4.96042">
        <ele>350</ele>
        <time>2013-03-09T10:28:34.000Z</time>
      </trkpt>
      <trkpt lat="47.31063" lon="4.96039">
        <ele>351</ele>
        <time>2013-03-09T10:28:35.000Z</time>
      </trkpt>
      <trkpt lat="47.31064" lon="4.96034">
        <ele>351</ele>
        <time>2013-03-09T10:28:37.000Z</time>
      </trkpt>
      <trkpt lat="47.31065" lon="4.96031">
        <ele>351</ele>
        <time>2013-03-09T10:28:38.000Z</time>
      </trkpt>
      <trkpt lat="47.31065" lon="4.96025">
        <ele>351</ele>
        <time>2013-03-09T10:28:40.000Z</time>
      </trkpt>
      <trkpt lat="47.31065" lon="4.96022">
        <ele>351</ele>
        <time>2013-03-09T10:28:41.000Z</time>
      </trkpt>
      <trkpt lat="47.31066" lon="4.96016">
        <ele>351</ele>
        <time>2013-03-09T10:28:44.000Z</time>
      </trkpt>
      <trkpt lat="47.31066" lon="4.96014">
        <ele>351</ele>
        <time>2013-03-09T10:28:45.000Z</time>
      </trkpt>
      <trkpt lat="47.31066" lon="4.96008">
        <ele>351</ele>
        <time>2013-03-09T10:28:48.000Z</time>
      </trkpt>
      <trkpt lat="47.31064" lon="4.95988">
        <ele>356</ele>
        <time>2013-03-09T10:28:54.000Z</time>
      </trkpt>
      <trkpt lat="47.31064" lon="4.95984">
        <ele>356</ele>
        <time>2013-03-09T10:28:56.000Z</time>
      </trkpt>
      <trkpt lat="47.31061" lon="4.95982">
        <ele>357</ele>
        <time>2013-03-09T10:28:57.000Z</time>
      </trkpt>
      <trkpt lat="47.31062" lon="4.95976">
        <ele>357</ele>
        <time>2013-03-09T10:29:00.000Z</time>
      </trkpt>
      <trkpt lat="47.31063" lon="4.95974">
        <ele>357</ele>
        <time>2013-03-09T10:29:01.000Z</time>
      </trkpt>
      <trkpt lat="47.31062" lon="4.95967">
        <ele>357</ele>
        <time>2013-03-09T10:29:04.000Z</time>
      </trkpt>
      <trkpt lat="47.31063" lon="4.95966">
        <ele>357</ele>
        <time>2013-03-09T10:29:05.000Z</time>
      </trkpt>
      <trkpt lat="47.31063" lon="4.9596">
        <ele>358</ele>
        <time>2013-03-09T10:29:08.000Z</time>
      </trkpt>
      <trkpt lat="47.31063" lon="4.95957">
        <ele>358</ele>
        <time>2013-03-09T10:29:09.000Z</time>
      </trkpt>
      <trkpt lat="47.31064" lon="4.95952">
        <ele>358</ele>
        <time>2013-03-09T10:29:11.000Z</time>
      </trkpt>
      <trkpt lat="47.31065" lon="4.95949">
        <ele>358</ele>
        <time>2013-03-09T10:29:12.000Z</time>
      </trkpt>
      <trkpt lat="47.31066" lon="4.95943">
        <ele>358</ele>
        <time>2013-03-09T10:29:14.000Z</time>
      </trkpt>
      <trkpt lat="47.31066" lon="4.9594">
        <ele>358</ele>
        <time>2013-03-09T10:29:15.000Z</time>
      </trkpt>
      <trkpt lat="47.31065" lon="4.95935">
        <ele>358</ele>
        <time>2013-03-09T10:29:17.000Z</time>
      </trkpt>
      <trkpt lat="47.31065" lon="4.95932">
        <ele>358</ele>
        <time>2013-03-09T10:29:18.000Z</time>
      </trkpt>
      <trkpt lat="47.31065" lon="4.95926">
        <ele>357</ele>
        <time>2013-03-09T10:29:21.000Z</time>
      </trkpt>
      <trkpt lat="47.31063" lon="4.95923">
        <ele>358</ele>
        <time>2013-03-09T10:29:22.000Z</time>
      </trkpt>
      <trkpt lat="47.31061" lon="4.95919">
        <ele>358</ele>
        <time>2013-03-09T10:29:23.000Z</time>
      </trkpt>
      <trkpt lat="47.3106" lon="4.95916">
        <ele>359</ele>
        <time>2013-03-09T10:29:24.000Z</time>
      </trkpt>
      <trkpt lat="47.31059" lon="4.9591">
        <ele>360</ele>
        <time>2013-03-09T10:29:26.000Z</time>
      </trkpt>
      <trkpt lat="47.31058" lon="4.95907">
        <ele>360</ele>
        <time>2013-03-09T10:29:27.000Z</time>
      </trkpt>
      <trkpt lat="47.31057" lon="4.95902">
        <ele>360</ele>
        <time>2013-03-09T10:29:29.000Z</time>
      </trkpt>
      <trkpt lat="47.31057" lon="4.95899">
        <ele>361</ele>
        <time>2013-03-09T10:29:30.000Z</time>
      </trkpt>
      <trkpt lat="47.31056" lon="4.95895">
        <ele>361</ele>
        <time>2013-03-09T10:29:32.000Z</time>
      </trkpt>
      <trkpt lat="47.31056" lon="4.95892">
        <ele>361</ele>
        <time>2013-03-09T10:29:33.000Z</time>
      </trkpt>
      <trkpt lat="47.31056" lon="4.95887">
        <ele>361</ele>
        <time>2013-03-09T10:29:35.000Z</time>
      </trkpt>
      <trkpt lat="47.31056" lon="4.95885">
        <ele>361</ele>
        <time>2013-03-09T10:29:36.000Z</time>
      </trkpt>
      <trkpt lat="47.31055" lon="4.95878">
        <ele>361</ele>
        <time>2013-03-09T10:29:39.000Z</time>
      </trkpt>
      <trkpt lat="47.31054" lon="4.95876">
        <ele>361</ele>
        <time>2013-03-09T10:29:40.000Z</time>
      </trkpt>
      <trkpt lat="47.31054" lon="4.95871">
        <ele>362</ele>
        <time>2013-03-09T10:29:42.000Z</time>
      </trkpt>
      <trkpt lat="47.31053" lon="4.95869">
        <ele>362</ele>
        <time>2013-03-09T10:29:43.000Z</time>
      </trkpt>
      <trkpt lat="47.31052" lon="4.95864">
        <ele>362</ele>
        <time>2013-03-09T10:29:45.000Z</time>
      </trkpt>
      <trkpt lat="47.31051" lon="4.95861">
        <ele>362</ele>
        <time>2013-03-09T10:29:46.000Z</time>
      </trkpt>
      <trkpt lat="47.3105" lon="4.95858">
        <ele>362</ele>
        <time>2013-03-09T10:29:47.000Z</time>
      </trkpt>
      <trkpt lat="47.31048" lon="4.95855">
        <ele>362</ele>
        <time>2013-03-09T10:29:48.000Z</time>
      </trkpt>
      <trkpt lat="47.31046" lon="4.95822">
        <ele>362</ele>
        <time>2013-03-09T10:29:57.000Z</time>
      </trkpt>
      <trkpt lat="47.31046" lon="4.95817">
        <ele>362</ele>
        <time>2013-03-09T10:29:59.000Z</time>
      </trkpt>
      <trkpt lat="47.31046" lon="4.95815">
        <ele>362</ele>
        <time>2013-03-09T10:30:00.000Z</time>
      </trkpt>
      <trkpt lat="47.31045" lon="4.95811">
        <ele>362</ele>
        <time>2013-03-09T10:30:02.000Z</time>
      </trkpt>
      <trkpt lat="47.31044" lon="4.95808">
        <ele>362</ele>
        <time>2013-03-09T10:30:03.000Z</time>
      </trkpt>
      <trkpt lat="47.31043" lon="4.95803">
        <ele>362</ele>
        <time>2013-03-09T10:30:06.000Z</time>
      </trkpt>
      <trkpt lat="47.31043" lon="4.95801">
        <ele>362</ele>
        <time>2013-03-09T10:30:07.000Z</time>
      </trkpt>
      <trkpt lat="47.31041" lon="4.95795">
        <ele>362</ele>
        <time>2013-03-09T10:30:12.000Z</time>
      </trkpt>
      <trkpt lat="47.31041" lon="4.95789">
        <ele>362</ele>
        <time>2013-03-09T10:30:13.000Z</time>
      </trkpt>
      <trkpt lat="47.31041" lon="4.95783">
        <ele>362</ele>
        <time>2013-03-09T10:30:19.000Z</time>
      </trkpt>
      <trkpt lat="47.31041" lon="4.95782">
        <ele>362</ele>
        <time>2013-03-09T10:30:20.000Z</time>
      </trkpt>
      <trkpt lat="47.31043" lon="4.95776">
        <ele>362</ele>
        <time>2013-03-09T10:30:24.000Z</time>
      </trkpt>
      <trkpt lat="47.31043" lon="4.95775">
        <ele>362</ele>
        <time>2013-03-09T10:30:25.000Z</time>
      </trkpt>
      <trkpt lat="47.31045" lon="4.95769">
        <ele>362</ele>
        <time>2013-03-09T10:30:31.000Z</time>
      </trkpt>
      <trkpt lat="47.31046" lon="4.95769">
        <ele>362</ele>
        <time>2013-03-09T10:30:32.000Z</time>
      </trkpt>
      <trkpt lat="47.31049" lon="4.95765">
        <ele>362</ele>
        <time>2013-03-09T10:30:36.000Z</time>
      </trkpt>
      <trkpt lat="47.3105" lon="4.95764">
        <ele>362</ele>
        <time>2013-03-09T10:30:37.000Z</time>
      </trkpt>
      <trkpt lat="47.31052" lon="4.9576">
        <ele>362</ele>
        <time>2013-03-09T10:30:40.000Z</time>
      </trkpt>
      <trkpt lat="47.31052" lon="4.95758">
        <ele>362</ele>
        <time>2013-03-09T10:30:41.000Z</time>
      </trkpt>
      <trkpt lat="47.31054" lon="4.95753">
        <ele>362</ele>
        <time>2013-03-09T10:30:45.000Z</time>
      </trkpt>
      <trkpt lat="47.31055" lon="4.95752">
        <ele>362</ele>
        <time>2013-03-09T10:30:46.000Z</time>
      </trkpt>
      <trkpt lat="47.31056" lon="4.95749">
        <ele>364</ele>
        <time>2013-03-09T10:30:48.000Z</time>
      </trkpt>
      <trkpt lat="47.31088" lon="4.95691">
        <ele>374</ele>
        <time>2013-03-09T10:31:09.000Z</time>
      </trkpt>
      <trkpt lat="47.31091" lon="4.95688">
        <ele>374</ele>
        <time>2013-03-09T10:31:27.000Z</time>
      </trkpt>
      <trkpt lat="47.31092" lon="4.95687">
        <ele>374</ele>
        <time>2013-03-09T10:31:28.000Z</time>
      </trkpt>
      <trkpt lat="47.31094" lon="4.95682">
        <ele>374</ele>
        <time>2013-03-09T10:31:34.000Z</time>
      </trkpt>
      <trkpt lat="47.31095" lon="4.9568">
        <ele>374</ele>
        <time>2013-03-09T10:31:35.000Z</time>
      </trkpt>
      <trkpt lat="47.31096" lon="4.95675">
        <ele>373</ele>
        <time>2013-03-09T10:31:38.000Z</time>
      </trkpt>
      <trkpt lat="47.31096" lon="4.95673">
        <ele>373</ele>
        <time>2013-03-09T10:31:39.000Z</time>
      </trkpt>
      <trkpt lat="47.31098" lon="4.95668">
        <ele>374</ele>
        <time>2013-03-09T10:31:43.000Z</time>
      </trkpt>
      <trkpt lat="47.31099" lon="4.95666">
        <ele>376</ele>
        <time>2013-03-09T10:31:44.000Z</time>
      </trkpt>
      <trkpt lat="47.31102" lon="4.95663">
        <ele>377</ele>
        <time>2013-03-09T10:31:47.000Z</time>
      </trkpt>
      <trkpt lat="47.31104" lon="4.95662">
        <ele>377</ele>
        <time>2013-03-09T10:31:48.000Z</time>
      </trkpt>
      <trkpt lat="47.31115" lon="4.95643">
        <ele>380</ele>
        <time>2013-03-09T10:31:57.000Z</time>
      </trkpt>
      <trkpt lat="47.31117" lon="4.95639">
        <ele>381</ele>
        <time>2013-03-09T10:32:02.000Z</time>
      </trkpt>
      <trkpt lat="47.31117" lon="4.95637">
        <ele>381</ele>
        <time>2013-03-09T10:32:03.000Z</time>
      </trkpt>
      <trkpt lat="47.31118" lon="4.9563">
        <ele>381</ele>
        <time>2013-03-09T10:32:07.000Z</time>
      </trkpt>
      <trkpt lat="47.31119" lon="4.95629">
        <ele>381</ele>
        <time>2013-03-09T10:32:08.000Z</time>
      </trkpt>
      <trkpt lat="47.31119" lon="4.95624">
        <ele>382</ele>
        <time>2013-03-09T10:32:11.000Z</time>
      </trkpt>
      <trkpt lat="47.3112" lon="4.95623">
        <ele>382</ele>
        <time>2013-03-09T10:32:12.000Z</time>
      </trkpt>
      <trkpt lat="47.31122" lon="4.95618">
        <ele>382</ele>
        <time>2013-03-09T10:32:15.000Z</time>
      </trkpt>
      <trkpt lat="47.31122" lon="4.95616">
        <ele>382</ele>
        <time>2013-03-09T10:32:16.000Z</time>
      </trkpt>
      <trkpt lat="47.31123" lon="4.9561">
        <ele>383</ele>
        <time>2013-03-09T10:32:19.000Z</time>
      </trkpt>
      <trkpt lat="47.31123" lon="4.95608">
        <ele>383</ele>
        <time>2013-03-09T10:32:20.000Z</time>
      </trkpt>
      <trkpt lat="47.31124" lon="4.95602">
        <ele>383</ele>
        <time>2013-03-09T10:32:23.000Z</time>
      </trkpt>
      <trkpt lat="47.31124" lon="4.95601">
        <ele>383</ele>
        <time>2013-03-09T10:32:24.000Z</time>
      </trkpt>
      <trkpt lat="47.31125" lon="4.95596">
        <ele>383</ele>
        <time>2013-03-09T10:32:26.000Z</time>
      </trkpt>
      <trkpt lat="47.31126" lon="4.95594">
        <ele>383</ele>
        <time>2013-03-09T10:32:27.000Z</time>
      </trkpt>
      <trkpt lat="47.31127" lon="4.95588">
        <ele>384</ele>
        <time>2013-03-09T10:32:30.000Z</time>
      </trkpt>
      <trkpt lat="47.31129" lon="4.95587">
        <ele>384</ele>
        <time>2013-03-09T10:32:31.000Z</time>
      </trkpt>
      <trkpt lat="47.31132" lon="4.95582">
        <ele>389</ele>
        <time>2013-03-09T10:32:34.000Z</time>
      </trkpt>
      <trkpt lat="47.31132" lon="4.9558">
        <ele>389</ele>
        <time>2013-03-09T10:32:35.000Z</time>
      </trkpt>
      <trkpt lat="47.31134" lon="4.95576">
        <ele>389</ele>
        <time>2013-03-09T10:32:37.000Z</time>
      </trkpt>
      <trkpt lat="47.31135" lon="4.95574">
        <ele>389</ele>
        <time>2013-03-09T10:32:38.000Z</time>
      </trkpt>
      <trkpt lat="47.31137" lon="4.9557">
        <ele>389</ele>
        <time>2013-03-09T10:32:40.000Z</time>
      </trkpt>
      <trkpt lat="47.31139" lon="4.95568">
        <ele>389</ele>
        <time>2013-03-09T10:32:41.000Z</time>
      </trkpt>
      <trkpt lat="47.31141" lon="4.95565">
        <ele>389</ele>
        <time>2013-03-09T10:32:43.000Z</time>
      </trkpt>
      <trkpt lat="47.31142" lon="4.95564">
        <ele>389</ele>
        <time>2013-03-09T10:32:44.000Z</time>
      </trkpt>
      <trkpt lat="47.31145" lon="4.95559">
        <ele>389</ele>
        <time>2013-03-09T10:32:47.000Z</time>
      </trkpt>
      <trkpt lat="47.31145" lon="4.95558">
        <ele>389</ele>
        <time>2013-03-09T10:32:48.000Z</time>
      </trkpt>
      <trkpt lat="47.31147" lon="4.95554">
        <ele>389</ele>
        <time>2013-03-09T10:32:51.000Z</time>
      </trkpt>
      <trkpt lat="47.31148" lon="4.95553">
        <ele>389</ele>
        <time>2013-03-09T10:32:52.000Z</time>
      </trkpt>
      <trkpt lat="47.31148" lon="4.95546">
        <ele>390</ele>
        <time>2013-03-09T10:32:55.000Z</time>
      </trkpt>
      <trkpt lat="47.31148" lon="4.95544">
        <ele>390</ele>
        <time>2013-03-09T10:32:56.000Z</time>
      </trkpt>
      <trkpt lat="47.31148" lon="4.95538">
        <ele>390</ele>
        <time>2013-03-09T10:32:59.000Z</time>
      </trkpt>
      <trkpt lat="47.31149" lon="4.95536">
        <ele>390</ele>
        <time>2013-03-09T10:33:00.000Z</time>
      </trkpt>
      <trkpt lat="47.3115" lon="4.9553">
        <ele>391</ele>
        <time>2013-03-09T10:33:03.000Z</time>
      </trkpt>
      <trkpt lat="47.31151" lon="4.95528">
        <ele>391</ele>
        <time>2013-03-09T10:33:04.000Z</time>
      </trkpt>
      <trkpt lat="47.31153" lon="4.95523">
        <ele>391</ele>
        <time>2013-03-09T10:33:07.000Z</time>
      </trkpt>
      <trkpt lat="47.31154" lon="4.95521">
        <ele>391</ele>
        <time>2013-03-09T10:33:08.000Z</time>
      </trkpt>
      <trkpt lat="47.31155" lon="4.95517">
        <ele>391</ele>
        <time>2013-03-09T10:33:10.000Z</time>
      </trkpt>
      <trkpt lat="47.31156" lon="4.95514">
        <ele>392</ele>
        <time>2013-03-09T10:33:11.000Z</time>
      </trkpt>
      <trkpt lat="47.31157" lon="4.95508">
        <ele>392</ele>
        <time>2013-03-09T10:33:14.000Z</time>
      </trkpt>
      <trkpt lat="47.31157" lon="4.95506">
        <ele>392</ele>
        <time>2013-03-09T10:33:15.000Z</time>
      </trkpt>
      <trkpt lat="47.31158" lon="4.955">
        <ele>392</ele>
        <time>2013-03-09T10:33:17.000Z</time>
      </trkpt>
      <trkpt lat="47.31158" lon="4.95498">
        <ele>394</ele>
        <time>2013-03-09T10:33:18.000Z</time>
      </trkpt>
      <trkpt lat="47.3116" lon="4.95493">
        <ele>394</ele>
        <time>2013-03-09T10:33:20.000Z</time>
      </trkpt>
      <trkpt lat="47.31161" lon="4.95492">
        <ele>394</ele>
        <time>2013-03-09T10:33:21.000Z</time>
      </trkpt>
      <trkpt lat="47.31163" lon="4.95486">
        <ele>395</ele>
        <time>2013-03-09T10:33:24.000Z</time>
      </trkpt>
      <trkpt lat="47.31163" lon="4.95484">
        <ele>395</ele>
        <time>2013-03-09T10:33:25.000Z</time>
      </trkpt>
      <trkpt lat="47.31164" lon="4.95478">
        <ele>395</ele>
        <time>2013-03-09T10:33:28.000Z</time>
      </trkpt>
      <trkpt lat="47.31164" lon="4.95476">
        <ele>395</ele>
        <time>2013-03-09T10:33:29.000Z</time>
      </trkpt>
      <trkpt lat="47.31165" lon="4.9547">
        <ele>396</ele>
        <time>2013-03-09T10:33:32.000Z</time>
      </trkpt>
      <trkpt lat="47.31166" lon="4.95468">
        <ele>396</ele>
        <time>2013-03-09T10:33:33.000Z</time>
      </trkpt>
      <trkpt lat="47.31167" lon="4.95463">
        <ele>400</ele>
        <time>2013-03-09T10:33:36.000Z</time>
      </trkpt>
      <trkpt lat="47.31167" lon="4.9546">
        <ele>400</ele>
        <time>2013-03-09T10:33:37.000Z</time>
      </trkpt>
      <trkpt lat="47.31169" lon="4.95454">
        <ele>400</ele>
        <time>2013-03-09T10:33:40.000Z</time>
      </trkpt>
      <trkpt lat="47.31169" lon="4.95452">
        <ele>400</ele>
        <time>2013-03-09T10:33:41.000Z</time>
      </trkpt>
      <trkpt lat="47.3117" lon="4.95447">
        <ele>400</ele>
        <time>2013-03-09T10:33:43.000Z</time>
      </trkpt>
      <trkpt lat="47.31171" lon="4.95445">
        <ele>400</ele>
        <time>2013-03-09T10:33:44.000Z</time>
      </trkpt>
      <trkpt lat="47.31172" lon="4.95441">
        <ele>400</ele>
        <time>2013-03-09T10:33:46.000Z</time>
      </trkpt>
      <trkpt lat="47.31173" lon="4.95439">
        <ele>400</ele>
        <time>2013-03-09T10:33:47.000Z</time>
      </trkpt>
      <trkpt lat="47.31174" lon="4.95437">
        <ele>400</ele>
        <time>2013-03-09T10:33:48.000Z</time>
      </trkpt>
      <trkpt lat="47.31192" lon="4.95412">
        <ele>402</ele>
        <time>2013-03-09T10:33:58.000Z</time>
      </trkpt>
      <trkpt lat="47.31192" lon="4.95407">
        <ele>402</ele>
        <time>2013-03-09T10:34:01.000Z</time>
      </trkpt>
      <trkpt lat="47.31194" lon="4.95406">
        <ele>403</ele>
        <time>2013-03-09T10:34:02.000Z</time>
      </trkpt>
      <trkpt lat="47.31196" lon="4.95401">
        <ele>403</ele>
        <time>2013-03-09T10:34:06.000Z</time>
      </trkpt>
      <trkpt lat="47.31196" lon="4.95399">
        <ele>403</ele>
        <time>2013-03-09T10:34:07.000Z</time>
      </trkpt>
      <trkpt lat="47.31196" lon="4.95392">
        <ele>403</ele>
        <time>2013-03-09T10:34:11.000Z</time>
      </trkpt>
      <trkpt lat="47.31196" lon="4.9539">
        <ele>404</ele>
        <time>2013-03-09T10:34:12.000Z</time>
      </trkpt>
      <trkpt lat="47.31197" lon="4.95385">
        <ele>404</ele>
        <time>2013-03-09T10:34:15.000Z</time>
      </trkpt>
      <trkpt lat="47.31197" lon="4.95383">
        <ele>404</ele>
        <time>2013-03-09T10:34:16.000Z</time>
      </trkpt>
      <trkpt lat="47.31199" lon="4.95377">
        <ele>404</ele>
        <time>2013-03-09T10:34:19.000Z</time>
      </trkpt>
      <trkpt lat="47.31199" lon="4.95375">
        <ele>404</ele>
        <time>2013-03-09T10:34:20.000Z</time>
      </trkpt>
      <trkpt lat="47.31202" lon="4.95372">
        <ele>405</ele>
        <time>2013-03-09T10:34:22.000Z</time>
      </trkpt>
      <trkpt lat="47.31203" lon="4.95371">
        <ele>405</ele>
        <time>2013-03-09T10:34:23.000Z</time>
      </trkpt>
      <trkpt lat="47.31205" lon="4.95367">
        <ele>405</ele>
        <time>2013-03-09T10:34:25.000Z</time>
      </trkpt>
      <trkpt lat="47.31206" lon="4.95365">
        <ele>405</ele>
        <time>2013-03-09T10:34:26.000Z</time>
      </trkpt>
      <trkpt lat="47.31208" lon="4.9536">
        <ele>405</ele>
        <time>2013-03-09T10:34:28.000Z</time>
      </trkpt>
      <trkpt lat="47.31209" lon="4.95358">
        <ele>405</ele>
        <time>2013-03-09T10:34:29.000Z</time>
      </trkpt>
      <trkpt lat="47.31211" lon="4.95353">
        <ele>405</ele>
        <time>2013-03-09T10:34:32.000Z</time>
      </trkpt>
      <trkpt lat="47.31212" lon="4.95352">
        <ele>405</ele>
        <time>2013-03-09T10:34:33.000Z</time>
      </trkpt>
      <trkpt lat="47.31214" lon="4.95347">
        <ele>406</ele>
        <time>2013-03-09T10:34:36.000Z</time>
      </trkpt>
      <trkpt lat="47.31215" lon="4.95345">
        <ele>406</ele>
        <time>2013-03-09T10:34:37.000Z</time>
      </trkpt>
      <trkpt lat="47.31215" lon="4.9534">
        <ele>406</ele>
        <time>2013-03-09T10:34:40.000Z</time>
      </trkpt>
      <trkpt lat="47.31216" lon="4.95338">
        <ele>406</ele>
        <time>2013-03-09T10:34:41.000Z</time>
      </trkpt>
      <trkpt lat="47.31217" lon="4.95333">
        <ele>409</ele>
        <time>2013-03-09T10:34:44.000Z</time>
      </trkpt>
      <trkpt lat="47.31217" lon="4.95332">
        <ele>409</ele>
        <time>2013-03-09T10:34:45.000Z</time>
      </trkpt>
      <trkpt lat="47.31218" lon="4.95325">
        <ele>409</ele>
        <time>2013-03-09T10:34:48.000Z</time>
      </trkpt>
      <trkpt lat="47.31224" lon="4.95302">
        <ele>409</ele>
        <time>2013-03-09T10:34:54.000Z</time>
      </trkpt>
      <trkpt lat="47.31225" lon="4.95297">
        <ele>409</ele>
        <time>2013-03-09T10:34:57.000Z</time>
      </trkpt>
      <trkpt lat="47.31225" lon="4.95296">
        <ele>409</ele>
        <time>2013-03-09T10:34:58.000Z</time>
      </trkpt>
      <trkpt lat="47.31225" lon="4.95291">
        <ele>410</ele>
        <time>2013-03-09T10:35:01.000Z</time>
      </trkpt>
      <trkpt lat="47.31225" lon="4.95289">
        <ele>410</ele>
        <time>2013-03-09T10:35:02.000Z</time>
      </trkpt>
      <trkpt lat="47.31226" lon="4.95284">
        <ele>410</ele>
        <time>2013-03-09T10:35:05.000Z</time>
      </trkpt>
      <trkpt lat="47.31225" lon="4.95282">
        <ele>410</ele>
        <time>2013-03-09T10:35:06.000Z</time>
      </trkpt>
      <trkpt lat="47.31225" lon="4.95277">
        <ele>410</ele>
        <time>2013-03-09T10:35:08.000Z</time>
      </trkpt>
      <trkpt lat="47.31224" lon="4.95275">
        <ele>410</ele>
        <time>2013-03-09T10:35:09.000Z</time>
      </trkpt>
      <trkpt lat="47.31224" lon="4.95269">
        <ele>410</ele>
        <time>2013-03-09T10:35:13.000Z</time>
      </trkpt>
      <trkpt lat="47.31225" lon="4.95267">
        <ele>410</ele>
        <time>2013-03-09T10:35:14.000Z</time>
      </trkpt>
      <trkpt lat="47.31227" lon="4.95263">
        <ele>410</ele>
        <time>2013-03-09T10:35:17.000Z</time>
      </trkpt>
      <trkpt lat="47.31227" lon="4.95261">
        <ele>410</ele>
        <time>2013-03-09T10:35:18.000Z</time>
      </trkpt>
      <trkpt lat="47.31228" lon="4.95257">
        <ele>410</ele>
        <time>2013-03-09T10:35:21.000Z</time>
      </trkpt>
      <trkpt lat="47.31228" lon="4.95255">
        <ele>410</ele>
        <time>2013-03-09T10:35:22.000Z</time>
      </trkpt>
      <trkpt lat="47.31229" lon="4.9525">
        <ele>412</ele>
        <time>2013-03-09T10:35:24.000Z</time>
      </trkpt>
      <trkpt lat="47.31229" lon="4.95248">
        <ele>412</ele>
        <time>2013-03-09T10:35:25.000Z</time>
      </trkpt>
      <trkpt lat="47.31229" lon="4.95241">
        <ele>412</ele>
        <time>2013-03-09T10:35:28.000Z</time>
      </trkpt>
      <trkpt lat="47.31229" lon="4.95239">
        <ele>412</ele>
        <time>2013-03-09T10:35:29.000Z</time>
      </trkpt>
      <trkpt lat="47.3123" lon="4.95234">
        <ele>413</ele>
        <time>2013-03-09T10:35:32.000Z</time>
      </trkpt>
      <trkpt lat="47.31231" lon="4.95232">
        <ele>413</ele>
        <time>2013-03-09T10:35:33.000Z</time>
      </trkpt>
      <trkpt lat="47.31231" lon="4.95227">
        <ele>413</ele>
        <time>2013-03-09T10:35:35.000Z</time>
      </trkpt>
      <trkpt lat="47.31232" lon="4.95224">
        <ele>413</ele>
        <time>2013-03-09T10:35:36.000Z</time>
      </trkpt>
      <trkpt lat="47.31233" lon="4.95219">
        <ele>413</ele>
        <time>2013-03-09T10:35:38.000Z</time>
      </trkpt>
      <trkpt lat="47.31234" lon="4.95217">
        <ele>413</ele>
        <time>2013-03-09T10:35:39.000Z</time>
      </trkpt>
      <trkpt lat="47.31234" lon="4.95212">
        <ele>413</ele>
        <time>2013-03-09T10:35:41.000Z</time>
      </trkpt>
      <trkpt lat="47.31234" lon="4.95209">
        <ele>413</ele>
        <time>2013-03-09T10:35:42.000Z</time>
      </trkpt>
      <trkpt lat="47.31234" lon="4.95204">
        <ele>413</ele>
        <time>2013-03-09T10:35:44.000Z</time>
      </trkpt>
      <trkpt lat="47.31234" lon="4.95202">
        <ele>413</ele>
        <time>2013-03-09T10:35:45.000Z</time>
      </trkpt>
      <trkpt lat="47.31234" lon="4.95196">
        <ele>413</ele>
        <time>2013-03-09T10:35:47.000Z</time>
      </trkpt>
      <trkpt lat="47.31234" lon="4.95194">
        <ele>414</ele>
        <time>2013-03-09T10:35:48.000Z</time>
      </trkpt>
      <trkpt lat="47.31239" lon="4.9517">
        <ele>414</ele>
        <time>2013-03-09T10:35:54.000Z</time>
      </trkpt>
      <trkpt lat="47.31241" lon="4.95165">
        <ele>415</ele>
        <time>2013-03-09T10:35:59.000Z</time>
      </trkpt>
      <trkpt lat="47.31241" lon="4.95164">
        <ele>415</ele>
        <time>2013-03-09T10:36:00.000Z</time>
      </trkpt>
      <trkpt lat="47.31241" lon="4.95159">
        <ele>415</ele>
        <time>2013-03-09T10:36:02.000Z</time>
      </trkpt>
      <trkpt lat="47.3124" lon="4.95157">
        <ele>415</ele>
        <time>2013-03-09T10:36:03.000Z</time>
      </trkpt>
      <trkpt lat="47.31239" lon="4.95152">
        <ele>415</ele>
        <time>2013-03-09T10:36:05.000Z</time>
      </trkpt>
      <trkpt lat="47.31239" lon="4.9515">
        <ele>415</ele>
        <time>2013-03-09T10:36:06.000Z</time>
      </trkpt>
      <trkpt lat="47.31239" lon="4.95146">
        <ele>415</ele>
        <time>2013-03-09T10:36:08.000Z</time>
      </trkpt>
      <trkpt lat="47.31239" lon="4.95143">
        <ele>415</ele>
        <time>2013-03-09T10:36:09.000Z</time>
      </trkpt>
      <trkpt lat="47.31238" lon="4.95138">
        <ele>415</ele>
        <time>2013-03-09T10:36:11.000Z</time>
      </trkpt>
      <trkpt lat="47.31237" lon="4.95136">
        <ele>415</ele>
        <time>2013-03-09T10:36:12.000Z</time>
      </trkpt>
      <trkpt lat="47.31238" lon="4.95132">
        <ele>415</ele>
        <time>2013-03-09T10:36:14.000Z</time>
      </trkpt>
      <trkpt lat="47.31237" lon="4.95129">
        <ele>415</ele>
        <time>2013-03-09T10:36:15.000Z</time>
      </trkpt>
      <trkpt lat="47.31235" lon="4.95123">
        <ele>416</ele>
        <time>2013-03-09T10:36:17.000Z</time>
      </trkpt>
      <trkpt lat="47.31235" lon="4.9512">
        <ele>416</ele>
        <time>2013-03-09T10:36:18.000Z</time>
      </trkpt>
      <trkpt lat="47.31234" lon="4.95116">
        <ele>416</ele>
        <time>2013-03-09T10:36:19.000Z</time>
      </trkpt>
      <trkpt lat="47.31233" lon="4.95113">
        <ele>416</ele>
        <time>2013-03-09T10:36:20.000Z</time>
      </trkpt>
      <trkpt lat="47.31236" lon="4.95108">
        <ele>416</ele>
        <time>2013-03-09T10:36:22.000Z</time>
      </trkpt>
      <trkpt lat="47.31238" lon="4.95106">
        <ele>416</ele>
        <time>2013-03-09T10:36:23.000Z</time>
      </trkpt>
      <trkpt lat="47.31241" lon="4.95103">
        <ele>416</ele>
        <time>2013-03-09T10:36:26.000Z</time>
      </trkpt>
      <trkpt lat="47.31242" lon="4.95103">
        <ele>416</ele>
        <time>2013-03-09T10:36:27.000Z</time>
      </trkpt>
      <trkpt lat="47.31245" lon="4.95103">
        <ele>415</ele>
        <time>2013-03-09T10:36:30.000Z</time>
      </trkpt>
      <trkpt lat="47.31247" lon="4.95103">
        <ele>415</ele>
        <time>2013-03-09T10:36:31.000Z</time>
      </trkpt>
      <trkpt lat="47.3125" lon="4.95102">
        <ele>415</ele>
        <time>2013-03-09T10:36:33.000Z</time>
      </trkpt>
      <trkpt lat="47.31252" lon="4.95102">
        <ele>416</ele>
        <time>2013-03-09T10:36:34.000Z</time>
      </trkpt>
      <trkpt lat="47.31256" lon="4.95101">
        <ele>416</ele>
        <time>2013-03-09T10:36:38.000Z</time>
      </trkpt>
      <trkpt lat="47.31257" lon="4.95101">
        <ele>416</ele>
        <time>2013-03-09T10:36:39.000Z</time>
      </trkpt>
      <trkpt lat="47.3126" lon="4.95102">
        <ele>416</ele>
        <time>2013-03-09T10:36:41.000Z</time>
      </trkpt>
      <trkpt lat="47.31262" lon="4.95103">
        <ele>416</ele>
        <time>2013-03-09T10:36:42.000Z</time>
      </trkpt>
      <trkpt lat="47.31264" lon="4.95107">
        <ele>416</ele>
        <time>2013-03-09T10:36:44.000Z</time>
      </trkpt>
      <trkpt lat="47.31266" lon="4.95109">
        <ele>416</ele>
        <time>2013-03-09T10:36:45.000Z</time>
      </trkpt>
      <trkpt lat="47.31267" lon="4.95113">
        <ele>416</ele>
        <time>2013-03-09T10:36:47.000Z</time>
      </trkpt>
      <trkpt lat="47.31268" lon="4.95115">
        <ele>416</ele>
        <time>2013-03-09T10:36:48.000Z</time>
      </trkpt>
      <trkpt lat="47.31276" lon="4.95137">
        <ele>416</ele>
        <time>2013-03-09T10:36:55.000Z</time>
      </trkpt>
      <trkpt lat="47.31275" lon="4.95143">
        <ele>416</ele>
        <time>2013-03-09T10:36:58.000Z</time>
      </trkpt>
      <trkpt lat="47.31276" lon="4.95146">
        <ele>416</ele>
        <time>2013-03-09T10:36:59.000Z</time>
      </trkpt>
      <trkpt lat="47.31277" lon="4.9515">
        <ele>416</ele>
        <time>2013-03-09T10:37:01.000Z</time>
      </trkpt>
      <trkpt lat="47.31277" lon="4.95153">
        <ele>416</ele>
        <time>2013-03-09T10:37:02.000Z</time>
      </trkpt>
      <trkpt lat="47.31277" lon="4.95157">
        <ele>416</ele>
        <time>2013-03-09T10:37:04.000Z</time>
      </trkpt>
      <trkpt lat="47.31278" lon="4.9516">
        <ele>416</ele>
        <time>2013-03-09T10:37:05.000Z</time>
      </trkpt>
      <trkpt lat="47.3128" lon="4.95165">
        <ele>416</ele>
        <time>2013-03-09T10:37:08.000Z</time>
      </trkpt>
      <trkpt lat="47.31281" lon="4.95167">
        <ele>415</ele>
        <time>2013-03-09T10:37:09.000Z</time>
      </trkpt>
      <trkpt lat="47.31282" lon="4.95173">
        <ele>415</ele>
        <time>2013-03-09T10:37:12.000Z</time>
      </trkpt>
      <trkpt lat="47.31282" lon="4.95174">
        <ele>415</ele>
        <time>2013-03-09T10:37:13.000Z</time>
      </trkpt>
      <trkpt lat="47.31283" lon="4.95179">
        <ele>415</ele>
        <time>2013-03-09T10:37:16.000Z</time>
      </trkpt>
      <trkpt lat="47.31284" lon="4.95181">
        <ele>415</ele>
        <time>2013-03-09T10:37:17.000Z</time>
      </trkpt>
      <trkpt lat="47.31284" lon="4.95185">
        <ele>415</ele>
        <time>2013-03-09T10:37:19.000Z</time>
      </trkpt>
      <trkpt lat="47.31284" lon="4.95187">
        <ele>415</ele>
        <time>2013-03-09T10:37:20.000Z</time>
      </trkpt>
      <trkpt lat="47.31284" lon="4.95193">
        <ele>415</ele>
        <time>2013-03-09T10:37:23.000Z</time>
      </trkpt>
      <trkpt lat="47.31285" lon="4.95196">
        <ele>415</ele>
        <time>2013-03-09T10:37:24.000Z</time>
      </trkpt>
      <trkpt lat="47.31286" lon="4.952">
        <ele>415</ele>
        <time>2013-03-09T10:37:26.000Z</time>
      </trkpt>
      <trkpt lat="47.31286" lon="4.95203">
        <ele>415</ele>
        <time>2013-03-09T10:37:27.000Z</time>
      </trkpt>
      <trkpt lat="47.31286" lon="4.95208">
        <ele>415</ele>
        <time>2013-03-09T10:37:29.000Z</time>
      </trkpt>
      <trkpt lat="47.31287" lon="4.9521">
        <ele>415</ele>
        <time>2013-03-09T10:37:30.000Z</time>
      </trkpt>
      <trkpt lat="47.31288" lon="4.95216">
        <ele>415</ele>
        <time>2013-03-09T10:37:32.000Z</time>
      </trkpt>
      <trkpt lat="47.31288" lon="4.95218">
        <ele>415</ele>
        <time>2013-03-09T10:37:33.000Z</time>
      </trkpt>
      <trkpt lat="47.31289" lon="4.95223">
        <ele>415</ele>
        <time>2013-03-09T10:37:35.000Z</time>
      </trkpt>
      <trkpt lat="47.3129" lon="4.95225">
        <ele>415</ele>
        <time>2013-03-09T10:37:36.000Z</time>
      </trkpt>
      <trkpt lat="47.31291" lon="4.95231">
        <ele>415</ele>
        <time>2013-03-09T10:37:39.000Z</time>
      </trkpt>
      <trkpt lat="47.31291" lon="4.95233">
        <ele>415</ele>
        <time>2013-03-09T10:37:40.000Z</time>
      </trkpt>
      <trkpt lat="47.31292" lon="4.95238">
        <ele>415</ele>
        <time>2013-03-09T10:37:42.000Z</time>
      </trkpt>
      <trkpt lat="47.31293" lon="4.95241">
        <ele>415</ele>
        <time>2013-03-09T10:37:43.000Z</time>
      </trkpt>
      <trkpt lat="47.31293" lon="4.95247">
        <ele>415</ele>
        <time>2013-03-09T10:37:46.000Z</time>
      </trkpt>
      <trkpt lat="47.31294" lon="4.9525">
        <ele>414</ele>
        <time>2013-03-09T10:37:47.000Z</time>
      </trkpt>
      <trkpt lat="47.31295" lon="4.95253">
        <ele>414</ele>
        <time>2013-03-09T10:37:48.000Z</time>
      </trkpt>
      <trkpt lat="47.31299" lon="4.95279">
        <ele>414</ele>
        <time>2013-03-09T10:37:55.000Z</time>
      </trkpt>
      <trkpt lat="47.313" lon="4.95282">
        <ele>414</ele>
        <time>2013-03-09T10:37:56.000Z</time>
      </trkpt>
      <trkpt lat="47.313" lon="4.95286">
        <ele>414</ele>
        <time>2013-03-09T10:37:57.000Z</time>
      </trkpt>
      <trkpt lat="47.31301" lon="4.95291">
        <ele>414</ele>
        <time>2013-03-09T10:37:59.000Z</time>
      </trkpt>
      <trkpt lat="47.31301" lon="4.95293">
        <ele>415</ele>
        <time>2013-03-09T10:38:00.000Z</time>
      </trkpt>
      <trkpt lat="47.31301" lon="4.95297">
        <ele>415</ele>
        <time>2013-03-09T10:38:02.000Z</time>
      </trkpt>
      <trkpt lat="47.31302" lon="4.953">
        <ele>415</ele>
        <time>2013-03-09T10:38:03.000Z</time>
      </trkpt>
      <trkpt lat="47.31301" lon="4.95305">
        <ele>415</ele>
        <time>2013-03-09T10:38:07.000Z</time>
      </trkpt>
      <trkpt lat="47.31301" lon="4.95307">
        <ele>415</ele>
        <time>2013-03-09T10:38:08.000Z</time>
      </trkpt>
      <trkpt lat="47.31301" lon="4.95312">
        <ele>415</ele>
        <time>2013-03-09T10:38:11.000Z</time>
      </trkpt>
      <trkpt lat="47.31301" lon="4.95313">
        <ele>415</ele>
        <time>2013-03-09T10:38:12.000Z</time>
      </trkpt>
      <trkpt lat="47.31302" lon="4.95318">
        <ele>415</ele>
        <time>2013-03-09T10:38:14.000Z</time>
      </trkpt>
      <trkpt lat="47.31302" lon="4.9532">
        <ele>415</ele>
        <time>2013-03-09T10:38:15.000Z</time>
      </trkpt>
      <trkpt lat="47.31303" lon="4.95324">
        <ele>415</ele>
        <time>2013-03-09T10:38:17.000Z</time>
      </trkpt>
      <trkpt lat="47.31304" lon="4.95326">
        <ele>415</ele>
        <time>2013-03-09T10:38:18.000Z</time>
      </trkpt>
      <trkpt lat="47.31304" lon="4.95331">
        <ele>415</ele>
        <time>2013-03-09T10:38:21.000Z</time>
      </trkpt>
      <trkpt lat="47.31304" lon="4.95333">
        <ele>415</ele>
        <time>2013-03-09T10:38:22.000Z</time>
      </trkpt>
      <trkpt lat="47.31306" lon="4.95336">
        <ele>415</ele>
        <time>2013-03-09T10:38:24.000Z</time>
      </trkpt>
      <trkpt lat="47.31307" lon="4.95339">
        <ele>415</ele>
        <time>2013-03-09T10:38:25.000Z</time>
      </trkpt>
      <trkpt lat="47.31308" lon="4.95344">
        <ele>415</ele>
        <time>2013-03-09T10:38:27.000Z</time>
      </trkpt>
      <trkpt lat="47.31308" lon="4.95347">
        <ele>415</ele>
        <time>2013-03-09T10:38:28.000Z</time>
      </trkpt>
      <trkpt lat="47.31309" lon="4.95352">
        <ele>415</ele>
        <time>2013-03-09T10:38:30.000Z</time>
      </trkpt>
      <trkpt lat="47.31309" lon="4.95355">
        <ele>415</ele>
        <time>2013-03-09T10:38:31.000Z</time>
      </trkpt>
      <trkpt lat="47.3131" lon="4.9536">
        <ele>415</ele>
        <time>2013-03-09T10:38:33.000Z</time>
      </trkpt>
      <trkpt lat="47.3131" lon="4.95363">
        <ele>415</ele>
        <time>2013-03-09T10:38:34.000Z</time>
      </trkpt>
      <trkpt lat="47.3131" lon="4.95369">
        <ele>415</ele>
        <time>2013-03-09T10:38:36.000Z</time>
      </trkpt>
      <trkpt lat="47.31312" lon="4.95373">
        <ele>415</ele>
        <time>2013-03-09T10:38:37.000Z</time>
      </trkpt>
      <trkpt lat="47.31312" lon="4.95379">
        <ele>415</ele>
        <time>2013-03-09T10:38:39.000Z</time>
      </trkpt>
      <trkpt lat="47.31312" lon="4.95383">
        <ele>415</ele>
        <time>2013-03-09T10:38:40.000Z</time>
      </trkpt>
      <trkpt lat="47.31312" lon="4.95389">
        <ele>415</ele>
        <time>2013-03-09T10:38:42.000Z</time>
      </trkpt>
      <trkpt lat="47.31313" lon="4.95392">
        <ele>415</ele>
        <time>2013-03-09T10:38:43.000Z</time>
      </trkpt>
      <trkpt lat="47.31313" lon="4.95398">
        <ele>416</ele>
        <time>2013-03-09T10:38:46.000Z</time>
      </trkpt>
      <trkpt lat="47.31313" lon="4.95399">
        <ele>416</ele>
        <time>2013-03-09T10:38:47.000Z</time>
      </trkpt>
      <trkpt lat="47.31313" lon="4.95402">
        <ele>416</ele>
        <time>2013-03-09T10:38:48.000Z</time>
      </trkpt>
      <trkpt lat="47.31313" lon="4.95426">
        <ele>417</ele>
        <time>2013-03-09T10:38:55.000Z</time>
      </trkpt>
      <trkpt lat="47.31315" lon="4.95431">
        <ele>418</ele>
        <time>2013-03-09T10:38:57.000Z</time>
      </trkpt>
      <trkpt lat="47.31315" lon="4.95433">
        <ele>418</ele>
        <time>2013-03-09T10:38:58.000Z</time>
      </trkpt>
      <trkpt lat="47.31315" lon="4.95439">
        <ele>417</ele>
        <time>2013-03-09T10:39:01.000Z</time>
      </trkpt>
      <trkpt lat="47.31315" lon="4.9544">
        <ele>417</ele>
        <time>2013-03-09T10:39:02.000Z</time>
      </trkpt>
      <trkpt lat="47.31314" lon="4.95445">
        <ele>417</ele>
        <time>2013-03-09T10:39:04.000Z</time>
      </trkpt>
      <trkpt lat="47.31314" lon="4.95448">
        <ele>417</ele>
        <time>2013-03-09T10:39:05.000Z</time>
      </trkpt>
      <trkpt lat="47.31313" lon="4.95452">
        <ele>417</ele>
        <time>2013-03-09T10:39:06.000Z</time>
      </trkpt>
      <trkpt lat="47.31313" lon="4.95454">
        <ele>418</ele>
        <time>2013-03-09T10:39:07.000Z</time>
      </trkpt>
      <trkpt lat="47.31313" lon="4.9546">
        <ele>418</ele>
        <time>2013-03-09T10:39:10.000Z</time>
      </trkpt>
      <trkpt lat="47.31313" lon="4.95462">
        <ele>418</ele>
        <time>2013-03-09T10:39:11.000Z</time>
      </trkpt>
      <trkpt lat="47.31313" lon="4.95468">
        <ele>418</ele>
        <time>2013-03-09T10:39:14.000Z</time>
      </trkpt>
      <trkpt lat="47.31313" lon="4.9547">
        <ele>418</ele>
        <time>2013-03-09T10:39:15.000Z</time>
      </trkpt>
      <trkpt lat="47.31314" lon="4.95476">
        <ele>418</ele>
        <time>2013-03-09T10:39:18.000Z</time>
      </trkpt>
      <trkpt lat="47.31314" lon="4.95478">
        <ele>419</ele>
        <time>2013-03-09T10:39:19.000Z</time>
      </trkpt>
      <trkpt lat="47.31314" lon="4.95482">
        <ele>419</ele>
        <time>2013-03-09T10:39:21.000Z</time>
      </trkpt>
      <trkpt lat="47.31315" lon="4.95484">
        <ele>419</ele>
        <time>2013-03-09T10:39:22.000Z</time>
      </trkpt>
      <trkpt lat="47.31316" lon="4.9549">
        <ele>420</ele>
        <time>2013-03-09T10:39:27.000Z</time>
      </trkpt>
      <trkpt lat="47.31316" lon="4.95491">
        <ele>420</ele>
        <time>2013-03-09T10:39:28.000Z</time>
      </trkpt>
      <trkpt lat="47.31317" lon="4.95497">
        <ele>420</ele>
        <time>2013-03-09T10:39:31.000Z</time>
      </trkpt>
      <trkpt lat="47.31318" lon="4.95499">
        <ele>420</ele>
        <time>2013-03-09T10:39:32.000Z</time>
      </trkpt>
      <trkpt lat="47.31319" lon="4.95504">
        <ele>422</ele>
        <time>2013-03-09T10:39:34.000Z</time>
      </trkpt>
      <trkpt lat="47.3132" lon="4.95506">
        <ele>422</ele>
        <time>2013-03-09T10:39:35.000Z</time>
      </trkpt>
      <trkpt lat="47.31322" lon="4.95511">
        <ele>422</ele>
        <time>2013-03-09T10:39:37.000Z</time>
      </trkpt>
      <trkpt lat="47.31323" lon="4.95514">
        <ele>422</ele>
        <time>2013-03-09T10:39:38.000Z</time>
      </trkpt>
      <trkpt lat="47.31325" lon="4.95518">
        <ele>422</ele>
        <time>2013-03-09T10:39:40.000Z</time>
      </trkpt>
      <trkpt lat="47.31326" lon="4.9552">
        <ele>422</ele>
        <time>2013-03-09T10:39:41.000Z</time>
      </trkpt>
      <trkpt lat="47.31329" lon="4.95524">
        <ele>421</ele>
        <time>2013-03-09T10:39:43.000Z</time>
      </trkpt>
      <trkpt lat="47.3133" lon="4.95526">
        <ele>421</ele>
        <time>2013-03-09T10:39:44.000Z</time>
      </trkpt>
      <trkpt lat="47.31333" lon="4.9553">
        <ele>421</ele>
        <time>2013-03-09T10:39:46.000Z</time>
      </trkpt>
      <trkpt lat="47.31334" lon="4.95532">
        <ele>424</ele>
        <time>2013-03-09T10:39:47.000Z</time>
      </trkpt>
      <trkpt lat="47.31335" lon="4.95534">
        <ele>424</ele>
        <time>2013-03-09T10:39:48.000Z</time>
      </trkpt>
      <trkpt lat="47.31352" lon="4.95561">
        <ele>424</ele>
        <time>2013-03-09T10:39:59.000Z</time>
      </trkpt>
      <trkpt lat="47.31356" lon="4.95564">
        <ele>424</ele>
        <time>2013-03-09T10:40:02.000Z</time>
      </trkpt>
      <trkpt lat="47.31357" lon="4.95564">
        <ele>424</ele>
        <time>2013-03-09T10:40:03.000Z</time>
      </trkpt>
      <trkpt lat="47.31359" lon="4.9557">
        <ele>424</ele>
        <time>2013-03-09T10:40:07.000Z</time>
      </trkpt>
      <trkpt lat="47.31361" lon="4.95571">
        <ele>424</ele>
        <time>2013-03-09T10:40:08.000Z</time>
      </trkpt>
      <trkpt lat="47.31364" lon="4.95575">
        <ele>424</ele>
        <time>2013-03-09T10:40:11.000Z</time>
      </trkpt>
      <trkpt lat="47.31365" lon="4.95577">
        <ele>424</ele>
        <time>2013-03-09T10:40:12.000Z</time>
      </trkpt>
      <trkpt lat="47.31367" lon="4.95578">
        <ele>424</ele>
        <time>2013-03-09T10:40:14.000Z</time>
      </trkpt>
      <trkpt lat="47.31369" lon="4.9558">
        <ele>424</ele>
        <time>2013-03-09T10:40:15.000Z</time>
      </trkpt>
      <trkpt lat="47.31373" lon="4.95582">
        <ele>424</ele>
        <time>2013-03-09T10:40:17.000Z</time>
      </trkpt>
      <trkpt lat="47.31375" lon="4.95584">
        <ele>424</ele>
        <time>2013-03-09T10:40:18.000Z</time>
      </trkpt>
      <trkpt lat="47.31378" lon="4.95588">
        <ele>424</ele>
        <time>2013-03-09T10:40:20.000Z</time>
      </trkpt>
      <trkpt lat="47.31379" lon="4.9559">
        <ele>424</ele>
        <time>2013-03-09T10:40:21.000Z</time>
      </trkpt>
      <trkpt lat="47.31381" lon="4.95593">
        <ele>424</ele>
        <time>2013-03-09T10:40:23.000Z</time>
      </trkpt>
      <trkpt lat="47.31382" lon="4.95596">
        <ele>424</ele>
        <time>2013-03-09T10:40:24.000Z</time>
      </trkpt>
      <trkpt lat="47.31385" lon="4.95599">
        <ele>424</ele>
        <time>2013-03-09T10:40:26.000Z</time>
      </trkpt>
      <trkpt lat="47.31386" lon="4.95601">
        <ele>424</ele>
        <time>2013-03-09T10:40:27.000Z</time>
      </trkpt>
      <trkpt lat="47.31389" lon="4.95604">
        <ele>424</ele>
        <time>2013-03-09T10:40:29.000Z</time>
      </trkpt>
      <trkpt lat="47.3139" lon="4.95606">
        <ele>424</ele>
        <time>2013-03-09T10:40:30.000Z</time>
      </trkpt>
      <trkpt lat="47.31392" lon="4.95609">
        <ele>424</ele>
        <time>2013-03-09T10:40:32.000Z</time>
      </trkpt>
      <trkpt lat="47.31393" lon="4.9561">
        <ele>424</ele>
        <time>2013-03-09T10:40:33.000Z</time>
      </trkpt>
      <trkpt lat="47.31397" lon="4.95612">
        <ele>424</ele>
        <time>2013-03-09T10:40:35.000Z</time>
      </trkpt>
      <trkpt lat="47.31399" lon="4.95614">
        <ele>424</ele>
        <time>2013-03-09T10:40:36.000Z</time>
      </trkpt>
      <trkpt lat="47.31403" lon="4.95617">
        <ele>424</ele>
        <time>2013-03-09T10:40:38.000Z</time>
      </trkpt>
      <trkpt lat="47.31404" lon="4.95618">
        <ele>424</ele>
        <time>2013-03-09T10:40:39.000Z</time>
      </trkpt>
      <trkpt lat="47.31407" lon="4.95621">
        <ele>424</ele>
        <time>2013-03-09T10:40:41.000Z</time>
      </trkpt>
      <trkpt lat="47.31409" lon="4.95623">
        <ele>423</ele>
        <time>2013-03-09T10:40:42.000Z</time>
      </trkpt>
      <trkpt lat="47.31412" lon="4.95627">
        <ele>423</ele>
        <time>2013-03-09T10:40:44.000Z</time>
      </trkpt>
      <trkpt lat="47.31414" lon="4.95628">
        <ele>423</ele>
        <time>2013-03-09T10:40:45.000Z</time>
      </trkpt>
      <trkpt lat="47.31416" lon="4.95631">
        <ele>423</ele>
        <time>2013-03-09T10:40:47.000Z</time>
      </trkpt>
      <trkpt lat="47.31418" lon="4.95633">
        <ele>423</ele>
        <time>2013-03-09T10:40:48.000Z</time>
      </trkpt>
      <trkpt lat="47.31429" lon="4.95645">
        <ele>423</ele>
        <time>2013-03-09T10:40:55.000Z</time>
      </trkpt>
      <trkpt lat="47.31433" lon="4.95647">
        <ele>423</ele>
        <time>2013-03-09T10:40:57.000Z</time>
      </trkpt>
      <trkpt lat="47.31435" lon="4.95648">
        <ele>423</ele>
        <time>2013-03-09T10:40:58.000Z</time>
      </trkpt>
      <trkpt lat="47.31437" lon="4.95651">
        <ele>423</ele>
        <time>2013-03-09T10:41:00.000Z</time>
      </trkpt>
      <trkpt lat="47.31439" lon="4.95653">
        <ele>423</ele>
        <time>2013-03-09T10:41:01.000Z</time>
      </trkpt>
      <trkpt lat="47.31442" lon="4.95655">
        <ele>423</ele>
        <time>2013-03-09T10:41:03.000Z</time>
      </trkpt>
      <trkpt lat="47.31443" lon="4.95657">
        <ele>423</ele>
        <time>2013-03-09T10:41:04.000Z</time>
      </trkpt>
      <trkpt lat="47.31446" lon="4.95659">
        <ele>423</ele>
        <time>2013-03-09T10:41:06.000Z</time>
      </trkpt>
      <trkpt lat="47.31447" lon="4.95661">
        <ele>423</ele>
        <time>2013-03-09T10:41:07.000Z</time>
      </trkpt>
      <trkpt lat="47.31451" lon="4.95663">
        <ele>423</ele>
        <time>2013-03-09T10:41:10.000Z</time>
      </trkpt>
      <trkpt lat="47.31452" lon="4.95663">
        <ele>423</ele>
        <time>2013-03-09T10:41:11.000Z</time>
      </trkpt>
      <trkpt lat="47.31456" lon="4.95664">
        <ele>423</ele>
        <time>2013-03-09T10:41:14.000Z</time>
      </trkpt>
      <trkpt lat="47.31457" lon="4.95664">
        <ele>423</ele>
        <time>2013-03-09T10:41:15.000Z</time>
      </trkpt>
      <trkpt lat="47.31461" lon="4.95665">
        <ele>424</ele>
        <time>2013-03-09T10:41:17.000Z</time>
      </trkpt>
      <trkpt lat="47.31462" lon="4.95666">
        <ele>424</ele>
        <time>2013-03-09T10:41:18.000Z</time>
      </trkpt>
      <trkpt lat="47.31466" lon="4.95667">
        <ele>424</ele>
        <time>2013-03-09T10:41:21.000Z</time>
      </trkpt>
      <trkpt lat="47.31468" lon="4.95667">
        <ele>424</ele>
        <time>2013-03-09T10:41:22.000Z</time>
      </trkpt>
      <trkpt lat="47.31472" lon="4.95667">
        <ele>424</ele>
        <time>2013-03-09T10:41:24.000Z</time>
      </trkpt>
      <trkpt lat="47.31473" lon="4.95667">
        <ele>424</ele>
        <time>2013-03-09T10:41:25.000Z</time>
      </trkpt>
      <trkpt lat="47.31476" lon="4.95668">
        <ele>424</ele>
        <time>2013-03-09T10:41:27.000Z</time>
      </trkpt>
      <trkpt lat="47.31478" lon="4.95669">
        <ele>424</ele>
        <time>2013-03-09T10:41:28.000Z</time>
      </trkpt>
      <trkpt lat="47.31482" lon="4.95669">
        <ele>424</ele>
        <time>2013-03-09T10:41:30.000Z</time>
      </trkpt>
      <trkpt lat="47.31484" lon="4.9567">
        <ele>424</ele>
        <time>2013-03-09T10:41:31.000Z</time>
      </trkpt>
      <trkpt lat="47.31487" lon="4.95673">
        <ele>424</ele>
        <time>2013-03-09T10:41:33.000Z</time>
      </trkpt>
      <trkpt lat="47.31488" lon="4.95675">
        <ele>424</ele>
        <time>2013-03-09T10:41:34.000Z</time>
      </trkpt>
      <trkpt lat="47.31491" lon="4.95677">
        <ele>424</ele>
        <time>2013-03-09T10:41:36.000Z</time>
      </trkpt>
      <trkpt lat="47.31492" lon="4.95678">
        <ele>424</ele>
        <time>2013-03-09T10:41:37.000Z</time>
      </trkpt>
      <trkpt lat="47.31496" lon="4.95681">
        <ele>424</ele>
        <time>2013-03-09T10:41:40.000Z</time>
      </trkpt>
      <trkpt lat="47.31497" lon="4.95683">
        <ele>424</ele>
        <time>2013-03-09T10:41:41.000Z</time>
      </trkpt>
      <trkpt lat="47.315" lon="4.95686">
        <ele>424</ele>
        <time>2013-03-09T10:41:43.000Z</time>
      </trkpt>
      <trkpt lat="47.31501" lon="4.95688">
        <ele>423</ele>
        <time>2013-03-09T10:41:44.000Z</time>
      </trkpt>
      <trkpt lat="47.31503" lon="4.9569">
        <ele>423</ele>
        <time>2013-03-09T10:41:45.000Z</time>
      </trkpt>
      <trkpt lat="47.31504" lon="4.95693">
        <ele>423</ele>
        <time>2013-03-09T10:41:46.000Z</time>
      </trkpt>
      <trkpt lat="47.31505" lon="4.95696">
        <ele>423</ele>
        <time>2013-03-09T10:41:47.000Z</time>
      </trkpt>
      <trkpt lat="47.31507" lon="4.957">
        <ele>423</ele>
        <time>2013-03-09T10:41:48.000Z</time>
      </trkpt>
      <trkpt lat="47.3151" lon="4.95741">
        <ele>423</ele>
        <time>2013-03-09T10:41:56.000Z</time>
      </trkpt>
      <trkpt lat="47.31506" lon="4.95743">
        <ele>423</ele>
        <time>2013-03-09T10:41:58.000Z</time>
      </trkpt>
      <trkpt lat="47.31504" lon="4.95744">
        <ele>424</ele>
        <time>2013-03-09T10:41:59.000Z</time>
      </trkpt>
      <trkpt lat="47.31502" lon="4.95749">
        <ele>424</ele>
        <time>2013-03-09T10:42:02.000Z</time>
      </trkpt>
      <trkpt lat="47.31501" lon="4.9575">
        <ele>424</ele>
        <time>2013-03-09T10:42:03.000Z</time>
      </trkpt>
      <trkpt lat="47.31499" lon="4.95755">
        <ele>424</ele>
        <time>2013-03-09T10:42:06.000Z</time>
      </trkpt>
      <trkpt lat="47.31498" lon="4.95757">
        <ele>424</ele>
        <time>2013-03-09T10:42:07.000Z</time>
      </trkpt>
      <trkpt lat="47.31497" lon="4.95764">
        <ele>423</ele>
        <time>2013-03-09T10:42:10.000Z</time>
      </trkpt>
      <trkpt lat="47.31497" lon="4.95765">
        <ele>423</ele>
        <time>2013-03-09T10:42:11.000Z</time>
      </trkpt>
      <trkpt lat="47.31496" lon="4.95771">
        <ele>423</ele>
        <time>2013-03-09T10:42:14.000Z</time>
      </trkpt>
      <trkpt lat="47.31496" lon="4.95774">
        <ele>423</ele>
        <time>2013-03-09T10:42:15.000Z</time>
      </trkpt>
      <trkpt lat="47.31495" lon="4.95779">
        <ele>423</ele>
        <time>2013-03-09T10:42:17.000Z</time>
      </trkpt>
      <trkpt lat="47.31494" lon="4.95781">
        <ele>423</ele>
        <time>2013-03-09T10:42:18.000Z</time>
      </trkpt>
      <trkpt lat="47.31493" lon="4.95786">
        <ele>423</ele>
        <time>2013-03-09T10:42:20.000Z</time>
      </trkpt>
      <trkpt lat="47.31492" lon="4.95788">
        <ele>423</ele>
        <time>2013-03-09T10:42:21.000Z</time>
      </trkpt>
      <trkpt lat="47.31491" lon="4.95794">
        <ele>423</ele>
        <time>2013-03-09T10:42:23.000Z</time>
      </trkpt>
      <trkpt lat="47.3149" lon="4.95797">
        <ele>423</ele>
        <time>2013-03-09T10:42:24.000Z</time>
      </trkpt>
      <trkpt lat="47.31489" lon="4.95803">
        <ele>422</ele>
        <time>2013-03-09T10:42:27.000Z</time>
      </trkpt>
      <trkpt lat="47.31489" lon="4.95806">
        <ele>422</ele>
        <time>2013-03-09T10:42:28.000Z</time>
      </trkpt>
      <trkpt lat="47.31488" lon="4.95811">
        <ele>422</ele>
        <time>2013-03-09T10:42:30.000Z</time>
      </trkpt>
      <trkpt lat="47.31487" lon="4.95814">
        <ele>422</ele>
        <time>2013-03-09T10:42:31.000Z</time>
      </trkpt>
      <trkpt lat="47.31485" lon="4.9582">
        <ele>422</ele>
        <time>2013-03-09T10:42:33.000Z</time>
      </trkpt>
      <trkpt lat="47.31485" lon="4.95823">
        <ele>422</ele>
        <time>2013-03-09T10:42:34.000Z</time>
      </trkpt>
      <trkpt lat="47.31484" lon="4.95829">
        <ele>422</ele>
        <time>2013-03-09T10:42:36.000Z</time>
      </trkpt>
      <trkpt lat="47.31483" lon="4.95831">
        <ele>422</ele>
        <time>2013-03-09T10:42:37.000Z</time>
      </trkpt>
      <trkpt lat="47.31482" lon="4.95837">
        <ele>421</ele>
        <time>2013-03-09T10:42:39.000Z</time>
      </trkpt>
      <trkpt lat="47.31482" lon="4.9584">
        <ele>421</ele>
        <time>2013-03-09T10:42:40.000Z</time>
      </trkpt>
      <trkpt lat="47.31482" lon="4.95845">
        <ele>421</ele>
        <time>2013-03-09T10:42:43.000Z</time>
      </trkpt>
      <trkpt lat="47.31481" lon="4.95846">
        <ele>421</ele>
        <time>2013-03-09T10:42:44.000Z</time>
      </trkpt>
      <trkpt lat="47.31483" lon="4.95851">
        <ele>421</ele>
        <time>2013-03-09T10:42:48.000Z</time>
      </trkpt>
      <trkpt lat="47.31489" lon="4.95869">
        <ele>421</ele>
        <time>2013-03-09T10:42:55.000Z</time>
      </trkpt>
      <trkpt lat="47.31493" lon="4.9587">
        <ele>421</ele>
        <time>2013-03-09T10:42:58.000Z</time>
      </trkpt>
      <trkpt lat="47.31494" lon="4.95871">
        <ele>421</ele>
        <time>2013-03-09T10:42:59.000Z</time>
      </trkpt>
      <trkpt lat="47.31498" lon="4.95873">
        <ele>421</ele>
        <time>2013-03-09T10:43:03.000Z</time>
      </trkpt>
      <trkpt lat="47.31499" lon="4.95874">
        <ele>421</ele>
        <time>2013-03-09T10:43:04.000Z</time>
      </trkpt>
      <trkpt lat="47.31501" lon="4.95876">
        <ele>420</ele>
        <time>2013-03-09T10:43:06.000Z</time>
      </trkpt>
      <trkpt lat="47.31503" lon="4.95877">
        <ele>420</ele>
        <time>2013-03-09T10:43:07.000Z</time>
      </trkpt>
      <trkpt lat="47.31506" lon="4.95879">
        <ele>420</ele>
        <time>2013-03-09T10:43:09.000Z</time>
      </trkpt>
      <trkpt lat="47.31508" lon="4.95881">
        <ele>420</ele>
        <time>2013-03-09T10:43:10.000Z</time>
      </trkpt>
      <trkpt lat="47.31511" lon="4.95883">
        <ele>420</ele>
        <time>2013-03-09T10:43:12.000Z</time>
      </trkpt>
      <trkpt lat="47.31513" lon="4.95885">
        <ele>420</ele>
        <time>2013-03-09T10:43:13.000Z</time>
      </trkpt>
      <trkpt lat="47.31515" lon="4.95886">
        <ele>420</ele>
        <time>2013-03-09T10:43:14.000Z</time>
      </trkpt>
      <trkpt lat="47.31517" lon="4.95888">
        <ele>420</ele>
        <time>2013-03-09T10:43:15.000Z</time>
      </trkpt>
      <trkpt lat="47.3152" lon="4.95892">
        <ele>420</ele>
        <time>2013-03-09T10:43:17.000Z</time>
      </trkpt>
      <trkpt lat="47.31521" lon="4.95893">
        <ele>420</ele>
        <time>2013-03-09T10:43:18.000Z</time>
      </trkpt>
      <trkpt lat="47.31524" lon="4.95896">
        <ele>420</ele>
        <time>2013-03-09T10:43:20.000Z</time>
      </trkpt>
      <trkpt lat="47.31525" lon="4.95898">
        <ele>420</ele>
        <time>2013-03-09T10:43:21.000Z</time>
      </trkpt>
      <trkpt lat="47.31529" lon="4.95901">
        <ele>420</ele>
        <time>2013-03-09T10:43:23.000Z</time>
      </trkpt>
      <trkpt lat="47.3153" lon="4.95902">
        <ele>420</ele>
        <time>2013-03-09T10:43:24.000Z</time>
      </trkpt>
      <trkpt lat="47.31533" lon="4.95905">
        <ele>420</ele>
        <time>2013-03-09T10:43:26.000Z</time>
      </trkpt>
      <trkpt lat="47.31534" lon="4.95906">
        <ele>420</ele>
        <time>2013-03-09T10:43:27.000Z</time>
      </trkpt>
      <trkpt lat="47.31537" lon="4.9591">
        <ele>420</ele>
        <time>2013-03-09T10:43:29.000Z</time>
      </trkpt>
      <trkpt lat="47.31539" lon="4.95912">
        <ele>420</ele>
        <time>2013-03-09T10:43:30.000Z</time>
      </trkpt>
      <trkpt lat="47.31541" lon="4.95915">
        <ele>419</ele>
        <time>2013-03-09T10:43:32.000Z</time>
      </trkpt>
      <trkpt lat="47.31543" lon="4.95916">
        <ele>419</ele>
        <time>2013-03-09T10:43:33.000Z</time>
      </trkpt>
      <trkpt lat="47.31545" lon="4.95918">
        <ele>418</ele>
        <time>2013-03-09T10:43:35.000Z</time>
      </trkpt>
      <trkpt lat="47.31547" lon="4.9592">
        <ele>418</ele>
        <time>2013-03-09T10:43:36.000Z</time>
      </trkpt>
      <trkpt lat="47.3155" lon="4.95923">
        <ele>418</ele>
        <time>2013-03-09T10:43:38.000Z</time>
      </trkpt>
      <trkpt lat="47.31551" lon="4.95925">
        <ele>418</ele>
        <time>2013-03-09T10:43:39.000Z</time>
      </trkpt>
      <trkpt lat="47.31553" lon="4.95927">
        <ele>418</ele>
        <time>2013-03-09T10:43:41.000Z</time>
      </trkpt>
      <trkpt lat="47.31555" lon="4.95929">
        <ele>418</ele>
        <time>2013-03-09T10:43:42.000Z</time>
      </trkpt>
      <trkpt lat="47.31557" lon="4.95932">
        <ele>418</ele>
        <time>2013-03-09T10:43:44.000Z</time>
      </trkpt>
      <trkpt lat="47.31559" lon="4.95933">
        <ele>418</ele>
        <time>2013-03-09T10:43:45.000Z</time>
      </trkpt>
      <trkpt lat="47.31562" lon="4.95938">
        <ele>418</ele>
        <time>2013-03-09T10:43:48.000Z</time>
      </trkpt>
      <trkpt lat="47.31573" lon="4.95958">
        <ele>418</ele>
        <time>2013-03-09T10:43:56.000Z</time>
      </trkpt>
      <trkpt lat="47.31577" lon="4.95961">
        <ele>418</ele>
        <time>2013-03-09T10:43:58.000Z</time>
      </trkpt>
      <trkpt lat="47.31579" lon="4.95963">
        <ele>418</ele>
        <time>2013-03-09T10:43:59.000Z</time>
      </trkpt>
      <trkpt lat="47.31582" lon="4.95966">
        <ele>418</ele>
        <time>2013-03-09T10:44:01.000Z</time>
      </trkpt>
      <trkpt lat="47.31583" lon="4.95967">
        <ele>418</ele>
        <time>2013-03-09T10:44:02.000Z</time>
      </trkpt>
      <trkpt lat="47.31587" lon="4.9597">
        <ele>418</ele>
        <time>2013-03-09T10:44:04.000Z</time>
      </trkpt>
      <trkpt lat="47.31588" lon="4.95971">
        <ele>418</ele>
        <time>2013-03-09T10:44:05.000Z</time>
      </trkpt>
      <trkpt lat="47.3159" lon="4.95975">
        <ele>418</ele>
        <time>2013-03-09T10:44:07.000Z</time>
      </trkpt>
      <trkpt lat="47.31592" lon="4.95976">
        <ele>418</ele>
        <time>2013-03-09T10:44:08.000Z</time>
      </trkpt>
      <trkpt lat="47.31595" lon="4.95978">
        <ele>418</ele>
        <time>2013-03-09T10:44:10.000Z</time>
      </trkpt>
      <trkpt lat="47.31596" lon="4.95979">
        <ele>418</ele>
        <time>2013-03-09T10:44:11.000Z</time>
      </trkpt>
      <trkpt lat="47.31599" lon="4.95983">
        <ele>418</ele>
        <time>2013-03-09T10:44:13.000Z</time>
      </trkpt>
      <trkpt lat="47.31601" lon="4.95985">
        <ele>418</ele>
        <time>2013-03-09T10:44:14.000Z</time>
      </trkpt>
      <trkpt lat="47.31603" lon="4.95989">
        <ele>418</ele>
        <time>2013-03-09T10:44:16.000Z</time>
      </trkpt>
      <trkpt lat="47.31604" lon="4.9599">
        <ele>418</ele>
        <time>2013-03-09T10:44:17.000Z</time>
      </trkpt>
      <trkpt lat="47.31608" lon="4.95993">
        <ele>418</ele>
        <time>2013-03-09T10:44:20.000Z</time>
      </trkpt>
      <trkpt lat="47.3161" lon="4.95994">
        <ele>418</ele>
        <time>2013-03-09T10:44:21.000Z</time>
      </trkpt>
      <trkpt lat="47.31613" lon="4.95997">
        <ele>418</ele>
        <time>2013-03-09T10:44:24.000Z</time>
      </trkpt>
      <trkpt lat="47.31615" lon="4.95998">
        <ele>418</ele>
        <time>2013-03-09T10:44:25.000Z</time>
      </trkpt>
      <trkpt lat="47.31618" lon="4.96">
        <ele>418</ele>
        <time>2013-03-09T10:44:28.000Z</time>
      </trkpt>
      <trkpt lat="47.31619" lon="4.96">
        <ele>418</ele>
        <time>2013-03-09T10:44:29.000Z</time>
      </trkpt>
      <trkpt lat="47.31623" lon="4.95998">
        <ele>418</ele>
        <time>2013-03-09T10:44:35.000Z</time>
      </trkpt>
      <trkpt lat="47.31624" lon="4.95996">
        <ele>418</ele>
        <time>2013-03-09T10:44:36.000Z</time>
      </trkpt>
      <trkpt lat="47.31626" lon="4.95991">
        <ele>418</ele>
        <time>2013-03-09T10:44:39.000Z</time>
      </trkpt>
      <trkpt lat="47.31627" lon="4.95989">
        <ele>418</ele>
        <time>2013-03-09T10:44:40.000Z</time>
      </trkpt>
      <trkpt lat="47.31629" lon="4.95984">
        <ele>418</ele>
        <time>2013-03-09T10:44:42.000Z</time>
      </trkpt>
      <trkpt lat="47.31629" lon="4.95982">
        <ele>418</ele>
        <time>2013-03-09T10:44:43.000Z</time>
      </trkpt>
      <trkpt lat="47.31629" lon="4.95978">
        <ele>418</ele>
        <time>2013-03-09T10:44:45.000Z</time>
      </trkpt>
      <trkpt lat="47.3163" lon="4.95975">
        <ele>418</ele>
        <time>2013-03-09T10:44:46.000Z</time>
      </trkpt>
      <trkpt lat="47.31632" lon="4.9597">
        <ele>418</ele>
        <time>2013-03-09T10:44:48.000Z</time>
      </trkpt>
      <trkpt lat="47.31636" lon="4.95946">
        <ele>418</ele>
        <time>2013-03-09T10:44:55.000Z</time>
      </trkpt>
      <trkpt lat="47.31637" lon="4.95943">
        <ele>419</ele>
        <time>2013-03-09T10:44:57.000Z</time>
      </trkpt>
      <trkpt lat="47.31637" lon="4.95939">
        <ele>419</ele>
        <time>2013-03-09T10:44:58.000Z</time>
      </trkpt>
      <trkpt lat="47.31637" lon="4.95934">
        <ele>419</ele>
        <time>2013-03-09T10:45:00.000Z</time>
      </trkpt>
      <trkpt lat="47.31637" lon="4.9593">
        <ele>419</ele>
        <time>2013-03-09T10:45:01.000Z</time>
      </trkpt>
      <trkpt lat="47.31637" lon="4.95924">
        <ele>419</ele>
        <time>2013-03-09T10:45:04.000Z</time>
      </trkpt>
      <trkpt lat="47.31637" lon="4.95921">
        <ele>419</ele>
        <time>2013-03-09T10:45:05.000Z</time>
      </trkpt>
      <trkpt lat="47.31638" lon="4.95916">
        <ele>420</ele>
        <time>2013-03-09T10:45:08.000Z</time>
      </trkpt>
      <trkpt lat="47.31638" lon="4.95913">
        <ele>420</ele>
        <time>2013-03-09T10:45:09.000Z</time>
      </trkpt>
      <trkpt lat="47.31639" lon="4.95908">
        <ele>420</ele>
        <time>2013-03-09T10:45:11.000Z</time>
      </trkpt>
      <trkpt lat="47.31639" lon="4.95905">
        <ele>420</ele>
        <time>2013-03-09T10:45:12.000Z</time>
      </trkpt>
      <trkpt lat="47.3164" lon="4.95901">
        <ele>420</ele>
        <time>2013-03-09T10:45:14.000Z</time>
      </trkpt>
      <trkpt lat="47.31641" lon="4.95899">
        <ele>420</ele>
        <time>2013-03-09T10:45:15.000Z</time>
      </trkpt>
      <trkpt lat="47.31642" lon="4.95894">
        <ele>420</ele>
        <time>2013-03-09T10:45:17.000Z</time>
      </trkpt>
      <trkpt lat="47.31643" lon="4.95892">
        <ele>420</ele>
        <time>2013-03-09T10:45:18.000Z</time>
      </trkpt>
      <trkpt lat="47.31644" lon="4.95886">
        <ele>420</ele>
        <time>2013-03-09T10:45:20.000Z</time>
      </trkpt>
      <trkpt lat="47.31645" lon="4.95883">
        <ele>420</ele>
        <time>2013-03-09T10:45:21.000Z</time>
      </trkpt>
      <trkpt lat="47.31646" lon="4.95877">
        <ele>420</ele>
        <time>2013-03-09T10:45:23.000Z</time>
      </trkpt>
      <trkpt lat="47.31647" lon="4.95874">
        <ele>420</ele>
        <time>2013-03-09T10:45:24.000Z</time>
      </trkpt>
      <trkpt lat="47.31647" lon="4.95869">
        <ele>420</ele>
        <time>2013-03-09T10:45:26.000Z</time>
      </trkpt>
      <trkpt lat="47.31646" lon="4.95867">
        <ele>420</ele>
        <time>2013-03-09T10:45:27.000Z</time>
      </trkpt>
      <trkpt lat="47.31646" lon="4.95862">
        <ele>420</ele>
        <time>2013-03-09T10:45:29.000Z</time>
      </trkpt>
      <trkpt lat="47.31646" lon="4.9586">
        <ele>420</ele>
        <time>2013-03-09T10:45:30.000Z</time>
      </trkpt>
      <trkpt lat="47.31646" lon="4.95855">
        <ele>420</ele>
        <time>2013-03-09T10:45:32.000Z</time>
      </trkpt>
      <trkpt lat="47.31646" lon="4.95852">
        <ele>420</ele>
        <time>2013-03-09T10:45:33.000Z</time>
      </trkpt>
      <trkpt lat="47.31646" lon="4.95847">
        <ele>420</ele>
        <time>2013-03-09T10:45:35.000Z</time>
      </trkpt>
      <trkpt lat="47.31646" lon="4.95845">
        <ele>420</ele>
        <time>2013-03-09T10:45:36.000Z</time>
      </trkpt>
      <trkpt lat="47.31646" lon="4.95838">
        <ele>420</ele>
        <time>2013-03-09T10:45:39.000Z</time>
      </trkpt>
      <trkpt lat="47.31646" lon="4.95836">
        <ele>420</ele>
        <time>2013-03-09T10:45:40.000Z</time>
      </trkpt>
      <trkpt lat="47.31647" lon="4.9583">
        <ele>420</ele>
        <time>2013-03-09T10:45:42.000Z</time>
      </trkpt>
      <trkpt lat="47.31648" lon="4.95827">
        <ele>420</ele>
        <time>2013-03-09T10:45:43.000Z</time>
      </trkpt>
      <trkpt lat="47.31649" lon="4.95822">
        <ele>420</ele>
        <time>2013-03-09T10:45:45.000Z</time>
      </trkpt>
      <trkpt lat="47.31649" lon="4.95819">
        <ele>420</ele>
        <time>2013-03-09T10:45:46.000Z</time>
      </trkpt>
      <trkpt lat="47.31648" lon="4.95815">
        <ele>420</ele>
        <time>2013-03-09T10:45:48.000Z</time>
      </trkpt>
      <trkpt lat="47.3165" lon="4.9579">
        <ele>420</ele>
        <time>2013-03-09T10:45:56.000Z</time>
      </trkpt>
      <trkpt lat="47.31648" lon="4.95784">
        <ele>420</ele>
        <time>2013-03-09T10:46:00.000Z</time>
      </trkpt>
      <trkpt lat="47.31648" lon="4.95783">
        <ele>420</ele>
        <time>2013-03-09T10:46:01.000Z</time>
      </trkpt>
      <trkpt lat="47.31646" lon="4.95778">
        <ele>420</ele>
        <time>2013-03-09T10:46:03.000Z</time>
      </trkpt>
      <trkpt lat="47.31646" lon="4.95776">
        <ele>420</ele>
        <time>2013-03-09T10:46:04.000Z</time>
      </trkpt>
      <trkpt lat="47.31645" lon="4.95772">
        <ele>420</ele>
        <time>2013-03-09T10:46:06.000Z</time>
      </trkpt>
      <trkpt lat="47.31645" lon="4.9577">
        <ele>420</ele>
        <time>2013-03-09T10:46:07.000Z</time>
      </trkpt>
      <trkpt lat="47.31646" lon="4.95765">
        <ele>420</ele>
        <time>2013-03-09T10:46:09.000Z</time>
      </trkpt>
      <trkpt lat="47.31646" lon="4.95763">
        <ele>419</ele>
        <time>2013-03-09T10:46:10.000Z</time>
      </trkpt>
      <trkpt lat="47.31645" lon="4.95758">
        <ele>419</ele>
        <time>2013-03-09T10:46:12.000Z</time>
      </trkpt>
      <trkpt lat="47.31645" lon="4.95755">
        <ele>419</ele>
        <time>2013-03-09T10:46:13.000Z</time>
      </trkpt>
      <trkpt lat="47.31646" lon="4.95751">
        <ele>419</ele>
        <time>2013-03-09T10:46:15.000Z</time>
      </trkpt>
      <trkpt lat="47.31646" lon="4.95747">
        <ele>419</ele>
        <time>2013-03-09T10:46:16.000Z</time>
      </trkpt>
      <trkpt lat="47.31647" lon="4.95744">
        <ele>419</ele>
        <time>2013-03-09T10:46:17.000Z</time>
      </trkpt>
      <trkpt lat="47.31648" lon="4.9574">
        <ele>419</ele>
        <time>2013-03-09T10:46:18.000Z</time>
      </trkpt>
      <trkpt lat="47.31648" lon="4.95734">
        <ele>419</ele>
        <time>2013-03-09T10:46:20.000Z</time>
      </trkpt>
      <trkpt lat="47.31647" lon="4.95731">
        <ele>419</ele>
        <time>2013-03-09T10:46:21.000Z</time>
      </trkpt>
      <trkpt lat="47.31645" lon="4.95726">
        <ele>419</ele>
        <time>2013-03-09T10:46:23.000Z</time>
      </trkpt>
      <trkpt lat="47.31645" lon="4.95724">
        <ele>419</ele>
        <time>2013-03-09T10:46:24.000Z</time>
      </trkpt>
      <trkpt lat="47.31645" lon="4.95718">
        <ele>419</ele>
        <time>2013-03-09T10:46:27.000Z</time>
      </trkpt>
      <trkpt lat="47.31644" lon="4.95716">
        <ele>419</ele>
        <time>2013-03-09T10:46:28.000Z</time>
      </trkpt>
      <trkpt lat="47.31644" lon="4.9571">
        <ele>419</ele>
        <time>2013-03-09T10:46:31.000Z</time>
      </trkpt>
      <trkpt lat="47.31644" lon="4.95708">
        <ele>419</ele>
        <time>2013-03-09T10:46:32.000Z</time>
      </trkpt>
      <trkpt lat="47.31644" lon="4.95703">
        <ele>419</ele>
        <time>2013-03-09T10:46:34.000Z</time>
      </trkpt>
      <trkpt lat="47.31644" lon="4.957">
        <ele>419</ele>
        <time>2013-03-09T10:46:35.000Z</time>
      </trkpt>
      <trkpt lat="47.31643" lon="4.95694">
        <ele>419</ele>
        <time>2013-03-09T10:46:37.000Z</time>
      </trkpt>
      <trkpt lat="47.31643" lon="4.95692">
        <ele>419</ele>
        <time>2013-03-09T10:46:38.000Z</time>
      </trkpt>
      <trkpt lat="47.31642" lon="4.95687">
        <ele>419</ele>
        <time>2013-03-09T10:46:40.000Z</time>
      </trkpt>
      <trkpt lat="47.31643" lon="4.95685">
        <ele>419</ele>
        <time>2013-03-09T10:46:41.000Z</time>
      </trkpt>
      <trkpt lat="47.31641" lon="4.95679">
        <ele>419</ele>
        <time>2013-03-09T10:46:44.000Z</time>
      </trkpt>
      <trkpt lat="47.31641" lon="4.95677">
        <ele>419</ele>
        <time>2013-03-09T10:46:45.000Z</time>
      </trkpt>
      <trkpt lat="47.31639" lon="4.95673">
        <ele>419</ele>
        <time>2013-03-09T10:46:47.000Z</time>
      </trkpt>
      <trkpt lat="47.31638" lon="4.95671">
        <ele>419</ele>
        <time>2013-03-09T10:46:48.000Z</time>
      </trkpt>
      <trkpt lat="47.31625" lon="4.95665">
        <ele>419</ele>
        <time>2013-03-09T10:46:56.000Z</time>
      </trkpt>
      <trkpt lat="47.31622" lon="4.95662">
        <ele>419</ele>
        <time>2013-03-09T10:46:58.000Z</time>
      </trkpt>
      <trkpt lat="47.3162" lon="4.95661">
        <ele>419</ele>
        <time>2013-03-09T10:46:59.000Z</time>
      </trkpt>
      <trkpt lat="47.31617" lon="4.95658">
        <ele>420</ele>
        <time>2013-03-09T10:47:01.000Z</time>
      </trkpt>
      <trkpt lat="47.31615" lon="4.95657">
        <ele>420</ele>
        <time>2013-03-09T10:47:02.000Z</time>
      </trkpt>
      <trkpt lat="47.31612" lon="4.95654">
        <ele>420</ele>
        <time>2013-03-09T10:47:05.000Z</time>
      </trkpt>
      <trkpt lat="47.31611" lon="4.95654">
        <ele>420</ele>
        <time>2013-03-09T10:47:06.000Z</time>
      </trkpt>
      <trkpt lat="47.31607" lon="4.95652">
        <ele>420</ele>
        <time>2013-03-09T10:47:09.000Z</time>
      </trkpt>
      <trkpt lat="47.31605" lon="4.95651">
        <ele>420</ele>
        <time>2013-03-09T10:47:10.000Z</time>
      </trkpt>
      <trkpt lat="47.31601" lon="4.95649">
        <ele>420</ele>
        <time>2013-03-09T10:47:15.000Z</time>
      </trkpt>
      <trkpt lat="47.316" lon="4.95648">
        <ele>420</ele>
        <time>2013-03-09T10:47:16.000Z</time>
      </trkpt>
      <trkpt lat="47.31597" lon="4.95647">
        <ele>420</ele>
        <time>2013-03-09T10:47:18.000Z</time>
      </trkpt>
      <trkpt lat="47.31595" lon="4.95647">
        <ele>420</ele>
        <time>2013-03-09T10:47:19.000Z</time>
      </trkpt>
      <trkpt lat="47.3159" lon="4.95646">
        <ele>420</ele>
        <time>2013-03-09T10:47:21.000Z</time>
      </trkpt>
      <trkpt lat="47.31588" lon="4.95645">
        <ele>420</ele>
        <time>2013-03-09T10:47:22.000Z</time>
      </trkpt>
      <trkpt lat="47.31586" lon="4.95644">
        <ele>420</ele>
        <time>2013-03-09T10:47:23.000Z</time>
      </trkpt>
      <trkpt lat="47.31584" lon="4.95644">
        <ele>420</ele>
        <time>2013-03-09T10:47:24.000Z</time>
      </trkpt>
      <trkpt lat="47.31581" lon="4.95643">
        <ele>422</ele>
        <time>2013-03-09T10:47:25.000Z</time>
      </trkpt>
      <trkpt lat="47.31579" lon="4.95643">
        <ele>422</ele>
        <time>2013-03-09T10:47:26.000Z</time>
      </trkpt>
      <trkpt lat="47.31576" lon="4.95642">
        <ele>422</ele>
        <time>2013-03-09T10:47:28.000Z</time>
      </trkpt>
      <trkpt lat="47.31574" lon="4.95641">
        <ele>422</ele>
        <time>2013-03-09T10:47:29.000Z</time>
      </trkpt>
      <trkpt lat="47.31571" lon="4.95639">
        <ele>422</ele>
        <time>2013-03-09T10:47:31.000Z</time>
      </trkpt>
      <trkpt lat="47.31569" lon="4.95638">
        <ele>422</ele>
        <time>2013-03-09T10:47:32.000Z</time>
      </trkpt>
      <trkpt lat="47.31566" lon="4.95637">
        <ele>422</ele>
        <time>2013-03-09T10:47:33.000Z</time>
      </trkpt>
      <trkpt lat="47.31564" lon="4.95637">
        <ele>422</ele>
        <time>2013-03-09T10:47:34.000Z</time>
      </trkpt>
      <trkpt lat="47.3156" lon="4.95634">
        <ele>422</ele>
        <time>2013-03-09T10:47:37.000Z</time>
      </trkpt>
      <trkpt lat="47.31558" lon="4.95633">
        <ele>422</ele>
        <time>2013-03-09T10:47:38.000Z</time>
      </trkpt>
      <trkpt lat="47.31555" lon="4.95631">
        <ele>422</ele>
        <time>2013-03-09T10:47:41.000Z</time>
      </trkpt>
      <trkpt lat="47.31553" lon="4.9563">
        <ele>422</ele>
        <time>2013-03-09T10:47:42.000Z</time>
      </trkpt>
      <trkpt lat="47.3155" lon="4.95631">
        <ele>422</ele>
        <time>2013-03-09T10:47:47.000Z</time>
      </trkpt>
      <trkpt lat="47.31548" lon="4.95632">
        <ele>422</ele>
        <time>2013-03-09T10:47:48.000Z</time>
      </trkpt>
      <trkpt lat="47.31537" lon="4.9564">
        <ele>423</ele>
        <time>2013-03-09T10:47:56.000Z</time>
      </trkpt>
      <trkpt lat="47.31538" lon="4.95646">
        <ele>423</ele>
        <time>2013-03-09T10:47:58.000Z</time>
      </trkpt>
      <trkpt lat="47.31537" lon="4.95649">
        <ele>423</ele>
        <time>2013-03-09T10:47:59.000Z</time>
      </trkpt>
      <trkpt lat="47.31535" lon="4.95653">
        <ele>423</ele>
        <time>2013-03-09T10:48:01.000Z</time>
      </trkpt>
      <trkpt lat="47.31534" lon="4.95655">
        <ele>423</ele>
        <time>2013-03-09T10:48:02.000Z</time>
      </trkpt>
      <trkpt lat="47.31533" lon="4.95661">
        <ele>423</ele>
        <time>2013-03-09T10:48:05.000Z</time>
      </trkpt>
      <trkpt lat="47.31532" lon="4.95663">
        <ele>423</ele>
        <time>2013-03-09T10:48:06.000Z</time>
      </trkpt>
      <trkpt lat="47.31531" lon="4.95668">
        <ele>423</ele>
        <time>2013-03-09T10:48:08.000Z</time>
      </trkpt>
      <trkpt lat="47.31531" lon="4.9567">
        <ele>423</ele>
        <time>2013-03-09T10:48:09.000Z</time>
      </trkpt>
      <trkpt lat="47.3153" lon="4.95675">
        <ele>423</ele>
        <time>2013-03-09T10:48:12.000Z</time>
      </trkpt>
      <trkpt lat="47.3153" lon="4.95677">
        <ele>423</ele>
        <time>2013-03-09T10:48:13.000Z</time>
      </trkpt>
      <trkpt lat="47.31531" lon="4.9568">
        <ele>423</ele>
        <time>2013-03-09T10:48:24.000Z</time>
      </trkpt>
      <trkpt lat="47.31532" lon="4.95683">
        <ele>423</ele>
        <time>2013-03-09T10:48:25.000Z</time>
      </trkpt>
      <trkpt lat="47.3153" lon="4.95689">
        <ele>423</ele>
        <time>2013-03-09T10:48:28.000Z</time>
      </trkpt>
      <trkpt lat="47.31529" lon="4.95692">
        <ele>423</ele>
        <time>2013-03-09T10:48:29.000Z</time>
      </trkpt>
      <trkpt lat="47.31528" lon="4.95696">
        <ele>423</ele>
        <time>2013-03-09T10:48:31.000Z</time>
      </trkpt>
      <trkpt lat="47.31527" lon="4.95699">
        <ele>423</ele>
        <time>2013-03-09T10:48:32.000Z</time>
      </trkpt>
      <trkpt lat="47.31525" lon="4.95703">
        <ele>423</ele>
        <time>2013-03-09T10:48:34.000Z</time>
      </trkpt>
      <trkpt lat="47.31525" lon="4.95705">
        <ele>423</ele>
        <time>2013-03-09T10:48:35.000Z</time>
      </trkpt>
      <trkpt lat="47.31523" lon="4.9571">
        <ele>423</ele>
        <time>2013-03-09T10:48:37.000Z</time>
      </trkpt>
      <trkpt lat="47.31523" lon="4.95712">
        <ele>423</ele>
        <time>2013-03-09T10:48:38.000Z</time>
      </trkpt>
      <trkpt lat="47.31522" lon="4.95716">
        <ele>423</ele>
        <time>2013-03-09T10:48:40.000Z</time>
      </trkpt>
      <trkpt lat="47.31521" lon="4.95719">
        <ele>423</ele>
        <time>2013-03-09T10:48:41.000Z</time>
      </trkpt>
      <trkpt lat="47.31521" lon="4.95722">
        <ele>423</ele>
        <time>2013-03-09T10:48:42.000Z</time>
      </trkpt>
      <trkpt lat="47.31519" lon="4.95725">
        <ele>423</ele>
        <time>2013-03-09T10:48:43.000Z</time>
      </trkpt>
      <trkpt lat="47.31517" lon="4.9573">
        <ele>423</ele>
        <time>2013-03-09T10:48:45.000Z</time>
      </trkpt>
      <trkpt lat="47.31516" lon="4.95733">
        <ele>423</ele>
        <time>2013-03-09T10:48:46.000Z</time>
      </trkpt>
      <trkpt lat="47.31514" lon="4.95738">
        <ele>423</ele>
        <time>2013-03-09T10:48:48.000Z</time>
      </trkpt>
      <trkpt lat="47.31513" lon="4.9574">
        <ele>423</ele>
        <time>2013-03-09T10:48:49.000Z</time>
      </trkpt>
      <trkpt lat="47.31511" lon="4.95744">
        <ele>423</ele>
        <time>2013-03-09T10:48:51.000Z</time>
      </trkpt>
      <trkpt lat="47.3151" lon="4.95747">
        <ele>423</ele>
        <time>2013-03-09T10:48:52.000Z</time>
      </trkpt>
      <trkpt lat="47.31509" lon="4.95752">
        <ele>423</ele>
        <time>2013-03-09T10:48:54.000Z</time>
      </trkpt>
      <trkpt lat="47.31508" lon="4.95755">
        <ele>423</ele>
        <time>2013-03-09T10:48:55.000Z</time>
      </trkpt>
      <trkpt lat="47.31505" lon="4.9576">
        <ele>423</ele>
        <time>2013-03-09T10:48:57.000Z</time>
      </trkpt>
      <trkpt lat="47.31504" lon="4.95762">
        <ele>423</ele>
        <time>2013-03-09T10:48:58.000Z</time>
      </trkpt>
      <trkpt lat="47.31503" lon="4.95765">
        <ele>423</ele>
        <time>2013-03-09T10:48:59.000Z</time>
      </trkpt>
      <trkpt lat="47.31501" lon="4.95768">
        <ele>423</ele>
        <time>2013-03-09T10:49:00.000Z</time>
      </trkpt>
      <trkpt lat="47.31501" lon="4.95771">
        <ele>422</ele>
        <time>2013-03-09T10:49:01.000Z</time>
      </trkpt>
      <trkpt lat="47.315" lon="4.95775">
        <ele>422</ele>
        <time>2013-03-09T10:49:02.000Z</time>
      </trkpt>
      <trkpt lat="47.31499" lon="4.95779">
        <ele>423</ele>
        <time>2013-03-09T10:49:04.000Z</time>
      </trkpt>
      <trkpt lat="47.31499" lon="4.95782">
        <ele>423</ele>
        <time>2013-03-09T10:49:05.000Z</time>
      </trkpt>
      <trkpt lat="47.31497" lon="4.95788">
        <ele>423</ele>
        <time>2013-03-09T10:49:07.000Z</time>
      </trkpt>
      <trkpt lat="47.31495" lon="4.95791">
        <ele>423</ele>
        <time>2013-03-09T10:49:08.000Z</time>
      </trkpt>
      <trkpt lat="47.31494" lon="4.95794">
        <ele>423</ele>
        <time>2013-03-09T10:49:09.000Z</time>
      </trkpt>
      <trkpt lat="47.31494" lon="4.95797">
        <ele>423</ele>
        <time>2013-03-09T10:49:10.000Z</time>
      </trkpt>
      <trkpt lat="47.31493" lon="4.958">
        <ele>422</ele>
        <time>2013-03-09T10:49:11.000Z</time>
      </trkpt>
      <trkpt lat="47.31492" lon="4.95803">
        <ele>422</ele>
        <time>2013-03-09T10:49:12.000Z</time>
      </trkpt>
      <trkpt lat="47.31491" lon="4.95806">
        <ele>422</ele>
        <time>2013-03-09T10:49:13.000Z</time>
      </trkpt>
      <trkpt lat="47.3149" lon="4.95809">
        <ele>422</ele>
        <time>2013-03-09T10:49:14.000Z</time>
      </trkpt>
      <trkpt lat="47.31489" lon="4.95812">
        <ele>422</ele>
        <time>2013-03-09T10:49:15.000Z</time>
      </trkpt>
      <trkpt lat="47.31487" lon="4.95815">
        <ele>422</ele>
        <time>2013-03-09T10:49:16.000Z</time>
      </trkpt>
      <trkpt lat="47.31487" lon="4.95819">
        <ele>422</ele>
        <time>2013-03-09T10:49:17.000Z</time>
      </trkpt>
      <trkpt lat="47.31486" lon="4.95822">
        <ele>422</ele>
        <time>2013-03-09T10:49:18.000Z</time>
      </trkpt>
      <trkpt lat="47.31485" lon="4.95825">
        <ele>422</ele>
        <time>2013-03-09T10:49:19.000Z</time>
      </trkpt>
      <trkpt lat="47.31485" lon="4.95828">
        <ele>422</ele>
        <time>2013-03-09T10:49:20.000Z</time>
      </trkpt>
      <trkpt lat="47.31483" lon="4.95834">
        <ele>421</ele>
        <time>2013-03-09T10:49:22.000Z</time>
      </trkpt>
      <trkpt lat="47.31483" lon="4.95837">
        <ele>421</ele>
        <time>2013-03-09T10:49:23.000Z</time>
      </trkpt>
      <trkpt lat="47.31481" lon="4.95842">
        <ele>421</ele>
        <time>2013-03-09T10:49:25.000Z</time>
      </trkpt>
      <trkpt lat="47.31481" lon="4.95844">
        <ele>421</ele>
        <time>2013-03-09T10:49:26.000Z</time>
      </trkpt>
      <trkpt lat="47.31481" lon="4.9585">
        <ele>421</ele>
        <time>2013-03-09T10:49:29.000Z</time>
      </trkpt>
      <trkpt lat="47.31483" lon="4.95852">
        <ele>421</ele>
        <time>2013-03-09T10:49:30.000Z</time>
      </trkpt>
      <trkpt lat="47.31486" lon="4.95856">
        <ele>421</ele>
        <time>2013-03-09T10:49:33.000Z</time>
      </trkpt>
      <trkpt lat="47.31487" lon="4.95858">
        <ele>421</ele>
        <time>2013-03-09T10:49:34.000Z</time>
      </trkpt>
      <trkpt lat="47.3149" lon="4.95861">
        <ele>421</ele>
        <time>2013-03-09T10:49:36.000Z</time>
      </trkpt>
      <trkpt lat="47.31491" lon="4.95863">
        <ele>421</ele>
        <time>2013-03-09T10:49:37.000Z</time>
      </trkpt>
      <trkpt lat="47.31495" lon="4.95866">
        <ele>421</ele>
        <time>2013-03-09T10:49:39.000Z</time>
      </trkpt>
      <trkpt lat="47.31497" lon="4.95868">
        <ele>421</ele>
        <time>2013-03-09T10:49:40.000Z</time>
      </trkpt>
      <trkpt lat="47.31498" lon="4.9587">
        <ele>421</ele>
        <time>2013-03-09T10:49:41.000Z</time>
      </trkpt>
      <trkpt lat="47.315" lon="4.95873">
        <ele>421</ele>
        <time>2013-03-09T10:49:42.000Z</time>
      </trkpt>
      <trkpt lat="47.31503" lon="4.95876">
        <ele>420</ele>
        <time>2013-03-09T10:49:44.000Z</time>
      </trkpt>
      <trkpt lat="47.31505" lon="4.95878">
        <ele>420</ele>
        <time>2013-03-09T10:49:45.000Z</time>
      </trkpt>
      <trkpt lat="47.31508" lon="4.95881">
        <ele>420</ele>
        <time>2013-03-09T10:49:47.000Z</time>
      </trkpt>
      <trkpt lat="47.3151" lon="4.95882">
        <ele>420</ele>
        <time>2013-03-09T10:49:48.000Z</time>
      </trkpt>
      <trkpt lat="47.31527" lon="4.95905">
        <ele>420</ele>
        <time>2013-03-09T10:49:56.000Z</time>
      </trkpt>
      <trkpt lat="47.3153" lon="4.95905">
        <ele>420</ele>
        <time>2013-03-09T10:49:58.000Z</time>
      </trkpt>
      <trkpt lat="47.31532" lon="4.95906">
        <ele>420</ele>
        <time>2013-03-09T10:49:59.000Z</time>
      </trkpt>
      <trkpt lat="47.31534" lon="4.95907">
        <ele>420</ele>
        <time>2013-03-09T10:50:00.000Z</time>
      </trkpt>
      <trkpt lat="47.31536" lon="4.9591">
        <ele>420</ele>
        <time>2013-03-09T10:50:01.000Z</time>
      </trkpt>
      <trkpt lat="47.31538" lon="4.95913">
        <ele>420</ele>
        <time>2013-03-09T10:50:02.000Z</time>
      </trkpt>
      <trkpt lat="47.3154" lon="4.95915">
        <ele>420</ele>
        <time>2013-03-09T10:50:03.000Z</time>
      </trkpt>
      <trkpt lat="47.31542" lon="4.95917">
        <ele>419</ele>
        <time>2013-03-09T10:50:04.000Z</time>
      </trkpt>
      <trkpt lat="47.31544" lon="4.95919">
        <ele>418</ele>
        <time>2013-03-09T10:50:05.000Z</time>
      </trkpt>
      <trkpt lat="47.31547" lon="4.95922">
        <ele>418</ele>
        <time>2013-03-09T10:50:07.000Z</time>
      </trkpt>
      <trkpt lat="47.31548" lon="4.95924">
        <ele>418</ele>
        <time>2013-03-09T10:50:08.000Z</time>
      </trkpt>
      <trkpt lat="47.3155" lon="4.95925">
        <ele>418</ele>
        <time>2013-03-09T10:50:09.000Z</time>
      </trkpt>
      <trkpt lat="47.31552" lon="4.95928">
        <ele>418</ele>
        <time>2013-03-09T10:50:10.000Z</time>
      </trkpt>
      <trkpt lat="47.31555" lon="4.9593">
        <ele>418</ele>
        <time>2013-03-09T10:50:12.000Z</time>
      </trkpt>
      <trkpt lat="47.31556" lon="4.95932">
        <ele>418</ele>
        <time>2013-03-09T10:50:13.000Z</time>
      </trkpt>
      <trkpt lat="47.31559" lon="4.95935">
        <ele>418</ele>
        <time>2013-03-09T10:50:15.000Z</time>
      </trkpt>
      <trkpt lat="47.3156" lon="4.95937">
        <ele>418</ele>
        <time>2013-03-09T10:50:16.000Z</time>
      </trkpt>
      <trkpt lat="47.31563" lon="4.95941">
        <ele>418</ele>
        <time>2013-03-09T10:50:18.000Z</time>
      </trkpt>
      <trkpt lat="47.31564" lon="4.95943">
        <ele>418</ele>
        <time>2013-03-09T10:50:19.000Z</time>
      </trkpt>
      <trkpt lat="47.31566" lon="4.95945">
        <ele>418</ele>
        <time>2013-03-09T10:50:20.000Z</time>
      </trkpt>
      <trkpt lat="47.31567" lon="4.95947">
        <ele>418</ele>
        <time>2013-03-09T10:50:21.000Z</time>
      </trkpt>
      <trkpt lat="47.3157" lon="4.95951">
        <ele>418</ele>
        <time>2013-03-09T10:50:23.000Z</time>
      </trkpt>
      <trkpt lat="47.31571" lon="4.95953">
        <ele>418</ele>
        <time>2013-03-09T10:50:24.000Z</time>
      </trkpt>
      <trkpt lat="47.31574" lon="4.95956">
        <ele>418</ele>
        <time>2013-03-09T10:50:26.000Z</time>
      </trkpt>
      <trkpt lat="47.31575" lon="4.95958">
        <ele>418</ele>
        <time>2013-03-09T10:50:27.000Z</time>
      </trkpt>
      <trkpt lat="47.31578" lon="4.9596">
        <ele>418</ele>
        <time>2013-03-09T10:50:29.000Z</time>
      </trkpt>
      <trkpt lat="47.31579" lon="4.95962">
        <ele>418</ele>
        <time>2013-03-09T10:50:30.000Z</time>
      </trkpt>
      <trkpt lat="47.31581" lon="4.95965">
        <ele>418</ele>
        <time>2013-03-09T10:50:31.000Z</time>
      </trkpt>
      <trkpt lat="47.31583" lon="4.95967">
        <ele>418</ele>
        <time>2013-03-09T10:50:32.000Z</time>
      </trkpt>
      <trkpt lat="47.31585" lon="4.9597">
        <ele>418</ele>
        <time>2013-03-09T10:50:33.000Z</time>
      </trkpt>
      <trkpt lat="47.31586" lon="4.95973">
        <ele>418</ele>
        <time>2013-03-09T10:50:34.000Z</time>
      </trkpt>
      <trkpt lat="47.31588" lon="4.95975">
        <ele>418</ele>
        <time>2013-03-09T10:50:35.000Z</time>
      </trkpt>
      <trkpt lat="47.3159" lon="4.95977">
        <ele>418</ele>
        <time>2013-03-09T10:50:36.000Z</time>
      </trkpt>
      <trkpt lat="47.31593" lon="4.95981">
        <ele>418</ele>
        <time>2013-03-09T10:50:38.000Z</time>
      </trkpt>
      <trkpt lat="47.31595" lon="4.95983">
        <ele>418</ele>
        <time>2013-03-09T10:50:39.000Z</time>
      </trkpt>
      <trkpt lat="47.31598" lon="4.95987">
        <ele>418</ele>
        <time>2013-03-09T10:50:41.000Z</time>
      </trkpt>
      <trkpt lat="47.31599" lon="4.95989">
        <ele>418</ele>
        <time>2013-03-09T10:50:42.000Z</time>
      </trkpt>
      <trkpt lat="47.31602" lon="4.95991">
        <ele>418</ele>
        <time>2013-03-09T10:50:43.000Z</time>
      </trkpt>
      <trkpt lat="47.31603" lon="4.95993">
        <ele>418</ele>
        <time>2013-03-09T10:50:44.000Z</time>
      </trkpt>
      <trkpt lat="47.31606" lon="4.95996">
        <ele>418</ele>
        <time>2013-03-09T10:50:46.000Z</time>
      </trkpt>
      <trkpt lat="47.31608" lon="4.95997">
        <ele>418</ele>
        <time>2013-03-09T10:50:47.000Z</time>
      </trkpt>
      <trkpt lat="47.3161" lon="4.95998">
        <ele>418</ele>
        <time>2013-03-09T10:50:48.000Z</time>
      </trkpt>
      <trkpt lat="47.31624" lon="4.96007">
        <ele>417</ele>
        <time>2013-03-09T10:50:58.000Z</time>
      </trkpt>
      <trkpt lat="47.31626" lon="4.96002">
        <ele>417</ele>
        <time>2013-03-09T10:51:01.000Z</time>
      </trkpt>
      <trkpt lat="47.31627" lon="4.96001">
        <ele>417</ele>
        <time>2013-03-09T10:51:02.000Z</time>
      </trkpt>
      <trkpt lat="47.31628" lon="4.95995">
        <ele>418</ele>
        <time>2013-03-09T10:51:04.000Z</time>
      </trkpt>
      <trkpt lat="47.31628" lon="4.95993">
        <ele>418</ele>
        <time>2013-03-09T10:51:05.000Z</time>
      </trkpt>
      <trkpt lat="47.31629" lon="4.95987">
        <ele>418</ele>
        <time>2013-03-09T10:51:08.000Z</time>
      </trkpt>
      <trkpt lat="47.3163" lon="4.95985">
        <ele>418</ele>
        <time>2013-03-09T10:51:09.000Z</time>
      </trkpt>
      <trkpt lat="47.31631" lon="4.95979">
        <ele>418</ele>
        <time>2013-03-09T10:51:11.000Z</time>
      </trkpt>
      <trkpt lat="47.31631" lon="4.95976">
        <ele>418</ele>
        <time>2013-03-09T10:51:12.000Z</time>
      </trkpt>
      <trkpt lat="47.31632" lon="4.9597">
        <ele>418</ele>
        <time>2013-03-09T10:51:14.000Z</time>
      </trkpt>
      <trkpt lat="47.31632" lon="4.95967">
        <ele>418</ele>
        <time>2013-03-09T10:51:15.000Z</time>
      </trkpt>
      <trkpt lat="47.31634" lon="4.95963">
        <ele>418</ele>
        <time>2013-03-09T10:51:17.000Z</time>
      </trkpt>
      <trkpt lat="47.31634" lon="4.95961">
        <ele>418</ele>
        <time>2013-03-09T10:51:18.000Z</time>
      </trkpt>
      <trkpt lat="47.31635" lon="4.95954">
        <ele>418</ele>
        <time>2013-03-09T10:51:21.000Z</time>
      </trkpt>
      <trkpt lat="47.31636" lon="4.95952">
        <ele>418</ele>
        <time>2013-03-09T10:51:22.000Z</time>
      </trkpt>
      <trkpt lat="47.31636" lon="4.95948">
        <ele>418</ele>
        <time>2013-03-09T10:51:24.000Z</time>
      </trkpt>
      <trkpt lat="47.31637" lon="4.95946">
        <ele>418</ele>
        <time>2013-03-09T10:51:25.000Z</time>
      </trkpt>
      <trkpt lat="47.31638" lon="4.9594">
        <ele>419</ele>
        <time>2013-03-09T10:51:27.000Z</time>
      </trkpt>
      <trkpt lat="47.31638" lon="4.95937">
        <ele>419</ele>
        <time>2013-03-09T10:51:28.000Z</time>
      </trkpt>
      <trkpt lat="47.31638" lon="4.95931">
        <ele>419</ele>
        <time>2013-03-09T10:51:30.000Z</time>
      </trkpt>
      <trkpt lat="47.31639" lon="4.95929">
        <ele>419</ele>
        <time>2013-03-09T10:51:31.000Z</time>
      </trkpt>
      <trkpt lat="47.31639" lon="4.95923">
        <ele>419</ele>
        <time>2013-03-09T10:51:33.000Z</time>
      </trkpt>
      <trkpt lat="47.31639" lon="4.9592">
        <ele>419</ele>
        <time>2013-03-09T10:51:34.000Z</time>
      </trkpt>
      <trkpt lat="47.3164" lon="4.95914">
        <ele>420</ele>
        <time>2013-03-09T10:51:36.000Z</time>
      </trkpt>
      <trkpt lat="47.31641" lon="4.95911">
        <ele>420</ele>
        <time>2013-03-09T10:51:37.000Z</time>
      </trkpt>
      <trkpt lat="47.31641" lon="4.95905">
        <ele>420</ele>
        <time>2013-03-09T10:51:39.000Z</time>
      </trkpt>
      <trkpt lat="47.31642" lon="4.95903">
        <ele>420</ele>
        <time>2013-03-09T10:51:40.000Z</time>
      </trkpt>
      <trkpt lat="47.31643" lon="4.95897">
        <ele>420</ele>
        <time>2013-03-09T10:51:42.000Z</time>
      </trkpt>
      <trkpt lat="47.31643" lon="4.95894">
        <ele>420</ele>
        <time>2013-03-09T10:51:43.000Z</time>
      </trkpt>
      <trkpt lat="47.31643" lon="4.95891">
        <ele>420</ele>
        <time>2013-03-09T10:51:44.000Z</time>
      </trkpt>
      <trkpt lat="47.31644" lon="4.95887">
        <ele>420</ele>
        <time>2013-03-09T10:51:45.000Z</time>
      </trkpt>
      <trkpt lat="47.31645" lon="4.95882">
        <ele>420</ele>
        <time>2013-03-09T10:51:47.000Z</time>
      </trkpt>
      <trkpt lat="47.31645" lon="4.95878">
        <ele>420</ele>
        <time>2013-03-09T10:51:48.000Z</time>
      </trkpt>
      <trkpt lat="47.31646" lon="4.95872">
        <ele>420</ele>
        <time>2013-03-09T10:51:50.000Z</time>
      </trkpt>
      <trkpt lat="47.31646" lon="4.95869">
        <ele>420</ele>
        <time>2013-03-09T10:51:51.000Z</time>
      </trkpt>
      <trkpt lat="47.31646" lon="4.95864">
        <ele>420</ele>
        <time>2013-03-09T10:51:53.000Z</time>
      </trkpt>
      <trkpt lat="47.31646" lon="4.95862">
        <ele>420</ele>
        <time>2013-03-09T10:51:54.000Z</time>
      </trkpt>
      <trkpt lat="47.31647" lon="4.95856">
        <ele>420</ele>
        <time>2013-03-09T10:51:56.000Z</time>
      </trkpt>
      <trkpt lat="47.31647" lon="4.95854">
        <ele>420</ele>
        <time>2013-03-09T10:51:57.000Z</time>
      </trkpt>
      <trkpt lat="47.31646" lon="4.95849">
        <ele>420</ele>
        <time>2013-03-09T10:51:59.000Z</time>
      </trkpt>
      <trkpt lat="47.31646" lon="4.95847">
        <ele>420</ele>
        <time>2013-03-09T10:52:00.000Z</time>
      </trkpt>
      <trkpt lat="47.31646" lon="4.95842">
        <ele>420</ele>
        <time>2013-03-09T10:52:02.000Z</time>
      </trkpt>
      <trkpt lat="47.31646" lon="4.95839">
        <ele>420</ele>
        <time>2013-03-09T10:52:03.000Z</time>
      </trkpt>
      <trkpt lat="47.31646" lon="4.95834">
        <ele>420</ele>
        <time>2013-03-09T10:52:05.000Z</time>
      </trkpt>
      <trkpt lat="47.31647" lon="4.95831">
        <ele>420</ele>
        <time>2013-03-09T10:52:06.000Z</time>
      </trkpt>
      <trkpt lat="47.31647" lon="4.95825">
        <ele>420</ele>
        <time>2013-03-09T10:52:08.000Z</time>
      </trkpt>
      <trkpt lat="47.31647" lon="4.95823">
        <ele>420</ele>
        <time>2013-03-09T10:52:09.000Z</time>
      </trkpt>
      <trkpt lat="47.31648" lon="4.95818">
        <ele>420</ele>
        <time>2013-03-09T10:52:11.000Z</time>
      </trkpt>
      <trkpt lat="47.31648" lon="4.95816">
        <ele>420</ele>
        <time>2013-03-09T10:52:12.000Z</time>
      </trkpt>
      <trkpt lat="47.31648" lon="4.9581">
        <ele>420</ele>
        <time>2013-03-09T10:52:14.000Z</time>
      </trkpt>
      <trkpt lat="47.31648" lon="4.95807">
        <ele>420</ele>
        <time>2013-03-09T10:52:15.000Z</time>
      </trkpt>
      <trkpt lat="47.31648" lon="4.95801">
        <ele>420</ele>
        <time>2013-03-09T10:52:17.000Z</time>
      </trkpt>
      <trkpt lat="47.31648" lon="4.95799">
        <ele>420</ele>
        <time>2013-03-09T10:52:18.000Z</time>
      </trkpt>
      <trkpt lat="47.31648" lon="4.95794">
        <ele>420</ele>
        <time>2013-03-09T10:52:20.000Z</time>
      </trkpt>
      <trkpt lat="47.31648" lon="4.95791">
        <ele>420</ele>
        <time>2013-03-09T10:52:21.000Z</time>
      </trkpt>
      <trkpt lat="47.31647" lon="4.95785">
        <ele>420</ele>
        <time>2013-03-09T10:52:24.000Z</time>
      </trkpt>
      <trkpt lat="47.31647" lon="4.95783">
        <ele>420</ele>
        <time>2013-03-09T10:52:25.000Z</time>
      </trkpt>
      <trkpt lat="47.31646" lon="4.95777">
        <ele>420</ele>
        <time>2013-03-09T10:52:28.000Z</time>
      </trkpt>
      <trkpt lat="47.31646" lon="4.95775">
        <ele>420</ele>
        <time>2013-03-09T10:52:29.000Z</time>
      </trkpt>
      <trkpt lat="47.31646" lon="4.9577">
        <ele>420</ele>
        <time>2013-03-09T10:52:31.000Z</time>
      </trkpt>
      <trkpt lat="47.31646" lon="4.95768">
        <ele>420</ele>
        <time>2013-03-09T10:52:32.000Z</time>
      </trkpt>
      <trkpt lat="47.31646" lon="4.95762">
        <ele>419</ele>
        <time>2013-03-09T10:52:34.000Z</time>
      </trkpt>
      <trkpt lat="47.31646" lon="4.9576">
        <ele>419</ele>
        <time>2013-03-09T10:52:35.000Z</time>
      </trkpt>
      <trkpt lat="47.31646" lon="4.95755">
        <ele>419</ele>
        <time>2013-03-09T10:52:37.000Z</time>
      </trkpt>
      <trkpt lat="47.31646" lon="4.95752">
        <ele>419</ele>
        <time>2013-03-09T10:52:38.000Z</time>
      </trkpt>
      <trkpt lat="47.31647" lon="4.95749">
        <ele>419</ele>
        <time>2013-03-09T10:52:39.000Z</time>
      </trkpt>
      <trkpt lat="47.31647" lon="4.95745">
        <ele>419</ele>
        <time>2013-03-09T10:52:40.000Z</time>
      </trkpt>
      <trkpt lat="47.31649" lon="4.95739">
        <ele>419</ele>
        <time>2013-03-09T10:52:42.000Z</time>
      </trkpt>
      <trkpt lat="47.31649" lon="4.95735">
        <ele>419</ele>
        <time>2013-03-09T10:52:43.000Z</time>
      </trkpt>
      <trkpt lat="47.3165" lon="4.95732">
        <ele>419</ele>
        <time>2013-03-09T10:52:44.000Z</time>
      </trkpt>
      <trkpt lat="47.31651" lon="4.95729">
        <ele>419</ele>
        <time>2013-03-09T10:52:45.000Z</time>
      </trkpt>
      <trkpt lat="47.31654" lon="4.95726">
        <ele>419</ele>
        <time>2013-03-09T10:52:47.000Z</time>
      </trkpt>
      <trkpt lat="47.31655" lon="4.95724">
        <ele>419</ele>
        <time>2013-03-09T10:52:48.000Z</time>
      </trkpt>
      <trkpt lat="47.31665" lon="4.95701">
        <ele>419</ele>
        <time>2013-03-09T10:52:57.000Z</time>
      </trkpt>
      <trkpt lat="47.31669" lon="4.957">
        <ele>416</ele>
        <time>2013-03-09T10:53:00.000Z</time>
      </trkpt>
      <trkpt lat="47.3167" lon="4.957">
        <ele>416</ele>
        <time>2013-03-09T10:53:01.000Z</time>
      </trkpt>
      <trkpt lat="47.31674" lon="4.95699">
        <ele>416</ele>
        <time>2013-03-09T10:53:03.000Z</time>
      </trkpt>
      <trkpt lat="47.31675" lon="4.95699">
        <ele>416</ele>
        <time>2013-03-09T10:53:04.000Z</time>
      </trkpt>
      <trkpt lat="47.31678" lon="4.95701">
        <ele>416</ele>
        <time>2013-03-09T10:53:06.000Z</time>
      </trkpt>
      <trkpt lat="47.3168" lon="4.95701">
        <ele>416</ele>
        <time>2013-03-09T10:53:07.000Z</time>
      </trkpt>
      <trkpt lat="47.31684" lon="4.95701">
        <ele>416</ele>
        <time>2013-03-09T10:53:09.000Z</time>
      </trkpt>
      <trkpt lat="47.31686" lon="4.95701">
        <ele>416</ele>
        <time>2013-03-09T10:53:10.000Z</time>
      </trkpt>
      <trkpt lat="47.3169" lon="4.95701">
        <ele>416</ele>
        <time>2013-03-09T10:53:12.000Z</time>
      </trkpt>
      <trkpt lat="47.31691" lon="4.957">
        <ele>416</ele>
        <time>2013-03-09T10:53:13.000Z</time>
      </trkpt>
      <trkpt lat="47.31695" lon="4.957">
        <ele>416</ele>
        <time>2013-03-09T10:53:15.000Z</time>
      </trkpt>
      <trkpt lat="47.31697" lon="4.95701">
        <ele>415</ele>
        <time>2013-03-09T10:53:16.000Z</time>
      </trkpt>
      <trkpt lat="47.31701" lon="4.95701">
        <ele>415</ele>
        <time>2013-03-09T10:53:18.000Z</time>
      </trkpt>
      <trkpt lat="47.31703" lon="4.95701">
        <ele>415</ele>
        <time>2013-03-09T10:53:19.000Z</time>
      </trkpt>
      <trkpt lat="47.31707" lon="4.95702">
        <ele>415</ele>
        <time>2013-03-09T10:53:21.000Z</time>
      </trkpt>
      <trkpt lat="47.31709" lon="4.95702">
        <ele>415</ele>
        <time>2013-03-09T10:53:22.000Z</time>
      </trkpt>
      <trkpt lat="47.31713" lon="4.95702">
        <ele>415</ele>
        <time>2013-03-09T10:53:24.000Z</time>
      </trkpt>
      <trkpt lat="47.31714" lon="4.95702">
        <ele>415</ele>
        <time>2013-03-09T10:53:25.000Z</time>
      </trkpt>
      <trkpt lat="47.31718" lon="4.95703">
        <ele>415</ele>
        <time>2013-03-09T10:53:27.000Z</time>
      </trkpt>
      <trkpt lat="47.3172" lon="4.95704">
        <ele>415</ele>
        <time>2013-03-09T10:53:28.000Z</time>
      </trkpt>
      <trkpt lat="47.31724" lon="4.95704">
        <ele>414</ele>
        <time>2013-03-09T10:53:30.000Z</time>
      </trkpt>
      <trkpt lat="47.31725" lon="4.95705">
        <ele>414</ele>
        <time>2013-03-09T10:53:31.000Z</time>
      </trkpt>
      <trkpt lat="47.31729" lon="4.95706">
        <ele>414</ele>
        <time>2013-03-09T10:53:33.000Z</time>
      </trkpt>
      <trkpt lat="47.31731" lon="4.95706">
        <ele>414</ele>
        <time>2013-03-09T10:53:34.000Z</time>
      </trkpt>
      <trkpt lat="47.31734" lon="4.95706">
        <ele>414</ele>
        <time>2013-03-09T10:53:36.000Z</time>
      </trkpt>
      <trkpt lat="47.31736" lon="4.95706">
        <ele>414</ele>
        <time>2013-03-09T10:53:37.000Z</time>
      </trkpt>
      <trkpt lat="47.3174" lon="4.95706">
        <ele>414</ele>
        <time>2013-03-09T10:53:39.000Z</time>
      </trkpt>
      <trkpt lat="47.31742" lon="4.95706">
        <ele>414</ele>
        <time>2013-03-09T10:53:40.000Z</time>
      </trkpt>
      <trkpt lat="47.31745" lon="4.95706">
        <ele>414</ele>
        <time>2013-03-09T10:53:42.000Z</time>
      </trkpt>
      <trkpt lat="47.31747" lon="4.95706">
        <ele>414</ele>
        <time>2013-03-09T10:53:43.000Z</time>
      </trkpt>
      <trkpt lat="47.31751" lon="4.95706">
        <ele>409</ele>
        <time>2013-03-09T10:53:45.000Z</time>
      </trkpt>
      <trkpt lat="47.31753" lon="4.95706">
        <ele>409</ele>
        <time>2013-03-09T10:53:46.000Z</time>
      </trkpt>
      <trkpt lat="47.31757" lon="4.95706">
        <ele>409</ele>
        <time>2013-03-09T10:53:48.000Z</time>
      </trkpt>
      <trkpt lat="47.31759" lon="4.95706">
        <ele>409</ele>
        <time>2013-03-09T10:53:49.000Z</time>
      </trkpt>
      <trkpt lat="47.31762" lon="4.95706">
        <ele>409</ele>
        <time>2013-03-09T10:53:51.000Z</time>
      </trkpt>
      <trkpt lat="47.31764" lon="4.95706">
        <ele>409</ele>
        <time>2013-03-09T10:53:52.000Z</time>
      </trkpt>
      <trkpt lat="47.31768" lon="4.95705">
        <ele>408</ele>
        <time>2013-03-09T10:53:54.000Z</time>
      </trkpt>
      <trkpt lat="47.31769" lon="4.95705">
        <ele>408</ele>
        <time>2013-03-09T10:53:55.000Z</time>
      </trkpt>
      <trkpt lat="47.31773" lon="4.95704">
        <ele>408</ele>
        <time>2013-03-09T10:53:57.000Z</time>
      </trkpt>
      <trkpt lat="47.31775" lon="4.95704">
        <ele>408</ele>
        <time>2013-03-09T10:53:58.000Z</time>
      </trkpt>
      <trkpt lat="47.31778" lon="4.95703">
        <ele>408</ele>
        <time>2013-03-09T10:54:00.000Z</time>
      </trkpt>
      <trkpt lat="47.3178" lon="4.95702">
        <ele>408</ele>
        <time>2013-03-09T10:54:01.000Z</time>
      </trkpt>
      <trkpt lat="47.31783" lon="4.95701">
        <ele>408</ele>
        <time>2013-03-09T10:54:03.000Z</time>
      </trkpt>
      <trkpt lat="47.31785" lon="4.95701">
        <ele>408</ele>
        <time>2013-03-09T10:54:04.000Z</time>
      </trkpt>
      <trkpt lat="47.31788" lon="4.957">
        <ele>408</ele>
        <time>2013-03-09T10:54:06.000Z</time>
      </trkpt>
      <trkpt lat="47.3179" lon="4.957">
        <ele>408</ele>
        <time>2013-03-09T10:54:07.000Z</time>
      </trkpt>
      <trkpt lat="47.31793" lon="4.957">
        <ele>407</ele>
        <time>2013-03-09T10:54:09.000Z</time>
      </trkpt>
      <trkpt lat="47.31795" lon="4.957">
        <ele>407</ele>
        <time>2013-03-09T10:54:10.000Z</time>
      </trkpt>
      <trkpt lat="47.31799" lon="4.957">
        <ele>407</ele>
        <time>2013-03-09T10:54:12.000Z</time>
      </trkpt>
      <trkpt lat="47.31801" lon="4.957">
        <ele>407</ele>
        <time>2013-03-09T10:54:13.000Z</time>
      </trkpt>
      <trkpt lat="47.31805" lon="4.957">
        <ele>407</ele>
        <time>2013-03-09T10:54:15.000Z</time>
      </trkpt>
      <trkpt lat="47.31807" lon="4.957">
        <ele>407</ele>
        <time>2013-03-09T10:54:16.000Z</time>
      </trkpt>
      <trkpt lat="47.3181" lon="4.95701">
        <ele>407</ele>
        <time>2013-03-09T10:54:18.000Z</time>
      </trkpt>
      <trkpt lat="47.31812" lon="4.95702">
        <ele>407</ele>
        <time>2013-03-09T10:54:19.000Z</time>
      </trkpt>
      <trkpt lat="47.31816" lon="4.95703">
        <ele>406</ele>
        <time>2013-03-09T10:54:21.000Z</time>
      </trkpt>
      <trkpt lat="47.31818" lon="4.95703">
        <ele>406</ele>
        <time>2013-03-09T10:54:22.000Z</time>
      </trkpt>
      <trkpt lat="47.31822" lon="4.95705">
        <ele>406</ele>
        <time>2013-03-09T10:54:24.000Z</time>
      </trkpt>
      <trkpt lat="47.31824" lon="4.95706">
        <ele>406</ele>
        <time>2013-03-09T10:54:25.000Z</time>
      </trkpt>
      <trkpt lat="47.31828" lon="4.95707">
        <ele>406</ele>
        <time>2013-03-09T10:54:27.000Z</time>
      </trkpt>
      <trkpt lat="47.3183" lon="4.95708">
        <ele>406</ele>
        <time>2013-03-09T10:54:28.000Z</time>
      </trkpt>
      <trkpt lat="47.31834" lon="4.9571">
        <ele>400</ele>
        <time>2013-03-09T10:54:30.000Z</time>
      </trkpt>
      <trkpt lat="47.31836" lon="4.95711">
        <ele>400</ele>
        <time>2013-03-09T10:54:31.000Z</time>
      </trkpt>
      <trkpt lat="47.31839" lon="4.95713">
        <ele>400</ele>
        <time>2013-03-09T10:54:33.000Z</time>
      </trkpt>
      <trkpt lat="47.31841" lon="4.95714">
        <ele>400</ele>
        <time>2013-03-09T10:54:34.000Z</time>
      </trkpt>
      <trkpt lat="47.31844" lon="4.95718">
        <ele>400</ele>
        <time>2013-03-09T10:54:36.000Z</time>
      </trkpt>
      <trkpt lat="47.31846" lon="4.9572">
        <ele>400</ele>
        <time>2013-03-09T10:54:37.000Z</time>
      </trkpt>
      <trkpt lat="47.31849" lon="4.95724">
        <ele>400</ele>
        <time>2013-03-09T10:54:39.000Z</time>
      </trkpt>
      <trkpt lat="47.31851" lon="4.95726">
        <ele>399</ele>
        <time>2013-03-09T10:54:40.000Z</time>
      </trkpt>
      <trkpt lat="47.31853" lon="4.95731">
        <ele>399</ele>
        <time>2013-03-09T10:54:42.000Z</time>
      </trkpt>
      <trkpt lat="47.31854" lon="4.95733">
        <ele>399</ele>
        <time>2013-03-09T10:54:43.000Z</time>
      </trkpt>
      <trkpt lat="47.31857" lon="4.95737">
        <ele>399</ele>
        <time>2013-03-09T10:54:45.000Z</time>
      </trkpt>
      <trkpt lat="47.31858" lon="4.95739">
        <ele>399</ele>
        <time>2013-03-09T10:54:46.000Z</time>
      </trkpt>
      <trkpt lat="47.3186" lon="4.95744">
        <ele>399</ele>
        <time>2013-03-09T10:54:48.000Z</time>
      </trkpt>
      <trkpt lat="47.31862" lon="4.95746">
        <ele>399</ele>
        <time>2013-03-09T10:54:49.000Z</time>
      </trkpt>
      <trkpt lat="47.31871" lon="4.9576">
        <ele>395</ele>
        <time>2013-03-09T10:54:56.000Z</time>
      </trkpt>
      <trkpt lat="47.31873" lon="4.95763">
        <ele>395</ele>
        <time>2013-03-09T10:54:58.000Z</time>
      </trkpt>
      <trkpt lat="47.31875" lon="4.95765">
        <ele>395</ele>
        <time>2013-03-09T10:54:59.000Z</time>
      </trkpt>
      <trkpt lat="47.31878" lon="4.95769">
        <ele>394</ele>
        <time>2013-03-09T10:55:01.000Z</time>
      </trkpt>
      <trkpt lat="47.31879" lon="4.95771">
        <ele>394</ele>
        <time>2013-03-09T10:55:02.000Z</time>
      </trkpt>
      <trkpt lat="47.31881" lon="4.95774">
        <ele>394</ele>
        <time>2013-03-09T10:55:04.000Z</time>
      </trkpt>
      <trkpt lat="47.31882" lon="4.95777">
        <ele>394</ele>
        <time>2013-03-09T10:55:05.000Z</time>
      </trkpt>
      <trkpt lat="47.31884" lon="4.9578">
        <ele>394</ele>
        <time>2013-03-09T10:55:07.000Z</time>
      </trkpt>
      <trkpt lat="47.31885" lon="4.95782">
        <ele>394</ele>
        <time>2013-03-09T10:55:08.000Z</time>
      </trkpt>
      <trkpt lat="47.31888" lon="4.95786">
        <ele>394</ele>
        <time>2013-03-09T10:55:10.000Z</time>
      </trkpt>
      <trkpt lat="47.31889" lon="4.95789">
        <ele>394</ele>
        <time>2013-03-09T10:55:11.000Z</time>
      </trkpt>
      <trkpt lat="47.31891" lon="4.95791">
        <ele>393</ele>
        <time>2013-03-09T10:55:12.000Z</time>
      </trkpt>
      <trkpt lat="47.31892" lon="4.95794">
        <ele>393</ele>
        <time>2013-03-09T10:55:13.000Z</time>
      </trkpt>
      <trkpt lat="47.31894" lon="4.95796">
        <ele>393</ele>
        <time>2013-03-09T10:55:14.000Z</time>
      </trkpt>
      <trkpt lat="47.31896" lon="4.95799">
        <ele>393</ele>
        <time>2013-03-09T10:55:15.000Z</time>
      </trkpt>
      <trkpt lat="47.31898" lon="4.95802">
        <ele>393</ele>
        <time>2013-03-09T10:55:16.000Z</time>
      </trkpt>
      <trkpt lat="47.31899" lon="4.95804">
        <ele>393</ele>
        <time>2013-03-09T10:55:17.000Z</time>
      </trkpt>
      <trkpt lat="47.31901" lon="4.95808">
        <ele>392</ele>
        <time>2013-03-09T10:55:18.000Z</time>
      </trkpt>
      <trkpt lat="47.31903" lon="4.95811">
        <ele>392</ele>
        <time>2013-03-09T10:55:19.000Z</time>
      </trkpt>
      <trkpt lat="47.31905" lon="4.95814">
        <ele>392</ele>
        <time>2013-03-09T10:55:20.000Z</time>
      </trkpt>
      <trkpt lat="47.31907" lon="4.95817">
        <ele>391</ele>
        <time>2013-03-09T10:55:21.000Z</time>
      </trkpt>
      <trkpt lat="47.31908" lon="4.9582">
        <ele>391</ele>
        <time>2013-03-09T10:55:22.000Z</time>
      </trkpt>
      <trkpt lat="47.31909" lon="4.95823">
        <ele>391</ele>
        <time>2013-03-09T10:55:23.000Z</time>
      </trkpt>
      <trkpt lat="47.31912" lon="4.95828">
        <ele>390</ele>
        <time>2013-03-09T10:55:25.000Z</time>
      </trkpt>
      <trkpt lat="47.31914" lon="4.9583">
        <ele>389</ele>
        <time>2013-03-09T10:55:26.000Z</time>
      </trkpt>
      <trkpt lat="47.31918" lon="4.95833">
        <ele>388</ele>
        <time>2013-03-09T10:55:28.000Z</time>
      </trkpt>
      <trkpt lat="47.31919" lon="4.95834">
        <ele>387</ele>
        <time>2013-03-09T10:55:29.000Z</time>
      </trkpt>
      <trkpt lat="47.31923" lon="4.95836">
        <ele>387</ele>
        <time>2013-03-09T10:55:31.000Z</time>
      </trkpt>
      <trkpt lat="47.31926" lon="4.95837">
        <ele>386</ele>
        <time>2013-03-09T10:55:32.000Z</time>
      </trkpt>
      <trkpt lat="47.31929" lon="4.95839">
        <ele>386</ele>
        <time>2013-03-09T10:55:34.000Z</time>
      </trkpt>
      <trkpt lat="47.31931" lon="4.9584">
        <ele>385</ele>
        <time>2013-03-09T10:55:35.000Z</time>
      </trkpt>
      <trkpt lat="47.31935" lon="4.95842">
        <ele>385</ele>
        <time>2013-03-09T10:55:37.000Z</time>
      </trkpt>
      <trkpt lat="47.31937" lon="4.95843">
        <ele>384</ele>
        <time>2013-03-09T10:55:38.000Z</time>
      </trkpt>
      <trkpt lat="47.31941" lon="4.95845">
        <ele>384</ele>
        <time>2013-03-09T10:55:40.000Z</time>
      </trkpt>
      <trkpt lat="47.31943" lon="4.95846">
        <ele>384</ele>
        <time>2013-03-09T10:55:41.000Z</time>
      </trkpt>
      <trkpt lat="47.31947" lon="4.95847">
        <ele>383</ele>
        <time>2013-03-09T10:55:43.000Z</time>
      </trkpt>
      <trkpt lat="47.31949" lon="4.95848">
        <ele>383</ele>
        <time>2013-03-09T10:55:44.000Z</time>
      </trkpt>
      <trkpt lat="47.31952" lon="4.9585">
        <ele>383</ele>
        <time>2013-03-09T10:55:46.000Z</time>
      </trkpt>
      <trkpt lat="47.31954" lon="4.95851">
        <ele>383</ele>
        <time>2013-03-09T10:55:47.000Z</time>
      </trkpt>
      <trkpt lat="47.31956" lon="4.95852">
        <ele>383</ele>
        <time>2013-03-09T10:55:48.000Z</time>
      </trkpt>
      <trkpt lat="47.31995" lon="4.95869">
        <ele>380</ele>
        <time>2013-03-09T10:56:04.000Z</time>
      </trkpt>
      <trkpt lat="47.31997" lon="4.95868">
        <ele>380</ele>
        <time>2013-03-09T10:56:06.000Z</time>
      </trkpt>
      <trkpt lat="47.31999" lon="4.95869">
        <ele>380</ele>
        <time>2013-03-09T10:56:07.000Z</time>
      </trkpt>
      <trkpt lat="47.32001" lon="4.9587">
        <ele>379</ele>
        <time>2013-03-09T10:56:08.000Z</time>
      </trkpt>
      <trkpt lat="47.32004" lon="4.95871">
        <ele>379</ele>
        <time>2013-03-09T10:56:09.000Z</time>
      </trkpt>
      <trkpt lat="47.32008" lon="4.95872">
        <ele>379</ele>
        <time>2013-03-09T10:56:11.000Z</time>
      </trkpt>
      <trkpt lat="47.3201" lon="4.95872">
        <ele>379</ele>
        <time>2013-03-09T10:56:12.000Z</time>
      </trkpt>
      <trkpt lat="47.32014" lon="4.95873">
        <ele>379</ele>
        <time>2013-03-09T10:56:14.000Z</time>
      </trkpt>
      <trkpt lat="47.32016" lon="4.95873">
        <ele>379</ele>
        <time>2013-03-09T10:56:15.000Z</time>
      </trkpt>
      <trkpt lat="47.32019" lon="4.95874">
        <ele>379</ele>
        <time>2013-03-09T10:56:17.000Z</time>
      </trkpt>
      <trkpt lat="47.32021" lon="4.95874">
        <ele>379</ele>
        <time>2013-03-09T10:56:18.000Z</time>
      </trkpt>
      <trkpt lat="47.32025" lon="4.95876">
        <ele>379</ele>
        <time>2013-03-09T10:56:20.000Z</time>
      </trkpt>
      <trkpt lat="47.32028" lon="4.95877">
        <ele>379</ele>
        <time>2013-03-09T10:56:22.000Z</time>
      </trkpt>
      <trkpt lat="47.32031" lon="4.95877">
        <ele>379</ele>
        <time>2013-03-09T10:56:24.000Z</time>
      </trkpt>
      <trkpt lat="47.32032" lon="4.95877">
        <ele>379</ele>
        <time>2013-03-09T10:56:25.000Z</time>
      </trkpt>
      <trkpt lat="47.32035" lon="4.9588">
        <ele>379</ele>
        <time>2013-03-09T10:56:27.000Z</time>
      </trkpt>
      <trkpt lat="47.32037" lon="4.95881">
        <ele>379</ele>
        <time>2013-03-09T10:56:28.000Z</time>
      </trkpt>
      <trkpt lat="47.32041" lon="4.95882">
        <ele>380</ele>
        <time>2013-03-09T10:56:30.000Z</time>
      </trkpt>
      <trkpt lat="47.32042" lon="4.95883">
        <ele>380</ele>
        <time>2013-03-09T10:56:31.000Z</time>
      </trkpt>
      <trkpt lat="47.32045" lon="4.95885">
        <ele>380</ele>
        <time>2013-03-09T10:56:33.000Z</time>
      </trkpt>
      <trkpt lat="47.32047" lon="4.95887">
        <ele>380</ele>
        <time>2013-03-09T10:56:34.000Z</time>
      </trkpt>
      <trkpt lat="47.32049" lon="4.95889">
        <ele>380</ele>
        <time>2013-03-09T10:56:36.000Z</time>
      </trkpt>
      <trkpt lat="47.3205" lon="4.95891">
        <ele>380</ele>
        <time>2013-03-09T10:56:37.000Z</time>
      </trkpt>
      <trkpt lat="47.32053" lon="4.95895">
        <ele>380</ele>
        <time>2013-03-09T10:56:39.000Z</time>
      </trkpt>
      <trkpt lat="47.32054" lon="4.95897">
        <ele>379</ele>
        <time>2013-03-09T10:56:40.000Z</time>
      </trkpt>
      <trkpt lat="47.32057" lon="4.95902">
        <ele>379</ele>
        <time>2013-03-09T10:56:42.000Z</time>
      </trkpt>
      <trkpt lat="47.32058" lon="4.95904">
        <ele>379</ele>
        <time>2013-03-09T10:56:43.000Z</time>
      </trkpt>
      <trkpt lat="47.32061" lon="4.95908">
        <ele>379</ele>
        <time>2013-03-09T10:56:45.000Z</time>
      </trkpt>
      <trkpt lat="47.32062" lon="4.95911">
        <ele>379</ele>
        <time>2013-03-09T10:56:46.000Z</time>
      </trkpt>
      <trkpt lat="47.32064" lon="4.95914">
        <ele>379</ele>
        <time>2013-03-09T10:56:48.000Z</time>
      </trkpt>
      <trkpt lat="47.32065" lon="4.95915">
        <ele>379</ele>
        <time>2013-03-09T10:56:49.000Z</time>
      </trkpt>
      <trkpt lat="47.32094" lon="4.9594">
        <ele>381</ele>
        <time>2013-03-09T10:57:07.000Z</time>
      </trkpt>
      <trkpt lat="47.32097" lon="4.95944">
        <ele>381</ele>
        <time>2013-03-09T10:57:11.000Z</time>
      </trkpt>
      <trkpt lat="47.32099" lon="4.95944">
        <ele>381</ele>
        <time>2013-03-09T10:57:12.000Z</time>
      </trkpt>
      <trkpt lat="47.32103" lon="4.95944">
        <ele>382</ele>
        <time>2013-03-09T10:57:15.000Z</time>
      </trkpt>
      <trkpt lat="47.32104" lon="4.95944">
        <ele>382</ele>
        <time>2013-03-09T10:57:16.000Z</time>
      </trkpt>
      <trkpt lat="47.32108" lon="4.95946">
        <ele>382</ele>
        <time>2013-03-09T10:57:19.000Z</time>
      </trkpt>
      <trkpt lat="47.32166" lon="4.95947">
        <ele>387</ele>
        <time>2013-03-09T10:57:56.000Z</time>
      </trkpt>
      <trkpt lat="47.32169" lon="4.95948">
        <ele>394</ele>
        <time>2013-03-09T10:57:58.000Z</time>
      </trkpt>
      <trkpt lat="47.3217" lon="4.95949">
        <ele>394</ele>
        <time>2013-03-09T10:57:59.000Z</time>
      </trkpt>
      <trkpt lat="47.32174" lon="4.9595">
        <ele>394</ele>
        <time>2013-03-09T10:58:02.000Z</time>
      </trkpt>
      <trkpt lat="47.32175" lon="4.9595">
        <ele>394</ele>
        <time>2013-03-09T10:58:03.000Z</time>
      </trkpt>
      <trkpt lat="47.32178" lon="4.95951">
        <ele>395</ele>
        <time>2013-03-09T10:58:05.000Z</time>
      </trkpt>
      <trkpt lat="47.3218" lon="4.95952">
        <ele>395</ele>
        <time>2013-03-09T10:58:06.000Z</time>
      </trkpt>
      <trkpt lat="47.32183" lon="4.95954">
        <ele>395</ele>
        <time>2013-03-09T10:58:08.000Z</time>
      </trkpt>
      <trkpt lat="47.32184" lon="4.95955">
        <ele>395</ele>
        <time>2013-03-09T10:58:09.000Z</time>
      </trkpt>
      <trkpt lat="47.32187" lon="4.95957">
        <ele>395</ele>
        <time>2013-03-09T10:58:11.000Z</time>
      </trkpt>
      <trkpt lat="47.32189" lon="4.95958">
        <ele>395</ele>
        <time>2013-03-09T10:58:12.000Z</time>
      </trkpt>
      <trkpt lat="47.32191" lon="4.9596">
        <ele>395</ele>
        <time>2013-03-09T10:58:14.000Z</time>
      </trkpt>
      <trkpt lat="47.32193" lon="4.95961">
        <ele>395</ele>
        <time>2013-03-09T10:58:15.000Z</time>
      </trkpt>
      <trkpt lat="47.32196" lon="4.95963">
        <ele>395</ele>
        <time>2013-03-09T10:58:17.000Z</time>
      </trkpt>
      <trkpt lat="47.32198" lon="4.95964">
        <ele>395</ele>
        <time>2013-03-09T10:58:18.000Z</time>
      </trkpt>
      <trkpt lat="47.32199" lon="4.95965">
        <ele>395</ele>
        <time>2013-03-09T10:58:19.000Z</time>
      </trkpt>
      <trkpt lat="47.32168" lon="4.95811">
        <ele>399</ele>
        <time>2013-03-09T10:59:07.000Z</time>
      </trkpt>
      <trkpt lat="47.32174" lon="4.9582">
        <ele>399</ele>
        <time>2013-03-09T10:59:08.000Z</time>
      </trkpt>
      <trkpt lat="47.32182" lon="4.95831">
        <ele>399</ele>
        <time>2013-03-09T10:59:09.000Z</time>
      </trkpt>
      <trkpt lat="47.32184" lon="4.95835">
        <ele>398</ele>
        <time>2013-03-09T10:59:10.000Z</time>
      </trkpt>
      <trkpt lat="47.3219" lon="4.95844">
        <ele>398</ele>
        <time>2013-03-09T10:59:11.000Z</time>
      </trkpt>
      <trkpt lat="47.32194" lon="4.9585">
        <ele>398</ele>
        <time>2013-03-09T10:59:12.000Z</time>
      </trkpt>
      <trkpt lat="47.32199" lon="4.95857">
        <ele>398</ele>
        <time>2013-03-09T10:59:13.000Z</time>
      </trkpt>
      <trkpt lat="47.32213" lon="4.95888">
        <ele>398</ele>
        <time>2013-03-09T10:59:14.000Z</time>
      </trkpt>
      <trkpt lat="47.3223" lon="4.95923">
        <ele>398</ele>
        <time>2013-03-09T10:59:15.000Z</time>
      </trkpt>
      <trkpt lat="47.32239" lon="4.95938">
        <ele>398</ele>
        <time>2013-03-09T10:59:16.000Z</time>
      </trkpt>
      <trkpt lat="47.32254" lon="4.95965">
        <ele>402</ele>
        <time>2013-03-09T10:59:17.000Z</time>
      </trkpt>
      <trkpt lat="47.3227" lon="4.96008">
        <ele>401</ele>
        <time>2013-03-09T10:59:18.000Z</time>
      </trkpt>
      <trkpt lat="47.32277" lon="4.96015">
        <ele>401</ele>
        <time>2013-03-09T10:59:19.000Z</time>
      </trkpt>
      <trkpt lat="47.32281" lon="4.96017">
        <ele>401</ele>
        <time>2013-03-09T10:59:20.000Z</time>
      </trkpt>
      <trkpt lat="47.32285" lon="4.96018">
        <ele>401</ele>
        <time>2013-03-09T10:59:21.000Z</time>
      </trkpt>
      <trkpt lat="47.32288" lon="4.96019">
        <ele>401</ele>
        <time>2013-03-09T10:59:22.000Z</time>
      </trkpt>
      <trkpt lat="47.32291" lon="4.9602">
        <ele>401</ele>
        <time>2013-03-09T10:59:23.000Z</time>
      </trkpt>
      <trkpt lat="47.32293" lon="4.96021">
        <ele>401</ele>
        <time>2013-03-09T10:59:24.000Z</time>
      </trkpt>
      <trkpt lat="47.32295" lon="4.96022">
        <ele>401</ele>
        <time>2013-03-09T10:59:25.000Z</time>
      </trkpt>
      <trkpt lat="47.32297" lon="4.96022">
        <ele>401</ele>
        <time>2013-03-09T10:59:26.000Z</time>
      </trkpt>
      <trkpt lat="47.32302" lon="4.96024">
        <ele>402</ele>
        <time>2013-03-09T10:59:28.000Z</time>
      </trkpt>
      <trkpt lat="47.32304" lon="4.96024">
        <ele>402</ele>
        <time>2013-03-09T10:59:29.000Z</time>
      </trkpt>
      <trkpt lat="47.32308" lon="4.96026">
        <ele>402</ele>
        <time>2013-03-09T10:59:31.000Z</time>
      </trkpt>
      <trkpt lat="47.3231" lon="4.96027">
        <ele>402</ele>
        <time>2013-03-09T10:59:32.000Z</time>
      </trkpt>
      <trkpt lat="47.32314" lon="4.96028">
        <ele>402</ele>
        <time>2013-03-09T10:59:34.000Z</time>
      </trkpt>
      <trkpt lat="47.32316" lon="4.96029">
        <ele>402</ele>
        <time>2013-03-09T10:59:35.000Z</time>
      </trkpt>
      <trkpt lat="47.32319" lon="4.9603">
        <ele>402</ele>
        <time>2013-03-09T10:59:37.000Z</time>
      </trkpt>
      <trkpt lat="47.32321" lon="4.96031">
        <ele>402</ele>
        <time>2013-03-09T10:59:38.000Z</time>
      </trkpt>
      <trkpt lat="47.32325" lon="4.96032">
        <ele>402</ele>
        <time>2013-03-09T10:59:40.000Z</time>
      </trkpt>
      <trkpt lat="47.32327" lon="4.96032">
        <ele>402</ele>
        <time>2013-03-09T10:59:41.000Z</time>
      </trkpt>
      <trkpt lat="47.3233" lon="4.96033">
        <ele>402</ele>
        <time>2013-03-09T10:59:43.000Z</time>
      </trkpt>
      <trkpt lat="47.32332" lon="4.96034">
        <ele>402</ele>
        <time>2013-03-09T10:59:44.000Z</time>
      </trkpt>
      <trkpt lat="47.32336" lon="4.96034">
        <ele>403</ele>
        <time>2013-03-09T10:59:46.000Z</time>
      </trkpt>
      <trkpt lat="47.32337" lon="4.96035">
        <ele>403</ele>
        <time>2013-03-09T10:59:47.000Z</time>
      </trkpt>
      <trkpt lat="47.32341" lon="4.96036">
        <ele>403</ele>
        <time>2013-03-09T10:59:49.000Z</time>
      </trkpt>
      <trkpt lat="47.32342" lon="4.96036">
        <ele>403</ele>
        <time>2013-03-09T10:59:50.000Z</time>
      </trkpt>
      <trkpt lat="47.32346" lon="4.96038">
        <ele>403</ele>
        <time>2013-03-09T10:59:52.000Z</time>
      </trkpt>
      <trkpt lat="47.32348" lon="4.96038">
        <ele>403</ele>
        <time>2013-03-09T10:59:53.000Z</time>
      </trkpt>
      <trkpt lat="47.32351" lon="4.96039">
        <ele>403</ele>
        <time>2013-03-09T10:59:55.000Z</time>
      </trkpt>
      <trkpt lat="47.32353" lon="4.9604">
        <ele>403</ele>
        <time>2013-03-09T10:59:56.000Z</time>
      </trkpt>
      <trkpt lat="47.32357" lon="4.96041">
        <ele>403</ele>
        <time>2013-03-09T10:59:58.000Z</time>
      </trkpt>
      <trkpt lat="47.32359" lon="4.96041">
        <ele>403</ele>
        <time>2013-03-09T10:59:59.000Z</time>
      </trkpt>
      <trkpt lat="47.32362" lon="4.96043">
        <ele>403</ele>
        <time>2013-03-09T11:00:01.000Z</time>
      </trkpt>
      <trkpt lat="47.32364" lon="4.96043">
        <ele>403</ele>
        <time>2013-03-09T11:00:02.000Z</time>
      </trkpt>
      <trkpt lat="47.32368" lon="4.96044">
        <ele>403</ele>
        <time>2013-03-09T11:00:04.000Z</time>
      </trkpt>
      <trkpt lat="47.3237" lon="4.96045">
        <ele>403</ele>
        <time>2013-03-09T11:00:05.000Z</time>
      </trkpt>
      <trkpt lat="47.32373" lon="4.96046">
        <ele>403</ele>
        <time>2013-03-09T11:00:07.000Z</time>
      </trkpt>
      <trkpt lat="47.32375" lon="4.96046">
        <ele>403</ele>
        <time>2013-03-09T11:00:08.000Z</time>
      </trkpt>
      <trkpt lat="47.32379" lon="4.96047">
        <ele>403</ele>
        <time>2013-03-09T11:00:10.000Z</time>
      </trkpt>
      <trkpt lat="47.3238" lon="4.96047">
        <ele>404</ele>
        <time>2013-03-09T11:00:11.000Z</time>
      </trkpt>
      <trkpt lat="47.32384" lon="4.96048">
        <ele>404</ele>
        <time>2013-03-09T11:00:13.000Z</time>
      </trkpt>
      <trkpt lat="47.32386" lon="4.96049">
        <ele>404</ele>
        <time>2013-03-09T11:00:14.000Z</time>
      </trkpt>
      <trkpt lat="47.32389" lon="4.9605">
        <ele>404</ele>
        <time>2013-03-09T11:00:16.000Z</time>
      </trkpt>
      <trkpt lat="47.32391" lon="4.9605">
        <ele>404</ele>
        <time>2013-03-09T11:00:17.000Z</time>
      </trkpt>
      <trkpt lat="47.32395" lon="4.96052">
        <ele>404</ele>
        <time>2013-03-09T11:00:19.000Z</time>
      </trkpt>
      <trkpt lat="47.32397" lon="4.96052">
        <ele>404</ele>
        <time>2013-03-09T11:00:20.000Z</time>
      </trkpt>
      <trkpt lat="47.324" lon="4.96053">
        <ele>404</ele>
        <time>2013-03-09T11:00:22.000Z</time>
      </trkpt>
      <trkpt lat="47.32402" lon="4.96053">
        <ele>404</ele>
        <time>2013-03-09T11:00:23.000Z</time>
      </trkpt>
      <trkpt lat="47.32406" lon="4.96054">
        <ele>404</ele>
        <time>2013-03-09T11:00:25.000Z</time>
      </trkpt>
      <trkpt lat="47.32407" lon="4.96055">
        <ele>404</ele>
        <time>2013-03-09T11:00:26.000Z</time>
      </trkpt>
      <trkpt lat="47.32411" lon="4.96055">
        <ele>404</ele>
        <time>2013-03-09T11:00:28.000Z</time>
      </trkpt>
      <trkpt lat="47.32413" lon="4.96056">
        <ele>404</ele>
        <time>2013-03-09T11:00:29.000Z</time>
      </trkpt>
      <trkpt lat="47.32416" lon="4.96057">
        <ele>404</ele>
        <time>2013-03-09T11:00:31.000Z</time>
      </trkpt>
      <trkpt lat="47.32418" lon="4.96057">
        <ele>404</ele>
        <time>2013-03-09T11:00:32.000Z</time>
      </trkpt>
      <trkpt lat="47.32421" lon="4.96058">
        <ele>404</ele>
        <time>2013-03-09T11:00:34.000Z</time>
      </trkpt>
      <trkpt lat="47.32423" lon="4.96059">
        <ele>404</ele>
        <time>2013-03-09T11:00:35.000Z</time>
      </trkpt>
      <trkpt lat="47.32427" lon="4.9606">
        <ele>404</ele>
        <time>2013-03-09T11:00:37.000Z</time>
      </trkpt>
      <trkpt lat="47.32428" lon="4.9606">
        <ele>404</ele>
        <time>2013-03-09T11:00:38.000Z</time>
      </trkpt>
      <trkpt lat="47.32432" lon="4.9606">
        <ele>404</ele>
        <time>2013-03-09T11:00:40.000Z</time>
      </trkpt>
      <trkpt lat="47.32434" lon="4.9606">
        <ele>404</ele>
        <time>2013-03-09T11:00:41.000Z</time>
      </trkpt>
      <trkpt lat="47.32437" lon="4.96061">
        <ele>404</ele>
        <time>2013-03-09T11:00:43.000Z</time>
      </trkpt>
      <trkpt lat="47.32439" lon="4.96061">
        <ele>404</ele>
        <time>2013-03-09T11:00:44.000Z</time>
      </trkpt>
      <trkpt lat="47.32443" lon="4.96062">
        <ele>404</ele>
        <time>2013-03-09T11:00:46.000Z</time>
      </trkpt>
      <trkpt lat="47.32445" lon="4.96062">
        <ele>404</ele>
        <time>2013-03-09T11:00:47.000Z</time>
      </trkpt>
      <trkpt lat="47.32448" lon="4.96063">
        <ele>404</ele>
        <time>2013-03-09T11:00:49.000Z</time>
      </trkpt>
      <trkpt lat="47.3245" lon="4.96063">
        <ele>404</ele>
        <time>2013-03-09T11:00:50.000Z</time>
      </trkpt>
      <trkpt lat="47.32454" lon="4.96064">
        <ele>404</ele>
        <time>2013-03-09T11:00:52.000Z</time>
      </trkpt>
      <trkpt lat="47.32456" lon="4.96064">
        <ele>404</ele>
        <time>2013-03-09T11:00:53.000Z</time>
      </trkpt>
      <trkpt lat="47.32459" lon="4.96064">
        <ele>404</ele>
        <time>2013-03-09T11:00:55.000Z</time>
      </trkpt>
      <trkpt lat="47.32461" lon="4.96065">
        <ele>404</ele>
        <time>2013-03-09T11:00:56.000Z</time>
      </trkpt>
      <trkpt lat="47.32465" lon="4.96065">
        <ele>403</ele>
        <time>2013-03-09T11:00:58.000Z</time>
      </trkpt>
      <trkpt lat="47.32466" lon="4.96065">
        <ele>403</ele>
        <time>2013-03-09T11:00:59.000Z</time>
      </trkpt>
      <trkpt lat="47.3247" lon="4.96065">
        <ele>403</ele>
        <time>2013-03-09T11:01:01.000Z</time>
      </trkpt>
      <trkpt lat="47.32472" lon="4.96065">
        <ele>403</ele>
        <time>2013-03-09T11:01:02.000Z</time>
      </trkpt>
      <trkpt lat="47.32475" lon="4.96065">
        <ele>403</ele>
        <time>2013-03-09T11:01:04.000Z</time>
      </trkpt>
      <trkpt lat="47.32477" lon="4.96064">
        <ele>403</ele>
        <time>2013-03-09T11:01:05.000Z</time>
      </trkpt>
      <trkpt lat="47.3248" lon="4.96061">
        <ele>403</ele>
        <time>2013-03-09T11:01:07.000Z</time>
      </trkpt>
      <trkpt lat="47.32481" lon="4.96059">
        <ele>403</ele>
        <time>2013-03-09T11:01:08.000Z</time>
      </trkpt>
      <trkpt lat="47.32483" lon="4.96055">
        <ele>403</ele>
        <time>2013-03-09T11:01:10.000Z</time>
      </trkpt>
      <trkpt lat="47.32484" lon="4.96053">
        <ele>403</ele>
        <time>2013-03-09T11:01:11.000Z</time>
      </trkpt>
      <trkpt lat="47.32486" lon="4.96048">
        <ele>404</ele>
        <time>2013-03-09T11:01:13.000Z</time>
      </trkpt>
      <trkpt lat="47.32487" lon="4.96046">
        <ele>404</ele>
        <time>2013-03-09T11:01:14.000Z</time>
      </trkpt>
      <trkpt lat="47.32488" lon="4.96041">
        <ele>404</ele>
        <time>2013-03-09T11:01:16.000Z</time>
      </trkpt>
      <trkpt lat="47.32488" lon="4.96038">
        <ele>404</ele>
        <time>2013-03-09T11:01:17.000Z</time>
      </trkpt>
      <trkpt lat="47.32489" lon="4.96033">
        <ele>404</ele>
        <time>2013-03-09T11:01:19.000Z</time>
      </trkpt>
      <trkpt lat="47.3249" lon="4.9603">
        <ele>404</ele>
        <time>2013-03-09T11:01:20.000Z</time>
      </trkpt>
      <trkpt lat="47.3249" lon="4.96025">
        <ele>404</ele>
        <time>2013-03-09T11:01:22.000Z</time>
      </trkpt>
      <trkpt lat="47.3249" lon="4.96022">
        <ele>404</ele>
        <time>2013-03-09T11:01:23.000Z</time>
      </trkpt>
      <trkpt lat="47.32491" lon="4.96017">
        <ele>404</ele>
        <time>2013-03-09T11:01:25.000Z</time>
      </trkpt>
      <trkpt lat="47.32492" lon="4.96015">
        <ele>404</ele>
        <time>2013-03-09T11:01:26.000Z</time>
      </trkpt>
      <trkpt lat="47.32493" lon="4.96009">
        <ele>404</ele>
        <time>2013-03-09T11:01:28.000Z</time>
      </trkpt>
      <trkpt lat="47.32493" lon="4.96007">
        <ele>405</ele>
        <time>2013-03-09T11:01:29.000Z</time>
      </trkpt>
      <trkpt lat="47.32494" lon="4.96002">
        <ele>405</ele>
        <time>2013-03-09T11:01:31.000Z</time>
      </trkpt>
      <trkpt lat="47.32495" lon="4.95999">
        <ele>405</ele>
        <time>2013-03-09T11:01:32.000Z</time>
      </trkpt>
      <trkpt lat="47.32496" lon="4.95994">
        <ele>405</ele>
        <time>2013-03-09T11:01:34.000Z</time>
      </trkpt>
      <trkpt lat="47.32496" lon="4.95992">
        <ele>405</ele>
        <time>2013-03-09T11:01:35.000Z</time>
      </trkpt>
      <trkpt lat="47.32498" lon="4.95987">
        <ele>405</ele>
        <time>2013-03-09T11:01:37.000Z</time>
      </trkpt>
      <trkpt lat="47.32499" lon="4.95984">
        <ele>405</ele>
        <time>2013-03-09T11:01:38.000Z</time>
      </trkpt>
      <trkpt lat="47.325" lon="4.95979">
        <ele>405</ele>
        <time>2013-03-09T11:01:40.000Z</time>
      </trkpt>
      <trkpt lat="47.32501" lon="4.95977">
        <ele>404</ele>
        <time>2013-03-09T11:01:41.000Z</time>
      </trkpt>
      <trkpt lat="47.32503" lon="4.95972">
        <ele>404</ele>
        <time>2013-03-09T11:01:43.000Z</time>
      </trkpt>
      <trkpt lat="47.32503" lon="4.95969">
        <ele>404</ele>
        <time>2013-03-09T11:01:44.000Z</time>
      </trkpt>
      <trkpt lat="47.32505" lon="4.95964">
        <ele>404</ele>
        <time>2013-03-09T11:01:46.000Z</time>
      </trkpt>
      <trkpt lat="47.32505" lon="4.95962">
        <ele>404</ele>
        <time>2013-03-09T11:01:47.000Z</time>
      </trkpt>
      <trkpt lat="47.32507" lon="4.95957">
        <ele>404</ele>
        <time>2013-03-09T11:01:49.000Z</time>
      </trkpt>
      <trkpt lat="47.32511" lon="4.9594">
        <ele>404</ele>
        <time>2013-03-09T11:01:56.000Z</time>
      </trkpt>
      <trkpt lat="47.32513" lon="4.95934">
        <ele>404</ele>
        <time>2013-03-09T11:01:58.000Z</time>
      </trkpt>
      <trkpt lat="47.32514" lon="4.95932">
        <ele>404</ele>
        <time>2013-03-09T11:01:59.000Z</time>
      </trkpt>
      <trkpt lat="47.32515" lon="4.95927">
        <ele>404</ele>
        <time>2013-03-09T11:02:01.000Z</time>
      </trkpt>
      <trkpt lat="47.32515" lon="4.95925">
        <ele>404</ele>
        <time>2013-03-09T11:02:02.000Z</time>
      </trkpt>
      <trkpt lat="47.32516" lon="4.9592">
        <ele>404</ele>
        <time>2013-03-09T11:02:04.000Z</time>
      </trkpt>
      <trkpt lat="47.32517" lon="4.95918">
        <ele>404</ele>
        <time>2013-03-09T11:02:05.000Z</time>
      </trkpt>
      <trkpt lat="47.32518" lon="4.95912">
        <ele>405</ele>
        <time>2013-03-09T11:02:07.000Z</time>
      </trkpt>
      <trkpt lat="47.32519" lon="4.9591">
        <ele>404</ele>
        <time>2013-03-09T11:02:08.000Z</time>
      </trkpt>
      <trkpt lat="47.32521" lon="4.95905">
        <ele>404</ele>
        <time>2013-03-09T11:02:10.000Z</time>
      </trkpt>
      <trkpt lat="47.32522" lon="4.95902">
        <ele>404</ele>
        <time>2013-03-09T11:02:11.000Z</time>
      </trkpt>
      <trkpt lat="47.32523" lon="4.95898">
        <ele>404</ele>
        <time>2013-03-09T11:02:13.000Z</time>
      </trkpt>
      <trkpt lat="47.32524" lon="4.95895">
        <ele>404</ele>
        <time>2013-03-09T11:02:14.000Z</time>
      </trkpt>
      <trkpt lat="47.32525" lon="4.95891">
        <ele>404</ele>
        <time>2013-03-09T11:02:16.000Z</time>
      </trkpt>
      <trkpt lat="47.32526" lon="4.95888">
        <ele>404</ele>
        <time>2013-03-09T11:02:17.000Z</time>
      </trkpt>
      <trkpt lat="47.32527" lon="4.95883">
        <ele>404</ele>
        <time>2013-03-09T11:02:19.000Z</time>
      </trkpt>
      <trkpt lat="47.32528" lon="4.95881">
        <ele>404</ele>
        <time>2013-03-09T11:02:20.000Z</time>
      </trkpt>
      <trkpt lat="47.32529" lon="4.95877">
        <ele>404</ele>
        <time>2013-03-09T11:02:22.000Z</time>
      </trkpt>
      <trkpt lat="47.32529" lon="4.95874">
        <ele>404</ele>
        <time>2013-03-09T11:02:23.000Z</time>
      </trkpt>
      <trkpt lat="47.3253" lon="4.9587">
        <ele>404</ele>
        <time>2013-03-09T11:02:25.000Z</time>
      </trkpt>
      <trkpt lat="47.32531" lon="4.95867">
        <ele>404</ele>
        <time>2013-03-09T11:02:26.000Z</time>
      </trkpt>
      <trkpt lat="47.32531" lon="4.95863">
        <ele>404</ele>
        <time>2013-03-09T11:02:28.000Z</time>
      </trkpt>
      <trkpt lat="47.32531" lon="4.95861">
        <ele>404</ele>
        <time>2013-03-09T11:02:29.000Z</time>
      </trkpt>
      <trkpt lat="47.32532" lon="4.95855">
        <ele>404</ele>
        <time>2013-03-09T11:02:32.000Z</time>
      </trkpt>
      <trkpt lat="47.32532" lon="4.95853">
        <ele>404</ele>
        <time>2013-03-09T11:02:33.000Z</time>
      </trkpt>
      <trkpt lat="47.32534" lon="4.95848">
        <ele>404</ele>
        <time>2013-03-09T11:02:37.000Z</time>
      </trkpt>
      <trkpt lat="47.32534" lon="4.95847">
        <ele>404</ele>
        <time>2013-03-09T11:02:38.000Z</time>
      </trkpt>
      <trkpt lat="47.32535" lon="4.95843">
        <ele>404</ele>
        <time>2013-03-09T11:02:49.000Z</time>
      </trkpt>
      <trkpt lat="47.32537" lon="4.9584">
        <ele>404</ele>
        <time>2013-03-09T11:02:56.000Z</time>
      </trkpt>
      <trkpt lat="47.32533" lon="4.95843">
        <ele>404</ele>
        <time>2013-03-09T11:04:50.000Z</time>
      </trkpt>
    </trkseg>
  </trk>
</gpx>